<?xml version="1.0" encoding="UTF-8" standalone="no" ?>
<gpx xmlns="http://www.topografix.com/GPX/1/1" xmlns:xsi="http://www.w3.org/2001/XMLSchema-instance" xsi:schemaLocation="http://www.topografix.com/GPX/1/1 http://www.topografix.com/GPX/1/1/gpx.xsd" version="1.1" creator="VisuGPX - https://www.visugpx.com">
  <metadata>
    <name>Gourdon VTT</name>
  </metadata>
  <trk>
    <name><![CDATA[Gourdon VTT_1]]></name>
    <trkseg>
      <trkpt lat="44.73606" lon="1.38042">
        <ele>242.6</ele>
        <time>2024-07-23T07:25:40Z</time>
      </trkpt>
      <trkpt lat="44.73604" lon="1.38044">
        <ele>251.4</ele>
        <time>2024-07-23T07:25:41Z</time>
      </trkpt>
      <trkpt lat="44.73592" lon="1.38053">
        <ele>251.6</ele>
        <time>2024-07-23T07:25:46Z</time>
      </trkpt>
      <trkpt lat="44.7359" lon="1.38055">
        <ele>251.6</ele>
        <time>2024-07-23T07:25:47Z</time>
      </trkpt>
      <trkpt lat="44.73588" lon="1.38057">
        <ele>251.6</ele>
        <time>2024-07-23T07:25:48Z</time>
      </trkpt>
      <trkpt lat="44.73586" lon="1.38058">
        <ele>251.6</ele>
        <time>2024-07-23T07:25:49Z</time>
      </trkpt>
      <trkpt lat="44.73585" lon="1.3806">
        <ele>251.6</ele>
        <time>2024-07-23T07:25:50Z</time>
      </trkpt>
      <trkpt lat="44.73584" lon="1.38061">
        <ele>251.4</ele>
        <time>2024-07-23T07:25:51Z</time>
      </trkpt>
      <trkpt lat="44.73583" lon="1.38062">
        <ele>251.4</ele>
        <time>2024-07-23T07:25:52Z</time>
      </trkpt>
      <trkpt lat="44.73583" lon="1.38061">
        <ele>251.6</ele>
        <time>2024-07-23T07:25:53Z</time>
      </trkpt>
      <trkpt lat="44.73583" lon="1.38061">
        <ele>251.4</ele>
        <time>2024-07-23T07:25:55Z</time>
      </trkpt>
      <trkpt lat="44.73577" lon="1.38063">
        <ele>251</ele>
        <time>2024-07-23T07:26:03Z</time>
      </trkpt>
      <trkpt lat="44.73575" lon="1.38066">
        <ele>250.8</ele>
        <time>2024-07-23T07:26:04Z</time>
      </trkpt>
      <trkpt lat="44.73573" lon="1.3807">
        <ele>250.8</ele>
        <time>2024-07-23T07:26:05Z</time>
      </trkpt>
      <trkpt lat="44.73572" lon="1.38074">
        <ele>250.8</ele>
        <time>2024-07-23T07:26:06Z</time>
      </trkpt>
      <trkpt lat="44.73572" lon="1.38078">
        <ele>250.8</ele>
        <time>2024-07-23T07:26:07Z</time>
      </trkpt>
      <trkpt lat="44.73571" lon="1.38082">
        <ele>250.8</ele>
        <time>2024-07-23T07:26:08Z</time>
      </trkpt>
      <trkpt lat="44.7357" lon="1.38085">
        <ele>250.8</ele>
        <time>2024-07-23T07:26:09Z</time>
      </trkpt>
      <trkpt lat="44.7357" lon="1.38088">
        <ele>250.6</ele>
        <time>2024-07-23T07:26:10Z</time>
      </trkpt>
      <trkpt lat="44.73569" lon="1.38092">
        <ele>250.6</ele>
        <time>2024-07-23T07:26:11Z</time>
      </trkpt>
      <trkpt lat="44.73564" lon="1.38107">
        <ele>250.8</ele>
        <time>2024-07-23T07:26:16Z</time>
      </trkpt>
      <trkpt lat="44.73563" lon="1.38111">
        <ele>250.8</ele>
        <time>2024-07-23T07:26:17Z</time>
      </trkpt>
      <trkpt lat="44.73562" lon="1.38114">
        <ele>250.8</ele>
        <time>2024-07-23T07:26:18Z</time>
      </trkpt>
      <trkpt lat="44.73561" lon="1.38117">
        <ele>250.8</ele>
        <time>2024-07-23T07:26:19Z</time>
      </trkpt>
      <trkpt lat="44.73561" lon="1.3812">
        <ele>250.8</ele>
        <time>2024-07-23T07:26:20Z</time>
      </trkpt>
      <trkpt lat="44.7356" lon="1.38123">
        <ele>250.8</ele>
        <time>2024-07-23T07:26:21Z</time>
      </trkpt>
      <trkpt lat="44.7356" lon="1.38126">
        <ele>250.8</ele>
        <time>2024-07-23T07:26:22Z</time>
      </trkpt>
      <trkpt lat="44.7356" lon="1.38129">
        <ele>250.8</ele>
        <time>2024-07-23T07:26:23Z</time>
      </trkpt>
      <trkpt lat="44.7356" lon="1.38135">
        <ele>251</ele>
        <time>2024-07-23T07:26:25Z</time>
      </trkpt>
      <trkpt lat="44.7356" lon="1.38137">
        <ele>251</ele>
        <time>2024-07-23T07:26:26Z</time>
      </trkpt>
      <trkpt lat="44.7356" lon="1.38138">
        <ele>251</ele>
        <time>2024-07-23T07:26:27Z</time>
      </trkpt>
      <trkpt lat="44.7356" lon="1.38139">
        <ele>251</ele>
        <time>2024-07-23T07:26:29Z</time>
      </trkpt>
      <trkpt lat="44.73565" lon="1.38132">
        <ele>250.4</ele>
        <time>2024-07-23T07:30:49Z</time>
      </trkpt>
      <trkpt lat="44.73567" lon="1.38129">
        <ele>250.4</ele>
        <time>2024-07-23T07:30:50Z</time>
      </trkpt>
      <trkpt lat="44.7357" lon="1.38116">
        <ele>250.4</ele>
        <time>2024-07-23T07:30:53Z</time>
      </trkpt>
      <trkpt lat="44.73577" lon="1.38091">
        <ele>250.6</ele>
        <time>2024-07-23T07:30:58Z</time>
      </trkpt>
      <trkpt lat="44.73578" lon="1.38087">
        <ele>250.8</ele>
        <time>2024-07-23T07:30:59Z</time>
      </trkpt>
      <trkpt lat="44.73579" lon="1.38084">
        <ele>250.8</ele>
        <time>2024-07-23T07:31:00Z</time>
      </trkpt>
      <trkpt lat="44.7358" lon="1.38081">
        <ele>250.8</ele>
        <time>2024-07-23T07:31:01Z</time>
      </trkpt>
      <trkpt lat="44.73581" lon="1.38077">
        <ele>251</ele>
        <time>2024-07-23T07:31:02Z</time>
      </trkpt>
      <trkpt lat="44.73581" lon="1.38074">
        <ele>251</ele>
        <time>2024-07-23T07:31:03Z</time>
      </trkpt>
      <trkpt lat="44.73581" lon="1.38071">
        <ele>251</ele>
        <time>2024-07-23T07:31:04Z</time>
      </trkpt>
      <trkpt lat="44.7358" lon="1.38068">
        <ele>251</ele>
        <time>2024-07-23T07:31:05Z</time>
      </trkpt>
      <trkpt lat="44.73578" lon="1.38065">
        <ele>251</ele>
        <time>2024-07-23T07:31:06Z</time>
      </trkpt>
      <trkpt lat="44.73577" lon="1.38062">
        <ele>251.2</ele>
        <time>2024-07-23T07:31:07Z</time>
      </trkpt>
      <trkpt lat="44.73575" lon="1.38059">
        <ele>251.2</ele>
        <time>2024-07-23T07:31:08Z</time>
      </trkpt>
      <trkpt lat="44.73574" lon="1.38056">
        <ele>251.2</ele>
        <time>2024-07-23T07:31:09Z</time>
      </trkpt>
      <trkpt lat="44.73564" lon="1.38038">
        <ele>250.6</ele>
        <time>2024-07-23T07:31:13Z</time>
      </trkpt>
      <trkpt lat="44.73562" lon="1.38032">
        <ele>250.4</ele>
        <time>2024-07-23T07:31:14Z</time>
      </trkpt>
      <trkpt lat="44.73559" lon="1.38026">
        <ele>250.2</ele>
        <time>2024-07-23T07:31:15Z</time>
      </trkpt>
      <trkpt lat="44.73554" lon="1.38014">
        <ele>249.8</ele>
        <time>2024-07-23T07:31:17Z</time>
      </trkpt>
      <trkpt lat="44.73552" lon="1.38009">
        <ele>249.8</ele>
        <time>2024-07-23T07:31:18Z</time>
      </trkpt>
      <trkpt lat="44.7354" lon="1.37977">
        <ele>249.2</ele>
        <time>2024-07-23T07:31:22Z</time>
      </trkpt>
      <trkpt lat="44.73533" lon="1.37962">
        <ele>248.6</ele>
        <time>2024-07-23T07:31:24Z</time>
      </trkpt>
      <trkpt lat="44.73525" lon="1.37937">
        <ele>248.2</ele>
        <time>2024-07-23T07:31:27Z</time>
      </trkpt>
      <trkpt lat="44.73522" lon="1.3793">
        <ele>248</ele>
        <time>2024-07-23T07:31:28Z</time>
      </trkpt>
      <trkpt lat="44.73517" lon="1.37918">
        <ele>248</ele>
        <time>2024-07-23T07:31:30Z</time>
      </trkpt>
      <trkpt lat="44.73514" lon="1.37913">
        <ele>247.8</ele>
        <time>2024-07-23T07:31:31Z</time>
      </trkpt>
      <trkpt lat="44.73513" lon="1.37908">
        <ele>247.8</ele>
        <time>2024-07-23T07:31:32Z</time>
      </trkpt>
      <trkpt lat="44.7351" lon="1.37902">
        <ele>247.8</ele>
        <time>2024-07-23T07:31:33Z</time>
      </trkpt>
      <trkpt lat="44.73509" lon="1.37897">
        <ele>247.8</ele>
        <time>2024-07-23T07:31:34Z</time>
      </trkpt>
      <trkpt lat="44.73507" lon="1.37891">
        <ele>247.6</ele>
        <time>2024-07-23T07:31:35Z</time>
      </trkpt>
      <trkpt lat="44.73505" lon="1.37886">
        <ele>247.6</ele>
        <time>2024-07-23T07:31:36Z</time>
      </trkpt>
      <trkpt lat="44.73502" lon="1.37875">
        <ele>247.6</ele>
        <time>2024-07-23T07:31:38Z</time>
      </trkpt>
      <trkpt lat="44.73502" lon="1.3787">
        <ele>247.6</ele>
        <time>2024-07-23T07:31:39Z</time>
      </trkpt>
      <trkpt lat="44.735" lon="1.37866">
        <ele>247.8</ele>
        <time>2024-07-23T07:31:40Z</time>
      </trkpt>
      <trkpt lat="44.73496" lon="1.37852">
        <ele>248</ele>
        <time>2024-07-23T07:31:43Z</time>
      </trkpt>
      <trkpt lat="44.73496" lon="1.37848">
        <ele>248</ele>
        <time>2024-07-23T07:31:44Z</time>
      </trkpt>
      <trkpt lat="44.73495" lon="1.37844">
        <ele>248</ele>
        <time>2024-07-23T07:31:45Z</time>
      </trkpt>
      <trkpt lat="44.73494" lon="1.37841">
        <ele>248</ele>
        <time>2024-07-23T07:31:46Z</time>
      </trkpt>
      <trkpt lat="44.73493" lon="1.37838">
        <ele>248.2</ele>
        <time>2024-07-23T07:31:47Z</time>
      </trkpt>
      <trkpt lat="44.73492" lon="1.37835">
        <ele>248.2</ele>
        <time>2024-07-23T07:31:48Z</time>
      </trkpt>
      <trkpt lat="44.73491" lon="1.37832">
        <ele>248.4</ele>
        <time>2024-07-23T07:31:49Z</time>
      </trkpt>
      <trkpt lat="44.7349" lon="1.37829">
        <ele>248.6</ele>
        <time>2024-07-23T07:31:50Z</time>
      </trkpt>
      <trkpt lat="44.73489" lon="1.37827">
        <ele>248.8</ele>
        <time>2024-07-23T07:31:51Z</time>
      </trkpt>
      <trkpt lat="44.73488" lon="1.37824">
        <ele>249</ele>
        <time>2024-07-23T07:31:52Z</time>
      </trkpt>
      <trkpt lat="44.73487" lon="1.37822">
        <ele>249</ele>
        <time>2024-07-23T07:31:53Z</time>
      </trkpt>
      <trkpt lat="44.73486" lon="1.3782">
        <ele>249.4</ele>
        <time>2024-07-23T07:31:54Z</time>
      </trkpt>
      <trkpt lat="44.73484" lon="1.37816">
        <ele>249.6</ele>
        <time>2024-07-23T07:31:55Z</time>
      </trkpt>
      <trkpt lat="44.73483" lon="1.37814">
        <ele>249.8</ele>
        <time>2024-07-23T07:31:56Z</time>
      </trkpt>
      <trkpt lat="44.73481" lon="1.37812">
        <ele>250</ele>
        <time>2024-07-23T07:31:57Z</time>
      </trkpt>
      <trkpt lat="44.73479" lon="1.37809">
        <ele>250</ele>
        <time>2024-07-23T07:31:58Z</time>
      </trkpt>
      <trkpt lat="44.73474" lon="1.37802">
        <ele>250.4</ele>
        <time>2024-07-23T07:32:01Z</time>
      </trkpt>
      <trkpt lat="44.73472" lon="1.37799">
        <ele>250.6</ele>
        <time>2024-07-23T07:32:02Z</time>
      </trkpt>
      <trkpt lat="44.73464" lon="1.37789">
        <ele>251</ele>
        <time>2024-07-23T07:32:06Z</time>
      </trkpt>
      <trkpt lat="44.73462" lon="1.37787">
        <ele>251</ele>
        <time>2024-07-23T07:32:07Z</time>
      </trkpt>
      <trkpt lat="44.7346" lon="1.37784">
        <ele>251.2</ele>
        <time>2024-07-23T07:32:08Z</time>
      </trkpt>
      <trkpt lat="44.73458" lon="1.37781">
        <ele>251.4</ele>
        <time>2024-07-23T07:32:09Z</time>
      </trkpt>
      <trkpt lat="44.73457" lon="1.37779">
        <ele>251.4</ele>
        <time>2024-07-23T07:32:10Z</time>
      </trkpt>
      <trkpt lat="44.73456" lon="1.37777">
        <ele>251.6</ele>
        <time>2024-07-23T07:32:11Z</time>
      </trkpt>
      <trkpt lat="44.73455" lon="1.37775">
        <ele>251.6</ele>
        <time>2024-07-23T07:32:12Z</time>
      </trkpt>
      <trkpt lat="44.73453" lon="1.37772">
        <ele>251.8</ele>
        <time>2024-07-23T07:32:13Z</time>
      </trkpt>
      <trkpt lat="44.73451" lon="1.3777">
        <ele>251.8</ele>
        <time>2024-07-23T07:32:14Z</time>
      </trkpt>
      <trkpt lat="44.73449" lon="1.37767">
        <ele>252</ele>
        <time>2024-07-23T07:32:15Z</time>
      </trkpt>
      <trkpt lat="44.73447" lon="1.37765">
        <ele>252</ele>
        <time>2024-07-23T07:32:16Z</time>
      </trkpt>
      <trkpt lat="44.73446" lon="1.37762">
        <ele>252</ele>
        <time>2024-07-23T07:32:17Z</time>
      </trkpt>
      <trkpt lat="44.73445" lon="1.3776">
        <ele>252.2</ele>
        <time>2024-07-23T07:32:18Z</time>
      </trkpt>
      <trkpt lat="44.73443" lon="1.37756">
        <ele>252.2</ele>
        <time>2024-07-23T07:32:19Z</time>
      </trkpt>
      <trkpt lat="44.73441" lon="1.37753">
        <ele>252.2</ele>
        <time>2024-07-23T07:32:20Z</time>
      </trkpt>
      <trkpt lat="44.73439" lon="1.37749">
        <ele>252.2</ele>
        <time>2024-07-23T07:32:21Z</time>
      </trkpt>
      <trkpt lat="44.73437" lon="1.37745">
        <ele>252.2</ele>
        <time>2024-07-23T07:32:22Z</time>
      </trkpt>
      <trkpt lat="44.73435" lon="1.37742">
        <ele>252.4</ele>
        <time>2024-07-23T07:32:23Z</time>
      </trkpt>
      <trkpt lat="44.73432" lon="1.37739">
        <ele>252.4</ele>
        <time>2024-07-23T07:32:24Z</time>
      </trkpt>
      <trkpt lat="44.7343" lon="1.37736">
        <ele>252.4</ele>
        <time>2024-07-23T07:32:25Z</time>
      </trkpt>
      <trkpt lat="44.73417" lon="1.3772">
        <ele>252.4</ele>
        <time>2024-07-23T07:32:30Z</time>
      </trkpt>
      <trkpt lat="44.73402" lon="1.37704">
        <ele>252.2</ele>
        <time>2024-07-23T07:32:35Z</time>
      </trkpt>
      <trkpt lat="44.73387" lon="1.37683">
        <ele>251.4</ele>
        <time>2024-07-23T07:32:41Z</time>
      </trkpt>
      <trkpt lat="44.73382" lon="1.37678">
        <ele>251.2</ele>
        <time>2024-07-23T07:32:43Z</time>
      </trkpt>
      <trkpt lat="44.73379" lon="1.37674">
        <ele>251</ele>
        <time>2024-07-23T07:32:44Z</time>
      </trkpt>
      <trkpt lat="44.73376" lon="1.37671">
        <ele>250.8</ele>
        <time>2024-07-23T07:32:45Z</time>
      </trkpt>
      <trkpt lat="44.73373" lon="1.37668">
        <ele>250.6</ele>
        <time>2024-07-23T07:32:46Z</time>
      </trkpt>
      <trkpt lat="44.73365" lon="1.37661">
        <ele>250.4</ele>
        <time>2024-07-23T07:32:48Z</time>
      </trkpt>
      <trkpt lat="44.73362" lon="1.37658">
        <ele>250.4</ele>
        <time>2024-07-23T07:32:49Z</time>
      </trkpt>
      <trkpt lat="44.73361" lon="1.37656">
        <ele>250.2</ele>
        <time>2024-07-23T07:32:50Z</time>
      </trkpt>
      <trkpt lat="44.7336" lon="1.37655">
        <ele>250</ele>
        <time>2024-07-23T07:32:51Z</time>
      </trkpt>
      <trkpt lat="44.7336" lon="1.37655">
        <ele>249.8</ele>
        <time>2024-07-23T07:32:52Z</time>
      </trkpt>
      <trkpt lat="44.7336" lon="1.37655">
        <ele>249.6</ele>
        <time>2024-07-23T07:32:54Z</time>
      </trkpt>
      <trkpt lat="44.73355" lon="1.37652">
        <ele>249</ele>
        <time>2024-07-23T07:33:07Z</time>
      </trkpt>
      <trkpt lat="44.73353" lon="1.37651">
        <ele>249</ele>
        <time>2024-07-23T07:33:08Z</time>
      </trkpt>
      <trkpt lat="44.7334" lon="1.37639">
        <ele>248.4</ele>
        <time>2024-07-23T07:33:13Z</time>
      </trkpt>
      <trkpt lat="44.73318" lon="1.37615">
        <ele>247.8</ele>
        <time>2024-07-23T07:33:19Z</time>
      </trkpt>
      <trkpt lat="44.73314" lon="1.37612">
        <ele>247.8</ele>
        <time>2024-07-23T07:33:20Z</time>
      </trkpt>
      <trkpt lat="44.73311" lon="1.37609">
        <ele>247.6</ele>
        <time>2024-07-23T07:33:21Z</time>
      </trkpt>
      <trkpt lat="44.73311" lon="1.37609">
        <ele>247.6</ele>
        <time>2024-07-23T07:33:22Z</time>
      </trkpt>
      <trkpt lat="44.73291" lon="1.37589">
        <ele>246.8</ele>
        <time>2024-07-23T07:33:26Z</time>
      </trkpt>
      <trkpt lat="44.73262" lon="1.37562">
        <ele>245.6</ele>
        <time>2024-07-23T07:33:32Z</time>
      </trkpt>
      <trkpt lat="44.73262" lon="1.37562">
        <ele>245.4</ele>
        <time>2024-07-23T07:33:33Z</time>
      </trkpt>
      <trkpt lat="44.73238" lon="1.37539">
        <ele>244.6</ele>
        <time>2024-07-23T07:33:37Z</time>
      </trkpt>
      <trkpt lat="44.73229" lon="1.37531">
        <ele>244.2</ele>
        <time>2024-07-23T07:33:39Z</time>
      </trkpt>
      <trkpt lat="44.73226" lon="1.37527">
        <ele>243.8</ele>
        <time>2024-07-23T07:33:40Z</time>
      </trkpt>
      <trkpt lat="44.73223" lon="1.37524">
        <ele>243.8</ele>
        <time>2024-07-23T07:33:41Z</time>
      </trkpt>
      <trkpt lat="44.73221" lon="1.37521">
        <ele>243.4</ele>
        <time>2024-07-23T07:33:42Z</time>
      </trkpt>
      <trkpt lat="44.73221" lon="1.37517">
        <ele>243.4</ele>
        <time>2024-07-23T07:33:43Z</time>
      </trkpt>
      <trkpt lat="44.73222" lon="1.37514">
        <ele>243.2</ele>
        <time>2024-07-23T07:33:44Z</time>
      </trkpt>
      <trkpt lat="44.73227" lon="1.37503">
        <ele>242.6</ele>
        <time>2024-07-23T07:33:47Z</time>
      </trkpt>
      <trkpt lat="44.73229" lon="1.375">
        <ele>242.6</ele>
        <time>2024-07-23T07:33:48Z</time>
      </trkpt>
      <trkpt lat="44.73247" lon="1.37473">
        <ele>243.4</ele>
        <time>2024-07-23T07:33:57Z</time>
      </trkpt>
      <trkpt lat="44.73249" lon="1.3747">
        <ele>243.6</ele>
        <time>2024-07-23T07:33:58Z</time>
      </trkpt>
      <trkpt lat="44.7325" lon="1.37467">
        <ele>243.8</ele>
        <time>2024-07-23T07:33:59Z</time>
      </trkpt>
      <trkpt lat="44.73251" lon="1.37464">
        <ele>244</ele>
        <time>2024-07-23T07:34:00Z</time>
      </trkpt>
      <trkpt lat="44.73253" lon="1.37462">
        <ele>244.2</ele>
        <time>2024-07-23T07:34:01Z</time>
      </trkpt>
      <trkpt lat="44.73254" lon="1.37461">
        <ele>244.2</ele>
        <time>2024-07-23T07:34:02Z</time>
      </trkpt>
      <trkpt lat="44.73254" lon="1.37461">
        <ele>244.4</ele>
        <time>2024-07-23T07:34:03Z</time>
      </trkpt>
      <trkpt lat="44.73257" lon="1.37459">
        <ele>244.4</ele>
        <time>2024-07-23T07:34:04Z</time>
      </trkpt>
      <trkpt lat="44.73258" lon="1.37458">
        <ele>244.4</ele>
        <time>2024-07-23T07:34:05Z</time>
      </trkpt>
      <trkpt lat="44.73259" lon="1.37455">
        <ele>244.6</ele>
        <time>2024-07-23T07:34:06Z</time>
      </trkpt>
      <trkpt lat="44.73259" lon="1.37452">
        <ele>244.6</ele>
        <time>2024-07-23T07:34:07Z</time>
      </trkpt>
      <trkpt lat="44.73258" lon="1.37444">
        <ele>244.6</ele>
        <time>2024-07-23T07:34:09Z</time>
      </trkpt>
      <trkpt lat="44.73254" lon="1.37436">
        <ele>244.6</ele>
        <time>2024-07-23T07:34:11Z</time>
      </trkpt>
      <trkpt lat="44.73251" lon="1.37432">
        <ele>244.8</ele>
        <time>2024-07-23T07:34:12Z</time>
      </trkpt>
      <trkpt lat="44.73244" lon="1.37419">
        <ele>244.8</ele>
        <time>2024-07-23T07:34:15Z</time>
      </trkpt>
      <trkpt lat="44.73224" lon="1.37382">
        <ele>244.4</ele>
        <time>2024-07-23T07:34:23Z</time>
      </trkpt>
      <trkpt lat="44.7321" lon="1.37341">
        <ele>243.4</ele>
        <time>2024-07-23T07:34:30Z</time>
      </trkpt>
      <trkpt lat="44.73208" lon="1.37333">
        <ele>243</ele>
        <time>2024-07-23T07:34:31Z</time>
      </trkpt>
      <trkpt lat="44.73199" lon="1.37295">
        <ele>242.4</ele>
        <time>2024-07-23T07:34:36Z</time>
      </trkpt>
      <trkpt lat="44.73198" lon="1.37287">
        <ele>242.2</ele>
        <time>2024-07-23T07:34:37Z</time>
      </trkpt>
      <trkpt lat="44.73194" lon="1.3727">
        <ele>242</ele>
        <time>2024-07-23T07:34:39Z</time>
      </trkpt>
      <trkpt lat="44.73189" lon="1.37245">
        <ele>241.2</ele>
        <time>2024-07-23T07:34:42Z</time>
      </trkpt>
      <trkpt lat="44.73179" lon="1.372">
        <ele>239.8</ele>
        <time>2024-07-23T07:34:47Z</time>
      </trkpt>
      <trkpt lat="44.73177" lon="1.37191">
        <ele>239.6</ele>
        <time>2024-07-23T07:34:48Z</time>
      </trkpt>
      <trkpt lat="44.73171" lon="1.37164">
        <ele>238.6</ele>
        <time>2024-07-23T07:34:51Z</time>
      </trkpt>
      <trkpt lat="44.73163" lon="1.37129">
        <ele>237.8</ele>
        <time>2024-07-23T07:34:55Z</time>
      </trkpt>
      <trkpt lat="44.7316" lon="1.37111">
        <ele>237.2</ele>
        <time>2024-07-23T07:34:57Z</time>
      </trkpt>
      <trkpt lat="44.73156" lon="1.37093">
        <ele>236.6</ele>
        <time>2024-07-23T07:34:59Z</time>
      </trkpt>
      <trkpt lat="44.73154" lon="1.37053">
        <ele>235.8</ele>
        <time>2024-07-23T07:35:03Z</time>
      </trkpt>
      <trkpt lat="44.73154" lon="1.37023">
        <ele>235.2</ele>
        <time>2024-07-23T07:35:06Z</time>
      </trkpt>
      <trkpt lat="44.73156" lon="1.36988">
        <ele>234.6</ele>
        <time>2024-07-23T07:35:10Z</time>
      </trkpt>
      <trkpt lat="44.73156" lon="1.36979">
        <ele>234.6</ele>
        <time>2024-07-23T07:35:11Z</time>
      </trkpt>
      <trkpt lat="44.73157" lon="1.36971">
        <ele>234.4</ele>
        <time>2024-07-23T07:35:12Z</time>
      </trkpt>
      <trkpt lat="44.73157" lon="1.36963">
        <ele>234.4</ele>
        <time>2024-07-23T07:35:13Z</time>
      </trkpt>
      <trkpt lat="44.73157" lon="1.36963">
        <ele>234.4</ele>
        <time>2024-07-23T07:35:14Z</time>
      </trkpt>
      <trkpt lat="44.73158" lon="1.36948">
        <ele>234.2</ele>
        <time>2024-07-23T07:35:15Z</time>
      </trkpt>
      <trkpt lat="44.73158" lon="1.36941">
        <ele>234.2</ele>
        <time>2024-07-23T07:35:16Z</time>
      </trkpt>
      <trkpt lat="44.73158" lon="1.36934">
        <ele>234.2</ele>
        <time>2024-07-23T07:35:17Z</time>
      </trkpt>
      <trkpt lat="44.73158" lon="1.36927">
        <ele>234.2</ele>
        <time>2024-07-23T07:35:18Z</time>
      </trkpt>
      <trkpt lat="44.73157" lon="1.36921">
        <ele>234.2</ele>
        <time>2024-07-23T07:35:19Z</time>
      </trkpt>
      <trkpt lat="44.73157" lon="1.36901">
        <ele>234.2</ele>
        <time>2024-07-23T07:35:22Z</time>
      </trkpt>
      <trkpt lat="44.73157" lon="1.36895">
        <ele>234.2</ele>
        <time>2024-07-23T07:35:23Z</time>
      </trkpt>
      <trkpt lat="44.73156" lon="1.36888">
        <ele>234.2</ele>
        <time>2024-07-23T07:35:24Z</time>
      </trkpt>
      <trkpt lat="44.73156" lon="1.36888">
        <ele>234.2</ele>
        <time>2024-07-23T07:35:25Z</time>
      </trkpt>
      <trkpt lat="44.73155" lon="1.36874">
        <ele>234.2</ele>
        <time>2024-07-23T07:35:26Z</time>
      </trkpt>
      <trkpt lat="44.73148" lon="1.36828">
        <ele>233.6</ele>
        <time>2024-07-23T07:35:32Z</time>
      </trkpt>
      <trkpt lat="44.73146" lon="1.36812">
        <ele>233.2</ele>
        <time>2024-07-23T07:35:34Z</time>
      </trkpt>
      <trkpt lat="44.73145" lon="1.36796">
        <ele>232.8</ele>
        <time>2024-07-23T07:35:36Z</time>
      </trkpt>
      <trkpt lat="44.73145" lon="1.36791">
        <ele>232.8</ele>
        <time>2024-07-23T07:35:37Z</time>
      </trkpt>
      <trkpt lat="44.73144" lon="1.36784">
        <ele>232.6</ele>
        <time>2024-07-23T07:35:38Z</time>
      </trkpt>
      <trkpt lat="44.73142" lon="1.36769">
        <ele>232</ele>
        <time>2024-07-23T07:35:40Z</time>
      </trkpt>
      <trkpt lat="44.73139" lon="1.36757">
        <ele>231.6</ele>
        <time>2024-07-23T07:35:42Z</time>
      </trkpt>
      <trkpt lat="44.73137" lon="1.36752">
        <ele>231.6</ele>
        <time>2024-07-23T07:35:43Z</time>
      </trkpt>
      <trkpt lat="44.73136" lon="1.36747">
        <ele>231.6</ele>
        <time>2024-07-23T07:35:44Z</time>
      </trkpt>
      <trkpt lat="44.73134" lon="1.3674">
        <ele>231.4</ele>
        <time>2024-07-23T07:35:45Z</time>
      </trkpt>
      <trkpt lat="44.73133" lon="1.36734">
        <ele>231.2</ele>
        <time>2024-07-23T07:35:46Z</time>
      </trkpt>
      <trkpt lat="44.73132" lon="1.36728">
        <ele>231</ele>
        <time>2024-07-23T07:35:47Z</time>
      </trkpt>
      <trkpt lat="44.73132" lon="1.36723">
        <ele>230.8</ele>
        <time>2024-07-23T07:35:48Z</time>
      </trkpt>
      <trkpt lat="44.73132" lon="1.36716">
        <ele>230.8</ele>
        <time>2024-07-23T07:35:49Z</time>
      </trkpt>
      <trkpt lat="44.73137" lon="1.36671">
        <ele>230.6</ele>
        <time>2024-07-23T07:35:56Z</time>
      </trkpt>
      <trkpt lat="44.73142" lon="1.36647">
        <ele>230.6</ele>
        <time>2024-07-23T07:36:00Z</time>
      </trkpt>
      <trkpt lat="44.73143" lon="1.36641">
        <ele>230.8</ele>
        <time>2024-07-23T07:36:01Z</time>
      </trkpt>
      <trkpt lat="44.73144" lon="1.36636">
        <ele>230.8</ele>
        <time>2024-07-23T07:36:02Z</time>
      </trkpt>
      <trkpt lat="44.73144" lon="1.3663">
        <ele>231</ele>
        <time>2024-07-23T07:36:03Z</time>
      </trkpt>
      <trkpt lat="44.73145" lon="1.36624">
        <ele>231</ele>
        <time>2024-07-23T07:36:04Z</time>
      </trkpt>
      <trkpt lat="44.73143" lon="1.36578">
        <ele>230.6</ele>
        <time>2024-07-23T07:36:11Z</time>
      </trkpt>
      <trkpt lat="44.73141" lon="1.36563">
        <ele>230.2</ele>
        <time>2024-07-23T07:36:13Z</time>
      </trkpt>
      <trkpt lat="44.73138" lon="1.36539">
        <ele>229.6</ele>
        <time>2024-07-23T07:36:16Z</time>
      </trkpt>
      <trkpt lat="44.73138" lon="1.36532">
        <ele>229.4</ele>
        <time>2024-07-23T07:36:17Z</time>
      </trkpt>
      <trkpt lat="44.73135" lon="1.36516">
        <ele>229</ele>
        <time>2024-07-23T07:36:19Z</time>
      </trkpt>
      <trkpt lat="44.73133" lon="1.36507">
        <ele>228.8</ele>
        <time>2024-07-23T07:36:20Z</time>
      </trkpt>
      <trkpt lat="44.73126" lon="1.3647">
        <ele>227.8</ele>
        <time>2024-07-23T07:36:24Z</time>
      </trkpt>
      <trkpt lat="44.73124" lon="1.36461">
        <ele>227.6</ele>
        <time>2024-07-23T07:36:25Z</time>
      </trkpt>
      <trkpt lat="44.73122" lon="1.36452">
        <ele>227.4</ele>
        <time>2024-07-23T07:36:26Z</time>
      </trkpt>
      <trkpt lat="44.7312" lon="1.36445">
        <ele>226.8</ele>
        <time>2024-07-23T07:36:27Z</time>
      </trkpt>
      <trkpt lat="44.7311" lon="1.3641">
        <ele>225.8</ele>
        <time>2024-07-23T07:36:31Z</time>
      </trkpt>
      <trkpt lat="44.73096" lon="1.36378">
        <ele>225</ele>
        <time>2024-07-23T07:36:35Z</time>
      </trkpt>
      <trkpt lat="44.73094" lon="1.36373">
        <ele>224.8</ele>
        <time>2024-07-23T07:36:36Z</time>
      </trkpt>
      <trkpt lat="44.73093" lon="1.3637">
        <ele>224.6</ele>
        <time>2024-07-23T07:36:37Z</time>
      </trkpt>
      <trkpt lat="44.73091" lon="1.36366">
        <ele>224.2</ele>
        <time>2024-07-23T07:36:38Z</time>
      </trkpt>
      <trkpt lat="44.73089" lon="1.36362">
        <ele>224</ele>
        <time>2024-07-23T07:36:39Z</time>
      </trkpt>
      <trkpt lat="44.73086" lon="1.36354">
        <ele>223.6</ele>
        <time>2024-07-23T07:36:41Z</time>
      </trkpt>
      <trkpt lat="44.73081" lon="1.36339">
        <ele>222.8</ele>
        <time>2024-07-23T07:36:44Z</time>
      </trkpt>
      <trkpt lat="44.73078" lon="1.36328">
        <ele>222.6</ele>
        <time>2024-07-23T07:36:46Z</time>
      </trkpt>
      <trkpt lat="44.73077" lon="1.3632">
        <ele>222.6</ele>
        <time>2024-07-23T07:36:47Z</time>
      </trkpt>
      <trkpt lat="44.73076" lon="1.36305">
        <ele>222.4</ele>
        <time>2024-07-23T07:36:49Z</time>
      </trkpt>
      <trkpt lat="44.73082" lon="1.36261">
        <ele>221.8</ele>
        <time>2024-07-23T07:36:54Z</time>
      </trkpt>
      <trkpt lat="44.73084" lon="1.36252">
        <ele>221.6</ele>
        <time>2024-07-23T07:36:55Z</time>
      </trkpt>
      <trkpt lat="44.73088" lon="1.36235">
        <ele>221</ele>
        <time>2024-07-23T07:36:57Z</time>
      </trkpt>
      <trkpt lat="44.7309" lon="1.36228">
        <ele>220.6</ele>
        <time>2024-07-23T07:36:58Z</time>
      </trkpt>
      <trkpt lat="44.73096" lon="1.3621">
        <ele>219.8</ele>
        <time>2024-07-23T07:37:00Z</time>
      </trkpt>
      <trkpt lat="44.73098" lon="1.36201">
        <ele>219.4</ele>
        <time>2024-07-23T07:37:01Z</time>
      </trkpt>
      <trkpt lat="44.73098" lon="1.36192">
        <ele>219</ele>
        <time>2024-07-23T07:37:02Z</time>
      </trkpt>
      <trkpt lat="44.73097" lon="1.36183">
        <ele>218.6</ele>
        <time>2024-07-23T07:37:03Z</time>
      </trkpt>
      <trkpt lat="44.73096" lon="1.36174">
        <ele>217.8</ele>
        <time>2024-07-23T07:37:04Z</time>
      </trkpt>
      <trkpt lat="44.73092" lon="1.36162">
        <ele>216.8</ele>
        <time>2024-07-23T07:37:05Z</time>
      </trkpt>
      <trkpt lat="44.73089" lon="1.36152">
        <ele>216.4</ele>
        <time>2024-07-23T07:37:06Z</time>
      </trkpt>
      <trkpt lat="44.73085" lon="1.36143">
        <ele>215.6</ele>
        <time>2024-07-23T07:37:07Z</time>
      </trkpt>
      <trkpt lat="44.73081" lon="1.36132">
        <ele>214.8</ele>
        <time>2024-07-23T07:37:08Z</time>
      </trkpt>
      <trkpt lat="44.73076" lon="1.36123">
        <ele>213.6</ele>
        <time>2024-07-23T07:37:09Z</time>
      </trkpt>
      <trkpt lat="44.73071" lon="1.36111">
        <ele>213</ele>
        <time>2024-07-23T07:37:10Z</time>
      </trkpt>
      <trkpt lat="44.73065" lon="1.36099">
        <ele>211.6</ele>
        <time>2024-07-23T07:37:11Z</time>
      </trkpt>
      <trkpt lat="44.73058" lon="1.36087">
        <ele>210.2</ele>
        <time>2024-07-23T07:37:12Z</time>
      </trkpt>
      <trkpt lat="44.73041" lon="1.36057">
        <ele>208.4</ele>
        <time>2024-07-23T07:37:14Z</time>
      </trkpt>
      <trkpt lat="44.73032" lon="1.36039">
        <ele>207.2</ele>
        <time>2024-07-23T07:37:15Z</time>
      </trkpt>
      <trkpt lat="44.73023" lon="1.36021">
        <ele>205.4</ele>
        <time>2024-07-23T07:37:16Z</time>
      </trkpt>
      <trkpt lat="44.73007" lon="1.35989">
        <ele>202.6</ele>
        <time>2024-07-23T07:37:18Z</time>
      </trkpt>
      <trkpt lat="44.72999" lon="1.35972">
        <ele>199.4</ele>
        <time>2024-07-23T07:37:19Z</time>
      </trkpt>
      <trkpt lat="44.72991" lon="1.35956">
        <ele>197.8</ele>
        <time>2024-07-23T07:37:20Z</time>
      </trkpt>
      <trkpt lat="44.72984" lon="1.35939">
        <ele>195.6</ele>
        <time>2024-07-23T07:37:21Z</time>
      </trkpt>
      <trkpt lat="44.72978" lon="1.35923">
        <ele>194.6</ele>
        <time>2024-07-23T07:37:22Z</time>
      </trkpt>
      <trkpt lat="44.72973" lon="1.35906">
        <ele>193</ele>
        <time>2024-07-23T07:37:23Z</time>
      </trkpt>
      <trkpt lat="44.72969" lon="1.35889">
        <ele>192.4</ele>
        <time>2024-07-23T07:37:24Z</time>
      </trkpt>
      <trkpt lat="44.72966" lon="1.35874">
        <ele>191.4</ele>
        <time>2024-07-23T07:37:25Z</time>
      </trkpt>
      <trkpt lat="44.72963" lon="1.35859">
        <ele>190.8</ele>
        <time>2024-07-23T07:37:26Z</time>
      </trkpt>
      <trkpt lat="44.72961" lon="1.35843">
        <ele>189.8</ele>
        <time>2024-07-23T07:37:27Z</time>
      </trkpt>
      <trkpt lat="44.72958" lon="1.3583">
        <ele>189.2</ele>
        <time>2024-07-23T07:37:28Z</time>
      </trkpt>
      <trkpt lat="44.72955" lon="1.35819">
        <ele>189</ele>
        <time>2024-07-23T07:37:29Z</time>
      </trkpt>
      <trkpt lat="44.72951" lon="1.35806">
        <ele>188.8</ele>
        <time>2024-07-23T07:37:30Z</time>
      </trkpt>
      <trkpt lat="44.72949" lon="1.35798">
        <ele>188.8</ele>
        <time>2024-07-23T07:37:31Z</time>
      </trkpt>
      <trkpt lat="44.72946" lon="1.3579">
        <ele>188.8</ele>
        <time>2024-07-23T07:37:32Z</time>
      </trkpt>
      <trkpt lat="44.72944" lon="1.35784">
        <ele>188.8</ele>
        <time>2024-07-23T07:37:33Z</time>
      </trkpt>
      <trkpt lat="44.72942" lon="1.35778">
        <ele>188.8</ele>
        <time>2024-07-23T07:37:34Z</time>
      </trkpt>
      <trkpt lat="44.7294" lon="1.35772">
        <ele>189</ele>
        <time>2024-07-23T07:37:35Z</time>
      </trkpt>
      <trkpt lat="44.72938" lon="1.35768">
        <ele>189</ele>
        <time>2024-07-23T07:37:36Z</time>
      </trkpt>
      <trkpt lat="44.72936" lon="1.35761">
        <ele>189.4</ele>
        <time>2024-07-23T07:37:37Z</time>
      </trkpt>
      <trkpt lat="44.72934" lon="1.35756">
        <ele>190</ele>
        <time>2024-07-23T07:37:38Z</time>
      </trkpt>
      <trkpt lat="44.72932" lon="1.35751">
        <ele>190.6</ele>
        <time>2024-07-23T07:37:39Z</time>
      </trkpt>
      <trkpt lat="44.7293" lon="1.35746">
        <ele>190.8</ele>
        <time>2024-07-23T07:37:40Z</time>
      </trkpt>
      <trkpt lat="44.72929" lon="1.35741">
        <ele>191.4</ele>
        <time>2024-07-23T07:37:41Z</time>
      </trkpt>
      <trkpt lat="44.72927" lon="1.35737">
        <ele>191.8</ele>
        <time>2024-07-23T07:37:42Z</time>
      </trkpt>
      <trkpt lat="44.72925" lon="1.35732">
        <ele>192</ele>
        <time>2024-07-23T07:37:43Z</time>
      </trkpt>
      <trkpt lat="44.72921" lon="1.35724">
        <ele>192.6</ele>
        <time>2024-07-23T07:37:45Z</time>
      </trkpt>
      <trkpt lat="44.7292" lon="1.3572">
        <ele>193</ele>
        <time>2024-07-23T07:37:46Z</time>
      </trkpt>
      <trkpt lat="44.7292" lon="1.35718">
        <ele>193.2</ele>
        <time>2024-07-23T07:37:47Z</time>
      </trkpt>
      <trkpt lat="44.72918" lon="1.35715">
        <ele>193.4</ele>
        <time>2024-07-23T07:37:48Z</time>
      </trkpt>
      <trkpt lat="44.72917" lon="1.35711">
        <ele>194</ele>
        <time>2024-07-23T07:37:49Z</time>
      </trkpt>
      <trkpt lat="44.72916" lon="1.35708">
        <ele>194</ele>
        <time>2024-07-23T07:37:50Z</time>
      </trkpt>
      <trkpt lat="44.72907" lon="1.35681">
        <ele>194.6</ele>
        <time>2024-07-23T07:37:55Z</time>
      </trkpt>
      <trkpt lat="44.72895" lon="1.35642">
        <ele>194</ele>
        <time>2024-07-23T07:38:00Z</time>
      </trkpt>
      <trkpt lat="44.72881" lon="1.35601">
        <ele>192.6</ele>
        <time>2024-07-23T07:38:04Z</time>
      </trkpt>
      <trkpt lat="44.7287" lon="1.35568">
        <ele>191.2</ele>
        <time>2024-07-23T07:38:07Z</time>
      </trkpt>
      <trkpt lat="44.72858" lon="1.35536">
        <ele>189.6</ele>
        <time>2024-07-23T07:38:10Z</time>
      </trkpt>
      <trkpt lat="44.72851" lon="1.35517">
        <ele>188.6</ele>
        <time>2024-07-23T07:38:12Z</time>
      </trkpt>
      <trkpt lat="44.72838" lon="1.35481">
        <ele>187.2</ele>
        <time>2024-07-23T07:38:15Z</time>
      </trkpt>
      <trkpt lat="44.72823" lon="1.3544">
        <ele>185.6</ele>
        <time>2024-07-23T07:38:19Z</time>
      </trkpt>
      <trkpt lat="44.72819" lon="1.35431">
        <ele>185.4</ele>
        <time>2024-07-23T07:38:20Z</time>
      </trkpt>
      <trkpt lat="44.72816" lon="1.35421">
        <ele>185.2</ele>
        <time>2024-07-23T07:38:21Z</time>
      </trkpt>
      <trkpt lat="44.72813" lon="1.35412">
        <ele>185</ele>
        <time>2024-07-23T07:38:22Z</time>
      </trkpt>
      <trkpt lat="44.72811" lon="1.35403">
        <ele>184.8</ele>
        <time>2024-07-23T07:38:23Z</time>
      </trkpt>
      <trkpt lat="44.72808" lon="1.35393">
        <ele>184.8</ele>
        <time>2024-07-23T07:38:24Z</time>
      </trkpt>
      <trkpt lat="44.72806" lon="1.35387">
        <ele>184.8</ele>
        <time>2024-07-23T07:38:25Z</time>
      </trkpt>
      <trkpt lat="44.72804" lon="1.35379">
        <ele>184.8</ele>
        <time>2024-07-23T07:38:26Z</time>
      </trkpt>
      <trkpt lat="44.72803" lon="1.35373">
        <ele>184.8</ele>
        <time>2024-07-23T07:38:27Z</time>
      </trkpt>
      <trkpt lat="44.72802" lon="1.35367">
        <ele>185</ele>
        <time>2024-07-23T07:38:28Z</time>
      </trkpt>
      <trkpt lat="44.72801" lon="1.35362">
        <ele>185</ele>
        <time>2024-07-23T07:38:29Z</time>
      </trkpt>
      <trkpt lat="44.728" lon="1.35358">
        <ele>185.4</ele>
        <time>2024-07-23T07:38:30Z</time>
      </trkpt>
      <trkpt lat="44.728" lon="1.35354">
        <ele>185.6</ele>
        <time>2024-07-23T07:38:31Z</time>
      </trkpt>
      <trkpt lat="44.72799" lon="1.35349">
        <ele>186</ele>
        <time>2024-07-23T07:38:32Z</time>
      </trkpt>
      <trkpt lat="44.72799" lon="1.35346">
        <ele>186.4</ele>
        <time>2024-07-23T07:38:33Z</time>
      </trkpt>
      <trkpt lat="44.72799" lon="1.35342">
        <ele>186.6</ele>
        <time>2024-07-23T07:38:34Z</time>
      </trkpt>
      <trkpt lat="44.72798" lon="1.35339">
        <ele>187</ele>
        <time>2024-07-23T07:38:35Z</time>
      </trkpt>
      <trkpt lat="44.72799" lon="1.35335">
        <ele>187.2</ele>
        <time>2024-07-23T07:38:36Z</time>
      </trkpt>
      <trkpt lat="44.72799" lon="1.35331">
        <ele>187.6</ele>
        <time>2024-07-23T07:38:37Z</time>
      </trkpt>
      <trkpt lat="44.72799" lon="1.35325">
        <ele>188</ele>
        <time>2024-07-23T07:38:39Z</time>
      </trkpt>
      <trkpt lat="44.72799" lon="1.35322">
        <ele>188.6</ele>
        <time>2024-07-23T07:38:40Z</time>
      </trkpt>
      <trkpt lat="44.72799" lon="1.35318">
        <ele>188.8</ele>
        <time>2024-07-23T07:38:41Z</time>
      </trkpt>
      <trkpt lat="44.72798" lon="1.35314">
        <ele>189.2</ele>
        <time>2024-07-23T07:38:42Z</time>
      </trkpt>
      <trkpt lat="44.72798" lon="1.35311">
        <ele>189.2</ele>
        <time>2024-07-23T07:38:43Z</time>
      </trkpt>
      <trkpt lat="44.72798" lon="1.35307">
        <ele>189.8</ele>
        <time>2024-07-23T07:38:44Z</time>
      </trkpt>
      <trkpt lat="44.72797" lon="1.35301">
        <ele>190.6</ele>
        <time>2024-07-23T07:38:46Z</time>
      </trkpt>
      <trkpt lat="44.72796" lon="1.35297">
        <ele>191</ele>
        <time>2024-07-23T07:38:47Z</time>
      </trkpt>
      <trkpt lat="44.72796" lon="1.35293">
        <ele>191.2</ele>
        <time>2024-07-23T07:38:48Z</time>
      </trkpt>
      <trkpt lat="44.72795" lon="1.35289">
        <ele>191.6</ele>
        <time>2024-07-23T07:38:49Z</time>
      </trkpt>
      <trkpt lat="44.72795" lon="1.35286">
        <ele>191.8</ele>
        <time>2024-07-23T07:38:50Z</time>
      </trkpt>
      <trkpt lat="44.72794" lon="1.35283">
        <ele>192.2</ele>
        <time>2024-07-23T07:38:51Z</time>
      </trkpt>
      <trkpt lat="44.72793" lon="1.35279">
        <ele>192.2</ele>
        <time>2024-07-23T07:38:52Z</time>
      </trkpt>
      <trkpt lat="44.72793" lon="1.35275">
        <ele>192.4</ele>
        <time>2024-07-23T07:38:53Z</time>
      </trkpt>
      <trkpt lat="44.72792" lon="1.35271">
        <ele>192.8</ele>
        <time>2024-07-23T07:38:54Z</time>
      </trkpt>
      <trkpt lat="44.72792" lon="1.35268">
        <ele>193</ele>
        <time>2024-07-23T07:38:55Z</time>
      </trkpt>
      <trkpt lat="44.72792" lon="1.35265">
        <ele>193.2</ele>
        <time>2024-07-23T07:38:56Z</time>
      </trkpt>
      <trkpt lat="44.72791" lon="1.35261">
        <ele>193.4</ele>
        <time>2024-07-23T07:38:57Z</time>
      </trkpt>
      <trkpt lat="44.72791" lon="1.35257">
        <ele>193.6</ele>
        <time>2024-07-23T07:38:58Z</time>
      </trkpt>
      <trkpt lat="44.72791" lon="1.35254">
        <ele>193.8</ele>
        <time>2024-07-23T07:38:59Z</time>
      </trkpt>
      <trkpt lat="44.7279" lon="1.35251">
        <ele>194</ele>
        <time>2024-07-23T07:39:00Z</time>
      </trkpt>
      <trkpt lat="44.7279" lon="1.35247">
        <ele>194</ele>
        <time>2024-07-23T07:39:01Z</time>
      </trkpt>
      <trkpt lat="44.72789" lon="1.35244">
        <ele>194.4</ele>
        <time>2024-07-23T07:39:02Z</time>
      </trkpt>
      <trkpt lat="44.72788" lon="1.3524">
        <ele>194.6</ele>
        <time>2024-07-23T07:39:03Z</time>
      </trkpt>
      <trkpt lat="44.72788" lon="1.35237">
        <ele>194.6</ele>
        <time>2024-07-23T07:39:04Z</time>
      </trkpt>
      <trkpt lat="44.72787" lon="1.35233">
        <ele>195</ele>
        <time>2024-07-23T07:39:05Z</time>
      </trkpt>
      <trkpt lat="44.72787" lon="1.3523">
        <ele>195</ele>
        <time>2024-07-23T07:39:06Z</time>
      </trkpt>
      <trkpt lat="44.72786" lon="1.35226">
        <ele>195.2</ele>
        <time>2024-07-23T07:39:07Z</time>
      </trkpt>
      <trkpt lat="44.72785" lon="1.35223">
        <ele>195.2</ele>
        <time>2024-07-23T07:39:08Z</time>
      </trkpt>
      <trkpt lat="44.72785" lon="1.35221">
        <ele>195.4</ele>
        <time>2024-07-23T07:39:09Z</time>
      </trkpt>
      <trkpt lat="44.72784" lon="1.35217">
        <ele>195.6</ele>
        <time>2024-07-23T07:39:10Z</time>
      </trkpt>
      <trkpt lat="44.72784" lon="1.35213">
        <ele>195.8</ele>
        <time>2024-07-23T07:39:11Z</time>
      </trkpt>
      <trkpt lat="44.72783" lon="1.3521">
        <ele>196</ele>
        <time>2024-07-23T07:39:12Z</time>
      </trkpt>
      <trkpt lat="44.72782" lon="1.35207">
        <ele>196.2</ele>
        <time>2024-07-23T07:39:13Z</time>
      </trkpt>
      <trkpt lat="44.72781" lon="1.35205">
        <ele>196.4</ele>
        <time>2024-07-23T07:39:14Z</time>
      </trkpt>
      <trkpt lat="44.7278" lon="1.35202">
        <ele>196.8</ele>
        <time>2024-07-23T07:39:15Z</time>
      </trkpt>
      <trkpt lat="44.72779" lon="1.35198">
        <ele>196.8</ele>
        <time>2024-07-23T07:39:16Z</time>
      </trkpt>
      <trkpt lat="44.72779" lon="1.35195">
        <ele>197</ele>
        <time>2024-07-23T07:39:17Z</time>
      </trkpt>
      <trkpt lat="44.72778" lon="1.35193">
        <ele>197.4</ele>
        <time>2024-07-23T07:39:18Z</time>
      </trkpt>
      <trkpt lat="44.72777" lon="1.3519">
        <ele>197.6</ele>
        <time>2024-07-23T07:39:19Z</time>
      </trkpt>
      <trkpt lat="44.72776" lon="1.35187">
        <ele>197.8</ele>
        <time>2024-07-23T07:39:20Z</time>
      </trkpt>
      <trkpt lat="44.72775" lon="1.35185">
        <ele>198</ele>
        <time>2024-07-23T07:39:21Z</time>
      </trkpt>
      <trkpt lat="44.72774" lon="1.35183">
        <ele>198</ele>
        <time>2024-07-23T07:39:22Z</time>
      </trkpt>
      <trkpt lat="44.72773" lon="1.3518">
        <ele>198.2</ele>
        <time>2024-07-23T07:39:23Z</time>
      </trkpt>
      <trkpt lat="44.72772" lon="1.35178">
        <ele>198.6</ele>
        <time>2024-07-23T07:39:24Z</time>
      </trkpt>
      <trkpt lat="44.72772" lon="1.35176">
        <ele>198.8</ele>
        <time>2024-07-23T07:39:25Z</time>
      </trkpt>
      <trkpt lat="44.72771" lon="1.35173">
        <ele>199.2</ele>
        <time>2024-07-23T07:39:26Z</time>
      </trkpt>
      <trkpt lat="44.7277" lon="1.35171">
        <ele>199.2</ele>
        <time>2024-07-23T07:39:27Z</time>
      </trkpt>
      <trkpt lat="44.7277" lon="1.35171">
        <ele>199.6</ele>
        <time>2024-07-23T07:39:28Z</time>
      </trkpt>
      <trkpt lat="44.72768" lon="1.35166">
        <ele>199.8</ele>
        <time>2024-07-23T07:39:29Z</time>
      </trkpt>
      <trkpt lat="44.72767" lon="1.35164">
        <ele>200</ele>
        <time>2024-07-23T07:39:30Z</time>
      </trkpt>
      <trkpt lat="44.72766" lon="1.35162">
        <ele>200.2</ele>
        <time>2024-07-23T07:39:31Z</time>
      </trkpt>
      <trkpt lat="44.72765" lon="1.3516">
        <ele>200.4</ele>
        <time>2024-07-23T07:39:32Z</time>
      </trkpt>
      <trkpt lat="44.72764" lon="1.35158">
        <ele>200.6</ele>
        <time>2024-07-23T07:39:33Z</time>
      </trkpt>
      <trkpt lat="44.72763" lon="1.35156">
        <ele>200.8</ele>
        <time>2024-07-23T07:39:34Z</time>
      </trkpt>
      <trkpt lat="44.72761" lon="1.35154">
        <ele>201</ele>
        <time>2024-07-23T07:39:35Z</time>
      </trkpt>
      <trkpt lat="44.7276" lon="1.35152">
        <ele>201.2</ele>
        <time>2024-07-23T07:39:36Z</time>
      </trkpt>
      <trkpt lat="44.72758" lon="1.3515">
        <ele>201.6</ele>
        <time>2024-07-23T07:39:37Z</time>
      </trkpt>
      <trkpt lat="44.72758" lon="1.3515">
        <ele>201.8</ele>
        <time>2024-07-23T07:39:38Z</time>
      </trkpt>
      <trkpt lat="44.72756" lon="1.35147">
        <ele>202</ele>
        <time>2024-07-23T07:39:39Z</time>
      </trkpt>
      <trkpt lat="44.72754" lon="1.35145">
        <ele>202.2</ele>
        <time>2024-07-23T07:39:40Z</time>
      </trkpt>
      <trkpt lat="44.72752" lon="1.35144">
        <ele>202.4</ele>
        <time>2024-07-23T07:39:41Z</time>
      </trkpt>
      <trkpt lat="44.72751" lon="1.35142">
        <ele>202.8</ele>
        <time>2024-07-23T07:39:42Z</time>
      </trkpt>
      <trkpt lat="44.72749" lon="1.35141">
        <ele>202.8</ele>
        <time>2024-07-23T07:39:43Z</time>
      </trkpt>
      <trkpt lat="44.72748" lon="1.3514">
        <ele>203</ele>
        <time>2024-07-23T07:39:44Z</time>
      </trkpt>
      <trkpt lat="44.72746" lon="1.35139">
        <ele>203.4</ele>
        <time>2024-07-23T07:39:45Z</time>
      </trkpt>
      <trkpt lat="44.72744" lon="1.35138">
        <ele>203.6</ele>
        <time>2024-07-23T07:39:46Z</time>
      </trkpt>
      <trkpt lat="44.72743" lon="1.35138">
        <ele>203.8</ele>
        <time>2024-07-23T07:39:47Z</time>
      </trkpt>
      <trkpt lat="44.72743" lon="1.35138">
        <ele>204</ele>
        <time>2024-07-23T07:39:48Z</time>
      </trkpt>
      <trkpt lat="44.72739" lon="1.35137">
        <ele>204.2</ele>
        <time>2024-07-23T07:39:49Z</time>
      </trkpt>
      <trkpt lat="44.72738" lon="1.35137">
        <ele>204.2</ele>
        <time>2024-07-23T07:39:50Z</time>
      </trkpt>
      <trkpt lat="44.72736" lon="1.35137">
        <ele>204.6</ele>
        <time>2024-07-23T07:39:51Z</time>
      </trkpt>
      <trkpt lat="44.72734" lon="1.35137">
        <ele>204.8</ele>
        <time>2024-07-23T07:39:52Z</time>
      </trkpt>
      <trkpt lat="44.72734" lon="1.35137">
        <ele>205</ele>
        <time>2024-07-23T07:39:53Z</time>
      </trkpt>
      <trkpt lat="44.7273" lon="1.35138">
        <ele>205.2</ele>
        <time>2024-07-23T07:39:54Z</time>
      </trkpt>
      <trkpt lat="44.72729" lon="1.35138">
        <ele>205.4</ele>
        <time>2024-07-23T07:39:55Z</time>
      </trkpt>
      <trkpt lat="44.72727" lon="1.35138">
        <ele>205.6</ele>
        <time>2024-07-23T07:39:56Z</time>
      </trkpt>
      <trkpt lat="44.72725" lon="1.35139">
        <ele>205.8</ele>
        <time>2024-07-23T07:39:57Z</time>
      </trkpt>
      <trkpt lat="44.72724" lon="1.35139">
        <ele>206.2</ele>
        <time>2024-07-23T07:39:58Z</time>
      </trkpt>
      <trkpt lat="44.72722" lon="1.35139">
        <ele>206.4</ele>
        <time>2024-07-23T07:39:59Z</time>
      </trkpt>
      <trkpt lat="44.7272" lon="1.35139">
        <ele>206.8</ele>
        <time>2024-07-23T07:40:00Z</time>
      </trkpt>
      <trkpt lat="44.72719" lon="1.3514">
        <ele>207.2</ele>
        <time>2024-07-23T07:40:01Z</time>
      </trkpt>
      <trkpt lat="44.72717" lon="1.3514">
        <ele>207.4</ele>
        <time>2024-07-23T07:40:02Z</time>
      </trkpt>
      <trkpt lat="44.72716" lon="1.35141">
        <ele>207.6</ele>
        <time>2024-07-23T07:40:03Z</time>
      </trkpt>
      <trkpt lat="44.72714" lon="1.35141">
        <ele>207.6</ele>
        <time>2024-07-23T07:40:04Z</time>
      </trkpt>
      <trkpt lat="44.72712" lon="1.35141">
        <ele>208</ele>
        <time>2024-07-23T07:40:05Z</time>
      </trkpt>
      <trkpt lat="44.7271" lon="1.35142">
        <ele>208.2</ele>
        <time>2024-07-23T07:40:06Z</time>
      </trkpt>
      <trkpt lat="44.72708" lon="1.35142">
        <ele>208.6</ele>
        <time>2024-07-23T07:40:07Z</time>
      </trkpt>
      <trkpt lat="44.72706" lon="1.35142">
        <ele>208.8</ele>
        <time>2024-07-23T07:40:08Z</time>
      </trkpt>
      <trkpt lat="44.72704" lon="1.35143">
        <ele>209</ele>
        <time>2024-07-23T07:40:09Z</time>
      </trkpt>
      <trkpt lat="44.72702" lon="1.35143">
        <ele>209.4</ele>
        <time>2024-07-23T07:40:10Z</time>
      </trkpt>
      <trkpt lat="44.727" lon="1.35143">
        <ele>209.4</ele>
        <time>2024-07-23T07:40:11Z</time>
      </trkpt>
      <trkpt lat="44.72699" lon="1.35143">
        <ele>209.8</ele>
        <time>2024-07-23T07:40:12Z</time>
      </trkpt>
      <trkpt lat="44.72697" lon="1.35143">
        <ele>210</ele>
        <time>2024-07-23T07:40:13Z</time>
      </trkpt>
      <trkpt lat="44.72695" lon="1.35144">
        <ele>210.2</ele>
        <time>2024-07-23T07:40:14Z</time>
      </trkpt>
      <trkpt lat="44.72693" lon="1.35144">
        <ele>210.4</ele>
        <time>2024-07-23T07:40:15Z</time>
      </trkpt>
      <trkpt lat="44.72691" lon="1.35144">
        <ele>210.4</ele>
        <time>2024-07-23T07:40:16Z</time>
      </trkpt>
      <trkpt lat="44.72689" lon="1.35144">
        <ele>210.8</ele>
        <time>2024-07-23T07:40:17Z</time>
      </trkpt>
      <trkpt lat="44.72689" lon="1.35144">
        <ele>210.8</ele>
        <time>2024-07-23T07:40:18Z</time>
      </trkpt>
      <trkpt lat="44.72685" lon="1.35145">
        <ele>211</ele>
        <time>2024-07-23T07:40:19Z</time>
      </trkpt>
      <trkpt lat="44.72683" lon="1.35145">
        <ele>211.2</ele>
        <time>2024-07-23T07:40:20Z</time>
      </trkpt>
      <trkpt lat="44.72681" lon="1.35145">
        <ele>211.2</ele>
        <time>2024-07-23T07:40:21Z</time>
      </trkpt>
      <trkpt lat="44.72679" lon="1.35146">
        <ele>211.4</ele>
        <time>2024-07-23T07:40:22Z</time>
      </trkpt>
      <trkpt lat="44.72677" lon="1.35146">
        <ele>211.6</ele>
        <time>2024-07-23T07:40:23Z</time>
      </trkpt>
      <trkpt lat="44.72675" lon="1.35146">
        <ele>211.8</ele>
        <time>2024-07-23T07:40:24Z</time>
      </trkpt>
      <trkpt lat="44.72673" lon="1.35147">
        <ele>211.8</ele>
        <time>2024-07-23T07:40:25Z</time>
      </trkpt>
      <trkpt lat="44.72671" lon="1.35147">
        <ele>212</ele>
        <time>2024-07-23T07:40:26Z</time>
      </trkpt>
      <trkpt lat="44.72669" lon="1.35147">
        <ele>212</ele>
        <time>2024-07-23T07:40:27Z</time>
      </trkpt>
      <trkpt lat="44.72667" lon="1.35147">
        <ele>212.2</ele>
        <time>2024-07-23T07:40:28Z</time>
      </trkpt>
      <trkpt lat="44.72665" lon="1.35147">
        <ele>212.4</ele>
        <time>2024-07-23T07:40:29Z</time>
      </trkpt>
      <trkpt lat="44.72663" lon="1.35148">
        <ele>212.4</ele>
        <time>2024-07-23T07:40:30Z</time>
      </trkpt>
      <trkpt lat="44.72661" lon="1.35148">
        <ele>212.6</ele>
        <time>2024-07-23T07:40:31Z</time>
      </trkpt>
      <trkpt lat="44.72659" lon="1.35148">
        <ele>212.6</ele>
        <time>2024-07-23T07:40:32Z</time>
      </trkpt>
      <trkpt lat="44.72657" lon="1.35149">
        <ele>212.8</ele>
        <time>2024-07-23T07:40:33Z</time>
      </trkpt>
      <trkpt lat="44.72655" lon="1.35149">
        <ele>212.8</ele>
        <time>2024-07-23T07:40:34Z</time>
      </trkpt>
      <trkpt lat="44.72653" lon="1.35149">
        <ele>213</ele>
        <time>2024-07-23T07:40:35Z</time>
      </trkpt>
      <trkpt lat="44.72651" lon="1.3515">
        <ele>213.2</ele>
        <time>2024-07-23T07:40:36Z</time>
      </trkpt>
      <trkpt lat="44.72649" lon="1.3515">
        <ele>213.2</ele>
        <time>2024-07-23T07:40:37Z</time>
      </trkpt>
      <trkpt lat="44.72647" lon="1.35151">
        <ele>213.4</ele>
        <time>2024-07-23T07:40:38Z</time>
      </trkpt>
      <trkpt lat="44.72645" lon="1.35151">
        <ele>213.4</ele>
        <time>2024-07-23T07:40:39Z</time>
      </trkpt>
      <trkpt lat="44.72643" lon="1.35151">
        <ele>213.6</ele>
        <time>2024-07-23T07:40:40Z</time>
      </trkpt>
      <trkpt lat="44.72641" lon="1.35152">
        <ele>213.8</ele>
        <time>2024-07-23T07:40:41Z</time>
      </trkpt>
      <trkpt lat="44.72638" lon="1.35152">
        <ele>214.2</ele>
        <time>2024-07-23T07:40:42Z</time>
      </trkpt>
      <trkpt lat="44.72636" lon="1.35152">
        <ele>214.4</ele>
        <time>2024-07-23T07:40:43Z</time>
      </trkpt>
      <trkpt lat="44.72634" lon="1.35152">
        <ele>214.4</ele>
        <time>2024-07-23T07:40:44Z</time>
      </trkpt>
      <trkpt lat="44.72632" lon="1.35152">
        <ele>214.6</ele>
        <time>2024-07-23T07:40:45Z</time>
      </trkpt>
      <trkpt lat="44.7263" lon="1.35153">
        <ele>214.8</ele>
        <time>2024-07-23T07:40:46Z</time>
      </trkpt>
      <trkpt lat="44.72628" lon="1.35153">
        <ele>215</ele>
        <time>2024-07-23T07:40:47Z</time>
      </trkpt>
      <trkpt lat="44.72625" lon="1.35153">
        <ele>215</ele>
        <time>2024-07-23T07:40:48Z</time>
      </trkpt>
      <trkpt lat="44.72624" lon="1.35154">
        <ele>215.2</ele>
        <time>2024-07-23T07:40:49Z</time>
      </trkpt>
      <trkpt lat="44.72622" lon="1.35154">
        <ele>215.4</ele>
        <time>2024-07-23T07:40:50Z</time>
      </trkpt>
      <trkpt lat="44.72619" lon="1.35154">
        <ele>215.6</ele>
        <time>2024-07-23T07:40:51Z</time>
      </trkpt>
      <trkpt lat="44.72617" lon="1.35155">
        <ele>215.6</ele>
        <time>2024-07-23T07:40:52Z</time>
      </trkpt>
      <trkpt lat="44.72615" lon="1.35155">
        <ele>215.6</ele>
        <time>2024-07-23T07:40:53Z</time>
      </trkpt>
      <trkpt lat="44.72613" lon="1.35155">
        <ele>215.8</ele>
        <time>2024-07-23T07:40:54Z</time>
      </trkpt>
      <trkpt lat="44.72611" lon="1.35156">
        <ele>216</ele>
        <time>2024-07-23T07:40:55Z</time>
      </trkpt>
      <trkpt lat="44.72608" lon="1.35156">
        <ele>216.2</ele>
        <time>2024-07-23T07:40:56Z</time>
      </trkpt>
      <trkpt lat="44.72606" lon="1.35156">
        <ele>216.4</ele>
        <time>2024-07-23T07:40:57Z</time>
      </trkpt>
      <trkpt lat="44.72604" lon="1.35157">
        <ele>216.4</ele>
        <time>2024-07-23T07:40:58Z</time>
      </trkpt>
      <trkpt lat="44.72602" lon="1.35157">
        <ele>216.6</ele>
        <time>2024-07-23T07:40:59Z</time>
      </trkpt>
      <trkpt lat="44.726" lon="1.35158">
        <ele>216.6</ele>
        <time>2024-07-23T07:41:00Z</time>
      </trkpt>
      <trkpt lat="44.72597" lon="1.35158">
        <ele>216.8</ele>
        <time>2024-07-23T07:41:01Z</time>
      </trkpt>
      <trkpt lat="44.72595" lon="1.35158">
        <ele>217</ele>
        <time>2024-07-23T07:41:02Z</time>
      </trkpt>
      <trkpt lat="44.72594" lon="1.35158">
        <ele>217</ele>
        <time>2024-07-23T07:41:03Z</time>
      </trkpt>
      <trkpt lat="44.72592" lon="1.35159">
        <ele>217.2</ele>
        <time>2024-07-23T07:41:04Z</time>
      </trkpt>
      <trkpt lat="44.72589" lon="1.35159">
        <ele>217.4</ele>
        <time>2024-07-23T07:41:05Z</time>
      </trkpt>
      <trkpt lat="44.72587" lon="1.3516">
        <ele>217.8</ele>
        <time>2024-07-23T07:41:06Z</time>
      </trkpt>
      <trkpt lat="44.72585" lon="1.3516">
        <ele>217.8</ele>
        <time>2024-07-23T07:41:07Z</time>
      </trkpt>
      <trkpt lat="44.72583" lon="1.35161">
        <ele>218</ele>
        <time>2024-07-23T07:41:08Z</time>
      </trkpt>
      <trkpt lat="44.72581" lon="1.35161">
        <ele>218.2</ele>
        <time>2024-07-23T07:41:09Z</time>
      </trkpt>
      <trkpt lat="44.72579" lon="1.35161">
        <ele>218.4</ele>
        <time>2024-07-23T07:41:10Z</time>
      </trkpt>
      <trkpt lat="44.72576" lon="1.35162">
        <ele>218.4</ele>
        <time>2024-07-23T07:41:11Z</time>
      </trkpt>
      <trkpt lat="44.72575" lon="1.35162">
        <ele>218.6</ele>
        <time>2024-07-23T07:41:12Z</time>
      </trkpt>
      <trkpt lat="44.72573" lon="1.35162">
        <ele>218.8</ele>
        <time>2024-07-23T07:41:13Z</time>
      </trkpt>
      <trkpt lat="44.72571" lon="1.35162">
        <ele>218.8</ele>
        <time>2024-07-23T07:41:14Z</time>
      </trkpt>
      <trkpt lat="44.72568" lon="1.35163">
        <ele>218.8</ele>
        <time>2024-07-23T07:41:15Z</time>
      </trkpt>
      <trkpt lat="44.72567" lon="1.35163">
        <ele>219</ele>
        <time>2024-07-23T07:41:16Z</time>
      </trkpt>
      <trkpt lat="44.72565" lon="1.35164">
        <ele>219.2</ele>
        <time>2024-07-23T07:41:17Z</time>
      </trkpt>
      <trkpt lat="44.72562" lon="1.35164">
        <ele>219.4</ele>
        <time>2024-07-23T07:41:18Z</time>
      </trkpt>
      <trkpt lat="44.7256" lon="1.35164">
        <ele>219.8</ele>
        <time>2024-07-23T07:41:19Z</time>
      </trkpt>
      <trkpt lat="44.72558" lon="1.35164">
        <ele>220</ele>
        <time>2024-07-23T07:41:20Z</time>
      </trkpt>
      <trkpt lat="44.72555" lon="1.35165">
        <ele>220</ele>
        <time>2024-07-23T07:41:21Z</time>
      </trkpt>
      <trkpt lat="44.72553" lon="1.35165">
        <ele>220.4</ele>
        <time>2024-07-23T07:41:22Z</time>
      </trkpt>
      <trkpt lat="44.72551" lon="1.35166">
        <ele>220.4</ele>
        <time>2024-07-23T07:41:23Z</time>
      </trkpt>
      <trkpt lat="44.72548" lon="1.35167">
        <ele>220.6</ele>
        <time>2024-07-23T07:41:24Z</time>
      </trkpt>
      <trkpt lat="44.72546" lon="1.35167">
        <ele>220.6</ele>
        <time>2024-07-23T07:41:25Z</time>
      </trkpt>
      <trkpt lat="44.72544" lon="1.35168">
        <ele>220.8</ele>
        <time>2024-07-23T07:41:26Z</time>
      </trkpt>
      <trkpt lat="44.72542" lon="1.35168">
        <ele>220.8</ele>
        <time>2024-07-23T07:41:27Z</time>
      </trkpt>
      <trkpt lat="44.72539" lon="1.35168">
        <ele>220.8</ele>
        <time>2024-07-23T07:41:28Z</time>
      </trkpt>
      <trkpt lat="44.72537" lon="1.35169">
        <ele>221</ele>
        <time>2024-07-23T07:41:29Z</time>
      </trkpt>
      <trkpt lat="44.72534" lon="1.3517">
        <ele>221.2</ele>
        <time>2024-07-23T07:41:30Z</time>
      </trkpt>
      <trkpt lat="44.72532" lon="1.3517">
        <ele>221.4</ele>
        <time>2024-07-23T07:41:31Z</time>
      </trkpt>
      <trkpt lat="44.7253" lon="1.3517">
        <ele>221.4</ele>
        <time>2024-07-23T07:41:32Z</time>
      </trkpt>
      <trkpt lat="44.72528" lon="1.3517">
        <ele>221.6</ele>
        <time>2024-07-23T07:41:33Z</time>
      </trkpt>
      <trkpt lat="44.72525" lon="1.35171">
        <ele>221.8</ele>
        <time>2024-07-23T07:41:34Z</time>
      </trkpt>
      <trkpt lat="44.72523" lon="1.35171">
        <ele>221.8</ele>
        <time>2024-07-23T07:41:35Z</time>
      </trkpt>
      <trkpt lat="44.72521" lon="1.35171">
        <ele>222</ele>
        <time>2024-07-23T07:41:36Z</time>
      </trkpt>
      <trkpt lat="44.72518" lon="1.35171">
        <ele>222.2</ele>
        <time>2024-07-23T07:41:37Z</time>
      </trkpt>
      <trkpt lat="44.72515" lon="1.3517">
        <ele>222.2</ele>
        <time>2024-07-23T07:41:38Z</time>
      </trkpt>
      <trkpt lat="44.72513" lon="1.3517">
        <ele>222.2</ele>
        <time>2024-07-23T07:41:39Z</time>
      </trkpt>
      <trkpt lat="44.7251" lon="1.35169">
        <ele>222.4</ele>
        <time>2024-07-23T07:41:40Z</time>
      </trkpt>
      <trkpt lat="44.72508" lon="1.35169">
        <ele>222.6</ele>
        <time>2024-07-23T07:41:41Z</time>
      </trkpt>
      <trkpt lat="44.72505" lon="1.35169">
        <ele>222.6</ele>
        <time>2024-07-23T07:41:42Z</time>
      </trkpt>
      <trkpt lat="44.72501" lon="1.35169">
        <ele>222.6</ele>
        <time>2024-07-23T07:41:43Z</time>
      </trkpt>
      <trkpt lat="44.72498" lon="1.35169">
        <ele>222.6</ele>
        <time>2024-07-23T07:41:44Z</time>
      </trkpt>
      <trkpt lat="44.72495" lon="1.35169">
        <ele>222.6</ele>
        <time>2024-07-23T07:41:45Z</time>
      </trkpt>
      <trkpt lat="44.72492" lon="1.35169">
        <ele>222.6</ele>
        <time>2024-07-23T07:41:46Z</time>
      </trkpt>
      <trkpt lat="44.72488" lon="1.35168">
        <ele>222.6</ele>
        <time>2024-07-23T07:41:47Z</time>
      </trkpt>
      <trkpt lat="44.72485" lon="1.35168">
        <ele>222.6</ele>
        <time>2024-07-23T07:41:48Z</time>
      </trkpt>
      <trkpt lat="44.72481" lon="1.35168">
        <ele>222.6</ele>
        <time>2024-07-23T07:41:49Z</time>
      </trkpt>
      <trkpt lat="44.72478" lon="1.35168">
        <ele>222.6</ele>
        <time>2024-07-23T07:41:50Z</time>
      </trkpt>
      <trkpt lat="44.7246" lon="1.35167">
        <ele>222.4</ele>
        <time>2024-07-23T07:41:54Z</time>
      </trkpt>
      <trkpt lat="44.72424" lon="1.35165">
        <ele>221.8</ele>
        <time>2024-07-23T07:42:02Z</time>
      </trkpt>
      <trkpt lat="44.7242" lon="1.35164">
        <ele>221.8</ele>
        <time>2024-07-23T07:42:03Z</time>
      </trkpt>
      <trkpt lat="44.724" lon="1.35162">
        <ele>221.4</ele>
        <time>2024-07-23T07:42:08Z</time>
      </trkpt>
      <trkpt lat="44.72396" lon="1.35162">
        <ele>221.4</ele>
        <time>2024-07-23T07:42:09Z</time>
      </trkpt>
      <trkpt lat="44.72392" lon="1.35162">
        <ele>221.4</ele>
        <time>2024-07-23T07:42:10Z</time>
      </trkpt>
      <trkpt lat="44.72389" lon="1.35162">
        <ele>221.2</ele>
        <time>2024-07-23T07:42:11Z</time>
      </trkpt>
      <trkpt lat="44.72385" lon="1.35162">
        <ele>221.2</ele>
        <time>2024-07-23T07:42:12Z</time>
      </trkpt>
      <trkpt lat="44.72382" lon="1.35163">
        <ele>221.2</ele>
        <time>2024-07-23T07:42:13Z</time>
      </trkpt>
      <trkpt lat="44.72379" lon="1.35163">
        <ele>221.2</ele>
        <time>2024-07-23T07:42:14Z</time>
      </trkpt>
      <trkpt lat="44.72375" lon="1.35163">
        <ele>221.2</ele>
        <time>2024-07-23T07:42:15Z</time>
      </trkpt>
      <trkpt lat="44.72371" lon="1.35164">
        <ele>221.2</ele>
        <time>2024-07-23T07:42:16Z</time>
      </trkpt>
      <trkpt lat="44.72367" lon="1.35164">
        <ele>221.2</ele>
        <time>2024-07-23T07:42:17Z</time>
      </trkpt>
      <trkpt lat="44.72363" lon="1.35165">
        <ele>221.2</ele>
        <time>2024-07-23T07:42:18Z</time>
      </trkpt>
      <trkpt lat="44.72339" lon="1.35174">
        <ele>221</ele>
        <time>2024-07-23T07:42:23Z</time>
      </trkpt>
      <trkpt lat="44.7233" lon="1.35179">
        <ele>220.8</ele>
        <time>2024-07-23T07:42:25Z</time>
      </trkpt>
      <trkpt lat="44.72318" lon="1.35179">
        <ele>220.6</ele>
        <time>2024-07-23T07:42:27Z</time>
      </trkpt>
      <trkpt lat="44.72313" lon="1.35177">
        <ele>220.4</ele>
        <time>2024-07-23T07:42:28Z</time>
      </trkpt>
      <trkpt lat="44.72308" lon="1.35174">
        <ele>220.2</ele>
        <time>2024-07-23T07:42:29Z</time>
      </trkpt>
      <trkpt lat="44.72303" lon="1.3517">
        <ele>220</ele>
        <time>2024-07-23T07:42:30Z</time>
      </trkpt>
      <trkpt lat="44.72292" lon="1.35159">
        <ele>219.2</ele>
        <time>2024-07-23T07:42:32Z</time>
      </trkpt>
      <trkpt lat="44.72289" lon="1.35153">
        <ele>219</ele>
        <time>2024-07-23T07:42:33Z</time>
      </trkpt>
      <trkpt lat="44.72285" lon="1.35145">
        <ele>218.6</ele>
        <time>2024-07-23T07:42:34Z</time>
      </trkpt>
      <trkpt lat="44.72281" lon="1.35134">
        <ele>218.4</ele>
        <time>2024-07-23T07:42:35Z</time>
      </trkpt>
      <trkpt lat="44.72279" lon="1.35123">
        <ele>218.2</ele>
        <time>2024-07-23T07:42:36Z</time>
      </trkpt>
      <trkpt lat="44.72276" lon="1.35112">
        <ele>218.2</ele>
        <time>2024-07-23T07:42:37Z</time>
      </trkpt>
      <trkpt lat="44.72273" lon="1.35104">
        <ele>217.8</ele>
        <time>2024-07-23T07:42:38Z</time>
      </trkpt>
      <trkpt lat="44.72267" lon="1.35096">
        <ele>217</ele>
        <time>2024-07-23T07:42:39Z</time>
      </trkpt>
      <trkpt lat="44.72258" lon="1.35088">
        <ele>216.8</ele>
        <time>2024-07-23T07:42:40Z</time>
      </trkpt>
      <trkpt lat="44.72249" lon="1.35085">
        <ele>216.2</ele>
        <time>2024-07-23T07:42:41Z</time>
      </trkpt>
      <trkpt lat="44.72232" lon="1.35082">
        <ele>215</ele>
        <time>2024-07-23T07:42:43Z</time>
      </trkpt>
      <trkpt lat="44.72225" lon="1.35083">
        <ele>214.8</ele>
        <time>2024-07-23T07:42:44Z</time>
      </trkpt>
      <trkpt lat="44.72216" lon="1.35086">
        <ele>213.8</ele>
        <time>2024-07-23T07:42:45Z</time>
      </trkpt>
      <trkpt lat="44.7221" lon="1.35089">
        <ele>212.8</ele>
        <time>2024-07-23T07:42:46Z</time>
      </trkpt>
      <trkpt lat="44.72206" lon="1.35092">
        <ele>212.4</ele>
        <time>2024-07-23T07:42:47Z</time>
      </trkpt>
      <trkpt lat="44.72201" lon="1.35096">
        <ele>212</ele>
        <time>2024-07-23T07:42:48Z</time>
      </trkpt>
      <trkpt lat="44.72197" lon="1.35099">
        <ele>212</ele>
        <time>2024-07-23T07:42:49Z</time>
      </trkpt>
      <trkpt lat="44.72193" lon="1.35103">
        <ele>212</ele>
        <time>2024-07-23T07:42:50Z</time>
      </trkpt>
      <trkpt lat="44.72189" lon="1.35106">
        <ele>212</ele>
        <time>2024-07-23T07:42:51Z</time>
      </trkpt>
      <trkpt lat="44.72186" lon="1.35108">
        <ele>211.8</ele>
        <time>2024-07-23T07:42:52Z</time>
      </trkpt>
      <trkpt lat="44.72183" lon="1.35111">
        <ele>212.2</ele>
        <time>2024-07-23T07:42:53Z</time>
      </trkpt>
      <trkpt lat="44.7218" lon="1.35114">
        <ele>212.4</ele>
        <time>2024-07-23T07:42:54Z</time>
      </trkpt>
      <trkpt lat="44.72177" lon="1.35115">
        <ele>213.2</ele>
        <time>2024-07-23T07:42:55Z</time>
      </trkpt>
      <trkpt lat="44.72174" lon="1.35117">
        <ele>213.4</ele>
        <time>2024-07-23T07:42:56Z</time>
      </trkpt>
      <trkpt lat="44.72168" lon="1.35121">
        <ele>214</ele>
        <time>2024-07-23T07:42:58Z</time>
      </trkpt>
      <trkpt lat="44.72165" lon="1.35123">
        <ele>214.6</ele>
        <time>2024-07-23T07:42:59Z</time>
      </trkpt>
      <trkpt lat="44.72162" lon="1.35124">
        <ele>215.2</ele>
        <time>2024-07-23T07:43:00Z</time>
      </trkpt>
      <trkpt lat="44.72159" lon="1.35126">
        <ele>215.4</ele>
        <time>2024-07-23T07:43:01Z</time>
      </trkpt>
      <trkpt lat="44.72156" lon="1.35128">
        <ele>215.8</ele>
        <time>2024-07-23T07:43:02Z</time>
      </trkpt>
      <trkpt lat="44.72148" lon="1.3513">
        <ele>216.2</ele>
        <time>2024-07-23T07:43:04Z</time>
      </trkpt>
      <trkpt lat="44.72142" lon="1.35131">
        <ele>217</ele>
        <time>2024-07-23T07:43:06Z</time>
      </trkpt>
      <trkpt lat="44.7214" lon="1.35131">
        <ele>217.4</ele>
        <time>2024-07-23T07:43:07Z</time>
      </trkpt>
      <trkpt lat="44.72137" lon="1.35132">
        <ele>217.6</ele>
        <time>2024-07-23T07:43:08Z</time>
      </trkpt>
      <trkpt lat="44.72134" lon="1.35131">
        <ele>218</ele>
        <time>2024-07-23T07:43:09Z</time>
      </trkpt>
      <trkpt lat="44.72132" lon="1.35131">
        <ele>218.2</ele>
        <time>2024-07-23T07:43:10Z</time>
      </trkpt>
      <trkpt lat="44.7213" lon="1.3513">
        <ele>218.8</ele>
        <time>2024-07-23T07:43:11Z</time>
      </trkpt>
      <trkpt lat="44.72128" lon="1.3513">
        <ele>219.2</ele>
        <time>2024-07-23T07:43:12Z</time>
      </trkpt>
      <trkpt lat="44.72126" lon="1.35129">
        <ele>219.6</ele>
        <time>2024-07-23T07:43:13Z</time>
      </trkpt>
      <trkpt lat="44.72123" lon="1.35128">
        <ele>219.8</ele>
        <time>2024-07-23T07:43:14Z</time>
      </trkpt>
      <trkpt lat="44.72121" lon="1.35127">
        <ele>219.8</ele>
        <time>2024-07-23T07:43:15Z</time>
      </trkpt>
      <trkpt lat="44.72119" lon="1.35125">
        <ele>220</ele>
        <time>2024-07-23T07:43:16Z</time>
      </trkpt>
      <trkpt lat="44.72117" lon="1.35124">
        <ele>220.2</ele>
        <time>2024-07-23T07:43:17Z</time>
      </trkpt>
      <trkpt lat="44.72114" lon="1.35123">
        <ele>220.4</ele>
        <time>2024-07-23T07:43:18Z</time>
      </trkpt>
      <trkpt lat="44.72112" lon="1.35121">
        <ele>220.6</ele>
        <time>2024-07-23T07:43:19Z</time>
      </trkpt>
      <trkpt lat="44.7211" lon="1.3512">
        <ele>220.8</ele>
        <time>2024-07-23T07:43:20Z</time>
      </trkpt>
      <trkpt lat="44.72108" lon="1.35118">
        <ele>221</ele>
        <time>2024-07-23T07:43:21Z</time>
      </trkpt>
      <trkpt lat="44.72106" lon="1.35116">
        <ele>221.2</ele>
        <time>2024-07-23T07:43:22Z</time>
      </trkpt>
      <trkpt lat="44.72103" lon="1.35114">
        <ele>221.6</ele>
        <time>2024-07-23T07:43:23Z</time>
      </trkpt>
      <trkpt lat="44.72101" lon="1.35113">
        <ele>221.8</ele>
        <time>2024-07-23T07:43:24Z</time>
      </trkpt>
      <trkpt lat="44.72099" lon="1.35112">
        <ele>222</ele>
        <time>2024-07-23T07:43:25Z</time>
      </trkpt>
      <trkpt lat="44.72099" lon="1.35112">
        <ele>222.2</ele>
        <time>2024-07-23T07:43:26Z</time>
      </trkpt>
      <trkpt lat="44.72095" lon="1.35111">
        <ele>222.6</ele>
        <time>2024-07-23T07:43:27Z</time>
      </trkpt>
      <trkpt lat="44.72095" lon="1.35111">
        <ele>222.6</ele>
        <time>2024-07-23T07:43:28Z</time>
      </trkpt>
      <trkpt lat="44.72092" lon="1.35111">
        <ele>222.8</ele>
        <time>2024-07-23T07:43:29Z</time>
      </trkpt>
      <trkpt lat="44.7209" lon="1.35112">
        <ele>223</ele>
        <time>2024-07-23T07:43:30Z</time>
      </trkpt>
      <trkpt lat="44.72088" lon="1.35112">
        <ele>223.2</ele>
        <time>2024-07-23T07:43:31Z</time>
      </trkpt>
      <trkpt lat="44.72088" lon="1.35113">
        <ele>223.2</ele>
        <time>2024-07-23T07:43:32Z</time>
      </trkpt>
      <trkpt lat="44.72088" lon="1.35113">
        <ele>223.2</ele>
        <time>2024-07-23T07:43:33Z</time>
      </trkpt>
      <trkpt lat="44.72088" lon="1.35113">
        <ele>223.4</ele>
        <time>2024-07-23T07:43:34Z</time>
      </trkpt>
      <trkpt lat="44.72084" lon="1.35116">
        <ele>222.4</ele>
        <time>2024-07-23T07:46:10Z</time>
      </trkpt>
      <trkpt lat="44.7208" lon="1.3512">
        <ele>222.6</ele>
        <time>2024-07-23T07:46:12Z</time>
      </trkpt>
      <trkpt lat="44.72078" lon="1.35123">
        <ele>222.6</ele>
        <time>2024-07-23T07:46:13Z</time>
      </trkpt>
      <trkpt lat="44.72071" lon="1.35137">
        <ele>223</ele>
        <time>2024-07-23T07:46:17Z</time>
      </trkpt>
      <trkpt lat="44.7207" lon="1.35141">
        <ele>223</ele>
        <time>2024-07-23T07:46:18Z</time>
      </trkpt>
      <trkpt lat="44.72068" lon="1.35144">
        <ele>223.2</ele>
        <time>2024-07-23T07:46:19Z</time>
      </trkpt>
      <trkpt lat="44.72055" lon="1.35171">
        <ele>223.6</ele>
        <time>2024-07-23T07:46:27Z</time>
      </trkpt>
      <trkpt lat="44.72054" lon="1.35174">
        <ele>223.8</ele>
        <time>2024-07-23T07:46:28Z</time>
      </trkpt>
      <trkpt lat="44.72051" lon="1.35179">
        <ele>224</ele>
        <time>2024-07-23T07:46:30Z</time>
      </trkpt>
      <trkpt lat="44.72049" lon="1.35181">
        <ele>224.2</ele>
        <time>2024-07-23T07:46:31Z</time>
      </trkpt>
      <trkpt lat="44.72048" lon="1.35184">
        <ele>224.2</ele>
        <time>2024-07-23T07:46:32Z</time>
      </trkpt>
      <trkpt lat="44.72046" lon="1.35187">
        <ele>224.2</ele>
        <time>2024-07-23T07:46:33Z</time>
      </trkpt>
      <trkpt lat="44.72045" lon="1.3519">
        <ele>224.2</ele>
        <time>2024-07-23T07:46:34Z</time>
      </trkpt>
      <trkpt lat="44.72043" lon="1.35193">
        <ele>224.2</ele>
        <time>2024-07-23T07:46:35Z</time>
      </trkpt>
      <trkpt lat="44.7204" lon="1.35199">
        <ele>224.2</ele>
        <time>2024-07-23T07:46:37Z</time>
      </trkpt>
      <trkpt lat="44.72035" lon="1.35209">
        <ele>224.8</ele>
        <time>2024-07-23T07:46:41Z</time>
      </trkpt>
      <trkpt lat="44.72033" lon="1.35211">
        <ele>225</ele>
        <time>2024-07-23T07:46:42Z</time>
      </trkpt>
      <trkpt lat="44.72031" lon="1.35212">
        <ele>225</ele>
        <time>2024-07-23T07:46:43Z</time>
      </trkpt>
      <trkpt lat="44.72029" lon="1.35213">
        <ele>225</ele>
        <time>2024-07-23T07:46:44Z</time>
      </trkpt>
      <trkpt lat="44.72027" lon="1.35212">
        <ele>225</ele>
        <time>2024-07-23T07:46:45Z</time>
      </trkpt>
      <trkpt lat="44.72025" lon="1.35209">
        <ele>225</ele>
        <time>2024-07-23T07:46:46Z</time>
      </trkpt>
      <trkpt lat="44.72024" lon="1.35207">
        <ele>225</ele>
        <time>2024-07-23T07:46:47Z</time>
      </trkpt>
      <trkpt lat="44.72022" lon="1.35204">
        <ele>225</ele>
        <time>2024-07-23T07:46:48Z</time>
      </trkpt>
      <trkpt lat="44.7202" lon="1.35201">
        <ele>225.4</ele>
        <time>2024-07-23T07:46:49Z</time>
      </trkpt>
      <trkpt lat="44.72016" lon="1.35193">
        <ele>225.4</ele>
        <time>2024-07-23T07:46:51Z</time>
      </trkpt>
      <trkpt lat="44.72008" lon="1.35182">
        <ele>225.4</ele>
        <time>2024-07-23T07:46:54Z</time>
      </trkpt>
      <trkpt lat="44.71998" lon="1.35167">
        <ele>225</ele>
        <time>2024-07-23T07:46:58Z</time>
      </trkpt>
      <trkpt lat="44.71988" lon="1.35153">
        <ele>224.4</ele>
        <time>2024-07-23T07:47:01Z</time>
      </trkpt>
      <trkpt lat="44.71986" lon="1.35148">
        <ele>224.2</ele>
        <time>2024-07-23T07:47:02Z</time>
      </trkpt>
      <trkpt lat="44.71985" lon="1.35142">
        <ele>223.6</ele>
        <time>2024-07-23T07:47:03Z</time>
      </trkpt>
      <trkpt lat="44.71986" lon="1.35127">
        <ele>223</ele>
        <time>2024-07-23T07:47:05Z</time>
      </trkpt>
      <trkpt lat="44.71987" lon="1.35119">
        <ele>223</ele>
        <time>2024-07-23T07:47:06Z</time>
      </trkpt>
      <trkpt lat="44.71987" lon="1.3511">
        <ele>222.6</ele>
        <time>2024-07-23T07:47:07Z</time>
      </trkpt>
      <trkpt lat="44.71984" lon="1.35091">
        <ele>222.4</ele>
        <time>2024-07-23T07:47:09Z</time>
      </trkpt>
      <trkpt lat="44.71982" lon="1.35081">
        <ele>221.8</ele>
        <time>2024-07-23T07:47:10Z</time>
      </trkpt>
      <trkpt lat="44.71976" lon="1.35059">
        <ele>221</ele>
        <time>2024-07-23T07:47:12Z</time>
      </trkpt>
      <trkpt lat="44.71972" lon="1.35047">
        <ele>220.8</ele>
        <time>2024-07-23T07:47:13Z</time>
      </trkpt>
      <trkpt lat="44.71966" lon="1.35036">
        <ele>219.8</ele>
        <time>2024-07-23T07:47:14Z</time>
      </trkpt>
      <trkpt lat="44.71951" lon="1.35015">
        <ele>218.2</ele>
        <time>2024-07-23T07:47:16Z</time>
      </trkpt>
      <trkpt lat="44.71942" lon="1.35005">
        <ele>216.6</ele>
        <time>2024-07-23T07:47:17Z</time>
      </trkpt>
      <trkpt lat="44.71924" lon="1.34987">
        <ele>215.4</ele>
        <time>2024-07-23T07:47:19Z</time>
      </trkpt>
      <trkpt lat="44.71907" lon="1.3497">
        <ele>213.6</ele>
        <time>2024-07-23T07:47:21Z</time>
      </trkpt>
      <trkpt lat="44.71899" lon="1.34962">
        <ele>212.4</ele>
        <time>2024-07-23T07:47:22Z</time>
      </trkpt>
      <trkpt lat="44.71892" lon="1.34955">
        <ele>212</ele>
        <time>2024-07-23T07:47:23Z</time>
      </trkpt>
      <trkpt lat="44.71885" lon="1.34949">
        <ele>211.6</ele>
        <time>2024-07-23T07:47:24Z</time>
      </trkpt>
      <trkpt lat="44.71879" lon="1.34943">
        <ele>211.4</ele>
        <time>2024-07-23T07:47:25Z</time>
      </trkpt>
      <trkpt lat="44.7187" lon="1.34935">
        <ele>210</ele>
        <time>2024-07-23T07:47:26Z</time>
      </trkpt>
      <trkpt lat="44.71854" lon="1.3492">
        <ele>208.8</ele>
        <time>2024-07-23T07:47:28Z</time>
      </trkpt>
      <trkpt lat="44.71835" lon="1.34908">
        <ele>207.8</ele>
        <time>2024-07-23T07:47:30Z</time>
      </trkpt>
      <trkpt lat="44.71816" lon="1.34904">
        <ele>206.4</ele>
        <time>2024-07-23T07:47:32Z</time>
      </trkpt>
      <trkpt lat="44.71805" lon="1.34903">
        <ele>205.6</ele>
        <time>2024-07-23T07:47:33Z</time>
      </trkpt>
      <trkpt lat="44.71796" lon="1.34902">
        <ele>204.8</ele>
        <time>2024-07-23T07:47:34Z</time>
      </trkpt>
      <trkpt lat="44.71767" lon="1.34902">
        <ele>203.6</ele>
        <time>2024-07-23T07:47:37Z</time>
      </trkpt>
      <trkpt lat="44.71748" lon="1.34901">
        <ele>203</ele>
        <time>2024-07-23T07:47:39Z</time>
      </trkpt>
      <trkpt lat="44.71739" lon="1.349">
        <ele>202.8</ele>
        <time>2024-07-23T07:47:40Z</time>
      </trkpt>
      <trkpt lat="44.71731" lon="1.34896">
        <ele>201.8</ele>
        <time>2024-07-23T07:47:41Z</time>
      </trkpt>
      <trkpt lat="44.71724" lon="1.34891">
        <ele>201.6</ele>
        <time>2024-07-23T07:47:42Z</time>
      </trkpt>
      <trkpt lat="44.71718" lon="1.34882">
        <ele>200.8</ele>
        <time>2024-07-23T07:47:43Z</time>
      </trkpt>
      <trkpt lat="44.71715" lon="1.34873">
        <ele>200.4</ele>
        <time>2024-07-23T07:47:44Z</time>
      </trkpt>
      <trkpt lat="44.71713" lon="1.34862">
        <ele>199.8</ele>
        <time>2024-07-23T07:47:45Z</time>
      </trkpt>
      <trkpt lat="44.7171" lon="1.34852">
        <ele>199.6</ele>
        <time>2024-07-23T07:47:46Z</time>
      </trkpt>
      <trkpt lat="44.71706" lon="1.34842">
        <ele>199.6</ele>
        <time>2024-07-23T07:47:47Z</time>
      </trkpt>
      <trkpt lat="44.71703" lon="1.34832">
        <ele>198.4</ele>
        <time>2024-07-23T07:47:48Z</time>
      </trkpt>
      <trkpt lat="44.71699" lon="1.34823">
        <ele>197.4</ele>
        <time>2024-07-23T07:47:50Z</time>
      </trkpt>
      <trkpt lat="44.71691" lon="1.34806">
        <ele>197</ele>
        <time>2024-07-23T07:47:51Z</time>
      </trkpt>
      <trkpt lat="44.71687" lon="1.34797">
        <ele>196.6</ele>
        <time>2024-07-23T07:47:52Z</time>
      </trkpt>
      <trkpt lat="44.71683" lon="1.34789">
        <ele>196.4</ele>
        <time>2024-07-23T07:47:53Z</time>
      </trkpt>
      <trkpt lat="44.71679" lon="1.3478">
        <ele>196</ele>
        <time>2024-07-23T07:47:54Z</time>
      </trkpt>
      <trkpt lat="44.71672" lon="1.34762">
        <ele>195.6</ele>
        <time>2024-07-23T07:47:56Z</time>
      </trkpt>
      <trkpt lat="44.71666" lon="1.34742">
        <ele>195.2</ele>
        <time>2024-07-23T07:47:58Z</time>
      </trkpt>
      <trkpt lat="44.71661" lon="1.34721">
        <ele>194.6</ele>
        <time>2024-07-23T07:48:00Z</time>
      </trkpt>
      <trkpt lat="44.71651" lon="1.34692">
        <ele>193.8</ele>
        <time>2024-07-23T07:48:03Z</time>
      </trkpt>
      <trkpt lat="44.71648" lon="1.34684">
        <ele>193</ele>
        <time>2024-07-23T07:48:04Z</time>
      </trkpt>
      <trkpt lat="44.71644" lon="1.34677">
        <ele>193</ele>
        <time>2024-07-23T07:48:05Z</time>
      </trkpt>
      <trkpt lat="44.71638" lon="1.3467">
        <ele>192.6</ele>
        <time>2024-07-23T07:48:06Z</time>
      </trkpt>
      <trkpt lat="44.71632" lon="1.34663">
        <ele>192.2</ele>
        <time>2024-07-23T07:48:07Z</time>
      </trkpt>
      <trkpt lat="44.71627" lon="1.34656">
        <ele>191.8</ele>
        <time>2024-07-23T07:48:08Z</time>
      </trkpt>
      <trkpt lat="44.71614" lon="1.3464">
        <ele>191.2</ele>
        <time>2024-07-23T07:48:10Z</time>
      </trkpt>
      <trkpt lat="44.71606" lon="1.34631">
        <ele>191</ele>
        <time>2024-07-23T07:48:11Z</time>
      </trkpt>
      <trkpt lat="44.71601" lon="1.34622">
        <ele>190.8</ele>
        <time>2024-07-23T07:48:12Z</time>
      </trkpt>
      <trkpt lat="44.7159" lon="1.34603">
        <ele>190.2</ele>
        <time>2024-07-23T07:48:14Z</time>
      </trkpt>
      <trkpt lat="44.71584" lon="1.34596">
        <ele>189.8</ele>
        <time>2024-07-23T07:48:15Z</time>
      </trkpt>
      <trkpt lat="44.71577" lon="1.3459">
        <ele>189.4</ele>
        <time>2024-07-23T07:48:16Z</time>
      </trkpt>
      <trkpt lat="44.71547" lon="1.3457">
        <ele>188.4</ele>
        <time>2024-07-23T07:48:20Z</time>
      </trkpt>
      <trkpt lat="44.7154" lon="1.34567">
        <ele>188</ele>
        <time>2024-07-23T07:48:21Z</time>
      </trkpt>
      <trkpt lat="44.71533" lon="1.34563">
        <ele>188</ele>
        <time>2024-07-23T07:48:22Z</time>
      </trkpt>
      <trkpt lat="44.71526" lon="1.3456">
        <ele>187.8</ele>
        <time>2024-07-23T07:48:23Z</time>
      </trkpt>
      <trkpt lat="44.71519" lon="1.34557">
        <ele>187.6</ele>
        <time>2024-07-23T07:48:24Z</time>
      </trkpt>
      <trkpt lat="44.71512" lon="1.34555">
        <ele>187.4</ele>
        <time>2024-07-23T07:48:25Z</time>
      </trkpt>
      <trkpt lat="44.71505" lon="1.34553">
        <ele>187.2</ele>
        <time>2024-07-23T07:48:26Z</time>
      </trkpt>
      <trkpt lat="44.71498" lon="1.34552">
        <ele>187.2</ele>
        <time>2024-07-23T07:48:27Z</time>
      </trkpt>
      <trkpt lat="44.71492" lon="1.34552">
        <ele>187</ele>
        <time>2024-07-23T07:48:28Z</time>
      </trkpt>
      <trkpt lat="44.71486" lon="1.34552">
        <ele>187</ele>
        <time>2024-07-23T07:48:29Z</time>
      </trkpt>
      <trkpt lat="44.71479" lon="1.34551">
        <ele>186.8</ele>
        <time>2024-07-23T07:48:30Z</time>
      </trkpt>
      <trkpt lat="44.71473" lon="1.34549">
        <ele>186.6</ele>
        <time>2024-07-23T07:48:31Z</time>
      </trkpt>
      <trkpt lat="44.71473" lon="1.34549">
        <ele>186.6</ele>
        <time>2024-07-23T07:48:32Z</time>
      </trkpt>
      <trkpt lat="44.71455" lon="1.34546">
        <ele>186.2</ele>
        <time>2024-07-23T07:48:34Z</time>
      </trkpt>
      <trkpt lat="44.71443" lon="1.34543">
        <ele>185.6</ele>
        <time>2024-07-23T07:48:36Z</time>
      </trkpt>
      <trkpt lat="44.71438" lon="1.34541">
        <ele>185.4</ele>
        <time>2024-07-23T07:48:37Z</time>
      </trkpt>
      <trkpt lat="44.71432" lon="1.3454">
        <ele>185.4</ele>
        <time>2024-07-23T07:48:38Z</time>
      </trkpt>
      <trkpt lat="44.71421" lon="1.34539">
        <ele>185.2</ele>
        <time>2024-07-23T07:48:40Z</time>
      </trkpt>
      <trkpt lat="44.7141" lon="1.34538">
        <ele>185</ele>
        <time>2024-07-23T07:48:42Z</time>
      </trkpt>
      <trkpt lat="44.71405" lon="1.34538">
        <ele>185</ele>
        <time>2024-07-23T07:48:43Z</time>
      </trkpt>
      <trkpt lat="44.714" lon="1.34539">
        <ele>185</ele>
        <time>2024-07-23T07:48:44Z</time>
      </trkpt>
      <trkpt lat="44.71396" lon="1.3454">
        <ele>185</ele>
        <time>2024-07-23T07:48:45Z</time>
      </trkpt>
      <trkpt lat="44.71391" lon="1.34542">
        <ele>185</ele>
        <time>2024-07-23T07:48:46Z</time>
      </trkpt>
      <trkpt lat="44.71387" lon="1.34544">
        <ele>185</ele>
        <time>2024-07-23T07:48:47Z</time>
      </trkpt>
      <trkpt lat="44.71383" lon="1.34546">
        <ele>185</ele>
        <time>2024-07-23T07:48:48Z</time>
      </trkpt>
      <trkpt lat="44.7138" lon="1.34547">
        <ele>185.2</ele>
        <time>2024-07-23T07:48:49Z</time>
      </trkpt>
      <trkpt lat="44.71376" lon="1.34549">
        <ele>185.2</ele>
        <time>2024-07-23T07:48:50Z</time>
      </trkpt>
      <trkpt lat="44.71373" lon="1.34551">
        <ele>185.2</ele>
        <time>2024-07-23T07:48:51Z</time>
      </trkpt>
      <trkpt lat="44.71366" lon="1.34555">
        <ele>185.4</ele>
        <time>2024-07-23T07:48:53Z</time>
      </trkpt>
      <trkpt lat="44.71363" lon="1.34557">
        <ele>185.6</ele>
        <time>2024-07-23T07:48:54Z</time>
      </trkpt>
      <trkpt lat="44.7136" lon="1.34559">
        <ele>185.8</ele>
        <time>2024-07-23T07:48:55Z</time>
      </trkpt>
      <trkpt lat="44.71357" lon="1.3456">
        <ele>186</ele>
        <time>2024-07-23T07:48:56Z</time>
      </trkpt>
      <trkpt lat="44.71354" lon="1.34562">
        <ele>186.2</ele>
        <time>2024-07-23T07:48:57Z</time>
      </trkpt>
      <trkpt lat="44.71352" lon="1.34564">
        <ele>186.4</ele>
        <time>2024-07-23T07:48:58Z</time>
      </trkpt>
      <trkpt lat="44.71349" lon="1.34565">
        <ele>186.6</ele>
        <time>2024-07-23T07:48:59Z</time>
      </trkpt>
      <trkpt lat="44.71347" lon="1.34567">
        <ele>186.8</ele>
        <time>2024-07-23T07:49:00Z</time>
      </trkpt>
      <trkpt lat="44.71345" lon="1.34568">
        <ele>186.8</ele>
        <time>2024-07-23T07:49:01Z</time>
      </trkpt>
      <trkpt lat="44.71343" lon="1.34569">
        <ele>187</ele>
        <time>2024-07-23T07:49:02Z</time>
      </trkpt>
      <trkpt lat="44.71336" lon="1.34572">
        <ele>187.4</ele>
        <time>2024-07-23T07:49:05Z</time>
      </trkpt>
      <trkpt lat="44.71329" lon="1.34572">
        <ele>187.4</ele>
        <time>2024-07-23T07:49:07Z</time>
      </trkpt>
      <trkpt lat="44.71305" lon="1.34582">
        <ele>187.2</ele>
        <time>2024-07-23T07:49:13Z</time>
      </trkpt>
      <trkpt lat="44.71301" lon="1.34585">
        <ele>187</ele>
        <time>2024-07-23T07:49:14Z</time>
      </trkpt>
      <trkpt lat="44.71297" lon="1.34589">
        <ele>187</ele>
        <time>2024-07-23T07:49:15Z</time>
      </trkpt>
      <trkpt lat="44.71279" lon="1.34606">
        <ele>186.4</ele>
        <time>2024-07-23T07:49:20Z</time>
      </trkpt>
      <trkpt lat="44.71276" lon="1.3461">
        <ele>186.4</ele>
        <time>2024-07-23T07:49:21Z</time>
      </trkpt>
      <trkpt lat="44.71248" lon="1.34645">
        <ele>186</ele>
        <time>2024-07-23T07:49:29Z</time>
      </trkpt>
      <trkpt lat="44.7123" lon="1.34677">
        <ele>185.4</ele>
        <time>2024-07-23T07:49:34Z</time>
      </trkpt>
      <trkpt lat="44.71217" lon="1.34711">
        <ele>184.2</ele>
        <time>2024-07-23T07:49:38Z</time>
      </trkpt>
      <trkpt lat="44.71215" lon="1.3472">
        <ele>183.8</ele>
        <time>2024-07-23T07:49:39Z</time>
      </trkpt>
      <trkpt lat="44.71212" lon="1.34729">
        <ele>183.4</ele>
        <time>2024-07-23T07:49:40Z</time>
      </trkpt>
      <trkpt lat="44.71208" lon="1.34746">
        <ele>182.8</ele>
        <time>2024-07-23T07:49:42Z</time>
      </trkpt>
      <trkpt lat="44.71205" lon="1.34753">
        <ele>182.4</ele>
        <time>2024-07-23T07:49:43Z</time>
      </trkpt>
      <trkpt lat="44.71201" lon="1.34757">
        <ele>182.2</ele>
        <time>2024-07-23T07:49:44Z</time>
      </trkpt>
      <trkpt lat="44.71195" lon="1.34758">
        <ele>182</ele>
        <time>2024-07-23T07:49:45Z</time>
      </trkpt>
      <trkpt lat="44.71189" lon="1.34756">
        <ele>181.6</ele>
        <time>2024-07-23T07:49:46Z</time>
      </trkpt>
      <trkpt lat="44.71184" lon="1.34754">
        <ele>181.4</ele>
        <time>2024-07-23T07:49:47Z</time>
      </trkpt>
      <trkpt lat="44.71179" lon="1.3475">
        <ele>181.4</ele>
        <time>2024-07-23T07:49:48Z</time>
      </trkpt>
      <trkpt lat="44.71175" lon="1.34746">
        <ele>181.2</ele>
        <time>2024-07-23T07:49:49Z</time>
      </trkpt>
      <trkpt lat="44.71172" lon="1.34742">
        <ele>181.2</ele>
        <time>2024-07-23T07:49:50Z</time>
      </trkpt>
      <trkpt lat="44.71169" lon="1.34736">
        <ele>181.2</ele>
        <time>2024-07-23T07:49:51Z</time>
      </trkpt>
      <trkpt lat="44.71169" lon="1.34736">
        <ele>181.2</ele>
        <time>2024-07-23T07:49:52Z</time>
      </trkpt>
      <trkpt lat="44.71163" lon="1.34725">
        <ele>181.2</ele>
        <time>2024-07-23T07:49:53Z</time>
      </trkpt>
      <trkpt lat="44.71163" lon="1.34725">
        <ele>181.2</ele>
        <time>2024-07-23T07:49:54Z</time>
      </trkpt>
      <trkpt lat="44.7116" lon="1.34713">
        <ele>181</ele>
        <time>2024-07-23T07:49:55Z</time>
      </trkpt>
      <trkpt lat="44.71159" lon="1.34707">
        <ele>181</ele>
        <time>2024-07-23T07:49:56Z</time>
      </trkpt>
      <trkpt lat="44.71158" lon="1.34701">
        <ele>181</ele>
        <time>2024-07-23T07:49:57Z</time>
      </trkpt>
      <trkpt lat="44.71156" lon="1.34696">
        <ele>181.2</ele>
        <time>2024-07-23T07:49:58Z</time>
      </trkpt>
      <trkpt lat="44.71155" lon="1.34691">
        <ele>181.2</ele>
        <time>2024-07-23T07:49:59Z</time>
      </trkpt>
      <trkpt lat="44.71154" lon="1.34686">
        <ele>181.2</ele>
        <time>2024-07-23T07:50:00Z</time>
      </trkpt>
      <trkpt lat="44.71152" lon="1.3468">
        <ele>181.2</ele>
        <time>2024-07-23T07:50:01Z</time>
      </trkpt>
      <trkpt lat="44.71149" lon="1.34675">
        <ele>181.4</ele>
        <time>2024-07-23T07:50:02Z</time>
      </trkpt>
      <trkpt lat="44.71147" lon="1.34671">
        <ele>181.6</ele>
        <time>2024-07-23T07:50:03Z</time>
      </trkpt>
      <trkpt lat="44.71145" lon="1.34666">
        <ele>181.8</ele>
        <time>2024-07-23T07:50:04Z</time>
      </trkpt>
      <trkpt lat="44.71142" lon="1.34663">
        <ele>181.8</ele>
        <time>2024-07-23T07:50:05Z</time>
      </trkpt>
      <trkpt lat="44.7114" lon="1.3466">
        <ele>182</ele>
        <time>2024-07-23T07:50:06Z</time>
      </trkpt>
      <trkpt lat="44.71139" lon="1.34657">
        <ele>182.2</ele>
        <time>2024-07-23T07:50:07Z</time>
      </trkpt>
      <trkpt lat="44.71135" lon="1.34655">
        <ele>182.2</ele>
        <time>2024-07-23T07:50:08Z</time>
      </trkpt>
      <trkpt lat="44.71132" lon="1.34653">
        <ele>182.2</ele>
        <time>2024-07-23T07:50:09Z</time>
      </trkpt>
      <trkpt lat="44.71128" lon="1.34651">
        <ele>182.2</ele>
        <time>2024-07-23T07:50:10Z</time>
      </trkpt>
      <trkpt lat="44.7112" lon="1.34648">
        <ele>182.4</ele>
        <time>2024-07-23T07:50:12Z</time>
      </trkpt>
      <trkpt lat="44.71111" lon="1.34645">
        <ele>182.8</ele>
        <time>2024-07-23T07:50:14Z</time>
      </trkpt>
      <trkpt lat="44.71105" lon="1.34642">
        <ele>182.8</ele>
        <time>2024-07-23T07:50:16Z</time>
      </trkpt>
      <trkpt lat="44.71103" lon="1.34642">
        <ele>182.8</ele>
        <time>2024-07-23T07:50:17Z</time>
      </trkpt>
      <trkpt lat="44.71102" lon="1.34642">
        <ele>182.8</ele>
        <time>2024-07-23T07:50:18Z</time>
      </trkpt>
      <trkpt lat="44.71101" lon="1.34642">
        <ele>182.8</ele>
        <time>2024-07-23T07:50:19Z</time>
      </trkpt>
      <trkpt lat="44.71101" lon="1.34642">
        <ele>182.8</ele>
        <time>2024-07-23T07:50:21Z</time>
      </trkpt>
      <trkpt lat="44.71098" lon="1.34641">
        <ele>181.8</ele>
        <time>2024-07-23T07:50:52Z</time>
      </trkpt>
      <trkpt lat="44.71095" lon="1.3464">
        <ele>181.8</ele>
        <time>2024-07-23T07:50:53Z</time>
      </trkpt>
      <trkpt lat="44.71083" lon="1.34636">
        <ele>181.8</ele>
        <time>2024-07-23T07:50:56Z</time>
      </trkpt>
      <trkpt lat="44.71071" lon="1.34627">
        <ele>181.6</ele>
        <time>2024-07-23T07:50:58Z</time>
      </trkpt>
      <trkpt lat="44.71041" lon="1.34608">
        <ele>180.4</ele>
        <time>2024-07-23T07:51:03Z</time>
      </trkpt>
      <trkpt lat="44.71035" lon="1.34606">
        <ele>180.4</ele>
        <time>2024-07-23T07:51:04Z</time>
      </trkpt>
      <trkpt lat="44.71029" lon="1.34605">
        <ele>180</ele>
        <time>2024-07-23T07:51:05Z</time>
      </trkpt>
      <trkpt lat="44.71029" lon="1.34605">
        <ele>180.2</ele>
        <time>2024-07-23T07:51:06Z</time>
      </trkpt>
      <trkpt lat="44.71019" lon="1.34604">
        <ele>180</ele>
        <time>2024-07-23T07:51:07Z</time>
      </trkpt>
      <trkpt lat="44.71014" lon="1.34604">
        <ele>180</ele>
        <time>2024-07-23T07:51:08Z</time>
      </trkpt>
      <trkpt lat="44.71009" lon="1.34604">
        <ele>180</ele>
        <time>2024-07-23T07:51:09Z</time>
      </trkpt>
      <trkpt lat="44.71004" lon="1.34604">
        <ele>180</ele>
        <time>2024-07-23T07:51:10Z</time>
      </trkpt>
      <trkpt lat="44.71" lon="1.34605">
        <ele>180</ele>
        <time>2024-07-23T07:51:11Z</time>
      </trkpt>
      <trkpt lat="44.70995" lon="1.34605">
        <ele>180</ele>
        <time>2024-07-23T07:51:12Z</time>
      </trkpt>
      <trkpt lat="44.70991" lon="1.34605">
        <ele>180.2</ele>
        <time>2024-07-23T07:51:13Z</time>
      </trkpt>
      <trkpt lat="44.70988" lon="1.34605">
        <ele>180.2</ele>
        <time>2024-07-23T07:51:14Z</time>
      </trkpt>
      <trkpt lat="44.70984" lon="1.34605">
        <ele>180.4</ele>
        <time>2024-07-23T07:51:15Z</time>
      </trkpt>
      <trkpt lat="44.70984" lon="1.34605">
        <ele>180.8</ele>
        <time>2024-07-23T07:51:16Z</time>
      </trkpt>
      <trkpt lat="44.70977" lon="1.34605">
        <ele>181</ele>
        <time>2024-07-23T07:51:17Z</time>
      </trkpt>
      <trkpt lat="44.70974" lon="1.34606">
        <ele>181</ele>
        <time>2024-07-23T07:51:18Z</time>
      </trkpt>
      <trkpt lat="44.70971" lon="1.34606">
        <ele>181.4</ele>
        <time>2024-07-23T07:51:19Z</time>
      </trkpt>
      <trkpt lat="44.70969" lon="1.34607">
        <ele>181.6</ele>
        <time>2024-07-23T07:51:20Z</time>
      </trkpt>
      <trkpt lat="44.70967" lon="1.34609">
        <ele>182</ele>
        <time>2024-07-23T07:51:21Z</time>
      </trkpt>
      <trkpt lat="44.70964" lon="1.3461">
        <ele>182.2</ele>
        <time>2024-07-23T07:51:22Z</time>
      </trkpt>
      <trkpt lat="44.70962" lon="1.34611">
        <ele>182.6</ele>
        <time>2024-07-23T07:51:23Z</time>
      </trkpt>
      <trkpt lat="44.7096" lon="1.34613">
        <ele>183.2</ele>
        <time>2024-07-23T07:51:24Z</time>
      </trkpt>
      <trkpt lat="44.70958" lon="1.34614">
        <ele>183.4</ele>
        <time>2024-07-23T07:51:25Z</time>
      </trkpt>
      <trkpt lat="44.70954" lon="1.34617">
        <ele>184</ele>
        <time>2024-07-23T07:51:27Z</time>
      </trkpt>
      <trkpt lat="44.70953" lon="1.34619">
        <ele>184.4</ele>
        <time>2024-07-23T07:51:28Z</time>
      </trkpt>
      <trkpt lat="44.70951" lon="1.34621">
        <ele>184.6</ele>
        <time>2024-07-23T07:51:29Z</time>
      </trkpt>
      <trkpt lat="44.70949" lon="1.34623">
        <ele>185</ele>
        <time>2024-07-23T07:51:30Z</time>
      </trkpt>
      <trkpt lat="44.70948" lon="1.34624">
        <ele>185.2</ele>
        <time>2024-07-23T07:51:31Z</time>
      </trkpt>
      <trkpt lat="44.70947" lon="1.34626">
        <ele>185.4</ele>
        <time>2024-07-23T07:51:32Z</time>
      </trkpt>
      <trkpt lat="44.70945" lon="1.34627">
        <ele>186.2</ele>
        <time>2024-07-23T07:51:33Z</time>
      </trkpt>
      <trkpt lat="44.70943" lon="1.34628">
        <ele>186.6</ele>
        <time>2024-07-23T07:51:34Z</time>
      </trkpt>
      <trkpt lat="44.70942" lon="1.34628">
        <ele>187.2</ele>
        <time>2024-07-23T07:51:35Z</time>
      </trkpt>
      <trkpt lat="44.70939" lon="1.34628">
        <ele>187.4</ele>
        <time>2024-07-23T07:51:36Z</time>
      </trkpt>
      <trkpt lat="44.70937" lon="1.34628">
        <ele>187.6</ele>
        <time>2024-07-23T07:51:37Z</time>
      </trkpt>
      <trkpt lat="44.70936" lon="1.34627">
        <ele>188</ele>
        <time>2024-07-23T07:51:38Z</time>
      </trkpt>
      <trkpt lat="44.70934" lon="1.34626">
        <ele>188.4</ele>
        <time>2024-07-23T07:51:39Z</time>
      </trkpt>
      <trkpt lat="44.70932" lon="1.34624">
        <ele>188.6</ele>
        <time>2024-07-23T07:51:40Z</time>
      </trkpt>
      <trkpt lat="44.7093" lon="1.34623">
        <ele>188.8</ele>
        <time>2024-07-23T07:51:41Z</time>
      </trkpt>
      <trkpt lat="44.70928" lon="1.34622">
        <ele>189.2</ele>
        <time>2024-07-23T07:51:42Z</time>
      </trkpt>
      <trkpt lat="44.70927" lon="1.3462">
        <ele>189.2</ele>
        <time>2024-07-23T07:51:43Z</time>
      </trkpt>
      <trkpt lat="44.70925" lon="1.34619">
        <ele>189.4</ele>
        <time>2024-07-23T07:51:44Z</time>
      </trkpt>
      <trkpt lat="44.70923" lon="1.34617">
        <ele>189.8</ele>
        <time>2024-07-23T07:51:45Z</time>
      </trkpt>
      <trkpt lat="44.70922" lon="1.34616">
        <ele>190</ele>
        <time>2024-07-23T07:51:46Z</time>
      </trkpt>
      <trkpt lat="44.7092" lon="1.34616">
        <ele>190</ele>
        <time>2024-07-23T07:51:47Z</time>
      </trkpt>
      <trkpt lat="44.70919" lon="1.34615">
        <ele>190.4</ele>
        <time>2024-07-23T07:51:48Z</time>
      </trkpt>
      <trkpt lat="44.70918" lon="1.34614">
        <ele>190.8</ele>
        <time>2024-07-23T07:51:49Z</time>
      </trkpt>
      <trkpt lat="44.70917" lon="1.34614">
        <ele>190.8</ele>
        <time>2024-07-23T07:51:50Z</time>
      </trkpt>
      <trkpt lat="44.70916" lon="1.34614">
        <ele>191</ele>
        <time>2024-07-23T07:51:51Z</time>
      </trkpt>
      <trkpt lat="44.70915" lon="1.34614">
        <ele>191.2</ele>
        <time>2024-07-23T07:51:52Z</time>
      </trkpt>
      <trkpt lat="44.70914" lon="1.34615">
        <ele>191.4</ele>
        <time>2024-07-23T07:51:53Z</time>
      </trkpt>
      <trkpt lat="44.70913" lon="1.34616">
        <ele>191.4</ele>
        <time>2024-07-23T07:51:54Z</time>
      </trkpt>
      <trkpt lat="44.70912" lon="1.34616">
        <ele>191.6</ele>
        <time>2024-07-23T07:51:55Z</time>
      </trkpt>
      <trkpt lat="44.70911" lon="1.34616">
        <ele>191.6</ele>
        <time>2024-07-23T07:51:56Z</time>
      </trkpt>
      <trkpt lat="44.7091" lon="1.34616">
        <ele>191.8</ele>
        <time>2024-07-23T07:51:57Z</time>
      </trkpt>
      <trkpt lat="44.70909" lon="1.34616">
        <ele>191.8</ele>
        <time>2024-07-23T07:51:58Z</time>
      </trkpt>
      <trkpt lat="44.70908" lon="1.34616">
        <ele>192</ele>
        <time>2024-07-23T07:51:59Z</time>
      </trkpt>
      <trkpt lat="44.70907" lon="1.34616">
        <ele>192</ele>
        <time>2024-07-23T07:52:00Z</time>
      </trkpt>
      <trkpt lat="44.70906" lon="1.34616">
        <ele>192.2</ele>
        <time>2024-07-23T07:52:01Z</time>
      </trkpt>
      <trkpt lat="44.70905" lon="1.34616">
        <ele>192.2</ele>
        <time>2024-07-23T07:52:02Z</time>
      </trkpt>
      <trkpt lat="44.70904" lon="1.34617">
        <ele>192.4</ele>
        <time>2024-07-23T07:52:03Z</time>
      </trkpt>
      <trkpt lat="44.70904" lon="1.34617">
        <ele>192.4</ele>
        <time>2024-07-23T07:52:04Z</time>
      </trkpt>
      <trkpt lat="44.70903" lon="1.34617">
        <ele>192.4</ele>
        <time>2024-07-23T07:52:05Z</time>
      </trkpt>
      <trkpt lat="44.70903" lon="1.34618">
        <ele>192.8</ele>
        <time>2024-07-23T07:52:06Z</time>
      </trkpt>
      <trkpt lat="44.70903" lon="1.34619">
        <ele>193</ele>
        <time>2024-07-23T07:52:07Z</time>
      </trkpt>
      <trkpt lat="44.70903" lon="1.34619">
        <ele>193.2</ele>
        <time>2024-07-23T07:52:08Z</time>
      </trkpt>
      <trkpt lat="44.70905" lon="1.3462">
        <ele>193.2</ele>
        <time>2024-07-23T07:52:09Z</time>
      </trkpt>
      <trkpt lat="44.70906" lon="1.3462">
        <ele>193.2</ele>
        <time>2024-07-23T07:52:10Z</time>
      </trkpt>
      <trkpt lat="44.70907" lon="1.34621">
        <ele>193.4</ele>
        <time>2024-07-23T07:52:11Z</time>
      </trkpt>
      <trkpt lat="44.70908" lon="1.34621">
        <ele>193.4</ele>
        <time>2024-07-23T07:52:12Z</time>
      </trkpt>
      <trkpt lat="44.7091" lon="1.34621">
        <ele>193.4</ele>
        <time>2024-07-23T07:52:13Z</time>
      </trkpt>
      <trkpt lat="44.70911" lon="1.34622">
        <ele>193.4</ele>
        <time>2024-07-23T07:52:14Z</time>
      </trkpt>
      <trkpt lat="44.70911" lon="1.34622">
        <ele>193.4</ele>
        <time>2024-07-23T07:52:15Z</time>
      </trkpt>
      <trkpt lat="44.70916" lon="1.34624">
        <ele>193.4</ele>
        <time>2024-07-23T07:52:16Z</time>
      </trkpt>
      <trkpt lat="44.70918" lon="1.34625">
        <ele>193.2</ele>
        <time>2024-07-23T07:52:17Z</time>
      </trkpt>
      <trkpt lat="44.70921" lon="1.34626">
        <ele>193.2</ele>
        <time>2024-07-23T07:52:18Z</time>
      </trkpt>
      <trkpt lat="44.70924" lon="1.34627">
        <ele>193.2</ele>
        <time>2024-07-23T07:52:19Z</time>
      </trkpt>
      <trkpt lat="44.70927" lon="1.34628">
        <ele>193</ele>
        <time>2024-07-23T07:52:20Z</time>
      </trkpt>
      <trkpt lat="44.70941" lon="1.3463">
        <ele>192.2</ele>
        <time>2024-07-23T07:52:24Z</time>
      </trkpt>
      <trkpt lat="44.70946" lon="1.34632">
        <ele>191.8</ele>
        <time>2024-07-23T07:52:26Z</time>
      </trkpt>
      <trkpt lat="44.70948" lon="1.34634">
        <ele>191.2</ele>
        <time>2024-07-23T07:52:27Z</time>
      </trkpt>
      <trkpt lat="44.7095" lon="1.34634">
        <ele>191</ele>
        <time>2024-07-23T07:52:28Z</time>
      </trkpt>
      <trkpt lat="44.70951" lon="1.34635">
        <ele>190.6</ele>
        <time>2024-07-23T07:52:29Z</time>
      </trkpt>
      <trkpt lat="44.70951" lon="1.34635">
        <ele>190.6</ele>
        <time>2024-07-23T07:52:30Z</time>
      </trkpt>
      <trkpt lat="44.70953" lon="1.34638">
        <ele>190.2</ele>
        <time>2024-07-23T07:52:31Z</time>
      </trkpt>
      <trkpt lat="44.70953" lon="1.3464">
        <ele>190</ele>
        <time>2024-07-23T07:52:32Z</time>
      </trkpt>
      <trkpt lat="44.70954" lon="1.34641">
        <ele>190</ele>
        <time>2024-07-23T07:52:33Z</time>
      </trkpt>
      <trkpt lat="44.70954" lon="1.34642">
        <ele>189.6</ele>
        <time>2024-07-23T07:52:34Z</time>
      </trkpt>
      <trkpt lat="44.70954" lon="1.34644">
        <ele>189.6</ele>
        <time>2024-07-23T07:52:35Z</time>
      </trkpt>
      <trkpt lat="44.70955" lon="1.34645">
        <ele>189.4</ele>
        <time>2024-07-23T07:52:36Z</time>
      </trkpt>
      <trkpt lat="44.70956" lon="1.34645">
        <ele>189.4</ele>
        <time>2024-07-23T07:52:37Z</time>
      </trkpt>
      <trkpt lat="44.70957" lon="1.34644">
        <ele>189.4</ele>
        <time>2024-07-23T07:52:38Z</time>
      </trkpt>
      <trkpt lat="44.70957" lon="1.34642">
        <ele>189.2</ele>
        <time>2024-07-23T07:52:39Z</time>
      </trkpt>
      <trkpt lat="44.70957" lon="1.3464">
        <ele>189.2</ele>
        <time>2024-07-23T07:52:40Z</time>
      </trkpt>
      <trkpt lat="44.70955" lon="1.34637">
        <ele>189.2</ele>
        <time>2024-07-23T07:52:41Z</time>
      </trkpt>
      <trkpt lat="44.70945" lon="1.34626">
        <ele>189.2</ele>
        <time>2024-07-23T07:52:45Z</time>
      </trkpt>
      <trkpt lat="44.70941" lon="1.34625">
        <ele>189.2</ele>
        <time>2024-07-23T07:52:46Z</time>
      </trkpt>
      <trkpt lat="44.70938" lon="1.34623">
        <ele>189.2</ele>
        <time>2024-07-23T07:52:47Z</time>
      </trkpt>
      <trkpt lat="44.70924" lon="1.34619">
        <ele>190.2</ele>
        <time>2024-07-23T07:52:53Z</time>
      </trkpt>
      <trkpt lat="44.70922" lon="1.34619">
        <ele>190.2</ele>
        <time>2024-07-23T07:52:54Z</time>
      </trkpt>
      <trkpt lat="44.7092" lon="1.34618">
        <ele>190.4</ele>
        <time>2024-07-23T07:52:55Z</time>
      </trkpt>
      <trkpt lat="44.70918" lon="1.34618">
        <ele>190.6</ele>
        <time>2024-07-23T07:52:56Z</time>
      </trkpt>
      <trkpt lat="44.70916" lon="1.34617">
        <ele>191</ele>
        <time>2024-07-23T07:52:57Z</time>
      </trkpt>
      <trkpt lat="44.70915" lon="1.34616">
        <ele>191.2</ele>
        <time>2024-07-23T07:52:58Z</time>
      </trkpt>
      <trkpt lat="44.70914" lon="1.34616">
        <ele>191.4</ele>
        <time>2024-07-23T07:52:59Z</time>
      </trkpt>
      <trkpt lat="44.70913" lon="1.34616">
        <ele>191.8</ele>
        <time>2024-07-23T07:53:00Z</time>
      </trkpt>
      <trkpt lat="44.70912" lon="1.34618">
        <ele>192</ele>
        <time>2024-07-23T07:53:01Z</time>
      </trkpt>
      <trkpt lat="44.70912" lon="1.34619">
        <ele>192</ele>
        <time>2024-07-23T07:53:02Z</time>
      </trkpt>
      <trkpt lat="44.70912" lon="1.34621">
        <ele>192.2</ele>
        <time>2024-07-23T07:53:03Z</time>
      </trkpt>
      <trkpt lat="44.70912" lon="1.34624">
        <ele>192.4</ele>
        <time>2024-07-23T07:53:04Z</time>
      </trkpt>
      <trkpt lat="44.7091" lon="1.34631">
        <ele>192.6</ele>
        <time>2024-07-23T07:53:07Z</time>
      </trkpt>
      <trkpt lat="44.70909" lon="1.34633">
        <ele>192.8</ele>
        <time>2024-07-23T07:53:08Z</time>
      </trkpt>
      <trkpt lat="44.70908" lon="1.34635">
        <ele>193</ele>
        <time>2024-07-23T07:53:09Z</time>
      </trkpt>
      <trkpt lat="44.70907" lon="1.34637">
        <ele>193</ele>
        <time>2024-07-23T07:53:10Z</time>
      </trkpt>
      <trkpt lat="44.70906" lon="1.34638">
        <ele>193.2</ele>
        <time>2024-07-23T07:53:11Z</time>
      </trkpt>
      <trkpt lat="44.70904" lon="1.3464">
        <ele>193.2</ele>
        <time>2024-07-23T07:53:12Z</time>
      </trkpt>
      <trkpt lat="44.70903" lon="1.34642">
        <ele>193.4</ele>
        <time>2024-07-23T07:53:13Z</time>
      </trkpt>
      <trkpt lat="44.70902" lon="1.34644">
        <ele>193.4</ele>
        <time>2024-07-23T07:53:14Z</time>
      </trkpt>
      <trkpt lat="44.70901" lon="1.34646">
        <ele>193.6</ele>
        <time>2024-07-23T07:53:15Z</time>
      </trkpt>
      <trkpt lat="44.709" lon="1.34648">
        <ele>193.6</ele>
        <time>2024-07-23T07:53:16Z</time>
      </trkpt>
      <trkpt lat="44.70899" lon="1.3465">
        <ele>193.8</ele>
        <time>2024-07-23T07:53:17Z</time>
      </trkpt>
      <trkpt lat="44.70898" lon="1.34652">
        <ele>194</ele>
        <time>2024-07-23T07:53:18Z</time>
      </trkpt>
      <trkpt lat="44.70898" lon="1.34654">
        <ele>194.4</ele>
        <time>2024-07-23T07:53:19Z</time>
      </trkpt>
      <trkpt lat="44.70897" lon="1.34656">
        <ele>194.4</ele>
        <time>2024-07-23T07:53:20Z</time>
      </trkpt>
      <trkpt lat="44.70896" lon="1.34658">
        <ele>194.6</ele>
        <time>2024-07-23T07:53:21Z</time>
      </trkpt>
      <trkpt lat="44.70895" lon="1.34659">
        <ele>194.8</ele>
        <time>2024-07-23T07:53:22Z</time>
      </trkpt>
      <trkpt lat="44.70894" lon="1.34661">
        <ele>195.2</ele>
        <time>2024-07-23T07:53:23Z</time>
      </trkpt>
      <trkpt lat="44.70894" lon="1.34663">
        <ele>195.2</ele>
        <time>2024-07-23T07:53:24Z</time>
      </trkpt>
      <trkpt lat="44.70893" lon="1.34664">
        <ele>195.6</ele>
        <time>2024-07-23T07:53:25Z</time>
      </trkpt>
      <trkpt lat="44.70893" lon="1.34666">
        <ele>195.8</ele>
        <time>2024-07-23T07:53:26Z</time>
      </trkpt>
      <trkpt lat="44.70892" lon="1.34667">
        <ele>196</ele>
        <time>2024-07-23T07:53:27Z</time>
      </trkpt>
      <trkpt lat="44.70892" lon="1.34669">
        <ele>196.2</ele>
        <time>2024-07-23T07:53:28Z</time>
      </trkpt>
      <trkpt lat="44.70891" lon="1.3467">
        <ele>196.4</ele>
        <time>2024-07-23T07:53:29Z</time>
      </trkpt>
      <trkpt lat="44.7089" lon="1.34672">
        <ele>196.6</ele>
        <time>2024-07-23T07:53:30Z</time>
      </trkpt>
      <trkpt lat="44.70889" lon="1.34674">
        <ele>196.8</ele>
        <time>2024-07-23T07:53:31Z</time>
      </trkpt>
      <trkpt lat="44.70888" lon="1.34675">
        <ele>197</ele>
        <time>2024-07-23T07:53:32Z</time>
      </trkpt>
      <trkpt lat="44.70888" lon="1.34677">
        <ele>197.2</ele>
        <time>2024-07-23T07:53:33Z</time>
      </trkpt>
      <trkpt lat="44.70887" lon="1.34679">
        <ele>197.2</ele>
        <time>2024-07-23T07:53:34Z</time>
      </trkpt>
      <trkpt lat="44.70887" lon="1.34681">
        <ele>197.4</ele>
        <time>2024-07-23T07:53:35Z</time>
      </trkpt>
      <trkpt lat="44.70886" lon="1.34684">
        <ele>197.6</ele>
        <time>2024-07-23T07:53:36Z</time>
      </trkpt>
      <trkpt lat="44.70885" lon="1.34686">
        <ele>197.8</ele>
        <time>2024-07-23T07:53:37Z</time>
      </trkpt>
      <trkpt lat="44.70884" lon="1.34689">
        <ele>198</ele>
        <time>2024-07-23T07:53:38Z</time>
      </trkpt>
      <trkpt lat="44.70884" lon="1.34691">
        <ele>198.2</ele>
        <time>2024-07-23T07:53:39Z</time>
      </trkpt>
      <trkpt lat="44.70883" lon="1.34694">
        <ele>198.4</ele>
        <time>2024-07-23T07:53:40Z</time>
      </trkpt>
      <trkpt lat="44.70883" lon="1.34696">
        <ele>198.6</ele>
        <time>2024-07-23T07:53:41Z</time>
      </trkpt>
      <trkpt lat="44.70882" lon="1.34699">
        <ele>198.8</ele>
        <time>2024-07-23T07:53:42Z</time>
      </trkpt>
      <trkpt lat="44.70882" lon="1.34701">
        <ele>199</ele>
        <time>2024-07-23T07:53:43Z</time>
      </trkpt>
      <trkpt lat="44.70882" lon="1.34704">
        <ele>199</ele>
        <time>2024-07-23T07:53:44Z</time>
      </trkpt>
      <trkpt lat="44.70881" lon="1.34707">
        <ele>199.2</ele>
        <time>2024-07-23T07:53:45Z</time>
      </trkpt>
      <trkpt lat="44.7088" lon="1.3471">
        <ele>199.2</ele>
        <time>2024-07-23T07:53:46Z</time>
      </trkpt>
      <trkpt lat="44.7088" lon="1.34712">
        <ele>199.4</ele>
        <time>2024-07-23T07:53:47Z</time>
      </trkpt>
      <trkpt lat="44.70879" lon="1.34715">
        <ele>199.6</ele>
        <time>2024-07-23T07:53:48Z</time>
      </trkpt>
      <trkpt lat="44.70879" lon="1.34717">
        <ele>199.8</ele>
        <time>2024-07-23T07:53:49Z</time>
      </trkpt>
      <trkpt lat="44.70878" lon="1.3472">
        <ele>200</ele>
        <time>2024-07-23T07:53:50Z</time>
      </trkpt>
      <trkpt lat="44.70878" lon="1.34723">
        <ele>200</ele>
        <time>2024-07-23T07:53:51Z</time>
      </trkpt>
      <trkpt lat="44.70877" lon="1.34726">
        <ele>200.2</ele>
        <time>2024-07-23T07:53:52Z</time>
      </trkpt>
      <trkpt lat="44.70876" lon="1.34729">
        <ele>200.4</ele>
        <time>2024-07-23T07:53:53Z</time>
      </trkpt>
      <trkpt lat="44.70876" lon="1.3473">
        <ele>200.6</ele>
        <time>2024-07-23T07:53:54Z</time>
      </trkpt>
      <trkpt lat="44.70876" lon="1.34732">
        <ele>200.8</ele>
        <time>2024-07-23T07:53:55Z</time>
      </trkpt>
      <trkpt lat="44.70875" lon="1.34735">
        <ele>200.8</ele>
        <time>2024-07-23T07:53:56Z</time>
      </trkpt>
      <trkpt lat="44.70875" lon="1.34738">
        <ele>201</ele>
        <time>2024-07-23T07:53:57Z</time>
      </trkpt>
      <trkpt lat="44.70875" lon="1.34741">
        <ele>201</ele>
        <time>2024-07-23T07:53:58Z</time>
      </trkpt>
      <trkpt lat="44.70874" lon="1.34743">
        <ele>201.2</ele>
        <time>2024-07-23T07:53:59Z</time>
      </trkpt>
      <trkpt lat="44.70873" lon="1.34746">
        <ele>201.2</ele>
        <time>2024-07-23T07:54:00Z</time>
      </trkpt>
      <trkpt lat="44.70872" lon="1.34748">
        <ele>201.4</ele>
        <time>2024-07-23T07:54:01Z</time>
      </trkpt>
      <trkpt lat="44.70872" lon="1.3475">
        <ele>201.6</ele>
        <time>2024-07-23T07:54:02Z</time>
      </trkpt>
      <trkpt lat="44.7087" lon="1.34752">
        <ele>201.8</ele>
        <time>2024-07-23T07:54:03Z</time>
      </trkpt>
      <trkpt lat="44.70869" lon="1.34754">
        <ele>201.8</ele>
        <time>2024-07-23T07:54:04Z</time>
      </trkpt>
      <trkpt lat="44.70868" lon="1.34757">
        <ele>201.8</ele>
        <time>2024-07-23T07:54:05Z</time>
      </trkpt>
      <trkpt lat="44.70867" lon="1.34759">
        <ele>202</ele>
        <time>2024-07-23T07:54:06Z</time>
      </trkpt>
      <trkpt lat="44.70866" lon="1.34761">
        <ele>202</ele>
        <time>2024-07-23T07:54:07Z</time>
      </trkpt>
      <trkpt lat="44.70865" lon="1.34763">
        <ele>202.2</ele>
        <time>2024-07-23T07:54:08Z</time>
      </trkpt>
      <trkpt lat="44.70864" lon="1.34765">
        <ele>202.4</ele>
        <time>2024-07-23T07:54:09Z</time>
      </trkpt>
      <trkpt lat="44.70863" lon="1.34767">
        <ele>202.6</ele>
        <time>2024-07-23T07:54:10Z</time>
      </trkpt>
      <trkpt lat="44.70862" lon="1.34769">
        <ele>202.6</ele>
        <time>2024-07-23T07:54:11Z</time>
      </trkpt>
      <trkpt lat="44.70861" lon="1.34771">
        <ele>202.8</ele>
        <time>2024-07-23T07:54:12Z</time>
      </trkpt>
      <trkpt lat="44.7086" lon="1.34773">
        <ele>203</ele>
        <time>2024-07-23T07:54:13Z</time>
      </trkpt>
      <trkpt lat="44.70859" lon="1.34776">
        <ele>203.2</ele>
        <time>2024-07-23T07:54:14Z</time>
      </trkpt>
      <trkpt lat="44.70858" lon="1.34778">
        <ele>203.4</ele>
        <time>2024-07-23T07:54:15Z</time>
      </trkpt>
      <trkpt lat="44.70857" lon="1.3478">
        <ele>203.4</ele>
        <time>2024-07-23T07:54:16Z</time>
      </trkpt>
      <trkpt lat="44.70856" lon="1.34782">
        <ele>203.6</ele>
        <time>2024-07-23T07:54:17Z</time>
      </trkpt>
      <trkpt lat="44.70855" lon="1.34784">
        <ele>203.8</ele>
        <time>2024-07-23T07:54:18Z</time>
      </trkpt>
      <trkpt lat="44.70855" lon="1.34786">
        <ele>204</ele>
        <time>2024-07-23T07:54:19Z</time>
      </trkpt>
      <trkpt lat="44.70854" lon="1.34788">
        <ele>204</ele>
        <time>2024-07-23T07:54:20Z</time>
      </trkpt>
      <trkpt lat="44.70853" lon="1.3479">
        <ele>204.2</ele>
        <time>2024-07-23T07:54:21Z</time>
      </trkpt>
      <trkpt lat="44.70852" lon="1.34792">
        <ele>204.4</ele>
        <time>2024-07-23T07:54:22Z</time>
      </trkpt>
      <trkpt lat="44.7085" lon="1.34794">
        <ele>204.4</ele>
        <time>2024-07-23T07:54:23Z</time>
      </trkpt>
      <trkpt lat="44.70849" lon="1.34796">
        <ele>204.6</ele>
        <time>2024-07-23T07:54:24Z</time>
      </trkpt>
      <trkpt lat="44.70849" lon="1.34799">
        <ele>204.8</ele>
        <time>2024-07-23T07:54:25Z</time>
      </trkpt>
      <trkpt lat="44.70848" lon="1.34801">
        <ele>204.8</ele>
        <time>2024-07-23T07:54:26Z</time>
      </trkpt>
      <trkpt lat="44.70847" lon="1.34803">
        <ele>204.8</ele>
        <time>2024-07-23T07:54:27Z</time>
      </trkpt>
      <trkpt lat="44.70846" lon="1.34806">
        <ele>205</ele>
        <time>2024-07-23T07:54:28Z</time>
      </trkpt>
      <trkpt lat="44.70845" lon="1.34808">
        <ele>205</ele>
        <time>2024-07-23T07:54:29Z</time>
      </trkpt>
      <trkpt lat="44.70844" lon="1.3481">
        <ele>205.2</ele>
        <time>2024-07-23T07:54:30Z</time>
      </trkpt>
      <trkpt lat="44.70843" lon="1.34812">
        <ele>205.6</ele>
        <time>2024-07-23T07:54:31Z</time>
      </trkpt>
      <trkpt lat="44.70842" lon="1.34814">
        <ele>205.8</ele>
        <time>2024-07-23T07:54:32Z</time>
      </trkpt>
      <trkpt lat="44.70841" lon="1.34816">
        <ele>206</ele>
        <time>2024-07-23T07:54:33Z</time>
      </trkpt>
      <trkpt lat="44.7084" lon="1.34818">
        <ele>206</ele>
        <time>2024-07-23T07:54:34Z</time>
      </trkpt>
      <trkpt lat="44.70838" lon="1.3482">
        <ele>206.2</ele>
        <time>2024-07-23T07:54:35Z</time>
      </trkpt>
      <trkpt lat="44.70837" lon="1.34822">
        <ele>206.4</ele>
        <time>2024-07-23T07:54:36Z</time>
      </trkpt>
      <trkpt lat="44.70836" lon="1.34823">
        <ele>206.6</ele>
        <time>2024-07-23T07:54:37Z</time>
      </trkpt>
      <trkpt lat="44.70834" lon="1.34825">
        <ele>206.8</ele>
        <time>2024-07-23T07:54:38Z</time>
      </trkpt>
      <trkpt lat="44.70834" lon="1.34827">
        <ele>206.8</ele>
        <time>2024-07-23T07:54:39Z</time>
      </trkpt>
      <trkpt lat="44.70833" lon="1.34829">
        <ele>207</ele>
        <time>2024-07-23T07:54:40Z</time>
      </trkpt>
      <trkpt lat="44.70832" lon="1.34831">
        <ele>207.2</ele>
        <time>2024-07-23T07:54:41Z</time>
      </trkpt>
      <trkpt lat="44.70831" lon="1.34833">
        <ele>207.4</ele>
        <time>2024-07-23T07:54:42Z</time>
      </trkpt>
      <trkpt lat="44.7083" lon="1.34834">
        <ele>207.6</ele>
        <time>2024-07-23T07:54:43Z</time>
      </trkpt>
      <trkpt lat="44.70829" lon="1.34836">
        <ele>207.6</ele>
        <time>2024-07-23T07:54:44Z</time>
      </trkpt>
      <trkpt lat="44.70829" lon="1.34838">
        <ele>207.8</ele>
        <time>2024-07-23T07:54:45Z</time>
      </trkpt>
      <trkpt lat="44.70827" lon="1.34839">
        <ele>208</ele>
        <time>2024-07-23T07:54:46Z</time>
      </trkpt>
      <trkpt lat="44.70826" lon="1.34841">
        <ele>208</ele>
        <time>2024-07-23T07:54:47Z</time>
      </trkpt>
      <trkpt lat="44.70825" lon="1.34843">
        <ele>208.2</ele>
        <time>2024-07-23T07:54:48Z</time>
      </trkpt>
      <trkpt lat="44.70824" lon="1.34845">
        <ele>208.4</ele>
        <time>2024-07-23T07:54:49Z</time>
      </trkpt>
      <trkpt lat="44.70824" lon="1.34846">
        <ele>208.4</ele>
        <time>2024-07-23T07:54:50Z</time>
      </trkpt>
      <trkpt lat="44.70824" lon="1.34846">
        <ele>208.6</ele>
        <time>2024-07-23T07:54:51Z</time>
      </trkpt>
      <trkpt lat="44.70822" lon="1.3485">
        <ele>208.8</ele>
        <time>2024-07-23T07:54:52Z</time>
      </trkpt>
      <trkpt lat="44.70821" lon="1.34852">
        <ele>209</ele>
        <time>2024-07-23T07:54:53Z</time>
      </trkpt>
      <trkpt lat="44.7082" lon="1.34854">
        <ele>209.2</ele>
        <time>2024-07-23T07:54:54Z</time>
      </trkpt>
      <trkpt lat="44.70818" lon="1.34856">
        <ele>209.4</ele>
        <time>2024-07-23T07:54:55Z</time>
      </trkpt>
      <trkpt lat="44.70817" lon="1.34858">
        <ele>209.8</ele>
        <time>2024-07-23T07:54:56Z</time>
      </trkpt>
      <trkpt lat="44.70816" lon="1.34861">
        <ele>210</ele>
        <time>2024-07-23T07:54:57Z</time>
      </trkpt>
      <trkpt lat="44.70815" lon="1.34863">
        <ele>210</ele>
        <time>2024-07-23T07:54:58Z</time>
      </trkpt>
      <trkpt lat="44.70814" lon="1.34865">
        <ele>210.2</ele>
        <time>2024-07-23T07:54:59Z</time>
      </trkpt>
      <trkpt lat="44.70813" lon="1.34867">
        <ele>210.2</ele>
        <time>2024-07-23T07:55:00Z</time>
      </trkpt>
      <trkpt lat="44.70812" lon="1.34869">
        <ele>210.4</ele>
        <time>2024-07-23T07:55:01Z</time>
      </trkpt>
      <trkpt lat="44.70811" lon="1.34871">
        <ele>210.4</ele>
        <time>2024-07-23T07:55:02Z</time>
      </trkpt>
      <trkpt lat="44.7081" lon="1.34872">
        <ele>210.6</ele>
        <time>2024-07-23T07:55:03Z</time>
      </trkpt>
      <trkpt lat="44.70809" lon="1.34874">
        <ele>211</ele>
        <time>2024-07-23T07:55:04Z</time>
      </trkpt>
      <trkpt lat="44.70808" lon="1.34876">
        <ele>211</ele>
        <time>2024-07-23T07:55:05Z</time>
      </trkpt>
      <trkpt lat="44.70807" lon="1.34878">
        <ele>211.2</ele>
        <time>2024-07-23T07:55:06Z</time>
      </trkpt>
      <trkpt lat="44.70806" lon="1.3488">
        <ele>211.4</ele>
        <time>2024-07-23T07:55:07Z</time>
      </trkpt>
      <trkpt lat="44.70805" lon="1.34881">
        <ele>211.4</ele>
        <time>2024-07-23T07:55:08Z</time>
      </trkpt>
      <trkpt lat="44.70804" lon="1.34883">
        <ele>211.6</ele>
        <time>2024-07-23T07:55:09Z</time>
      </trkpt>
      <trkpt lat="44.70803" lon="1.34885">
        <ele>211.6</ele>
        <time>2024-07-23T07:55:10Z</time>
      </trkpt>
      <trkpt lat="44.70802" lon="1.34887">
        <ele>212</ele>
        <time>2024-07-23T07:55:11Z</time>
      </trkpt>
      <trkpt lat="44.70801" lon="1.34889">
        <ele>212.2</ele>
        <time>2024-07-23T07:55:12Z</time>
      </trkpt>
      <trkpt lat="44.708" lon="1.34891">
        <ele>212.4</ele>
        <time>2024-07-23T07:55:13Z</time>
      </trkpt>
      <trkpt lat="44.70799" lon="1.34893">
        <ele>212.6</ele>
        <time>2024-07-23T07:55:14Z</time>
      </trkpt>
      <trkpt lat="44.70798" lon="1.34894">
        <ele>212.6</ele>
        <time>2024-07-23T07:55:15Z</time>
      </trkpt>
      <trkpt lat="44.70796" lon="1.34896">
        <ele>212.8</ele>
        <time>2024-07-23T07:55:16Z</time>
      </trkpt>
      <trkpt lat="44.70795" lon="1.34898">
        <ele>212.8</ele>
        <time>2024-07-23T07:55:17Z</time>
      </trkpt>
      <trkpt lat="44.70794" lon="1.349">
        <ele>213</ele>
        <time>2024-07-23T07:55:18Z</time>
      </trkpt>
      <trkpt lat="44.70792" lon="1.34902">
        <ele>213</ele>
        <time>2024-07-23T07:55:19Z</time>
      </trkpt>
      <trkpt lat="44.70791" lon="1.34904">
        <ele>213.2</ele>
        <time>2024-07-23T07:55:20Z</time>
      </trkpt>
      <trkpt lat="44.70789" lon="1.34906">
        <ele>213.4</ele>
        <time>2024-07-23T07:55:21Z</time>
      </trkpt>
      <trkpt lat="44.70788" lon="1.34908">
        <ele>213.4</ele>
        <time>2024-07-23T07:55:22Z</time>
      </trkpt>
      <trkpt lat="44.70787" lon="1.3491">
        <ele>213.6</ele>
        <time>2024-07-23T07:55:23Z</time>
      </trkpt>
      <trkpt lat="44.70786" lon="1.34911">
        <ele>213.6</ele>
        <time>2024-07-23T07:55:24Z</time>
      </trkpt>
      <trkpt lat="44.70784" lon="1.34913">
        <ele>214</ele>
        <time>2024-07-23T07:55:25Z</time>
      </trkpt>
      <trkpt lat="44.70783" lon="1.34916">
        <ele>214</ele>
        <time>2024-07-23T07:55:26Z</time>
      </trkpt>
      <trkpt lat="44.70782" lon="1.34918">
        <ele>214.4</ele>
        <time>2024-07-23T07:55:27Z</time>
      </trkpt>
      <trkpt lat="44.70781" lon="1.3492">
        <ele>214.6</ele>
        <time>2024-07-23T07:55:28Z</time>
      </trkpt>
      <trkpt lat="44.7078" lon="1.34923">
        <ele>214.8</ele>
        <time>2024-07-23T07:55:29Z</time>
      </trkpt>
      <trkpt lat="44.7078" lon="1.34925">
        <ele>215</ele>
        <time>2024-07-23T07:55:30Z</time>
      </trkpt>
      <trkpt lat="44.70779" lon="1.34928">
        <ele>215.2</ele>
        <time>2024-07-23T07:55:31Z</time>
      </trkpt>
      <trkpt lat="44.70779" lon="1.3493">
        <ele>215.4</ele>
        <time>2024-07-23T07:55:32Z</time>
      </trkpt>
      <trkpt lat="44.70779" lon="1.34933">
        <ele>215.4</ele>
        <time>2024-07-23T07:55:33Z</time>
      </trkpt>
      <trkpt lat="44.70779" lon="1.34935">
        <ele>215.6</ele>
        <time>2024-07-23T07:55:34Z</time>
      </trkpt>
      <trkpt lat="44.70779" lon="1.34938">
        <ele>215.6</ele>
        <time>2024-07-23T07:55:35Z</time>
      </trkpt>
      <trkpt lat="44.7078" lon="1.34941">
        <ele>215.8</ele>
        <time>2024-07-23T07:55:36Z</time>
      </trkpt>
      <trkpt lat="44.7078" lon="1.34943">
        <ele>215.8</ele>
        <time>2024-07-23T07:55:37Z</time>
      </trkpt>
      <trkpt lat="44.70781" lon="1.34945">
        <ele>216</ele>
        <time>2024-07-23T07:55:38Z</time>
      </trkpt>
      <trkpt lat="44.70782" lon="1.34946">
        <ele>216.2</ele>
        <time>2024-07-23T07:55:39Z</time>
      </trkpt>
      <trkpt lat="44.70782" lon="1.34947">
        <ele>216.4</ele>
        <time>2024-07-23T07:55:40Z</time>
      </trkpt>
      <trkpt lat="44.70782" lon="1.34947">
        <ele>216.6</ele>
        <time>2024-07-23T07:55:41Z</time>
      </trkpt>
      <trkpt lat="44.70782" lon="1.34948">
        <ele>216.6</ele>
        <time>2024-07-23T07:55:42Z</time>
      </trkpt>
      <trkpt lat="44.70782" lon="1.3495">
        <ele>216.8</ele>
        <time>2024-07-23T07:55:43Z</time>
      </trkpt>
      <trkpt lat="44.70781" lon="1.34952">
        <ele>217.4</ele>
        <time>2024-07-23T07:55:44Z</time>
      </trkpt>
      <trkpt lat="44.70781" lon="1.34954">
        <ele>217.4</ele>
        <time>2024-07-23T07:55:45Z</time>
      </trkpt>
      <trkpt lat="44.70781" lon="1.34956">
        <ele>217.6</ele>
        <time>2024-07-23T07:55:46Z</time>
      </trkpt>
      <trkpt lat="44.70781" lon="1.34958">
        <ele>217.6</ele>
        <time>2024-07-23T07:55:47Z</time>
      </trkpt>
      <trkpt lat="44.7078" lon="1.3496">
        <ele>217.8</ele>
        <time>2024-07-23T07:55:48Z</time>
      </trkpt>
      <trkpt lat="44.7078" lon="1.34963">
        <ele>217.8</ele>
        <time>2024-07-23T07:55:49Z</time>
      </trkpt>
      <trkpt lat="44.7078" lon="1.34966">
        <ele>218</ele>
        <time>2024-07-23T07:55:50Z</time>
      </trkpt>
      <trkpt lat="44.7078" lon="1.34968">
        <ele>218.2</ele>
        <time>2024-07-23T07:55:51Z</time>
      </trkpt>
      <trkpt lat="44.70779" lon="1.3497">
        <ele>218.2</ele>
        <time>2024-07-23T07:55:52Z</time>
      </trkpt>
      <trkpt lat="44.70779" lon="1.34973">
        <ele>218.4</ele>
        <time>2024-07-23T07:55:53Z</time>
      </trkpt>
      <trkpt lat="44.70779" lon="1.34975">
        <ele>218.6</ele>
        <time>2024-07-23T07:55:54Z</time>
      </trkpt>
      <trkpt lat="44.70779" lon="1.34978">
        <ele>218.8</ele>
        <time>2024-07-23T07:55:55Z</time>
      </trkpt>
      <trkpt lat="44.70779" lon="1.3498">
        <ele>219</ele>
        <time>2024-07-23T07:55:56Z</time>
      </trkpt>
      <trkpt lat="44.70779" lon="1.34982">
        <ele>219</ele>
        <time>2024-07-23T07:55:57Z</time>
      </trkpt>
      <trkpt lat="44.70779" lon="1.34985">
        <ele>219</ele>
        <time>2024-07-23T07:55:58Z</time>
      </trkpt>
      <trkpt lat="44.70779" lon="1.34988">
        <ele>219.2</ele>
        <time>2024-07-23T07:55:59Z</time>
      </trkpt>
      <trkpt lat="44.70779" lon="1.3499">
        <ele>219.2</ele>
        <time>2024-07-23T07:56:00Z</time>
      </trkpt>
      <trkpt lat="44.70779" lon="1.34993">
        <ele>219.2</ele>
        <time>2024-07-23T07:56:01Z</time>
      </trkpt>
      <trkpt lat="44.7078" lon="1.34996">
        <ele>219.4</ele>
        <time>2024-07-23T07:56:02Z</time>
      </trkpt>
      <trkpt lat="44.7078" lon="1.34998">
        <ele>219.4</ele>
        <time>2024-07-23T07:56:03Z</time>
      </trkpt>
      <trkpt lat="44.70782" lon="1.35">
        <ele>219.8</ele>
        <time>2024-07-23T07:56:04Z</time>
      </trkpt>
      <trkpt lat="44.70783" lon="1.35002">
        <ele>220</ele>
        <time>2024-07-23T07:56:05Z</time>
      </trkpt>
      <trkpt lat="44.70783" lon="1.35004">
        <ele>220</ele>
        <time>2024-07-23T07:56:06Z</time>
      </trkpt>
      <trkpt lat="44.70784" lon="1.35006">
        <ele>220.2</ele>
        <time>2024-07-23T07:56:07Z</time>
      </trkpt>
      <trkpt lat="44.70785" lon="1.35008">
        <ele>220.4</ele>
        <time>2024-07-23T07:56:08Z</time>
      </trkpt>
      <trkpt lat="44.70786" lon="1.3501">
        <ele>220.6</ele>
        <time>2024-07-23T07:56:09Z</time>
      </trkpt>
      <trkpt lat="44.70787" lon="1.35012">
        <ele>220.6</ele>
        <time>2024-07-23T07:56:10Z</time>
      </trkpt>
      <trkpt lat="44.70788" lon="1.35015">
        <ele>220.8</ele>
        <time>2024-07-23T07:56:11Z</time>
      </trkpt>
      <trkpt lat="44.70789" lon="1.35017">
        <ele>221</ele>
        <time>2024-07-23T07:56:12Z</time>
      </trkpt>
      <trkpt lat="44.7079" lon="1.35019">
        <ele>221</ele>
        <time>2024-07-23T07:56:13Z</time>
      </trkpt>
      <trkpt lat="44.70791" lon="1.35021">
        <ele>221.4</ele>
        <time>2024-07-23T07:56:14Z</time>
      </trkpt>
      <trkpt lat="44.70791" lon="1.35023">
        <ele>221.4</ele>
        <time>2024-07-23T07:56:15Z</time>
      </trkpt>
      <trkpt lat="44.70792" lon="1.35025">
        <ele>221.8</ele>
        <time>2024-07-23T07:56:16Z</time>
      </trkpt>
      <trkpt lat="44.70792" lon="1.35028">
        <ele>222</ele>
        <time>2024-07-23T07:56:17Z</time>
      </trkpt>
      <trkpt lat="44.70792" lon="1.3503">
        <ele>222.2</ele>
        <time>2024-07-23T07:56:18Z</time>
      </trkpt>
      <trkpt lat="44.70793" lon="1.35032">
        <ele>222.6</ele>
        <time>2024-07-23T07:56:19Z</time>
      </trkpt>
      <trkpt lat="44.70793" lon="1.35034">
        <ele>222.6</ele>
        <time>2024-07-23T07:56:20Z</time>
      </trkpt>
      <trkpt lat="44.70793" lon="1.35037">
        <ele>222.8</ele>
        <time>2024-07-23T07:56:21Z</time>
      </trkpt>
      <trkpt lat="44.70794" lon="1.35039">
        <ele>223</ele>
        <time>2024-07-23T07:56:22Z</time>
      </trkpt>
      <trkpt lat="44.70795" lon="1.35042">
        <ele>223.2</ele>
        <time>2024-07-23T07:56:23Z</time>
      </trkpt>
      <trkpt lat="44.70795" lon="1.35044">
        <ele>223.4</ele>
        <time>2024-07-23T07:56:24Z</time>
      </trkpt>
      <trkpt lat="44.70796" lon="1.35047">
        <ele>223.6</ele>
        <time>2024-07-23T07:56:25Z</time>
      </trkpt>
      <trkpt lat="44.70796" lon="1.35049">
        <ele>223.6</ele>
        <time>2024-07-23T07:56:26Z</time>
      </trkpt>
      <trkpt lat="44.70797" lon="1.35052">
        <ele>223.8</ele>
        <time>2024-07-23T07:56:27Z</time>
      </trkpt>
      <trkpt lat="44.70798" lon="1.35054">
        <ele>224.4</ele>
        <time>2024-07-23T07:56:28Z</time>
      </trkpt>
      <trkpt lat="44.70799" lon="1.35056">
        <ele>224.4</ele>
        <time>2024-07-23T07:56:29Z</time>
      </trkpt>
      <trkpt lat="44.708" lon="1.35059">
        <ele>224.6</ele>
        <time>2024-07-23T07:56:30Z</time>
      </trkpt>
      <trkpt lat="44.70801" lon="1.35062">
        <ele>224.6</ele>
        <time>2024-07-23T07:56:31Z</time>
      </trkpt>
      <trkpt lat="44.70801" lon="1.35064">
        <ele>224.8</ele>
        <time>2024-07-23T07:56:32Z</time>
      </trkpt>
      <trkpt lat="44.70802" lon="1.35066">
        <ele>225</ele>
        <time>2024-07-23T07:56:33Z</time>
      </trkpt>
      <trkpt lat="44.70803" lon="1.35068">
        <ele>225.2</ele>
        <time>2024-07-23T07:56:34Z</time>
      </trkpt>
      <trkpt lat="44.70804" lon="1.35071">
        <ele>225.2</ele>
        <time>2024-07-23T07:56:35Z</time>
      </trkpt>
      <trkpt lat="44.70804" lon="1.35073">
        <ele>225.4</ele>
        <time>2024-07-23T07:56:36Z</time>
      </trkpt>
      <trkpt lat="44.70805" lon="1.35076">
        <ele>225.6</ele>
        <time>2024-07-23T07:56:37Z</time>
      </trkpt>
      <trkpt lat="44.70807" lon="1.35078">
        <ele>225.6</ele>
        <time>2024-07-23T07:56:38Z</time>
      </trkpt>
      <trkpt lat="44.70808" lon="1.35079">
        <ele>225.8</ele>
        <time>2024-07-23T07:56:39Z</time>
      </trkpt>
      <trkpt lat="44.7081" lon="1.35081">
        <ele>225.8</ele>
        <time>2024-07-23T07:56:40Z</time>
      </trkpt>
      <trkpt lat="44.70811" lon="1.35082">
        <ele>226</ele>
        <time>2024-07-23T07:56:41Z</time>
      </trkpt>
      <trkpt lat="44.70812" lon="1.35083">
        <ele>226</ele>
        <time>2024-07-23T07:56:42Z</time>
      </trkpt>
      <trkpt lat="44.70813" lon="1.35085">
        <ele>226</ele>
        <time>2024-07-23T07:56:43Z</time>
      </trkpt>
      <trkpt lat="44.70814" lon="1.35086">
        <ele>226</ele>
        <time>2024-07-23T07:56:44Z</time>
      </trkpt>
      <trkpt lat="44.70814" lon="1.35087">
        <ele>226</ele>
        <time>2024-07-23T07:56:45Z</time>
      </trkpt>
      <trkpt lat="44.70815" lon="1.35088">
        <ele>226.2</ele>
        <time>2024-07-23T07:56:46Z</time>
      </trkpt>
      <trkpt lat="44.70815" lon="1.3509">
        <ele>226.2</ele>
        <time>2024-07-23T07:56:47Z</time>
      </trkpt>
      <trkpt lat="44.70816" lon="1.35091">
        <ele>226.2</ele>
        <time>2024-07-23T07:56:48Z</time>
      </trkpt>
      <trkpt lat="44.70817" lon="1.35091">
        <ele>226.2</ele>
        <time>2024-07-23T07:56:49Z</time>
      </trkpt>
      <trkpt lat="44.70818" lon="1.35092">
        <ele>226.2</ele>
        <time>2024-07-23T07:56:50Z</time>
      </trkpt>
      <trkpt lat="44.70819" lon="1.35092">
        <ele>226.2</ele>
        <time>2024-07-23T07:56:51Z</time>
      </trkpt>
      <trkpt lat="44.7082" lon="1.35091">
        <ele>226.2</ele>
        <time>2024-07-23T07:56:52Z</time>
      </trkpt>
      <trkpt lat="44.7082" lon="1.3509">
        <ele>226.2</ele>
        <time>2024-07-23T07:56:53Z</time>
      </trkpt>
      <trkpt lat="44.7082" lon="1.35088">
        <ele>226.2</ele>
        <time>2024-07-23T07:56:54Z</time>
      </trkpt>
      <trkpt lat="44.70811" lon="1.3508">
        <ele>226</ele>
        <time>2024-07-23T07:57:01Z</time>
      </trkpt>
      <trkpt lat="44.70809" lon="1.35077">
        <ele>226</ele>
        <time>2024-07-23T07:57:03Z</time>
      </trkpt>
      <trkpt lat="44.70808" lon="1.35076">
        <ele>226</ele>
        <time>2024-07-23T07:57:04Z</time>
      </trkpt>
      <trkpt lat="44.70808" lon="1.35075">
        <ele>226</ele>
        <time>2024-07-23T07:57:05Z</time>
      </trkpt>
      <trkpt lat="44.70807" lon="1.35074">
        <ele>225.8</ele>
        <time>2024-07-23T07:57:07Z</time>
      </trkpt>
      <trkpt lat="44.70807" lon="1.35073">
        <ele>225.8</ele>
        <time>2024-07-23T07:57:08Z</time>
      </trkpt>
      <trkpt lat="44.70807" lon="1.35074">
        <ele>225.8</ele>
        <time>2024-07-23T07:57:09Z</time>
      </trkpt>
      <trkpt lat="44.70807" lon="1.35076">
        <ele>225.8</ele>
        <time>2024-07-23T07:57:10Z</time>
      </trkpt>
      <trkpt lat="44.70809" lon="1.35077">
        <ele>225.8</ele>
        <time>2024-07-23T07:57:11Z</time>
      </trkpt>
      <trkpt lat="44.7081" lon="1.35079">
        <ele>225.8</ele>
        <time>2024-07-23T07:57:12Z</time>
      </trkpt>
      <trkpt lat="44.7081" lon="1.3508">
        <ele>225.8</ele>
        <time>2024-07-23T07:57:13Z</time>
      </trkpt>
      <trkpt lat="44.7081" lon="1.35083">
        <ele>225.8</ele>
        <time>2024-07-23T07:57:14Z</time>
      </trkpt>
      <trkpt lat="44.7081" lon="1.35085">
        <ele>225.8</ele>
        <time>2024-07-23T07:57:15Z</time>
      </trkpt>
      <trkpt lat="44.7081" lon="1.35088">
        <ele>226</ele>
        <time>2024-07-23T07:57:16Z</time>
      </trkpt>
      <trkpt lat="44.70809" lon="1.3509">
        <ele>226</ele>
        <time>2024-07-23T07:57:17Z</time>
      </trkpt>
      <trkpt lat="44.70806" lon="1.351">
        <ele>226.2</ele>
        <time>2024-07-23T07:57:21Z</time>
      </trkpt>
      <trkpt lat="44.70805" lon="1.35111">
        <ele>226.4</ele>
        <time>2024-07-23T07:57:26Z</time>
      </trkpt>
      <trkpt lat="44.70804" lon="1.35113">
        <ele>226.4</ele>
        <time>2024-07-23T07:57:27Z</time>
      </trkpt>
      <trkpt lat="44.70804" lon="1.35114">
        <ele>226.6</ele>
        <time>2024-07-23T07:57:28Z</time>
      </trkpt>
      <trkpt lat="44.70803" lon="1.35116">
        <ele>226.6</ele>
        <time>2024-07-23T07:57:29Z</time>
      </trkpt>
      <trkpt lat="44.70802" lon="1.35116">
        <ele>226.6</ele>
        <time>2024-07-23T07:57:30Z</time>
      </trkpt>
      <trkpt lat="44.70801" lon="1.35115">
        <ele>226.8</ele>
        <time>2024-07-23T07:57:31Z</time>
      </trkpt>
      <trkpt lat="44.70801" lon="1.35114">
        <ele>226.8</ele>
        <time>2024-07-23T07:57:32Z</time>
      </trkpt>
      <trkpt lat="44.708" lon="1.35112">
        <ele>227</ele>
        <time>2024-07-23T07:57:33Z</time>
      </trkpt>
      <trkpt lat="44.70799" lon="1.35111">
        <ele>227</ele>
        <time>2024-07-23T07:57:34Z</time>
      </trkpt>
      <trkpt lat="44.70799" lon="1.35111">
        <ele>227</ele>
        <time>2024-07-23T07:57:35Z</time>
      </trkpt>
      <trkpt lat="44.70798" lon="1.35112">
        <ele>227.2</ele>
        <time>2024-07-23T07:57:36Z</time>
      </trkpt>
      <trkpt lat="44.70798" lon="1.35113">
        <ele>227.2</ele>
        <time>2024-07-23T07:57:37Z</time>
      </trkpt>
      <trkpt lat="44.70798" lon="1.35113">
        <ele>227.2</ele>
        <time>2024-07-23T07:57:38Z</time>
      </trkpt>
      <trkpt lat="44.70798" lon="1.35113">
        <ele>227.2</ele>
        <time>2024-07-23T07:57:40Z</time>
      </trkpt>
      <trkpt lat="44.70795" lon="1.35121">
        <ele>227.2</ele>
        <time>2024-07-23T07:58:19Z</time>
      </trkpt>
      <trkpt lat="44.70792" lon="1.35124">
        <ele>227.2</ele>
        <time>2024-07-23T07:58:20Z</time>
      </trkpt>
      <trkpt lat="44.7079" lon="1.35128">
        <ele>227</ele>
        <time>2024-07-23T07:58:21Z</time>
      </trkpt>
      <trkpt lat="44.70786" lon="1.35134">
        <ele>226.8</ele>
        <time>2024-07-23T07:58:23Z</time>
      </trkpt>
      <trkpt lat="44.70785" lon="1.35135">
        <ele>226.4</ele>
        <time>2024-07-23T07:58:24Z</time>
      </trkpt>
      <trkpt lat="44.70784" lon="1.35136">
        <ele>226</ele>
        <time>2024-07-23T07:58:25Z</time>
      </trkpt>
      <trkpt lat="44.70784" lon="1.35136">
        <ele>225.8</ele>
        <time>2024-07-23T07:58:26Z</time>
      </trkpt>
      <trkpt lat="44.70783" lon="1.35137">
        <ele>225</ele>
        <time>2024-07-23T07:58:27Z</time>
      </trkpt>
      <trkpt lat="44.70782" lon="1.35137">
        <ele>224.6</ele>
        <time>2024-07-23T07:58:28Z</time>
      </trkpt>
      <trkpt lat="44.70781" lon="1.35138">
        <ele>224.2</ele>
        <time>2024-07-23T07:58:29Z</time>
      </trkpt>
      <trkpt lat="44.70781" lon="1.3514">
        <ele>224</ele>
        <time>2024-07-23T07:58:30Z</time>
      </trkpt>
      <trkpt lat="44.70781" lon="1.35141">
        <ele>223.6</ele>
        <time>2024-07-23T07:58:31Z</time>
      </trkpt>
      <trkpt lat="44.7078" lon="1.35143">
        <ele>223.4</ele>
        <time>2024-07-23T07:58:32Z</time>
      </trkpt>
      <trkpt lat="44.70779" lon="1.35146">
        <ele>223.4</ele>
        <time>2024-07-23T07:58:33Z</time>
      </trkpt>
      <trkpt lat="44.70778" lon="1.35148">
        <ele>223</ele>
        <time>2024-07-23T07:58:34Z</time>
      </trkpt>
      <trkpt lat="44.70778" lon="1.35152">
        <ele>223</ele>
        <time>2024-07-23T07:58:35Z</time>
      </trkpt>
      <trkpt lat="44.70779" lon="1.35156">
        <ele>222.8</ele>
        <time>2024-07-23T07:58:36Z</time>
      </trkpt>
      <trkpt lat="44.70779" lon="1.35162">
        <ele>222.4</ele>
        <time>2024-07-23T07:58:38Z</time>
      </trkpt>
      <trkpt lat="44.70779" lon="1.35169">
        <ele>222</ele>
        <time>2024-07-23T07:58:40Z</time>
      </trkpt>
      <trkpt lat="44.7078" lon="1.35178">
        <ele>221.4</ele>
        <time>2024-07-23T07:58:43Z</time>
      </trkpt>
      <trkpt lat="44.70781" lon="1.35186">
        <ele>221</ele>
        <time>2024-07-23T07:58:45Z</time>
      </trkpt>
      <trkpt lat="44.70782" lon="1.35188">
        <ele>220.4</ele>
        <time>2024-07-23T07:58:46Z</time>
      </trkpt>
      <trkpt lat="44.70783" lon="1.35191">
        <ele>220.2</ele>
        <time>2024-07-23T07:58:47Z</time>
      </trkpt>
      <trkpt lat="44.70783" lon="1.35193">
        <ele>219.4</ele>
        <time>2024-07-23T07:58:48Z</time>
      </trkpt>
      <trkpt lat="44.70782" lon="1.35195">
        <ele>219.2</ele>
        <time>2024-07-23T07:58:49Z</time>
      </trkpt>
      <trkpt lat="44.70782" lon="1.35195">
        <ele>218.8</ele>
        <time>2024-07-23T07:58:50Z</time>
      </trkpt>
      <trkpt lat="44.70782" lon="1.35195">
        <ele>218.6</ele>
        <time>2024-07-23T07:58:51Z</time>
      </trkpt>
      <trkpt lat="44.70782" lon="1.35195">
        <ele>218.2</ele>
        <time>2024-07-23T07:58:52Z</time>
      </trkpt>
      <trkpt lat="44.70781" lon="1.35193">
        <ele>217.6</ele>
        <time>2024-07-23T07:58:53Z</time>
      </trkpt>
      <trkpt lat="44.7078" lon="1.35189">
        <ele>217</ele>
        <time>2024-07-23T07:58:55Z</time>
      </trkpt>
      <trkpt lat="44.70777" lon="1.35186">
        <ele>216.8</ele>
        <time>2024-07-23T07:58:56Z</time>
      </trkpt>
      <trkpt lat="44.70775" lon="1.35182">
        <ele>216.4</ele>
        <time>2024-07-23T07:58:57Z</time>
      </trkpt>
      <trkpt lat="44.70772" lon="1.35179">
        <ele>216.2</ele>
        <time>2024-07-23T07:58:58Z</time>
      </trkpt>
      <trkpt lat="44.7077" lon="1.35176">
        <ele>216</ele>
        <time>2024-07-23T07:58:59Z</time>
      </trkpt>
      <trkpt lat="44.70765" lon="1.35168">
        <ele>215.2</ele>
        <time>2024-07-23T07:59:01Z</time>
      </trkpt>
      <trkpt lat="44.70763" lon="1.35166">
        <ele>214.6</ele>
        <time>2024-07-23T07:59:02Z</time>
      </trkpt>
      <trkpt lat="44.70762" lon="1.35162">
        <ele>214.2</ele>
        <time>2024-07-23T07:59:03Z</time>
      </trkpt>
      <trkpt lat="44.70761" lon="1.35159">
        <ele>213.6</ele>
        <time>2024-07-23T07:59:04Z</time>
      </trkpt>
      <trkpt lat="44.70759" lon="1.35154">
        <ele>213.2</ele>
        <time>2024-07-23T07:59:05Z</time>
      </trkpt>
      <trkpt lat="44.70758" lon="1.35149">
        <ele>212.4</ele>
        <time>2024-07-23T07:59:06Z</time>
      </trkpt>
      <trkpt lat="44.70756" lon="1.35138">
        <ele>211.4</ele>
        <time>2024-07-23T07:59:08Z</time>
      </trkpt>
      <trkpt lat="44.70751" lon="1.35129">
        <ele>210.4</ele>
        <time>2024-07-23T07:59:10Z</time>
      </trkpt>
      <trkpt lat="44.70749" lon="1.35126">
        <ele>209.6</ele>
        <time>2024-07-23T07:59:11Z</time>
      </trkpt>
      <trkpt lat="44.70748" lon="1.35124">
        <ele>209.2</ele>
        <time>2024-07-23T07:59:12Z</time>
      </trkpt>
      <trkpt lat="44.70747" lon="1.35122">
        <ele>208.4</ele>
        <time>2024-07-23T07:59:13Z</time>
      </trkpt>
      <trkpt lat="44.70747" lon="1.35118">
        <ele>207.8</ele>
        <time>2024-07-23T07:59:14Z</time>
      </trkpt>
      <trkpt lat="44.70746" lon="1.35116">
        <ele>207.4</ele>
        <time>2024-07-23T07:59:15Z</time>
      </trkpt>
      <trkpt lat="44.70744" lon="1.35114">
        <ele>206.2</ele>
        <time>2024-07-23T07:59:16Z</time>
      </trkpt>
      <trkpt lat="44.70742" lon="1.3511">
        <ele>205.2</ele>
        <time>2024-07-23T07:59:18Z</time>
      </trkpt>
      <trkpt lat="44.70741" lon="1.35108">
        <ele>205</ele>
        <time>2024-07-23T07:59:19Z</time>
      </trkpt>
      <trkpt lat="44.70741" lon="1.35108">
        <ele>204</ele>
        <time>2024-07-23T07:59:20Z</time>
      </trkpt>
      <trkpt lat="44.7074" lon="1.35106">
        <ele>203.2</ele>
        <time>2024-07-23T07:59:21Z</time>
      </trkpt>
      <trkpt lat="44.70738" lon="1.35101">
        <ele>202.6</ele>
        <time>2024-07-23T07:59:23Z</time>
      </trkpt>
      <trkpt lat="44.70736" lon="1.35095">
        <ele>200.8</ele>
        <time>2024-07-23T07:59:25Z</time>
      </trkpt>
      <trkpt lat="44.70734" lon="1.35087">
        <ele>200</ele>
        <time>2024-07-23T07:59:27Z</time>
      </trkpt>
      <trkpt lat="44.70733" lon="1.35084">
        <ele>199.4</ele>
        <time>2024-07-23T07:59:28Z</time>
      </trkpt>
      <trkpt lat="44.70731" lon="1.35081">
        <ele>199.2</ele>
        <time>2024-07-23T07:59:29Z</time>
      </trkpt>
      <trkpt lat="44.7073" lon="1.35079">
        <ele>198.2</ele>
        <time>2024-07-23T07:59:30Z</time>
      </trkpt>
      <trkpt lat="44.70728" lon="1.35077">
        <ele>197.6</ele>
        <time>2024-07-23T07:59:31Z</time>
      </trkpt>
      <trkpt lat="44.70727" lon="1.35074">
        <ele>197.2</ele>
        <time>2024-07-23T07:59:32Z</time>
      </trkpt>
      <trkpt lat="44.70726" lon="1.35072">
        <ele>196.6</ele>
        <time>2024-07-23T07:59:33Z</time>
      </trkpt>
      <trkpt lat="44.70724" lon="1.35069">
        <ele>195.8</ele>
        <time>2024-07-23T07:59:34Z</time>
      </trkpt>
      <trkpt lat="44.70723" lon="1.35066">
        <ele>195</ele>
        <time>2024-07-23T07:59:35Z</time>
      </trkpt>
      <trkpt lat="44.70722" lon="1.35065">
        <ele>194.6</ele>
        <time>2024-07-23T07:59:36Z</time>
      </trkpt>
      <trkpt lat="44.7072" lon="1.35061">
        <ele>194.2</ele>
        <time>2024-07-23T07:59:37Z</time>
      </trkpt>
      <trkpt lat="44.70719" lon="1.35059">
        <ele>193.8</ele>
        <time>2024-07-23T07:59:38Z</time>
      </trkpt>
      <trkpt lat="44.70717" lon="1.35057">
        <ele>193.2</ele>
        <time>2024-07-23T07:59:39Z</time>
      </trkpt>
      <trkpt lat="44.70711" lon="1.3505">
        <ele>191.8</ele>
        <time>2024-07-23T07:59:41Z</time>
      </trkpt>
      <trkpt lat="44.70705" lon="1.35042">
        <ele>190.8</ele>
        <time>2024-07-23T07:59:43Z</time>
      </trkpt>
      <trkpt lat="44.70704" lon="1.35039">
        <ele>189.6</ele>
        <time>2024-07-23T07:59:44Z</time>
      </trkpt>
      <trkpt lat="44.70703" lon="1.35035">
        <ele>189</ele>
        <time>2024-07-23T07:59:45Z</time>
      </trkpt>
      <trkpt lat="44.70701" lon="1.35032">
        <ele>187.4</ele>
        <time>2024-07-23T07:59:46Z</time>
      </trkpt>
      <trkpt lat="44.70699" lon="1.3503">
        <ele>186</ele>
        <time>2024-07-23T07:59:47Z</time>
      </trkpt>
      <trkpt lat="44.70696" lon="1.35024">
        <ele>184.8</ele>
        <time>2024-07-23T07:59:49Z</time>
      </trkpt>
      <trkpt lat="44.70694" lon="1.35015">
        <ele>183.8</ele>
        <time>2024-07-23T07:59:51Z</time>
      </trkpt>
      <trkpt lat="44.70694" lon="1.35012">
        <ele>183.6</ele>
        <time>2024-07-23T07:59:52Z</time>
      </trkpt>
      <trkpt lat="44.70694" lon="1.35009">
        <ele>183</ele>
        <time>2024-07-23T07:59:53Z</time>
      </trkpt>
      <trkpt lat="44.70694" lon="1.35008">
        <ele>182</ele>
        <time>2024-07-23T07:59:54Z</time>
      </trkpt>
      <trkpt lat="44.70692" lon="1.35005">
        <ele>181.6</ele>
        <time>2024-07-23T07:59:55Z</time>
      </trkpt>
      <trkpt lat="44.70688" lon="1.35">
        <ele>181</ele>
        <time>2024-07-23T07:59:56Z</time>
      </trkpt>
      <trkpt lat="44.70685" lon="1.3499">
        <ele>179.2</ele>
        <time>2024-07-23T07:59:58Z</time>
      </trkpt>
      <trkpt lat="44.70683" lon="1.34986">
        <ele>178.8</ele>
        <time>2024-07-23T07:59:59Z</time>
      </trkpt>
      <trkpt lat="44.70681" lon="1.34982">
        <ele>177.8</ele>
        <time>2024-07-23T08:00:00Z</time>
      </trkpt>
      <trkpt lat="44.70678" lon="1.34977">
        <ele>176.2</ele>
        <time>2024-07-23T08:00:01Z</time>
      </trkpt>
      <trkpt lat="44.70676" lon="1.34974">
        <ele>175.8</ele>
        <time>2024-07-23T08:00:02Z</time>
      </trkpt>
      <trkpt lat="44.70675" lon="1.3497">
        <ele>174.8</ele>
        <time>2024-07-23T08:00:03Z</time>
      </trkpt>
      <trkpt lat="44.70672" lon="1.34958">
        <ele>173.2</ele>
        <time>2024-07-23T08:00:05Z</time>
      </trkpt>
      <trkpt lat="44.7067" lon="1.34953">
        <ele>172.4</ele>
        <time>2024-07-23T08:00:06Z</time>
      </trkpt>
      <trkpt lat="44.70668" lon="1.34948">
        <ele>171.2</ele>
        <time>2024-07-23T08:00:07Z</time>
      </trkpt>
      <trkpt lat="44.70665" lon="1.3494">
        <ele>170</ele>
        <time>2024-07-23T08:00:09Z</time>
      </trkpt>
      <trkpt lat="44.70664" lon="1.34936">
        <ele>169.6</ele>
        <time>2024-07-23T08:00:10Z</time>
      </trkpt>
      <trkpt lat="44.70664" lon="1.34933">
        <ele>169.4</ele>
        <time>2024-07-23T08:00:11Z</time>
      </trkpt>
      <trkpt lat="44.70664" lon="1.3493">
        <ele>169.2</ele>
        <time>2024-07-23T08:00:12Z</time>
      </trkpt>
      <trkpt lat="44.70663" lon="1.34926">
        <ele>169</ele>
        <time>2024-07-23T08:00:13Z</time>
      </trkpt>
      <trkpt lat="44.70663" lon="1.34923">
        <ele>169</ele>
        <time>2024-07-23T08:00:14Z</time>
      </trkpt>
      <trkpt lat="44.70662" lon="1.3492">
        <ele>169</ele>
        <time>2024-07-23T08:00:15Z</time>
      </trkpt>
      <trkpt lat="44.70661" lon="1.34917">
        <ele>169</ele>
        <time>2024-07-23T08:00:16Z</time>
      </trkpt>
      <trkpt lat="44.7066" lon="1.34914">
        <ele>169</ele>
        <time>2024-07-23T08:00:17Z</time>
      </trkpt>
      <trkpt lat="44.7066" lon="1.34912">
        <ele>168.8</ele>
        <time>2024-07-23T08:00:18Z</time>
      </trkpt>
      <trkpt lat="44.70659" lon="1.34909">
        <ele>168.8</ele>
        <time>2024-07-23T08:00:19Z</time>
      </trkpt>
      <trkpt lat="44.70658" lon="1.34907">
        <ele>168.8</ele>
        <time>2024-07-23T08:00:20Z</time>
      </trkpt>
      <trkpt lat="44.70658" lon="1.34905">
        <ele>168.8</ele>
        <time>2024-07-23T08:00:21Z</time>
      </trkpt>
      <trkpt lat="44.70657" lon="1.34903">
        <ele>168.8</ele>
        <time>2024-07-23T08:00:22Z</time>
      </trkpt>
      <trkpt lat="44.70656" lon="1.349">
        <ele>168.8</ele>
        <time>2024-07-23T08:00:23Z</time>
      </trkpt>
      <trkpt lat="44.70655" lon="1.34898">
        <ele>168.8</ele>
        <time>2024-07-23T08:00:24Z</time>
      </trkpt>
      <trkpt lat="44.70655" lon="1.34895">
        <ele>168.8</ele>
        <time>2024-07-23T08:00:25Z</time>
      </trkpt>
      <trkpt lat="44.70654" lon="1.34892">
        <ele>168.8</ele>
        <time>2024-07-23T08:00:26Z</time>
      </trkpt>
      <trkpt lat="44.70654" lon="1.34889">
        <ele>168.8</ele>
        <time>2024-07-23T08:00:27Z</time>
      </trkpt>
      <trkpt lat="44.70653" lon="1.34886">
        <ele>168.8</ele>
        <time>2024-07-23T08:00:28Z</time>
      </trkpt>
      <trkpt lat="44.70653" lon="1.34884">
        <ele>168.8</ele>
        <time>2024-07-23T08:00:29Z</time>
      </trkpt>
      <trkpt lat="44.70652" lon="1.34882">
        <ele>168.8</ele>
        <time>2024-07-23T08:00:30Z</time>
      </trkpt>
      <trkpt lat="44.70651" lon="1.34879">
        <ele>168.8</ele>
        <time>2024-07-23T08:00:32Z</time>
      </trkpt>
      <trkpt lat="44.7065" lon="1.34879">
        <ele>168.8</ele>
        <time>2024-07-23T08:00:33Z</time>
      </trkpt>
      <trkpt lat="44.70649" lon="1.34881">
        <ele>168.8</ele>
        <time>2024-07-23T08:00:34Z</time>
      </trkpt>
      <trkpt lat="44.70649" lon="1.34882">
        <ele>168.8</ele>
        <time>2024-07-23T08:00:35Z</time>
      </trkpt>
      <trkpt lat="44.70649" lon="1.34884">
        <ele>168.8</ele>
        <time>2024-07-23T08:00:36Z</time>
      </trkpt>
      <trkpt lat="44.7065" lon="1.34885">
        <ele>168.6</ele>
        <time>2024-07-23T08:00:37Z</time>
      </trkpt>
      <trkpt lat="44.70651" lon="1.34885">
        <ele>168.6</ele>
        <time>2024-07-23T08:00:38Z</time>
      </trkpt>
      <trkpt lat="44.70652" lon="1.34883">
        <ele>168.6</ele>
        <time>2024-07-23T08:00:39Z</time>
      </trkpt>
      <trkpt lat="44.70653" lon="1.34882">
        <ele>168.6</ele>
        <time>2024-07-23T08:00:40Z</time>
      </trkpt>
      <trkpt lat="44.70651" lon="1.34873">
        <ele>168.6</ele>
        <time>2024-07-23T08:00:43Z</time>
      </trkpt>
      <trkpt lat="44.70651" lon="1.3487">
        <ele>168.6</ele>
        <time>2024-07-23T08:00:44Z</time>
      </trkpt>
      <trkpt lat="44.7065" lon="1.34867">
        <ele>168.6</ele>
        <time>2024-07-23T08:00:45Z</time>
      </trkpt>
      <trkpt lat="44.70649" lon="1.34856">
        <ele>168.6</ele>
        <time>2024-07-23T08:00:48Z</time>
      </trkpt>
      <trkpt lat="44.70649" lon="1.34852">
        <ele>168.6</ele>
        <time>2024-07-23T08:00:49Z</time>
      </trkpt>
      <trkpt lat="44.70648" lon="1.3484">
        <ele>168.8</ele>
        <time>2024-07-23T08:00:52Z</time>
      </trkpt>
      <trkpt lat="44.70647" lon="1.34804">
        <ele>169</ele>
        <time>2024-07-23T08:01:00Z</time>
      </trkpt>
      <trkpt lat="44.70647" lon="1.3479">
        <ele>169</ele>
        <time>2024-07-23T08:01:03Z</time>
      </trkpt>
      <trkpt lat="44.70649" lon="1.34768">
        <ele>169</ele>
        <time>2024-07-23T08:01:08Z</time>
      </trkpt>
      <trkpt lat="44.70651" lon="1.34754">
        <ele>169.4</ele>
        <time>2024-07-23T08:01:11Z</time>
      </trkpt>
      <trkpt lat="44.70651" lon="1.3475">
        <ele>169.4</ele>
        <time>2024-07-23T08:01:12Z</time>
      </trkpt>
      <trkpt lat="44.70652" lon="1.34746">
        <ele>169.6</ele>
        <time>2024-07-23T08:01:13Z</time>
      </trkpt>
      <trkpt lat="44.70653" lon="1.34737">
        <ele>169.8</ele>
        <time>2024-07-23T08:01:15Z</time>
      </trkpt>
      <trkpt lat="44.70653" lon="1.34733">
        <ele>169.8</ele>
        <time>2024-07-23T08:01:16Z</time>
      </trkpt>
      <trkpt lat="44.70654" lon="1.34728">
        <ele>169.8</ele>
        <time>2024-07-23T08:01:17Z</time>
      </trkpt>
      <trkpt lat="44.70655" lon="1.34724">
        <ele>170</ele>
        <time>2024-07-23T08:01:18Z</time>
      </trkpt>
      <trkpt lat="44.70656" lon="1.3472">
        <ele>170.2</ele>
        <time>2024-07-23T08:01:19Z</time>
      </trkpt>
      <trkpt lat="44.70665" lon="1.34682">
        <ele>171</ele>
        <time>2024-07-23T08:01:28Z</time>
      </trkpt>
      <trkpt lat="44.70667" lon="1.34678">
        <ele>171</ele>
        <time>2024-07-23T08:01:29Z</time>
      </trkpt>
      <trkpt lat="44.70679" lon="1.34638">
        <ele>171.6</ele>
        <time>2024-07-23T08:01:38Z</time>
      </trkpt>
      <trkpt lat="44.70689" lon="1.346">
        <ele>172</ele>
        <time>2024-07-23T08:01:46Z</time>
      </trkpt>
      <trkpt lat="44.7069" lon="1.34595">
        <ele>172.2</ele>
        <time>2024-07-23T08:01:47Z</time>
      </trkpt>
      <trkpt lat="44.70705" lon="1.34547">
        <ele>172.2</ele>
        <time>2024-07-23T08:01:57Z</time>
      </trkpt>
      <trkpt lat="44.70723" lon="1.34496">
        <ele>172</ele>
        <time>2024-07-23T08:02:07Z</time>
      </trkpt>
      <trkpt lat="44.70729" lon="1.3448">
        <ele>172</ele>
        <time>2024-07-23T08:02:10Z</time>
      </trkpt>
      <trkpt lat="44.70748" lon="1.34424">
        <ele>171.6</ele>
        <time>2024-07-23T08:02:20Z</time>
      </trkpt>
      <trkpt lat="44.70757" lon="1.344">
        <ele>171</ele>
        <time>2024-07-23T08:02:24Z</time>
      </trkpt>
      <trkpt lat="44.70764" lon="1.34383">
        <ele>170.8</ele>
        <time>2024-07-23T08:02:27Z</time>
      </trkpt>
      <trkpt lat="44.70775" lon="1.34355">
        <ele>170.4</ele>
        <time>2024-07-23T08:02:32Z</time>
      </trkpt>
      <trkpt lat="44.70781" lon="1.34337">
        <ele>170.2</ele>
        <time>2024-07-23T08:02:35Z</time>
      </trkpt>
      <trkpt lat="44.70783" lon="1.34333">
        <ele>170</ele>
        <time>2024-07-23T08:02:36Z</time>
      </trkpt>
      <trkpt lat="44.70784" lon="1.34329">
        <ele>170</ele>
        <time>2024-07-23T08:02:37Z</time>
      </trkpt>
      <trkpt lat="44.70785" lon="1.34324">
        <ele>169.8</ele>
        <time>2024-07-23T08:02:38Z</time>
      </trkpt>
      <trkpt lat="44.70784" lon="1.34318">
        <ele>169.6</ele>
        <time>2024-07-23T08:02:39Z</time>
      </trkpt>
      <trkpt lat="44.70783" lon="1.34313">
        <ele>169.6</ele>
        <time>2024-07-23T08:02:40Z</time>
      </trkpt>
      <trkpt lat="44.70782" lon="1.34309">
        <ele>169.6</ele>
        <time>2024-07-23T08:02:41Z</time>
      </trkpt>
      <trkpt lat="44.70779" lon="1.34303">
        <ele>169.4</ele>
        <time>2024-07-23T08:02:42Z</time>
      </trkpt>
      <trkpt lat="44.70776" lon="1.34298">
        <ele>169.4</ele>
        <time>2024-07-23T08:02:43Z</time>
      </trkpt>
      <trkpt lat="44.70768" lon="1.34283">
        <ele>169</ele>
        <time>2024-07-23T08:02:46Z</time>
      </trkpt>
      <trkpt lat="44.70753" lon="1.34254">
        <ele>168.6</ele>
        <time>2024-07-23T08:02:52Z</time>
      </trkpt>
      <trkpt lat="44.70751" lon="1.3425">
        <ele>168.6</ele>
        <time>2024-07-23T08:02:53Z</time>
      </trkpt>
      <trkpt lat="44.70748" lon="1.34244">
        <ele>168.6</ele>
        <time>2024-07-23T08:02:54Z</time>
      </trkpt>
      <trkpt lat="44.70746" lon="1.34239">
        <ele>168.6</ele>
        <time>2024-07-23T08:02:55Z</time>
      </trkpt>
      <trkpt lat="44.70735" lon="1.34202">
        <ele>168.2</ele>
        <time>2024-07-23T08:03:02Z</time>
      </trkpt>
      <trkpt lat="44.70734" lon="1.34192">
        <ele>167.8</ele>
        <time>2024-07-23T08:03:04Z</time>
      </trkpt>
      <trkpt lat="44.70733" lon="1.34186">
        <ele>167.8</ele>
        <time>2024-07-23T08:03:05Z</time>
      </trkpt>
      <trkpt lat="44.70733" lon="1.34182">
        <ele>167.6</ele>
        <time>2024-07-23T08:03:06Z</time>
      </trkpt>
      <trkpt lat="44.70733" lon="1.34178">
        <ele>167.6</ele>
        <time>2024-07-23T08:03:07Z</time>
      </trkpt>
      <trkpt lat="44.70733" lon="1.34177">
        <ele>167.6</ele>
        <time>2024-07-23T08:03:08Z</time>
      </trkpt>
      <trkpt lat="44.70732" lon="1.34175">
        <ele>167.4</ele>
        <time>2024-07-23T08:03:09Z</time>
      </trkpt>
      <trkpt lat="44.70732" lon="1.34173">
        <ele>167.4</ele>
        <time>2024-07-23T08:03:10Z</time>
      </trkpt>
      <trkpt lat="44.70732" lon="1.34173">
        <ele>167.4</ele>
        <time>2024-07-23T08:03:11Z</time>
      </trkpt>
      <trkpt lat="44.70732" lon="1.34173">
        <ele>167.2</ele>
        <time>2024-07-23T08:03:12Z</time>
      </trkpt>
      <trkpt lat="44.70731" lon="1.34166">
        <ele>166.6</ele>
        <time>2024-07-23T08:03:21Z</time>
      </trkpt>
      <trkpt lat="44.70731" lon="1.34159">
        <ele>166.6</ele>
        <time>2024-07-23T08:03:23Z</time>
      </trkpt>
      <trkpt lat="44.7073" lon="1.34137">
        <ele>166.6</ele>
        <time>2024-07-23T08:03:29Z</time>
      </trkpt>
      <trkpt lat="44.70729" lon="1.34137">
        <ele>166.6</ele>
        <time>2024-07-23T08:03:30Z</time>
      </trkpt>
      <trkpt lat="44.70727" lon="1.34138">
        <ele>166.6</ele>
        <time>2024-07-23T08:03:31Z</time>
      </trkpt>
      <trkpt lat="44.70725" lon="1.34139">
        <ele>166.6</ele>
        <time>2024-07-23T08:03:32Z</time>
      </trkpt>
      <trkpt lat="44.70721" lon="1.34139">
        <ele>166.6</ele>
        <time>2024-07-23T08:03:34Z</time>
      </trkpt>
      <trkpt lat="44.70719" lon="1.34139">
        <ele>166.6</ele>
        <time>2024-07-23T08:03:35Z</time>
      </trkpt>
      <trkpt lat="44.70716" lon="1.34139">
        <ele>166.6</ele>
        <time>2024-07-23T08:03:36Z</time>
      </trkpt>
      <trkpt lat="44.70714" lon="1.34141">
        <ele>166.6</ele>
        <time>2024-07-23T08:03:37Z</time>
      </trkpt>
      <trkpt lat="44.70713" lon="1.34142">
        <ele>166.6</ele>
        <time>2024-07-23T08:03:38Z</time>
      </trkpt>
      <trkpt lat="44.70698" lon="1.34144">
        <ele>166.4</ele>
        <time>2024-07-23T08:03:44Z</time>
      </trkpt>
      <trkpt lat="44.70676" lon="1.34142">
        <ele>166.2</ele>
        <time>2024-07-23T08:03:51Z</time>
      </trkpt>
      <trkpt lat="44.70672" lon="1.34141">
        <ele>166.2</ele>
        <time>2024-07-23T08:03:52Z</time>
      </trkpt>
      <trkpt lat="44.70655" lon="1.34131">
        <ele>165.8</ele>
        <time>2024-07-23T08:03:56Z</time>
      </trkpt>
      <trkpt lat="44.70645" lon="1.34124">
        <ele>165.8</ele>
        <time>2024-07-23T08:03:58Z</time>
      </trkpt>
      <trkpt lat="44.70641" lon="1.3412">
        <ele>165.8</ele>
        <time>2024-07-23T08:03:59Z</time>
      </trkpt>
      <trkpt lat="44.70622" lon="1.34105">
        <ele>165.4</ele>
        <time>2024-07-23T08:04:03Z</time>
      </trkpt>
      <trkpt lat="44.70605" lon="1.34091">
        <ele>164.8</ele>
        <time>2024-07-23T08:04:07Z</time>
      </trkpt>
      <trkpt lat="44.70592" lon="1.3408">
        <ele>164.4</ele>
        <time>2024-07-23T08:04:10Z</time>
      </trkpt>
      <trkpt lat="44.70589" lon="1.34076">
        <ele>164.4</ele>
        <time>2024-07-23T08:04:11Z</time>
      </trkpt>
      <trkpt lat="44.70584" lon="1.34072">
        <ele>164.2</ele>
        <time>2024-07-23T08:04:12Z</time>
      </trkpt>
      <trkpt lat="44.70579" lon="1.34068">
        <ele>164.2</ele>
        <time>2024-07-23T08:04:13Z</time>
      </trkpt>
      <trkpt lat="44.70575" lon="1.34064">
        <ele>164.2</ele>
        <time>2024-07-23T08:04:14Z</time>
      </trkpt>
      <trkpt lat="44.7057" lon="1.3406">
        <ele>164.2</ele>
        <time>2024-07-23T08:04:15Z</time>
      </trkpt>
      <trkpt lat="44.70567" lon="1.34057">
        <ele>164.2</ele>
        <time>2024-07-23T08:04:16Z</time>
      </trkpt>
      <trkpt lat="44.70563" lon="1.34054">
        <ele>164.2</ele>
        <time>2024-07-23T08:04:17Z</time>
      </trkpt>
      <trkpt lat="44.70559" lon="1.3405">
        <ele>164.2</ele>
        <time>2024-07-23T08:04:18Z</time>
      </trkpt>
      <trkpt lat="44.70551" lon="1.34043">
        <ele>164.2</ele>
        <time>2024-07-23T08:04:20Z</time>
      </trkpt>
      <trkpt lat="44.70549" lon="1.34041">
        <ele>164</ele>
        <time>2024-07-23T08:04:21Z</time>
      </trkpt>
      <trkpt lat="44.70545" lon="1.34038">
        <ele>164</ele>
        <time>2024-07-23T08:04:22Z</time>
      </trkpt>
      <trkpt lat="44.70542" lon="1.34035">
        <ele>164</ele>
        <time>2024-07-23T08:04:23Z</time>
      </trkpt>
      <trkpt lat="44.70538" lon="1.34032">
        <ele>164</ele>
        <time>2024-07-23T08:04:24Z</time>
      </trkpt>
      <trkpt lat="44.70534" lon="1.34029">
        <ele>163.8</ele>
        <time>2024-07-23T08:04:25Z</time>
      </trkpt>
      <trkpt lat="44.7053" lon="1.34026">
        <ele>163.8</ele>
        <time>2024-07-23T08:04:26Z</time>
      </trkpt>
      <trkpt lat="44.7051" lon="1.34017">
        <ele>163.8</ele>
        <time>2024-07-23T08:04:31Z</time>
      </trkpt>
      <trkpt lat="44.70496" lon="1.34016">
        <ele>163.8</ele>
        <time>2024-07-23T08:04:35Z</time>
      </trkpt>
      <trkpt lat="44.70493" lon="1.34016">
        <ele>163.8</ele>
        <time>2024-07-23T08:04:36Z</time>
      </trkpt>
      <trkpt lat="44.7049" lon="1.34015">
        <ele>163.8</ele>
        <time>2024-07-23T08:04:37Z</time>
      </trkpt>
      <trkpt lat="44.70488" lon="1.34013">
        <ele>163.8</ele>
        <time>2024-07-23T08:04:38Z</time>
      </trkpt>
      <trkpt lat="44.70486" lon="1.34011">
        <ele>163.8</ele>
        <time>2024-07-23T08:04:39Z</time>
      </trkpt>
      <trkpt lat="44.70486" lon="1.34007">
        <ele>163.8</ele>
        <time>2024-07-23T08:04:40Z</time>
      </trkpt>
      <trkpt lat="44.70486" lon="1.34004">
        <ele>163.8</ele>
        <time>2024-07-23T08:04:41Z</time>
      </trkpt>
      <trkpt lat="44.70487" lon="1.34002">
        <ele>163.8</ele>
        <time>2024-07-23T08:04:42Z</time>
      </trkpt>
      <trkpt lat="44.7049" lon="1.33995">
        <ele>164</ele>
        <time>2024-07-23T08:04:44Z</time>
      </trkpt>
      <trkpt lat="44.70493" lon="1.3399">
        <ele>164</ele>
        <time>2024-07-23T08:04:45Z</time>
      </trkpt>
      <trkpt lat="44.705" lon="1.33975">
        <ele>163.8</ele>
        <time>2024-07-23T08:04:48Z</time>
      </trkpt>
      <trkpt lat="44.70502" lon="1.33968">
        <ele>163.4</ele>
        <time>2024-07-23T08:04:49Z</time>
      </trkpt>
      <trkpt lat="44.70505" lon="1.3396">
        <ele>162.8</ele>
        <time>2024-07-23T08:04:50Z</time>
      </trkpt>
      <trkpt lat="44.70507" lon="1.33953">
        <ele>162</ele>
        <time>2024-07-23T08:04:51Z</time>
      </trkpt>
      <trkpt lat="44.70509" lon="1.33948">
        <ele>161.4</ele>
        <time>2024-07-23T08:04:52Z</time>
      </trkpt>
      <trkpt lat="44.70511" lon="1.33943">
        <ele>161.2</ele>
        <time>2024-07-23T08:04:53Z</time>
      </trkpt>
      <trkpt lat="44.70513" lon="1.33938">
        <ele>161</ele>
        <time>2024-07-23T08:04:54Z</time>
      </trkpt>
      <trkpt lat="44.70514" lon="1.33934">
        <ele>160.8</ele>
        <time>2024-07-23T08:04:55Z</time>
      </trkpt>
      <trkpt lat="44.70515" lon="1.33929">
        <ele>160.6</ele>
        <time>2024-07-23T08:04:56Z</time>
      </trkpt>
      <trkpt lat="44.70517" lon="1.33926">
        <ele>160.6</ele>
        <time>2024-07-23T08:04:57Z</time>
      </trkpt>
      <trkpt lat="44.70519" lon="1.33923">
        <ele>160.6</ele>
        <time>2024-07-23T08:04:58Z</time>
      </trkpt>
      <trkpt lat="44.70522" lon="1.33919">
        <ele>160.4</ele>
        <time>2024-07-23T08:04:59Z</time>
      </trkpt>
      <trkpt lat="44.70532" lon="1.33902">
        <ele>160.2</ele>
        <time>2024-07-23T08:05:03Z</time>
      </trkpt>
      <trkpt lat="44.70534" lon="1.33899">
        <ele>160.2</ele>
        <time>2024-07-23T08:05:04Z</time>
      </trkpt>
      <trkpt lat="44.70536" lon="1.33897">
        <ele>160.2</ele>
        <time>2024-07-23T08:05:05Z</time>
      </trkpt>
      <trkpt lat="44.70542" lon="1.33891">
        <ele>160.2</ele>
        <time>2024-07-23T08:05:07Z</time>
      </trkpt>
      <trkpt lat="44.70543" lon="1.33887">
        <ele>160.2</ele>
        <time>2024-07-23T08:05:08Z</time>
      </trkpt>
      <trkpt lat="44.70543" lon="1.33884">
        <ele>160.4</ele>
        <time>2024-07-23T08:05:09Z</time>
      </trkpt>
      <trkpt lat="44.70544" lon="1.33882">
        <ele>160.4</ele>
        <time>2024-07-23T08:05:10Z</time>
      </trkpt>
      <trkpt lat="44.70545" lon="1.33877">
        <ele>160.4</ele>
        <time>2024-07-23T08:05:11Z</time>
      </trkpt>
      <trkpt lat="44.70548" lon="1.33869">
        <ele>161</ele>
        <time>2024-07-23T08:05:15Z</time>
      </trkpt>
      <trkpt lat="44.7055" lon="1.33867">
        <ele>161</ele>
        <time>2024-07-23T08:05:16Z</time>
      </trkpt>
      <trkpt lat="44.70551" lon="1.33863">
        <ele>161.4</ele>
        <time>2024-07-23T08:05:17Z</time>
      </trkpt>
      <trkpt lat="44.70557" lon="1.33858">
        <ele>161.8</ele>
        <time>2024-07-23T08:05:19Z</time>
      </trkpt>
      <trkpt lat="44.70559" lon="1.33856">
        <ele>162.4</ele>
        <time>2024-07-23T08:05:20Z</time>
      </trkpt>
      <trkpt lat="44.7056" lon="1.33853">
        <ele>162.6</ele>
        <time>2024-07-23T08:05:21Z</time>
      </trkpt>
      <trkpt lat="44.70562" lon="1.3385">
        <ele>163</ele>
        <time>2024-07-23T08:05:22Z</time>
      </trkpt>
      <trkpt lat="44.70563" lon="1.33846">
        <ele>163.4</ele>
        <time>2024-07-23T08:05:23Z</time>
      </trkpt>
      <trkpt lat="44.70563" lon="1.33844">
        <ele>163.6</ele>
        <time>2024-07-23T08:05:24Z</time>
      </trkpt>
      <trkpt lat="44.70566" lon="1.33834">
        <ele>164.6</ele>
        <time>2024-07-23T08:05:27Z</time>
      </trkpt>
      <trkpt lat="44.70567" lon="1.33831">
        <ele>164.6</ele>
        <time>2024-07-23T08:05:28Z</time>
      </trkpt>
      <trkpt lat="44.70567" lon="1.33828">
        <ele>164.6</ele>
        <time>2024-07-23T08:05:29Z</time>
      </trkpt>
      <trkpt lat="44.70568" lon="1.33825">
        <ele>164.8</ele>
        <time>2024-07-23T08:05:30Z</time>
      </trkpt>
      <trkpt lat="44.70568" lon="1.33822">
        <ele>164.8</ele>
        <time>2024-07-23T08:05:31Z</time>
      </trkpt>
      <trkpt lat="44.70568" lon="1.33818">
        <ele>165</ele>
        <time>2024-07-23T08:05:32Z</time>
      </trkpt>
      <trkpt lat="44.70569" lon="1.33815">
        <ele>165.2</ele>
        <time>2024-07-23T08:05:33Z</time>
      </trkpt>
      <trkpt lat="44.70569" lon="1.33813">
        <ele>165.4</ele>
        <time>2024-07-23T08:05:34Z</time>
      </trkpt>
      <trkpt lat="44.7057" lon="1.33812">
        <ele>165.4</ele>
        <time>2024-07-23T08:05:35Z</time>
      </trkpt>
      <trkpt lat="44.70571" lon="1.3381">
        <ele>165.6</ele>
        <time>2024-07-23T08:05:36Z</time>
      </trkpt>
      <trkpt lat="44.70571" lon="1.33809">
        <ele>165.8</ele>
        <time>2024-07-23T08:05:37Z</time>
      </trkpt>
      <trkpt lat="44.70572" lon="1.33808">
        <ele>166</ele>
        <time>2024-07-23T08:05:38Z</time>
      </trkpt>
      <trkpt lat="44.70572" lon="1.33808">
        <ele>166</ele>
        <time>2024-07-23T08:05:39Z</time>
      </trkpt>
      <trkpt lat="44.70572" lon="1.33808">
        <ele>166</ele>
        <time>2024-07-23T08:05:41Z</time>
      </trkpt>
      <trkpt lat="44.70574" lon="1.33794">
        <ele>166.6</ele>
        <time>2024-07-23T08:06:03Z</time>
      </trkpt>
      <trkpt lat="44.70575" lon="1.33791">
        <ele>166.6</ele>
        <time>2024-07-23T08:06:04Z</time>
      </trkpt>
      <trkpt lat="44.70575" lon="1.33785">
        <ele>166.6</ele>
        <time>2024-07-23T08:06:06Z</time>
      </trkpt>
      <trkpt lat="44.70576" lon="1.33782">
        <ele>166.6</ele>
        <time>2024-07-23T08:06:07Z</time>
      </trkpt>
      <trkpt lat="44.70576" lon="1.3378">
        <ele>166.6</ele>
        <time>2024-07-23T08:06:08Z</time>
      </trkpt>
      <trkpt lat="44.70578" lon="1.33773">
        <ele>166.6</ele>
        <time>2024-07-23T08:06:11Z</time>
      </trkpt>
      <trkpt lat="44.70581" lon="1.33764">
        <ele>167</ele>
        <time>2024-07-23T08:06:15Z</time>
      </trkpt>
      <trkpt lat="44.70582" lon="1.33757">
        <ele>167.2</ele>
        <time>2024-07-23T08:06:18Z</time>
      </trkpt>
      <trkpt lat="44.70583" lon="1.33755">
        <ele>167.4</ele>
        <time>2024-07-23T08:06:19Z</time>
      </trkpt>
      <trkpt lat="44.70583" lon="1.33753">
        <ele>167.4</ele>
        <time>2024-07-23T08:06:20Z</time>
      </trkpt>
      <trkpt lat="44.70585" lon="1.33745">
        <ele>167.6</ele>
        <time>2024-07-23T08:06:23Z</time>
      </trkpt>
      <trkpt lat="44.70588" lon="1.33738">
        <ele>167.8</ele>
        <time>2024-07-23T08:06:25Z</time>
      </trkpt>
      <trkpt lat="44.70593" lon="1.33727">
        <ele>168</ele>
        <time>2024-07-23T08:06:28Z</time>
      </trkpt>
      <trkpt lat="44.70593" lon="1.33723">
        <ele>168</ele>
        <time>2024-07-23T08:06:29Z</time>
      </trkpt>
      <trkpt lat="44.70593" lon="1.3372">
        <ele>168.2</ele>
        <time>2024-07-23T08:06:30Z</time>
      </trkpt>
      <trkpt lat="44.70595" lon="1.33707">
        <ele>168.6</ele>
        <time>2024-07-23T08:06:34Z</time>
      </trkpt>
      <trkpt lat="44.70596" lon="1.33702">
        <ele>168.6</ele>
        <time>2024-07-23T08:06:35Z</time>
      </trkpt>
      <trkpt lat="44.706" lon="1.33674">
        <ele>169</ele>
        <time>2024-07-23T08:06:42Z</time>
      </trkpt>
      <trkpt lat="44.70602" lon="1.33666">
        <ele>169</ele>
        <time>2024-07-23T08:06:44Z</time>
      </trkpt>
      <trkpt lat="44.70604" lon="1.33657">
        <ele>169.2</ele>
        <time>2024-07-23T08:06:47Z</time>
      </trkpt>
      <trkpt lat="44.70611" lon="1.3363">
        <ele>169.2</ele>
        <time>2024-07-23T08:06:54Z</time>
      </trkpt>
      <trkpt lat="44.70614" lon="1.33615">
        <ele>169.2</ele>
        <time>2024-07-23T08:06:58Z</time>
      </trkpt>
      <trkpt lat="44.70615" lon="1.33611">
        <ele>169.2</ele>
        <time>2024-07-23T08:06:59Z</time>
      </trkpt>
      <trkpt lat="44.70617" lon="1.33604">
        <ele>169.2</ele>
        <time>2024-07-23T08:07:01Z</time>
      </trkpt>
      <trkpt lat="44.70617" lon="1.33601">
        <ele>169.2</ele>
        <time>2024-07-23T08:07:02Z</time>
      </trkpt>
      <trkpt lat="44.70618" lon="1.33596">
        <ele>169.4</ele>
        <time>2024-07-23T08:07:03Z</time>
      </trkpt>
      <trkpt lat="44.70619" lon="1.33592">
        <ele>169.4</ele>
        <time>2024-07-23T08:07:04Z</time>
      </trkpt>
      <trkpt lat="44.7062" lon="1.33588">
        <ele>169.6</ele>
        <time>2024-07-23T08:07:05Z</time>
      </trkpt>
      <trkpt lat="44.70621" lon="1.33585">
        <ele>169.8</ele>
        <time>2024-07-23T08:07:06Z</time>
      </trkpt>
      <trkpt lat="44.70622" lon="1.33582">
        <ele>170</ele>
        <time>2024-07-23T08:07:07Z</time>
      </trkpt>
      <trkpt lat="44.70623" lon="1.33579">
        <ele>170</ele>
        <time>2024-07-23T08:07:08Z</time>
      </trkpt>
      <trkpt lat="44.70624" lon="1.33577">
        <ele>170.4</ele>
        <time>2024-07-23T08:07:09Z</time>
      </trkpt>
      <trkpt lat="44.70629" lon="1.33562">
        <ele>170.6</ele>
        <time>2024-07-23T08:07:13Z</time>
      </trkpt>
      <trkpt lat="44.70631" lon="1.33559">
        <ele>170.6</ele>
        <time>2024-07-23T08:07:14Z</time>
      </trkpt>
      <trkpt lat="44.70632" lon="1.33555">
        <ele>170.8</ele>
        <time>2024-07-23T08:07:15Z</time>
      </trkpt>
      <trkpt lat="44.70634" lon="1.33549">
        <ele>170.8</ele>
        <time>2024-07-23T08:07:17Z</time>
      </trkpt>
      <trkpt lat="44.70648" lon="1.33528">
        <ele>170.8</ele>
        <time>2024-07-23T08:07:23Z</time>
      </trkpt>
      <trkpt lat="44.70657" lon="1.33514">
        <ele>170.4</ele>
        <time>2024-07-23T08:07:26Z</time>
      </trkpt>
      <trkpt lat="44.70662" lon="1.33503">
        <ele>170</ele>
        <time>2024-07-23T08:07:28Z</time>
      </trkpt>
      <trkpt lat="44.70664" lon="1.335">
        <ele>170</ele>
        <time>2024-07-23T08:07:29Z</time>
      </trkpt>
      <trkpt lat="44.70667" lon="1.33495">
        <ele>170</ele>
        <time>2024-07-23T08:07:30Z</time>
      </trkpt>
      <trkpt lat="44.7067" lon="1.33491">
        <ele>170</ele>
        <time>2024-07-23T08:07:31Z</time>
      </trkpt>
      <trkpt lat="44.70672" lon="1.33486">
        <ele>169.8</ele>
        <time>2024-07-23T08:07:32Z</time>
      </trkpt>
      <trkpt lat="44.70674" lon="1.33482">
        <ele>169.8</ele>
        <time>2024-07-23T08:07:33Z</time>
      </trkpt>
      <trkpt lat="44.70681" lon="1.33475">
        <ele>169.6</ele>
        <time>2024-07-23T08:07:35Z</time>
      </trkpt>
      <trkpt lat="44.70684" lon="1.33471">
        <ele>169.6</ele>
        <time>2024-07-23T08:07:36Z</time>
      </trkpt>
      <trkpt lat="44.70689" lon="1.33461">
        <ele>169.4</ele>
        <time>2024-07-23T08:07:38Z</time>
      </trkpt>
      <trkpt lat="44.70691" lon="1.33456">
        <ele>169.4</ele>
        <time>2024-07-23T08:07:39Z</time>
      </trkpt>
      <trkpt lat="44.70691" lon="1.33451">
        <ele>169.2</ele>
        <time>2024-07-23T08:07:40Z</time>
      </trkpt>
      <trkpt lat="44.70692" lon="1.33446">
        <ele>169.2</ele>
        <time>2024-07-23T08:07:41Z</time>
      </trkpt>
      <trkpt lat="44.70694" lon="1.33428">
        <ele>169</ele>
        <time>2024-07-23T08:07:44Z</time>
      </trkpt>
      <trkpt lat="44.70693" lon="1.33423">
        <ele>169</ele>
        <time>2024-07-23T08:07:45Z</time>
      </trkpt>
      <trkpt lat="44.70693" lon="1.33418">
        <ele>168.8</ele>
        <time>2024-07-23T08:07:46Z</time>
      </trkpt>
      <trkpt lat="44.70693" lon="1.33413">
        <ele>168.8</ele>
        <time>2024-07-23T08:07:47Z</time>
      </trkpt>
      <trkpt lat="44.7069" lon="1.33403">
        <ele>168.6</ele>
        <time>2024-07-23T08:07:48Z</time>
      </trkpt>
      <trkpt lat="44.7069" lon="1.33403">
        <ele>168.8</ele>
        <time>2024-07-23T08:07:49Z</time>
      </trkpt>
      <trkpt lat="44.70683" lon="1.33392">
        <ele>168.8</ele>
        <time>2024-07-23T08:07:50Z</time>
      </trkpt>
      <trkpt lat="44.70683" lon="1.33392">
        <ele>168.6</ele>
        <time>2024-07-23T08:07:51Z</time>
      </trkpt>
      <trkpt lat="44.70678" lon="1.33382">
        <ele>168.4</ele>
        <time>2024-07-23T08:07:52Z</time>
      </trkpt>
      <trkpt lat="44.70672" lon="1.33364">
        <ele>168</ele>
        <time>2024-07-23T08:07:55Z</time>
      </trkpt>
      <trkpt lat="44.70672" lon="1.33362">
        <ele>167.6</ele>
        <time>2024-07-23T08:07:56Z</time>
      </trkpt>
      <trkpt lat="44.70673" lon="1.33361">
        <ele>167.4</ele>
        <time>2024-07-23T08:07:57Z</time>
      </trkpt>
      <trkpt lat="44.70673" lon="1.33361">
        <ele>167</ele>
        <time>2024-07-23T08:07:58Z</time>
      </trkpt>
      <trkpt lat="44.70674" lon="1.3336">
        <ele>166.8</ele>
        <time>2024-07-23T08:07:59Z</time>
      </trkpt>
      <trkpt lat="44.70674" lon="1.3336">
        <ele>166.4</ele>
        <time>2024-07-23T08:08:00Z</time>
      </trkpt>
      <trkpt lat="44.70674" lon="1.3336">
        <ele>166</ele>
        <time>2024-07-23T08:08:01Z</time>
      </trkpt>
      <trkpt lat="44.70674" lon="1.3336">
        <ele>165.8</ele>
        <time>2024-07-23T08:08:02Z</time>
      </trkpt>
      <trkpt lat="44.70674" lon="1.3336">
        <ele>165.6</ele>
        <time>2024-07-23T08:08:03Z</time>
      </trkpt>
      <trkpt lat="44.70684" lon="1.33363">
        <ele>163</ele>
        <time>2024-07-23T08:08:37Z</time>
      </trkpt>
      <trkpt lat="44.70687" lon="1.33364">
        <ele>163</ele>
        <time>2024-07-23T08:08:38Z</time>
      </trkpt>
      <trkpt lat="44.70691" lon="1.33365">
        <ele>163</ele>
        <time>2024-07-23T08:08:39Z</time>
      </trkpt>
      <trkpt lat="44.70705" lon="1.33369">
        <ele>162.4</ele>
        <time>2024-07-23T08:08:44Z</time>
      </trkpt>
      <trkpt lat="44.70726" lon="1.33363">
        <ele>162</ele>
        <time>2024-07-23T08:08:48Z</time>
      </trkpt>
      <trkpt lat="44.7073" lon="1.33359">
        <ele>162</ele>
        <time>2024-07-23T08:08:49Z</time>
      </trkpt>
      <trkpt lat="44.7073" lon="1.33359">
        <ele>161.8</ele>
        <time>2024-07-23T08:08:50Z</time>
      </trkpt>
      <trkpt lat="44.70736" lon="1.33349">
        <ele>161.6</ele>
        <time>2024-07-23T08:08:51Z</time>
      </trkpt>
      <trkpt lat="44.70739" lon="1.33343">
        <ele>161.4</ele>
        <time>2024-07-23T08:08:52Z</time>
      </trkpt>
      <trkpt lat="44.7074" lon="1.33339">
        <ele>161</ele>
        <time>2024-07-23T08:08:53Z</time>
      </trkpt>
      <trkpt lat="44.70742" lon="1.33334">
        <ele>160.4</ele>
        <time>2024-07-23T08:08:54Z</time>
      </trkpt>
      <trkpt lat="44.70742" lon="1.33334">
        <ele>160</ele>
        <time>2024-07-23T08:08:55Z</time>
      </trkpt>
      <trkpt lat="44.70746" lon="1.33327">
        <ele>159.8</ele>
        <time>2024-07-23T08:08:56Z</time>
      </trkpt>
      <trkpt lat="44.70747" lon="1.33325">
        <ele>159.4</ele>
        <time>2024-07-23T08:08:57Z</time>
      </trkpt>
      <trkpt lat="44.70749" lon="1.33323">
        <ele>159.2</ele>
        <time>2024-07-23T08:08:58Z</time>
      </trkpt>
      <trkpt lat="44.70751" lon="1.33321">
        <ele>159</ele>
        <time>2024-07-23T08:08:59Z</time>
      </trkpt>
      <trkpt lat="44.70754" lon="1.33318">
        <ele>159</ele>
        <time>2024-07-23T08:09:00Z</time>
      </trkpt>
      <trkpt lat="44.70757" lon="1.33315">
        <ele>158.8</ele>
        <time>2024-07-23T08:09:01Z</time>
      </trkpt>
      <trkpt lat="44.70759" lon="1.33313">
        <ele>158.8</ele>
        <time>2024-07-23T08:09:02Z</time>
      </trkpt>
      <trkpt lat="44.70774" lon="1.33297">
        <ele>158.8</ele>
        <time>2024-07-23T08:09:09Z</time>
      </trkpt>
      <trkpt lat="44.70776" lon="1.33294">
        <ele>159</ele>
        <time>2024-07-23T08:09:10Z</time>
      </trkpt>
      <trkpt lat="44.70777" lon="1.3329">
        <ele>159</ele>
        <time>2024-07-23T08:09:11Z</time>
      </trkpt>
      <trkpt lat="44.70778" lon="1.33287">
        <ele>159</ele>
        <time>2024-07-23T08:09:12Z</time>
      </trkpt>
      <trkpt lat="44.70779" lon="1.33285">
        <ele>159.2</ele>
        <time>2024-07-23T08:09:13Z</time>
      </trkpt>
      <trkpt lat="44.7078" lon="1.33282">
        <ele>159.2</ele>
        <time>2024-07-23T08:09:14Z</time>
      </trkpt>
      <trkpt lat="44.70782" lon="1.3328">
        <ele>159.2</ele>
        <time>2024-07-23T08:09:15Z</time>
      </trkpt>
      <trkpt lat="44.70782" lon="1.3328">
        <ele>159.2</ele>
        <time>2024-07-23T08:09:16Z</time>
      </trkpt>
      <trkpt lat="44.70787" lon="1.33277">
        <ele>159.4</ele>
        <time>2024-07-23T08:09:17Z</time>
      </trkpt>
      <trkpt lat="44.7079" lon="1.33276">
        <ele>159.4</ele>
        <time>2024-07-23T08:09:18Z</time>
      </trkpt>
      <trkpt lat="44.70793" lon="1.33274">
        <ele>159.2</ele>
        <time>2024-07-23T08:09:19Z</time>
      </trkpt>
      <trkpt lat="44.70796" lon="1.33271">
        <ele>159.2</ele>
        <time>2024-07-23T08:09:20Z</time>
      </trkpt>
      <trkpt lat="44.70796" lon="1.33271">
        <ele>159.2</ele>
        <time>2024-07-23T08:09:21Z</time>
      </trkpt>
      <trkpt lat="44.70801" lon="1.33262">
        <ele>159</ele>
        <time>2024-07-23T08:09:22Z</time>
      </trkpt>
      <trkpt lat="44.70802" lon="1.33259">
        <ele>159</ele>
        <time>2024-07-23T08:09:23Z</time>
      </trkpt>
      <trkpt lat="44.70804" lon="1.33257">
        <ele>158.8</ele>
        <time>2024-07-23T08:09:24Z</time>
      </trkpt>
      <trkpt lat="44.70805" lon="1.33254">
        <ele>158.6</ele>
        <time>2024-07-23T08:09:25Z</time>
      </trkpt>
      <trkpt lat="44.70807" lon="1.33252">
        <ele>158.6</ele>
        <time>2024-07-23T08:09:26Z</time>
      </trkpt>
      <trkpt lat="44.70814" lon="1.33243">
        <ele>158.4</ele>
        <time>2024-07-23T08:09:29Z</time>
      </trkpt>
      <trkpt lat="44.70816" lon="1.33241">
        <ele>158.4</ele>
        <time>2024-07-23T08:09:30Z</time>
      </trkpt>
      <trkpt lat="44.70818" lon="1.33238">
        <ele>158.4</ele>
        <time>2024-07-23T08:09:31Z</time>
      </trkpt>
      <trkpt lat="44.7082" lon="1.33235">
        <ele>158.4</ele>
        <time>2024-07-23T08:09:32Z</time>
      </trkpt>
      <trkpt lat="44.70832" lon="1.33212">
        <ele>158.4</ele>
        <time>2024-07-23T08:09:38Z</time>
      </trkpt>
      <trkpt lat="44.70832" lon="1.33208">
        <ele>158.4</ele>
        <time>2024-07-23T08:09:39Z</time>
      </trkpt>
      <trkpt lat="44.70832" lon="1.33204">
        <ele>158.4</ele>
        <time>2024-07-23T08:09:40Z</time>
      </trkpt>
      <trkpt lat="44.70833" lon="1.332">
        <ele>158.4</ele>
        <time>2024-07-23T08:09:41Z</time>
      </trkpt>
      <trkpt lat="44.70833" lon="1.33195">
        <ele>158.4</ele>
        <time>2024-07-23T08:09:42Z</time>
      </trkpt>
      <trkpt lat="44.70833" lon="1.33185">
        <ele>158.4</ele>
        <time>2024-07-23T08:09:44Z</time>
      </trkpt>
      <trkpt lat="44.70833" lon="1.33178">
        <ele>158.4</ele>
        <time>2024-07-23T08:09:46Z</time>
      </trkpt>
      <trkpt lat="44.70833" lon="1.33173">
        <ele>158.4</ele>
        <time>2024-07-23T08:09:47Z</time>
      </trkpt>
      <trkpt lat="44.70833" lon="1.33169">
        <ele>158.2</ele>
        <time>2024-07-23T08:09:48Z</time>
      </trkpt>
      <trkpt lat="44.70833" lon="1.33165">
        <ele>158.2</ele>
        <time>2024-07-23T08:09:49Z</time>
      </trkpt>
      <trkpt lat="44.70833" lon="1.33161">
        <ele>158.2</ele>
        <time>2024-07-23T08:09:50Z</time>
      </trkpt>
      <trkpt lat="44.70832" lon="1.33158">
        <ele>158.2</ele>
        <time>2024-07-23T08:09:51Z</time>
      </trkpt>
      <trkpt lat="44.70832" lon="1.33156">
        <ele>158.4</ele>
        <time>2024-07-23T08:09:52Z</time>
      </trkpt>
      <trkpt lat="44.70832" lon="1.33152">
        <ele>158.4</ele>
        <time>2024-07-23T08:09:53Z</time>
      </trkpt>
      <trkpt lat="44.70833" lon="1.33149">
        <ele>158.6</ele>
        <time>2024-07-23T08:09:54Z</time>
      </trkpt>
      <trkpt lat="44.70834" lon="1.33146">
        <ele>158.6</ele>
        <time>2024-07-23T08:09:55Z</time>
      </trkpt>
      <trkpt lat="44.70836" lon="1.33142">
        <ele>158.6</ele>
        <time>2024-07-23T08:09:56Z</time>
      </trkpt>
      <trkpt lat="44.70836" lon="1.33142">
        <ele>158.8</ele>
        <time>2024-07-23T08:09:57Z</time>
      </trkpt>
      <trkpt lat="44.7084" lon="1.33133">
        <ele>158.8</ele>
        <time>2024-07-23T08:09:58Z</time>
      </trkpt>
      <trkpt lat="44.70843" lon="1.33118">
        <ele>159</ele>
        <time>2024-07-23T08:10:01Z</time>
      </trkpt>
      <trkpt lat="44.70844" lon="1.33114">
        <ele>159</ele>
        <time>2024-07-23T08:10:02Z</time>
      </trkpt>
      <trkpt lat="44.70851" lon="1.33082">
        <ele>158.6</ele>
        <time>2024-07-23T08:10:08Z</time>
      </trkpt>
      <trkpt lat="44.7085" lon="1.33056">
        <ele>158.4</ele>
        <time>2024-07-23T08:10:13Z</time>
      </trkpt>
      <trkpt lat="44.70847" lon="1.33006">
        <ele>158.2</ele>
        <time>2024-07-23T08:10:22Z</time>
      </trkpt>
      <trkpt lat="44.70841" lon="1.32967">
        <ele>158</ele>
        <time>2024-07-23T08:10:29Z</time>
      </trkpt>
      <trkpt lat="44.7084" lon="1.32962">
        <ele>158</ele>
        <time>2024-07-23T08:10:30Z</time>
      </trkpt>
      <trkpt lat="44.70839" lon="1.32951">
        <ele>157.8</ele>
        <time>2024-07-23T08:10:33Z</time>
      </trkpt>
      <trkpt lat="44.70836" lon="1.32939">
        <ele>157.8</ele>
        <time>2024-07-23T08:10:34Z</time>
      </trkpt>
      <trkpt lat="44.70835" lon="1.32934">
        <ele>157.8</ele>
        <time>2024-07-23T08:10:35Z</time>
      </trkpt>
      <trkpt lat="44.70832" lon="1.32925">
        <ele>157.8</ele>
        <time>2024-07-23T08:10:37Z</time>
      </trkpt>
      <trkpt lat="44.70831" lon="1.3292">
        <ele>157.8</ele>
        <time>2024-07-23T08:10:38Z</time>
      </trkpt>
      <trkpt lat="44.70829" lon="1.32891">
        <ele>158</ele>
        <time>2024-07-23T08:10:43Z</time>
      </trkpt>
      <trkpt lat="44.70829" lon="1.32884">
        <ele>158.2</ele>
        <time>2024-07-23T08:10:44Z</time>
      </trkpt>
      <trkpt lat="44.70827" lon="1.3285">
        <ele>158.2</ele>
        <time>2024-07-23T08:10:50Z</time>
      </trkpt>
      <trkpt lat="44.70825" lon="1.3284">
        <ele>158.2</ele>
        <time>2024-07-23T08:10:52Z</time>
      </trkpt>
      <trkpt lat="44.70823" lon="1.32834">
        <ele>158.2</ele>
        <time>2024-07-23T08:10:53Z</time>
      </trkpt>
      <trkpt lat="44.70819" lon="1.32822">
        <ele>158.2</ele>
        <time>2024-07-23T08:10:55Z</time>
      </trkpt>
      <trkpt lat="44.70807" lon="1.328">
        <ele>158</ele>
        <time>2024-07-23T08:10:59Z</time>
      </trkpt>
      <trkpt lat="44.70788" lon="1.32761">
        <ele>157.6</ele>
        <time>2024-07-23T08:11:06Z</time>
      </trkpt>
      <trkpt lat="44.70785" lon="1.3275">
        <ele>157.6</ele>
        <time>2024-07-23T08:11:08Z</time>
      </trkpt>
      <trkpt lat="44.70783" lon="1.32736">
        <ele>157.4</ele>
        <time>2024-07-23T08:11:10Z</time>
      </trkpt>
      <trkpt lat="44.70783" lon="1.32731">
        <ele>157.4</ele>
        <time>2024-07-23T08:11:11Z</time>
      </trkpt>
      <trkpt lat="44.70782" lon="1.32724">
        <ele>157.4</ele>
        <time>2024-07-23T08:11:12Z</time>
      </trkpt>
      <trkpt lat="44.70782" lon="1.32718">
        <ele>157.4</ele>
        <time>2024-07-23T08:11:13Z</time>
      </trkpt>
      <trkpt lat="44.70781" lon="1.32712">
        <ele>157.4</ele>
        <time>2024-07-23T08:11:14Z</time>
      </trkpt>
      <trkpt lat="44.7078" lon="1.32706">
        <ele>157.4</ele>
        <time>2024-07-23T08:11:15Z</time>
      </trkpt>
      <trkpt lat="44.70779" lon="1.327">
        <ele>157.4</ele>
        <time>2024-07-23T08:11:16Z</time>
      </trkpt>
      <trkpt lat="44.70778" lon="1.32695">
        <ele>157.4</ele>
        <time>2024-07-23T08:11:17Z</time>
      </trkpt>
      <trkpt lat="44.70776" lon="1.32688">
        <ele>157.4</ele>
        <time>2024-07-23T08:11:18Z</time>
      </trkpt>
      <trkpt lat="44.70776" lon="1.32688">
        <ele>157.4</ele>
        <time>2024-07-23T08:11:19Z</time>
      </trkpt>
      <trkpt lat="44.70769" lon="1.32665">
        <ele>157.4</ele>
        <time>2024-07-23T08:11:22Z</time>
      </trkpt>
      <trkpt lat="44.70764" lon="1.32628">
        <ele>157.4</ele>
        <time>2024-07-23T08:11:28Z</time>
      </trkpt>
      <trkpt lat="44.70765" lon="1.32584">
        <ele>157.6</ele>
        <time>2024-07-23T08:11:35Z</time>
      </trkpt>
      <trkpt lat="44.70765" lon="1.32579">
        <ele>157.6</ele>
        <time>2024-07-23T08:11:36Z</time>
      </trkpt>
      <trkpt lat="44.70765" lon="1.32573">
        <ele>157.8</ele>
        <time>2024-07-23T08:11:38Z</time>
      </trkpt>
      <trkpt lat="44.70765" lon="1.3256">
        <ele>157.8</ele>
        <time>2024-07-23T08:11:39Z</time>
      </trkpt>
      <trkpt lat="44.70765" lon="1.32554">
        <ele>157.6</ele>
        <time>2024-07-23T08:11:40Z</time>
      </trkpt>
      <trkpt lat="44.70765" lon="1.3255">
        <ele>157.6</ele>
        <time>2024-07-23T08:11:41Z</time>
      </trkpt>
      <trkpt lat="44.70766" lon="1.32544">
        <ele>158</ele>
        <time>2024-07-23T08:11:42Z</time>
      </trkpt>
      <trkpt lat="44.70766" lon="1.32538">
        <ele>158</ele>
        <time>2024-07-23T08:11:43Z</time>
      </trkpt>
      <trkpt lat="44.70766" lon="1.32532">
        <ele>158</ele>
        <time>2024-07-23T08:11:44Z</time>
      </trkpt>
      <trkpt lat="44.70766" lon="1.32526">
        <ele>158</ele>
        <time>2024-07-23T08:11:45Z</time>
      </trkpt>
      <trkpt lat="44.70766" lon="1.32521">
        <ele>158</ele>
        <time>2024-07-23T08:11:46Z</time>
      </trkpt>
      <trkpt lat="44.70767" lon="1.32516">
        <ele>158</ele>
        <time>2024-07-23T08:11:47Z</time>
      </trkpt>
      <trkpt lat="44.70767" lon="1.32511">
        <ele>158</ele>
        <time>2024-07-23T08:11:48Z</time>
      </trkpt>
      <trkpt lat="44.70767" lon="1.32505">
        <ele>158.2</ele>
        <time>2024-07-23T08:11:49Z</time>
      </trkpt>
      <trkpt lat="44.70767" lon="1.325">
        <ele>158.2</ele>
        <time>2024-07-23T08:11:50Z</time>
      </trkpt>
      <trkpt lat="44.70768" lon="1.32494">
        <ele>158</ele>
        <time>2024-07-23T08:11:51Z</time>
      </trkpt>
      <trkpt lat="44.70769" lon="1.32489">
        <ele>158.4</ele>
        <time>2024-07-23T08:11:52Z</time>
      </trkpt>
      <trkpt lat="44.70772" lon="1.32477">
        <ele>158.2</ele>
        <time>2024-07-23T08:11:54Z</time>
      </trkpt>
      <trkpt lat="44.70777" lon="1.32462">
        <ele>158.4</ele>
        <time>2024-07-23T08:11:57Z</time>
      </trkpt>
      <trkpt lat="44.70787" lon="1.32446">
        <ele>158.4</ele>
        <time>2024-07-23T08:12:00Z</time>
      </trkpt>
      <trkpt lat="44.70791" lon="1.32442">
        <ele>158.4</ele>
        <time>2024-07-23T08:12:01Z</time>
      </trkpt>
      <trkpt lat="44.70815" lon="1.32407">
        <ele>158</ele>
        <time>2024-07-23T08:12:09Z</time>
      </trkpt>
      <trkpt lat="44.70824" lon="1.32393">
        <ele>157.8</ele>
        <time>2024-07-23T08:12:12Z</time>
      </trkpt>
      <trkpt lat="44.70826" lon="1.32389">
        <ele>157.8</ele>
        <time>2024-07-23T08:12:13Z</time>
      </trkpt>
      <trkpt lat="44.70829" lon="1.32384">
        <ele>157.8</ele>
        <time>2024-07-23T08:12:14Z</time>
      </trkpt>
      <trkpt lat="44.70834" lon="1.32371">
        <ele>157.8</ele>
        <time>2024-07-23T08:12:16Z</time>
      </trkpt>
      <trkpt lat="44.70835" lon="1.32367">
        <ele>157.6</ele>
        <time>2024-07-23T08:12:17Z</time>
      </trkpt>
      <trkpt lat="44.70846" lon="1.32328">
        <ele>157.2</ele>
        <time>2024-07-23T08:12:25Z</time>
      </trkpt>
      <trkpt lat="44.70849" lon="1.32319">
        <ele>157.2</ele>
        <time>2024-07-23T08:12:26Z</time>
      </trkpt>
      <trkpt lat="44.7085" lon="1.32316">
        <ele>157.2</ele>
        <time>2024-07-23T08:12:27Z</time>
      </trkpt>
      <trkpt lat="44.70851" lon="1.32312">
        <ele>157.2</ele>
        <time>2024-07-23T08:12:28Z</time>
      </trkpt>
      <trkpt lat="44.70853" lon="1.32308">
        <ele>157.2</ele>
        <time>2024-07-23T08:12:29Z</time>
      </trkpt>
      <trkpt lat="44.70858" lon="1.32297">
        <ele>157</ele>
        <time>2024-07-23T08:12:33Z</time>
      </trkpt>
      <trkpt lat="44.70863" lon="1.32287">
        <ele>157</ele>
        <time>2024-07-23T08:12:34Z</time>
      </trkpt>
      <trkpt lat="44.70868" lon="1.32277">
        <ele>156.8</ele>
        <time>2024-07-23T08:12:37Z</time>
      </trkpt>
      <trkpt lat="44.7087" lon="1.32274">
        <ele>156.8</ele>
        <time>2024-07-23T08:12:38Z</time>
      </trkpt>
      <trkpt lat="44.70871" lon="1.32271">
        <ele>156.8</ele>
        <time>2024-07-23T08:12:39Z</time>
      </trkpt>
      <trkpt lat="44.70873" lon="1.32268">
        <ele>156.6</ele>
        <time>2024-07-23T08:12:40Z</time>
      </trkpt>
      <trkpt lat="44.70874" lon="1.32266">
        <ele>156.4</ele>
        <time>2024-07-23T08:12:41Z</time>
      </trkpt>
      <trkpt lat="44.70875" lon="1.32264">
        <ele>156.4</ele>
        <time>2024-07-23T08:12:42Z</time>
      </trkpt>
      <trkpt lat="44.7088" lon="1.32257">
        <ele>156.2</ele>
        <time>2024-07-23T08:12:45Z</time>
      </trkpt>
      <trkpt lat="44.70882" lon="1.32255">
        <ele>156.2</ele>
        <time>2024-07-23T08:12:46Z</time>
      </trkpt>
      <trkpt lat="44.70884" lon="1.32253">
        <ele>156.2</ele>
        <time>2024-07-23T08:12:47Z</time>
      </trkpt>
      <trkpt lat="44.70885" lon="1.32251">
        <ele>156</ele>
        <time>2024-07-23T08:12:48Z</time>
      </trkpt>
      <trkpt lat="44.70896" lon="1.32238">
        <ele>155.4</ele>
        <time>2024-07-23T08:12:54Z</time>
      </trkpt>
      <trkpt lat="44.70915" lon="1.32225">
        <ele>155.4</ele>
        <time>2024-07-23T08:13:01Z</time>
      </trkpt>
      <trkpt lat="44.7094" lon="1.32206">
        <ele>155.4</ele>
        <time>2024-07-23T08:13:09Z</time>
      </trkpt>
      <trkpt lat="44.70957" lon="1.32189">
        <ele>155.2</ele>
        <time>2024-07-23T08:13:15Z</time>
      </trkpt>
      <trkpt lat="44.70978" lon="1.32164">
        <ele>155</ele>
        <time>2024-07-23T08:13:22Z</time>
      </trkpt>
      <trkpt lat="44.7098" lon="1.32161">
        <ele>155</ele>
        <time>2024-07-23T08:13:23Z</time>
      </trkpt>
      <trkpt lat="44.70985" lon="1.32153">
        <ele>154.8</ele>
        <time>2024-07-23T08:13:25Z</time>
      </trkpt>
      <trkpt lat="44.70988" lon="1.32149">
        <ele>154.8</ele>
        <time>2024-07-23T08:13:26Z</time>
      </trkpt>
      <trkpt lat="44.70989" lon="1.32146">
        <ele>154.8</ele>
        <time>2024-07-23T08:13:27Z</time>
      </trkpt>
      <trkpt lat="44.70998" lon="1.32131">
        <ele>154.8</ele>
        <time>2024-07-23T08:13:31Z</time>
      </trkpt>
      <trkpt lat="44.71" lon="1.32127">
        <ele>154.8</ele>
        <time>2024-07-23T08:13:32Z</time>
      </trkpt>
      <trkpt lat="44.71001" lon="1.32124">
        <ele>154.8</ele>
        <time>2024-07-23T08:13:33Z</time>
      </trkpt>
      <trkpt lat="44.71012" lon="1.32088">
        <ele>155.4</ele>
        <time>2024-07-23T08:13:40Z</time>
      </trkpt>
      <trkpt lat="44.71016" lon="1.32048">
        <ele>155.8</ele>
        <time>2024-07-23T08:13:48Z</time>
      </trkpt>
      <trkpt lat="44.71016" lon="1.32044">
        <ele>155.8</ele>
        <time>2024-07-23T08:13:49Z</time>
      </trkpt>
      <trkpt lat="44.71017" lon="1.32038">
        <ele>155.8</ele>
        <time>2024-07-23T08:13:50Z</time>
      </trkpt>
      <trkpt lat="44.71017" lon="1.32033">
        <ele>155.8</ele>
        <time>2024-07-23T08:13:51Z</time>
      </trkpt>
      <trkpt lat="44.71016" lon="1.32029">
        <ele>155.8</ele>
        <time>2024-07-23T08:13:52Z</time>
      </trkpt>
      <trkpt lat="44.71015" lon="1.32013">
        <ele>156</ele>
        <time>2024-07-23T08:13:55Z</time>
      </trkpt>
      <trkpt lat="44.71015" lon="1.32004">
        <ele>156.4</ele>
        <time>2024-07-23T08:13:57Z</time>
      </trkpt>
      <trkpt lat="44.71013" lon="1.31994">
        <ele>156.4</ele>
        <time>2024-07-23T08:13:59Z</time>
      </trkpt>
      <trkpt lat="44.71012" lon="1.3199">
        <ele>156.4</ele>
        <time>2024-07-23T08:14:00Z</time>
      </trkpt>
      <trkpt lat="44.71011" lon="1.31985">
        <ele>156.4</ele>
        <time>2024-07-23T08:14:01Z</time>
      </trkpt>
      <trkpt lat="44.71008" lon="1.31978">
        <ele>156.6</ele>
        <time>2024-07-23T08:14:03Z</time>
      </trkpt>
      <trkpt lat="44.71006" lon="1.31973">
        <ele>156.6</ele>
        <time>2024-07-23T08:14:04Z</time>
      </trkpt>
      <trkpt lat="44.71004" lon="1.31969">
        <ele>156.6</ele>
        <time>2024-07-23T08:14:05Z</time>
      </trkpt>
      <trkpt lat="44.71003" lon="1.31966">
        <ele>156.6</ele>
        <time>2024-07-23T08:14:06Z</time>
      </trkpt>
      <trkpt lat="44.70992" lon="1.31937">
        <ele>156.6</ele>
        <time>2024-07-23T08:14:12Z</time>
      </trkpt>
      <trkpt lat="44.7099" lon="1.31915">
        <ele>156.6</ele>
        <time>2024-07-23T08:14:16Z</time>
      </trkpt>
      <trkpt lat="44.70988" lon="1.31896">
        <ele>156.6</ele>
        <time>2024-07-23T08:14:20Z</time>
      </trkpt>
      <trkpt lat="44.70988" lon="1.31893">
        <ele>156.6</ele>
        <time>2024-07-23T08:14:21Z</time>
      </trkpt>
      <trkpt lat="44.70986" lon="1.31888">
        <ele>156.8</ele>
        <time>2024-07-23T08:14:22Z</time>
      </trkpt>
      <trkpt lat="44.70985" lon="1.31883">
        <ele>156.8</ele>
        <time>2024-07-23T08:14:23Z</time>
      </trkpt>
      <trkpt lat="44.70984" lon="1.31879">
        <ele>156.8</ele>
        <time>2024-07-23T08:14:24Z</time>
      </trkpt>
      <trkpt lat="44.70982" lon="1.31876">
        <ele>157</ele>
        <time>2024-07-23T08:14:25Z</time>
      </trkpt>
      <trkpt lat="44.70981" lon="1.31872">
        <ele>157</ele>
        <time>2024-07-23T08:14:26Z</time>
      </trkpt>
      <trkpt lat="44.70979" lon="1.31869">
        <ele>157</ele>
        <time>2024-07-23T08:14:27Z</time>
      </trkpt>
      <trkpt lat="44.70978" lon="1.31865">
        <ele>157.2</ele>
        <time>2024-07-23T08:14:28Z</time>
      </trkpt>
      <trkpt lat="44.70976" lon="1.31861">
        <ele>157.2</ele>
        <time>2024-07-23T08:14:29Z</time>
      </trkpt>
      <trkpt lat="44.70975" lon="1.31858">
        <ele>157.2</ele>
        <time>2024-07-23T08:14:30Z</time>
      </trkpt>
      <trkpt lat="44.70973" lon="1.31854">
        <ele>157.2</ele>
        <time>2024-07-23T08:14:31Z</time>
      </trkpt>
      <trkpt lat="44.70972" lon="1.3185">
        <ele>157.4</ele>
        <time>2024-07-23T08:14:32Z</time>
      </trkpt>
      <trkpt lat="44.70971" lon="1.31846">
        <ele>157.4</ele>
        <time>2024-07-23T08:14:33Z</time>
      </trkpt>
      <trkpt lat="44.7097" lon="1.31843">
        <ele>157.6</ele>
        <time>2024-07-23T08:14:34Z</time>
      </trkpt>
      <trkpt lat="44.70969" lon="1.3184">
        <ele>157.6</ele>
        <time>2024-07-23T08:14:35Z</time>
      </trkpt>
      <trkpt lat="44.70969" lon="1.31836">
        <ele>157.8</ele>
        <time>2024-07-23T08:14:36Z</time>
      </trkpt>
      <trkpt lat="44.70969" lon="1.31832">
        <ele>158</ele>
        <time>2024-07-23T08:14:37Z</time>
      </trkpt>
      <trkpt lat="44.70967" lon="1.31828">
        <ele>158.4</ele>
        <time>2024-07-23T08:14:38Z</time>
      </trkpt>
      <trkpt lat="44.70967" lon="1.31825">
        <ele>158.6</ele>
        <time>2024-07-23T08:14:39Z</time>
      </trkpt>
      <trkpt lat="44.70967" lon="1.31821">
        <ele>158.8</ele>
        <time>2024-07-23T08:14:40Z</time>
      </trkpt>
      <trkpt lat="44.70968" lon="1.31817">
        <ele>158.8</ele>
        <time>2024-07-23T08:14:41Z</time>
      </trkpt>
      <trkpt lat="44.70973" lon="1.31785">
        <ele>158.8</ele>
        <time>2024-07-23T08:14:48Z</time>
      </trkpt>
      <trkpt lat="44.70974" lon="1.31759">
        <ele>158.6</ele>
        <time>2024-07-23T08:14:53Z</time>
      </trkpt>
      <trkpt lat="44.70971" lon="1.31722">
        <ele>158</ele>
        <time>2024-07-23T08:15:00Z</time>
      </trkpt>
      <trkpt lat="44.70969" lon="1.3171">
        <ele>157.8</ele>
        <time>2024-07-23T08:15:02Z</time>
      </trkpt>
      <trkpt lat="44.70962" lon="1.31673">
        <ele>157.4</ele>
        <time>2024-07-23T08:15:08Z</time>
      </trkpt>
      <trkpt lat="44.70958" lon="1.3166">
        <ele>157.2</ele>
        <time>2024-07-23T08:15:10Z</time>
      </trkpt>
      <trkpt lat="44.70949" lon="1.31622">
        <ele>156.6</ele>
        <time>2024-07-23T08:15:15Z</time>
      </trkpt>
      <trkpt lat="44.70948" lon="1.31607">
        <ele>156.2</ele>
        <time>2024-07-23T08:15:17Z</time>
      </trkpt>
      <trkpt lat="44.70948" lon="1.31599">
        <ele>156</ele>
        <time>2024-07-23T08:15:18Z</time>
      </trkpt>
      <trkpt lat="44.70947" lon="1.3158">
        <ele>155.8</ele>
        <time>2024-07-23T08:15:21Z</time>
      </trkpt>
      <trkpt lat="44.70946" lon="1.31566">
        <ele>155.6</ele>
        <time>2024-07-23T08:15:23Z</time>
      </trkpt>
      <trkpt lat="44.70945" lon="1.3156">
        <ele>155.6</ele>
        <time>2024-07-23T08:15:24Z</time>
      </trkpt>
      <trkpt lat="44.70944" lon="1.31553">
        <ele>155.6</ele>
        <time>2024-07-23T08:15:25Z</time>
      </trkpt>
      <trkpt lat="44.70943" lon="1.31548">
        <ele>155.6</ele>
        <time>2024-07-23T08:15:26Z</time>
      </trkpt>
      <trkpt lat="44.70943" lon="1.31542">
        <ele>155.4</ele>
        <time>2024-07-23T08:15:27Z</time>
      </trkpt>
      <trkpt lat="44.70943" lon="1.31536">
        <ele>155.4</ele>
        <time>2024-07-23T08:15:28Z</time>
      </trkpt>
      <trkpt lat="44.70942" lon="1.31531">
        <ele>155.4</ele>
        <time>2024-07-23T08:15:29Z</time>
      </trkpt>
      <trkpt lat="44.70942" lon="1.31527">
        <ele>155.4</ele>
        <time>2024-07-23T08:15:30Z</time>
      </trkpt>
      <trkpt lat="44.70942" lon="1.31522">
        <ele>155.4</ele>
        <time>2024-07-23T08:15:31Z</time>
      </trkpt>
      <trkpt lat="44.70942" lon="1.31518">
        <ele>155.6</ele>
        <time>2024-07-23T08:15:32Z</time>
      </trkpt>
      <trkpt lat="44.70942" lon="1.31514">
        <ele>155.6</ele>
        <time>2024-07-23T08:15:33Z</time>
      </trkpt>
      <trkpt lat="44.70942" lon="1.3151">
        <ele>155.6</ele>
        <time>2024-07-23T08:15:34Z</time>
      </trkpt>
      <trkpt lat="44.70942" lon="1.31495">
        <ele>155.6</ele>
        <time>2024-07-23T08:15:37Z</time>
      </trkpt>
      <trkpt lat="44.70942" lon="1.31491">
        <ele>155.6</ele>
        <time>2024-07-23T08:15:38Z</time>
      </trkpt>
      <trkpt lat="44.70942" lon="1.31486">
        <ele>155.6</ele>
        <time>2024-07-23T08:15:39Z</time>
      </trkpt>
      <trkpt lat="44.70942" lon="1.31482">
        <ele>155.8</ele>
        <time>2024-07-23T08:15:40Z</time>
      </trkpt>
      <trkpt lat="44.70941" lon="1.31477">
        <ele>155.8</ele>
        <time>2024-07-23T08:15:41Z</time>
      </trkpt>
      <trkpt lat="44.70939" lon="1.31466">
        <ele>156.2</ele>
        <time>2024-07-23T08:15:44Z</time>
      </trkpt>
      <trkpt lat="44.70938" lon="1.31458">
        <ele>156.6</ele>
        <time>2024-07-23T08:15:46Z</time>
      </trkpt>
      <trkpt lat="44.70938" lon="1.31455">
        <ele>156.6</ele>
        <time>2024-07-23T08:15:47Z</time>
      </trkpt>
      <trkpt lat="44.70937" lon="1.3145">
        <ele>156.8</ele>
        <time>2024-07-23T08:15:48Z</time>
      </trkpt>
      <trkpt lat="44.70937" lon="1.31447">
        <ele>156.8</ele>
        <time>2024-07-23T08:15:49Z</time>
      </trkpt>
      <trkpt lat="44.70936" lon="1.31443">
        <ele>157</ele>
        <time>2024-07-23T08:15:50Z</time>
      </trkpt>
      <trkpt lat="44.70935" lon="1.3144">
        <ele>157</ele>
        <time>2024-07-23T08:15:51Z</time>
      </trkpt>
      <trkpt lat="44.70934" lon="1.31436">
        <ele>157.2</ele>
        <time>2024-07-23T08:15:52Z</time>
      </trkpt>
      <trkpt lat="44.70933" lon="1.31432">
        <ele>157.4</ele>
        <time>2024-07-23T08:15:53Z</time>
      </trkpt>
      <trkpt lat="44.70932" lon="1.31429">
        <ele>157.6</ele>
        <time>2024-07-23T08:15:54Z</time>
      </trkpt>
      <trkpt lat="44.70931" lon="1.31424">
        <ele>157.8</ele>
        <time>2024-07-23T08:15:55Z</time>
      </trkpt>
      <trkpt lat="44.7093" lon="1.31421">
        <ele>158</ele>
        <time>2024-07-23T08:15:56Z</time>
      </trkpt>
      <trkpt lat="44.70926" lon="1.31407">
        <ele>158.4</ele>
        <time>2024-07-23T08:15:59Z</time>
      </trkpt>
      <trkpt lat="44.70925" lon="1.31403">
        <ele>158.4</ele>
        <time>2024-07-23T08:16:00Z</time>
      </trkpt>
      <trkpt lat="44.70921" lon="1.31383">
        <ele>158.8</ele>
        <time>2024-07-23T08:16:04Z</time>
      </trkpt>
      <trkpt lat="44.7092" lon="1.31378">
        <ele>159</ele>
        <time>2024-07-23T08:16:05Z</time>
      </trkpt>
      <trkpt lat="44.70919" lon="1.31373">
        <ele>159</ele>
        <time>2024-07-23T08:16:06Z</time>
      </trkpt>
      <trkpt lat="44.70918" lon="1.31368">
        <ele>159.2</ele>
        <time>2024-07-23T08:16:07Z</time>
      </trkpt>
      <trkpt lat="44.70918" lon="1.31363">
        <ele>159.2</ele>
        <time>2024-07-23T08:16:08Z</time>
      </trkpt>
      <trkpt lat="44.70918" lon="1.31358">
        <ele>159.2</ele>
        <time>2024-07-23T08:16:09Z</time>
      </trkpt>
      <trkpt lat="44.70919" lon="1.31353">
        <ele>159.2</ele>
        <time>2024-07-23T08:16:10Z</time>
      </trkpt>
      <trkpt lat="44.70919" lon="1.31348">
        <ele>159.4</ele>
        <time>2024-07-23T08:16:11Z</time>
      </trkpt>
      <trkpt lat="44.70919" lon="1.31343">
        <ele>159.4</ele>
        <time>2024-07-23T08:16:12Z</time>
      </trkpt>
      <trkpt lat="44.70919" lon="1.31339">
        <ele>159.4</ele>
        <time>2024-07-23T08:16:13Z</time>
      </trkpt>
      <trkpt lat="44.70919" lon="1.31334">
        <ele>159.4</ele>
        <time>2024-07-23T08:16:14Z</time>
      </trkpt>
      <trkpt lat="44.70916" lon="1.31329">
        <ele>159.6</ele>
        <time>2024-07-23T08:16:15Z</time>
      </trkpt>
      <trkpt lat="44.70914" lon="1.31324">
        <ele>159.6</ele>
        <time>2024-07-23T08:16:16Z</time>
      </trkpt>
      <trkpt lat="44.70914" lon="1.3132">
        <ele>159.8</ele>
        <time>2024-07-23T08:16:17Z</time>
      </trkpt>
      <trkpt lat="44.70914" lon="1.31315">
        <ele>159.8</ele>
        <time>2024-07-23T08:16:18Z</time>
      </trkpt>
      <trkpt lat="44.70914" lon="1.3131">
        <ele>160</ele>
        <time>2024-07-23T08:16:19Z</time>
      </trkpt>
      <trkpt lat="44.70914" lon="1.31306">
        <ele>160</ele>
        <time>2024-07-23T08:16:20Z</time>
      </trkpt>
      <trkpt lat="44.70913" lon="1.31301">
        <ele>160</ele>
        <time>2024-07-23T08:16:21Z</time>
      </trkpt>
      <trkpt lat="44.70912" lon="1.31289">
        <ele>160.6</ele>
        <time>2024-07-23T08:16:24Z</time>
      </trkpt>
      <trkpt lat="44.70911" lon="1.31272">
        <ele>161.2</ele>
        <time>2024-07-23T08:16:28Z</time>
      </trkpt>
      <trkpt lat="44.70911" lon="1.31264">
        <ele>161.6</ele>
        <time>2024-07-23T08:16:30Z</time>
      </trkpt>
      <trkpt lat="44.70911" lon="1.31259">
        <ele>161.8</ele>
        <time>2024-07-23T08:16:31Z</time>
      </trkpt>
      <trkpt lat="44.70911" lon="1.31255">
        <ele>161.8</ele>
        <time>2024-07-23T08:16:32Z</time>
      </trkpt>
      <trkpt lat="44.7091" lon="1.31251">
        <ele>162</ele>
        <time>2024-07-23T08:16:33Z</time>
      </trkpt>
      <trkpt lat="44.7091" lon="1.31246">
        <ele>162</ele>
        <time>2024-07-23T08:16:34Z</time>
      </trkpt>
      <trkpt lat="44.7091" lon="1.31242">
        <ele>162.2</ele>
        <time>2024-07-23T08:16:35Z</time>
      </trkpt>
      <trkpt lat="44.7091" lon="1.31237">
        <ele>162.4</ele>
        <time>2024-07-23T08:16:36Z</time>
      </trkpt>
      <trkpt lat="44.7091" lon="1.31232">
        <ele>162.6</ele>
        <time>2024-07-23T08:16:37Z</time>
      </trkpt>
      <trkpt lat="44.7091" lon="1.31228">
        <ele>162.6</ele>
        <time>2024-07-23T08:16:38Z</time>
      </trkpt>
      <trkpt lat="44.70911" lon="1.31222">
        <ele>162.6</ele>
        <time>2024-07-23T08:16:39Z</time>
      </trkpt>
      <trkpt lat="44.70911" lon="1.31217">
        <ele>162.6</ele>
        <time>2024-07-23T08:16:40Z</time>
      </trkpt>
      <trkpt lat="44.7091" lon="1.31212">
        <ele>162.6</ele>
        <time>2024-07-23T08:16:41Z</time>
      </trkpt>
      <trkpt lat="44.7091" lon="1.31206">
        <ele>162.8</ele>
        <time>2024-07-23T08:16:42Z</time>
      </trkpt>
      <trkpt lat="44.7091" lon="1.31201">
        <ele>162.8</ele>
        <time>2024-07-23T08:16:43Z</time>
      </trkpt>
      <trkpt lat="44.70909" lon="1.31196">
        <ele>162.8</ele>
        <time>2024-07-23T08:16:44Z</time>
      </trkpt>
      <trkpt lat="44.70908" lon="1.31192">
        <ele>162.8</ele>
        <time>2024-07-23T08:16:45Z</time>
      </trkpt>
      <trkpt lat="44.70907" lon="1.31188">
        <ele>162.8</ele>
        <time>2024-07-23T08:16:46Z</time>
      </trkpt>
      <trkpt lat="44.70906" lon="1.31184">
        <ele>162.8</ele>
        <time>2024-07-23T08:16:47Z</time>
      </trkpt>
      <trkpt lat="44.70905" lon="1.31179">
        <ele>162.8</ele>
        <time>2024-07-23T08:16:48Z</time>
      </trkpt>
      <trkpt lat="44.70903" lon="1.31175">
        <ele>162.8</ele>
        <time>2024-07-23T08:16:49Z</time>
      </trkpt>
      <trkpt lat="44.70902" lon="1.3117">
        <ele>162.8</ele>
        <time>2024-07-23T08:16:50Z</time>
      </trkpt>
      <trkpt lat="44.70894" lon="1.31142">
        <ele>162.8</ele>
        <time>2024-07-23T08:16:56Z</time>
      </trkpt>
      <trkpt lat="44.70893" lon="1.31138">
        <ele>162.8</ele>
        <time>2024-07-23T08:16:57Z</time>
      </trkpt>
      <trkpt lat="44.70892" lon="1.31134">
        <ele>162.8</ele>
        <time>2024-07-23T08:16:58Z</time>
      </trkpt>
      <trkpt lat="44.70891" lon="1.3113">
        <ele>162.8</ele>
        <time>2024-07-23T08:16:59Z</time>
      </trkpt>
      <trkpt lat="44.70889" lon="1.31118">
        <ele>162.8</ele>
        <time>2024-07-23T08:17:02Z</time>
      </trkpt>
      <trkpt lat="44.70888" lon="1.31114">
        <ele>162.8</ele>
        <time>2024-07-23T08:17:03Z</time>
      </trkpt>
      <trkpt lat="44.70888" lon="1.31111">
        <ele>162.8</ele>
        <time>2024-07-23T08:17:04Z</time>
      </trkpt>
      <trkpt lat="44.70887" lon="1.31105">
        <ele>162.6</ele>
        <time>2024-07-23T08:17:05Z</time>
      </trkpt>
      <trkpt lat="44.70886" lon="1.31101">
        <ele>162.6</ele>
        <time>2024-07-23T08:17:06Z</time>
      </trkpt>
      <trkpt lat="44.70885" lon="1.31097">
        <ele>162.6</ele>
        <time>2024-07-23T08:17:07Z</time>
      </trkpt>
      <trkpt lat="44.70881" lon="1.31072">
        <ele>162.6</ele>
        <time>2024-07-23T08:17:13Z</time>
      </trkpt>
      <trkpt lat="44.70881" lon="1.31045">
        <ele>162.6</ele>
        <time>2024-07-23T08:17:19Z</time>
      </trkpt>
      <trkpt lat="44.70881" lon="1.31005">
        <ele>162.6</ele>
        <time>2024-07-23T08:17:27Z</time>
      </trkpt>
      <trkpt lat="44.70881" lon="1.30988">
        <ele>162.8</ele>
        <time>2024-07-23T08:17:31Z</time>
      </trkpt>
      <trkpt lat="44.70881" lon="1.30984">
        <ele>162.8</ele>
        <time>2024-07-23T08:17:32Z</time>
      </trkpt>
      <trkpt lat="44.70881" lon="1.30979">
        <ele>163</ele>
        <time>2024-07-23T08:17:33Z</time>
      </trkpt>
      <trkpt lat="44.70881" lon="1.30976">
        <ele>163</ele>
        <time>2024-07-23T08:17:34Z</time>
      </trkpt>
      <trkpt lat="44.7088" lon="1.30972">
        <ele>163</ele>
        <time>2024-07-23T08:17:35Z</time>
      </trkpt>
      <trkpt lat="44.7088" lon="1.30967">
        <ele>163.2</ele>
        <time>2024-07-23T08:17:36Z</time>
      </trkpt>
      <trkpt lat="44.7088" lon="1.30963">
        <ele>163.2</ele>
        <time>2024-07-23T08:17:37Z</time>
      </trkpt>
      <trkpt lat="44.70879" lon="1.30959">
        <ele>163.4</ele>
        <time>2024-07-23T08:17:38Z</time>
      </trkpt>
      <trkpt lat="44.70878" lon="1.30955">
        <ele>163.6</ele>
        <time>2024-07-23T08:17:39Z</time>
      </trkpt>
      <trkpt lat="44.70877" lon="1.30949">
        <ele>163.6</ele>
        <time>2024-07-23T08:17:40Z</time>
      </trkpt>
      <trkpt lat="44.70877" lon="1.30941">
        <ele>163.8</ele>
        <time>2024-07-23T08:17:42Z</time>
      </trkpt>
      <trkpt lat="44.70875" lon="1.30931">
        <ele>164</ele>
        <time>2024-07-23T08:17:45Z</time>
      </trkpt>
      <trkpt lat="44.70873" lon="1.30917">
        <ele>164.4</ele>
        <time>2024-07-23T08:17:49Z</time>
      </trkpt>
      <trkpt lat="44.70872" lon="1.30914">
        <ele>164.4</ele>
        <time>2024-07-23T08:17:50Z</time>
      </trkpt>
      <trkpt lat="44.70872" lon="1.3091">
        <ele>164.6</ele>
        <time>2024-07-23T08:17:51Z</time>
      </trkpt>
      <trkpt lat="44.70872" lon="1.30907">
        <ele>164.8</ele>
        <time>2024-07-23T08:17:52Z</time>
      </trkpt>
      <trkpt lat="44.70871" lon="1.30905">
        <ele>165</ele>
        <time>2024-07-23T08:17:53Z</time>
      </trkpt>
      <trkpt lat="44.70871" lon="1.30903">
        <ele>165</ele>
        <time>2024-07-23T08:17:54Z</time>
      </trkpt>
      <trkpt lat="44.70871" lon="1.309">
        <ele>165.2</ele>
        <time>2024-07-23T08:17:55Z</time>
      </trkpt>
      <trkpt lat="44.7087" lon="1.30899">
        <ele>165.4</ele>
        <time>2024-07-23T08:17:56Z</time>
      </trkpt>
      <trkpt lat="44.7087" lon="1.30898">
        <ele>165.6</ele>
        <time>2024-07-23T08:17:57Z</time>
      </trkpt>
      <trkpt lat="44.7087" lon="1.30897">
        <ele>165.8</ele>
        <time>2024-07-23T08:17:58Z</time>
      </trkpt>
      <trkpt lat="44.7087" lon="1.30896">
        <ele>166</ele>
        <time>2024-07-23T08:17:59Z</time>
      </trkpt>
      <trkpt lat="44.7087" lon="1.30896">
        <ele>166.2</ele>
        <time>2024-07-23T08:18:00Z</time>
      </trkpt>
      <trkpt lat="44.70871" lon="1.3089">
        <ele>166.4</ele>
        <time>2024-07-23T08:18:18Z</time>
      </trkpt>
      <trkpt lat="44.70874" lon="1.30878">
        <ele>166.2</ele>
        <time>2024-07-23T08:18:22Z</time>
      </trkpt>
      <trkpt lat="44.70875" lon="1.30876">
        <ele>166</ele>
        <time>2024-07-23T08:18:23Z</time>
      </trkpt>
      <trkpt lat="44.70876" lon="1.30874">
        <ele>166</ele>
        <time>2024-07-23T08:18:24Z</time>
      </trkpt>
      <trkpt lat="44.70876" lon="1.30872">
        <ele>165.8</ele>
        <time>2024-07-23T08:18:25Z</time>
      </trkpt>
      <trkpt lat="44.70877" lon="1.30871">
        <ele>165.6</ele>
        <time>2024-07-23T08:18:26Z</time>
      </trkpt>
      <trkpt lat="44.70877" lon="1.30871">
        <ele>165.4</ele>
        <time>2024-07-23T08:18:27Z</time>
      </trkpt>
      <trkpt lat="44.70877" lon="1.30871">
        <ele>165.4</ele>
        <time>2024-07-23T08:18:28Z</time>
      </trkpt>
      <trkpt lat="44.70878" lon="1.30864">
        <ele>163.4</ele>
        <time>2024-07-23T08:18:59Z</time>
      </trkpt>
      <trkpt lat="44.7088" lon="1.30847">
        <ele>163.4</ele>
        <time>2024-07-23T08:19:01Z</time>
      </trkpt>
      <trkpt lat="44.70879" lon="1.30839">
        <ele>163.4</ele>
        <time>2024-07-23T08:19:02Z</time>
      </trkpt>
      <trkpt lat="44.70878" lon="1.30836">
        <ele>163.2</ele>
        <time>2024-07-23T08:19:03Z</time>
      </trkpt>
      <trkpt lat="44.70877" lon="1.30832">
        <ele>163</ele>
        <time>2024-07-23T08:19:04Z</time>
      </trkpt>
      <trkpt lat="44.70876" lon="1.3083">
        <ele>162.8</ele>
        <time>2024-07-23T08:19:05Z</time>
      </trkpt>
      <trkpt lat="44.70874" lon="1.30828">
        <ele>163</ele>
        <time>2024-07-23T08:19:06Z</time>
      </trkpt>
      <trkpt lat="44.70873" lon="1.30827">
        <ele>162.8</ele>
        <time>2024-07-23T08:19:07Z</time>
      </trkpt>
      <trkpt lat="44.70872" lon="1.30827">
        <ele>162.8</ele>
        <time>2024-07-23T08:19:08Z</time>
      </trkpt>
      <trkpt lat="44.70872" lon="1.30827">
        <ele>162.8</ele>
        <time>2024-07-23T08:19:09Z</time>
      </trkpt>
      <trkpt lat="44.70872" lon="1.30827">
        <ele>162.8</ele>
        <time>2024-07-23T08:19:10Z</time>
      </trkpt>
      <trkpt lat="44.70872" lon="1.30827">
        <ele>162.8</ele>
        <time>2024-07-23T08:19:11Z</time>
      </trkpt>
      <trkpt lat="44.70874" lon="1.30831">
        <ele>163.4</ele>
        <time>2024-07-23T08:23:18Z</time>
      </trkpt>
      <trkpt lat="44.70876" lon="1.30833">
        <ele>163.4</ele>
        <time>2024-07-23T08:23:19Z</time>
      </trkpt>
      <trkpt lat="44.70877" lon="1.30834">
        <ele>163.4</ele>
        <time>2024-07-23T08:23:20Z</time>
      </trkpt>
      <trkpt lat="44.70878" lon="1.30836">
        <ele>163.4</ele>
        <time>2024-07-23T08:23:21Z</time>
      </trkpt>
      <trkpt lat="44.70879" lon="1.30837">
        <ele>163.2</ele>
        <time>2024-07-23T08:23:22Z</time>
      </trkpt>
      <trkpt lat="44.70881" lon="1.30837">
        <ele>163.2</ele>
        <time>2024-07-23T08:23:23Z</time>
      </trkpt>
      <trkpt lat="44.70884" lon="1.30838">
        <ele>163.2</ele>
        <time>2024-07-23T08:23:24Z</time>
      </trkpt>
      <trkpt lat="44.70887" lon="1.30839">
        <ele>163.2</ele>
        <time>2024-07-23T08:23:25Z</time>
      </trkpt>
      <trkpt lat="44.70889" lon="1.30838">
        <ele>163</ele>
        <time>2024-07-23T08:23:26Z</time>
      </trkpt>
      <trkpt lat="44.70891" lon="1.30835">
        <ele>162.8</ele>
        <time>2024-07-23T08:23:27Z</time>
      </trkpt>
      <trkpt lat="44.70893" lon="1.30832">
        <ele>162.2</ele>
        <time>2024-07-23T08:23:28Z</time>
      </trkpt>
      <trkpt lat="44.70895" lon="1.3083">
        <ele>161</ele>
        <time>2024-07-23T08:23:29Z</time>
      </trkpt>
      <trkpt lat="44.70897" lon="1.3083">
        <ele>160.6</ele>
        <time>2024-07-23T08:23:30Z</time>
      </trkpt>
      <trkpt lat="44.70899" lon="1.30832">
        <ele>159.8</ele>
        <time>2024-07-23T08:23:31Z</time>
      </trkpt>
      <trkpt lat="44.709" lon="1.30836">
        <ele>159.2</ele>
        <time>2024-07-23T08:23:32Z</time>
      </trkpt>
      <trkpt lat="44.709" lon="1.30839">
        <ele>158.4</ele>
        <time>2024-07-23T08:23:33Z</time>
      </trkpt>
      <trkpt lat="44.70898" lon="1.30841">
        <ele>158.2</ele>
        <time>2024-07-23T08:23:34Z</time>
      </trkpt>
      <trkpt lat="44.70895" lon="1.30842">
        <ele>157</ele>
        <time>2024-07-23T08:23:36Z</time>
      </trkpt>
      <trkpt lat="44.70894" lon="1.30843">
        <ele>156.8</ele>
        <time>2024-07-23T08:23:37Z</time>
      </trkpt>
      <trkpt lat="44.70893" lon="1.30845">
        <ele>156.6</ele>
        <time>2024-07-23T08:23:38Z</time>
      </trkpt>
      <trkpt lat="44.70892" lon="1.30847">
        <ele>156.4</ele>
        <time>2024-07-23T08:23:39Z</time>
      </trkpt>
      <trkpt lat="44.70892" lon="1.30848">
        <ele>156.4</ele>
        <time>2024-07-23T08:23:40Z</time>
      </trkpt>
      <trkpt lat="44.70892" lon="1.3085">
        <ele>156.4</ele>
        <time>2024-07-23T08:23:41Z</time>
      </trkpt>
      <trkpt lat="44.70892" lon="1.30851">
        <ele>156.2</ele>
        <time>2024-07-23T08:23:42Z</time>
      </trkpt>
      <trkpt lat="44.70892" lon="1.30851">
        <ele>156.6</ele>
        <time>2024-07-23T08:23:43Z</time>
      </trkpt>
      <trkpt lat="44.70892" lon="1.30851">
        <ele>156.6</ele>
        <time>2024-07-23T08:23:44Z</time>
      </trkpt>
      <trkpt lat="44.70892" lon="1.30851">
        <ele>156.6</ele>
        <time>2024-07-23T08:23:45Z</time>
      </trkpt>
      <trkpt lat="44.70892" lon="1.30845">
        <ele>157.4</ele>
        <time>2024-07-23T08:34:06Z</time>
      </trkpt>
      <trkpt lat="44.70893" lon="1.30842">
        <ele>157.4</ele>
        <time>2024-07-23T08:34:07Z</time>
      </trkpt>
      <trkpt lat="44.70894" lon="1.30839">
        <ele>157.4</ele>
        <time>2024-07-23T08:34:08Z</time>
      </trkpt>
      <trkpt lat="44.70895" lon="1.30836">
        <ele>157.4</ele>
        <time>2024-07-23T08:34:09Z</time>
      </trkpt>
      <trkpt lat="44.70895" lon="1.30834">
        <ele>157.4</ele>
        <time>2024-07-23T08:34:10Z</time>
      </trkpt>
      <trkpt lat="44.70895" lon="1.30831">
        <ele>157.2</ele>
        <time>2024-07-23T08:34:11Z</time>
      </trkpt>
      <trkpt lat="44.70894" lon="1.30831">
        <ele>157.2</ele>
        <time>2024-07-23T08:34:12Z</time>
      </trkpt>
      <trkpt lat="44.70893" lon="1.30831">
        <ele>157</ele>
        <time>2024-07-23T08:34:13Z</time>
      </trkpt>
      <trkpt lat="44.70892" lon="1.30832">
        <ele>157</ele>
        <time>2024-07-23T08:34:14Z</time>
      </trkpt>
      <trkpt lat="44.70891" lon="1.30833">
        <ele>157</ele>
        <time>2024-07-23T08:34:15Z</time>
      </trkpt>
      <trkpt lat="44.70891" lon="1.30834">
        <ele>157</ele>
        <time>2024-07-23T08:34:16Z</time>
      </trkpt>
      <trkpt lat="44.7089" lon="1.30835">
        <ele>157</ele>
        <time>2024-07-23T08:34:17Z</time>
      </trkpt>
      <trkpt lat="44.70889" lon="1.30837">
        <ele>157</ele>
        <time>2024-07-23T08:34:18Z</time>
      </trkpt>
      <trkpt lat="44.70888" lon="1.30839">
        <ele>157</ele>
        <time>2024-07-23T08:34:19Z</time>
      </trkpt>
      <trkpt lat="44.70887" lon="1.3084">
        <ele>157</ele>
        <time>2024-07-23T08:34:20Z</time>
      </trkpt>
      <trkpt lat="44.70887" lon="1.30841">
        <ele>157</ele>
        <time>2024-07-23T08:34:21Z</time>
      </trkpt>
      <trkpt lat="44.70886" lon="1.30843">
        <ele>157.2</ele>
        <time>2024-07-23T08:34:22Z</time>
      </trkpt>
      <trkpt lat="44.70885" lon="1.30844">
        <ele>157.6</ele>
        <time>2024-07-23T08:34:23Z</time>
      </trkpt>
      <trkpt lat="44.70884" lon="1.30847">
        <ele>158</ele>
        <time>2024-07-23T08:34:25Z</time>
      </trkpt>
      <trkpt lat="44.70884" lon="1.30849">
        <ele>158.2</ele>
        <time>2024-07-23T08:34:26Z</time>
      </trkpt>
      <trkpt lat="44.70883" lon="1.3085">
        <ele>158.4</ele>
        <time>2024-07-23T08:34:27Z</time>
      </trkpt>
      <trkpt lat="44.70882" lon="1.30851">
        <ele>158.6</ele>
        <time>2024-07-23T08:34:28Z</time>
      </trkpt>
      <trkpt lat="44.70882" lon="1.30853">
        <ele>158.8</ele>
        <time>2024-07-23T08:34:29Z</time>
      </trkpt>
      <trkpt lat="44.70882" lon="1.30854">
        <ele>159</ele>
        <time>2024-07-23T08:34:30Z</time>
      </trkpt>
      <trkpt lat="44.70881" lon="1.30856">
        <ele>159.2</ele>
        <time>2024-07-23T08:34:31Z</time>
      </trkpt>
      <trkpt lat="44.70881" lon="1.30857">
        <ele>159.4</ele>
        <time>2024-07-23T08:34:32Z</time>
      </trkpt>
      <trkpt lat="44.7088" lon="1.30858">
        <ele>159.4</ele>
        <time>2024-07-23T08:34:33Z</time>
      </trkpt>
      <trkpt lat="44.70878" lon="1.30865">
        <ele>160.4</ele>
        <time>2024-07-23T08:34:37Z</time>
      </trkpt>
      <trkpt lat="44.70877" lon="1.30866">
        <ele>160.6</ele>
        <time>2024-07-23T08:34:38Z</time>
      </trkpt>
      <trkpt lat="44.70876" lon="1.30867">
        <ele>160.8</ele>
        <time>2024-07-23T08:34:39Z</time>
      </trkpt>
      <trkpt lat="44.70876" lon="1.30868">
        <ele>161</ele>
        <time>2024-07-23T08:34:40Z</time>
      </trkpt>
      <trkpt lat="44.70875" lon="1.3087">
        <ele>161.2</ele>
        <time>2024-07-23T08:34:41Z</time>
      </trkpt>
      <trkpt lat="44.70875" lon="1.30871">
        <ele>161.6</ele>
        <time>2024-07-23T08:34:42Z</time>
      </trkpt>
      <trkpt lat="44.70874" lon="1.30872">
        <ele>161.8</ele>
        <time>2024-07-23T08:34:43Z</time>
      </trkpt>
      <trkpt lat="44.70874" lon="1.30873">
        <ele>162</ele>
        <time>2024-07-23T08:34:44Z</time>
      </trkpt>
      <trkpt lat="44.70873" lon="1.30875">
        <ele>162</ele>
        <time>2024-07-23T08:34:45Z</time>
      </trkpt>
      <trkpt lat="44.70873" lon="1.30877">
        <ele>162.4</ele>
        <time>2024-07-23T08:34:46Z</time>
      </trkpt>
      <trkpt lat="44.70872" lon="1.30878">
        <ele>162.8</ele>
        <time>2024-07-23T08:34:47Z</time>
      </trkpt>
      <trkpt lat="44.70872" lon="1.30879">
        <ele>163.2</ele>
        <time>2024-07-23T08:34:48Z</time>
      </trkpt>
      <trkpt lat="44.70872" lon="1.30881">
        <ele>163.4</ele>
        <time>2024-07-23T08:34:49Z</time>
      </trkpt>
      <trkpt lat="44.70871" lon="1.30882">
        <ele>163.6</ele>
        <time>2024-07-23T08:34:50Z</time>
      </trkpt>
      <trkpt lat="44.70871" lon="1.30884">
        <ele>163.8</ele>
        <time>2024-07-23T08:34:51Z</time>
      </trkpt>
      <trkpt lat="44.70871" lon="1.30885">
        <ele>164</ele>
        <time>2024-07-23T08:34:52Z</time>
      </trkpt>
      <trkpt lat="44.7087" lon="1.30886">
        <ele>164.4</ele>
        <time>2024-07-23T08:34:53Z</time>
      </trkpt>
      <trkpt lat="44.70869" lon="1.30888">
        <ele>164.4</ele>
        <time>2024-07-23T08:34:54Z</time>
      </trkpt>
      <trkpt lat="44.70869" lon="1.30889">
        <ele>164.6</ele>
        <time>2024-07-23T08:34:55Z</time>
      </trkpt>
      <trkpt lat="44.70868" lon="1.3089">
        <ele>164.8</ele>
        <time>2024-07-23T08:34:56Z</time>
      </trkpt>
      <trkpt lat="44.70868" lon="1.30891">
        <ele>165</ele>
        <time>2024-07-23T08:34:57Z</time>
      </trkpt>
      <trkpt lat="44.70867" lon="1.30892">
        <ele>165.2</ele>
        <time>2024-07-23T08:34:58Z</time>
      </trkpt>
      <trkpt lat="44.70866" lon="1.30893">
        <ele>165.2</ele>
        <time>2024-07-23T08:34:59Z</time>
      </trkpt>
      <trkpt lat="44.70866" lon="1.30894">
        <ele>165.4</ele>
        <time>2024-07-23T08:35:00Z</time>
      </trkpt>
      <trkpt lat="44.70865" lon="1.30894">
        <ele>165.4</ele>
        <time>2024-07-23T08:35:01Z</time>
      </trkpt>
      <trkpt lat="44.70864" lon="1.30895">
        <ele>165.6</ele>
        <time>2024-07-23T08:35:02Z</time>
      </trkpt>
      <trkpt lat="44.70863" lon="1.30895">
        <ele>165.6</ele>
        <time>2024-07-23T08:35:03Z</time>
      </trkpt>
      <trkpt lat="44.70862" lon="1.30894">
        <ele>165.6</ele>
        <time>2024-07-23T08:35:04Z</time>
      </trkpt>
      <trkpt lat="44.70861" lon="1.30893">
        <ele>165.8</ele>
        <time>2024-07-23T08:35:05Z</time>
      </trkpt>
      <trkpt lat="44.7086" lon="1.30892">
        <ele>166</ele>
        <time>2024-07-23T08:35:06Z</time>
      </trkpt>
      <trkpt lat="44.70859" lon="1.30892">
        <ele>166.2</ele>
        <time>2024-07-23T08:35:07Z</time>
      </trkpt>
      <trkpt lat="44.70858" lon="1.30891">
        <ele>166.2</ele>
        <time>2024-07-23T08:35:08Z</time>
      </trkpt>
      <trkpt lat="44.70857" lon="1.30891">
        <ele>166.4</ele>
        <time>2024-07-23T08:35:09Z</time>
      </trkpt>
      <trkpt lat="44.70856" lon="1.3089">
        <ele>166.8</ele>
        <time>2024-07-23T08:35:10Z</time>
      </trkpt>
      <trkpt lat="44.70855" lon="1.30889">
        <ele>166.8</ele>
        <time>2024-07-23T08:35:11Z</time>
      </trkpt>
      <trkpt lat="44.70854" lon="1.30888">
        <ele>167</ele>
        <time>2024-07-23T08:35:12Z</time>
      </trkpt>
      <trkpt lat="44.70853" lon="1.30888">
        <ele>167</ele>
        <time>2024-07-23T08:35:13Z</time>
      </trkpt>
      <trkpt lat="44.70852" lon="1.30887">
        <ele>167.2</ele>
        <time>2024-07-23T08:35:14Z</time>
      </trkpt>
      <trkpt lat="44.70852" lon="1.30887">
        <ele>167.2</ele>
        <time>2024-07-23T08:35:15Z</time>
      </trkpt>
      <trkpt lat="44.7085" lon="1.30886">
        <ele>167.4</ele>
        <time>2024-07-23T08:35:16Z</time>
      </trkpt>
      <trkpt lat="44.7085" lon="1.30886">
        <ele>167.4</ele>
        <time>2024-07-23T08:35:17Z</time>
      </trkpt>
      <trkpt lat="44.70849" lon="1.30886">
        <ele>167.4</ele>
        <time>2024-07-23T08:35:18Z</time>
      </trkpt>
      <trkpt lat="44.70848" lon="1.30886">
        <ele>167.6</ele>
        <time>2024-07-23T08:35:19Z</time>
      </trkpt>
      <trkpt lat="44.70847" lon="1.30885">
        <ele>167.6</ele>
        <time>2024-07-23T08:35:20Z</time>
      </trkpt>
      <trkpt lat="44.70846" lon="1.30885">
        <ele>167.8</ele>
        <time>2024-07-23T08:35:21Z</time>
      </trkpt>
      <trkpt lat="44.70845" lon="1.30885">
        <ele>167.8</ele>
        <time>2024-07-23T08:35:22Z</time>
      </trkpt>
      <trkpt lat="44.70844" lon="1.30885">
        <ele>168</ele>
        <time>2024-07-23T08:35:23Z</time>
      </trkpt>
      <trkpt lat="44.70843" lon="1.30884">
        <ele>168.2</ele>
        <time>2024-07-23T08:35:24Z</time>
      </trkpt>
      <trkpt lat="44.70842" lon="1.30884">
        <ele>168.2</ele>
        <time>2024-07-23T08:35:25Z</time>
      </trkpt>
      <trkpt lat="44.70841" lon="1.30884">
        <ele>168.4</ele>
        <time>2024-07-23T08:35:26Z</time>
      </trkpt>
      <trkpt lat="44.7084" lon="1.30883">
        <ele>168.6</ele>
        <time>2024-07-23T08:35:27Z</time>
      </trkpt>
      <trkpt lat="44.7084" lon="1.30883">
        <ele>168.8</ele>
        <time>2024-07-23T08:35:28Z</time>
      </trkpt>
      <trkpt lat="44.70839" lon="1.30882">
        <ele>168.8</ele>
        <time>2024-07-23T08:35:29Z</time>
      </trkpt>
      <trkpt lat="44.70837" lon="1.30882">
        <ele>168.8</ele>
        <time>2024-07-23T08:35:30Z</time>
      </trkpt>
      <trkpt lat="44.70836" lon="1.30881">
        <ele>169</ele>
        <time>2024-07-23T08:35:31Z</time>
      </trkpt>
      <trkpt lat="44.70835" lon="1.30881">
        <ele>169</ele>
        <time>2024-07-23T08:35:32Z</time>
      </trkpt>
      <trkpt lat="44.70833" lon="1.30881">
        <ele>169</ele>
        <time>2024-07-23T08:35:33Z</time>
      </trkpt>
      <trkpt lat="44.70833" lon="1.30881">
        <ele>169</ele>
        <time>2024-07-23T08:35:34Z</time>
      </trkpt>
      <trkpt lat="44.70832" lon="1.30881">
        <ele>169.2</ele>
        <time>2024-07-23T08:35:35Z</time>
      </trkpt>
      <trkpt lat="44.70831" lon="1.30881">
        <ele>169.2</ele>
        <time>2024-07-23T08:35:36Z</time>
      </trkpt>
      <trkpt lat="44.70831" lon="1.3088">
        <ele>169.2</ele>
        <time>2024-07-23T08:35:37Z</time>
      </trkpt>
      <trkpt lat="44.7083" lon="1.30878">
        <ele>169.2</ele>
        <time>2024-07-23T08:35:38Z</time>
      </trkpt>
      <trkpt lat="44.70828" lon="1.30876">
        <ele>169.2</ele>
        <time>2024-07-23T08:35:39Z</time>
      </trkpt>
      <trkpt lat="44.70827" lon="1.30874">
        <ele>169.2</ele>
        <time>2024-07-23T08:35:40Z</time>
      </trkpt>
      <trkpt lat="44.70822" lon="1.30869">
        <ele>169.2</ele>
        <time>2024-07-23T08:35:42Z</time>
      </trkpt>
      <trkpt lat="44.70808" lon="1.3085">
        <ele>168.8</ele>
        <time>2024-07-23T08:35:48Z</time>
      </trkpt>
      <trkpt lat="44.70806" lon="1.30848">
        <ele>168.8</ele>
        <time>2024-07-23T08:35:49Z</time>
      </trkpt>
      <trkpt lat="44.70804" lon="1.30846">
        <ele>168.6</ele>
        <time>2024-07-23T08:35:50Z</time>
      </trkpt>
      <trkpt lat="44.70803" lon="1.30844">
        <ele>168.6</ele>
        <time>2024-07-23T08:35:51Z</time>
      </trkpt>
      <trkpt lat="44.70801" lon="1.30841">
        <ele>168.6</ele>
        <time>2024-07-23T08:35:52Z</time>
      </trkpt>
      <trkpt lat="44.70799" lon="1.30839">
        <ele>168.6</ele>
        <time>2024-07-23T08:35:53Z</time>
      </trkpt>
      <trkpt lat="44.70797" lon="1.30837">
        <ele>168.6</ele>
        <time>2024-07-23T08:35:54Z</time>
      </trkpt>
      <trkpt lat="44.70796" lon="1.30835">
        <ele>168.6</ele>
        <time>2024-07-23T08:35:55Z</time>
      </trkpt>
      <trkpt lat="44.70793" lon="1.30833">
        <ele>168.8</ele>
        <time>2024-07-23T08:35:57Z</time>
      </trkpt>
      <trkpt lat="44.70792" lon="1.30831">
        <ele>168.8</ele>
        <time>2024-07-23T08:35:58Z</time>
      </trkpt>
      <trkpt lat="44.70791" lon="1.3083">
        <ele>168.8</ele>
        <time>2024-07-23T08:35:59Z</time>
      </trkpt>
      <trkpt lat="44.7079" lon="1.30829">
        <ele>168.8</ele>
        <time>2024-07-23T08:36:00Z</time>
      </trkpt>
      <trkpt lat="44.70788" lon="1.30828">
        <ele>168.8</ele>
        <time>2024-07-23T08:36:01Z</time>
      </trkpt>
      <trkpt lat="44.70787" lon="1.30827">
        <ele>168.8</ele>
        <time>2024-07-23T08:36:02Z</time>
      </trkpt>
      <trkpt lat="44.70786" lon="1.30826">
        <ele>169</ele>
        <time>2024-07-23T08:36:03Z</time>
      </trkpt>
      <trkpt lat="44.70782" lon="1.30824">
        <ele>169.2</ele>
        <time>2024-07-23T08:36:07Z</time>
      </trkpt>
      <trkpt lat="44.70777" lon="1.30824">
        <ele>169.4</ele>
        <time>2024-07-23T08:36:10Z</time>
      </trkpt>
      <trkpt lat="44.70768" lon="1.30826">
        <ele>170.2</ele>
        <time>2024-07-23T08:36:15Z</time>
      </trkpt>
      <trkpt lat="44.70764" lon="1.30827">
        <ele>170.4</ele>
        <time>2024-07-23T08:36:17Z</time>
      </trkpt>
      <trkpt lat="44.70751" lon="1.30829">
        <ele>171</ele>
        <time>2024-07-23T08:36:24Z</time>
      </trkpt>
      <trkpt lat="44.7075" lon="1.30828">
        <ele>171.2</ele>
        <time>2024-07-23T08:36:25Z</time>
      </trkpt>
      <trkpt lat="44.70748" lon="1.30827">
        <ele>171.2</ele>
        <time>2024-07-23T08:36:26Z</time>
      </trkpt>
      <trkpt lat="44.70746" lon="1.30826">
        <ele>171.4</ele>
        <time>2024-07-23T08:36:27Z</time>
      </trkpt>
      <trkpt lat="44.70742" lon="1.30822">
        <ele>171.6</ele>
        <time>2024-07-23T08:36:29Z</time>
      </trkpt>
      <trkpt lat="44.70741" lon="1.30819">
        <ele>171.6</ele>
        <time>2024-07-23T08:36:30Z</time>
      </trkpt>
      <trkpt lat="44.7074" lon="1.30817">
        <ele>171.8</ele>
        <time>2024-07-23T08:36:31Z</time>
      </trkpt>
      <trkpt lat="44.70732" lon="1.30795">
        <ele>172.4</ele>
        <time>2024-07-23T08:36:38Z</time>
      </trkpt>
      <trkpt lat="44.70729" lon="1.30782">
        <ele>172.6</ele>
        <time>2024-07-23T08:36:42Z</time>
      </trkpt>
      <trkpt lat="44.70727" lon="1.30773">
        <ele>173.2</ele>
        <time>2024-07-23T08:36:45Z</time>
      </trkpt>
      <trkpt lat="44.70726" lon="1.30768">
        <ele>173.4</ele>
        <time>2024-07-23T08:36:47Z</time>
      </trkpt>
      <trkpt lat="44.70725" lon="1.30765">
        <ele>173.6</ele>
        <time>2024-07-23T08:36:48Z</time>
      </trkpt>
      <trkpt lat="44.70724" lon="1.30762">
        <ele>173.6</ele>
        <time>2024-07-23T08:36:49Z</time>
      </trkpt>
      <trkpt lat="44.70724" lon="1.30758">
        <ele>173.8</ele>
        <time>2024-07-23T08:36:50Z</time>
      </trkpt>
      <trkpt lat="44.70723" lon="1.30755">
        <ele>173.8</ele>
        <time>2024-07-23T08:36:51Z</time>
      </trkpt>
      <trkpt lat="44.70723" lon="1.30752">
        <ele>174</ele>
        <time>2024-07-23T08:36:52Z</time>
      </trkpt>
      <trkpt lat="44.70722" lon="1.30749">
        <ele>174</ele>
        <time>2024-07-23T08:36:53Z</time>
      </trkpt>
      <trkpt lat="44.70722" lon="1.30745">
        <ele>174</ele>
        <time>2024-07-23T08:36:54Z</time>
      </trkpt>
      <trkpt lat="44.70721" lon="1.30742">
        <ele>174.2</ele>
        <time>2024-07-23T08:36:55Z</time>
      </trkpt>
      <trkpt lat="44.70721" lon="1.30739">
        <ele>174.4</ele>
        <time>2024-07-23T08:36:56Z</time>
      </trkpt>
      <trkpt lat="44.70721" lon="1.30736">
        <ele>174.4</ele>
        <time>2024-07-23T08:36:57Z</time>
      </trkpt>
      <trkpt lat="44.7072" lon="1.30733">
        <ele>174.6</ele>
        <time>2024-07-23T08:36:58Z</time>
      </trkpt>
      <trkpt lat="44.7072" lon="1.3073">
        <ele>174.8</ele>
        <time>2024-07-23T08:36:59Z</time>
      </trkpt>
      <trkpt lat="44.70719" lon="1.30727">
        <ele>174.8</ele>
        <time>2024-07-23T08:37:00Z</time>
      </trkpt>
      <trkpt lat="44.70719" lon="1.30724">
        <ele>175</ele>
        <time>2024-07-23T08:37:01Z</time>
      </trkpt>
      <trkpt lat="44.70718" lon="1.30721">
        <ele>175</ele>
        <time>2024-07-23T08:37:02Z</time>
      </trkpt>
      <trkpt lat="44.70718" lon="1.30717">
        <ele>175.2</ele>
        <time>2024-07-23T08:37:03Z</time>
      </trkpt>
      <trkpt lat="44.70718" lon="1.30713">
        <ele>175.2</ele>
        <time>2024-07-23T08:37:04Z</time>
      </trkpt>
      <trkpt lat="44.70718" lon="1.30708">
        <ele>175.4</ele>
        <time>2024-07-23T08:37:05Z</time>
      </trkpt>
      <trkpt lat="44.7072" lon="1.30705">
        <ele>175.4</ele>
        <time>2024-07-23T08:37:06Z</time>
      </trkpt>
      <trkpt lat="44.7072" lon="1.307">
        <ele>175.4</ele>
        <time>2024-07-23T08:37:07Z</time>
      </trkpt>
      <trkpt lat="44.70721" lon="1.30696">
        <ele>175.6</ele>
        <time>2024-07-23T08:37:08Z</time>
      </trkpt>
      <trkpt lat="44.70721" lon="1.30692">
        <ele>175.6</ele>
        <time>2024-07-23T08:37:09Z</time>
      </trkpt>
      <trkpt lat="44.70722" lon="1.30687">
        <ele>175.6</ele>
        <time>2024-07-23T08:37:10Z</time>
      </trkpt>
      <trkpt lat="44.70722" lon="1.30682">
        <ele>175.6</ele>
        <time>2024-07-23T08:37:11Z</time>
      </trkpt>
      <trkpt lat="44.70722" lon="1.30677">
        <ele>175.6</ele>
        <time>2024-07-23T08:37:12Z</time>
      </trkpt>
      <trkpt lat="44.70721" lon="1.30672">
        <ele>175.6</ele>
        <time>2024-07-23T08:37:13Z</time>
      </trkpt>
      <trkpt lat="44.70721" lon="1.30662">
        <ele>175.6</ele>
        <time>2024-07-23T08:37:15Z</time>
      </trkpt>
      <trkpt lat="44.70719" lon="1.30633">
        <ele>175.2</ele>
        <time>2024-07-23T08:37:20Z</time>
      </trkpt>
      <trkpt lat="44.70716" lon="1.30591">
        <ele>174.8</ele>
        <time>2024-07-23T08:37:27Z</time>
      </trkpt>
      <trkpt lat="44.70717" lon="1.30581">
        <ele>174.6</ele>
        <time>2024-07-23T08:37:29Z</time>
      </trkpt>
      <trkpt lat="44.70716" lon="1.30575">
        <ele>174.6</ele>
        <time>2024-07-23T08:37:30Z</time>
      </trkpt>
      <trkpt lat="44.70716" lon="1.3057">
        <ele>174.6</ele>
        <time>2024-07-23T08:37:31Z</time>
      </trkpt>
      <trkpt lat="44.70714" lon="1.3056">
        <ele>174.6</ele>
        <time>2024-07-23T08:37:33Z</time>
      </trkpt>
      <trkpt lat="44.70714" lon="1.30556">
        <ele>174.6</ele>
        <time>2024-07-23T08:37:34Z</time>
      </trkpt>
      <trkpt lat="44.70714" lon="1.3055">
        <ele>174.6</ele>
        <time>2024-07-23T08:37:35Z</time>
      </trkpt>
      <trkpt lat="44.70715" lon="1.30543">
        <ele>174.6</ele>
        <time>2024-07-23T08:37:36Z</time>
      </trkpt>
      <trkpt lat="44.70714" lon="1.30537">
        <ele>174.6</ele>
        <time>2024-07-23T08:37:37Z</time>
      </trkpt>
      <trkpt lat="44.70714" lon="1.30532">
        <ele>174.8</ele>
        <time>2024-07-23T08:37:38Z</time>
      </trkpt>
      <trkpt lat="44.70714" lon="1.30527">
        <ele>174.8</ele>
        <time>2024-07-23T08:37:39Z</time>
      </trkpt>
      <trkpt lat="44.70715" lon="1.30516">
        <ele>174.6</ele>
        <time>2024-07-23T08:37:41Z</time>
      </trkpt>
      <trkpt lat="44.70718" lon="1.30495">
        <ele>174.4</ele>
        <time>2024-07-23T08:37:44Z</time>
      </trkpt>
      <trkpt lat="44.70719" lon="1.30488">
        <ele>174.4</ele>
        <time>2024-07-23T08:37:45Z</time>
      </trkpt>
      <trkpt lat="44.70719" lon="1.30483">
        <ele>174.2</ele>
        <time>2024-07-23T08:37:46Z</time>
      </trkpt>
      <trkpt lat="44.70721" lon="1.30476">
        <ele>174.2</ele>
        <time>2024-07-23T08:37:47Z</time>
      </trkpt>
      <trkpt lat="44.7072" lon="1.30471">
        <ele>174.2</ele>
        <time>2024-07-23T08:37:48Z</time>
      </trkpt>
      <trkpt lat="44.70721" lon="1.30465">
        <ele>174.2</ele>
        <time>2024-07-23T08:37:49Z</time>
      </trkpt>
      <trkpt lat="44.7072" lon="1.30459">
        <ele>174</ele>
        <time>2024-07-23T08:37:50Z</time>
      </trkpt>
      <trkpt lat="44.7072" lon="1.30454">
        <ele>174</ele>
        <time>2024-07-23T08:37:51Z</time>
      </trkpt>
      <trkpt lat="44.70717" lon="1.30446">
        <ele>174</ele>
        <time>2024-07-23T08:37:53Z</time>
      </trkpt>
      <trkpt lat="44.70716" lon="1.30441">
        <ele>174.2</ele>
        <time>2024-07-23T08:37:54Z</time>
      </trkpt>
      <trkpt lat="44.70717" lon="1.30436">
        <ele>174.2</ele>
        <time>2024-07-23T08:37:55Z</time>
      </trkpt>
      <trkpt lat="44.70718" lon="1.30431">
        <ele>174.2</ele>
        <time>2024-07-23T08:37:56Z</time>
      </trkpt>
      <trkpt lat="44.70717" lon="1.30425">
        <ele>174.2</ele>
        <time>2024-07-23T08:37:57Z</time>
      </trkpt>
      <trkpt lat="44.70717" lon="1.3042">
        <ele>174.4</ele>
        <time>2024-07-23T08:37:58Z</time>
      </trkpt>
      <trkpt lat="44.70721" lon="1.30402">
        <ele>174.4</ele>
        <time>2024-07-23T08:38:01Z</time>
      </trkpt>
      <trkpt lat="44.70721" lon="1.30394">
        <ele>174.4</ele>
        <time>2024-07-23T08:38:02Z</time>
      </trkpt>
      <trkpt lat="44.7072" lon="1.30387">
        <ele>174.4</ele>
        <time>2024-07-23T08:38:03Z</time>
      </trkpt>
      <trkpt lat="44.70719" lon="1.3038">
        <ele>174.4</ele>
        <time>2024-07-23T08:38:04Z</time>
      </trkpt>
      <trkpt lat="44.70718" lon="1.30373">
        <ele>174.2</ele>
        <time>2024-07-23T08:38:05Z</time>
      </trkpt>
      <trkpt lat="44.70719" lon="1.30366">
        <ele>174.2</ele>
        <time>2024-07-23T08:38:06Z</time>
      </trkpt>
      <trkpt lat="44.70719" lon="1.30356">
        <ele>174</ele>
        <time>2024-07-23T08:38:07Z</time>
      </trkpt>
      <trkpt lat="44.70723" lon="1.30341">
        <ele>173.8</ele>
        <time>2024-07-23T08:38:09Z</time>
      </trkpt>
      <trkpt lat="44.70724" lon="1.30334">
        <ele>173.6</ele>
        <time>2024-07-23T08:38:10Z</time>
      </trkpt>
      <trkpt lat="44.70726" lon="1.30317">
        <ele>173.2</ele>
        <time>2024-07-23T08:38:12Z</time>
      </trkpt>
      <trkpt lat="44.70726" lon="1.30301">
        <ele>172.8</ele>
        <time>2024-07-23T08:38:14Z</time>
      </trkpt>
      <trkpt lat="44.70726" lon="1.30294">
        <ele>172.6</ele>
        <time>2024-07-23T08:38:15Z</time>
      </trkpt>
      <trkpt lat="44.70727" lon="1.30287">
        <ele>172.4</ele>
        <time>2024-07-23T08:38:16Z</time>
      </trkpt>
      <trkpt lat="44.70725" lon="1.30273">
        <ele>172.4</ele>
        <time>2024-07-23T08:38:18Z</time>
      </trkpt>
      <trkpt lat="44.70725" lon="1.30267">
        <ele>172.2</ele>
        <time>2024-07-23T08:38:19Z</time>
      </trkpt>
      <trkpt lat="44.70724" lon="1.30261">
        <ele>172.2</ele>
        <time>2024-07-23T08:38:20Z</time>
      </trkpt>
      <trkpt lat="44.70727" lon="1.30254">
        <ele>171.8</ele>
        <time>2024-07-23T08:38:21Z</time>
      </trkpt>
      <trkpt lat="44.70727" lon="1.30248">
        <ele>172</ele>
        <time>2024-07-23T08:38:22Z</time>
      </trkpt>
      <trkpt lat="44.70728" lon="1.30241">
        <ele>171.8</ele>
        <time>2024-07-23T08:38:23Z</time>
      </trkpt>
      <trkpt lat="44.70731" lon="1.30219">
        <ele>171.4</ele>
        <time>2024-07-23T08:38:26Z</time>
      </trkpt>
      <trkpt lat="44.70732" lon="1.30211">
        <ele>171.2</ele>
        <time>2024-07-23T08:38:27Z</time>
      </trkpt>
      <trkpt lat="44.70731" lon="1.30177">
        <ele>170.8</ele>
        <time>2024-07-23T08:38:31Z</time>
      </trkpt>
      <trkpt lat="44.7073" lon="1.30138">
        <ele>170.4</ele>
        <time>2024-07-23T08:38:35Z</time>
      </trkpt>
      <trkpt lat="44.70729" lon="1.30127">
        <ele>170</ele>
        <time>2024-07-23T08:38:36Z</time>
      </trkpt>
      <trkpt lat="44.70724" lon="1.30107">
        <ele>169.4</ele>
        <time>2024-07-23T08:38:38Z</time>
      </trkpt>
      <trkpt lat="44.70722" lon="1.30097">
        <ele>169.2</ele>
        <time>2024-07-23T08:38:39Z</time>
      </trkpt>
      <trkpt lat="44.70717" lon="1.30087">
        <ele>168.8</ele>
        <time>2024-07-23T08:38:40Z</time>
      </trkpt>
      <trkpt lat="44.70711" lon="1.30077">
        <ele>167.8</ele>
        <time>2024-07-23T08:38:41Z</time>
      </trkpt>
      <trkpt lat="44.70706" lon="1.30068">
        <ele>167.6</ele>
        <time>2024-07-23T08:38:42Z</time>
      </trkpt>
      <trkpt lat="44.70694" lon="1.30047">
        <ele>166.6</ele>
        <time>2024-07-23T08:38:44Z</time>
      </trkpt>
      <trkpt lat="44.70688" lon="1.30036">
        <ele>166.2</ele>
        <time>2024-07-23T08:38:45Z</time>
      </trkpt>
      <trkpt lat="44.70676" lon="1.30015">
        <ele>164.4</ele>
        <time>2024-07-23T08:38:47Z</time>
      </trkpt>
      <trkpt lat="44.70669" lon="1.30005">
        <ele>163</ele>
        <time>2024-07-23T08:38:48Z</time>
      </trkpt>
      <trkpt lat="44.70655" lon="1.29982">
        <ele>161.2</ele>
        <time>2024-07-23T08:38:50Z</time>
      </trkpt>
      <trkpt lat="44.70648" lon="1.29971">
        <ele>160.8</ele>
        <time>2024-07-23T08:38:51Z</time>
      </trkpt>
      <trkpt lat="44.70641" lon="1.29959">
        <ele>160.2</ele>
        <time>2024-07-23T08:38:52Z</time>
      </trkpt>
      <trkpt lat="44.70628" lon="1.29936">
        <ele>159</ele>
        <time>2024-07-23T08:38:54Z</time>
      </trkpt>
      <trkpt lat="44.70621" lon="1.29924">
        <ele>158.2</ele>
        <time>2024-07-23T08:38:55Z</time>
      </trkpt>
      <trkpt lat="44.70614" lon="1.29914">
        <ele>157.6</ele>
        <time>2024-07-23T08:38:56Z</time>
      </trkpt>
      <trkpt lat="44.70607" lon="1.29903">
        <ele>156.4</ele>
        <time>2024-07-23T08:38:57Z</time>
      </trkpt>
      <trkpt lat="44.70596" lon="1.29882">
        <ele>154.6</ele>
        <time>2024-07-23T08:38:59Z</time>
      </trkpt>
      <trkpt lat="44.70591" lon="1.29871">
        <ele>154.2</ele>
        <time>2024-07-23T08:39:00Z</time>
      </trkpt>
      <trkpt lat="44.70587" lon="1.2986">
        <ele>153.8</ele>
        <time>2024-07-23T08:39:01Z</time>
      </trkpt>
      <trkpt lat="44.70584" lon="1.2985">
        <ele>152.8</ele>
        <time>2024-07-23T08:39:02Z</time>
      </trkpt>
      <trkpt lat="44.7058" lon="1.29839">
        <ele>152.4</ele>
        <time>2024-07-23T08:39:03Z</time>
      </trkpt>
      <trkpt lat="44.70578" lon="1.29829">
        <ele>152</ele>
        <time>2024-07-23T08:39:04Z</time>
      </trkpt>
      <trkpt lat="44.70576" lon="1.29818">
        <ele>152</ele>
        <time>2024-07-23T08:39:05Z</time>
      </trkpt>
      <trkpt lat="44.70575" lon="1.29808">
        <ele>151.6</ele>
        <time>2024-07-23T08:39:06Z</time>
      </trkpt>
      <trkpt lat="44.70575" lon="1.29797">
        <ele>151.4</ele>
        <time>2024-07-23T08:39:07Z</time>
      </trkpt>
      <trkpt lat="44.70575" lon="1.29787">
        <ele>151.2</ele>
        <time>2024-07-23T08:39:08Z</time>
      </trkpt>
      <trkpt lat="44.70576" lon="1.29777">
        <ele>150.8</ele>
        <time>2024-07-23T08:39:09Z</time>
      </trkpt>
      <trkpt lat="44.70577" lon="1.29767">
        <ele>150.8</ele>
        <time>2024-07-23T08:39:10Z</time>
      </trkpt>
      <trkpt lat="44.70577" lon="1.29758">
        <ele>150.4</ele>
        <time>2024-07-23T08:39:11Z</time>
      </trkpt>
      <trkpt lat="44.70578" lon="1.29749">
        <ele>150.2</ele>
        <time>2024-07-23T08:39:12Z</time>
      </trkpt>
      <trkpt lat="44.70579" lon="1.29741">
        <ele>150</ele>
        <time>2024-07-23T08:39:13Z</time>
      </trkpt>
      <trkpt lat="44.70581" lon="1.29733">
        <ele>149.8</ele>
        <time>2024-07-23T08:39:14Z</time>
      </trkpt>
      <trkpt lat="44.70582" lon="1.29725">
        <ele>149.8</ele>
        <time>2024-07-23T08:39:15Z</time>
      </trkpt>
      <trkpt lat="44.70583" lon="1.29719">
        <ele>149.6</ele>
        <time>2024-07-23T08:39:16Z</time>
      </trkpt>
      <trkpt lat="44.70584" lon="1.29712">
        <ele>149.6</ele>
        <time>2024-07-23T08:39:17Z</time>
      </trkpt>
      <trkpt lat="44.70586" lon="1.29705">
        <ele>149.6</ele>
        <time>2024-07-23T08:39:18Z</time>
      </trkpt>
      <trkpt lat="44.70587" lon="1.29698">
        <ele>149.6</ele>
        <time>2024-07-23T08:39:19Z</time>
      </trkpt>
      <trkpt lat="44.70589" lon="1.29691">
        <ele>149.6</ele>
        <time>2024-07-23T08:39:20Z</time>
      </trkpt>
      <trkpt lat="44.7059" lon="1.29685">
        <ele>149.6</ele>
        <time>2024-07-23T08:39:21Z</time>
      </trkpt>
      <trkpt lat="44.70591" lon="1.29678">
        <ele>149.4</ele>
        <time>2024-07-23T08:39:22Z</time>
      </trkpt>
      <trkpt lat="44.70592" lon="1.29672">
        <ele>149.4</ele>
        <time>2024-07-23T08:39:23Z</time>
      </trkpt>
      <trkpt lat="44.70594" lon="1.29655">
        <ele>149.6</ele>
        <time>2024-07-23T08:39:26Z</time>
      </trkpt>
      <trkpt lat="44.70595" lon="1.2965">
        <ele>149.4</ele>
        <time>2024-07-23T08:39:27Z</time>
      </trkpt>
      <trkpt lat="44.70595" lon="1.29645">
        <ele>149.6</ele>
        <time>2024-07-23T08:39:28Z</time>
      </trkpt>
      <trkpt lat="44.70595" lon="1.29641">
        <ele>149.6</ele>
        <time>2024-07-23T08:39:29Z</time>
      </trkpt>
      <trkpt lat="44.70595" lon="1.29637">
        <ele>149.6</ele>
        <time>2024-07-23T08:39:30Z</time>
      </trkpt>
      <trkpt lat="44.70594" lon="1.29634">
        <ele>149.6</ele>
        <time>2024-07-23T08:39:31Z</time>
      </trkpt>
      <trkpt lat="44.70594" lon="1.29631">
        <ele>149.8</ele>
        <time>2024-07-23T08:39:32Z</time>
      </trkpt>
      <trkpt lat="44.70594" lon="1.29629">
        <ele>150</ele>
        <time>2024-07-23T08:39:33Z</time>
      </trkpt>
      <trkpt lat="44.70593" lon="1.29627">
        <ele>150.2</ele>
        <time>2024-07-23T08:39:34Z</time>
      </trkpt>
      <trkpt lat="44.70594" lon="1.29625">
        <ele>150.6</ele>
        <time>2024-07-23T08:39:35Z</time>
      </trkpt>
      <trkpt lat="44.70594" lon="1.29622">
        <ele>150.6</ele>
        <time>2024-07-23T08:39:36Z</time>
      </trkpt>
      <trkpt lat="44.70594" lon="1.29619">
        <ele>151</ele>
        <time>2024-07-23T08:39:37Z</time>
      </trkpt>
      <trkpt lat="44.70594" lon="1.29617">
        <ele>151</ele>
        <time>2024-07-23T08:39:38Z</time>
      </trkpt>
      <trkpt lat="44.70595" lon="1.29615">
        <ele>151.2</ele>
        <time>2024-07-23T08:39:39Z</time>
      </trkpt>
      <trkpt lat="44.70596" lon="1.29613">
        <ele>151.4</ele>
        <time>2024-07-23T08:39:40Z</time>
      </trkpt>
      <trkpt lat="44.70597" lon="1.29611">
        <ele>151.8</ele>
        <time>2024-07-23T08:39:41Z</time>
      </trkpt>
      <trkpt lat="44.70597" lon="1.29609">
        <ele>152.2</ele>
        <time>2024-07-23T08:39:42Z</time>
      </trkpt>
      <trkpt lat="44.70598" lon="1.29607">
        <ele>152.2</ele>
        <time>2024-07-23T08:39:43Z</time>
      </trkpt>
      <trkpt lat="44.70598" lon="1.29605">
        <ele>152.4</ele>
        <time>2024-07-23T08:39:44Z</time>
      </trkpt>
      <trkpt lat="44.70599" lon="1.29604">
        <ele>152.6</ele>
        <time>2024-07-23T08:39:45Z</time>
      </trkpt>
      <trkpt lat="44.706" lon="1.29602">
        <ele>152.8</ele>
        <time>2024-07-23T08:39:46Z</time>
      </trkpt>
      <trkpt lat="44.706" lon="1.296">
        <ele>153</ele>
        <time>2024-07-23T08:39:47Z</time>
      </trkpt>
      <trkpt lat="44.70601" lon="1.29598">
        <ele>153.2</ele>
        <time>2024-07-23T08:39:48Z</time>
      </trkpt>
      <trkpt lat="44.70602" lon="1.29595">
        <ele>153.6</ele>
        <time>2024-07-23T08:39:49Z</time>
      </trkpt>
      <trkpt lat="44.70602" lon="1.29593">
        <ele>153.8</ele>
        <time>2024-07-23T08:39:50Z</time>
      </trkpt>
      <trkpt lat="44.70603" lon="1.29591">
        <ele>154</ele>
        <time>2024-07-23T08:39:51Z</time>
      </trkpt>
      <trkpt lat="44.70604" lon="1.29589">
        <ele>154.2</ele>
        <time>2024-07-23T08:39:52Z</time>
      </trkpt>
      <trkpt lat="44.70605" lon="1.29587">
        <ele>154.2</ele>
        <time>2024-07-23T08:39:53Z</time>
      </trkpt>
      <trkpt lat="44.70607" lon="1.29585">
        <ele>154.4</ele>
        <time>2024-07-23T08:39:54Z</time>
      </trkpt>
      <trkpt lat="44.70609" lon="1.29583">
        <ele>154.8</ele>
        <time>2024-07-23T08:39:55Z</time>
      </trkpt>
      <trkpt lat="44.7061" lon="1.29581">
        <ele>155</ele>
        <time>2024-07-23T08:39:56Z</time>
      </trkpt>
      <trkpt lat="44.70611" lon="1.2958">
        <ele>155.2</ele>
        <time>2024-07-23T08:39:57Z</time>
      </trkpt>
      <trkpt lat="44.70611" lon="1.29578">
        <ele>155.4</ele>
        <time>2024-07-23T08:39:58Z</time>
      </trkpt>
      <trkpt lat="44.70612" lon="1.29576">
        <ele>155.4</ele>
        <time>2024-07-23T08:39:59Z</time>
      </trkpt>
      <trkpt lat="44.70613" lon="1.29574">
        <ele>155.8</ele>
        <time>2024-07-23T08:40:00Z</time>
      </trkpt>
      <trkpt lat="44.70615" lon="1.29572">
        <ele>156</ele>
        <time>2024-07-23T08:40:01Z</time>
      </trkpt>
      <trkpt lat="44.70616" lon="1.29571">
        <ele>156.2</ele>
        <time>2024-07-23T08:40:02Z</time>
      </trkpt>
      <trkpt lat="44.70617" lon="1.29569">
        <ele>156.4</ele>
        <time>2024-07-23T08:40:03Z</time>
      </trkpt>
      <trkpt lat="44.70618" lon="1.29568">
        <ele>156.6</ele>
        <time>2024-07-23T08:40:04Z</time>
      </trkpt>
      <trkpt lat="44.70618" lon="1.29566">
        <ele>157</ele>
        <time>2024-07-23T08:40:05Z</time>
      </trkpt>
      <trkpt lat="44.70618" lon="1.29564">
        <ele>157.2</ele>
        <time>2024-07-23T08:40:06Z</time>
      </trkpt>
      <trkpt lat="44.70619" lon="1.29562">
        <ele>157.4</ele>
        <time>2024-07-23T08:40:07Z</time>
      </trkpt>
      <trkpt lat="44.70619" lon="1.29561">
        <ele>157.6</ele>
        <time>2024-07-23T08:40:08Z</time>
      </trkpt>
      <trkpt lat="44.70619" lon="1.29559">
        <ele>158.2</ele>
        <time>2024-07-23T08:40:09Z</time>
      </trkpt>
      <trkpt lat="44.70619" lon="1.29558">
        <ele>158.6</ele>
        <time>2024-07-23T08:40:10Z</time>
      </trkpt>
      <trkpt lat="44.7062" lon="1.29556">
        <ele>158.8</ele>
        <time>2024-07-23T08:40:11Z</time>
      </trkpt>
      <trkpt lat="44.70621" lon="1.29555">
        <ele>159.2</ele>
        <time>2024-07-23T08:40:12Z</time>
      </trkpt>
      <trkpt lat="44.70621" lon="1.29553">
        <ele>159.4</ele>
        <time>2024-07-23T08:40:13Z</time>
      </trkpt>
      <trkpt lat="44.70621" lon="1.29551">
        <ele>159.6</ele>
        <time>2024-07-23T08:40:14Z</time>
      </trkpt>
      <trkpt lat="44.70621" lon="1.2955">
        <ele>159.6</ele>
        <time>2024-07-23T08:40:15Z</time>
      </trkpt>
      <trkpt lat="44.70621" lon="1.29548">
        <ele>160</ele>
        <time>2024-07-23T08:40:16Z</time>
      </trkpt>
      <trkpt lat="44.70621" lon="1.29546">
        <ele>160.4</ele>
        <time>2024-07-23T08:40:17Z</time>
      </trkpt>
      <trkpt lat="44.70621" lon="1.29544">
        <ele>160.4</ele>
        <time>2024-07-23T08:40:18Z</time>
      </trkpt>
      <trkpt lat="44.7062" lon="1.29542">
        <ele>160.6</ele>
        <time>2024-07-23T08:40:19Z</time>
      </trkpt>
      <trkpt lat="44.70619" lon="1.29541">
        <ele>160.6</ele>
        <time>2024-07-23T08:40:20Z</time>
      </trkpt>
      <trkpt lat="44.70619" lon="1.2954">
        <ele>160.8</ele>
        <time>2024-07-23T08:40:21Z</time>
      </trkpt>
      <trkpt lat="44.70617" lon="1.29538">
        <ele>160.8</ele>
        <time>2024-07-23T08:40:22Z</time>
      </trkpt>
      <trkpt lat="44.70616" lon="1.29536">
        <ele>160.8</ele>
        <time>2024-07-23T08:40:23Z</time>
      </trkpt>
      <trkpt lat="44.70615" lon="1.29534">
        <ele>161</ele>
        <time>2024-07-23T08:40:24Z</time>
      </trkpt>
      <trkpt lat="44.70613" lon="1.29533">
        <ele>161</ele>
        <time>2024-07-23T08:40:25Z</time>
      </trkpt>
      <trkpt lat="44.70611" lon="1.29531">
        <ele>161</ele>
        <time>2024-07-23T08:40:26Z</time>
      </trkpt>
      <trkpt lat="44.70609" lon="1.2953">
        <ele>161</ele>
        <time>2024-07-23T08:40:27Z</time>
      </trkpt>
      <trkpt lat="44.70608" lon="1.29529">
        <ele>160.8</ele>
        <time>2024-07-23T08:40:28Z</time>
      </trkpt>
      <trkpt lat="44.70606" lon="1.29528">
        <ele>160.8</ele>
        <time>2024-07-23T08:40:29Z</time>
      </trkpt>
      <trkpt lat="44.70605" lon="1.29526">
        <ele>160.6</ele>
        <time>2024-07-23T08:40:30Z</time>
      </trkpt>
      <trkpt lat="44.70605" lon="1.29525">
        <ele>160.6</ele>
        <time>2024-07-23T08:40:31Z</time>
      </trkpt>
      <trkpt lat="44.70604" lon="1.29523">
        <ele>160.4</ele>
        <time>2024-07-23T08:40:32Z</time>
      </trkpt>
      <trkpt lat="44.70604" lon="1.29521">
        <ele>160</ele>
        <time>2024-07-23T08:40:33Z</time>
      </trkpt>
      <trkpt lat="44.70604" lon="1.29519">
        <ele>159.8</ele>
        <time>2024-07-23T08:40:34Z</time>
      </trkpt>
      <trkpt lat="44.70605" lon="1.29518">
        <ele>159.4</ele>
        <time>2024-07-23T08:40:35Z</time>
      </trkpt>
      <trkpt lat="44.70605" lon="1.29517">
        <ele>159.2</ele>
        <time>2024-07-23T08:40:36Z</time>
      </trkpt>
      <trkpt lat="44.70606" lon="1.29517">
        <ele>158.8</ele>
        <time>2024-07-23T08:40:37Z</time>
      </trkpt>
      <trkpt lat="44.70606" lon="1.29517">
        <ele>158.4</ele>
        <time>2024-07-23T08:40:38Z</time>
      </trkpt>
      <trkpt lat="44.70606" lon="1.29517">
        <ele>158.2</ele>
        <time>2024-07-23T08:40:39Z</time>
      </trkpt>
      <trkpt lat="44.70608" lon="1.29516">
        <ele>156.6</ele>
        <time>2024-07-23T08:40:55Z</time>
      </trkpt>
      <trkpt lat="44.70613" lon="1.29513">
        <ele>156.6</ele>
        <time>2024-07-23T08:40:57Z</time>
      </trkpt>
      <trkpt lat="44.70627" lon="1.29501">
        <ele>156.2</ele>
        <time>2024-07-23T08:41:02Z</time>
      </trkpt>
      <trkpt lat="44.70628" lon="1.295">
        <ele>155.8</ele>
        <time>2024-07-23T08:41:03Z</time>
      </trkpt>
      <trkpt lat="44.70629" lon="1.29498">
        <ele>155.6</ele>
        <time>2024-07-23T08:41:04Z</time>
      </trkpt>
      <trkpt lat="44.7063" lon="1.29497">
        <ele>155.4</ele>
        <time>2024-07-23T08:41:05Z</time>
      </trkpt>
      <trkpt lat="44.7063" lon="1.29495">
        <ele>154.8</ele>
        <time>2024-07-23T08:41:06Z</time>
      </trkpt>
      <trkpt lat="44.7063" lon="1.29492">
        <ele>154.6</ele>
        <time>2024-07-23T08:41:07Z</time>
      </trkpt>
      <trkpt lat="44.70629" lon="1.29489">
        <ele>154.2</ele>
        <time>2024-07-23T08:41:08Z</time>
      </trkpt>
      <trkpt lat="44.70626" lon="1.29487">
        <ele>153.6</ele>
        <time>2024-07-23T08:41:10Z</time>
      </trkpt>
      <trkpt lat="44.70624" lon="1.29488">
        <ele>153.6</ele>
        <time>2024-07-23T08:41:11Z</time>
      </trkpt>
      <trkpt lat="44.70622" lon="1.29488">
        <ele>153.4</ele>
        <time>2024-07-23T08:41:12Z</time>
      </trkpt>
      <trkpt lat="44.7062" lon="1.29489">
        <ele>153</ele>
        <time>2024-07-23T08:41:13Z</time>
      </trkpt>
      <trkpt lat="44.70618" lon="1.2949">
        <ele>153</ele>
        <time>2024-07-23T08:41:14Z</time>
      </trkpt>
      <trkpt lat="44.70615" lon="1.2949">
        <ele>152.8</ele>
        <time>2024-07-23T08:41:15Z</time>
      </trkpt>
      <trkpt lat="44.70612" lon="1.29489">
        <ele>152.8</ele>
        <time>2024-07-23T08:41:16Z</time>
      </trkpt>
      <trkpt lat="44.7061" lon="1.29487">
        <ele>152.6</ele>
        <time>2024-07-23T08:41:17Z</time>
      </trkpt>
      <trkpt lat="44.70607" lon="1.29485">
        <ele>152.4</ele>
        <time>2024-07-23T08:41:18Z</time>
      </trkpt>
      <trkpt lat="44.70604" lon="1.29483">
        <ele>152.4</ele>
        <time>2024-07-23T08:41:19Z</time>
      </trkpt>
      <trkpt lat="44.70602" lon="1.2948">
        <ele>152.4</ele>
        <time>2024-07-23T08:41:20Z</time>
      </trkpt>
      <trkpt lat="44.70599" lon="1.29476">
        <ele>152.4</ele>
        <time>2024-07-23T08:41:21Z</time>
      </trkpt>
      <trkpt lat="44.70598" lon="1.29473">
        <ele>152.2</ele>
        <time>2024-07-23T08:41:22Z</time>
      </trkpt>
      <trkpt lat="44.70596" lon="1.2947">
        <ele>152</ele>
        <time>2024-07-23T08:41:23Z</time>
      </trkpt>
      <trkpt lat="44.70595" lon="1.29467">
        <ele>151.6</ele>
        <time>2024-07-23T08:41:24Z</time>
      </trkpt>
      <trkpt lat="44.70594" lon="1.29465">
        <ele>151.2</ele>
        <time>2024-07-23T08:41:25Z</time>
      </trkpt>
      <trkpt lat="44.70593" lon="1.29462">
        <ele>151</ele>
        <time>2024-07-23T08:41:26Z</time>
      </trkpt>
      <trkpt lat="44.70592" lon="1.2946">
        <ele>150.6</ele>
        <time>2024-07-23T08:41:27Z</time>
      </trkpt>
      <trkpt lat="44.70592" lon="1.29457">
        <ele>150.2</ele>
        <time>2024-07-23T08:41:28Z</time>
      </trkpt>
      <trkpt lat="44.70592" lon="1.29454">
        <ele>149.8</ele>
        <time>2024-07-23T08:41:29Z</time>
      </trkpt>
      <trkpt lat="44.70592" lon="1.2945">
        <ele>149.8</ele>
        <time>2024-07-23T08:41:30Z</time>
      </trkpt>
      <trkpt lat="44.70592" lon="1.29447">
        <ele>149.6</ele>
        <time>2024-07-23T08:41:31Z</time>
      </trkpt>
      <trkpt lat="44.70592" lon="1.29446">
        <ele>149.4</ele>
        <time>2024-07-23T08:41:32Z</time>
      </trkpt>
      <trkpt lat="44.70593" lon="1.29444">
        <ele>149.2</ele>
        <time>2024-07-23T08:41:33Z</time>
      </trkpt>
      <trkpt lat="44.70595" lon="1.29443">
        <ele>149</ele>
        <time>2024-07-23T08:41:34Z</time>
      </trkpt>
      <trkpt lat="44.70597" lon="1.29442">
        <ele>148.8</ele>
        <time>2024-07-23T08:41:35Z</time>
      </trkpt>
      <trkpt lat="44.70599" lon="1.2944">
        <ele>148.6</ele>
        <time>2024-07-23T08:41:36Z</time>
      </trkpt>
      <trkpt lat="44.70601" lon="1.29438">
        <ele>148.4</ele>
        <time>2024-07-23T08:41:37Z</time>
      </trkpt>
      <trkpt lat="44.70607" lon="1.29435">
        <ele>148</ele>
        <time>2024-07-23T08:41:40Z</time>
      </trkpt>
      <trkpt lat="44.70609" lon="1.29433">
        <ele>147.8</ele>
        <time>2024-07-23T08:41:41Z</time>
      </trkpt>
      <trkpt lat="44.70611" lon="1.29431">
        <ele>147.8</ele>
        <time>2024-07-23T08:41:42Z</time>
      </trkpt>
      <trkpt lat="44.70614" lon="1.29429">
        <ele>147.6</ele>
        <time>2024-07-23T08:41:43Z</time>
      </trkpt>
      <trkpt lat="44.70622" lon="1.29424">
        <ele>147.6</ele>
        <time>2024-07-23T08:41:46Z</time>
      </trkpt>
      <trkpt lat="44.70627" lon="1.29419">
        <ele>147.4</ele>
        <time>2024-07-23T08:41:49Z</time>
      </trkpt>
      <trkpt lat="44.70627" lon="1.29418">
        <ele>147.4</ele>
        <time>2024-07-23T08:41:50Z</time>
      </trkpt>
      <trkpt lat="44.70627" lon="1.29418">
        <ele>147.4</ele>
        <time>2024-07-23T08:41:51Z</time>
      </trkpt>
      <trkpt lat="44.70627" lon="1.29418">
        <ele>147.2</ele>
        <time>2024-07-23T08:41:52Z</time>
      </trkpt>
      <trkpt lat="44.70624" lon="1.29421">
        <ele>147</ele>
        <time>2024-07-23T08:42:08Z</time>
      </trkpt>
      <trkpt lat="44.70623" lon="1.29422">
        <ele>147</ele>
        <time>2024-07-23T08:42:09Z</time>
      </trkpt>
      <trkpt lat="44.70614" lon="1.29427">
        <ele>147</ele>
        <time>2024-07-23T08:42:14Z</time>
      </trkpt>
      <trkpt lat="44.70607" lon="1.29431">
        <ele>147</ele>
        <time>2024-07-23T08:42:17Z</time>
      </trkpt>
      <trkpt lat="44.70604" lon="1.29433">
        <ele>147.2</ele>
        <time>2024-07-23T08:42:18Z</time>
      </trkpt>
      <trkpt lat="44.70601" lon="1.29435">
        <ele>147.2</ele>
        <time>2024-07-23T08:42:19Z</time>
      </trkpt>
      <trkpt lat="44.70597" lon="1.29437">
        <ele>147.6</ele>
        <time>2024-07-23T08:42:21Z</time>
      </trkpt>
      <trkpt lat="44.70591" lon="1.29439">
        <ele>147.8</ele>
        <time>2024-07-23T08:42:24Z</time>
      </trkpt>
      <trkpt lat="44.7059" lon="1.2944">
        <ele>147.8</ele>
        <time>2024-07-23T08:42:25Z</time>
      </trkpt>
      <trkpt lat="44.70589" lon="1.2944">
        <ele>147.8</ele>
        <time>2024-07-23T08:42:26Z</time>
      </trkpt>
      <trkpt lat="44.70588" lon="1.29441">
        <ele>147.8</ele>
        <time>2024-07-23T08:42:27Z</time>
      </trkpt>
      <trkpt lat="44.70588" lon="1.29441">
        <ele>148</ele>
        <time>2024-07-23T08:42:28Z</time>
      </trkpt>
      <trkpt lat="44.70588" lon="1.29441">
        <ele>148</ele>
        <time>2024-07-23T08:42:29Z</time>
      </trkpt>
      <trkpt lat="44.70588" lon="1.29441">
        <ele>147.8</ele>
        <time>2024-07-23T08:42:30Z</time>
      </trkpt>
      <trkpt lat="44.70588" lon="1.2945">
        <ele>147.6</ele>
        <time>2024-07-23T08:42:43Z</time>
      </trkpt>
      <trkpt lat="44.70588" lon="1.29452">
        <ele>147.6</ele>
        <time>2024-07-23T08:42:44Z</time>
      </trkpt>
      <trkpt lat="44.70588" lon="1.29454">
        <ele>147.6</ele>
        <time>2024-07-23T08:42:46Z</time>
      </trkpt>
      <trkpt lat="44.70587" lon="1.29454">
        <ele>147.6</ele>
        <time>2024-07-23T08:42:47Z</time>
      </trkpt>
      <trkpt lat="44.70585" lon="1.29454">
        <ele>147.8</ele>
        <time>2024-07-23T08:42:48Z</time>
      </trkpt>
      <trkpt lat="44.70583" lon="1.29453">
        <ele>148</ele>
        <time>2024-07-23T08:42:49Z</time>
      </trkpt>
      <trkpt lat="44.70581" lon="1.29453">
        <ele>148</ele>
        <time>2024-07-23T08:42:50Z</time>
      </trkpt>
      <trkpt lat="44.70578" lon="1.29452">
        <ele>148.2</ele>
        <time>2024-07-23T08:42:51Z</time>
      </trkpt>
      <trkpt lat="44.70576" lon="1.29451">
        <ele>148.2</ele>
        <time>2024-07-23T08:42:52Z</time>
      </trkpt>
      <trkpt lat="44.70571" lon="1.29448">
        <ele>148.6</ele>
        <time>2024-07-23T08:42:54Z</time>
      </trkpt>
      <trkpt lat="44.70569" lon="1.29446">
        <ele>148.8</ele>
        <time>2024-07-23T08:42:55Z</time>
      </trkpt>
      <trkpt lat="44.70567" lon="1.29443">
        <ele>148.8</ele>
        <time>2024-07-23T08:42:56Z</time>
      </trkpt>
      <trkpt lat="44.70565" lon="1.2944">
        <ele>148.8</ele>
        <time>2024-07-23T08:42:57Z</time>
      </trkpt>
      <trkpt lat="44.70564" lon="1.29436">
        <ele>148.8</ele>
        <time>2024-07-23T08:42:58Z</time>
      </trkpt>
      <trkpt lat="44.70563" lon="1.29432">
        <ele>148.6</ele>
        <time>2024-07-23T08:42:59Z</time>
      </trkpt>
      <trkpt lat="44.70562" lon="1.29427">
        <ele>148.6</ele>
        <time>2024-07-23T08:43:00Z</time>
      </trkpt>
      <trkpt lat="44.70561" lon="1.29423">
        <ele>148.4</ele>
        <time>2024-07-23T08:43:01Z</time>
      </trkpt>
      <trkpt lat="44.7056" lon="1.29418">
        <ele>148.4</ele>
        <time>2024-07-23T08:43:02Z</time>
      </trkpt>
      <trkpt lat="44.70558" lon="1.29406">
        <ele>148.2</ele>
        <time>2024-07-23T08:43:04Z</time>
      </trkpt>
      <trkpt lat="44.70558" lon="1.29393">
        <ele>148</ele>
        <time>2024-07-23T08:43:06Z</time>
      </trkpt>
      <trkpt lat="44.70561" lon="1.29376">
        <ele>147.4</ele>
        <time>2024-07-23T08:43:09Z</time>
      </trkpt>
      <trkpt lat="44.70565" lon="1.29366">
        <ele>147.2</ele>
        <time>2024-07-23T08:43:11Z</time>
      </trkpt>
      <trkpt lat="44.70578" lon="1.29342">
        <ele>146.8</ele>
        <time>2024-07-23T08:43:16Z</time>
      </trkpt>
      <trkpt lat="44.70581" lon="1.29337">
        <ele>146.8</ele>
        <time>2024-07-23T08:43:17Z</time>
      </trkpt>
      <trkpt lat="44.70594" lon="1.29312">
        <ele>146.4</ele>
        <time>2024-07-23T08:43:23Z</time>
      </trkpt>
      <trkpt lat="44.70596" lon="1.29307">
        <ele>146.4</ele>
        <time>2024-07-23T08:43:24Z</time>
      </trkpt>
      <trkpt lat="44.70598" lon="1.29302">
        <ele>146.4</ele>
        <time>2024-07-23T08:43:25Z</time>
      </trkpt>
      <trkpt lat="44.706" lon="1.29296">
        <ele>146.4</ele>
        <time>2024-07-23T08:43:26Z</time>
      </trkpt>
      <trkpt lat="44.70602" lon="1.29266">
        <ele>146.4</ele>
        <time>2024-07-23T08:43:31Z</time>
      </trkpt>
      <trkpt lat="44.70601" lon="1.29258">
        <ele>146.6</ele>
        <time>2024-07-23T08:43:33Z</time>
      </trkpt>
      <trkpt lat="44.706" lon="1.29256">
        <ele>146.6</ele>
        <time>2024-07-23T08:43:34Z</time>
      </trkpt>
      <trkpt lat="44.706" lon="1.29254">
        <ele>146.6</ele>
        <time>2024-07-23T08:43:35Z</time>
      </trkpt>
      <trkpt lat="44.70599" lon="1.29252">
        <ele>146.6</ele>
        <time>2024-07-23T08:43:36Z</time>
      </trkpt>
      <trkpt lat="44.70598" lon="1.29249">
        <ele>146.6</ele>
        <time>2024-07-23T08:43:37Z</time>
      </trkpt>
      <trkpt lat="44.70597" lon="1.29244">
        <ele>146.8</ele>
        <time>2024-07-23T08:43:39Z</time>
      </trkpt>
      <trkpt lat="44.70596" lon="1.29241">
        <ele>147</ele>
        <time>2024-07-23T08:43:40Z</time>
      </trkpt>
      <trkpt lat="44.70595" lon="1.29239">
        <ele>147.2</ele>
        <time>2024-07-23T08:43:41Z</time>
      </trkpt>
      <trkpt lat="44.70594" lon="1.29237">
        <ele>147.4</ele>
        <time>2024-07-23T08:43:43Z</time>
      </trkpt>
      <trkpt lat="44.70594" lon="1.29235">
        <ele>147.4</ele>
        <time>2024-07-23T08:43:44Z</time>
      </trkpt>
      <trkpt lat="44.70593" lon="1.29233">
        <ele>147.6</ele>
        <time>2024-07-23T08:43:45Z</time>
      </trkpt>
      <trkpt lat="44.70593" lon="1.29232">
        <ele>147.8</ele>
        <time>2024-07-23T08:43:46Z</time>
      </trkpt>
      <trkpt lat="44.70593" lon="1.2923">
        <ele>148.2</ele>
        <time>2024-07-23T08:43:47Z</time>
      </trkpt>
      <trkpt lat="44.70592" lon="1.29229">
        <ele>149</ele>
        <time>2024-07-23T08:43:49Z</time>
      </trkpt>
      <trkpt lat="44.70591" lon="1.29229">
        <ele>149.6</ele>
        <time>2024-07-23T08:43:50Z</time>
      </trkpt>
      <trkpt lat="44.7059" lon="1.29229">
        <ele>149.8</ele>
        <time>2024-07-23T08:43:51Z</time>
      </trkpt>
      <trkpt lat="44.70589" lon="1.29229">
        <ele>150.4</ele>
        <time>2024-07-23T08:43:53Z</time>
      </trkpt>
      <trkpt lat="44.70588" lon="1.29229">
        <ele>150.6</ele>
        <time>2024-07-23T08:43:54Z</time>
      </trkpt>
      <trkpt lat="44.70588" lon="1.29229">
        <ele>151</ele>
        <time>2024-07-23T08:43:55Z</time>
      </trkpt>
      <trkpt lat="44.70588" lon="1.29229">
        <ele>151.2</ele>
        <time>2024-07-23T08:43:56Z</time>
      </trkpt>
      <trkpt lat="44.70582" lon="1.29232">
        <ele>151.8</ele>
        <time>2024-07-23T08:44:45Z</time>
      </trkpt>
      <trkpt lat="44.70573" lon="1.29238">
        <ele>151.8</ele>
        <time>2024-07-23T08:44:49Z</time>
      </trkpt>
      <trkpt lat="44.70568" lon="1.29241">
        <ele>151.8</ele>
        <time>2024-07-23T08:44:51Z</time>
      </trkpt>
      <trkpt lat="44.70566" lon="1.29243">
        <ele>151.8</ele>
        <time>2024-07-23T08:44:52Z</time>
      </trkpt>
      <trkpt lat="44.70564" lon="1.29244">
        <ele>151.8</ele>
        <time>2024-07-23T08:44:53Z</time>
      </trkpt>
      <trkpt lat="44.70555" lon="1.29252">
        <ele>151.8</ele>
        <time>2024-07-23T08:44:57Z</time>
      </trkpt>
      <trkpt lat="44.70539" lon="1.29262">
        <ele>151.6</ele>
        <time>2024-07-23T08:45:01Z</time>
      </trkpt>
      <trkpt lat="44.70534" lon="1.29264">
        <ele>151.6</ele>
        <time>2024-07-23T08:45:02Z</time>
      </trkpt>
      <trkpt lat="44.70517" lon="1.29274">
        <ele>151.4</ele>
        <time>2024-07-23T08:45:05Z</time>
      </trkpt>
      <trkpt lat="44.705" lon="1.29283">
        <ele>150.6</ele>
        <time>2024-07-23T08:45:08Z</time>
      </trkpt>
      <trkpt lat="44.70496" lon="1.29284">
        <ele>150.4</ele>
        <time>2024-07-23T08:45:09Z</time>
      </trkpt>
      <trkpt lat="44.70492" lon="1.29286">
        <ele>150.2</ele>
        <time>2024-07-23T08:45:10Z</time>
      </trkpt>
      <trkpt lat="44.70488" lon="1.29288">
        <ele>150</ele>
        <time>2024-07-23T08:45:11Z</time>
      </trkpt>
      <trkpt lat="44.70485" lon="1.2929">
        <ele>149.8</ele>
        <time>2024-07-23T08:45:12Z</time>
      </trkpt>
      <trkpt lat="44.7048" lon="1.29291">
        <ele>149.6</ele>
        <time>2024-07-23T08:45:13Z</time>
      </trkpt>
      <trkpt lat="44.70477" lon="1.29292">
        <ele>149.4</ele>
        <time>2024-07-23T08:45:14Z</time>
      </trkpt>
      <trkpt lat="44.70474" lon="1.29292">
        <ele>149.2</ele>
        <time>2024-07-23T08:45:15Z</time>
      </trkpt>
      <trkpt lat="44.70471" lon="1.29293">
        <ele>149.2</ele>
        <time>2024-07-23T08:45:16Z</time>
      </trkpt>
      <trkpt lat="44.70468" lon="1.29294">
        <ele>149.2</ele>
        <time>2024-07-23T08:45:17Z</time>
      </trkpt>
      <trkpt lat="44.70464" lon="1.29295">
        <ele>149.2</ele>
        <time>2024-07-23T08:45:18Z</time>
      </trkpt>
      <trkpt lat="44.70461" lon="1.29296">
        <ele>149.2</ele>
        <time>2024-07-23T08:45:19Z</time>
      </trkpt>
      <trkpt lat="44.70445" lon="1.29304">
        <ele>149.6</ele>
        <time>2024-07-23T08:45:24Z</time>
      </trkpt>
      <trkpt lat="44.70442" lon="1.29305">
        <ele>149.6</ele>
        <time>2024-07-23T08:45:25Z</time>
      </trkpt>
      <trkpt lat="44.70439" lon="1.29306">
        <ele>149.6</ele>
        <time>2024-07-23T08:45:26Z</time>
      </trkpt>
      <trkpt lat="44.70435" lon="1.29306">
        <ele>149.6</ele>
        <time>2024-07-23T08:45:27Z</time>
      </trkpt>
      <trkpt lat="44.70431" lon="1.29306">
        <ele>149.6</ele>
        <time>2024-07-23T08:45:28Z</time>
      </trkpt>
      <trkpt lat="44.70426" lon="1.29308">
        <ele>149.4</ele>
        <time>2024-07-23T08:45:29Z</time>
      </trkpt>
      <trkpt lat="44.70403" lon="1.29321">
        <ele>149</ele>
        <time>2024-07-23T08:45:34Z</time>
      </trkpt>
      <trkpt lat="44.70398" lon="1.29324">
        <ele>148.8</ele>
        <time>2024-07-23T08:45:35Z</time>
      </trkpt>
      <trkpt lat="44.70394" lon="1.29325">
        <ele>148.6</ele>
        <time>2024-07-23T08:45:36Z</time>
      </trkpt>
      <trkpt lat="44.70381" lon="1.29332">
        <ele>148.2</ele>
        <time>2024-07-23T08:45:39Z</time>
      </trkpt>
      <trkpt lat="44.70369" lon="1.2934">
        <ele>148.2</ele>
        <time>2024-07-23T08:45:42Z</time>
      </trkpt>
      <trkpt lat="44.70339" lon="1.29363">
        <ele>148.6</ele>
        <time>2024-07-23T08:45:50Z</time>
      </trkpt>
      <trkpt lat="44.70336" lon="1.29366">
        <ele>148.6</ele>
        <time>2024-07-23T08:45:51Z</time>
      </trkpt>
      <trkpt lat="44.70333" lon="1.29368">
        <ele>148.6</ele>
        <time>2024-07-23T08:45:52Z</time>
      </trkpt>
      <trkpt lat="44.7033" lon="1.29371">
        <ele>148.8</ele>
        <time>2024-07-23T08:45:53Z</time>
      </trkpt>
      <trkpt lat="44.70327" lon="1.29373">
        <ele>149</ele>
        <time>2024-07-23T08:45:54Z</time>
      </trkpt>
      <trkpt lat="44.70324" lon="1.29375">
        <ele>149</ele>
        <time>2024-07-23T08:45:55Z</time>
      </trkpt>
      <trkpt lat="44.70321" lon="1.29377">
        <ele>149.2</ele>
        <time>2024-07-23T08:45:56Z</time>
      </trkpt>
      <trkpt lat="44.70318" lon="1.29379">
        <ele>149.2</ele>
        <time>2024-07-23T08:45:57Z</time>
      </trkpt>
      <trkpt lat="44.70315" lon="1.29381">
        <ele>149.4</ele>
        <time>2024-07-23T08:45:58Z</time>
      </trkpt>
      <trkpt lat="44.70312" lon="1.29384">
        <ele>149.6</ele>
        <time>2024-07-23T08:45:59Z</time>
      </trkpt>
      <trkpt lat="44.70309" lon="1.29385">
        <ele>149.6</ele>
        <time>2024-07-23T08:46:00Z</time>
      </trkpt>
      <trkpt lat="44.70306" lon="1.29387">
        <ele>150</ele>
        <time>2024-07-23T08:46:01Z</time>
      </trkpt>
      <trkpt lat="44.70303" lon="1.29388">
        <ele>150.2</ele>
        <time>2024-07-23T08:46:02Z</time>
      </trkpt>
      <trkpt lat="44.703" lon="1.2939">
        <ele>150.4</ele>
        <time>2024-07-23T08:46:03Z</time>
      </trkpt>
      <trkpt lat="44.70293" lon="1.29392">
        <ele>150.6</ele>
        <time>2024-07-23T08:46:05Z</time>
      </trkpt>
      <trkpt lat="44.7029" lon="1.29393">
        <ele>150.6</ele>
        <time>2024-07-23T08:46:06Z</time>
      </trkpt>
      <trkpt lat="44.70264" lon="1.29403">
        <ele>151</ele>
        <time>2024-07-23T08:46:13Z</time>
      </trkpt>
      <trkpt lat="44.70238" lon="1.29416">
        <ele>151</ele>
        <time>2024-07-23T08:46:20Z</time>
      </trkpt>
      <trkpt lat="44.70221" lon="1.29423">
        <ele>151</ele>
        <time>2024-07-23T08:46:25Z</time>
      </trkpt>
      <trkpt lat="44.70218" lon="1.29425">
        <ele>151</ele>
        <time>2024-07-23T08:46:26Z</time>
      </trkpt>
      <trkpt lat="44.70214" lon="1.29426">
        <ele>151.2</ele>
        <time>2024-07-23T08:46:27Z</time>
      </trkpt>
      <trkpt lat="44.70211" lon="1.29426">
        <ele>151.2</ele>
        <time>2024-07-23T08:46:28Z</time>
      </trkpt>
      <trkpt lat="44.70208" lon="1.29427">
        <ele>151.2</ele>
        <time>2024-07-23T08:46:29Z</time>
      </trkpt>
      <trkpt lat="44.70205" lon="1.29427">
        <ele>151.4</ele>
        <time>2024-07-23T08:46:30Z</time>
      </trkpt>
      <trkpt lat="44.70201" lon="1.29427">
        <ele>151.6</ele>
        <time>2024-07-23T08:46:31Z</time>
      </trkpt>
      <trkpt lat="44.70198" lon="1.29426">
        <ele>151.6</ele>
        <time>2024-07-23T08:46:32Z</time>
      </trkpt>
      <trkpt lat="44.70195" lon="1.29425">
        <ele>151.6</ele>
        <time>2024-07-23T08:46:33Z</time>
      </trkpt>
      <trkpt lat="44.70192" lon="1.29425">
        <ele>151.6</ele>
        <time>2024-07-23T08:46:34Z</time>
      </trkpt>
      <trkpt lat="44.70188" lon="1.29424">
        <ele>151.6</ele>
        <time>2024-07-23T08:46:35Z</time>
      </trkpt>
      <trkpt lat="44.70177" lon="1.29428">
        <ele>151.8</ele>
        <time>2024-07-23T08:46:38Z</time>
      </trkpt>
      <trkpt lat="44.70174" lon="1.2943">
        <ele>151.8</ele>
        <time>2024-07-23T08:46:39Z</time>
      </trkpt>
      <trkpt lat="44.7017" lon="1.29433">
        <ele>151.8</ele>
        <time>2024-07-23T08:46:40Z</time>
      </trkpt>
      <trkpt lat="44.7016" lon="1.29443">
        <ele>152</ele>
        <time>2024-07-23T08:46:43Z</time>
      </trkpt>
      <trkpt lat="44.70139" lon="1.29467">
        <ele>152.2</ele>
        <time>2024-07-23T08:46:50Z</time>
      </trkpt>
      <trkpt lat="44.70137" lon="1.29471">
        <ele>152.2</ele>
        <time>2024-07-23T08:46:51Z</time>
      </trkpt>
      <trkpt lat="44.70134" lon="1.29474">
        <ele>152.2</ele>
        <time>2024-07-23T08:46:52Z</time>
      </trkpt>
      <trkpt lat="44.70133" lon="1.29477">
        <ele>152.4</ele>
        <time>2024-07-23T08:46:53Z</time>
      </trkpt>
      <trkpt lat="44.70131" lon="1.2948">
        <ele>152.6</ele>
        <time>2024-07-23T08:46:54Z</time>
      </trkpt>
      <trkpt lat="44.70123" lon="1.29495">
        <ele>153.4</ele>
        <time>2024-07-23T08:46:58Z</time>
      </trkpt>
      <trkpt lat="44.70118" lon="1.29503">
        <ele>153.8</ele>
        <time>2024-07-23T08:47:00Z</time>
      </trkpt>
      <trkpt lat="44.70106" lon="1.29523">
        <ele>154</ele>
        <time>2024-07-23T08:47:05Z</time>
      </trkpt>
      <trkpt lat="44.70096" lon="1.29541">
        <ele>154.2</ele>
        <time>2024-07-23T08:47:09Z</time>
      </trkpt>
      <trkpt lat="44.70085" lon="1.29573">
        <ele>153.6</ele>
        <time>2024-07-23T08:47:14Z</time>
      </trkpt>
      <trkpt lat="44.70083" lon="1.29579">
        <ele>153.2</ele>
        <time>2024-07-23T08:47:15Z</time>
      </trkpt>
      <trkpt lat="44.70082" lon="1.29584">
        <ele>153.2</ele>
        <time>2024-07-23T08:47:16Z</time>
      </trkpt>
      <trkpt lat="44.7008" lon="1.29588">
        <ele>153</ele>
        <time>2024-07-23T08:47:17Z</time>
      </trkpt>
      <trkpt lat="44.70079" lon="1.29592">
        <ele>152.8</ele>
        <time>2024-07-23T08:47:18Z</time>
      </trkpt>
      <trkpt lat="44.70078" lon="1.29595">
        <ele>152.6</ele>
        <time>2024-07-23T08:47:19Z</time>
      </trkpt>
      <trkpt lat="44.70078" lon="1.29598">
        <ele>152.6</ele>
        <time>2024-07-23T08:47:20Z</time>
      </trkpt>
      <trkpt lat="44.70079" lon="1.29601">
        <ele>152.4</ele>
        <time>2024-07-23T08:47:21Z</time>
      </trkpt>
      <trkpt lat="44.70081" lon="1.29604">
        <ele>152.2</ele>
        <time>2024-07-23T08:47:22Z</time>
      </trkpt>
      <trkpt lat="44.70084" lon="1.29606">
        <ele>152</ele>
        <time>2024-07-23T08:47:23Z</time>
      </trkpt>
      <trkpt lat="44.70094" lon="1.29608">
        <ele>151.6</ele>
        <time>2024-07-23T08:47:26Z</time>
      </trkpt>
      <trkpt lat="44.70098" lon="1.29608">
        <ele>151.4</ele>
        <time>2024-07-23T08:47:27Z</time>
      </trkpt>
      <trkpt lat="44.70102" lon="1.29608">
        <ele>151.2</ele>
        <time>2024-07-23T08:47:28Z</time>
      </trkpt>
      <trkpt lat="44.70105" lon="1.29608">
        <ele>151</ele>
        <time>2024-07-23T08:47:29Z</time>
      </trkpt>
      <trkpt lat="44.70108" lon="1.29607">
        <ele>150.8</ele>
        <time>2024-07-23T08:47:30Z</time>
      </trkpt>
      <trkpt lat="44.70111" lon="1.29607">
        <ele>150.6</ele>
        <time>2024-07-23T08:47:31Z</time>
      </trkpt>
      <trkpt lat="44.70114" lon="1.29606">
        <ele>150.6</ele>
        <time>2024-07-23T08:47:32Z</time>
      </trkpt>
      <trkpt lat="44.70118" lon="1.29605">
        <ele>150.4</ele>
        <time>2024-07-23T08:47:33Z</time>
      </trkpt>
      <trkpt lat="44.70125" lon="1.29604">
        <ele>150.2</ele>
        <time>2024-07-23T08:47:35Z</time>
      </trkpt>
      <trkpt lat="44.70159" lon="1.29606">
        <ele>149.6</ele>
        <time>2024-07-23T08:47:44Z</time>
      </trkpt>
      <trkpt lat="44.70175" lon="1.2961">
        <ele>149.4</ele>
        <time>2024-07-23T08:47:48Z</time>
      </trkpt>
      <trkpt lat="44.70187" lon="1.29615">
        <ele>149.4</ele>
        <time>2024-07-23T08:47:51Z</time>
      </trkpt>
      <trkpt lat="44.70198" lon="1.29621">
        <ele>149.4</ele>
        <time>2024-07-23T08:47:54Z</time>
      </trkpt>
      <trkpt lat="44.70204" lon="1.29626">
        <ele>149.6</ele>
        <time>2024-07-23T08:47:56Z</time>
      </trkpt>
      <trkpt lat="44.70207" lon="1.29628">
        <ele>149.8</ele>
        <time>2024-07-23T08:47:57Z</time>
      </trkpt>
      <trkpt lat="44.70211" lon="1.29631">
        <ele>149.8</ele>
        <time>2024-07-23T08:47:58Z</time>
      </trkpt>
      <trkpt lat="44.70214" lon="1.29634">
        <ele>149.8</ele>
        <time>2024-07-23T08:47:59Z</time>
      </trkpt>
      <trkpt lat="44.70218" lon="1.29636">
        <ele>150</ele>
        <time>2024-07-23T08:48:00Z</time>
      </trkpt>
      <trkpt lat="44.70221" lon="1.29639">
        <ele>150</ele>
        <time>2024-07-23T08:48:01Z</time>
      </trkpt>
      <trkpt lat="44.70245" lon="1.29654">
        <ele>150.4</ele>
        <time>2024-07-23T08:48:08Z</time>
      </trkpt>
      <trkpt lat="44.70248" lon="1.29656">
        <ele>150.4</ele>
        <time>2024-07-23T08:48:09Z</time>
      </trkpt>
      <trkpt lat="44.70251" lon="1.29658">
        <ele>150.4</ele>
        <time>2024-07-23T08:48:10Z</time>
      </trkpt>
      <trkpt lat="44.70253" lon="1.2966">
        <ele>150.4</ele>
        <time>2024-07-23T08:48:11Z</time>
      </trkpt>
      <trkpt lat="44.70254" lon="1.29663">
        <ele>150.4</ele>
        <time>2024-07-23T08:48:12Z</time>
      </trkpt>
      <trkpt lat="44.70254" lon="1.29665">
        <ele>150.4</ele>
        <time>2024-07-23T08:48:13Z</time>
      </trkpt>
      <trkpt lat="44.70253" lon="1.29667">
        <ele>150.4</ele>
        <time>2024-07-23T08:48:14Z</time>
      </trkpt>
      <trkpt lat="44.70252" lon="1.29669">
        <ele>150.4</ele>
        <time>2024-07-23T08:48:15Z</time>
      </trkpt>
      <trkpt lat="44.70252" lon="1.29669">
        <ele>150.4</ele>
        <time>2024-07-23T08:48:16Z</time>
      </trkpt>
      <trkpt lat="44.70251" lon="1.2967">
        <ele>150.4</ele>
        <time>2024-07-23T08:48:17Z</time>
      </trkpt>
      <trkpt lat="44.70248" lon="1.29671">
        <ele>150.2</ele>
        <time>2024-07-23T08:48:19Z</time>
      </trkpt>
      <trkpt lat="44.70247" lon="1.29671">
        <ele>150.2</ele>
        <time>2024-07-23T08:48:20Z</time>
      </trkpt>
      <trkpt lat="44.70242" lon="1.29672">
        <ele>150</ele>
        <time>2024-07-23T08:48:24Z</time>
      </trkpt>
      <trkpt lat="44.7024" lon="1.29673">
        <ele>150</ele>
        <time>2024-07-23T08:48:25Z</time>
      </trkpt>
      <trkpt lat="44.70239" lon="1.29674">
        <ele>150</ele>
        <time>2024-07-23T08:48:26Z</time>
      </trkpt>
      <trkpt lat="44.70237" lon="1.29675">
        <ele>150</ele>
        <time>2024-07-23T08:48:27Z</time>
      </trkpt>
      <trkpt lat="44.70231" lon="1.29681">
        <ele>150</ele>
        <time>2024-07-23T08:48:30Z</time>
      </trkpt>
      <trkpt lat="44.70221" lon="1.29689">
        <ele>150</ele>
        <time>2024-07-23T08:48:36Z</time>
      </trkpt>
      <trkpt lat="44.7022" lon="1.29691">
        <ele>150</ele>
        <time>2024-07-23T08:48:37Z</time>
      </trkpt>
      <trkpt lat="44.70219" lon="1.29692">
        <ele>150</ele>
        <time>2024-07-23T08:48:38Z</time>
      </trkpt>
      <trkpt lat="44.70218" lon="1.29693">
        <ele>150</ele>
        <time>2024-07-23T08:48:39Z</time>
      </trkpt>
      <trkpt lat="44.70217" lon="1.29694">
        <ele>149.8</ele>
        <time>2024-07-23T08:48:40Z</time>
      </trkpt>
      <trkpt lat="44.70215" lon="1.29696">
        <ele>150</ele>
        <time>2024-07-23T08:48:41Z</time>
      </trkpt>
      <trkpt lat="44.70214" lon="1.29698">
        <ele>150.2</ele>
        <time>2024-07-23T08:48:42Z</time>
      </trkpt>
      <trkpt lat="44.70212" lon="1.29699">
        <ele>150.2</ele>
        <time>2024-07-23T08:48:43Z</time>
      </trkpt>
      <trkpt lat="44.70211" lon="1.297">
        <ele>150</ele>
        <time>2024-07-23T08:48:44Z</time>
      </trkpt>
      <trkpt lat="44.7021" lon="1.29702">
        <ele>150.2</ele>
        <time>2024-07-23T08:48:45Z</time>
      </trkpt>
      <trkpt lat="44.70208" lon="1.29703">
        <ele>150.2</ele>
        <time>2024-07-23T08:48:46Z</time>
      </trkpt>
      <trkpt lat="44.70207" lon="1.29704">
        <ele>150.2</ele>
        <time>2024-07-23T08:48:47Z</time>
      </trkpt>
      <trkpt lat="44.70206" lon="1.29706">
        <ele>150.4</ele>
        <time>2024-07-23T08:48:48Z</time>
      </trkpt>
      <trkpt lat="44.70199" lon="1.29712">
        <ele>150.8</ele>
        <time>2024-07-23T08:48:52Z</time>
      </trkpt>
      <trkpt lat="44.70197" lon="1.29714">
        <ele>150.8</ele>
        <time>2024-07-23T08:48:53Z</time>
      </trkpt>
      <trkpt lat="44.70194" lon="1.29717">
        <ele>151</ele>
        <time>2024-07-23T08:48:55Z</time>
      </trkpt>
      <trkpt lat="44.70192" lon="1.29718">
        <ele>151.2</ele>
        <time>2024-07-23T08:48:56Z</time>
      </trkpt>
      <trkpt lat="44.70184" lon="1.29718">
        <ele>151.8</ele>
        <time>2024-07-23T08:48:59Z</time>
      </trkpt>
      <trkpt lat="44.70176" lon="1.29721">
        <ele>152.2</ele>
        <time>2024-07-23T08:49:01Z</time>
      </trkpt>
      <trkpt lat="44.70168" lon="1.29723">
        <ele>152.6</ele>
        <time>2024-07-23T08:49:04Z</time>
      </trkpt>
      <trkpt lat="44.70163" lon="1.29727">
        <ele>153.4</ele>
        <time>2024-07-23T08:49:07Z</time>
      </trkpt>
      <trkpt lat="44.70161" lon="1.29731">
        <ele>153.6</ele>
        <time>2024-07-23T08:49:08Z</time>
      </trkpt>
      <trkpt lat="44.7016" lon="1.29735">
        <ele>153.8</ele>
        <time>2024-07-23T08:49:09Z</time>
      </trkpt>
      <trkpt lat="44.70159" lon="1.29737">
        <ele>154</ele>
        <time>2024-07-23T08:49:10Z</time>
      </trkpt>
      <trkpt lat="44.70156" lon="1.29738">
        <ele>154.2</ele>
        <time>2024-07-23T08:49:11Z</time>
      </trkpt>
      <trkpt lat="44.70154" lon="1.29739">
        <ele>154.6</ele>
        <time>2024-07-23T08:49:12Z</time>
      </trkpt>
      <trkpt lat="44.70152" lon="1.29741">
        <ele>154.6</ele>
        <time>2024-07-23T08:49:13Z</time>
      </trkpt>
      <trkpt lat="44.7015" lon="1.29742">
        <ele>155</ele>
        <time>2024-07-23T08:49:14Z</time>
      </trkpt>
      <trkpt lat="44.70149" lon="1.29745">
        <ele>155.2</ele>
        <time>2024-07-23T08:49:15Z</time>
      </trkpt>
      <trkpt lat="44.70148" lon="1.29746">
        <ele>155.2</ele>
        <time>2024-07-23T08:49:16Z</time>
      </trkpt>
      <trkpt lat="44.70146" lon="1.29747">
        <ele>155.2</ele>
        <time>2024-07-23T08:49:17Z</time>
      </trkpt>
      <trkpt lat="44.70144" lon="1.29747">
        <ele>155.4</ele>
        <time>2024-07-23T08:49:18Z</time>
      </trkpt>
      <trkpt lat="44.70142" lon="1.29748">
        <ele>155.6</ele>
        <time>2024-07-23T08:49:19Z</time>
      </trkpt>
      <trkpt lat="44.7014" lon="1.29748">
        <ele>155.8</ele>
        <time>2024-07-23T08:49:20Z</time>
      </trkpt>
      <trkpt lat="44.70139" lon="1.29749">
        <ele>156</ele>
        <time>2024-07-23T08:49:21Z</time>
      </trkpt>
      <trkpt lat="44.70138" lon="1.29751">
        <ele>156.2</ele>
        <time>2024-07-23T08:49:22Z</time>
      </trkpt>
      <trkpt lat="44.70136" lon="1.29753">
        <ele>156.2</ele>
        <time>2024-07-23T08:49:23Z</time>
      </trkpt>
      <trkpt lat="44.70134" lon="1.29754">
        <ele>156.4</ele>
        <time>2024-07-23T08:49:24Z</time>
      </trkpt>
      <trkpt lat="44.70132" lon="1.29755">
        <ele>156.4</ele>
        <time>2024-07-23T08:49:25Z</time>
      </trkpt>
      <trkpt lat="44.7013" lon="1.29756">
        <ele>156.4</ele>
        <time>2024-07-23T08:49:26Z</time>
      </trkpt>
      <trkpt lat="44.70129" lon="1.29757">
        <ele>156.6</ele>
        <time>2024-07-23T08:49:27Z</time>
      </trkpt>
      <trkpt lat="44.70127" lon="1.29758">
        <ele>156.6</ele>
        <time>2024-07-23T08:49:28Z</time>
      </trkpt>
      <trkpt lat="44.70125" lon="1.2976">
        <ele>156.8</ele>
        <time>2024-07-23T08:49:29Z</time>
      </trkpt>
      <trkpt lat="44.70123" lon="1.29761">
        <ele>156.8</ele>
        <time>2024-07-23T08:49:30Z</time>
      </trkpt>
      <trkpt lat="44.70121" lon="1.29762">
        <ele>156.8</ele>
        <time>2024-07-23T08:49:31Z</time>
      </trkpt>
      <trkpt lat="44.70119" lon="1.29763">
        <ele>156.8</ele>
        <time>2024-07-23T08:49:32Z</time>
      </trkpt>
      <trkpt lat="44.70116" lon="1.29764">
        <ele>156.8</ele>
        <time>2024-07-23T08:49:33Z</time>
      </trkpt>
      <trkpt lat="44.70113" lon="1.29765">
        <ele>156.8</ele>
        <time>2024-07-23T08:49:34Z</time>
      </trkpt>
      <trkpt lat="44.7011" lon="1.29767">
        <ele>156.8</ele>
        <time>2024-07-23T08:49:35Z</time>
      </trkpt>
      <trkpt lat="44.70108" lon="1.29768">
        <ele>156.8</ele>
        <time>2024-07-23T08:49:36Z</time>
      </trkpt>
      <trkpt lat="44.70105" lon="1.29769">
        <ele>156.8</ele>
        <time>2024-07-23T08:49:37Z</time>
      </trkpt>
      <trkpt lat="44.70102" lon="1.2977">
        <ele>156.8</ele>
        <time>2024-07-23T08:49:38Z</time>
      </trkpt>
      <trkpt lat="44.701" lon="1.29771">
        <ele>156.8</ele>
        <time>2024-07-23T08:49:39Z</time>
      </trkpt>
      <trkpt lat="44.70097" lon="1.29772">
        <ele>156.8</ele>
        <time>2024-07-23T08:49:40Z</time>
      </trkpt>
      <trkpt lat="44.70094" lon="1.29773">
        <ele>156.8</ele>
        <time>2024-07-23T08:49:41Z</time>
      </trkpt>
      <trkpt lat="44.70085" lon="1.29776">
        <ele>157</ele>
        <time>2024-07-23T08:49:44Z</time>
      </trkpt>
      <trkpt lat="44.70076" lon="1.2978">
        <ele>157.2</ele>
        <time>2024-07-23T08:49:47Z</time>
      </trkpt>
      <trkpt lat="44.70064" lon="1.29783">
        <ele>157.4</ele>
        <time>2024-07-23T08:49:51Z</time>
      </trkpt>
      <trkpt lat="44.70057" lon="1.29785">
        <ele>157.6</ele>
        <time>2024-07-23T08:49:53Z</time>
      </trkpt>
      <trkpt lat="44.70052" lon="1.29786">
        <ele>157.6</ele>
        <time>2024-07-23T08:49:55Z</time>
      </trkpt>
      <trkpt lat="44.70049" lon="1.29786">
        <ele>157.8</ele>
        <time>2024-07-23T08:49:56Z</time>
      </trkpt>
      <trkpt lat="44.70046" lon="1.29786">
        <ele>157.8</ele>
        <time>2024-07-23T08:49:57Z</time>
      </trkpt>
      <trkpt lat="44.70044" lon="1.29786">
        <ele>157.8</ele>
        <time>2024-07-23T08:49:58Z</time>
      </trkpt>
      <trkpt lat="44.70031" lon="1.29786">
        <ele>158.8</ele>
        <time>2024-07-23T08:50:02Z</time>
      </trkpt>
      <trkpt lat="44.70029" lon="1.29786">
        <ele>158.8</ele>
        <time>2024-07-23T08:50:03Z</time>
      </trkpt>
      <trkpt lat="44.70025" lon="1.29786">
        <ele>159</ele>
        <time>2024-07-23T08:50:04Z</time>
      </trkpt>
      <trkpt lat="44.70003" lon="1.29785">
        <ele>159.6</ele>
        <time>2024-07-23T08:50:11Z</time>
      </trkpt>
      <trkpt lat="44.7" lon="1.29785">
        <ele>159.8</ele>
        <time>2024-07-23T08:50:12Z</time>
      </trkpt>
      <trkpt lat="44.69997" lon="1.29786">
        <ele>160</ele>
        <time>2024-07-23T08:50:13Z</time>
      </trkpt>
      <trkpt lat="44.69994" lon="1.29786">
        <ele>160</ele>
        <time>2024-07-23T08:50:14Z</time>
      </trkpt>
      <trkpt lat="44.69991" lon="1.29787">
        <ele>160.2</ele>
        <time>2024-07-23T08:50:15Z</time>
      </trkpt>
      <trkpt lat="44.69988" lon="1.29788">
        <ele>160.4</ele>
        <time>2024-07-23T08:50:16Z</time>
      </trkpt>
      <trkpt lat="44.69986" lon="1.29789">
        <ele>160.4</ele>
        <time>2024-07-23T08:50:17Z</time>
      </trkpt>
      <trkpt lat="44.69983" lon="1.2979">
        <ele>160.8</ele>
        <time>2024-07-23T08:50:18Z</time>
      </trkpt>
      <trkpt lat="44.6998" lon="1.29791">
        <ele>160.8</ele>
        <time>2024-07-23T08:50:19Z</time>
      </trkpt>
      <trkpt lat="44.69977" lon="1.29791">
        <ele>161</ele>
        <time>2024-07-23T08:50:20Z</time>
      </trkpt>
      <trkpt lat="44.69974" lon="1.29793">
        <ele>161</ele>
        <time>2024-07-23T08:50:21Z</time>
      </trkpt>
      <trkpt lat="44.69971" lon="1.29794">
        <ele>161.2</ele>
        <time>2024-07-23T08:50:22Z</time>
      </trkpt>
      <trkpt lat="44.69968" lon="1.29795">
        <ele>161.4</ele>
        <time>2024-07-23T08:50:23Z</time>
      </trkpt>
      <trkpt lat="44.69966" lon="1.29796">
        <ele>161.4</ele>
        <time>2024-07-23T08:50:24Z</time>
      </trkpt>
      <trkpt lat="44.69962" lon="1.29797">
        <ele>161.6</ele>
        <time>2024-07-23T08:50:25Z</time>
      </trkpt>
      <trkpt lat="44.69959" lon="1.29798">
        <ele>161.6</ele>
        <time>2024-07-23T08:50:26Z</time>
      </trkpt>
      <trkpt lat="44.69956" lon="1.298">
        <ele>161.6</ele>
        <time>2024-07-23T08:50:27Z</time>
      </trkpt>
      <trkpt lat="44.69953" lon="1.29801">
        <ele>161.8</ele>
        <time>2024-07-23T08:50:28Z</time>
      </trkpt>
      <trkpt lat="44.69949" lon="1.29803">
        <ele>161.8</ele>
        <time>2024-07-23T08:50:29Z</time>
      </trkpt>
      <trkpt lat="44.69945" lon="1.29804">
        <ele>161.8</ele>
        <time>2024-07-23T08:50:30Z</time>
      </trkpt>
      <trkpt lat="44.6994" lon="1.29806">
        <ele>161.8</ele>
        <time>2024-07-23T08:50:31Z</time>
      </trkpt>
      <trkpt lat="44.69935" lon="1.29808">
        <ele>161.8</ele>
        <time>2024-07-23T08:50:32Z</time>
      </trkpt>
      <trkpt lat="44.69931" lon="1.2981">
        <ele>161.8</ele>
        <time>2024-07-23T08:50:33Z</time>
      </trkpt>
      <trkpt lat="44.69926" lon="1.29813">
        <ele>161.8</ele>
        <time>2024-07-23T08:50:34Z</time>
      </trkpt>
      <trkpt lat="44.6992" lon="1.29816">
        <ele>161.8</ele>
        <time>2024-07-23T08:50:35Z</time>
      </trkpt>
      <trkpt lat="44.69915" lon="1.29818">
        <ele>161.6</ele>
        <time>2024-07-23T08:50:36Z</time>
      </trkpt>
      <trkpt lat="44.6991" lon="1.29819">
        <ele>161.4</ele>
        <time>2024-07-23T08:50:37Z</time>
      </trkpt>
      <trkpt lat="44.69896" lon="1.29821">
        <ele>161</ele>
        <time>2024-07-23T08:50:40Z</time>
      </trkpt>
      <trkpt lat="44.6989" lon="1.2982">
        <ele>160.6</ele>
        <time>2024-07-23T08:50:41Z</time>
      </trkpt>
      <trkpt lat="44.69884" lon="1.29819">
        <ele>160.6</ele>
        <time>2024-07-23T08:50:42Z</time>
      </trkpt>
      <trkpt lat="44.69872" lon="1.29813">
        <ele>160.4</ele>
        <time>2024-07-23T08:50:44Z</time>
      </trkpt>
      <trkpt lat="44.69867" lon="1.29808">
        <ele>160.2</ele>
        <time>2024-07-23T08:50:45Z</time>
      </trkpt>
      <trkpt lat="44.69862" lon="1.29803">
        <ele>159.6</ele>
        <time>2024-07-23T08:50:46Z</time>
      </trkpt>
      <trkpt lat="44.69852" lon="1.29793">
        <ele>159.2</ele>
        <time>2024-07-23T08:50:48Z</time>
      </trkpt>
      <trkpt lat="44.69848" lon="1.29788">
        <ele>158.8</ele>
        <time>2024-07-23T08:50:49Z</time>
      </trkpt>
      <trkpt lat="44.69843" lon="1.29784">
        <ele>158.6</ele>
        <time>2024-07-23T08:50:50Z</time>
      </trkpt>
      <trkpt lat="44.6984" lon="1.29781">
        <ele>158.6</ele>
        <time>2024-07-23T08:50:51Z</time>
      </trkpt>
      <trkpt lat="44.69836" lon="1.29778">
        <ele>158.4</ele>
        <time>2024-07-23T08:50:52Z</time>
      </trkpt>
      <trkpt lat="44.69832" lon="1.29775">
        <ele>158.2</ele>
        <time>2024-07-23T08:50:53Z</time>
      </trkpt>
      <trkpt lat="44.69828" lon="1.29773">
        <ele>158.2</ele>
        <time>2024-07-23T08:50:54Z</time>
      </trkpt>
      <trkpt lat="44.69824" lon="1.2977">
        <ele>158.2</ele>
        <time>2024-07-23T08:50:55Z</time>
      </trkpt>
      <trkpt lat="44.6982" lon="1.29768">
        <ele>158</ele>
        <time>2024-07-23T08:50:56Z</time>
      </trkpt>
      <trkpt lat="44.6981" lon="1.29765">
        <ele>158</ele>
        <time>2024-07-23T08:50:58Z</time>
      </trkpt>
      <trkpt lat="44.698" lon="1.29766">
        <ele>158</ele>
        <time>2024-07-23T08:51:00Z</time>
      </trkpt>
      <trkpt lat="44.6977" lon="1.29777">
        <ele>157.4</ele>
        <time>2024-07-23T08:51:06Z</time>
      </trkpt>
      <trkpt lat="44.69763" lon="1.2978">
        <ele>157.2</ele>
        <time>2024-07-23T08:51:07Z</time>
      </trkpt>
      <trkpt lat="44.69733" lon="1.29801">
        <ele>156</ele>
        <time>2024-07-23T08:51:12Z</time>
      </trkpt>
      <trkpt lat="44.69722" lon="1.29808">
        <ele>155.4</ele>
        <time>2024-07-23T08:51:14Z</time>
      </trkpt>
      <trkpt lat="44.69708" lon="1.29814">
        <ele>154.8</ele>
        <time>2024-07-23T08:51:16Z</time>
      </trkpt>
      <trkpt lat="44.69704" lon="1.29817">
        <ele>154.6</ele>
        <time>2024-07-23T08:51:17Z</time>
      </trkpt>
      <trkpt lat="44.69697" lon="1.29819">
        <ele>154.6</ele>
        <time>2024-07-23T08:51:18Z</time>
      </trkpt>
      <trkpt lat="44.69694" lon="1.29821">
        <ele>154.4</ele>
        <time>2024-07-23T08:51:19Z</time>
      </trkpt>
      <trkpt lat="44.69691" lon="1.29823">
        <ele>154.4</ele>
        <time>2024-07-23T08:51:20Z</time>
      </trkpt>
      <trkpt lat="44.6969" lon="1.29824">
        <ele>154.6</ele>
        <time>2024-07-23T08:51:21Z</time>
      </trkpt>
      <trkpt lat="44.69687" lon="1.29825">
        <ele>154.6</ele>
        <time>2024-07-23T08:51:22Z</time>
      </trkpt>
      <trkpt lat="44.69685" lon="1.29827">
        <ele>154.8</ele>
        <time>2024-07-23T08:51:23Z</time>
      </trkpt>
      <trkpt lat="44.69671" lon="1.29837">
        <ele>155.2</ele>
        <time>2024-07-23T08:51:28Z</time>
      </trkpt>
      <trkpt lat="44.69667" lon="1.29838">
        <ele>155.2</ele>
        <time>2024-07-23T08:51:29Z</time>
      </trkpt>
      <trkpt lat="44.6965" lon="1.2985">
        <ele>155.6</ele>
        <time>2024-07-23T08:51:35Z</time>
      </trkpt>
      <trkpt lat="44.69641" lon="1.29855">
        <ele>155.8</ele>
        <time>2024-07-23T08:51:38Z</time>
      </trkpt>
      <trkpt lat="44.69629" lon="1.29857">
        <ele>156</ele>
        <time>2024-07-23T08:51:41Z</time>
      </trkpt>
      <trkpt lat="44.69607" lon="1.29861">
        <ele>156.4</ele>
        <time>2024-07-23T08:51:46Z</time>
      </trkpt>
      <trkpt lat="44.69594" lon="1.29863">
        <ele>156.4</ele>
        <time>2024-07-23T08:51:49Z</time>
      </trkpt>
      <trkpt lat="44.69591" lon="1.29863">
        <ele>156.4</ele>
        <time>2024-07-23T08:51:50Z</time>
      </trkpt>
      <trkpt lat="44.69587" lon="1.29864">
        <ele>156.4</ele>
        <time>2024-07-23T08:51:51Z</time>
      </trkpt>
      <trkpt lat="44.69581" lon="1.29865">
        <ele>156.4</ele>
        <time>2024-07-23T08:51:53Z</time>
      </trkpt>
      <trkpt lat="44.6957" lon="1.29869">
        <ele>156.4</ele>
        <time>2024-07-23T08:51:56Z</time>
      </trkpt>
      <trkpt lat="44.69567" lon="1.29871">
        <ele>156.4</ele>
        <time>2024-07-23T08:51:57Z</time>
      </trkpt>
      <trkpt lat="44.69563" lon="1.29874">
        <ele>156.4</ele>
        <time>2024-07-23T08:51:58Z</time>
      </trkpt>
      <trkpt lat="44.69548" lon="1.29897">
        <ele>156.6</ele>
        <time>2024-07-23T08:52:03Z</time>
      </trkpt>
      <trkpt lat="44.69547" lon="1.29901">
        <ele>156.8</ele>
        <time>2024-07-23T08:52:04Z</time>
      </trkpt>
      <trkpt lat="44.69546" lon="1.29905">
        <ele>156.8</ele>
        <time>2024-07-23T08:52:05Z</time>
      </trkpt>
      <trkpt lat="44.69541" lon="1.29919">
        <ele>157.4</ele>
        <time>2024-07-23T08:52:09Z</time>
      </trkpt>
      <trkpt lat="44.69538" lon="1.29928">
        <ele>157.8</ele>
        <time>2024-07-23T08:52:11Z</time>
      </trkpt>
      <trkpt lat="44.69536" lon="1.29932">
        <ele>157.8</ele>
        <time>2024-07-23T08:52:12Z</time>
      </trkpt>
      <trkpt lat="44.69535" lon="1.29935">
        <ele>158</ele>
        <time>2024-07-23T08:52:13Z</time>
      </trkpt>
      <trkpt lat="44.69533" lon="1.29938">
        <ele>158</ele>
        <time>2024-07-23T08:52:14Z</time>
      </trkpt>
      <trkpt lat="44.69532" lon="1.29942">
        <ele>158</ele>
        <time>2024-07-23T08:52:15Z</time>
      </trkpt>
      <trkpt lat="44.69531" lon="1.29946">
        <ele>158.2</ele>
        <time>2024-07-23T08:52:16Z</time>
      </trkpt>
      <trkpt lat="44.69532" lon="1.29951">
        <ele>158.4</ele>
        <time>2024-07-23T08:52:17Z</time>
      </trkpt>
      <trkpt lat="44.69531" lon="1.29954">
        <ele>158.4</ele>
        <time>2024-07-23T08:52:18Z</time>
      </trkpt>
      <trkpt lat="44.6953" lon="1.29957">
        <ele>158.4</ele>
        <time>2024-07-23T08:52:19Z</time>
      </trkpt>
      <trkpt lat="44.6953" lon="1.29959">
        <ele>158.6</ele>
        <time>2024-07-23T08:52:20Z</time>
      </trkpt>
      <trkpt lat="44.69529" lon="1.2996">
        <ele>158.6</ele>
        <time>2024-07-23T08:52:21Z</time>
      </trkpt>
      <trkpt lat="44.69529" lon="1.29961">
        <ele>158.8</ele>
        <time>2024-07-23T08:52:22Z</time>
      </trkpt>
      <trkpt lat="44.69528" lon="1.29962">
        <ele>158.8</ele>
        <time>2024-07-23T08:52:23Z</time>
      </trkpt>
      <trkpt lat="44.69528" lon="1.29963">
        <ele>159</ele>
        <time>2024-07-23T08:52:24Z</time>
      </trkpt>
      <trkpt lat="44.6953" lon="1.29963">
        <ele>159</ele>
        <time>2024-07-23T08:52:26Z</time>
      </trkpt>
      <trkpt lat="44.69533" lon="1.29951">
        <ele>159.2</ele>
        <time>2024-07-23T08:52:30Z</time>
      </trkpt>
      <trkpt lat="44.69534" lon="1.29947">
        <ele>159.2</ele>
        <time>2024-07-23T08:52:31Z</time>
      </trkpt>
      <trkpt lat="44.69539" lon="1.2993">
        <ele>159.2</ele>
        <time>2024-07-23T08:52:35Z</time>
      </trkpt>
      <trkpt lat="44.69542" lon="1.29913">
        <ele>159</ele>
        <time>2024-07-23T08:52:38Z</time>
      </trkpt>
      <trkpt lat="44.69543" lon="1.29908">
        <ele>158.8</ele>
        <time>2024-07-23T08:52:39Z</time>
      </trkpt>
      <trkpt lat="44.69544" lon="1.29904">
        <ele>158.6</ele>
        <time>2024-07-23T08:52:40Z</time>
      </trkpt>
      <trkpt lat="44.69546" lon="1.29895">
        <ele>158.4</ele>
        <time>2024-07-23T08:52:42Z</time>
      </trkpt>
      <trkpt lat="44.69547" lon="1.2989">
        <ele>158.2</ele>
        <time>2024-07-23T08:52:43Z</time>
      </trkpt>
      <trkpt lat="44.69547" lon="1.29888">
        <ele>158.2</ele>
        <time>2024-07-23T08:52:44Z</time>
      </trkpt>
      <trkpt lat="44.69546" lon="1.29886">
        <ele>158</ele>
        <time>2024-07-23T08:52:45Z</time>
      </trkpt>
      <trkpt lat="44.69544" lon="1.29883">
        <ele>157.8</ele>
        <time>2024-07-23T08:52:46Z</time>
      </trkpt>
      <trkpt lat="44.69539" lon="1.29881">
        <ele>157.4</ele>
        <time>2024-07-23T08:52:48Z</time>
      </trkpt>
      <trkpt lat="44.69536" lon="1.29881">
        <ele>157.4</ele>
        <time>2024-07-23T08:52:49Z</time>
      </trkpt>
      <trkpt lat="44.69533" lon="1.2988">
        <ele>157.2</ele>
        <time>2024-07-23T08:52:50Z</time>
      </trkpt>
      <trkpt lat="44.69531" lon="1.29879">
        <ele>156.8</ele>
        <time>2024-07-23T08:52:51Z</time>
      </trkpt>
      <trkpt lat="44.69525" lon="1.29878">
        <ele>156.2</ele>
        <time>2024-07-23T08:52:53Z</time>
      </trkpt>
      <trkpt lat="44.69515" lon="1.29872">
        <ele>155.6</ele>
        <time>2024-07-23T08:52:57Z</time>
      </trkpt>
      <trkpt lat="44.69514" lon="1.29871">
        <ele>155.6</ele>
        <time>2024-07-23T08:52:58Z</time>
      </trkpt>
      <trkpt lat="44.69512" lon="1.2987">
        <ele>155.6</ele>
        <time>2024-07-23T08:52:59Z</time>
      </trkpt>
      <trkpt lat="44.69511" lon="1.29869">
        <ele>155.6</ele>
        <time>2024-07-23T08:53:00Z</time>
      </trkpt>
      <trkpt lat="44.6951" lon="1.29868">
        <ele>155.6</ele>
        <time>2024-07-23T08:53:01Z</time>
      </trkpt>
      <trkpt lat="44.69509" lon="1.29867">
        <ele>155.6</ele>
        <time>2024-07-23T08:53:02Z</time>
      </trkpt>
      <trkpt lat="44.69507" lon="1.29866">
        <ele>155.6</ele>
        <time>2024-07-23T08:53:03Z</time>
      </trkpt>
      <trkpt lat="44.69505" lon="1.29864">
        <ele>156</ele>
        <time>2024-07-23T08:53:05Z</time>
      </trkpt>
      <trkpt lat="44.69503" lon="1.29864">
        <ele>156.2</ele>
        <time>2024-07-23T08:53:06Z</time>
      </trkpt>
      <trkpt lat="44.69502" lon="1.29863">
        <ele>156.4</ele>
        <time>2024-07-23T08:53:07Z</time>
      </trkpt>
      <trkpt lat="44.69502" lon="1.29863">
        <ele>156.6</ele>
        <time>2024-07-23T08:53:08Z</time>
      </trkpt>
      <trkpt lat="44.69501" lon="1.29862">
        <ele>156.6</ele>
        <time>2024-07-23T08:53:09Z</time>
      </trkpt>
      <trkpt lat="44.69499" lon="1.29862">
        <ele>156.8</ele>
        <time>2024-07-23T08:53:10Z</time>
      </trkpt>
      <trkpt lat="44.69498" lon="1.29861">
        <ele>157</ele>
        <time>2024-07-23T08:53:11Z</time>
      </trkpt>
      <trkpt lat="44.69498" lon="1.29861">
        <ele>157</ele>
        <time>2024-07-23T08:53:12Z</time>
      </trkpt>
      <trkpt lat="44.69498" lon="1.29861">
        <ele>157.2</ele>
        <time>2024-07-23T08:53:13Z</time>
      </trkpt>
      <trkpt lat="44.69497" lon="1.2986">
        <ele>157.2</ele>
        <time>2024-07-23T08:53:14Z</time>
      </trkpt>
      <trkpt lat="44.69496" lon="1.2986">
        <ele>157.4</ele>
        <time>2024-07-23T08:53:15Z</time>
      </trkpt>
      <trkpt lat="44.6949" lon="1.29858">
        <ele>157.8</ele>
        <time>2024-07-23T08:53:20Z</time>
      </trkpt>
      <trkpt lat="44.69489" lon="1.29858">
        <ele>158</ele>
        <time>2024-07-23T08:53:21Z</time>
      </trkpt>
      <trkpt lat="44.69488" lon="1.29857">
        <ele>158.2</ele>
        <time>2024-07-23T08:53:22Z</time>
      </trkpt>
      <trkpt lat="44.69487" lon="1.29857">
        <ele>158.2</ele>
        <time>2024-07-23T08:53:23Z</time>
      </trkpt>
      <trkpt lat="44.69483" lon="1.29855">
        <ele>159</ele>
        <time>2024-07-23T08:53:28Z</time>
      </trkpt>
      <trkpt lat="44.6948" lon="1.29853">
        <ele>159.4</ele>
        <time>2024-07-23T08:53:30Z</time>
      </trkpt>
      <trkpt lat="44.69478" lon="1.29852">
        <ele>159.8</ele>
        <time>2024-07-23T08:53:31Z</time>
      </trkpt>
      <trkpt lat="44.69477" lon="1.29852">
        <ele>160</ele>
        <time>2024-07-23T08:53:32Z</time>
      </trkpt>
      <trkpt lat="44.69476" lon="1.29851">
        <ele>160.2</ele>
        <time>2024-07-23T08:53:33Z</time>
      </trkpt>
      <trkpt lat="44.69475" lon="1.29851">
        <ele>160.4</ele>
        <time>2024-07-23T08:53:34Z</time>
      </trkpt>
      <trkpt lat="44.69474" lon="1.29851">
        <ele>160.6</ele>
        <time>2024-07-23T08:53:35Z</time>
      </trkpt>
      <trkpt lat="44.69473" lon="1.2985">
        <ele>160.8</ele>
        <time>2024-07-23T08:53:36Z</time>
      </trkpt>
      <trkpt lat="44.69472" lon="1.2985">
        <ele>161</ele>
        <time>2024-07-23T08:53:37Z</time>
      </trkpt>
      <trkpt lat="44.6947" lon="1.29849">
        <ele>161.2</ele>
        <time>2024-07-23T08:53:38Z</time>
      </trkpt>
      <trkpt lat="44.69469" lon="1.29848">
        <ele>161.4</ele>
        <time>2024-07-23T08:53:39Z</time>
      </trkpt>
      <trkpt lat="44.69467" lon="1.29847">
        <ele>161.6</ele>
        <time>2024-07-23T08:53:40Z</time>
      </trkpt>
      <trkpt lat="44.69465" lon="1.29845">
        <ele>161.8</ele>
        <time>2024-07-23T08:53:41Z</time>
      </trkpt>
      <trkpt lat="44.69464" lon="1.29843">
        <ele>162.2</ele>
        <time>2024-07-23T08:53:42Z</time>
      </trkpt>
      <trkpt lat="44.69462" lon="1.29841">
        <ele>162.4</ele>
        <time>2024-07-23T08:53:43Z</time>
      </trkpt>
      <trkpt lat="44.6946" lon="1.29838">
        <ele>162.6</ele>
        <time>2024-07-23T08:53:44Z</time>
      </trkpt>
      <trkpt lat="44.69458" lon="1.29836">
        <ele>162.8</ele>
        <time>2024-07-23T08:53:45Z</time>
      </trkpt>
      <trkpt lat="44.69456" lon="1.29834">
        <ele>162.8</ele>
        <time>2024-07-23T08:53:46Z</time>
      </trkpt>
      <trkpt lat="44.69454" lon="1.29832">
        <ele>163</ele>
        <time>2024-07-23T08:53:47Z</time>
      </trkpt>
      <trkpt lat="44.69452" lon="1.29829">
        <ele>163</ele>
        <time>2024-07-23T08:53:48Z</time>
      </trkpt>
      <trkpt lat="44.6945" lon="1.29827">
        <ele>163</ele>
        <time>2024-07-23T08:53:49Z</time>
      </trkpt>
      <trkpt lat="44.69448" lon="1.29825">
        <ele>163</ele>
        <time>2024-07-23T08:53:50Z</time>
      </trkpt>
      <trkpt lat="44.69445" lon="1.29823">
        <ele>163.2</ele>
        <time>2024-07-23T08:53:51Z</time>
      </trkpt>
      <trkpt lat="44.69443" lon="1.2982">
        <ele>163.2</ele>
        <time>2024-07-23T08:53:52Z</time>
      </trkpt>
      <trkpt lat="44.69441" lon="1.29818">
        <ele>163.2</ele>
        <time>2024-07-23T08:53:53Z</time>
      </trkpt>
      <trkpt lat="44.69439" lon="1.29815">
        <ele>163.2</ele>
        <time>2024-07-23T08:53:54Z</time>
      </trkpt>
      <trkpt lat="44.69437" lon="1.29813">
        <ele>163.2</ele>
        <time>2024-07-23T08:53:55Z</time>
      </trkpt>
      <trkpt lat="44.69434" lon="1.2981">
        <ele>163.2</ele>
        <time>2024-07-23T08:53:56Z</time>
      </trkpt>
      <trkpt lat="44.69432" lon="1.29808">
        <ele>163.2</ele>
        <time>2024-07-23T08:53:57Z</time>
      </trkpt>
      <trkpt lat="44.6943" lon="1.29805">
        <ele>163.2</ele>
        <time>2024-07-23T08:53:58Z</time>
      </trkpt>
      <trkpt lat="44.69427" lon="1.29801">
        <ele>163.2</ele>
        <time>2024-07-23T08:53:59Z</time>
      </trkpt>
      <trkpt lat="44.69424" lon="1.29798">
        <ele>163.2</ele>
        <time>2024-07-23T08:54:00Z</time>
      </trkpt>
      <trkpt lat="44.69422" lon="1.29794">
        <ele>163</ele>
        <time>2024-07-23T08:54:01Z</time>
      </trkpt>
      <trkpt lat="44.6942" lon="1.29791">
        <ele>163</ele>
        <time>2024-07-23T08:54:02Z</time>
      </trkpt>
      <trkpt lat="44.69417" lon="1.29787">
        <ele>163</ele>
        <time>2024-07-23T08:54:03Z</time>
      </trkpt>
      <trkpt lat="44.69413" lon="1.29779">
        <ele>162.8</ele>
        <time>2024-07-23T08:54:05Z</time>
      </trkpt>
      <trkpt lat="44.69405" lon="1.2976">
        <ele>162.6</ele>
        <time>2024-07-23T08:54:10Z</time>
      </trkpt>
      <trkpt lat="44.69404" lon="1.29756">
        <ele>162.6</ele>
        <time>2024-07-23T08:54:11Z</time>
      </trkpt>
      <trkpt lat="44.69403" lon="1.29752">
        <ele>162.4</ele>
        <time>2024-07-23T08:54:12Z</time>
      </trkpt>
      <trkpt lat="44.69402" lon="1.29748">
        <ele>162.4</ele>
        <time>2024-07-23T08:54:13Z</time>
      </trkpt>
      <trkpt lat="44.69401" lon="1.29744">
        <ele>162.4</ele>
        <time>2024-07-23T08:54:14Z</time>
      </trkpt>
      <trkpt lat="44.69399" lon="1.2974">
        <ele>162.4</ele>
        <time>2024-07-23T08:54:15Z</time>
      </trkpt>
      <trkpt lat="44.69398" lon="1.29735">
        <ele>162.4</ele>
        <time>2024-07-23T08:54:16Z</time>
      </trkpt>
      <trkpt lat="44.69394" lon="1.29713">
        <ele>162.6</ele>
        <time>2024-07-23T08:54:21Z</time>
      </trkpt>
      <trkpt lat="44.69392" lon="1.29682">
        <ele>163</ele>
        <time>2024-07-23T08:54:27Z</time>
      </trkpt>
      <trkpt lat="44.69393" lon="1.29639">
        <ele>162.8</ele>
        <time>2024-07-23T08:54:34Z</time>
      </trkpt>
      <trkpt lat="44.69393" lon="1.29632">
        <ele>162.6</ele>
        <time>2024-07-23T08:54:35Z</time>
      </trkpt>
      <trkpt lat="44.69394" lon="1.29589">
        <ele>161.6</ele>
        <time>2024-07-23T08:54:41Z</time>
      </trkpt>
      <trkpt lat="44.69395" lon="1.29539">
        <ele>160.8</ele>
        <time>2024-07-23T08:54:48Z</time>
      </trkpt>
      <trkpt lat="44.69396" lon="1.29524">
        <ele>160.8</ele>
        <time>2024-07-23T08:54:50Z</time>
      </trkpt>
      <trkpt lat="44.69396" lon="1.29518">
        <ele>160.8</ele>
        <time>2024-07-23T08:54:51Z</time>
      </trkpt>
      <trkpt lat="44.69396" lon="1.29504">
        <ele>160.6</ele>
        <time>2024-07-23T08:54:53Z</time>
      </trkpt>
      <trkpt lat="44.69396" lon="1.29498">
        <ele>160.4</ele>
        <time>2024-07-23T08:54:54Z</time>
      </trkpt>
      <trkpt lat="44.69396" lon="1.29491">
        <ele>160</ele>
        <time>2024-07-23T08:54:55Z</time>
      </trkpt>
      <trkpt lat="44.69394" lon="1.29438">
        <ele>159.6</ele>
        <time>2024-07-23T08:55:02Z</time>
      </trkpt>
      <trkpt lat="44.69392" lon="1.2943">
        <ele>159.6</ele>
        <time>2024-07-23T08:55:03Z</time>
      </trkpt>
      <trkpt lat="44.6939" lon="1.29423">
        <ele>159.2</ele>
        <time>2024-07-23T08:55:04Z</time>
      </trkpt>
      <trkpt lat="44.69386" lon="1.29416">
        <ele>159.2</ele>
        <time>2024-07-23T08:55:05Z</time>
      </trkpt>
      <trkpt lat="44.69382" lon="1.2941">
        <ele>159</ele>
        <time>2024-07-23T08:55:06Z</time>
      </trkpt>
      <trkpt lat="44.69377" lon="1.29405">
        <ele>158.6</ele>
        <time>2024-07-23T08:55:07Z</time>
      </trkpt>
      <trkpt lat="44.69371" lon="1.294">
        <ele>158.6</ele>
        <time>2024-07-23T08:55:08Z</time>
      </trkpt>
      <trkpt lat="44.69365" lon="1.29396">
        <ele>157.8</ele>
        <time>2024-07-23T08:55:09Z</time>
      </trkpt>
      <trkpt lat="44.69359" lon="1.29392">
        <ele>157.6</ele>
        <time>2024-07-23T08:55:10Z</time>
      </trkpt>
      <trkpt lat="44.69342" lon="1.29378">
        <ele>156.4</ele>
        <time>2024-07-23T08:55:13Z</time>
      </trkpt>
      <trkpt lat="44.69337" lon="1.29372">
        <ele>156</ele>
        <time>2024-07-23T08:55:14Z</time>
      </trkpt>
      <trkpt lat="44.69334" lon="1.29365">
        <ele>155.8</ele>
        <time>2024-07-23T08:55:15Z</time>
      </trkpt>
      <trkpt lat="44.69331" lon="1.29357">
        <ele>155.6</ele>
        <time>2024-07-23T08:55:16Z</time>
      </trkpt>
      <trkpt lat="44.6933" lon="1.29349">
        <ele>155.6</ele>
        <time>2024-07-23T08:55:17Z</time>
      </trkpt>
      <trkpt lat="44.69329" lon="1.29341">
        <ele>155.2</ele>
        <time>2024-07-23T08:55:18Z</time>
      </trkpt>
      <trkpt lat="44.69329" lon="1.29334">
        <ele>155.2</ele>
        <time>2024-07-23T08:55:19Z</time>
      </trkpt>
      <trkpt lat="44.69329" lon="1.29328">
        <ele>155</ele>
        <time>2024-07-23T08:55:20Z</time>
      </trkpt>
      <trkpt lat="44.69329" lon="1.29322">
        <ele>155</ele>
        <time>2024-07-23T08:55:21Z</time>
      </trkpt>
      <trkpt lat="44.69328" lon="1.29317">
        <ele>155</ele>
        <time>2024-07-23T08:55:22Z</time>
      </trkpt>
      <trkpt lat="44.69328" lon="1.29312">
        <ele>155</ele>
        <time>2024-07-23T08:55:23Z</time>
      </trkpt>
      <trkpt lat="44.69327" lon="1.29306">
        <ele>155</ele>
        <time>2024-07-23T08:55:24Z</time>
      </trkpt>
      <trkpt lat="44.69327" lon="1.29302">
        <ele>154.8</ele>
        <time>2024-07-23T08:55:25Z</time>
      </trkpt>
      <trkpt lat="44.69327" lon="1.29297">
        <ele>154.8</ele>
        <time>2024-07-23T08:55:26Z</time>
      </trkpt>
      <trkpt lat="44.69326" lon="1.29293">
        <ele>154.8</ele>
        <time>2024-07-23T08:55:27Z</time>
      </trkpt>
      <trkpt lat="44.69326" lon="1.29289">
        <ele>155</ele>
        <time>2024-07-23T08:55:28Z</time>
      </trkpt>
      <trkpt lat="44.69327" lon="1.29285">
        <ele>155</ele>
        <time>2024-07-23T08:55:29Z</time>
      </trkpt>
      <trkpt lat="44.69329" lon="1.29281">
        <ele>155</ele>
        <time>2024-07-23T08:55:30Z</time>
      </trkpt>
      <trkpt lat="44.6933" lon="1.29278">
        <ele>155.2</ele>
        <time>2024-07-23T08:55:31Z</time>
      </trkpt>
      <trkpt lat="44.69332" lon="1.29277">
        <ele>155.4</ele>
        <time>2024-07-23T08:55:32Z</time>
      </trkpt>
      <trkpt lat="44.69333" lon="1.29276">
        <ele>155.4</ele>
        <time>2024-07-23T08:55:33Z</time>
      </trkpt>
      <trkpt lat="44.69336" lon="1.29276">
        <ele>155.6</ele>
        <time>2024-07-23T08:55:34Z</time>
      </trkpt>
      <trkpt lat="44.69341" lon="1.29276">
        <ele>155.8</ele>
        <time>2024-07-23T08:55:36Z</time>
      </trkpt>
      <trkpt lat="44.69344" lon="1.29276">
        <ele>156</ele>
        <time>2024-07-23T08:55:37Z</time>
      </trkpt>
      <trkpt lat="44.69349" lon="1.29277">
        <ele>156</ele>
        <time>2024-07-23T08:55:39Z</time>
      </trkpt>
      <trkpt lat="44.69351" lon="1.29276">
        <ele>156</ele>
        <time>2024-07-23T08:55:40Z</time>
      </trkpt>
      <trkpt lat="44.69357" lon="1.29277">
        <ele>156.2</ele>
        <time>2024-07-23T08:55:42Z</time>
      </trkpt>
      <trkpt lat="44.69368" lon="1.29278">
        <ele>156.2</ele>
        <time>2024-07-23T08:55:46Z</time>
      </trkpt>
      <trkpt lat="44.69396" lon="1.29281">
        <ele>156</ele>
        <time>2024-07-23T08:55:56Z</time>
      </trkpt>
      <trkpt lat="44.69415" lon="1.29279">
        <ele>155.8</ele>
        <time>2024-07-23T08:56:02Z</time>
      </trkpt>
      <trkpt lat="44.69417" lon="1.29276">
        <ele>155.8</ele>
        <time>2024-07-23T08:56:03Z</time>
      </trkpt>
      <trkpt lat="44.69418" lon="1.29272">
        <ele>155.8</ele>
        <time>2024-07-23T08:56:04Z</time>
      </trkpt>
      <trkpt lat="44.69419" lon="1.2926">
        <ele>155.8</ele>
        <time>2024-07-23T08:56:07Z</time>
      </trkpt>
      <trkpt lat="44.6942" lon="1.29256">
        <ele>155.8</ele>
        <time>2024-07-23T08:56:08Z</time>
      </trkpt>
      <trkpt lat="44.6942" lon="1.29248">
        <ele>155.8</ele>
        <time>2024-07-23T08:56:10Z</time>
      </trkpt>
      <trkpt lat="44.69419" lon="1.2924">
        <ele>155.8</ele>
        <time>2024-07-23T08:56:12Z</time>
      </trkpt>
      <trkpt lat="44.69419" lon="1.29237">
        <ele>155.8</ele>
        <time>2024-07-23T08:56:13Z</time>
      </trkpt>
      <trkpt lat="44.69419" lon="1.29234">
        <ele>156</ele>
        <time>2024-07-23T08:56:14Z</time>
      </trkpt>
      <trkpt lat="44.69418" lon="1.29231">
        <ele>156</ele>
        <time>2024-07-23T08:56:15Z</time>
      </trkpt>
      <trkpt lat="44.69417" lon="1.29229">
        <ele>156.2</ele>
        <time>2024-07-23T08:56:16Z</time>
      </trkpt>
      <trkpt lat="44.69415" lon="1.29222">
        <ele>156.8</ele>
        <time>2024-07-23T08:56:19Z</time>
      </trkpt>
      <trkpt lat="44.69414" lon="1.29219">
        <ele>156.8</ele>
        <time>2024-07-23T08:56:20Z</time>
      </trkpt>
      <trkpt lat="44.69413" lon="1.29216">
        <ele>157</ele>
        <time>2024-07-23T08:56:21Z</time>
      </trkpt>
      <trkpt lat="44.69413" lon="1.29213">
        <ele>157</ele>
        <time>2024-07-23T08:56:22Z</time>
      </trkpt>
      <trkpt lat="44.69412" lon="1.29211">
        <ele>157.2</ele>
        <time>2024-07-23T08:56:23Z</time>
      </trkpt>
      <trkpt lat="44.69411" lon="1.29208">
        <ele>157.2</ele>
        <time>2024-07-23T08:56:24Z</time>
      </trkpt>
      <trkpt lat="44.69407" lon="1.29199">
        <ele>157.4</ele>
        <time>2024-07-23T08:56:28Z</time>
      </trkpt>
      <trkpt lat="44.69399" lon="1.29177">
        <ele>158.6</ele>
        <time>2024-07-23T08:56:36Z</time>
      </trkpt>
      <trkpt lat="44.69399" lon="1.29174">
        <ele>158.6</ele>
        <time>2024-07-23T08:56:37Z</time>
      </trkpt>
      <trkpt lat="44.69398" lon="1.29172">
        <ele>158.8</ele>
        <time>2024-07-23T08:56:38Z</time>
      </trkpt>
      <trkpt lat="44.69396" lon="1.29162">
        <ele>159.4</ele>
        <time>2024-07-23T08:56:42Z</time>
      </trkpt>
      <trkpt lat="44.69396" lon="1.29159">
        <ele>159.6</ele>
        <time>2024-07-23T08:56:43Z</time>
      </trkpt>
      <trkpt lat="44.69395" lon="1.29157">
        <ele>159.6</ele>
        <time>2024-07-23T08:56:44Z</time>
      </trkpt>
      <trkpt lat="44.69395" lon="1.29155">
        <ele>159.8</ele>
        <time>2024-07-23T08:56:45Z</time>
      </trkpt>
      <trkpt lat="44.69394" lon="1.29152">
        <ele>160</ele>
        <time>2024-07-23T08:56:46Z</time>
      </trkpt>
      <trkpt lat="44.69394" lon="1.29149">
        <ele>160</ele>
        <time>2024-07-23T08:56:47Z</time>
      </trkpt>
      <trkpt lat="44.69394" lon="1.29147">
        <ele>160</ele>
        <time>2024-07-23T08:56:48Z</time>
      </trkpt>
      <trkpt lat="44.69393" lon="1.29144">
        <ele>160.4</ele>
        <time>2024-07-23T08:56:49Z</time>
      </trkpt>
      <trkpt lat="44.69393" lon="1.29142">
        <ele>160.6</ele>
        <time>2024-07-23T08:56:50Z</time>
      </trkpt>
      <trkpt lat="44.69393" lon="1.29138">
        <ele>160.6</ele>
        <time>2024-07-23T08:56:51Z</time>
      </trkpt>
      <trkpt lat="44.69392" lon="1.29135">
        <ele>160.8</ele>
        <time>2024-07-23T08:56:52Z</time>
      </trkpt>
      <trkpt lat="44.69391" lon="1.29132">
        <ele>160.8</ele>
        <time>2024-07-23T08:56:53Z</time>
      </trkpt>
      <trkpt lat="44.69391" lon="1.29129">
        <ele>161</ele>
        <time>2024-07-23T08:56:54Z</time>
      </trkpt>
      <trkpt lat="44.6939" lon="1.29127">
        <ele>161.2</ele>
        <time>2024-07-23T08:56:55Z</time>
      </trkpt>
      <trkpt lat="44.6939" lon="1.29124">
        <ele>161.4</ele>
        <time>2024-07-23T08:56:56Z</time>
      </trkpt>
      <trkpt lat="44.69389" lon="1.29121">
        <ele>161.6</ele>
        <time>2024-07-23T08:56:57Z</time>
      </trkpt>
      <trkpt lat="44.69389" lon="1.29118">
        <ele>161.6</ele>
        <time>2024-07-23T08:56:58Z</time>
      </trkpt>
      <trkpt lat="44.69388" lon="1.29115">
        <ele>161.8</ele>
        <time>2024-07-23T08:56:59Z</time>
      </trkpt>
      <trkpt lat="44.69388" lon="1.29112">
        <ele>162</ele>
        <time>2024-07-23T08:57:00Z</time>
      </trkpt>
      <trkpt lat="44.69387" lon="1.29109">
        <ele>162.2</ele>
        <time>2024-07-23T08:57:01Z</time>
      </trkpt>
      <trkpt lat="44.69387" lon="1.29106">
        <ele>162.4</ele>
        <time>2024-07-23T08:57:02Z</time>
      </trkpt>
      <trkpt lat="44.69387" lon="1.29103">
        <ele>162.4</ele>
        <time>2024-07-23T08:57:03Z</time>
      </trkpt>
      <trkpt lat="44.69386" lon="1.291">
        <ele>162.4</ele>
        <time>2024-07-23T08:57:04Z</time>
      </trkpt>
      <trkpt lat="44.69385" lon="1.29097">
        <ele>162.4</ele>
        <time>2024-07-23T08:57:05Z</time>
      </trkpt>
      <trkpt lat="44.69385" lon="1.29094">
        <ele>162.6</ele>
        <time>2024-07-23T08:57:06Z</time>
      </trkpt>
      <trkpt lat="44.69384" lon="1.29091">
        <ele>162.6</ele>
        <time>2024-07-23T08:57:07Z</time>
      </trkpt>
      <trkpt lat="44.69384" lon="1.29088">
        <ele>162.6</ele>
        <time>2024-07-23T08:57:08Z</time>
      </trkpt>
      <trkpt lat="44.69383" lon="1.29085">
        <ele>162.8</ele>
        <time>2024-07-23T08:57:09Z</time>
      </trkpt>
      <trkpt lat="44.69383" lon="1.29082">
        <ele>162.8</ele>
        <time>2024-07-23T08:57:10Z</time>
      </trkpt>
      <trkpt lat="44.69382" lon="1.29078">
        <ele>163</ele>
        <time>2024-07-23T08:57:11Z</time>
      </trkpt>
      <trkpt lat="44.69382" lon="1.29074">
        <ele>163</ele>
        <time>2024-07-23T08:57:12Z</time>
      </trkpt>
      <trkpt lat="44.69382" lon="1.29069">
        <ele>163.2</ele>
        <time>2024-07-23T08:57:13Z</time>
      </trkpt>
      <trkpt lat="44.69381" lon="1.29065">
        <ele>163.2</ele>
        <time>2024-07-23T08:57:14Z</time>
      </trkpt>
      <trkpt lat="44.69381" lon="1.29058">
        <ele>163.2</ele>
        <time>2024-07-23T08:57:15Z</time>
      </trkpt>
      <trkpt lat="44.6938" lon="1.29053">
        <ele>163.2</ele>
        <time>2024-07-23T08:57:16Z</time>
      </trkpt>
      <trkpt lat="44.69379" lon="1.29046">
        <ele>163.2</ele>
        <time>2024-07-23T08:57:17Z</time>
      </trkpt>
      <trkpt lat="44.69379" lon="1.2904">
        <ele>163.2</ele>
        <time>2024-07-23T08:57:18Z</time>
      </trkpt>
      <trkpt lat="44.69378" lon="1.29034">
        <ele>163.2</ele>
        <time>2024-07-23T08:57:19Z</time>
      </trkpt>
      <trkpt lat="44.69377" lon="1.29027">
        <ele>163.2</ele>
        <time>2024-07-23T08:57:20Z</time>
      </trkpt>
      <trkpt lat="44.69377" lon="1.29021">
        <ele>163.2</ele>
        <time>2024-07-23T08:57:21Z</time>
      </trkpt>
      <trkpt lat="44.69375" lon="1.29007">
        <ele>162.6</ele>
        <time>2024-07-23T08:57:23Z</time>
      </trkpt>
      <trkpt lat="44.69372" lon="1.28983">
        <ele>162</ele>
        <time>2024-07-23T08:57:27Z</time>
      </trkpt>
      <trkpt lat="44.69372" lon="1.28978">
        <ele>162</ele>
        <time>2024-07-23T08:57:28Z</time>
      </trkpt>
      <trkpt lat="44.69372" lon="1.28973">
        <ele>162</ele>
        <time>2024-07-23T08:57:29Z</time>
      </trkpt>
      <trkpt lat="44.69372" lon="1.28969">
        <ele>161.8</ele>
        <time>2024-07-23T08:57:30Z</time>
      </trkpt>
      <trkpt lat="44.69372" lon="1.28965">
        <ele>161.8</ele>
        <time>2024-07-23T08:57:31Z</time>
      </trkpt>
      <trkpt lat="44.69373" lon="1.28962">
        <ele>161.8</ele>
        <time>2024-07-23T08:57:32Z</time>
      </trkpt>
      <trkpt lat="44.69373" lon="1.28958">
        <ele>161.8</ele>
        <time>2024-07-23T08:57:33Z</time>
      </trkpt>
      <trkpt lat="44.69373" lon="1.28955">
        <ele>161.8</ele>
        <time>2024-07-23T08:57:34Z</time>
      </trkpt>
      <trkpt lat="44.69374" lon="1.28952">
        <ele>161.8</ele>
        <time>2024-07-23T08:57:35Z</time>
      </trkpt>
      <trkpt lat="44.69376" lon="1.28939">
        <ele>161.8</ele>
        <time>2024-07-23T08:57:38Z</time>
      </trkpt>
      <trkpt lat="44.69381" lon="1.28915">
        <ele>161.8</ele>
        <time>2024-07-23T08:57:42Z</time>
      </trkpt>
      <trkpt lat="44.69384" lon="1.28899">
        <ele>161.8</ele>
        <time>2024-07-23T08:57:44Z</time>
      </trkpt>
      <trkpt lat="44.69384" lon="1.28879">
        <ele>161.6</ele>
        <time>2024-07-23T08:57:46Z</time>
      </trkpt>
      <trkpt lat="44.69382" lon="1.28869">
        <ele>161.4</ele>
        <time>2024-07-23T08:57:47Z</time>
      </trkpt>
      <trkpt lat="44.6938" lon="1.2886">
        <ele>161.2</ele>
        <time>2024-07-23T08:57:48Z</time>
      </trkpt>
      <trkpt lat="44.69377" lon="1.2885">
        <ele>160.8</ele>
        <time>2024-07-23T08:57:49Z</time>
      </trkpt>
      <trkpt lat="44.69372" lon="1.2884">
        <ele>160.4</ele>
        <time>2024-07-23T08:57:50Z</time>
      </trkpt>
      <trkpt lat="44.69367" lon="1.2883">
        <ele>160</ele>
        <time>2024-07-23T08:57:51Z</time>
      </trkpt>
      <trkpt lat="44.69362" lon="1.28822">
        <ele>159.8</ele>
        <time>2024-07-23T08:57:52Z</time>
      </trkpt>
      <trkpt lat="44.69356" lon="1.28814">
        <ele>159.4</ele>
        <time>2024-07-23T08:57:53Z</time>
      </trkpt>
      <trkpt lat="44.69345" lon="1.288">
        <ele>158.6</ele>
        <time>2024-07-23T08:57:55Z</time>
      </trkpt>
      <trkpt lat="44.69337" lon="1.28792">
        <ele>158.2</ele>
        <time>2024-07-23T08:57:56Z</time>
      </trkpt>
      <trkpt lat="44.69316" lon="1.28764">
        <ele>157</ele>
        <time>2024-07-23T08:58:00Z</time>
      </trkpt>
      <trkpt lat="44.693" lon="1.28731">
        <ele>156.2</ele>
        <time>2024-07-23T08:58:04Z</time>
      </trkpt>
      <trkpt lat="44.69297" lon="1.28723">
        <ele>156</ele>
        <time>2024-07-23T08:58:05Z</time>
      </trkpt>
      <trkpt lat="44.69294" lon="1.28714">
        <ele>156</ele>
        <time>2024-07-23T08:58:06Z</time>
      </trkpt>
      <trkpt lat="44.69289" lon="1.28698">
        <ele>156</ele>
        <time>2024-07-23T08:58:08Z</time>
      </trkpt>
      <trkpt lat="44.69286" lon="1.28689">
        <ele>155.8</ele>
        <time>2024-07-23T08:58:09Z</time>
      </trkpt>
      <trkpt lat="44.69276" lon="1.28666">
        <ele>155.6</ele>
        <time>2024-07-23T08:58:12Z</time>
      </trkpt>
      <trkpt lat="44.69273" lon="1.28659">
        <ele>155.6</ele>
        <time>2024-07-23T08:58:13Z</time>
      </trkpt>
      <trkpt lat="44.69254" lon="1.28628">
        <ele>155.6</ele>
        <time>2024-07-23T08:58:18Z</time>
      </trkpt>
      <trkpt lat="44.6925" lon="1.28623">
        <ele>155.6</ele>
        <time>2024-07-23T08:58:19Z</time>
      </trkpt>
      <trkpt lat="44.69246" lon="1.28618">
        <ele>155.6</ele>
        <time>2024-07-23T08:58:20Z</time>
      </trkpt>
      <trkpt lat="44.69242" lon="1.28613">
        <ele>155.6</ele>
        <time>2024-07-23T08:58:21Z</time>
      </trkpt>
      <trkpt lat="44.69229" lon="1.28599">
        <ele>155.6</ele>
        <time>2024-07-23T08:58:24Z</time>
      </trkpt>
      <trkpt lat="44.69224" lon="1.28595">
        <ele>155.6</ele>
        <time>2024-07-23T08:58:25Z</time>
      </trkpt>
      <trkpt lat="44.6922" lon="1.28592">
        <ele>155.6</ele>
        <time>2024-07-23T08:58:26Z</time>
      </trkpt>
      <trkpt lat="44.69215" lon="1.28589">
        <ele>155.6</ele>
        <time>2024-07-23T08:58:27Z</time>
      </trkpt>
      <trkpt lat="44.6921" lon="1.28586">
        <ele>155.6</ele>
        <time>2024-07-23T08:58:28Z</time>
      </trkpt>
      <trkpt lat="44.69205" lon="1.28583">
        <ele>155.6</ele>
        <time>2024-07-23T08:58:29Z</time>
      </trkpt>
      <trkpt lat="44.692" lon="1.28581">
        <ele>155.6</ele>
        <time>2024-07-23T08:58:30Z</time>
      </trkpt>
      <trkpt lat="44.69196" lon="1.28579">
        <ele>155.6</ele>
        <time>2024-07-23T08:58:31Z</time>
      </trkpt>
      <trkpt lat="44.69191" lon="1.28576">
        <ele>155.6</ele>
        <time>2024-07-23T08:58:32Z</time>
      </trkpt>
      <trkpt lat="44.69186" lon="1.28574">
        <ele>155.8</ele>
        <time>2024-07-23T08:58:33Z</time>
      </trkpt>
      <trkpt lat="44.69182" lon="1.28572">
        <ele>155.8</ele>
        <time>2024-07-23T08:58:34Z</time>
      </trkpt>
      <trkpt lat="44.69177" lon="1.28571">
        <ele>156</ele>
        <time>2024-07-23T08:58:35Z</time>
      </trkpt>
      <trkpt lat="44.69172" lon="1.28569">
        <ele>156.2</ele>
        <time>2024-07-23T08:58:36Z</time>
      </trkpt>
      <trkpt lat="44.69169" lon="1.28567">
        <ele>156.2</ele>
        <time>2024-07-23T08:58:37Z</time>
      </trkpt>
      <trkpt lat="44.69164" lon="1.28565">
        <ele>156.4</ele>
        <time>2024-07-23T08:58:38Z</time>
      </trkpt>
      <trkpt lat="44.69159" lon="1.28563">
        <ele>156.6</ele>
        <time>2024-07-23T08:58:39Z</time>
      </trkpt>
      <trkpt lat="44.69156" lon="1.28562">
        <ele>156.8</ele>
        <time>2024-07-23T08:58:40Z</time>
      </trkpt>
      <trkpt lat="44.69151" lon="1.2856">
        <ele>156.8</ele>
        <time>2024-07-23T08:58:41Z</time>
      </trkpt>
      <trkpt lat="44.69148" lon="1.28558">
        <ele>157</ele>
        <time>2024-07-23T08:58:42Z</time>
      </trkpt>
      <trkpt lat="44.69144" lon="1.28555">
        <ele>157.4</ele>
        <time>2024-07-23T08:58:43Z</time>
      </trkpt>
      <trkpt lat="44.69141" lon="1.28553">
        <ele>157.4</ele>
        <time>2024-07-23T08:58:44Z</time>
      </trkpt>
      <trkpt lat="44.69137" lon="1.2855">
        <ele>157.6</ele>
        <time>2024-07-23T08:58:45Z</time>
      </trkpt>
      <trkpt lat="44.69134" lon="1.28546">
        <ele>157.8</ele>
        <time>2024-07-23T08:58:46Z</time>
      </trkpt>
      <trkpt lat="44.69131" lon="1.28543">
        <ele>158</ele>
        <time>2024-07-23T08:58:47Z</time>
      </trkpt>
      <trkpt lat="44.69128" lon="1.28538">
        <ele>158</ele>
        <time>2024-07-23T08:58:48Z</time>
      </trkpt>
      <trkpt lat="44.69125" lon="1.28533">
        <ele>158.4</ele>
        <time>2024-07-23T08:58:49Z</time>
      </trkpt>
      <trkpt lat="44.69123" lon="1.28529">
        <ele>158.4</ele>
        <time>2024-07-23T08:58:50Z</time>
      </trkpt>
      <trkpt lat="44.69121" lon="1.28524">
        <ele>158.6</ele>
        <time>2024-07-23T08:58:51Z</time>
      </trkpt>
      <trkpt lat="44.69119" lon="1.28519">
        <ele>158.8</ele>
        <time>2024-07-23T08:58:52Z</time>
      </trkpt>
      <trkpt lat="44.69117" lon="1.28515">
        <ele>158.8</ele>
        <time>2024-07-23T08:58:53Z</time>
      </trkpt>
      <trkpt lat="44.69115" lon="1.28511">
        <ele>159</ele>
        <time>2024-07-23T08:58:54Z</time>
      </trkpt>
      <trkpt lat="44.69113" lon="1.28507">
        <ele>159</ele>
        <time>2024-07-23T08:58:55Z</time>
      </trkpt>
      <trkpt lat="44.69111" lon="1.28503">
        <ele>159.2</ele>
        <time>2024-07-23T08:58:56Z</time>
      </trkpt>
      <trkpt lat="44.69109" lon="1.28497">
        <ele>159.6</ele>
        <time>2024-07-23T08:58:57Z</time>
      </trkpt>
      <trkpt lat="44.69108" lon="1.28493">
        <ele>159.6</ele>
        <time>2024-07-23T08:58:58Z</time>
      </trkpt>
      <trkpt lat="44.69106" lon="1.28488">
        <ele>159.8</ele>
        <time>2024-07-23T08:58:59Z</time>
      </trkpt>
      <trkpt lat="44.69104" lon="1.28484">
        <ele>160</ele>
        <time>2024-07-23T08:59:00Z</time>
      </trkpt>
      <trkpt lat="44.69102" lon="1.2848">
        <ele>160.2</ele>
        <time>2024-07-23T08:59:01Z</time>
      </trkpt>
      <trkpt lat="44.69101" lon="1.28475">
        <ele>160.2</ele>
        <time>2024-07-23T08:59:02Z</time>
      </trkpt>
      <trkpt lat="44.69099" lon="1.28471">
        <ele>160.4</ele>
        <time>2024-07-23T08:59:03Z</time>
      </trkpt>
      <trkpt lat="44.69097" lon="1.28467">
        <ele>160.6</ele>
        <time>2024-07-23T08:59:04Z</time>
      </trkpt>
      <trkpt lat="44.69095" lon="1.28462">
        <ele>160.6</ele>
        <time>2024-07-23T08:59:05Z</time>
      </trkpt>
      <trkpt lat="44.69093" lon="1.28458">
        <ele>160.8</ele>
        <time>2024-07-23T08:59:06Z</time>
      </trkpt>
      <trkpt lat="44.69091" lon="1.28454">
        <ele>160.8</ele>
        <time>2024-07-23T08:59:07Z</time>
      </trkpt>
      <trkpt lat="44.69089" lon="1.28449">
        <ele>161</ele>
        <time>2024-07-23T08:59:08Z</time>
      </trkpt>
      <trkpt lat="44.69087" lon="1.28445">
        <ele>161</ele>
        <time>2024-07-23T08:59:09Z</time>
      </trkpt>
      <trkpt lat="44.69084" lon="1.28441">
        <ele>161</ele>
        <time>2024-07-23T08:59:10Z</time>
      </trkpt>
      <trkpt lat="44.69082" lon="1.28436">
        <ele>161.2</ele>
        <time>2024-07-23T08:59:11Z</time>
      </trkpt>
      <trkpt lat="44.69079" lon="1.28432">
        <ele>161.2</ele>
        <time>2024-07-23T08:59:12Z</time>
      </trkpt>
      <trkpt lat="44.69077" lon="1.28428">
        <ele>161.2</ele>
        <time>2024-07-23T08:59:13Z</time>
      </trkpt>
      <trkpt lat="44.69073" lon="1.28423">
        <ele>161.2</ele>
        <time>2024-07-23T08:59:14Z</time>
      </trkpt>
      <trkpt lat="44.6907" lon="1.28419">
        <ele>161.4</ele>
        <time>2024-07-23T08:59:15Z</time>
      </trkpt>
      <trkpt lat="44.69067" lon="1.28414">
        <ele>161.4</ele>
        <time>2024-07-23T08:59:16Z</time>
      </trkpt>
      <trkpt lat="44.69064" lon="1.2841">
        <ele>161.4</ele>
        <time>2024-07-23T08:59:17Z</time>
      </trkpt>
      <trkpt lat="44.6906" lon="1.28405">
        <ele>161.4</ele>
        <time>2024-07-23T08:59:18Z</time>
      </trkpt>
      <trkpt lat="44.69057" lon="1.284">
        <ele>161.4</ele>
        <time>2024-07-23T08:59:19Z</time>
      </trkpt>
      <trkpt lat="44.69054" lon="1.28395">
        <ele>161.4</ele>
        <time>2024-07-23T08:59:20Z</time>
      </trkpt>
      <trkpt lat="44.69051" lon="1.2839">
        <ele>161.4</ele>
        <time>2024-07-23T08:59:21Z</time>
      </trkpt>
      <trkpt lat="44.69047" lon="1.28385">
        <ele>161.4</ele>
        <time>2024-07-23T08:59:22Z</time>
      </trkpt>
      <trkpt lat="44.69044" lon="1.2838">
        <ele>161.2</ele>
        <time>2024-07-23T08:59:23Z</time>
      </trkpt>
      <trkpt lat="44.69027" lon="1.2835">
        <ele>161</ele>
        <time>2024-07-23T08:59:29Z</time>
      </trkpt>
      <trkpt lat="44.69025" lon="1.28346">
        <ele>160.8</ele>
        <time>2024-07-23T08:59:30Z</time>
      </trkpt>
      <trkpt lat="44.69023" lon="1.28341">
        <ele>160.8</ele>
        <time>2024-07-23T08:59:31Z</time>
      </trkpt>
      <trkpt lat="44.6902" lon="1.28336">
        <ele>160.8</ele>
        <time>2024-07-23T08:59:32Z</time>
      </trkpt>
      <trkpt lat="44.69018" lon="1.28332">
        <ele>160.8</ele>
        <time>2024-07-23T08:59:33Z</time>
      </trkpt>
      <trkpt lat="44.69015" lon="1.28327">
        <ele>160.8</ele>
        <time>2024-07-23T08:59:34Z</time>
      </trkpt>
      <trkpt lat="44.69013" lon="1.28323">
        <ele>160.8</ele>
        <time>2024-07-23T08:59:35Z</time>
      </trkpt>
      <trkpt lat="44.69011" lon="1.28319">
        <ele>160.8</ele>
        <time>2024-07-23T08:59:36Z</time>
      </trkpt>
      <trkpt lat="44.69008" lon="1.28315">
        <ele>160.8</ele>
        <time>2024-07-23T08:59:37Z</time>
      </trkpt>
      <trkpt lat="44.69006" lon="1.28311">
        <ele>160.8</ele>
        <time>2024-07-23T08:59:38Z</time>
      </trkpt>
      <trkpt lat="44.69003" lon="1.28307">
        <ele>160.8</ele>
        <time>2024-07-23T08:59:39Z</time>
      </trkpt>
      <trkpt lat="44.69" lon="1.28303">
        <ele>160.8</ele>
        <time>2024-07-23T08:59:40Z</time>
      </trkpt>
      <trkpt lat="44.68997" lon="1.28299">
        <ele>160.8</ele>
        <time>2024-07-23T08:59:41Z</time>
      </trkpt>
      <trkpt lat="44.68994" lon="1.28296">
        <ele>160.8</ele>
        <time>2024-07-23T08:59:42Z</time>
      </trkpt>
      <trkpt lat="44.68992" lon="1.28292">
        <ele>160.8</ele>
        <time>2024-07-23T08:59:43Z</time>
      </trkpt>
      <trkpt lat="44.68989" lon="1.28289">
        <ele>161</ele>
        <time>2024-07-23T08:59:44Z</time>
      </trkpt>
      <trkpt lat="44.68983" lon="1.28282">
        <ele>161</ele>
        <time>2024-07-23T08:59:46Z</time>
      </trkpt>
      <trkpt lat="44.68956" lon="1.28252">
        <ele>161.6</ele>
        <time>2024-07-23T08:59:54Z</time>
      </trkpt>
      <trkpt lat="44.6893" lon="1.28214">
        <ele>161.4</ele>
        <time>2024-07-23T09:00:02Z</time>
      </trkpt>
      <trkpt lat="44.68905" lon="1.28189">
        <ele>161.2</ele>
        <time>2024-07-23T09:00:09Z</time>
      </trkpt>
      <trkpt lat="44.689" lon="1.28187">
        <ele>161.4</ele>
        <time>2024-07-23T09:00:10Z</time>
      </trkpt>
      <trkpt lat="44.68896" lon="1.28184">
        <ele>161.4</ele>
        <time>2024-07-23T09:00:11Z</time>
      </trkpt>
      <trkpt lat="44.68892" lon="1.28181">
        <ele>161.4</ele>
        <time>2024-07-23T09:00:12Z</time>
      </trkpt>
      <trkpt lat="44.68888" lon="1.28179">
        <ele>161.4</ele>
        <time>2024-07-23T09:00:13Z</time>
      </trkpt>
      <trkpt lat="44.68885" lon="1.28177">
        <ele>161.4</ele>
        <time>2024-07-23T09:00:14Z</time>
      </trkpt>
      <trkpt lat="44.68881" lon="1.28174">
        <ele>161.4</ele>
        <time>2024-07-23T09:00:15Z</time>
      </trkpt>
      <trkpt lat="44.68878" lon="1.28171">
        <ele>161.6</ele>
        <time>2024-07-23T09:00:16Z</time>
      </trkpt>
      <trkpt lat="44.68875" lon="1.28169">
        <ele>161.6</ele>
        <time>2024-07-23T09:00:17Z</time>
      </trkpt>
      <trkpt lat="44.68869" lon="1.28162">
        <ele>162</ele>
        <time>2024-07-23T09:00:19Z</time>
      </trkpt>
      <trkpt lat="44.68857" lon="1.28148">
        <ele>162.2</ele>
        <time>2024-07-23T09:00:22Z</time>
      </trkpt>
      <trkpt lat="44.6884" lon="1.28129">
        <ele>162.2</ele>
        <time>2024-07-23T09:00:26Z</time>
      </trkpt>
      <trkpt lat="44.68832" lon="1.28118">
        <ele>162</ele>
        <time>2024-07-23T09:00:28Z</time>
      </trkpt>
      <trkpt lat="44.68828" lon="1.28113">
        <ele>161.8</ele>
        <time>2024-07-23T09:00:29Z</time>
      </trkpt>
      <trkpt lat="44.68806" lon="1.28081">
        <ele>161</ele>
        <time>2024-07-23T09:00:35Z</time>
      </trkpt>
      <trkpt lat="44.68801" lon="1.28076">
        <ele>161</ele>
        <time>2024-07-23T09:00:36Z</time>
      </trkpt>
      <trkpt lat="44.68797" lon="1.28072">
        <ele>160.8</ele>
        <time>2024-07-23T09:00:37Z</time>
      </trkpt>
      <trkpt lat="44.68794" lon="1.28068">
        <ele>160.8</ele>
        <time>2024-07-23T09:00:38Z</time>
      </trkpt>
      <trkpt lat="44.6879" lon="1.28064">
        <ele>160.8</ele>
        <time>2024-07-23T09:00:39Z</time>
      </trkpt>
      <trkpt lat="44.68786" lon="1.28058">
        <ele>160.8</ele>
        <time>2024-07-23T09:00:40Z</time>
      </trkpt>
      <trkpt lat="44.68782" lon="1.28054">
        <ele>160.8</ele>
        <time>2024-07-23T09:00:41Z</time>
      </trkpt>
      <trkpt lat="44.68779" lon="1.2805">
        <ele>160.8</ele>
        <time>2024-07-23T09:00:42Z</time>
      </trkpt>
      <trkpt lat="44.68775" lon="1.28046">
        <ele>160.8</ele>
        <time>2024-07-23T09:00:43Z</time>
      </trkpt>
      <trkpt lat="44.68772" lon="1.28042">
        <ele>160.8</ele>
        <time>2024-07-23T09:00:44Z</time>
      </trkpt>
      <trkpt lat="44.68768" lon="1.28038">
        <ele>160.8</ele>
        <time>2024-07-23T09:00:45Z</time>
      </trkpt>
      <trkpt lat="44.68765" lon="1.28035">
        <ele>160.8</ele>
        <time>2024-07-23T09:00:46Z</time>
      </trkpt>
      <trkpt lat="44.68762" lon="1.28032">
        <ele>160.8</ele>
        <time>2024-07-23T09:00:47Z</time>
      </trkpt>
      <trkpt lat="44.68759" lon="1.28029">
        <ele>161</ele>
        <time>2024-07-23T09:00:48Z</time>
      </trkpt>
      <trkpt lat="44.68756" lon="1.28025">
        <ele>161</ele>
        <time>2024-07-23T09:00:49Z</time>
      </trkpt>
      <trkpt lat="44.6875" lon="1.28018">
        <ele>161</ele>
        <time>2024-07-23T09:00:51Z</time>
      </trkpt>
      <trkpt lat="44.68749" lon="1.28015">
        <ele>161</ele>
        <time>2024-07-23T09:00:52Z</time>
      </trkpt>
      <trkpt lat="44.68747" lon="1.28009">
        <ele>161.2</ele>
        <time>2024-07-23T09:00:53Z</time>
      </trkpt>
      <trkpt lat="44.68747" lon="1.28003">
        <ele>161.2</ele>
        <time>2024-07-23T09:00:54Z</time>
      </trkpt>
      <trkpt lat="44.68748" lon="1.27994">
        <ele>161.2</ele>
        <time>2024-07-23T09:00:55Z</time>
      </trkpt>
      <trkpt lat="44.68748" lon="1.27988">
        <ele>161.2</ele>
        <time>2024-07-23T09:00:56Z</time>
      </trkpt>
      <trkpt lat="44.6875" lon="1.27981">
        <ele>161</ele>
        <time>2024-07-23T09:00:57Z</time>
      </trkpt>
      <trkpt lat="44.68751" lon="1.27973">
        <ele>161</ele>
        <time>2024-07-23T09:00:58Z</time>
      </trkpt>
      <trkpt lat="44.68751" lon="1.27955">
        <ele>160.6</ele>
        <time>2024-07-23T09:01:00Z</time>
      </trkpt>
      <trkpt lat="44.6875" lon="1.27947">
        <ele>160.4</ele>
        <time>2024-07-23T09:01:01Z</time>
      </trkpt>
      <trkpt lat="44.68749" lon="1.2794">
        <ele>160.2</ele>
        <time>2024-07-23T09:01:02Z</time>
      </trkpt>
      <trkpt lat="44.68748" lon="1.27935">
        <ele>160</ele>
        <time>2024-07-23T09:01:03Z</time>
      </trkpt>
      <trkpt lat="44.68746" lon="1.27928">
        <ele>159.8</ele>
        <time>2024-07-23T09:01:04Z</time>
      </trkpt>
      <trkpt lat="44.68744" lon="1.27921">
        <ele>159.8</ele>
        <time>2024-07-23T09:01:05Z</time>
      </trkpt>
      <trkpt lat="44.68742" lon="1.27913">
        <ele>159.6</ele>
        <time>2024-07-23T09:01:06Z</time>
      </trkpt>
      <trkpt lat="44.68741" lon="1.27907">
        <ele>159.4</ele>
        <time>2024-07-23T09:01:07Z</time>
      </trkpt>
      <trkpt lat="44.68741" lon="1.27902">
        <ele>159.4</ele>
        <time>2024-07-23T09:01:08Z</time>
      </trkpt>
      <trkpt lat="44.68741" lon="1.27897">
        <ele>159.4</ele>
        <time>2024-07-23T09:01:09Z</time>
      </trkpt>
      <trkpt lat="44.68742" lon="1.27892">
        <ele>159.4</ele>
        <time>2024-07-23T09:01:10Z</time>
      </trkpt>
      <trkpt lat="44.68742" lon="1.27886">
        <ele>159.4</ele>
        <time>2024-07-23T09:01:11Z</time>
      </trkpt>
      <trkpt lat="44.68742" lon="1.27875">
        <ele>159.4</ele>
        <time>2024-07-23T09:01:13Z</time>
      </trkpt>
      <trkpt lat="44.68741" lon="1.2787">
        <ele>159.4</ele>
        <time>2024-07-23T09:01:14Z</time>
      </trkpt>
      <trkpt lat="44.6874" lon="1.27866">
        <ele>159.4</ele>
        <time>2024-07-23T09:01:15Z</time>
      </trkpt>
      <trkpt lat="44.68738" lon="1.2786">
        <ele>159.6</ele>
        <time>2024-07-23T09:01:16Z</time>
      </trkpt>
      <trkpt lat="44.68726" lon="1.27822">
        <ele>160</ele>
        <time>2024-07-23T09:01:22Z</time>
      </trkpt>
      <trkpt lat="44.68724" lon="1.27817">
        <ele>160</ele>
        <time>2024-07-23T09:01:23Z</time>
      </trkpt>
      <trkpt lat="44.68719" lon="1.27782">
        <ele>160.2</ele>
        <time>2024-07-23T09:01:29Z</time>
      </trkpt>
      <trkpt lat="44.6872" lon="1.27776">
        <ele>160.2</ele>
        <time>2024-07-23T09:01:30Z</time>
      </trkpt>
      <trkpt lat="44.68722" lon="1.2777">
        <ele>160.2</ele>
        <time>2024-07-23T09:01:31Z</time>
      </trkpt>
      <trkpt lat="44.68726" lon="1.27757">
        <ele>160.2</ele>
        <time>2024-07-23T09:01:33Z</time>
      </trkpt>
      <trkpt lat="44.68733" lon="1.27744">
        <ele>160.4</ele>
        <time>2024-07-23T09:01:36Z</time>
      </trkpt>
      <trkpt lat="44.68736" lon="1.27739">
        <ele>160.6</ele>
        <time>2024-07-23T09:01:37Z</time>
      </trkpt>
      <trkpt lat="44.68738" lon="1.27735">
        <ele>160.6</ele>
        <time>2024-07-23T09:01:38Z</time>
      </trkpt>
      <trkpt lat="44.68739" lon="1.27731">
        <ele>160.8</ele>
        <time>2024-07-23T09:01:39Z</time>
      </trkpt>
      <trkpt lat="44.68741" lon="1.27728">
        <ele>161</ele>
        <time>2024-07-23T09:01:40Z</time>
      </trkpt>
      <trkpt lat="44.68742" lon="1.27725">
        <ele>161</ele>
        <time>2024-07-23T09:01:41Z</time>
      </trkpt>
      <trkpt lat="44.68744" lon="1.27723">
        <ele>161.2</ele>
        <time>2024-07-23T09:01:42Z</time>
      </trkpt>
      <trkpt lat="44.68746" lon="1.27721">
        <ele>161.4</ele>
        <time>2024-07-23T09:01:43Z</time>
      </trkpt>
      <trkpt lat="44.68747" lon="1.2772">
        <ele>161.6</ele>
        <time>2024-07-23T09:01:44Z</time>
      </trkpt>
      <trkpt lat="44.68747" lon="1.27718">
        <ele>162</ele>
        <time>2024-07-23T09:01:45Z</time>
      </trkpt>
      <trkpt lat="44.68747" lon="1.27718">
        <ele>162</ele>
        <time>2024-07-23T09:01:46Z</time>
      </trkpt>
      <trkpt lat="44.68747" lon="1.27717">
        <ele>162.4</ele>
        <time>2024-07-23T09:01:47Z</time>
      </trkpt>
      <trkpt lat="44.68747" lon="1.27717">
        <ele>162.6</ele>
        <time>2024-07-23T09:01:49Z</time>
      </trkpt>
      <trkpt lat="44.68747" lon="1.27711">
        <ele>162.4</ele>
        <time>2024-07-23T09:02:28Z</time>
      </trkpt>
      <trkpt lat="44.68746" lon="1.27707">
        <ele>162.4</ele>
        <time>2024-07-23T09:02:29Z</time>
      </trkpt>
      <trkpt lat="44.68741" lon="1.277">
        <ele>162.4</ele>
        <time>2024-07-23T09:02:31Z</time>
      </trkpt>
      <trkpt lat="44.68738" lon="1.27696">
        <ele>162.4</ele>
        <time>2024-07-23T09:02:32Z</time>
      </trkpt>
      <trkpt lat="44.68735" lon="1.27692">
        <ele>162.4</ele>
        <time>2024-07-23T09:02:33Z</time>
      </trkpt>
      <trkpt lat="44.68723" lon="1.27675">
        <ele>162</ele>
        <time>2024-07-23T09:02:37Z</time>
      </trkpt>
      <trkpt lat="44.68711" lon="1.27656">
        <ele>161.8</ele>
        <time>2024-07-23T09:02:41Z</time>
      </trkpt>
      <trkpt lat="44.68702" lon="1.27644">
        <ele>162</ele>
        <time>2024-07-23T09:02:44Z</time>
      </trkpt>
      <trkpt lat="44.68699" lon="1.2764">
        <ele>162</ele>
        <time>2024-07-23T09:02:45Z</time>
      </trkpt>
      <trkpt lat="44.68694" lon="1.27633">
        <ele>162</ele>
        <time>2024-07-23T09:02:47Z</time>
      </trkpt>
      <trkpt lat="44.68692" lon="1.27629">
        <ele>162</ele>
        <time>2024-07-23T09:02:48Z</time>
      </trkpt>
      <trkpt lat="44.68689" lon="1.27625">
        <ele>162</ele>
        <time>2024-07-23T09:02:49Z</time>
      </trkpt>
      <trkpt lat="44.68686" lon="1.2762">
        <ele>162</ele>
        <time>2024-07-23T09:02:50Z</time>
      </trkpt>
      <trkpt lat="44.68683" lon="1.27616">
        <ele>162.2</ele>
        <time>2024-07-23T09:02:51Z</time>
      </trkpt>
      <trkpt lat="44.68674" lon="1.27604">
        <ele>162.2</ele>
        <time>2024-07-23T09:02:54Z</time>
      </trkpt>
      <trkpt lat="44.6865" lon="1.27571">
        <ele>163.2</ele>
        <time>2024-07-23T09:03:02Z</time>
      </trkpt>
      <trkpt lat="44.68647" lon="1.27567">
        <ele>163.4</ele>
        <time>2024-07-23T09:03:03Z</time>
      </trkpt>
      <trkpt lat="44.68612" lon="1.27515">
        <ele>164</ele>
        <time>2024-07-23T09:03:15Z</time>
      </trkpt>
      <trkpt lat="44.68593" lon="1.27479">
        <ele>164.2</ele>
        <time>2024-07-23T09:03:22Z</time>
      </trkpt>
      <trkpt lat="44.68588" lon="1.27468">
        <ele>164</ele>
        <time>2024-07-23T09:03:24Z</time>
      </trkpt>
      <trkpt lat="44.68583" lon="1.27456">
        <ele>164</ele>
        <time>2024-07-23T09:03:26Z</time>
      </trkpt>
      <trkpt lat="44.68561" lon="1.27405">
        <ele>164</ele>
        <time>2024-07-23T09:03:35Z</time>
      </trkpt>
      <trkpt lat="44.68536" lon="1.27339">
        <ele>164</ele>
        <time>2024-07-23T09:03:47Z</time>
      </trkpt>
      <trkpt lat="44.68512" lon="1.27278">
        <ele>164.6</ele>
        <time>2024-07-23T09:03:57Z</time>
      </trkpt>
      <trkpt lat="44.68506" lon="1.2726">
        <ele>164.8</ele>
        <time>2024-07-23T09:04:00Z</time>
      </trkpt>
      <trkpt lat="44.68504" lon="1.27254">
        <ele>164.8</ele>
        <time>2024-07-23T09:04:01Z</time>
      </trkpt>
      <trkpt lat="44.68502" lon="1.27248">
        <ele>164.8</ele>
        <time>2024-07-23T09:04:02Z</time>
      </trkpt>
      <trkpt lat="44.685" lon="1.27242">
        <ele>164.8</ele>
        <time>2024-07-23T09:04:03Z</time>
      </trkpt>
      <trkpt lat="44.68498" lon="1.27235">
        <ele>164.8</ele>
        <time>2024-07-23T09:04:04Z</time>
      </trkpt>
      <trkpt lat="44.68497" lon="1.27229">
        <ele>164.8</ele>
        <time>2024-07-23T09:04:05Z</time>
      </trkpt>
      <trkpt lat="44.68495" lon="1.27222">
        <ele>164.8</ele>
        <time>2024-07-23T09:04:06Z</time>
      </trkpt>
      <trkpt lat="44.68493" lon="1.27216">
        <ele>164.8</ele>
        <time>2024-07-23T09:04:07Z</time>
      </trkpt>
      <trkpt lat="44.68486" lon="1.27183">
        <ele>165</ele>
        <time>2024-07-23T09:04:12Z</time>
      </trkpt>
      <trkpt lat="44.68483" lon="1.2717">
        <ele>165</ele>
        <time>2024-07-23T09:04:14Z</time>
      </trkpt>
      <trkpt lat="44.68482" lon="1.27164">
        <ele>165</ele>
        <time>2024-07-23T09:04:15Z</time>
      </trkpt>
      <trkpt lat="44.68481" lon="1.27158">
        <ele>165</ele>
        <time>2024-07-23T09:04:16Z</time>
      </trkpt>
      <trkpt lat="44.68479" lon="1.27152">
        <ele>165</ele>
        <time>2024-07-23T09:04:17Z</time>
      </trkpt>
      <trkpt lat="44.68478" lon="1.27146">
        <ele>165</ele>
        <time>2024-07-23T09:04:18Z</time>
      </trkpt>
      <trkpt lat="44.68476" lon="1.27139">
        <ele>165</ele>
        <time>2024-07-23T09:04:19Z</time>
      </trkpt>
      <trkpt lat="44.68475" lon="1.27133">
        <ele>165</ele>
        <time>2024-07-23T09:04:20Z</time>
      </trkpt>
      <trkpt lat="44.68472" lon="1.27121">
        <ele>165.2</ele>
        <time>2024-07-23T09:04:22Z</time>
      </trkpt>
      <trkpt lat="44.6847" lon="1.27115">
        <ele>165.2</ele>
        <time>2024-07-23T09:04:23Z</time>
      </trkpt>
      <trkpt lat="44.68469" lon="1.27109">
        <ele>165.4</ele>
        <time>2024-07-23T09:04:24Z</time>
      </trkpt>
      <trkpt lat="44.68467" lon="1.27102">
        <ele>165.4</ele>
        <time>2024-07-23T09:04:25Z</time>
      </trkpt>
      <trkpt lat="44.68466" lon="1.27096">
        <ele>165.4</ele>
        <time>2024-07-23T09:04:26Z</time>
      </trkpt>
      <trkpt lat="44.68463" lon="1.27084">
        <ele>165.4</ele>
        <time>2024-07-23T09:04:28Z</time>
      </trkpt>
      <trkpt lat="44.68459" lon="1.27072">
        <ele>165.4</ele>
        <time>2024-07-23T09:04:30Z</time>
      </trkpt>
      <trkpt lat="44.68458" lon="1.27066">
        <ele>165.4</ele>
        <time>2024-07-23T09:04:31Z</time>
      </trkpt>
      <trkpt lat="44.68456" lon="1.2706">
        <ele>165.4</ele>
        <time>2024-07-23T09:04:32Z</time>
      </trkpt>
      <trkpt lat="44.68455" lon="1.27055">
        <ele>165.4</ele>
        <time>2024-07-23T09:04:33Z</time>
      </trkpt>
      <trkpt lat="44.68451" lon="1.27042">
        <ele>165.6</ele>
        <time>2024-07-23T09:04:35Z</time>
      </trkpt>
      <trkpt lat="44.68437" lon="1.27013">
        <ele>165.6</ele>
        <time>2024-07-23T09:04:40Z</time>
      </trkpt>
      <trkpt lat="44.68434" lon="1.27008">
        <ele>165.6</ele>
        <time>2024-07-23T09:04:41Z</time>
      </trkpt>
      <trkpt lat="44.68416" lon="1.26984">
        <ele>166</ele>
        <time>2024-07-23T09:04:46Z</time>
      </trkpt>
      <trkpt lat="44.68378" lon="1.26947">
        <ele>166.2</ele>
        <time>2024-07-23T09:04:55Z</time>
      </trkpt>
      <trkpt lat="44.68367" lon="1.26936">
        <ele>166.4</ele>
        <time>2024-07-23T09:04:58Z</time>
      </trkpt>
      <trkpt lat="44.68363" lon="1.26933">
        <ele>166.4</ele>
        <time>2024-07-23T09:04:59Z</time>
      </trkpt>
      <trkpt lat="44.6836" lon="1.26929">
        <ele>166.4</ele>
        <time>2024-07-23T09:05:00Z</time>
      </trkpt>
      <trkpt lat="44.68356" lon="1.26925">
        <ele>166.4</ele>
        <time>2024-07-23T09:05:01Z</time>
      </trkpt>
      <trkpt lat="44.68352" lon="1.26921">
        <ele>166.4</ele>
        <time>2024-07-23T09:05:02Z</time>
      </trkpt>
      <trkpt lat="44.68348" lon="1.26918">
        <ele>166.6</ele>
        <time>2024-07-23T09:05:03Z</time>
      </trkpt>
      <trkpt lat="44.68344" lon="1.26914">
        <ele>166.6</ele>
        <time>2024-07-23T09:05:04Z</time>
      </trkpt>
      <trkpt lat="44.68313" lon="1.26885">
        <ele>166.8</ele>
        <time>2024-07-23T09:05:12Z</time>
      </trkpt>
      <trkpt lat="44.68309" lon="1.26881">
        <ele>166.8</ele>
        <time>2024-07-23T09:05:13Z</time>
      </trkpt>
      <trkpt lat="44.68305" lon="1.26877">
        <ele>166.8</ele>
        <time>2024-07-23T09:05:14Z</time>
      </trkpt>
      <trkpt lat="44.68302" lon="1.26873">
        <ele>166.8</ele>
        <time>2024-07-23T09:05:15Z</time>
      </trkpt>
      <trkpt lat="44.68298" lon="1.2687">
        <ele>166.8</ele>
        <time>2024-07-23T09:05:16Z</time>
      </trkpt>
      <trkpt lat="44.68294" lon="1.26866">
        <ele>167</ele>
        <time>2024-07-23T09:05:17Z</time>
      </trkpt>
      <trkpt lat="44.68291" lon="1.26863">
        <ele>167</ele>
        <time>2024-07-23T09:05:18Z</time>
      </trkpt>
      <trkpt lat="44.68287" lon="1.26859">
        <ele>167.2</ele>
        <time>2024-07-23T09:05:19Z</time>
      </trkpt>
      <trkpt lat="44.68284" lon="1.26856">
        <ele>167.2</ele>
        <time>2024-07-23T09:05:20Z</time>
      </trkpt>
      <trkpt lat="44.68281" lon="1.26853">
        <ele>167.2</ele>
        <time>2024-07-23T09:05:21Z</time>
      </trkpt>
      <trkpt lat="44.68277" lon="1.2685">
        <ele>167.2</ele>
        <time>2024-07-23T09:05:22Z</time>
      </trkpt>
      <trkpt lat="44.68274" lon="1.26846">
        <ele>167.4</ele>
        <time>2024-07-23T09:05:23Z</time>
      </trkpt>
      <trkpt lat="44.68271" lon="1.26843">
        <ele>167.4</ele>
        <time>2024-07-23T09:05:24Z</time>
      </trkpt>
      <trkpt lat="44.68267" lon="1.2684">
        <ele>167.4</ele>
        <time>2024-07-23T09:05:25Z</time>
      </trkpt>
      <trkpt lat="44.68264" lon="1.26836">
        <ele>167.4</ele>
        <time>2024-07-23T09:05:26Z</time>
      </trkpt>
      <trkpt lat="44.68261" lon="1.26833">
        <ele>167.4</ele>
        <time>2024-07-23T09:05:27Z</time>
      </trkpt>
      <trkpt lat="44.68257" lon="1.2683">
        <ele>167.4</ele>
        <time>2024-07-23T09:05:28Z</time>
      </trkpt>
      <trkpt lat="44.68254" lon="1.26828">
        <ele>167.4</ele>
        <time>2024-07-23T09:05:29Z</time>
      </trkpt>
      <trkpt lat="44.68251" lon="1.26825">
        <ele>167.4</ele>
        <time>2024-07-23T09:05:30Z</time>
      </trkpt>
      <trkpt lat="44.68244" lon="1.26818">
        <ele>167.4</ele>
        <time>2024-07-23T09:05:32Z</time>
      </trkpt>
      <trkpt lat="44.68224" lon="1.26799">
        <ele>167.4</ele>
        <time>2024-07-23T09:05:38Z</time>
      </trkpt>
      <trkpt lat="44.68213" lon="1.26789">
        <ele>167.4</ele>
        <time>2024-07-23T09:05:41Z</time>
      </trkpt>
      <trkpt lat="44.68183" lon="1.26759">
        <ele>168</ele>
        <time>2024-07-23T09:05:50Z</time>
      </trkpt>
      <trkpt lat="44.6818" lon="1.26755">
        <ele>168</ele>
        <time>2024-07-23T09:05:51Z</time>
      </trkpt>
      <trkpt lat="44.68177" lon="1.26752">
        <ele>168</ele>
        <time>2024-07-23T09:05:52Z</time>
      </trkpt>
      <trkpt lat="44.68173" lon="1.2675">
        <ele>168</ele>
        <time>2024-07-23T09:05:53Z</time>
      </trkpt>
      <trkpt lat="44.6817" lon="1.26747">
        <ele>168.2</ele>
        <time>2024-07-23T09:05:54Z</time>
      </trkpt>
      <trkpt lat="44.68167" lon="1.26744">
        <ele>168.2</ele>
        <time>2024-07-23T09:05:55Z</time>
      </trkpt>
      <trkpt lat="44.68164" lon="1.26741">
        <ele>168.2</ele>
        <time>2024-07-23T09:05:56Z</time>
      </trkpt>
      <trkpt lat="44.68162" lon="1.26738">
        <ele>168.4</ele>
        <time>2024-07-23T09:05:57Z</time>
      </trkpt>
      <trkpt lat="44.68159" lon="1.26734">
        <ele>168.4</ele>
        <time>2024-07-23T09:05:58Z</time>
      </trkpt>
      <trkpt lat="44.68158" lon="1.26729">
        <ele>168.4</ele>
        <time>2024-07-23T09:05:59Z</time>
      </trkpt>
      <trkpt lat="44.68157" lon="1.26724">
        <ele>168.4</ele>
        <time>2024-07-23T09:06:00Z</time>
      </trkpt>
      <trkpt lat="44.68157" lon="1.26719">
        <ele>168.4</ele>
        <time>2024-07-23T09:06:01Z</time>
      </trkpt>
      <trkpt lat="44.68156" lon="1.26714">
        <ele>168.4</ele>
        <time>2024-07-23T09:06:02Z</time>
      </trkpt>
      <trkpt lat="44.68155" lon="1.26709">
        <ele>168.4</ele>
        <time>2024-07-23T09:06:03Z</time>
      </trkpt>
      <trkpt lat="44.68155" lon="1.26705">
        <ele>168.4</ele>
        <time>2024-07-23T09:06:04Z</time>
      </trkpt>
      <trkpt lat="44.68154" lon="1.267">
        <ele>168.4</ele>
        <time>2024-07-23T09:06:05Z</time>
      </trkpt>
      <trkpt lat="44.68153" lon="1.26694">
        <ele>168.4</ele>
        <time>2024-07-23T09:06:06Z</time>
      </trkpt>
      <trkpt lat="44.68152" lon="1.26689">
        <ele>168.6</ele>
        <time>2024-07-23T09:06:07Z</time>
      </trkpt>
      <trkpt lat="44.6815" lon="1.2668">
        <ele>168.6</ele>
        <time>2024-07-23T09:06:09Z</time>
      </trkpt>
      <trkpt lat="44.68141" lon="1.26646">
        <ele>169</ele>
        <time>2024-07-23T09:06:16Z</time>
      </trkpt>
      <trkpt lat="44.68139" lon="1.26642">
        <ele>169</ele>
        <time>2024-07-23T09:06:17Z</time>
      </trkpt>
      <trkpt lat="44.68137" lon="1.26633">
        <ele>169.4</ele>
        <time>2024-07-23T09:06:19Z</time>
      </trkpt>
      <trkpt lat="44.68136" lon="1.26629">
        <ele>169.4</ele>
        <time>2024-07-23T09:06:20Z</time>
      </trkpt>
      <trkpt lat="44.68134" lon="1.26625">
        <ele>169.4</ele>
        <time>2024-07-23T09:06:21Z</time>
      </trkpt>
      <trkpt lat="44.68132" lon="1.26622">
        <ele>169.4</ele>
        <time>2024-07-23T09:06:22Z</time>
      </trkpt>
      <trkpt lat="44.68131" lon="1.26618">
        <ele>169.6</ele>
        <time>2024-07-23T09:06:23Z</time>
      </trkpt>
      <trkpt lat="44.6813" lon="1.26615">
        <ele>169.6</ele>
        <time>2024-07-23T09:06:24Z</time>
      </trkpt>
      <trkpt lat="44.68129" lon="1.26612">
        <ele>169.6</ele>
        <time>2024-07-23T09:06:25Z</time>
      </trkpt>
      <trkpt lat="44.68128" lon="1.26609">
        <ele>169.8</ele>
        <time>2024-07-23T09:06:26Z</time>
      </trkpt>
      <trkpt lat="44.68127" lon="1.26604">
        <ele>169.8</ele>
        <time>2024-07-23T09:06:27Z</time>
      </trkpt>
      <trkpt lat="44.68126" lon="1.266">
        <ele>169.8</ele>
        <time>2024-07-23T09:06:28Z</time>
      </trkpt>
      <trkpt lat="44.68127" lon="1.26595">
        <ele>169.8</ele>
        <time>2024-07-23T09:06:29Z</time>
      </trkpt>
      <trkpt lat="44.68128" lon="1.26591">
        <ele>170</ele>
        <time>2024-07-23T09:06:30Z</time>
      </trkpt>
      <trkpt lat="44.68131" lon="1.26587">
        <ele>170.2</ele>
        <time>2024-07-23T09:06:31Z</time>
      </trkpt>
      <trkpt lat="44.68132" lon="1.26582">
        <ele>170.2</ele>
        <time>2024-07-23T09:06:32Z</time>
      </trkpt>
      <trkpt lat="44.68134" lon="1.26573">
        <ele>170.4</ele>
        <time>2024-07-23T09:06:34Z</time>
      </trkpt>
      <trkpt lat="44.68136" lon="1.26569">
        <ele>170.6</ele>
        <time>2024-07-23T09:06:35Z</time>
      </trkpt>
      <trkpt lat="44.68145" lon="1.26537">
        <ele>171</ele>
        <time>2024-07-23T09:06:42Z</time>
      </trkpt>
      <trkpt lat="44.68144" lon="1.26519">
        <ele>171.2</ele>
        <time>2024-07-23T09:06:46Z</time>
      </trkpt>
      <trkpt lat="44.68143" lon="1.26515">
        <ele>171.2</ele>
        <time>2024-07-23T09:06:47Z</time>
      </trkpt>
      <trkpt lat="44.68143" lon="1.26511">
        <ele>171.2</ele>
        <time>2024-07-23T09:06:48Z</time>
      </trkpt>
      <trkpt lat="44.68141" lon="1.265">
        <ele>171.2</ele>
        <time>2024-07-23T09:06:51Z</time>
      </trkpt>
      <trkpt lat="44.6814" lon="1.26496">
        <ele>171.2</ele>
        <time>2024-07-23T09:06:52Z</time>
      </trkpt>
      <trkpt lat="44.68139" lon="1.26492">
        <ele>171.2</ele>
        <time>2024-07-23T09:06:53Z</time>
      </trkpt>
      <trkpt lat="44.68139" lon="1.26488">
        <ele>171.2</ele>
        <time>2024-07-23T09:06:54Z</time>
      </trkpt>
      <trkpt lat="44.68138" lon="1.26484">
        <ele>171.2</ele>
        <time>2024-07-23T09:06:55Z</time>
      </trkpt>
      <trkpt lat="44.68137" lon="1.2648">
        <ele>171.2</ele>
        <time>2024-07-23T09:06:56Z</time>
      </trkpt>
      <trkpt lat="44.68137" lon="1.26476">
        <ele>171.2</ele>
        <time>2024-07-23T09:06:57Z</time>
      </trkpt>
      <trkpt lat="44.68137" lon="1.26472">
        <ele>171.2</ele>
        <time>2024-07-23T09:06:58Z</time>
      </trkpt>
      <trkpt lat="44.68135" lon="1.26464">
        <ele>171.2</ele>
        <time>2024-07-23T09:07:00Z</time>
      </trkpt>
      <trkpt lat="44.68134" lon="1.26459">
        <ele>171.2</ele>
        <time>2024-07-23T09:07:01Z</time>
      </trkpt>
      <trkpt lat="44.68127" lon="1.26442">
        <ele>171.2</ele>
        <time>2024-07-23T09:07:05Z</time>
      </trkpt>
      <trkpt lat="44.68124" lon="1.26439">
        <ele>171.2</ele>
        <time>2024-07-23T09:07:06Z</time>
      </trkpt>
      <trkpt lat="44.68122" lon="1.26438">
        <ele>171.2</ele>
        <time>2024-07-23T09:07:07Z</time>
      </trkpt>
      <trkpt lat="44.6812" lon="1.26438">
        <ele>171</ele>
        <time>2024-07-23T09:07:08Z</time>
      </trkpt>
      <trkpt lat="44.68118" lon="1.26437">
        <ele>171</ele>
        <time>2024-07-23T09:07:09Z</time>
      </trkpt>
      <trkpt lat="44.68115" lon="1.26437">
        <ele>171</ele>
        <time>2024-07-23T09:07:10Z</time>
      </trkpt>
      <trkpt lat="44.68113" lon="1.26437">
        <ele>171.2</ele>
        <time>2024-07-23T09:07:11Z</time>
      </trkpt>
      <trkpt lat="44.68111" lon="1.26436">
        <ele>171.2</ele>
        <time>2024-07-23T09:07:12Z</time>
      </trkpt>
      <trkpt lat="44.6811" lon="1.26436">
        <ele>171.4</ele>
        <time>2024-07-23T09:07:13Z</time>
      </trkpt>
      <trkpt lat="44.68108" lon="1.26436">
        <ele>171.4</ele>
        <time>2024-07-23T09:07:14Z</time>
      </trkpt>
      <trkpt lat="44.68105" lon="1.26435">
        <ele>171.6</ele>
        <time>2024-07-23T09:07:16Z</time>
      </trkpt>
      <trkpt lat="44.68097" lon="1.26431">
        <ele>172.2</ele>
        <time>2024-07-23T09:07:20Z</time>
      </trkpt>
      <trkpt lat="44.68096" lon="1.26431">
        <ele>172.2</ele>
        <time>2024-07-23T09:07:21Z</time>
      </trkpt>
      <trkpt lat="44.68094" lon="1.2643">
        <ele>172.4</ele>
        <time>2024-07-23T09:07:22Z</time>
      </trkpt>
      <trkpt lat="44.68092" lon="1.26429">
        <ele>172.6</ele>
        <time>2024-07-23T09:07:23Z</time>
      </trkpt>
      <trkpt lat="44.6809" lon="1.26429">
        <ele>172.6</ele>
        <time>2024-07-23T09:07:24Z</time>
      </trkpt>
      <trkpt lat="44.68089" lon="1.26427">
        <ele>172.8</ele>
        <time>2024-07-23T09:07:25Z</time>
      </trkpt>
      <trkpt lat="44.68088" lon="1.26427">
        <ele>172.8</ele>
        <time>2024-07-23T09:07:26Z</time>
      </trkpt>
      <trkpt lat="44.68086" lon="1.26426">
        <ele>173</ele>
        <time>2024-07-23T09:07:27Z</time>
      </trkpt>
      <trkpt lat="44.68085" lon="1.26426">
        <ele>173.2</ele>
        <time>2024-07-23T09:07:28Z</time>
      </trkpt>
      <trkpt lat="44.68083" lon="1.26425">
        <ele>173.2</ele>
        <time>2024-07-23T09:07:29Z</time>
      </trkpt>
      <trkpt lat="44.68082" lon="1.26425">
        <ele>173.4</ele>
        <time>2024-07-23T09:07:30Z</time>
      </trkpt>
      <trkpt lat="44.68081" lon="1.26424">
        <ele>173.6</ele>
        <time>2024-07-23T09:07:31Z</time>
      </trkpt>
      <trkpt lat="44.68079" lon="1.26423">
        <ele>173.8</ele>
        <time>2024-07-23T09:07:32Z</time>
      </trkpt>
      <trkpt lat="44.68078" lon="1.26423">
        <ele>173.8</ele>
        <time>2024-07-23T09:07:33Z</time>
      </trkpt>
      <trkpt lat="44.68077" lon="1.26422">
        <ele>174</ele>
        <time>2024-07-23T09:07:34Z</time>
      </trkpt>
      <trkpt lat="44.68076" lon="1.26422">
        <ele>174.4</ele>
        <time>2024-07-23T09:07:35Z</time>
      </trkpt>
      <trkpt lat="44.68074" lon="1.26421">
        <ele>174.4</ele>
        <time>2024-07-23T09:07:36Z</time>
      </trkpt>
      <trkpt lat="44.68073" lon="1.2642">
        <ele>174.6</ele>
        <time>2024-07-23T09:07:37Z</time>
      </trkpt>
      <trkpt lat="44.68072" lon="1.2642">
        <ele>174.6</ele>
        <time>2024-07-23T09:07:38Z</time>
      </trkpt>
      <trkpt lat="44.68071" lon="1.26419">
        <ele>175</ele>
        <time>2024-07-23T09:07:39Z</time>
      </trkpt>
      <trkpt lat="44.68071" lon="1.2642">
        <ele>175.2</ele>
        <time>2024-07-23T09:07:40Z</time>
      </trkpt>
      <trkpt lat="44.6807" lon="1.26419">
        <ele>175.2</ele>
        <time>2024-07-23T09:07:41Z</time>
      </trkpt>
      <trkpt lat="44.6807" lon="1.26419">
        <ele>175.6</ele>
        <time>2024-07-23T09:07:42Z</time>
      </trkpt>
      <trkpt lat="44.68069" lon="1.26418">
        <ele>176</ele>
        <time>2024-07-23T09:07:43Z</time>
      </trkpt>
      <trkpt lat="44.68069" lon="1.26417">
        <ele>176.4</ele>
        <time>2024-07-23T09:07:44Z</time>
      </trkpt>
      <trkpt lat="44.68068" lon="1.26415">
        <ele>176.4</ele>
        <time>2024-07-23T09:07:45Z</time>
      </trkpt>
      <trkpt lat="44.68068" lon="1.26413">
        <ele>176.8</ele>
        <time>2024-07-23T09:07:46Z</time>
      </trkpt>
      <trkpt lat="44.68068" lon="1.2641">
        <ele>177.2</ele>
        <time>2024-07-23T09:07:47Z</time>
      </trkpt>
      <trkpt lat="44.68068" lon="1.26406">
        <ele>177</ele>
        <time>2024-07-23T09:07:48Z</time>
      </trkpt>
      <trkpt lat="44.68068" lon="1.26403">
        <ele>177.2</ele>
        <time>2024-07-23T09:07:49Z</time>
      </trkpt>
      <trkpt lat="44.68068" lon="1.264">
        <ele>177.2</ele>
        <time>2024-07-23T09:07:50Z</time>
      </trkpt>
      <trkpt lat="44.68067" lon="1.26396">
        <ele>177.4</ele>
        <time>2024-07-23T09:07:51Z</time>
      </trkpt>
      <trkpt lat="44.68067" lon="1.26392">
        <ele>177.4</ele>
        <time>2024-07-23T09:07:52Z</time>
      </trkpt>
      <trkpt lat="44.68067" lon="1.26388">
        <ele>177.6</ele>
        <time>2024-07-23T09:07:53Z</time>
      </trkpt>
      <trkpt lat="44.68066" lon="1.26384">
        <ele>177.8</ele>
        <time>2024-07-23T09:07:54Z</time>
      </trkpt>
      <trkpt lat="44.68066" lon="1.2638">
        <ele>177.8</ele>
        <time>2024-07-23T09:07:55Z</time>
      </trkpt>
      <trkpt lat="44.68065" lon="1.26376">
        <ele>177.8</ele>
        <time>2024-07-23T09:07:56Z</time>
      </trkpt>
      <trkpt lat="44.68064" lon="1.26372">
        <ele>177.8</ele>
        <time>2024-07-23T09:07:57Z</time>
      </trkpt>
      <trkpt lat="44.68063" lon="1.2637">
        <ele>177.6</ele>
        <time>2024-07-23T09:07:58Z</time>
      </trkpt>
      <trkpt lat="44.68063" lon="1.26368">
        <ele>177.6</ele>
        <time>2024-07-23T09:07:59Z</time>
      </trkpt>
      <trkpt lat="44.68063" lon="1.26367">
        <ele>177.6</ele>
        <time>2024-07-23T09:08:00Z</time>
      </trkpt>
      <trkpt lat="44.68063" lon="1.26365">
        <ele>177.4</ele>
        <time>2024-07-23T09:08:01Z</time>
      </trkpt>
      <trkpt lat="44.68063" lon="1.26364">
        <ele>177.4</ele>
        <time>2024-07-23T09:08:02Z</time>
      </trkpt>
      <trkpt lat="44.68063" lon="1.26362">
        <ele>177.4</ele>
        <time>2024-07-23T09:08:03Z</time>
      </trkpt>
      <trkpt lat="44.68063" lon="1.26362">
        <ele>177.4</ele>
        <time>2024-07-23T09:08:04Z</time>
      </trkpt>
      <trkpt lat="44.68063" lon="1.26362">
        <ele>177.2</ele>
        <time>2024-07-23T09:08:06Z</time>
      </trkpt>
      <trkpt lat="44.68061" lon="1.2636">
        <ele>177</ele>
        <time>2024-07-23T09:08:09Z</time>
      </trkpt>
      <trkpt lat="44.68056" lon="1.26364">
        <ele>177</ele>
        <time>2024-07-23T09:08:12Z</time>
      </trkpt>
      <trkpt lat="44.68057" lon="1.26366">
        <ele>177</ele>
        <time>2024-07-23T09:08:13Z</time>
      </trkpt>
      <trkpt lat="44.68057" lon="1.26368">
        <ele>177</ele>
        <time>2024-07-23T09:08:14Z</time>
      </trkpt>
      <trkpt lat="44.68057" lon="1.2637">
        <ele>176.8</ele>
        <time>2024-07-23T09:08:15Z</time>
      </trkpt>
      <trkpt lat="44.68057" lon="1.26373">
        <ele>176.8</ele>
        <time>2024-07-23T09:08:16Z</time>
      </trkpt>
      <trkpt lat="44.68055" lon="1.26375">
        <ele>176.8</ele>
        <time>2024-07-23T09:08:17Z</time>
      </trkpt>
      <trkpt lat="44.68054" lon="1.26376">
        <ele>176.8</ele>
        <time>2024-07-23T09:08:18Z</time>
      </trkpt>
      <trkpt lat="44.68052" lon="1.26376">
        <ele>177</ele>
        <time>2024-07-23T09:08:19Z</time>
      </trkpt>
      <trkpt lat="44.68046" lon="1.26378">
        <ele>177.2</ele>
        <time>2024-07-23T09:08:22Z</time>
      </trkpt>
      <trkpt lat="44.68045" lon="1.26379">
        <ele>177.2</ele>
        <time>2024-07-23T09:08:23Z</time>
      </trkpt>
      <trkpt lat="44.68043" lon="1.2638">
        <ele>177.4</ele>
        <time>2024-07-23T09:08:24Z</time>
      </trkpt>
      <trkpt lat="44.6804" lon="1.26381">
        <ele>177.6</ele>
        <time>2024-07-23T09:08:26Z</time>
      </trkpt>
      <trkpt lat="44.68038" lon="1.26383">
        <ele>178</ele>
        <time>2024-07-23T09:08:27Z</time>
      </trkpt>
      <trkpt lat="44.68035" lon="1.26384">
        <ele>178.2</ele>
        <time>2024-07-23T09:08:29Z</time>
      </trkpt>
      <trkpt lat="44.68033" lon="1.26385">
        <ele>178.6</ele>
        <time>2024-07-23T09:08:30Z</time>
      </trkpt>
      <trkpt lat="44.68025" lon="1.2639">
        <ele>179.2</ele>
        <time>2024-07-23T09:08:35Z</time>
      </trkpt>
      <trkpt lat="44.68024" lon="1.26391">
        <ele>179.2</ele>
        <time>2024-07-23T09:08:36Z</time>
      </trkpt>
      <trkpt lat="44.68022" lon="1.26392">
        <ele>179.4</ele>
        <time>2024-07-23T09:08:37Z</time>
      </trkpt>
      <trkpt lat="44.68021" lon="1.26392">
        <ele>179.6</ele>
        <time>2024-07-23T09:08:38Z</time>
      </trkpt>
      <trkpt lat="44.6802" lon="1.26392">
        <ele>179.6</ele>
        <time>2024-07-23T09:08:39Z</time>
      </trkpt>
      <trkpt lat="44.68017" lon="1.26394">
        <ele>180</ele>
        <time>2024-07-23T09:08:41Z</time>
      </trkpt>
      <trkpt lat="44.68016" lon="1.26395">
        <ele>180.4</ele>
        <time>2024-07-23T09:08:42Z</time>
      </trkpt>
      <trkpt lat="44.68015" lon="1.26396">
        <ele>180.4</ele>
        <time>2024-07-23T09:08:43Z</time>
      </trkpt>
      <trkpt lat="44.68014" lon="1.26396">
        <ele>180.6</ele>
        <time>2024-07-23T09:08:44Z</time>
      </trkpt>
      <trkpt lat="44.68013" lon="1.26397">
        <ele>180.6</ele>
        <time>2024-07-23T09:08:45Z</time>
      </trkpt>
      <trkpt lat="44.68011" lon="1.26397">
        <ele>180.8</ele>
        <time>2024-07-23T09:08:46Z</time>
      </trkpt>
      <trkpt lat="44.6801" lon="1.26397">
        <ele>181</ele>
        <time>2024-07-23T09:08:47Z</time>
      </trkpt>
      <trkpt lat="44.68008" lon="1.26398">
        <ele>181.4</ele>
        <time>2024-07-23T09:08:48Z</time>
      </trkpt>
      <trkpt lat="44.68007" lon="1.26398">
        <ele>181.4</ele>
        <time>2024-07-23T09:08:49Z</time>
      </trkpt>
      <trkpt lat="44.68005" lon="1.26398">
        <ele>181.4</ele>
        <time>2024-07-23T09:08:50Z</time>
      </trkpt>
      <trkpt lat="44.68004" lon="1.26398">
        <ele>181.8</ele>
        <time>2024-07-23T09:08:51Z</time>
      </trkpt>
      <trkpt lat="44.68003" lon="1.26398">
        <ele>181.8</ele>
        <time>2024-07-23T09:08:52Z</time>
      </trkpt>
      <trkpt lat="44.68001" lon="1.26398">
        <ele>182.2</ele>
        <time>2024-07-23T09:08:53Z</time>
      </trkpt>
      <trkpt lat="44.68" lon="1.26398">
        <ele>182.6</ele>
        <time>2024-07-23T09:08:54Z</time>
      </trkpt>
      <trkpt lat="44.67999" lon="1.26398">
        <ele>182.8</ele>
        <time>2024-07-23T09:08:55Z</time>
      </trkpt>
      <trkpt lat="44.67997" lon="1.26399">
        <ele>183.2</ele>
        <time>2024-07-23T09:08:56Z</time>
      </trkpt>
      <trkpt lat="44.67996" lon="1.26399">
        <ele>183.6</ele>
        <time>2024-07-23T09:08:57Z</time>
      </trkpt>
      <trkpt lat="44.67995" lon="1.264">
        <ele>183.8</ele>
        <time>2024-07-23T09:08:58Z</time>
      </trkpt>
      <trkpt lat="44.67993" lon="1.26401">
        <ele>184</ele>
        <time>2024-07-23T09:08:59Z</time>
      </trkpt>
      <trkpt lat="44.67992" lon="1.26402">
        <ele>184</ele>
        <time>2024-07-23T09:09:00Z</time>
      </trkpt>
      <trkpt lat="44.67991" lon="1.26403">
        <ele>184.4</ele>
        <time>2024-07-23T09:09:01Z</time>
      </trkpt>
      <trkpt lat="44.6799" lon="1.26403">
        <ele>184.6</ele>
        <time>2024-07-23T09:09:02Z</time>
      </trkpt>
      <trkpt lat="44.67989" lon="1.26404">
        <ele>184.8</ele>
        <time>2024-07-23T09:09:03Z</time>
      </trkpt>
      <trkpt lat="44.67988" lon="1.26404">
        <ele>185</ele>
        <time>2024-07-23T09:09:04Z</time>
      </trkpt>
      <trkpt lat="44.67987" lon="1.26403">
        <ele>185.2</ele>
        <time>2024-07-23T09:09:05Z</time>
      </trkpt>
      <trkpt lat="44.67986" lon="1.26403">
        <ele>185.4</ele>
        <time>2024-07-23T09:09:06Z</time>
      </trkpt>
      <trkpt lat="44.67985" lon="1.26402">
        <ele>185.4</ele>
        <time>2024-07-23T09:09:07Z</time>
      </trkpt>
      <trkpt lat="44.67984" lon="1.26402">
        <ele>185.6</ele>
        <time>2024-07-23T09:09:08Z</time>
      </trkpt>
      <trkpt lat="44.67982" lon="1.26401">
        <ele>185.6</ele>
        <time>2024-07-23T09:09:09Z</time>
      </trkpt>
      <trkpt lat="44.67981" lon="1.26401">
        <ele>185.8</ele>
        <time>2024-07-23T09:09:10Z</time>
      </trkpt>
      <trkpt lat="44.6798" lon="1.264">
        <ele>186</ele>
        <time>2024-07-23T09:09:11Z</time>
      </trkpt>
      <trkpt lat="44.67979" lon="1.26399">
        <ele>186.2</ele>
        <time>2024-07-23T09:09:12Z</time>
      </trkpt>
      <trkpt lat="44.67977" lon="1.26399">
        <ele>186.4</ele>
        <time>2024-07-23T09:09:13Z</time>
      </trkpt>
      <trkpt lat="44.67975" lon="1.26399">
        <ele>186.4</ele>
        <time>2024-07-23T09:09:14Z</time>
      </trkpt>
      <trkpt lat="44.67974" lon="1.26398">
        <ele>186.6</ele>
        <time>2024-07-23T09:09:15Z</time>
      </trkpt>
      <trkpt lat="44.67972" lon="1.26398">
        <ele>186.8</ele>
        <time>2024-07-23T09:09:16Z</time>
      </trkpt>
      <trkpt lat="44.67971" lon="1.26397">
        <ele>187</ele>
        <time>2024-07-23T09:09:17Z</time>
      </trkpt>
      <trkpt lat="44.67969" lon="1.26396">
        <ele>187</ele>
        <time>2024-07-23T09:09:18Z</time>
      </trkpt>
      <trkpt lat="44.67968" lon="1.26395">
        <ele>187.2</ele>
        <time>2024-07-23T09:09:19Z</time>
      </trkpt>
      <trkpt lat="44.67967" lon="1.26395">
        <ele>187.4</ele>
        <time>2024-07-23T09:09:20Z</time>
      </trkpt>
      <trkpt lat="44.67966" lon="1.26394">
        <ele>187.4</ele>
        <time>2024-07-23T09:09:21Z</time>
      </trkpt>
      <trkpt lat="44.67964" lon="1.26393">
        <ele>187.8</ele>
        <time>2024-07-23T09:09:22Z</time>
      </trkpt>
      <trkpt lat="44.67963" lon="1.26392">
        <ele>187.8</ele>
        <time>2024-07-23T09:09:23Z</time>
      </trkpt>
      <trkpt lat="44.67961" lon="1.26391">
        <ele>188</ele>
        <time>2024-07-23T09:09:24Z</time>
      </trkpt>
      <trkpt lat="44.67959" lon="1.2639">
        <ele>188.2</ele>
        <time>2024-07-23T09:09:25Z</time>
      </trkpt>
      <trkpt lat="44.67957" lon="1.26389">
        <ele>188.4</ele>
        <time>2024-07-23T09:09:26Z</time>
      </trkpt>
      <trkpt lat="44.67956" lon="1.26388">
        <ele>188.4</ele>
        <time>2024-07-23T09:09:27Z</time>
      </trkpt>
      <trkpt lat="44.67954" lon="1.26388">
        <ele>188.6</ele>
        <time>2024-07-23T09:09:28Z</time>
      </trkpt>
      <trkpt lat="44.67953" lon="1.26387">
        <ele>188.6</ele>
        <time>2024-07-23T09:09:29Z</time>
      </trkpt>
      <trkpt lat="44.67951" lon="1.26386">
        <ele>188.8</ele>
        <time>2024-07-23T09:09:30Z</time>
      </trkpt>
      <trkpt lat="44.6795" lon="1.26385">
        <ele>188.8</ele>
        <time>2024-07-23T09:09:31Z</time>
      </trkpt>
      <trkpt lat="44.67948" lon="1.26385">
        <ele>189.2</ele>
        <time>2024-07-23T09:09:32Z</time>
      </trkpt>
      <trkpt lat="44.67947" lon="1.26384">
        <ele>189.2</ele>
        <time>2024-07-23T09:09:33Z</time>
      </trkpt>
      <trkpt lat="44.67945" lon="1.26383">
        <ele>189.4</ele>
        <time>2024-07-23T09:09:34Z</time>
      </trkpt>
      <trkpt lat="44.67943" lon="1.26382">
        <ele>189.4</ele>
        <time>2024-07-23T09:09:35Z</time>
      </trkpt>
      <trkpt lat="44.67942" lon="1.26381">
        <ele>189.4</ele>
        <time>2024-07-23T09:09:36Z</time>
      </trkpt>
      <trkpt lat="44.6794" lon="1.26379">
        <ele>189.4</ele>
        <time>2024-07-23T09:09:37Z</time>
      </trkpt>
      <trkpt lat="44.67938" lon="1.26378">
        <ele>189.6</ele>
        <time>2024-07-23T09:09:38Z</time>
      </trkpt>
      <trkpt lat="44.67936" lon="1.26377">
        <ele>189.6</ele>
        <time>2024-07-23T09:09:39Z</time>
      </trkpt>
      <trkpt lat="44.67934" lon="1.26375">
        <ele>189.6</ele>
        <time>2024-07-23T09:09:40Z</time>
      </trkpt>
      <trkpt lat="44.67933" lon="1.26374">
        <ele>189.6</ele>
        <time>2024-07-23T09:09:41Z</time>
      </trkpt>
      <trkpt lat="44.67932" lon="1.26373">
        <ele>189.8</ele>
        <time>2024-07-23T09:09:42Z</time>
      </trkpt>
      <trkpt lat="44.67931" lon="1.26372">
        <ele>189.8</ele>
        <time>2024-07-23T09:09:43Z</time>
      </trkpt>
      <trkpt lat="44.67929" lon="1.2637">
        <ele>190</ele>
        <time>2024-07-23T09:09:44Z</time>
      </trkpt>
      <trkpt lat="44.67928" lon="1.26368">
        <ele>190</ele>
        <time>2024-07-23T09:09:45Z</time>
      </trkpt>
      <trkpt lat="44.67926" lon="1.26367">
        <ele>190.2</ele>
        <time>2024-07-23T09:09:46Z</time>
      </trkpt>
      <trkpt lat="44.67925" lon="1.26365">
        <ele>190.2</ele>
        <time>2024-07-23T09:09:47Z</time>
      </trkpt>
      <trkpt lat="44.67924" lon="1.26364">
        <ele>190.4</ele>
        <time>2024-07-23T09:09:48Z</time>
      </trkpt>
      <trkpt lat="44.67922" lon="1.26362">
        <ele>190.4</ele>
        <time>2024-07-23T09:09:49Z</time>
      </trkpt>
      <trkpt lat="44.67921" lon="1.26361">
        <ele>190.8</ele>
        <time>2024-07-23T09:09:50Z</time>
      </trkpt>
      <trkpt lat="44.67919" lon="1.26359">
        <ele>191</ele>
        <time>2024-07-23T09:09:51Z</time>
      </trkpt>
      <trkpt lat="44.67918" lon="1.26358">
        <ele>191.2</ele>
        <time>2024-07-23T09:09:52Z</time>
      </trkpt>
      <trkpt lat="44.67917" lon="1.26356">
        <ele>191.4</ele>
        <time>2024-07-23T09:09:53Z</time>
      </trkpt>
      <trkpt lat="44.67915" lon="1.26354">
        <ele>191.4</ele>
        <time>2024-07-23T09:09:54Z</time>
      </trkpt>
      <trkpt lat="44.67914" lon="1.26353">
        <ele>191.6</ele>
        <time>2024-07-23T09:09:55Z</time>
      </trkpt>
      <trkpt lat="44.67912" lon="1.26352">
        <ele>191.6</ele>
        <time>2024-07-23T09:09:56Z</time>
      </trkpt>
      <trkpt lat="44.67911" lon="1.26351">
        <ele>191.8</ele>
        <time>2024-07-23T09:09:57Z</time>
      </trkpt>
      <trkpt lat="44.6791" lon="1.26349">
        <ele>192</ele>
        <time>2024-07-23T09:09:58Z</time>
      </trkpt>
      <trkpt lat="44.67909" lon="1.26348">
        <ele>192</ele>
        <time>2024-07-23T09:09:59Z</time>
      </trkpt>
      <trkpt lat="44.67907" lon="1.26347">
        <ele>192.2</ele>
        <time>2024-07-23T09:10:00Z</time>
      </trkpt>
      <trkpt lat="44.67906" lon="1.26346">
        <ele>192.4</ele>
        <time>2024-07-23T09:10:01Z</time>
      </trkpt>
      <trkpt lat="44.67904" lon="1.26345">
        <ele>192.6</ele>
        <time>2024-07-23T09:10:02Z</time>
      </trkpt>
      <trkpt lat="44.67903" lon="1.26343">
        <ele>192.8</ele>
        <time>2024-07-23T09:10:03Z</time>
      </trkpt>
      <trkpt lat="44.67901" lon="1.26342">
        <ele>193</ele>
        <time>2024-07-23T09:10:04Z</time>
      </trkpt>
      <trkpt lat="44.679" lon="1.26341">
        <ele>193</ele>
        <time>2024-07-23T09:10:05Z</time>
      </trkpt>
      <trkpt lat="44.67899" lon="1.26339">
        <ele>193.2</ele>
        <time>2024-07-23T09:10:06Z</time>
      </trkpt>
      <trkpt lat="44.67897" lon="1.26338">
        <ele>193.4</ele>
        <time>2024-07-23T09:10:07Z</time>
      </trkpt>
      <trkpt lat="44.67896" lon="1.26337">
        <ele>193.4</ele>
        <time>2024-07-23T09:10:08Z</time>
      </trkpt>
      <trkpt lat="44.67894" lon="1.26336">
        <ele>193.6</ele>
        <time>2024-07-23T09:10:09Z</time>
      </trkpt>
      <trkpt lat="44.67893" lon="1.26335">
        <ele>193.8</ele>
        <time>2024-07-23T09:10:10Z</time>
      </trkpt>
      <trkpt lat="44.67891" lon="1.26333">
        <ele>193.8</ele>
        <time>2024-07-23T09:10:11Z</time>
      </trkpt>
      <trkpt lat="44.6789" lon="1.26332">
        <ele>194</ele>
        <time>2024-07-23T09:10:12Z</time>
      </trkpt>
      <trkpt lat="44.67889" lon="1.26331">
        <ele>194</ele>
        <time>2024-07-23T09:10:13Z</time>
      </trkpt>
      <trkpt lat="44.67887" lon="1.2633">
        <ele>194.2</ele>
        <time>2024-07-23T09:10:14Z</time>
      </trkpt>
      <trkpt lat="44.67886" lon="1.26328">
        <ele>194.4</ele>
        <time>2024-07-23T09:10:15Z</time>
      </trkpt>
      <trkpt lat="44.67885" lon="1.26327">
        <ele>194.4</ele>
        <time>2024-07-23T09:10:16Z</time>
      </trkpt>
      <trkpt lat="44.67883" lon="1.26326">
        <ele>194.6</ele>
        <time>2024-07-23T09:10:17Z</time>
      </trkpt>
      <trkpt lat="44.67882" lon="1.26324">
        <ele>194.8</ele>
        <time>2024-07-23T09:10:18Z</time>
      </trkpt>
      <trkpt lat="44.67881" lon="1.26323">
        <ele>195</ele>
        <time>2024-07-23T09:10:19Z</time>
      </trkpt>
      <trkpt lat="44.67879" lon="1.26321">
        <ele>195.2</ele>
        <time>2024-07-23T09:10:20Z</time>
      </trkpt>
      <trkpt lat="44.67878" lon="1.2632">
        <ele>195.4</ele>
        <time>2024-07-23T09:10:21Z</time>
      </trkpt>
      <trkpt lat="44.67876" lon="1.26319">
        <ele>195.4</ele>
        <time>2024-07-23T09:10:22Z</time>
      </trkpt>
      <trkpt lat="44.67875" lon="1.26317">
        <ele>195.6</ele>
        <time>2024-07-23T09:10:23Z</time>
      </trkpt>
      <trkpt lat="44.67873" lon="1.26316">
        <ele>195.8</ele>
        <time>2024-07-23T09:10:24Z</time>
      </trkpt>
      <trkpt lat="44.67872" lon="1.26314">
        <ele>196</ele>
        <time>2024-07-23T09:10:25Z</time>
      </trkpt>
      <trkpt lat="44.6787" lon="1.26313">
        <ele>196.2</ele>
        <time>2024-07-23T09:10:26Z</time>
      </trkpt>
      <trkpt lat="44.67869" lon="1.26312">
        <ele>196.2</ele>
        <time>2024-07-23T09:10:27Z</time>
      </trkpt>
      <trkpt lat="44.67867" lon="1.26311">
        <ele>196.4</ele>
        <time>2024-07-23T09:10:28Z</time>
      </trkpt>
      <trkpt lat="44.67866" lon="1.26309">
        <ele>196.4</ele>
        <time>2024-07-23T09:10:29Z</time>
      </trkpt>
      <trkpt lat="44.67865" lon="1.26307">
        <ele>196.4</ele>
        <time>2024-07-23T09:10:30Z</time>
      </trkpt>
      <trkpt lat="44.67864" lon="1.26306">
        <ele>196.6</ele>
        <time>2024-07-23T09:10:31Z</time>
      </trkpt>
      <trkpt lat="44.67863" lon="1.26304">
        <ele>196.6</ele>
        <time>2024-07-23T09:10:32Z</time>
      </trkpt>
      <trkpt lat="44.67861" lon="1.26303">
        <ele>196.6</ele>
        <time>2024-07-23T09:10:33Z</time>
      </trkpt>
      <trkpt lat="44.6786" lon="1.26301">
        <ele>196.8</ele>
        <time>2024-07-23T09:10:34Z</time>
      </trkpt>
      <trkpt lat="44.67859" lon="1.263">
        <ele>196.8</ele>
        <time>2024-07-23T09:10:35Z</time>
      </trkpt>
      <trkpt lat="44.67857" lon="1.26299">
        <ele>197</ele>
        <time>2024-07-23T09:10:36Z</time>
      </trkpt>
      <trkpt lat="44.67856" lon="1.26297">
        <ele>197.2</ele>
        <time>2024-07-23T09:10:37Z</time>
      </trkpt>
      <trkpt lat="44.67855" lon="1.26296">
        <ele>197.4</ele>
        <time>2024-07-23T09:10:38Z</time>
      </trkpt>
      <trkpt lat="44.67853" lon="1.26295">
        <ele>197.4</ele>
        <time>2024-07-23T09:10:39Z</time>
      </trkpt>
      <trkpt lat="44.67852" lon="1.26293">
        <ele>197.6</ele>
        <time>2024-07-23T09:10:40Z</time>
      </trkpt>
      <trkpt lat="44.67851" lon="1.26292">
        <ele>198</ele>
        <time>2024-07-23T09:10:41Z</time>
      </trkpt>
      <trkpt lat="44.6785" lon="1.2629">
        <ele>198</ele>
        <time>2024-07-23T09:10:42Z</time>
      </trkpt>
      <trkpt lat="44.67849" lon="1.26289">
        <ele>198.2</ele>
        <time>2024-07-23T09:10:43Z</time>
      </trkpt>
      <trkpt lat="44.67847" lon="1.26287">
        <ele>198.2</ele>
        <time>2024-07-23T09:10:44Z</time>
      </trkpt>
      <trkpt lat="44.67846" lon="1.26285">
        <ele>198.2</ele>
        <time>2024-07-23T09:10:45Z</time>
      </trkpt>
      <trkpt lat="44.67846" lon="1.26284">
        <ele>198.4</ele>
        <time>2024-07-23T09:10:46Z</time>
      </trkpt>
      <trkpt lat="44.67845" lon="1.26282">
        <ele>198.6</ele>
        <time>2024-07-23T09:10:47Z</time>
      </trkpt>
      <trkpt lat="44.67844" lon="1.26281">
        <ele>198.8</ele>
        <time>2024-07-23T09:10:48Z</time>
      </trkpt>
      <trkpt lat="44.67842" lon="1.26279">
        <ele>199</ele>
        <time>2024-07-23T09:10:49Z</time>
      </trkpt>
      <trkpt lat="44.67841" lon="1.26278">
        <ele>199.2</ele>
        <time>2024-07-23T09:10:50Z</time>
      </trkpt>
      <trkpt lat="44.6784" lon="1.26276">
        <ele>199.4</ele>
        <time>2024-07-23T09:10:51Z</time>
      </trkpt>
      <trkpt lat="44.67838" lon="1.26275">
        <ele>199.6</ele>
        <time>2024-07-23T09:10:52Z</time>
      </trkpt>
      <trkpt lat="44.67837" lon="1.26274">
        <ele>199.8</ele>
        <time>2024-07-23T09:10:53Z</time>
      </trkpt>
      <trkpt lat="44.67836" lon="1.26273">
        <ele>199.8</ele>
        <time>2024-07-23T09:10:54Z</time>
      </trkpt>
      <trkpt lat="44.67834" lon="1.26272">
        <ele>200</ele>
        <time>2024-07-23T09:10:55Z</time>
      </trkpt>
      <trkpt lat="44.67833" lon="1.26272">
        <ele>200.2</ele>
        <time>2024-07-23T09:10:56Z</time>
      </trkpt>
      <trkpt lat="44.67831" lon="1.26271">
        <ele>200.2</ele>
        <time>2024-07-23T09:10:57Z</time>
      </trkpt>
      <trkpt lat="44.6783" lon="1.2627">
        <ele>200.4</ele>
        <time>2024-07-23T09:10:58Z</time>
      </trkpt>
      <trkpt lat="44.67829" lon="1.26269">
        <ele>200.4</ele>
        <time>2024-07-23T09:10:59Z</time>
      </trkpt>
      <trkpt lat="44.67827" lon="1.26268">
        <ele>200.6</ele>
        <time>2024-07-23T09:11:00Z</time>
      </trkpt>
      <trkpt lat="44.67826" lon="1.26267">
        <ele>200.6</ele>
        <time>2024-07-23T09:11:01Z</time>
      </trkpt>
      <trkpt lat="44.67825" lon="1.26266">
        <ele>200.8</ele>
        <time>2024-07-23T09:11:02Z</time>
      </trkpt>
      <trkpt lat="44.67823" lon="1.26265">
        <ele>200.8</ele>
        <time>2024-07-23T09:11:03Z</time>
      </trkpt>
      <trkpt lat="44.67822" lon="1.26264">
        <ele>201</ele>
        <time>2024-07-23T09:11:04Z</time>
      </trkpt>
      <trkpt lat="44.67821" lon="1.26263">
        <ele>201</ele>
        <time>2024-07-23T09:11:05Z</time>
      </trkpt>
      <trkpt lat="44.67819" lon="1.26262">
        <ele>201.2</ele>
        <time>2024-07-23T09:11:06Z</time>
      </trkpt>
      <trkpt lat="44.67818" lon="1.26261">
        <ele>201.4</ele>
        <time>2024-07-23T09:11:07Z</time>
      </trkpt>
      <trkpt lat="44.67816" lon="1.26261">
        <ele>201.4</ele>
        <time>2024-07-23T09:11:08Z</time>
      </trkpt>
      <trkpt lat="44.67814" lon="1.2626">
        <ele>201.4</ele>
        <time>2024-07-23T09:11:09Z</time>
      </trkpt>
      <trkpt lat="44.67813" lon="1.2626">
        <ele>201.6</ele>
        <time>2024-07-23T09:11:10Z</time>
      </trkpt>
      <trkpt lat="44.67811" lon="1.26259">
        <ele>201.6</ele>
        <time>2024-07-23T09:11:11Z</time>
      </trkpt>
      <trkpt lat="44.6781" lon="1.26257">
        <ele>201.8</ele>
        <time>2024-07-23T09:11:12Z</time>
      </trkpt>
      <trkpt lat="44.67808" lon="1.26256">
        <ele>201.8</ele>
        <time>2024-07-23T09:11:13Z</time>
      </trkpt>
      <trkpt lat="44.67806" lon="1.26255">
        <ele>202</ele>
        <time>2024-07-23T09:11:14Z</time>
      </trkpt>
      <trkpt lat="44.67805" lon="1.26255">
        <ele>202</ele>
        <time>2024-07-23T09:11:15Z</time>
      </trkpt>
      <trkpt lat="44.67803" lon="1.26254">
        <ele>202.2</ele>
        <time>2024-07-23T09:11:16Z</time>
      </trkpt>
      <trkpt lat="44.67802" lon="1.26253">
        <ele>202.2</ele>
        <time>2024-07-23T09:11:17Z</time>
      </trkpt>
      <trkpt lat="44.67801" lon="1.26252">
        <ele>202.4</ele>
        <time>2024-07-23T09:11:18Z</time>
      </trkpt>
      <trkpt lat="44.678" lon="1.26251">
        <ele>202.6</ele>
        <time>2024-07-23T09:11:19Z</time>
      </trkpt>
      <trkpt lat="44.67799" lon="1.2625">
        <ele>202.8</ele>
        <time>2024-07-23T09:11:20Z</time>
      </trkpt>
      <trkpt lat="44.67797" lon="1.26249">
        <ele>203.2</ele>
        <time>2024-07-23T09:11:21Z</time>
      </trkpt>
      <trkpt lat="44.67796" lon="1.26249">
        <ele>203.4</ele>
        <time>2024-07-23T09:11:22Z</time>
      </trkpt>
      <trkpt lat="44.67794" lon="1.2625">
        <ele>203.4</ele>
        <time>2024-07-23T09:11:23Z</time>
      </trkpt>
      <trkpt lat="44.67793" lon="1.2625">
        <ele>203.6</ele>
        <time>2024-07-23T09:11:24Z</time>
      </trkpt>
      <trkpt lat="44.67791" lon="1.2625">
        <ele>203.8</ele>
        <time>2024-07-23T09:11:25Z</time>
      </trkpt>
      <trkpt lat="44.6779" lon="1.2625">
        <ele>204</ele>
        <time>2024-07-23T09:11:26Z</time>
      </trkpt>
      <trkpt lat="44.67789" lon="1.2625">
        <ele>204</ele>
        <time>2024-07-23T09:11:27Z</time>
      </trkpt>
      <trkpt lat="44.67787" lon="1.2625">
        <ele>204.2</ele>
        <time>2024-07-23T09:11:28Z</time>
      </trkpt>
      <trkpt lat="44.67786" lon="1.2625">
        <ele>204.4</ele>
        <time>2024-07-23T09:11:29Z</time>
      </trkpt>
      <trkpt lat="44.67785" lon="1.26251">
        <ele>204.4</ele>
        <time>2024-07-23T09:11:30Z</time>
      </trkpt>
      <trkpt lat="44.67783" lon="1.26251">
        <ele>204.8</ele>
        <time>2024-07-23T09:11:31Z</time>
      </trkpt>
      <trkpt lat="44.67782" lon="1.26251">
        <ele>204.8</ele>
        <time>2024-07-23T09:11:32Z</time>
      </trkpt>
      <trkpt lat="44.6778" lon="1.26251">
        <ele>205</ele>
        <time>2024-07-23T09:11:33Z</time>
      </trkpt>
      <trkpt lat="44.67779" lon="1.26251">
        <ele>205</ele>
        <time>2024-07-23T09:11:34Z</time>
      </trkpt>
      <trkpt lat="44.67778" lon="1.26251">
        <ele>205.2</ele>
        <time>2024-07-23T09:11:35Z</time>
      </trkpt>
      <trkpt lat="44.67776" lon="1.26251">
        <ele>205.4</ele>
        <time>2024-07-23T09:11:36Z</time>
      </trkpt>
      <trkpt lat="44.67775" lon="1.26251">
        <ele>205.6</ele>
        <time>2024-07-23T09:11:37Z</time>
      </trkpt>
      <trkpt lat="44.67774" lon="1.26251">
        <ele>206</ele>
        <time>2024-07-23T09:11:38Z</time>
      </trkpt>
      <trkpt lat="44.67772" lon="1.26251">
        <ele>206</ele>
        <time>2024-07-23T09:11:39Z</time>
      </trkpt>
      <trkpt lat="44.67771" lon="1.26252">
        <ele>206.4</ele>
        <time>2024-07-23T09:11:40Z</time>
      </trkpt>
      <trkpt lat="44.67769" lon="1.26252">
        <ele>206.6</ele>
        <time>2024-07-23T09:11:41Z</time>
      </trkpt>
      <trkpt lat="44.67768" lon="1.26253">
        <ele>206.8</ele>
        <time>2024-07-23T09:11:42Z</time>
      </trkpt>
      <trkpt lat="44.67767" lon="1.26253">
        <ele>207</ele>
        <time>2024-07-23T09:11:43Z</time>
      </trkpt>
      <trkpt lat="44.67765" lon="1.26253">
        <ele>207</ele>
        <time>2024-07-23T09:11:44Z</time>
      </trkpt>
      <trkpt lat="44.67764" lon="1.26253">
        <ele>207.2</ele>
        <time>2024-07-23T09:11:45Z</time>
      </trkpt>
      <trkpt lat="44.67762" lon="1.26254">
        <ele>207.4</ele>
        <time>2024-07-23T09:11:46Z</time>
      </trkpt>
      <trkpt lat="44.67761" lon="1.26254">
        <ele>207.4</ele>
        <time>2024-07-23T09:11:47Z</time>
      </trkpt>
      <trkpt lat="44.6776" lon="1.26254">
        <ele>207.6</ele>
        <time>2024-07-23T09:11:48Z</time>
      </trkpt>
      <trkpt lat="44.67759" lon="1.26255">
        <ele>207.6</ele>
        <time>2024-07-23T09:11:49Z</time>
      </trkpt>
      <trkpt lat="44.67757" lon="1.26255">
        <ele>207.8</ele>
        <time>2024-07-23T09:11:50Z</time>
      </trkpt>
      <trkpt lat="44.67756" lon="1.26256">
        <ele>207.8</ele>
        <time>2024-07-23T09:11:51Z</time>
      </trkpt>
      <trkpt lat="44.67755" lon="1.26255">
        <ele>208.2</ele>
        <time>2024-07-23T09:11:52Z</time>
      </trkpt>
      <trkpt lat="44.67754" lon="1.26255">
        <ele>208.2</ele>
        <time>2024-07-23T09:11:53Z</time>
      </trkpt>
      <trkpt lat="44.67752" lon="1.26256">
        <ele>208.4</ele>
        <time>2024-07-23T09:11:54Z</time>
      </trkpt>
      <trkpt lat="44.6775" lon="1.26256">
        <ele>208.4</ele>
        <time>2024-07-23T09:11:55Z</time>
      </trkpt>
      <trkpt lat="44.67749" lon="1.26256">
        <ele>208.6</ele>
        <time>2024-07-23T09:11:56Z</time>
      </trkpt>
      <trkpt lat="44.67747" lon="1.26256">
        <ele>208.8</ele>
        <time>2024-07-23T09:11:57Z</time>
      </trkpt>
      <trkpt lat="44.67746" lon="1.26256">
        <ele>209</ele>
        <time>2024-07-23T09:11:58Z</time>
      </trkpt>
      <trkpt lat="44.67744" lon="1.26256">
        <ele>209.2</ele>
        <time>2024-07-23T09:11:59Z</time>
      </trkpt>
      <trkpt lat="44.67743" lon="1.26256">
        <ele>209.4</ele>
        <time>2024-07-23T09:12:00Z</time>
      </trkpt>
      <trkpt lat="44.67741" lon="1.26256">
        <ele>209.6</ele>
        <time>2024-07-23T09:12:01Z</time>
      </trkpt>
      <trkpt lat="44.6774" lon="1.26256">
        <ele>209.6</ele>
        <time>2024-07-23T09:12:02Z</time>
      </trkpt>
      <trkpt lat="44.67739" lon="1.26256">
        <ele>209.8</ele>
        <time>2024-07-23T09:12:03Z</time>
      </trkpt>
      <trkpt lat="44.67737" lon="1.26256">
        <ele>210</ele>
        <time>2024-07-23T09:12:04Z</time>
      </trkpt>
      <trkpt lat="44.67736" lon="1.26255">
        <ele>210</ele>
        <time>2024-07-23T09:12:05Z</time>
      </trkpt>
      <trkpt lat="44.67734" lon="1.26255">
        <ele>210.2</ele>
        <time>2024-07-23T09:12:06Z</time>
      </trkpt>
      <trkpt lat="44.67733" lon="1.26255">
        <ele>210.6</ele>
        <time>2024-07-23T09:12:07Z</time>
      </trkpt>
      <trkpt lat="44.67731" lon="1.26255">
        <ele>210.8</ele>
        <time>2024-07-23T09:12:08Z</time>
      </trkpt>
      <trkpt lat="44.6773" lon="1.26255">
        <ele>211</ele>
        <time>2024-07-23T09:12:09Z</time>
      </trkpt>
      <trkpt lat="44.67728" lon="1.26255">
        <ele>211.2</ele>
        <time>2024-07-23T09:12:10Z</time>
      </trkpt>
      <trkpt lat="44.67726" lon="1.26255">
        <ele>211.4</ele>
        <time>2024-07-23T09:12:11Z</time>
      </trkpt>
      <trkpt lat="44.67725" lon="1.26255">
        <ele>211.6</ele>
        <time>2024-07-23T09:12:12Z</time>
      </trkpt>
      <trkpt lat="44.67723" lon="1.26255">
        <ele>211.8</ele>
        <time>2024-07-23T09:12:13Z</time>
      </trkpt>
      <trkpt lat="44.67722" lon="1.26255">
        <ele>212</ele>
        <time>2024-07-23T09:12:14Z</time>
      </trkpt>
      <trkpt lat="44.6772" lon="1.26255">
        <ele>212</ele>
        <time>2024-07-23T09:12:15Z</time>
      </trkpt>
      <trkpt lat="44.67718" lon="1.26255">
        <ele>212.2</ele>
        <time>2024-07-23T09:12:16Z</time>
      </trkpt>
      <trkpt lat="44.67716" lon="1.26255">
        <ele>212.4</ele>
        <time>2024-07-23T09:12:17Z</time>
      </trkpt>
      <trkpt lat="44.67714" lon="1.26254">
        <ele>212.4</ele>
        <time>2024-07-23T09:12:18Z</time>
      </trkpt>
      <trkpt lat="44.67712" lon="1.26254">
        <ele>212.6</ele>
        <time>2024-07-23T09:12:19Z</time>
      </trkpt>
      <trkpt lat="44.6771" lon="1.26253">
        <ele>212.8</ele>
        <time>2024-07-23T09:12:20Z</time>
      </trkpt>
      <trkpt lat="44.67709" lon="1.26252">
        <ele>213</ele>
        <time>2024-07-23T09:12:21Z</time>
      </trkpt>
      <trkpt lat="44.67707" lon="1.26251">
        <ele>213</ele>
        <time>2024-07-23T09:12:22Z</time>
      </trkpt>
      <trkpt lat="44.67705" lon="1.2625">
        <ele>213.2</ele>
        <time>2024-07-23T09:12:23Z</time>
      </trkpt>
      <trkpt lat="44.67703" lon="1.2625">
        <ele>213.2</ele>
        <time>2024-07-23T09:12:24Z</time>
      </trkpt>
      <trkpt lat="44.67701" lon="1.26249">
        <ele>213.2</ele>
        <time>2024-07-23T09:12:25Z</time>
      </trkpt>
      <trkpt lat="44.677" lon="1.26248">
        <ele>213.2</ele>
        <time>2024-07-23T09:12:26Z</time>
      </trkpt>
      <trkpt lat="44.67698" lon="1.26247">
        <ele>213.4</ele>
        <time>2024-07-23T09:12:27Z</time>
      </trkpt>
      <trkpt lat="44.67696" lon="1.26247">
        <ele>213.4</ele>
        <time>2024-07-23T09:12:28Z</time>
      </trkpt>
      <trkpt lat="44.67694" lon="1.26246">
        <ele>213.4</ele>
        <time>2024-07-23T09:12:29Z</time>
      </trkpt>
      <trkpt lat="44.67692" lon="1.26245">
        <ele>213.6</ele>
        <time>2024-07-23T09:12:30Z</time>
      </trkpt>
      <trkpt lat="44.6769" lon="1.26245">
        <ele>213.6</ele>
        <time>2024-07-23T09:12:31Z</time>
      </trkpt>
      <trkpt lat="44.67689" lon="1.26244">
        <ele>213.8</ele>
        <time>2024-07-23T09:12:32Z</time>
      </trkpt>
      <trkpt lat="44.67687" lon="1.26243">
        <ele>214</ele>
        <time>2024-07-23T09:12:33Z</time>
      </trkpt>
      <trkpt lat="44.67685" lon="1.26242">
        <ele>214</ele>
        <time>2024-07-23T09:12:34Z</time>
      </trkpt>
      <trkpt lat="44.67684" lon="1.26241">
        <ele>214.4</ele>
        <time>2024-07-23T09:12:35Z</time>
      </trkpt>
      <trkpt lat="44.67682" lon="1.2624">
        <ele>214.4</ele>
        <time>2024-07-23T09:12:36Z</time>
      </trkpt>
      <trkpt lat="44.6768" lon="1.26238">
        <ele>214.6</ele>
        <time>2024-07-23T09:12:37Z</time>
      </trkpt>
      <trkpt lat="44.67678" lon="1.26237">
        <ele>214.8</ele>
        <time>2024-07-23T09:12:38Z</time>
      </trkpt>
      <trkpt lat="44.67676" lon="1.26236">
        <ele>215.2</ele>
        <time>2024-07-23T09:12:39Z</time>
      </trkpt>
      <trkpt lat="44.67674" lon="1.26235">
        <ele>215.6</ele>
        <time>2024-07-23T09:12:40Z</time>
      </trkpt>
      <trkpt lat="44.67672" lon="1.26233">
        <ele>215.6</ele>
        <time>2024-07-23T09:12:41Z</time>
      </trkpt>
      <trkpt lat="44.6767" lon="1.26232">
        <ele>215.8</ele>
        <time>2024-07-23T09:12:42Z</time>
      </trkpt>
      <trkpt lat="44.67668" lon="1.26231">
        <ele>216</ele>
        <time>2024-07-23T09:12:43Z</time>
      </trkpt>
      <trkpt lat="44.67666" lon="1.2623">
        <ele>216.2</ele>
        <time>2024-07-23T09:12:44Z</time>
      </trkpt>
      <trkpt lat="44.67663" lon="1.26228">
        <ele>216.2</ele>
        <time>2024-07-23T09:12:45Z</time>
      </trkpt>
      <trkpt lat="44.67661" lon="1.26227">
        <ele>216.6</ele>
        <time>2024-07-23T09:12:46Z</time>
      </trkpt>
      <trkpt lat="44.67659" lon="1.26225">
        <ele>216.6</ele>
        <time>2024-07-23T09:12:47Z</time>
      </trkpt>
      <trkpt lat="44.67657" lon="1.26224">
        <ele>216.6</ele>
        <time>2024-07-23T09:12:48Z</time>
      </trkpt>
      <trkpt lat="44.67654" lon="1.26222">
        <ele>216.8</ele>
        <time>2024-07-23T09:12:49Z</time>
      </trkpt>
      <trkpt lat="44.67652" lon="1.2622">
        <ele>217</ele>
        <time>2024-07-23T09:12:50Z</time>
      </trkpt>
      <trkpt lat="44.6765" lon="1.26218">
        <ele>217</ele>
        <time>2024-07-23T09:12:51Z</time>
      </trkpt>
      <trkpt lat="44.67647" lon="1.26216">
        <ele>217.2</ele>
        <time>2024-07-23T09:12:52Z</time>
      </trkpt>
      <trkpt lat="44.67645" lon="1.26213">
        <ele>217.2</ele>
        <time>2024-07-23T09:12:53Z</time>
      </trkpt>
      <trkpt lat="44.67643" lon="1.26211">
        <ele>217.4</ele>
        <time>2024-07-23T09:12:54Z</time>
      </trkpt>
      <trkpt lat="44.6764" lon="1.26209">
        <ele>217.4</ele>
        <time>2024-07-23T09:12:55Z</time>
      </trkpt>
      <trkpt lat="44.67638" lon="1.26206">
        <ele>217.4</ele>
        <time>2024-07-23T09:12:56Z</time>
      </trkpt>
      <trkpt lat="44.67635" lon="1.26203">
        <ele>217.4</ele>
        <time>2024-07-23T09:12:57Z</time>
      </trkpt>
      <trkpt lat="44.67632" lon="1.26201">
        <ele>217.4</ele>
        <time>2024-07-23T09:12:58Z</time>
      </trkpt>
      <trkpt lat="44.67629" lon="1.26198">
        <ele>217.4</ele>
        <time>2024-07-23T09:12:59Z</time>
      </trkpt>
      <trkpt lat="44.67626" lon="1.26196">
        <ele>217.4</ele>
        <time>2024-07-23T09:13:00Z</time>
      </trkpt>
      <trkpt lat="44.67623" lon="1.26193">
        <ele>217.4</ele>
        <time>2024-07-23T09:13:01Z</time>
      </trkpt>
      <trkpt lat="44.6762" lon="1.26191">
        <ele>217.4</ele>
        <time>2024-07-23T09:13:02Z</time>
      </trkpt>
      <trkpt lat="44.67616" lon="1.26189">
        <ele>217.4</ele>
        <time>2024-07-23T09:13:03Z</time>
      </trkpt>
      <trkpt lat="44.67612" lon="1.26188">
        <ele>217.2</ele>
        <time>2024-07-23T09:13:04Z</time>
      </trkpt>
      <trkpt lat="44.67608" lon="1.26188">
        <ele>217.2</ele>
        <time>2024-07-23T09:13:05Z</time>
      </trkpt>
      <trkpt lat="44.67604" lon="1.26187">
        <ele>217.2</ele>
        <time>2024-07-23T09:13:06Z</time>
      </trkpt>
      <trkpt lat="44.67574" lon="1.26182">
        <ele>216.8</ele>
        <time>2024-07-23T09:13:13Z</time>
      </trkpt>
      <trkpt lat="44.67551" lon="1.26177">
        <ele>216.6</ele>
        <time>2024-07-23T09:13:19Z</time>
      </trkpt>
      <trkpt lat="44.67548" lon="1.26176">
        <ele>216.6</ele>
        <time>2024-07-23T09:13:20Z</time>
      </trkpt>
      <trkpt lat="44.67544" lon="1.26175">
        <ele>216.6</ele>
        <time>2024-07-23T09:13:21Z</time>
      </trkpt>
      <trkpt lat="44.67541" lon="1.26174">
        <ele>216.6</ele>
        <time>2024-07-23T09:13:22Z</time>
      </trkpt>
      <trkpt lat="44.67537" lon="1.26172">
        <ele>216.6</ele>
        <time>2024-07-23T09:13:23Z</time>
      </trkpt>
      <trkpt lat="44.67533" lon="1.26172">
        <ele>216.6</ele>
        <time>2024-07-23T09:13:24Z</time>
      </trkpt>
      <trkpt lat="44.6753" lon="1.26171">
        <ele>216.6</ele>
        <time>2024-07-23T09:13:25Z</time>
      </trkpt>
      <trkpt lat="44.67522" lon="1.26169">
        <ele>216.6</ele>
        <time>2024-07-23T09:13:27Z</time>
      </trkpt>
      <trkpt lat="44.67492" lon="1.26161">
        <ele>217.2</ele>
        <time>2024-07-23T09:13:35Z</time>
      </trkpt>
      <trkpt lat="44.6747" lon="1.26158">
        <ele>218</ele>
        <time>2024-07-23T09:13:41Z</time>
      </trkpt>
      <trkpt lat="44.67466" lon="1.26157">
        <ele>218</ele>
        <time>2024-07-23T09:13:42Z</time>
      </trkpt>
      <trkpt lat="44.67463" lon="1.26157">
        <ele>218.2</ele>
        <time>2024-07-23T09:13:43Z</time>
      </trkpt>
      <trkpt lat="44.67459" lon="1.26157">
        <ele>218.2</ele>
        <time>2024-07-23T09:13:44Z</time>
      </trkpt>
      <trkpt lat="44.67456" lon="1.26157">
        <ele>218.4</ele>
        <time>2024-07-23T09:13:45Z</time>
      </trkpt>
      <trkpt lat="44.6745" lon="1.26156">
        <ele>218.6</ele>
        <time>2024-07-23T09:13:47Z</time>
      </trkpt>
      <trkpt lat="44.67448" lon="1.26156">
        <ele>218.6</ele>
        <time>2024-07-23T09:13:48Z</time>
      </trkpt>
      <trkpt lat="44.67445" lon="1.26156">
        <ele>218.8</ele>
        <time>2024-07-23T09:13:49Z</time>
      </trkpt>
      <trkpt lat="44.67442" lon="1.26156">
        <ele>219</ele>
        <time>2024-07-23T09:13:50Z</time>
      </trkpt>
      <trkpt lat="44.67439" lon="1.26156">
        <ele>219.2</ele>
        <time>2024-07-23T09:13:51Z</time>
      </trkpt>
      <trkpt lat="44.67434" lon="1.26156">
        <ele>219.4</ele>
        <time>2024-07-23T09:13:53Z</time>
      </trkpt>
      <trkpt lat="44.67432" lon="1.26157">
        <ele>219.6</ele>
        <time>2024-07-23T09:13:54Z</time>
      </trkpt>
      <trkpt lat="44.67429" lon="1.26157">
        <ele>219.8</ele>
        <time>2024-07-23T09:13:55Z</time>
      </trkpt>
      <trkpt lat="44.67427" lon="1.26157">
        <ele>219.8</ele>
        <time>2024-07-23T09:13:56Z</time>
      </trkpt>
      <trkpt lat="44.67424" lon="1.26157">
        <ele>219.8</ele>
        <time>2024-07-23T09:13:57Z</time>
      </trkpt>
      <trkpt lat="44.67422" lon="1.26157">
        <ele>220</ele>
        <time>2024-07-23T09:13:58Z</time>
      </trkpt>
      <trkpt lat="44.67419" lon="1.26157">
        <ele>220</ele>
        <time>2024-07-23T09:13:59Z</time>
      </trkpt>
      <trkpt lat="44.67416" lon="1.26157">
        <ele>220.2</ele>
        <time>2024-07-23T09:14:00Z</time>
      </trkpt>
      <trkpt lat="44.67413" lon="1.26158">
        <ele>220.4</ele>
        <time>2024-07-23T09:14:01Z</time>
      </trkpt>
      <trkpt lat="44.67411" lon="1.26158">
        <ele>220.6</ele>
        <time>2024-07-23T09:14:02Z</time>
      </trkpt>
      <trkpt lat="44.67408" lon="1.26158">
        <ele>220.6</ele>
        <time>2024-07-23T09:14:03Z</time>
      </trkpt>
      <trkpt lat="44.67405" lon="1.26158">
        <ele>220.8</ele>
        <time>2024-07-23T09:14:04Z</time>
      </trkpt>
      <trkpt lat="44.67402" lon="1.26157">
        <ele>221</ele>
        <time>2024-07-23T09:14:05Z</time>
      </trkpt>
      <trkpt lat="44.67399" lon="1.26157">
        <ele>221.2</ele>
        <time>2024-07-23T09:14:06Z</time>
      </trkpt>
      <trkpt lat="44.67397" lon="1.26157">
        <ele>221.4</ele>
        <time>2024-07-23T09:14:07Z</time>
      </trkpt>
      <trkpt lat="44.67394" lon="1.26157">
        <ele>221.6</ele>
        <time>2024-07-23T09:14:08Z</time>
      </trkpt>
      <trkpt lat="44.67391" lon="1.26158">
        <ele>221.6</ele>
        <time>2024-07-23T09:14:09Z</time>
      </trkpt>
      <trkpt lat="44.67388" lon="1.26158">
        <ele>221.6</ele>
        <time>2024-07-23T09:14:10Z</time>
      </trkpt>
      <trkpt lat="44.67385" lon="1.26158">
        <ele>221.8</ele>
        <time>2024-07-23T09:14:11Z</time>
      </trkpt>
      <trkpt lat="44.67383" lon="1.26158">
        <ele>221.8</ele>
        <time>2024-07-23T09:14:12Z</time>
      </trkpt>
      <trkpt lat="44.6738" lon="1.26157">
        <ele>222</ele>
        <time>2024-07-23T09:14:13Z</time>
      </trkpt>
      <trkpt lat="44.67378" lon="1.26157">
        <ele>222.2</ele>
        <time>2024-07-23T09:14:14Z</time>
      </trkpt>
      <trkpt lat="44.67376" lon="1.26157">
        <ele>222.2</ele>
        <time>2024-07-23T09:14:15Z</time>
      </trkpt>
      <trkpt lat="44.67374" lon="1.26157">
        <ele>222.4</ele>
        <time>2024-07-23T09:14:16Z</time>
      </trkpt>
      <trkpt lat="44.67372" lon="1.26157">
        <ele>222.8</ele>
        <time>2024-07-23T09:14:17Z</time>
      </trkpt>
      <trkpt lat="44.6737" lon="1.26157">
        <ele>223</ele>
        <time>2024-07-23T09:14:18Z</time>
      </trkpt>
      <trkpt lat="44.67368" lon="1.26157">
        <ele>223.4</ele>
        <time>2024-07-23T09:14:19Z</time>
      </trkpt>
      <trkpt lat="44.67366" lon="1.26157">
        <ele>223.8</ele>
        <time>2024-07-23T09:14:20Z</time>
      </trkpt>
      <trkpt lat="44.67364" lon="1.26156">
        <ele>224</ele>
        <time>2024-07-23T09:14:21Z</time>
      </trkpt>
      <trkpt lat="44.67362" lon="1.26156">
        <ele>224.4</ele>
        <time>2024-07-23T09:14:22Z</time>
      </trkpt>
      <trkpt lat="44.67359" lon="1.26155">
        <ele>224.6</ele>
        <time>2024-07-23T09:14:23Z</time>
      </trkpt>
      <trkpt lat="44.67357" lon="1.26156">
        <ele>224.6</ele>
        <time>2024-07-23T09:14:24Z</time>
      </trkpt>
      <trkpt lat="44.67355" lon="1.26156">
        <ele>224.8</ele>
        <time>2024-07-23T09:14:25Z</time>
      </trkpt>
      <trkpt lat="44.67352" lon="1.26157">
        <ele>225</ele>
        <time>2024-07-23T09:14:26Z</time>
      </trkpt>
      <trkpt lat="44.67349" lon="1.26157">
        <ele>225.2</ele>
        <time>2024-07-23T09:14:27Z</time>
      </trkpt>
      <trkpt lat="44.67347" lon="1.26156">
        <ele>225.4</ele>
        <time>2024-07-23T09:14:28Z</time>
      </trkpt>
      <trkpt lat="44.67345" lon="1.26156">
        <ele>225.6</ele>
        <time>2024-07-23T09:14:29Z</time>
      </trkpt>
      <trkpt lat="44.67343" lon="1.26156">
        <ele>225.8</ele>
        <time>2024-07-23T09:14:30Z</time>
      </trkpt>
      <trkpt lat="44.67341" lon="1.26156">
        <ele>226</ele>
        <time>2024-07-23T09:14:31Z</time>
      </trkpt>
      <trkpt lat="44.67338" lon="1.26156">
        <ele>226</ele>
        <time>2024-07-23T09:14:32Z</time>
      </trkpt>
      <trkpt lat="44.67336" lon="1.26156">
        <ele>226.2</ele>
        <time>2024-07-23T09:14:33Z</time>
      </trkpt>
      <trkpt lat="44.67333" lon="1.26156">
        <ele>226.4</ele>
        <time>2024-07-23T09:14:34Z</time>
      </trkpt>
      <trkpt lat="44.67331" lon="1.26156">
        <ele>226.4</ele>
        <time>2024-07-23T09:14:35Z</time>
      </trkpt>
      <trkpt lat="44.67329" lon="1.26155">
        <ele>226.6</ele>
        <time>2024-07-23T09:14:36Z</time>
      </trkpt>
      <trkpt lat="44.67327" lon="1.26155">
        <ele>226.6</ele>
        <time>2024-07-23T09:14:37Z</time>
      </trkpt>
      <trkpt lat="44.67325" lon="1.26154">
        <ele>226.8</ele>
        <time>2024-07-23T09:14:38Z</time>
      </trkpt>
      <trkpt lat="44.67323" lon="1.26154">
        <ele>227</ele>
        <time>2024-07-23T09:14:39Z</time>
      </trkpt>
      <trkpt lat="44.67321" lon="1.26155">
        <ele>227.2</ele>
        <time>2024-07-23T09:14:40Z</time>
      </trkpt>
      <trkpt lat="44.67319" lon="1.26155">
        <ele>227.2</ele>
        <time>2024-07-23T09:14:41Z</time>
      </trkpt>
      <trkpt lat="44.67317" lon="1.26155">
        <ele>227.4</ele>
        <time>2024-07-23T09:14:42Z</time>
      </trkpt>
      <trkpt lat="44.67314" lon="1.26155">
        <ele>227.6</ele>
        <time>2024-07-23T09:14:43Z</time>
      </trkpt>
      <trkpt lat="44.67312" lon="1.26155">
        <ele>227.6</ele>
        <time>2024-07-23T09:14:44Z</time>
      </trkpt>
      <trkpt lat="44.6731" lon="1.26155">
        <ele>227.8</ele>
        <time>2024-07-23T09:14:45Z</time>
      </trkpt>
      <trkpt lat="44.67308" lon="1.26154">
        <ele>228</ele>
        <time>2024-07-23T09:14:46Z</time>
      </trkpt>
      <trkpt lat="44.67306" lon="1.26154">
        <ele>228</ele>
        <time>2024-07-23T09:14:47Z</time>
      </trkpt>
      <trkpt lat="44.67304" lon="1.26154">
        <ele>228.2</ele>
        <time>2024-07-23T09:14:48Z</time>
      </trkpt>
      <trkpt lat="44.67302" lon="1.26154">
        <ele>228.2</ele>
        <time>2024-07-23T09:14:49Z</time>
      </trkpt>
      <trkpt lat="44.673" lon="1.26154">
        <ele>228.4</ele>
        <time>2024-07-23T09:14:50Z</time>
      </trkpt>
      <trkpt lat="44.67298" lon="1.26154">
        <ele>228.4</ele>
        <time>2024-07-23T09:14:51Z</time>
      </trkpt>
      <trkpt lat="44.67296" lon="1.26154">
        <ele>228.6</ele>
        <time>2024-07-23T09:14:52Z</time>
      </trkpt>
      <trkpt lat="44.67293" lon="1.26154">
        <ele>228.6</ele>
        <time>2024-07-23T09:14:53Z</time>
      </trkpt>
      <trkpt lat="44.67291" lon="1.26154">
        <ele>228.8</ele>
        <time>2024-07-23T09:14:54Z</time>
      </trkpt>
      <trkpt lat="44.67289" lon="1.26154">
        <ele>228.8</ele>
        <time>2024-07-23T09:14:55Z</time>
      </trkpt>
      <trkpt lat="44.67287" lon="1.26154">
        <ele>228.8</ele>
        <time>2024-07-23T09:14:56Z</time>
      </trkpt>
      <trkpt lat="44.67285" lon="1.26154">
        <ele>228.8</ele>
        <time>2024-07-23T09:14:57Z</time>
      </trkpt>
      <trkpt lat="44.67282" lon="1.26154">
        <ele>228.8</ele>
        <time>2024-07-23T09:14:58Z</time>
      </trkpt>
      <trkpt lat="44.6728" lon="1.26153">
        <ele>229</ele>
        <time>2024-07-23T09:14:59Z</time>
      </trkpt>
      <trkpt lat="44.67277" lon="1.26153">
        <ele>229.2</ele>
        <time>2024-07-23T09:15:00Z</time>
      </trkpt>
      <trkpt lat="44.67275" lon="1.26153">
        <ele>229.2</ele>
        <time>2024-07-23T09:15:01Z</time>
      </trkpt>
      <trkpt lat="44.67273" lon="1.26153">
        <ele>229.4</ele>
        <time>2024-07-23T09:15:02Z</time>
      </trkpt>
      <trkpt lat="44.67271" lon="1.26152">
        <ele>229.6</ele>
        <time>2024-07-23T09:15:03Z</time>
      </trkpt>
      <trkpt lat="44.67268" lon="1.26151">
        <ele>229.6</ele>
        <time>2024-07-23T09:15:04Z</time>
      </trkpt>
      <trkpt lat="44.67266" lon="1.26151">
        <ele>229.8</ele>
        <time>2024-07-23T09:15:05Z</time>
      </trkpt>
      <trkpt lat="44.67264" lon="1.2615">
        <ele>230</ele>
        <time>2024-07-23T09:15:06Z</time>
      </trkpt>
      <trkpt lat="44.67262" lon="1.26149">
        <ele>230.2</ele>
        <time>2024-07-23T09:15:07Z</time>
      </trkpt>
      <trkpt lat="44.6726" lon="1.26147">
        <ele>230.2</ele>
        <time>2024-07-23T09:15:08Z</time>
      </trkpt>
      <trkpt lat="44.67259" lon="1.26146">
        <ele>230.4</ele>
        <time>2024-07-23T09:15:09Z</time>
      </trkpt>
      <trkpt lat="44.67257" lon="1.26145">
        <ele>230.4</ele>
        <time>2024-07-23T09:15:10Z</time>
      </trkpt>
      <trkpt lat="44.67255" lon="1.26144">
        <ele>230.6</ele>
        <time>2024-07-23T09:15:11Z</time>
      </trkpt>
      <trkpt lat="44.67254" lon="1.26143">
        <ele>230.8</ele>
        <time>2024-07-23T09:15:12Z</time>
      </trkpt>
      <trkpt lat="44.67253" lon="1.26143">
        <ele>230.8</ele>
        <time>2024-07-23T09:15:13Z</time>
      </trkpt>
      <trkpt lat="44.67251" lon="1.26142">
        <ele>231</ele>
        <time>2024-07-23T09:15:14Z</time>
      </trkpt>
      <trkpt lat="44.6725" lon="1.26141">
        <ele>231.2</ele>
        <time>2024-07-23T09:15:15Z</time>
      </trkpt>
      <trkpt lat="44.67248" lon="1.2614">
        <ele>231.4</ele>
        <time>2024-07-23T09:15:16Z</time>
      </trkpt>
      <trkpt lat="44.67246" lon="1.2614">
        <ele>231.6</ele>
        <time>2024-07-23T09:15:17Z</time>
      </trkpt>
      <trkpt lat="44.67245" lon="1.26139">
        <ele>231.6</ele>
        <time>2024-07-23T09:15:18Z</time>
      </trkpt>
      <trkpt lat="44.67243" lon="1.26139">
        <ele>231.8</ele>
        <time>2024-07-23T09:15:19Z</time>
      </trkpt>
      <trkpt lat="44.67241" lon="1.26138">
        <ele>231.8</ele>
        <time>2024-07-23T09:15:20Z</time>
      </trkpt>
      <trkpt lat="44.67239" lon="1.26138">
        <ele>232</ele>
        <time>2024-07-23T09:15:21Z</time>
      </trkpt>
      <trkpt lat="44.67237" lon="1.26138">
        <ele>232.2</ele>
        <time>2024-07-23T09:15:22Z</time>
      </trkpt>
      <trkpt lat="44.67235" lon="1.26137">
        <ele>232.2</ele>
        <time>2024-07-23T09:15:23Z</time>
      </trkpt>
      <trkpt lat="44.67234" lon="1.26137">
        <ele>232.8</ele>
        <time>2024-07-23T09:15:24Z</time>
      </trkpt>
      <trkpt lat="44.67231" lon="1.26136">
        <ele>232.8</ele>
        <time>2024-07-23T09:15:25Z</time>
      </trkpt>
      <trkpt lat="44.67229" lon="1.26135">
        <ele>233</ele>
        <time>2024-07-23T09:15:26Z</time>
      </trkpt>
      <trkpt lat="44.67228" lon="1.26135">
        <ele>233.2</ele>
        <time>2024-07-23T09:15:27Z</time>
      </trkpt>
      <trkpt lat="44.67226" lon="1.26135">
        <ele>233.2</ele>
        <time>2024-07-23T09:15:28Z</time>
      </trkpt>
      <trkpt lat="44.67224" lon="1.26134">
        <ele>233.4</ele>
        <time>2024-07-23T09:15:29Z</time>
      </trkpt>
      <trkpt lat="44.67223" lon="1.26134">
        <ele>233.4</ele>
        <time>2024-07-23T09:15:30Z</time>
      </trkpt>
      <trkpt lat="44.67222" lon="1.26134">
        <ele>233.6</ele>
        <time>2024-07-23T09:15:31Z</time>
      </trkpt>
      <trkpt lat="44.6722" lon="1.26134">
        <ele>233.6</ele>
        <time>2024-07-23T09:15:32Z</time>
      </trkpt>
      <trkpt lat="44.67218" lon="1.26134">
        <ele>233.8</ele>
        <time>2024-07-23T09:15:33Z</time>
      </trkpt>
      <trkpt lat="44.67217" lon="1.26133">
        <ele>233.8</ele>
        <time>2024-07-23T09:15:34Z</time>
      </trkpt>
      <trkpt lat="44.67215" lon="1.26133">
        <ele>234</ele>
        <time>2024-07-23T09:15:35Z</time>
      </trkpt>
      <trkpt lat="44.67214" lon="1.26132">
        <ele>234.4</ele>
        <time>2024-07-23T09:15:36Z</time>
      </trkpt>
      <trkpt lat="44.67212" lon="1.26132">
        <ele>234.4</ele>
        <time>2024-07-23T09:15:37Z</time>
      </trkpt>
      <trkpt lat="44.67211" lon="1.26132">
        <ele>234.6</ele>
        <time>2024-07-23T09:15:38Z</time>
      </trkpt>
      <trkpt lat="44.67209" lon="1.26132">
        <ele>234.8</ele>
        <time>2024-07-23T09:15:39Z</time>
      </trkpt>
      <trkpt lat="44.67207" lon="1.26131">
        <ele>235</ele>
        <time>2024-07-23T09:15:40Z</time>
      </trkpt>
      <trkpt lat="44.67205" lon="1.2613">
        <ele>235.2</ele>
        <time>2024-07-23T09:15:41Z</time>
      </trkpt>
      <trkpt lat="44.67204" lon="1.2613">
        <ele>235.4</ele>
        <time>2024-07-23T09:15:42Z</time>
      </trkpt>
      <trkpt lat="44.67203" lon="1.26129">
        <ele>235.4</ele>
        <time>2024-07-23T09:15:43Z</time>
      </trkpt>
      <trkpt lat="44.67201" lon="1.26129">
        <ele>235.6</ele>
        <time>2024-07-23T09:15:44Z</time>
      </trkpt>
      <trkpt lat="44.672" lon="1.26128">
        <ele>235.8</ele>
        <time>2024-07-23T09:15:45Z</time>
      </trkpt>
      <trkpt lat="44.67198" lon="1.26128">
        <ele>235.8</ele>
        <time>2024-07-23T09:15:46Z</time>
      </trkpt>
      <trkpt lat="44.67197" lon="1.26127">
        <ele>236</ele>
        <time>2024-07-23T09:15:47Z</time>
      </trkpt>
      <trkpt lat="44.67196" lon="1.26127">
        <ele>236.2</ele>
        <time>2024-07-23T09:15:48Z</time>
      </trkpt>
      <trkpt lat="44.67195" lon="1.26126">
        <ele>236.2</ele>
        <time>2024-07-23T09:15:49Z</time>
      </trkpt>
      <trkpt lat="44.67193" lon="1.26126">
        <ele>236.6</ele>
        <time>2024-07-23T09:15:50Z</time>
      </trkpt>
      <trkpt lat="44.67192" lon="1.26126">
        <ele>236.6</ele>
        <time>2024-07-23T09:15:51Z</time>
      </trkpt>
      <trkpt lat="44.67189" lon="1.26125">
        <ele>237</ele>
        <time>2024-07-23T09:15:52Z</time>
      </trkpt>
      <trkpt lat="44.67188" lon="1.26125">
        <ele>237</ele>
        <time>2024-07-23T09:15:53Z</time>
      </trkpt>
      <trkpt lat="44.67187" lon="1.26124">
        <ele>237.2</ele>
        <time>2024-07-23T09:15:54Z</time>
      </trkpt>
      <trkpt lat="44.67185" lon="1.26124">
        <ele>237.4</ele>
        <time>2024-07-23T09:15:55Z</time>
      </trkpt>
      <trkpt lat="44.67183" lon="1.26124">
        <ele>237.4</ele>
        <time>2024-07-23T09:15:56Z</time>
      </trkpt>
      <trkpt lat="44.67182" lon="1.26124">
        <ele>237.4</ele>
        <time>2024-07-23T09:15:57Z</time>
      </trkpt>
      <trkpt lat="44.67181" lon="1.26123">
        <ele>237.6</ele>
        <time>2024-07-23T09:15:58Z</time>
      </trkpt>
      <trkpt lat="44.67178" lon="1.26123">
        <ele>237.8</ele>
        <time>2024-07-23T09:15:59Z</time>
      </trkpt>
      <trkpt lat="44.67176" lon="1.26122">
        <ele>238</ele>
        <time>2024-07-23T09:16:00Z</time>
      </trkpt>
      <trkpt lat="44.67175" lon="1.26122">
        <ele>238</ele>
        <time>2024-07-23T09:16:01Z</time>
      </trkpt>
      <trkpt lat="44.67174" lon="1.26122">
        <ele>238.2</ele>
        <time>2024-07-23T09:16:02Z</time>
      </trkpt>
      <trkpt lat="44.67173" lon="1.26121">
        <ele>238.4</ele>
        <time>2024-07-23T09:16:03Z</time>
      </trkpt>
      <trkpt lat="44.67171" lon="1.26121">
        <ele>238.6</ele>
        <time>2024-07-23T09:16:04Z</time>
      </trkpt>
      <trkpt lat="44.67169" lon="1.2612">
        <ele>238.8</ele>
        <time>2024-07-23T09:16:05Z</time>
      </trkpt>
      <trkpt lat="44.67167" lon="1.26119">
        <ele>239</ele>
        <time>2024-07-23T09:16:06Z</time>
      </trkpt>
      <trkpt lat="44.67165" lon="1.26118">
        <ele>239.2</ele>
        <time>2024-07-23T09:16:07Z</time>
      </trkpt>
      <trkpt lat="44.67163" lon="1.26118">
        <ele>239.2</ele>
        <time>2024-07-23T09:16:08Z</time>
      </trkpt>
      <trkpt lat="44.67162" lon="1.26117">
        <ele>239.6</ele>
        <time>2024-07-23T09:16:09Z</time>
      </trkpt>
      <trkpt lat="44.6716" lon="1.26116">
        <ele>239.6</ele>
        <time>2024-07-23T09:16:10Z</time>
      </trkpt>
      <trkpt lat="44.67158" lon="1.26115">
        <ele>239.8</ele>
        <time>2024-07-23T09:16:11Z</time>
      </trkpt>
      <trkpt lat="44.67157" lon="1.26114">
        <ele>239.8</ele>
        <time>2024-07-23T09:16:12Z</time>
      </trkpt>
      <trkpt lat="44.67155" lon="1.26113">
        <ele>240</ele>
        <time>2024-07-23T09:16:13Z</time>
      </trkpt>
      <trkpt lat="44.67153" lon="1.26112">
        <ele>240</ele>
        <time>2024-07-23T09:16:14Z</time>
      </trkpt>
      <trkpt lat="44.67151" lon="1.26112">
        <ele>240.2</ele>
        <time>2024-07-23T09:16:15Z</time>
      </trkpt>
      <trkpt lat="44.6715" lon="1.2611">
        <ele>240.2</ele>
        <time>2024-07-23T09:16:16Z</time>
      </trkpt>
      <trkpt lat="44.67148" lon="1.2611">
        <ele>240.2</ele>
        <time>2024-07-23T09:16:17Z</time>
      </trkpt>
      <trkpt lat="44.67146" lon="1.26109">
        <ele>240.4</ele>
        <time>2024-07-23T09:16:18Z</time>
      </trkpt>
      <trkpt lat="44.67143" lon="1.26108">
        <ele>240.6</ele>
        <time>2024-07-23T09:16:19Z</time>
      </trkpt>
      <trkpt lat="44.6714" lon="1.26106">
        <ele>240.6</ele>
        <time>2024-07-23T09:16:20Z</time>
      </trkpt>
      <trkpt lat="44.67138" lon="1.26105">
        <ele>240.8</ele>
        <time>2024-07-23T09:16:21Z</time>
      </trkpt>
      <trkpt lat="44.67135" lon="1.26103">
        <ele>240.8</ele>
        <time>2024-07-23T09:16:22Z</time>
      </trkpt>
      <trkpt lat="44.67133" lon="1.26102">
        <ele>240.8</ele>
        <time>2024-07-23T09:16:23Z</time>
      </trkpt>
      <trkpt lat="44.6713" lon="1.26101">
        <ele>240.8</ele>
        <time>2024-07-23T09:16:24Z</time>
      </trkpt>
      <trkpt lat="44.67128" lon="1.261">
        <ele>240.8</ele>
        <time>2024-07-23T09:16:25Z</time>
      </trkpt>
      <trkpt lat="44.67125" lon="1.26099">
        <ele>240.8</ele>
        <time>2024-07-23T09:16:26Z</time>
      </trkpt>
      <trkpt lat="44.67122" lon="1.26098">
        <ele>240.8</ele>
        <time>2024-07-23T09:16:27Z</time>
      </trkpt>
      <trkpt lat="44.6712" lon="1.26097">
        <ele>240.8</ele>
        <time>2024-07-23T09:16:28Z</time>
      </trkpt>
      <trkpt lat="44.67117" lon="1.26096">
        <ele>240.8</ele>
        <time>2024-07-23T09:16:29Z</time>
      </trkpt>
      <trkpt lat="44.67114" lon="1.26095">
        <ele>240.8</ele>
        <time>2024-07-23T09:16:30Z</time>
      </trkpt>
      <trkpt lat="44.67111" lon="1.26094">
        <ele>240.8</ele>
        <time>2024-07-23T09:16:31Z</time>
      </trkpt>
      <trkpt lat="44.67087" lon="1.26089">
        <ele>240.6</ele>
        <time>2024-07-23T09:16:39Z</time>
      </trkpt>
      <trkpt lat="44.67067" lon="1.2609">
        <ele>240.4</ele>
        <time>2024-07-23T09:16:45Z</time>
      </trkpt>
      <trkpt lat="44.67056" lon="1.26093">
        <ele>240.6</ele>
        <time>2024-07-23T09:16:49Z</time>
      </trkpt>
      <trkpt lat="44.67053" lon="1.26093">
        <ele>240.6</ele>
        <time>2024-07-23T09:16:50Z</time>
      </trkpt>
      <trkpt lat="44.6705" lon="1.26094">
        <ele>240.6</ele>
        <time>2024-07-23T09:16:51Z</time>
      </trkpt>
      <trkpt lat="44.67047" lon="1.26094">
        <ele>240.6</ele>
        <time>2024-07-23T09:16:52Z</time>
      </trkpt>
      <trkpt lat="44.67044" lon="1.26095">
        <ele>240.6</ele>
        <time>2024-07-23T09:16:53Z</time>
      </trkpt>
      <trkpt lat="44.67041" lon="1.26096">
        <ele>240.6</ele>
        <time>2024-07-23T09:16:54Z</time>
      </trkpt>
      <trkpt lat="44.67038" lon="1.26097">
        <ele>240.6</ele>
        <time>2024-07-23T09:16:55Z</time>
      </trkpt>
      <trkpt lat="44.67036" lon="1.26097">
        <ele>240.6</ele>
        <time>2024-07-23T09:16:56Z</time>
      </trkpt>
      <trkpt lat="44.67034" lon="1.26098">
        <ele>240.8</ele>
        <time>2024-07-23T09:16:57Z</time>
      </trkpt>
      <trkpt lat="44.67031" lon="1.26099">
        <ele>241</ele>
        <time>2024-07-23T09:16:58Z</time>
      </trkpt>
      <trkpt lat="44.67029" lon="1.26099">
        <ele>241</ele>
        <time>2024-07-23T09:16:59Z</time>
      </trkpt>
      <trkpt lat="44.67027" lon="1.261">
        <ele>241.2</ele>
        <time>2024-07-23T09:17:00Z</time>
      </trkpt>
      <trkpt lat="44.67024" lon="1.261">
        <ele>241.4</ele>
        <time>2024-07-23T09:17:02Z</time>
      </trkpt>
      <trkpt lat="44.67022" lon="1.261">
        <ele>241.4</ele>
        <time>2024-07-23T09:17:03Z</time>
      </trkpt>
      <trkpt lat="44.67021" lon="1.261">
        <ele>241.6</ele>
        <time>2024-07-23T09:17:04Z</time>
      </trkpt>
      <trkpt lat="44.67018" lon="1.26101">
        <ele>241.8</ele>
        <time>2024-07-23T09:17:06Z</time>
      </trkpt>
      <trkpt lat="44.67017" lon="1.261">
        <ele>241.8</ele>
        <time>2024-07-23T09:17:07Z</time>
      </trkpt>
      <trkpt lat="44.67016" lon="1.261">
        <ele>242.4</ele>
        <time>2024-07-23T09:17:08Z</time>
      </trkpt>
      <trkpt lat="44.67015" lon="1.26099">
        <ele>242.6</ele>
        <time>2024-07-23T09:17:09Z</time>
      </trkpt>
      <trkpt lat="44.67014" lon="1.26099">
        <ele>242.6</ele>
        <time>2024-07-23T09:17:10Z</time>
      </trkpt>
      <trkpt lat="44.67013" lon="1.26098">
        <ele>242.8</ele>
        <time>2024-07-23T09:17:11Z</time>
      </trkpt>
      <trkpt lat="44.67011" lon="1.26097">
        <ele>243</ele>
        <time>2024-07-23T09:17:12Z</time>
      </trkpt>
      <trkpt lat="44.6701" lon="1.26096">
        <ele>243</ele>
        <time>2024-07-23T09:17:13Z</time>
      </trkpt>
      <trkpt lat="44.67006" lon="1.26093">
        <ele>243.6</ele>
        <time>2024-07-23T09:17:16Z</time>
      </trkpt>
      <trkpt lat="44.67005" lon="1.26092">
        <ele>243.8</ele>
        <time>2024-07-23T09:17:17Z</time>
      </trkpt>
      <trkpt lat="44.67004" lon="1.26091">
        <ele>244</ele>
        <time>2024-07-23T09:17:18Z</time>
      </trkpt>
      <trkpt lat="44.67002" lon="1.2609">
        <ele>244.2</ele>
        <time>2024-07-23T09:17:19Z</time>
      </trkpt>
      <trkpt lat="44.67001" lon="1.26089">
        <ele>244.4</ele>
        <time>2024-07-23T09:17:20Z</time>
      </trkpt>
      <trkpt lat="44.67" lon="1.26088">
        <ele>244.6</ele>
        <time>2024-07-23T09:17:21Z</time>
      </trkpt>
      <trkpt lat="44.66998" lon="1.26087">
        <ele>245</ele>
        <time>2024-07-23T09:17:22Z</time>
      </trkpt>
      <trkpt lat="44.66997" lon="1.26086">
        <ele>245.2</ele>
        <time>2024-07-23T09:17:23Z</time>
      </trkpt>
      <trkpt lat="44.66996" lon="1.26086">
        <ele>245.2</ele>
        <time>2024-07-23T09:17:24Z</time>
      </trkpt>
      <trkpt lat="44.66995" lon="1.26085">
        <ele>245.4</ele>
        <time>2024-07-23T09:17:25Z</time>
      </trkpt>
      <trkpt lat="44.66993" lon="1.26084">
        <ele>245.6</ele>
        <time>2024-07-23T09:17:26Z</time>
      </trkpt>
      <trkpt lat="44.66992" lon="1.26084">
        <ele>245.6</ele>
        <time>2024-07-23T09:17:27Z</time>
      </trkpt>
      <trkpt lat="44.66991" lon="1.26083">
        <ele>245.8</ele>
        <time>2024-07-23T09:17:28Z</time>
      </trkpt>
      <trkpt lat="44.6699" lon="1.26083">
        <ele>246</ele>
        <time>2024-07-23T09:17:29Z</time>
      </trkpt>
      <trkpt lat="44.66989" lon="1.26082">
        <ele>246.2</ele>
        <time>2024-07-23T09:17:30Z</time>
      </trkpt>
      <trkpt lat="44.66988" lon="1.26081">
        <ele>246.2</ele>
        <time>2024-07-23T09:17:31Z</time>
      </trkpt>
      <trkpt lat="44.66986" lon="1.26081">
        <ele>246.4</ele>
        <time>2024-07-23T09:17:32Z</time>
      </trkpt>
      <trkpt lat="44.66985" lon="1.2608">
        <ele>246.6</ele>
        <time>2024-07-23T09:17:33Z</time>
      </trkpt>
      <trkpt lat="44.66983" lon="1.2608">
        <ele>246.8</ele>
        <time>2024-07-23T09:17:34Z</time>
      </trkpt>
      <trkpt lat="44.66982" lon="1.26079">
        <ele>247.2</ele>
        <time>2024-07-23T09:17:35Z</time>
      </trkpt>
      <trkpt lat="44.6698" lon="1.26079">
        <ele>247.2</ele>
        <time>2024-07-23T09:17:36Z</time>
      </trkpt>
      <trkpt lat="44.66978" lon="1.26078">
        <ele>247.4</ele>
        <time>2024-07-23T09:17:37Z</time>
      </trkpt>
      <trkpt lat="44.66976" lon="1.26078">
        <ele>247.4</ele>
        <time>2024-07-23T09:17:38Z</time>
      </trkpt>
      <trkpt lat="44.66974" lon="1.26077">
        <ele>247.6</ele>
        <time>2024-07-23T09:17:39Z</time>
      </trkpt>
      <trkpt lat="44.66973" lon="1.26077">
        <ele>247.6</ele>
        <time>2024-07-23T09:17:40Z</time>
      </trkpt>
      <trkpt lat="44.66971" lon="1.26076">
        <ele>247.8</ele>
        <time>2024-07-23T09:17:41Z</time>
      </trkpt>
      <trkpt lat="44.66969" lon="1.26076">
        <ele>248</ele>
        <time>2024-07-23T09:17:42Z</time>
      </trkpt>
      <trkpt lat="44.66967" lon="1.26075">
        <ele>248</ele>
        <time>2024-07-23T09:17:43Z</time>
      </trkpt>
      <trkpt lat="44.66966" lon="1.26074">
        <ele>248.2</ele>
        <time>2024-07-23T09:17:44Z</time>
      </trkpt>
      <trkpt lat="44.66964" lon="1.26073">
        <ele>248.2</ele>
        <time>2024-07-23T09:17:45Z</time>
      </trkpt>
      <trkpt lat="44.66962" lon="1.26072">
        <ele>248.4</ele>
        <time>2024-07-23T09:17:46Z</time>
      </trkpt>
      <trkpt lat="44.6696" lon="1.26072">
        <ele>248.6</ele>
        <time>2024-07-23T09:17:47Z</time>
      </trkpt>
      <trkpt lat="44.66958" lon="1.26071">
        <ele>248.8</ele>
        <time>2024-07-23T09:17:48Z</time>
      </trkpt>
      <trkpt lat="44.66956" lon="1.2607">
        <ele>249</ele>
        <time>2024-07-23T09:17:49Z</time>
      </trkpt>
      <trkpt lat="44.66954" lon="1.26069">
        <ele>249</ele>
        <time>2024-07-23T09:17:50Z</time>
      </trkpt>
      <trkpt lat="44.66952" lon="1.26068">
        <ele>249.2</ele>
        <time>2024-07-23T09:17:51Z</time>
      </trkpt>
      <trkpt lat="44.6695" lon="1.26068">
        <ele>249.2</ele>
        <time>2024-07-23T09:17:52Z</time>
      </trkpt>
      <trkpt lat="44.66948" lon="1.26067">
        <ele>249.4</ele>
        <time>2024-07-23T09:17:53Z</time>
      </trkpt>
      <trkpt lat="44.66946" lon="1.26066">
        <ele>249.6</ele>
        <time>2024-07-23T09:17:54Z</time>
      </trkpt>
      <trkpt lat="44.66944" lon="1.26065">
        <ele>249.6</ele>
        <time>2024-07-23T09:17:55Z</time>
      </trkpt>
      <trkpt lat="44.66942" lon="1.26064">
        <ele>249.8</ele>
        <time>2024-07-23T09:17:56Z</time>
      </trkpt>
      <trkpt lat="44.6694" lon="1.26063">
        <ele>249.8</ele>
        <time>2024-07-23T09:17:57Z</time>
      </trkpt>
      <trkpt lat="44.66938" lon="1.26063">
        <ele>250</ele>
        <time>2024-07-23T09:17:58Z</time>
      </trkpt>
      <trkpt lat="44.66936" lon="1.26063">
        <ele>250</ele>
        <time>2024-07-23T09:17:59Z</time>
      </trkpt>
      <trkpt lat="44.66934" lon="1.26063">
        <ele>250</ele>
        <time>2024-07-23T09:18:00Z</time>
      </trkpt>
      <trkpt lat="44.66932" lon="1.26063">
        <ele>250.2</ele>
        <time>2024-07-23T09:18:01Z</time>
      </trkpt>
      <trkpt lat="44.6693" lon="1.26062">
        <ele>250.2</ele>
        <time>2024-07-23T09:18:02Z</time>
      </trkpt>
      <trkpt lat="44.66929" lon="1.26062">
        <ele>250.4</ele>
        <time>2024-07-23T09:18:03Z</time>
      </trkpt>
      <trkpt lat="44.66927" lon="1.26062">
        <ele>250.4</ele>
        <time>2024-07-23T09:18:04Z</time>
      </trkpt>
      <trkpt lat="44.66925" lon="1.26061">
        <ele>250.6</ele>
        <time>2024-07-23T09:18:05Z</time>
      </trkpt>
      <trkpt lat="44.66923" lon="1.26061">
        <ele>250.8</ele>
        <time>2024-07-23T09:18:06Z</time>
      </trkpt>
      <trkpt lat="44.66921" lon="1.26061">
        <ele>250.8</ele>
        <time>2024-07-23T09:18:07Z</time>
      </trkpt>
      <trkpt lat="44.66919" lon="1.26061">
        <ele>251</ele>
        <time>2024-07-23T09:18:08Z</time>
      </trkpt>
      <trkpt lat="44.66918" lon="1.26061">
        <ele>251.2</ele>
        <time>2024-07-23T09:18:09Z</time>
      </trkpt>
      <trkpt lat="44.66916" lon="1.26061">
        <ele>251.2</ele>
        <time>2024-07-23T09:18:10Z</time>
      </trkpt>
      <trkpt lat="44.66915" lon="1.26061">
        <ele>251.4</ele>
        <time>2024-07-23T09:18:11Z</time>
      </trkpt>
      <trkpt lat="44.66913" lon="1.26061">
        <ele>251.4</ele>
        <time>2024-07-23T09:18:12Z</time>
      </trkpt>
      <trkpt lat="44.6691" lon="1.26061">
        <ele>251.6</ele>
        <time>2024-07-23T09:18:13Z</time>
      </trkpt>
      <trkpt lat="44.66909" lon="1.26061">
        <ele>251.6</ele>
        <time>2024-07-23T09:18:14Z</time>
      </trkpt>
      <trkpt lat="44.66907" lon="1.26061">
        <ele>251.8</ele>
        <time>2024-07-23T09:18:15Z</time>
      </trkpt>
      <trkpt lat="44.66905" lon="1.26062">
        <ele>251.8</ele>
        <time>2024-07-23T09:18:16Z</time>
      </trkpt>
      <trkpt lat="44.66903" lon="1.26062">
        <ele>252</ele>
        <time>2024-07-23T09:18:17Z</time>
      </trkpt>
      <trkpt lat="44.66901" lon="1.26062">
        <ele>252.2</ele>
        <time>2024-07-23T09:18:18Z</time>
      </trkpt>
      <trkpt lat="44.669" lon="1.26062">
        <ele>252.6</ele>
        <time>2024-07-23T09:18:19Z</time>
      </trkpt>
      <trkpt lat="44.66898" lon="1.26062">
        <ele>252.6</ele>
        <time>2024-07-23T09:18:20Z</time>
      </trkpt>
      <trkpt lat="44.66896" lon="1.26062">
        <ele>252.6</ele>
        <time>2024-07-23T09:18:21Z</time>
      </trkpt>
      <trkpt lat="44.66894" lon="1.26062">
        <ele>252.8</ele>
        <time>2024-07-23T09:18:22Z</time>
      </trkpt>
      <trkpt lat="44.66892" lon="1.26062">
        <ele>252.8</ele>
        <time>2024-07-23T09:18:23Z</time>
      </trkpt>
      <trkpt lat="44.6689" lon="1.26061">
        <ele>252.8</ele>
        <time>2024-07-23T09:18:24Z</time>
      </trkpt>
      <trkpt lat="44.66888" lon="1.2606">
        <ele>253</ele>
        <time>2024-07-23T09:18:25Z</time>
      </trkpt>
      <trkpt lat="44.66885" lon="1.2606">
        <ele>253</ele>
        <time>2024-07-23T09:18:26Z</time>
      </trkpt>
      <trkpt lat="44.66883" lon="1.26059">
        <ele>253.2</ele>
        <time>2024-07-23T09:18:27Z</time>
      </trkpt>
      <trkpt lat="44.66881" lon="1.26058">
        <ele>253.4</ele>
        <time>2024-07-23T09:18:28Z</time>
      </trkpt>
      <trkpt lat="44.66879" lon="1.26057">
        <ele>253.4</ele>
        <time>2024-07-23T09:18:29Z</time>
      </trkpt>
      <trkpt lat="44.66876" lon="1.26056">
        <ele>253.4</ele>
        <time>2024-07-23T09:18:30Z</time>
      </trkpt>
      <trkpt lat="44.66874" lon="1.26054">
        <ele>253.8</ele>
        <time>2024-07-23T09:18:31Z</time>
      </trkpt>
      <trkpt lat="44.66872" lon="1.26053">
        <ele>253.8</ele>
        <time>2024-07-23T09:18:32Z</time>
      </trkpt>
      <trkpt lat="44.66871" lon="1.26052">
        <ele>253.8</ele>
        <time>2024-07-23T09:18:33Z</time>
      </trkpt>
      <trkpt lat="44.66869" lon="1.26051">
        <ele>254.2</ele>
        <time>2024-07-23T09:18:34Z</time>
      </trkpt>
      <trkpt lat="44.66868" lon="1.2605">
        <ele>254.2</ele>
        <time>2024-07-23T09:18:35Z</time>
      </trkpt>
      <trkpt lat="44.66866" lon="1.26049">
        <ele>254.2</ele>
        <time>2024-07-23T09:18:36Z</time>
      </trkpt>
      <trkpt lat="44.66864" lon="1.26048">
        <ele>254</ele>
        <time>2024-07-23T09:18:37Z</time>
      </trkpt>
      <trkpt lat="44.66862" lon="1.26046">
        <ele>254.2</ele>
        <time>2024-07-23T09:18:38Z</time>
      </trkpt>
      <trkpt lat="44.66861" lon="1.26045">
        <ele>254</ele>
        <time>2024-07-23T09:18:39Z</time>
      </trkpt>
      <trkpt lat="44.66859" lon="1.26044">
        <ele>254.4</ele>
        <time>2024-07-23T09:18:40Z</time>
      </trkpt>
      <trkpt lat="44.66857" lon="1.26042">
        <ele>254.4</ele>
        <time>2024-07-23T09:18:41Z</time>
      </trkpt>
      <trkpt lat="44.66855" lon="1.26041">
        <ele>254.4</ele>
        <time>2024-07-23T09:18:42Z</time>
      </trkpt>
      <trkpt lat="44.66853" lon="1.2604">
        <ele>254.6</ele>
        <time>2024-07-23T09:18:43Z</time>
      </trkpt>
      <trkpt lat="44.6685" lon="1.26038">
        <ele>254.8</ele>
        <time>2024-07-23T09:18:44Z</time>
      </trkpt>
      <trkpt lat="44.66848" lon="1.26037">
        <ele>254.8</ele>
        <time>2024-07-23T09:18:45Z</time>
      </trkpt>
      <trkpt lat="44.66846" lon="1.26036">
        <ele>255</ele>
        <time>2024-07-23T09:18:46Z</time>
      </trkpt>
      <trkpt lat="44.66846" lon="1.26036">
        <ele>255.4</ele>
        <time>2024-07-23T09:18:47Z</time>
      </trkpt>
      <trkpt lat="44.66845" lon="1.26035">
        <ele>255.2</ele>
        <time>2024-07-23T09:18:48Z</time>
      </trkpt>
      <trkpt lat="44.66844" lon="1.26034">
        <ele>255.4</ele>
        <time>2024-07-23T09:18:49Z</time>
      </trkpt>
      <trkpt lat="44.66842" lon="1.26032">
        <ele>255.6</ele>
        <time>2024-07-23T09:18:50Z</time>
      </trkpt>
      <trkpt lat="44.66839" lon="1.26032">
        <ele>256</ele>
        <time>2024-07-23T09:18:51Z</time>
      </trkpt>
      <trkpt lat="44.66838" lon="1.26031">
        <ele>256</ele>
        <time>2024-07-23T09:18:52Z</time>
      </trkpt>
      <trkpt lat="44.66837" lon="1.26031">
        <ele>256.2</ele>
        <time>2024-07-23T09:18:53Z</time>
      </trkpt>
      <trkpt lat="44.66835" lon="1.26031">
        <ele>256.2</ele>
        <time>2024-07-23T09:18:54Z</time>
      </trkpt>
      <trkpt lat="44.66835" lon="1.2603">
        <ele>256.4</ele>
        <time>2024-07-23T09:18:55Z</time>
      </trkpt>
      <trkpt lat="44.66833" lon="1.26029">
        <ele>256.6</ele>
        <time>2024-07-23T09:18:56Z</time>
      </trkpt>
      <trkpt lat="44.66832" lon="1.26029">
        <ele>256.4</ele>
        <time>2024-07-23T09:18:57Z</time>
      </trkpt>
      <trkpt lat="44.66831" lon="1.26028">
        <ele>256.6</ele>
        <time>2024-07-23T09:18:58Z</time>
      </trkpt>
      <trkpt lat="44.6683" lon="1.26028">
        <ele>256.8</ele>
        <time>2024-07-23T09:18:59Z</time>
      </trkpt>
      <trkpt lat="44.66829" lon="1.26028">
        <ele>257</ele>
        <time>2024-07-23T09:19:00Z</time>
      </trkpt>
      <trkpt lat="44.66828" lon="1.26027">
        <ele>257.2</ele>
        <time>2024-07-23T09:19:01Z</time>
      </trkpt>
      <trkpt lat="44.66826" lon="1.26027">
        <ele>257.4</ele>
        <time>2024-07-23T09:19:02Z</time>
      </trkpt>
      <trkpt lat="44.66825" lon="1.26027">
        <ele>257.6</ele>
        <time>2024-07-23T09:19:03Z</time>
      </trkpt>
      <trkpt lat="44.66823" lon="1.26026">
        <ele>257.8</ele>
        <time>2024-07-23T09:19:04Z</time>
      </trkpt>
      <trkpt lat="44.66822" lon="1.26025">
        <ele>258</ele>
        <time>2024-07-23T09:19:05Z</time>
      </trkpt>
      <trkpt lat="44.66821" lon="1.26024">
        <ele>258.4</ele>
        <time>2024-07-23T09:19:06Z</time>
      </trkpt>
      <trkpt lat="44.66819" lon="1.26024">
        <ele>258.8</ele>
        <time>2024-07-23T09:19:07Z</time>
      </trkpt>
      <trkpt lat="44.66818" lon="1.26023">
        <ele>259</ele>
        <time>2024-07-23T09:19:08Z</time>
      </trkpt>
      <trkpt lat="44.66817" lon="1.26023">
        <ele>259.2</ele>
        <time>2024-07-23T09:19:09Z</time>
      </trkpt>
      <trkpt lat="44.66816" lon="1.26023">
        <ele>259.4</ele>
        <time>2024-07-23T09:19:10Z</time>
      </trkpt>
      <trkpt lat="44.66814" lon="1.26023">
        <ele>259.4</ele>
        <time>2024-07-23T09:19:11Z</time>
      </trkpt>
      <trkpt lat="44.66812" lon="1.26022">
        <ele>259.8</ele>
        <time>2024-07-23T09:19:12Z</time>
      </trkpt>
      <trkpt lat="44.66811" lon="1.26022">
        <ele>260</ele>
        <time>2024-07-23T09:19:13Z</time>
      </trkpt>
      <trkpt lat="44.66809" lon="1.26022">
        <ele>260</ele>
        <time>2024-07-23T09:19:14Z</time>
      </trkpt>
      <trkpt lat="44.66808" lon="1.26021">
        <ele>260.2</ele>
        <time>2024-07-23T09:19:15Z</time>
      </trkpt>
      <trkpt lat="44.66806" lon="1.26021">
        <ele>260.2</ele>
        <time>2024-07-23T09:19:16Z</time>
      </trkpt>
      <trkpt lat="44.66804" lon="1.26021">
        <ele>260.4</ele>
        <time>2024-07-23T09:19:17Z</time>
      </trkpt>
      <trkpt lat="44.66803" lon="1.2602">
        <ele>260.6</ele>
        <time>2024-07-23T09:19:18Z</time>
      </trkpt>
      <trkpt lat="44.66802" lon="1.26019">
        <ele>260.8</ele>
        <time>2024-07-23T09:19:19Z</time>
      </trkpt>
      <trkpt lat="44.668" lon="1.26019">
        <ele>260.8</ele>
        <time>2024-07-23T09:19:20Z</time>
      </trkpt>
      <trkpt lat="44.66799" lon="1.26018">
        <ele>261</ele>
        <time>2024-07-23T09:19:21Z</time>
      </trkpt>
      <trkpt lat="44.66797" lon="1.26017">
        <ele>261.4</ele>
        <time>2024-07-23T09:19:22Z</time>
      </trkpt>
      <trkpt lat="44.66795" lon="1.26017">
        <ele>261.4</ele>
        <time>2024-07-23T09:19:23Z</time>
      </trkpt>
      <trkpt lat="44.66793" lon="1.26016">
        <ele>261.6</ele>
        <time>2024-07-23T09:19:24Z</time>
      </trkpt>
      <trkpt lat="44.66792" lon="1.26015">
        <ele>261.6</ele>
        <time>2024-07-23T09:19:25Z</time>
      </trkpt>
      <trkpt lat="44.66791" lon="1.26015">
        <ele>261.6</ele>
        <time>2024-07-23T09:19:26Z</time>
      </trkpt>
      <trkpt lat="44.6679" lon="1.26014">
        <ele>261.8</ele>
        <time>2024-07-23T09:19:27Z</time>
      </trkpt>
      <trkpt lat="44.66789" lon="1.26013">
        <ele>261.8</ele>
        <time>2024-07-23T09:19:28Z</time>
      </trkpt>
      <trkpt lat="44.66787" lon="1.26013">
        <ele>262</ele>
        <time>2024-07-23T09:19:29Z</time>
      </trkpt>
      <trkpt lat="44.66786" lon="1.26013">
        <ele>262</ele>
        <time>2024-07-23T09:19:30Z</time>
      </trkpt>
      <trkpt lat="44.66785" lon="1.26012">
        <ele>262.2</ele>
        <time>2024-07-23T09:19:31Z</time>
      </trkpt>
      <trkpt lat="44.66783" lon="1.26011">
        <ele>262.4</ele>
        <time>2024-07-23T09:19:32Z</time>
      </trkpt>
      <trkpt lat="44.66781" lon="1.26011">
        <ele>262.4</ele>
        <time>2024-07-23T09:19:33Z</time>
      </trkpt>
      <trkpt lat="44.6678" lon="1.2601">
        <ele>263</ele>
        <time>2024-07-23T09:19:34Z</time>
      </trkpt>
      <trkpt lat="44.66779" lon="1.26009">
        <ele>263</ele>
        <time>2024-07-23T09:19:35Z</time>
      </trkpt>
      <trkpt lat="44.66778" lon="1.26008">
        <ele>263.2</ele>
        <time>2024-07-23T09:19:36Z</time>
      </trkpt>
      <trkpt lat="44.66777" lon="1.26008">
        <ele>263.4</ele>
        <time>2024-07-23T09:19:37Z</time>
      </trkpt>
      <trkpt lat="44.66775" lon="1.26007">
        <ele>263.4</ele>
        <time>2024-07-23T09:19:38Z</time>
      </trkpt>
      <trkpt lat="44.66774" lon="1.26006">
        <ele>263.6</ele>
        <time>2024-07-23T09:19:39Z</time>
      </trkpt>
      <trkpt lat="44.66773" lon="1.26006">
        <ele>263.8</ele>
        <time>2024-07-23T09:19:40Z</time>
      </trkpt>
      <trkpt lat="44.66772" lon="1.26005">
        <ele>264.2</ele>
        <time>2024-07-23T09:19:41Z</time>
      </trkpt>
      <trkpt lat="44.66771" lon="1.26004">
        <ele>264.4</ele>
        <time>2024-07-23T09:19:42Z</time>
      </trkpt>
      <trkpt lat="44.66769" lon="1.26004">
        <ele>264.6</ele>
        <time>2024-07-23T09:19:43Z</time>
      </trkpt>
      <trkpt lat="44.66768" lon="1.26003">
        <ele>264.6</ele>
        <time>2024-07-23T09:19:44Z</time>
      </trkpt>
      <trkpt lat="44.66766" lon="1.26003">
        <ele>264.8</ele>
        <time>2024-07-23T09:19:45Z</time>
      </trkpt>
      <trkpt lat="44.66765" lon="1.26002">
        <ele>264.8</ele>
        <time>2024-07-23T09:19:46Z</time>
      </trkpt>
      <trkpt lat="44.66763" lon="1.26002">
        <ele>265</ele>
        <time>2024-07-23T09:19:47Z</time>
      </trkpt>
      <trkpt lat="44.66762" lon="1.26001">
        <ele>265.2</ele>
        <time>2024-07-23T09:19:48Z</time>
      </trkpt>
      <trkpt lat="44.66761" lon="1.26001">
        <ele>265.2</ele>
        <time>2024-07-23T09:19:49Z</time>
      </trkpt>
      <trkpt lat="44.66761" lon="1.26001">
        <ele>265.4</ele>
        <time>2024-07-23T09:19:50Z</time>
      </trkpt>
      <trkpt lat="44.6676" lon="1.26">
        <ele>265.4</ele>
        <time>2024-07-23T09:19:51Z</time>
      </trkpt>
      <trkpt lat="44.66759" lon="1.26">
        <ele>265.4</ele>
        <time>2024-07-23T09:19:52Z</time>
      </trkpt>
      <trkpt lat="44.66757" lon="1.26">
        <ele>265.6</ele>
        <time>2024-07-23T09:19:53Z</time>
      </trkpt>
      <trkpt lat="44.66755" lon="1.25999">
        <ele>265.8</ele>
        <time>2024-07-23T09:19:54Z</time>
      </trkpt>
      <trkpt lat="44.66754" lon="1.25999">
        <ele>266.2</ele>
        <time>2024-07-23T09:19:55Z</time>
      </trkpt>
      <trkpt lat="44.66752" lon="1.25999">
        <ele>266.4</ele>
        <time>2024-07-23T09:19:56Z</time>
      </trkpt>
      <trkpt lat="44.66749" lon="1.25999">
        <ele>266.6</ele>
        <time>2024-07-23T09:19:57Z</time>
      </trkpt>
      <trkpt lat="44.66747" lon="1.26">
        <ele>266.8</ele>
        <time>2024-07-23T09:19:58Z</time>
      </trkpt>
      <trkpt lat="44.66745" lon="1.26">
        <ele>267</ele>
        <time>2024-07-23T09:19:59Z</time>
      </trkpt>
      <trkpt lat="44.66742" lon="1.26001">
        <ele>267.4</ele>
        <time>2024-07-23T09:20:00Z</time>
      </trkpt>
      <trkpt lat="44.66739" lon="1.26001">
        <ele>267.4</ele>
        <time>2024-07-23T09:20:01Z</time>
      </trkpt>
      <trkpt lat="44.66738" lon="1.26001">
        <ele>267.6</ele>
        <time>2024-07-23T09:20:02Z</time>
      </trkpt>
      <trkpt lat="44.66736" lon="1.26002">
        <ele>267.6</ele>
        <time>2024-07-23T09:20:03Z</time>
      </trkpt>
      <trkpt lat="44.66734" lon="1.26002">
        <ele>267.8</ele>
        <time>2024-07-23T09:20:04Z</time>
      </trkpt>
      <trkpt lat="44.66732" lon="1.26001">
        <ele>267.8</ele>
        <time>2024-07-23T09:20:05Z</time>
      </trkpt>
      <trkpt lat="44.6673" lon="1.26001">
        <ele>268</ele>
        <time>2024-07-23T09:20:06Z</time>
      </trkpt>
      <trkpt lat="44.66727" lon="1.26002">
        <ele>268.2</ele>
        <time>2024-07-23T09:20:07Z</time>
      </trkpt>
      <trkpt lat="44.66725" lon="1.26003">
        <ele>268.4</ele>
        <time>2024-07-23T09:20:08Z</time>
      </trkpt>
      <trkpt lat="44.66724" lon="1.26004">
        <ele>268.6</ele>
        <time>2024-07-23T09:20:09Z</time>
      </trkpt>
      <trkpt lat="44.66722" lon="1.26005">
        <ele>268.6</ele>
        <time>2024-07-23T09:20:10Z</time>
      </trkpt>
      <trkpt lat="44.66721" lon="1.26007">
        <ele>268.8</ele>
        <time>2024-07-23T09:20:11Z</time>
      </trkpt>
      <trkpt lat="44.66719" lon="1.26008">
        <ele>269</ele>
        <time>2024-07-23T09:20:12Z</time>
      </trkpt>
      <trkpt lat="44.66717" lon="1.26009">
        <ele>269.2</ele>
        <time>2024-07-23T09:20:13Z</time>
      </trkpt>
      <trkpt lat="44.66714" lon="1.2601">
        <ele>269.4</ele>
        <time>2024-07-23T09:20:14Z</time>
      </trkpt>
      <trkpt lat="44.66712" lon="1.26011">
        <ele>269.4</ele>
        <time>2024-07-23T09:20:15Z</time>
      </trkpt>
      <trkpt lat="44.6671" lon="1.26012">
        <ele>269.4</ele>
        <time>2024-07-23T09:20:16Z</time>
      </trkpt>
      <trkpt lat="44.66708" lon="1.26013">
        <ele>269.6</ele>
        <time>2024-07-23T09:20:17Z</time>
      </trkpt>
      <trkpt lat="44.66706" lon="1.26013">
        <ele>269.6</ele>
        <time>2024-07-23T09:20:18Z</time>
      </trkpt>
      <trkpt lat="44.66704" lon="1.26014">
        <ele>269.8</ele>
        <time>2024-07-23T09:20:19Z</time>
      </trkpt>
      <trkpt lat="44.66701" lon="1.26016">
        <ele>270</ele>
        <time>2024-07-23T09:20:20Z</time>
      </trkpt>
      <trkpt lat="44.66699" lon="1.26017">
        <ele>270.2</ele>
        <time>2024-07-23T09:20:21Z</time>
      </trkpt>
      <trkpt lat="44.66697" lon="1.26019">
        <ele>270.2</ele>
        <time>2024-07-23T09:20:22Z</time>
      </trkpt>
      <trkpt lat="44.66695" lon="1.2602">
        <ele>270.4</ele>
        <time>2024-07-23T09:20:23Z</time>
      </trkpt>
      <trkpt lat="44.66693" lon="1.26022">
        <ele>270.4</ele>
        <time>2024-07-23T09:20:24Z</time>
      </trkpt>
      <trkpt lat="44.66691" lon="1.26023">
        <ele>270.6</ele>
        <time>2024-07-23T09:20:25Z</time>
      </trkpt>
      <trkpt lat="44.66689" lon="1.26025">
        <ele>270.8</ele>
        <time>2024-07-23T09:20:26Z</time>
      </trkpt>
      <trkpt lat="44.66687" lon="1.26027">
        <ele>270.8</ele>
        <time>2024-07-23T09:20:27Z</time>
      </trkpt>
      <trkpt lat="44.66685" lon="1.2603">
        <ele>271</ele>
        <time>2024-07-23T09:20:28Z</time>
      </trkpt>
      <trkpt lat="44.66683" lon="1.26032">
        <ele>271</ele>
        <time>2024-07-23T09:20:29Z</time>
      </trkpt>
      <trkpt lat="44.66681" lon="1.26034">
        <ele>271.2</ele>
        <time>2024-07-23T09:20:30Z</time>
      </trkpt>
      <trkpt lat="44.66679" lon="1.26037">
        <ele>271.2</ele>
        <time>2024-07-23T09:20:31Z</time>
      </trkpt>
      <trkpt lat="44.66678" lon="1.26039">
        <ele>271.2</ele>
        <time>2024-07-23T09:20:32Z</time>
      </trkpt>
      <trkpt lat="44.66677" lon="1.26042">
        <ele>271.2</ele>
        <time>2024-07-23T09:20:33Z</time>
      </trkpt>
      <trkpt lat="44.66675" lon="1.26045">
        <ele>271.2</ele>
        <time>2024-07-23T09:20:34Z</time>
      </trkpt>
      <trkpt lat="44.66673" lon="1.26047">
        <ele>271.2</ele>
        <time>2024-07-23T09:20:35Z</time>
      </trkpt>
      <trkpt lat="44.66672" lon="1.26049">
        <ele>271.2</ele>
        <time>2024-07-23T09:20:36Z</time>
      </trkpt>
      <trkpt lat="44.6667" lon="1.26052">
        <ele>271.2</ele>
        <time>2024-07-23T09:20:37Z</time>
      </trkpt>
      <trkpt lat="44.66669" lon="1.26054">
        <ele>271.4</ele>
        <time>2024-07-23T09:20:38Z</time>
      </trkpt>
      <trkpt lat="44.66667" lon="1.26057">
        <ele>271.4</ele>
        <time>2024-07-23T09:20:39Z</time>
      </trkpt>
      <trkpt lat="44.66665" lon="1.26059">
        <ele>271.4</ele>
        <time>2024-07-23T09:20:40Z</time>
      </trkpt>
      <trkpt lat="44.66663" lon="1.26061">
        <ele>271.4</ele>
        <time>2024-07-23T09:20:41Z</time>
      </trkpt>
      <trkpt lat="44.66659" lon="1.26065">
        <ele>271.4</ele>
        <time>2024-07-23T09:20:43Z</time>
      </trkpt>
      <trkpt lat="44.66643" lon="1.26087">
        <ele>271.2</ele>
        <time>2024-07-23T09:20:51Z</time>
      </trkpt>
      <trkpt lat="44.66627" lon="1.26105">
        <ele>271.6</ele>
        <time>2024-07-23T09:20:58Z</time>
      </trkpt>
      <trkpt lat="44.66605" lon="1.26122">
        <ele>271.2</ele>
        <time>2024-07-23T09:21:05Z</time>
      </trkpt>
      <trkpt lat="44.66581" lon="1.26134">
        <ele>269.6</ele>
        <time>2024-07-23T09:21:11Z</time>
      </trkpt>
      <trkpt lat="44.66577" lon="1.26137">
        <ele>269.4</ele>
        <time>2024-07-23T09:21:12Z</time>
      </trkpt>
      <trkpt lat="44.66562" lon="1.26145">
        <ele>268.2</ele>
        <time>2024-07-23T09:21:15Z</time>
      </trkpt>
      <trkpt lat="44.66558" lon="1.26148">
        <ele>267.6</ele>
        <time>2024-07-23T09:21:16Z</time>
      </trkpt>
      <trkpt lat="44.66549" lon="1.2615">
        <ele>266.6</ele>
        <time>2024-07-23T09:21:18Z</time>
      </trkpt>
      <trkpt lat="44.66546" lon="1.2615">
        <ele>266.2</ele>
        <time>2024-07-23T09:21:19Z</time>
      </trkpt>
      <trkpt lat="44.66541" lon="1.26149">
        <ele>265.4</ele>
        <time>2024-07-23T09:21:20Z</time>
      </trkpt>
      <trkpt lat="44.66537" lon="1.26149">
        <ele>265</ele>
        <time>2024-07-23T09:21:21Z</time>
      </trkpt>
      <trkpt lat="44.66532" lon="1.26148">
        <ele>263.6</ele>
        <time>2024-07-23T09:21:22Z</time>
      </trkpt>
      <trkpt lat="44.66527" lon="1.26149">
        <ele>262.8</ele>
        <time>2024-07-23T09:21:23Z</time>
      </trkpt>
      <trkpt lat="44.66522" lon="1.2615">
        <ele>262.4</ele>
        <time>2024-07-23T09:21:24Z</time>
      </trkpt>
      <trkpt lat="44.66511" lon="1.26154">
        <ele>261.4</ele>
        <time>2024-07-23T09:21:26Z</time>
      </trkpt>
      <trkpt lat="44.66505" lon="1.26158">
        <ele>260.4</ele>
        <time>2024-07-23T09:21:27Z</time>
      </trkpt>
      <trkpt lat="44.665" lon="1.26162">
        <ele>258.8</ele>
        <time>2024-07-23T09:21:28Z</time>
      </trkpt>
      <trkpt lat="44.66491" lon="1.26172">
        <ele>256.8</ele>
        <time>2024-07-23T09:21:30Z</time>
      </trkpt>
      <trkpt lat="44.66486" lon="1.26177">
        <ele>256.4</ele>
        <time>2024-07-23T09:21:31Z</time>
      </trkpt>
      <trkpt lat="44.66479" lon="1.26182">
        <ele>255.4</ele>
        <time>2024-07-23T09:21:32Z</time>
      </trkpt>
      <trkpt lat="44.66467" lon="1.26188">
        <ele>253.8</ele>
        <time>2024-07-23T09:21:34Z</time>
      </trkpt>
      <trkpt lat="44.6646" lon="1.26191">
        <ele>253</ele>
        <time>2024-07-23T09:21:35Z</time>
      </trkpt>
      <trkpt lat="44.66454" lon="1.26195">
        <ele>252</ele>
        <time>2024-07-23T09:21:36Z</time>
      </trkpt>
      <trkpt lat="44.66446" lon="1.26201">
        <ele>250</ele>
        <time>2024-07-23T09:21:37Z</time>
      </trkpt>
      <trkpt lat="44.66434" lon="1.26213">
        <ele>247.4</ele>
        <time>2024-07-23T09:21:39Z</time>
      </trkpt>
      <trkpt lat="44.66421" lon="1.26227">
        <ele>245.2</ele>
        <time>2024-07-23T09:21:41Z</time>
      </trkpt>
      <trkpt lat="44.66413" lon="1.26233">
        <ele>243.8</ele>
        <time>2024-07-23T09:21:42Z</time>
      </trkpt>
      <trkpt lat="44.66405" lon="1.26238">
        <ele>243</ele>
        <time>2024-07-23T09:21:43Z</time>
      </trkpt>
      <trkpt lat="44.66397" lon="1.26242">
        <ele>240.4</ele>
        <time>2024-07-23T09:21:44Z</time>
      </trkpt>
      <trkpt lat="44.66388" lon="1.26247">
        <ele>239.4</ele>
        <time>2024-07-23T09:21:45Z</time>
      </trkpt>
      <trkpt lat="44.6638" lon="1.26251">
        <ele>237.2</ele>
        <time>2024-07-23T09:21:46Z</time>
      </trkpt>
      <trkpt lat="44.66363" lon="1.2626">
        <ele>235.2</ele>
        <time>2024-07-23T09:21:48Z</time>
      </trkpt>
      <trkpt lat="44.66354" lon="1.26265">
        <ele>234</ele>
        <time>2024-07-23T09:21:49Z</time>
      </trkpt>
      <trkpt lat="44.66347" lon="1.26271">
        <ele>232.8</ele>
        <time>2024-07-23T09:21:50Z</time>
      </trkpt>
      <trkpt lat="44.66339" lon="1.26276">
        <ele>231</ele>
        <time>2024-07-23T09:21:51Z</time>
      </trkpt>
      <trkpt lat="44.66324" lon="1.26286">
        <ele>229</ele>
        <time>2024-07-23T09:21:53Z</time>
      </trkpt>
      <trkpt lat="44.66316" lon="1.2629">
        <ele>228.2</ele>
        <time>2024-07-23T09:21:54Z</time>
      </trkpt>
      <trkpt lat="44.66309" lon="1.26295">
        <ele>227.8</ele>
        <time>2024-07-23T09:21:55Z</time>
      </trkpt>
      <trkpt lat="44.66303" lon="1.26298">
        <ele>226.6</ele>
        <time>2024-07-23T09:21:56Z</time>
      </trkpt>
      <trkpt lat="44.66298" lon="1.26298">
        <ele>226</ele>
        <time>2024-07-23T09:21:57Z</time>
      </trkpt>
      <trkpt lat="44.66294" lon="1.26296">
        <ele>224.8</ele>
        <time>2024-07-23T09:21:58Z</time>
      </trkpt>
      <trkpt lat="44.66291" lon="1.26294">
        <ele>224.2</ele>
        <time>2024-07-23T09:21:59Z</time>
      </trkpt>
      <trkpt lat="44.66289" lon="1.26293">
        <ele>222.6</ele>
        <time>2024-07-23T09:22:00Z</time>
      </trkpt>
      <trkpt lat="44.66288" lon="1.26293">
        <ele>222</ele>
        <time>2024-07-23T09:22:01Z</time>
      </trkpt>
      <trkpt lat="44.66288" lon="1.26293">
        <ele>221.2</ele>
        <time>2024-07-23T09:22:02Z</time>
      </trkpt>
      <trkpt lat="44.66288" lon="1.26293">
        <ele>220.2</ele>
        <time>2024-07-23T09:22:03Z</time>
      </trkpt>
      <trkpt lat="44.66281" lon="1.26294">
        <ele>218</ele>
        <time>2024-07-23T09:43:45Z</time>
      </trkpt>
      <trkpt lat="44.66277" lon="1.26295">
        <ele>218</ele>
        <time>2024-07-23T09:43:47Z</time>
      </trkpt>
      <trkpt lat="44.66268" lon="1.26298">
        <ele>218.4</ele>
        <time>2024-07-23T09:43:52Z</time>
      </trkpt>
      <trkpt lat="44.66266" lon="1.263">
        <ele>218.4</ele>
        <time>2024-07-23T09:43:53Z</time>
      </trkpt>
      <trkpt lat="44.66262" lon="1.26303">
        <ele>219</ele>
        <time>2024-07-23T09:43:56Z</time>
      </trkpt>
      <trkpt lat="44.66261" lon="1.26303">
        <ele>218.8</ele>
        <time>2024-07-23T09:43:57Z</time>
      </trkpt>
      <trkpt lat="44.6626" lon="1.26304">
        <ele>219</ele>
        <time>2024-07-23T09:43:58Z</time>
      </trkpt>
      <trkpt lat="44.66258" lon="1.26305">
        <ele>219.2</ele>
        <time>2024-07-23T09:43:59Z</time>
      </trkpt>
      <trkpt lat="44.66257" lon="1.26306">
        <ele>219.2</ele>
        <time>2024-07-23T09:44:00Z</time>
      </trkpt>
      <trkpt lat="44.66255" lon="1.26307">
        <ele>219.6</ele>
        <time>2024-07-23T09:44:01Z</time>
      </trkpt>
      <trkpt lat="44.66254" lon="1.26307">
        <ele>219.6</ele>
        <time>2024-07-23T09:44:02Z</time>
      </trkpt>
      <trkpt lat="44.66253" lon="1.26308">
        <ele>219.8</ele>
        <time>2024-07-23T09:44:03Z</time>
      </trkpt>
      <trkpt lat="44.66252" lon="1.26308">
        <ele>220.2</ele>
        <time>2024-07-23T09:44:04Z</time>
      </trkpt>
      <trkpt lat="44.6625" lon="1.26308">
        <ele>220.4</ele>
        <time>2024-07-23T09:44:05Z</time>
      </trkpt>
      <trkpt lat="44.66249" lon="1.26309">
        <ele>220.8</ele>
        <time>2024-07-23T09:44:06Z</time>
      </trkpt>
      <trkpt lat="44.66249" lon="1.2631">
        <ele>220.8</ele>
        <time>2024-07-23T09:44:07Z</time>
      </trkpt>
      <trkpt lat="44.66248" lon="1.2631">
        <ele>221</ele>
        <time>2024-07-23T09:44:08Z</time>
      </trkpt>
      <trkpt lat="44.66246" lon="1.26311">
        <ele>221</ele>
        <time>2024-07-23T09:44:09Z</time>
      </trkpt>
      <trkpt lat="44.66245" lon="1.26311">
        <ele>221</ele>
        <time>2024-07-23T09:44:10Z</time>
      </trkpt>
      <trkpt lat="44.66244" lon="1.26312">
        <ele>221.2</ele>
        <time>2024-07-23T09:44:11Z</time>
      </trkpt>
      <trkpt lat="44.66243" lon="1.26311">
        <ele>221.2</ele>
        <time>2024-07-23T09:44:12Z</time>
      </trkpt>
      <trkpt lat="44.66242" lon="1.26311">
        <ele>221.4</ele>
        <time>2024-07-23T09:44:13Z</time>
      </trkpt>
      <trkpt lat="44.66241" lon="1.26311">
        <ele>221.6</ele>
        <time>2024-07-23T09:44:14Z</time>
      </trkpt>
      <trkpt lat="44.6624" lon="1.26311">
        <ele>222</ele>
        <time>2024-07-23T09:44:15Z</time>
      </trkpt>
      <trkpt lat="44.66239" lon="1.26311">
        <ele>222.2</ele>
        <time>2024-07-23T09:44:16Z</time>
      </trkpt>
      <trkpt lat="44.66238" lon="1.26311">
        <ele>222.4</ele>
        <time>2024-07-23T09:44:17Z</time>
      </trkpt>
      <trkpt lat="44.66237" lon="1.26312">
        <ele>222.4</ele>
        <time>2024-07-23T09:44:18Z</time>
      </trkpt>
      <trkpt lat="44.66236" lon="1.26312">
        <ele>222.6</ele>
        <time>2024-07-23T09:44:19Z</time>
      </trkpt>
      <trkpt lat="44.66235" lon="1.26312">
        <ele>222.8</ele>
        <time>2024-07-23T09:44:20Z</time>
      </trkpt>
      <trkpt lat="44.66234" lon="1.26312">
        <ele>222.8</ele>
        <time>2024-07-23T09:44:21Z</time>
      </trkpt>
      <trkpt lat="44.66233" lon="1.26312">
        <ele>223</ele>
        <time>2024-07-23T09:44:22Z</time>
      </trkpt>
      <trkpt lat="44.66232" lon="1.26312">
        <ele>223.6</ele>
        <time>2024-07-23T09:44:23Z</time>
      </trkpt>
      <trkpt lat="44.66231" lon="1.26313">
        <ele>223.6</ele>
        <time>2024-07-23T09:44:24Z</time>
      </trkpt>
      <trkpt lat="44.66231" lon="1.26313">
        <ele>223.8</ele>
        <time>2024-07-23T09:44:25Z</time>
      </trkpt>
      <trkpt lat="44.6623" lon="1.26313">
        <ele>224</ele>
        <time>2024-07-23T09:44:26Z</time>
      </trkpt>
      <trkpt lat="44.66229" lon="1.26314">
        <ele>224</ele>
        <time>2024-07-23T09:44:27Z</time>
      </trkpt>
      <trkpt lat="44.66229" lon="1.26314">
        <ele>224</ele>
        <time>2024-07-23T09:44:28Z</time>
      </trkpt>
      <trkpt lat="44.66228" lon="1.26314">
        <ele>224.2</ele>
        <time>2024-07-23T09:44:29Z</time>
      </trkpt>
      <trkpt lat="44.66227" lon="1.26314">
        <ele>224.6</ele>
        <time>2024-07-23T09:44:30Z</time>
      </trkpt>
      <trkpt lat="44.66226" lon="1.26313">
        <ele>224.6</ele>
        <time>2024-07-23T09:44:31Z</time>
      </trkpt>
      <trkpt lat="44.66225" lon="1.26313">
        <ele>224.8</ele>
        <time>2024-07-23T09:44:32Z</time>
      </trkpt>
      <trkpt lat="44.66224" lon="1.26314">
        <ele>225</ele>
        <time>2024-07-23T09:44:33Z</time>
      </trkpt>
      <trkpt lat="44.66223" lon="1.26314">
        <ele>225.2</ele>
        <time>2024-07-23T09:44:34Z</time>
      </trkpt>
      <trkpt lat="44.66222" lon="1.26314">
        <ele>225.4</ele>
        <time>2024-07-23T09:44:35Z</time>
      </trkpt>
      <trkpt lat="44.66221" lon="1.26313">
        <ele>225.4</ele>
        <time>2024-07-23T09:44:36Z</time>
      </trkpt>
      <trkpt lat="44.6622" lon="1.26313">
        <ele>225.6</ele>
        <time>2024-07-23T09:44:37Z</time>
      </trkpt>
      <trkpt lat="44.66219" lon="1.26313">
        <ele>225.6</ele>
        <time>2024-07-23T09:44:38Z</time>
      </trkpt>
      <trkpt lat="44.66218" lon="1.26314">
        <ele>226.2</ele>
        <time>2024-07-23T09:44:39Z</time>
      </trkpt>
      <trkpt lat="44.66217" lon="1.26314">
        <ele>226.4</ele>
        <time>2024-07-23T09:44:40Z</time>
      </trkpt>
      <trkpt lat="44.66217" lon="1.26314">
        <ele>226.6</ele>
        <time>2024-07-23T09:44:41Z</time>
      </trkpt>
      <trkpt lat="44.66215" lon="1.26315">
        <ele>226.8</ele>
        <time>2024-07-23T09:44:42Z</time>
      </trkpt>
      <trkpt lat="44.66214" lon="1.26315">
        <ele>227</ele>
        <time>2024-07-23T09:44:43Z</time>
      </trkpt>
      <trkpt lat="44.66214" lon="1.26315">
        <ele>227</ele>
        <time>2024-07-23T09:44:44Z</time>
      </trkpt>
      <trkpt lat="44.66213" lon="1.26315">
        <ele>227.2</ele>
        <time>2024-07-23T09:44:45Z</time>
      </trkpt>
      <trkpt lat="44.66212" lon="1.26316">
        <ele>227.4</ele>
        <time>2024-07-23T09:44:46Z</time>
      </trkpt>
      <trkpt lat="44.66211" lon="1.26316">
        <ele>227.8</ele>
        <time>2024-07-23T09:44:47Z</time>
      </trkpt>
      <trkpt lat="44.6621" lon="1.26317">
        <ele>227.8</ele>
        <time>2024-07-23T09:44:48Z</time>
      </trkpt>
      <trkpt lat="44.66209" lon="1.26317">
        <ele>228</ele>
        <time>2024-07-23T09:44:49Z</time>
      </trkpt>
      <trkpt lat="44.66208" lon="1.26318">
        <ele>228.2</ele>
        <time>2024-07-23T09:44:50Z</time>
      </trkpt>
      <trkpt lat="44.66207" lon="1.26318">
        <ele>228.6</ele>
        <time>2024-07-23T09:44:51Z</time>
      </trkpt>
      <trkpt lat="44.66206" lon="1.26318">
        <ele>228.8</ele>
        <time>2024-07-23T09:44:52Z</time>
      </trkpt>
      <trkpt lat="44.66206" lon="1.26318">
        <ele>229</ele>
        <time>2024-07-23T09:44:53Z</time>
      </trkpt>
      <trkpt lat="44.66206" lon="1.26318">
        <ele>229.2</ele>
        <time>2024-07-23T09:44:54Z</time>
      </trkpt>
      <trkpt lat="44.66205" lon="1.26318">
        <ele>229.4</ele>
        <time>2024-07-23T09:44:55Z</time>
      </trkpt>
      <trkpt lat="44.66204" lon="1.26318">
        <ele>229.6</ele>
        <time>2024-07-23T09:44:56Z</time>
      </trkpt>
      <trkpt lat="44.66203" lon="1.26318">
        <ele>229.8</ele>
        <time>2024-07-23T09:44:57Z</time>
      </trkpt>
      <trkpt lat="44.66202" lon="1.26319">
        <ele>230</ele>
        <time>2024-07-23T09:44:58Z</time>
      </trkpt>
      <trkpt lat="44.66202" lon="1.26319">
        <ele>230.2</ele>
        <time>2024-07-23T09:44:59Z</time>
      </trkpt>
      <trkpt lat="44.66201" lon="1.26319">
        <ele>230.4</ele>
        <time>2024-07-23T09:45:00Z</time>
      </trkpt>
      <trkpt lat="44.662" lon="1.26319">
        <ele>230.6</ele>
        <time>2024-07-23T09:45:01Z</time>
      </trkpt>
      <trkpt lat="44.66199" lon="1.26319">
        <ele>230.6</ele>
        <time>2024-07-23T09:45:02Z</time>
      </trkpt>
      <trkpt lat="44.66198" lon="1.26319">
        <ele>230.8</ele>
        <time>2024-07-23T09:45:03Z</time>
      </trkpt>
      <trkpt lat="44.66197" lon="1.26319">
        <ele>230.8</ele>
        <time>2024-07-23T09:45:04Z</time>
      </trkpt>
      <trkpt lat="44.66196" lon="1.26319">
        <ele>231.2</ele>
        <time>2024-07-23T09:45:05Z</time>
      </trkpt>
      <trkpt lat="44.66195" lon="1.2632">
        <ele>231.2</ele>
        <time>2024-07-23T09:45:06Z</time>
      </trkpt>
      <trkpt lat="44.66195" lon="1.2632">
        <ele>231.4</ele>
        <time>2024-07-23T09:45:07Z</time>
      </trkpt>
      <trkpt lat="44.66194" lon="1.2632">
        <ele>231.8</ele>
        <time>2024-07-23T09:45:08Z</time>
      </trkpt>
      <trkpt lat="44.66194" lon="1.2632">
        <ele>231.8</ele>
        <time>2024-07-23T09:45:09Z</time>
      </trkpt>
      <trkpt lat="44.66193" lon="1.2632">
        <ele>232</ele>
        <time>2024-07-23T09:45:10Z</time>
      </trkpt>
      <trkpt lat="44.66192" lon="1.2632">
        <ele>232</ele>
        <time>2024-07-23T09:45:11Z</time>
      </trkpt>
      <trkpt lat="44.6619" lon="1.26321">
        <ele>232.2</ele>
        <time>2024-07-23T09:45:12Z</time>
      </trkpt>
      <trkpt lat="44.66189" lon="1.26321">
        <ele>232.4</ele>
        <time>2024-07-23T09:45:13Z</time>
      </trkpt>
      <trkpt lat="44.66188" lon="1.26322">
        <ele>232.6</ele>
        <time>2024-07-23T09:45:14Z</time>
      </trkpt>
      <trkpt lat="44.66187" lon="1.26323">
        <ele>232.8</ele>
        <time>2024-07-23T09:45:15Z</time>
      </trkpt>
      <trkpt lat="44.66185" lon="1.26323">
        <ele>232.8</ele>
        <time>2024-07-23T09:45:16Z</time>
      </trkpt>
      <trkpt lat="44.66185" lon="1.26324">
        <ele>232.8</ele>
        <time>2024-07-23T09:45:17Z</time>
      </trkpt>
      <trkpt lat="44.66183" lon="1.26325">
        <ele>233.2</ele>
        <time>2024-07-23T09:45:18Z</time>
      </trkpt>
      <trkpt lat="44.66182" lon="1.26326">
        <ele>233.4</ele>
        <time>2024-07-23T09:45:19Z</time>
      </trkpt>
      <trkpt lat="44.66181" lon="1.26326">
        <ele>233.6</ele>
        <time>2024-07-23T09:45:20Z</time>
      </trkpt>
      <trkpt lat="44.6618" lon="1.26326">
        <ele>233.6</ele>
        <time>2024-07-23T09:45:21Z</time>
      </trkpt>
      <trkpt lat="44.66179" lon="1.26325">
        <ele>233.8</ele>
        <time>2024-07-23T09:45:22Z</time>
      </trkpt>
      <trkpt lat="44.66178" lon="1.26326">
        <ele>233.8</ele>
        <time>2024-07-23T09:45:23Z</time>
      </trkpt>
      <trkpt lat="44.66178" lon="1.26326">
        <ele>234.2</ele>
        <time>2024-07-23T09:45:24Z</time>
      </trkpt>
      <trkpt lat="44.66177" lon="1.26326">
        <ele>234.2</ele>
        <time>2024-07-23T09:45:25Z</time>
      </trkpt>
      <trkpt lat="44.66176" lon="1.26326">
        <ele>234.8</ele>
        <time>2024-07-23T09:45:26Z</time>
      </trkpt>
      <trkpt lat="44.66175" lon="1.26327">
        <ele>234.6</ele>
        <time>2024-07-23T09:45:27Z</time>
      </trkpt>
      <trkpt lat="44.66174" lon="1.26328">
        <ele>234.8</ele>
        <time>2024-07-23T09:45:28Z</time>
      </trkpt>
      <trkpt lat="44.66173" lon="1.26328">
        <ele>235</ele>
        <time>2024-07-23T09:45:29Z</time>
      </trkpt>
      <trkpt lat="44.66173" lon="1.26329">
        <ele>235</ele>
        <time>2024-07-23T09:45:30Z</time>
      </trkpt>
      <trkpt lat="44.66172" lon="1.26329">
        <ele>235.4</ele>
        <time>2024-07-23T09:45:31Z</time>
      </trkpt>
      <trkpt lat="44.6617" lon="1.26329">
        <ele>235.8</ele>
        <time>2024-07-23T09:45:32Z</time>
      </trkpt>
      <trkpt lat="44.66169" lon="1.2633">
        <ele>236</ele>
        <time>2024-07-23T09:45:33Z</time>
      </trkpt>
      <trkpt lat="44.66168" lon="1.2633">
        <ele>236.2</ele>
        <time>2024-07-23T09:45:34Z</time>
      </trkpt>
      <trkpt lat="44.66167" lon="1.2633">
        <ele>236.4</ele>
        <time>2024-07-23T09:45:35Z</time>
      </trkpt>
      <trkpt lat="44.66166" lon="1.2633">
        <ele>236.6</ele>
        <time>2024-07-23T09:45:36Z</time>
      </trkpt>
      <trkpt lat="44.66165" lon="1.26331">
        <ele>236.8</ele>
        <time>2024-07-23T09:45:37Z</time>
      </trkpt>
      <trkpt lat="44.66164" lon="1.2633">
        <ele>237</ele>
        <time>2024-07-23T09:45:38Z</time>
      </trkpt>
      <trkpt lat="44.66163" lon="1.26331">
        <ele>237.2</ele>
        <time>2024-07-23T09:45:39Z</time>
      </trkpt>
      <trkpt lat="44.66163" lon="1.26331">
        <ele>237.4</ele>
        <time>2024-07-23T09:45:40Z</time>
      </trkpt>
      <trkpt lat="44.66162" lon="1.26331">
        <ele>237.6</ele>
        <time>2024-07-23T09:45:41Z</time>
      </trkpt>
      <trkpt lat="44.66161" lon="1.26331">
        <ele>237.8</ele>
        <time>2024-07-23T09:45:42Z</time>
      </trkpt>
      <trkpt lat="44.66161" lon="1.26331">
        <ele>238</ele>
        <time>2024-07-23T09:45:43Z</time>
      </trkpt>
      <trkpt lat="44.6616" lon="1.26331">
        <ele>238.2</ele>
        <time>2024-07-23T09:45:44Z</time>
      </trkpt>
      <trkpt lat="44.66159" lon="1.26331">
        <ele>238.2</ele>
        <time>2024-07-23T09:45:45Z</time>
      </trkpt>
      <trkpt lat="44.66158" lon="1.26332">
        <ele>238.6</ele>
        <time>2024-07-23T09:45:46Z</time>
      </trkpt>
      <trkpt lat="44.66157" lon="1.26332">
        <ele>238.8</ele>
        <time>2024-07-23T09:45:47Z</time>
      </trkpt>
      <trkpt lat="44.66156" lon="1.26332">
        <ele>239</ele>
        <time>2024-07-23T09:45:48Z</time>
      </trkpt>
      <trkpt lat="44.66155" lon="1.26333">
        <ele>239.2</ele>
        <time>2024-07-23T09:45:49Z</time>
      </trkpt>
      <trkpt lat="44.66154" lon="1.26333">
        <ele>239.4</ele>
        <time>2024-07-23T09:45:50Z</time>
      </trkpt>
      <trkpt lat="44.66153" lon="1.26333">
        <ele>239.4</ele>
        <time>2024-07-23T09:45:51Z</time>
      </trkpt>
      <trkpt lat="44.66152" lon="1.26333">
        <ele>239.6</ele>
        <time>2024-07-23T09:45:52Z</time>
      </trkpt>
      <trkpt lat="44.66151" lon="1.26333">
        <ele>239.8</ele>
        <time>2024-07-23T09:45:53Z</time>
      </trkpt>
      <trkpt lat="44.6615" lon="1.26333">
        <ele>240</ele>
        <time>2024-07-23T09:45:54Z</time>
      </trkpt>
      <trkpt lat="44.66149" lon="1.26333">
        <ele>240</ele>
        <time>2024-07-23T09:45:55Z</time>
      </trkpt>
      <trkpt lat="44.66148" lon="1.26334">
        <ele>240.2</ele>
        <time>2024-07-23T09:45:56Z</time>
      </trkpt>
      <trkpt lat="44.66147" lon="1.26334">
        <ele>240.4</ele>
        <time>2024-07-23T09:45:57Z</time>
      </trkpt>
      <trkpt lat="44.66146" lon="1.26335">
        <ele>240.6</ele>
        <time>2024-07-23T09:45:58Z</time>
      </trkpt>
      <trkpt lat="44.66145" lon="1.26335">
        <ele>240.8</ele>
        <time>2024-07-23T09:45:59Z</time>
      </trkpt>
      <trkpt lat="44.66144" lon="1.26335">
        <ele>241</ele>
        <time>2024-07-23T09:46:00Z</time>
      </trkpt>
      <trkpt lat="44.66143" lon="1.26335">
        <ele>241.2</ele>
        <time>2024-07-23T09:46:01Z</time>
      </trkpt>
      <trkpt lat="44.66142" lon="1.26336">
        <ele>241.8</ele>
        <time>2024-07-23T09:46:02Z</time>
      </trkpt>
      <trkpt lat="44.66141" lon="1.26337">
        <ele>242</ele>
        <time>2024-07-23T09:46:03Z</time>
      </trkpt>
      <trkpt lat="44.6614" lon="1.26337">
        <ele>242.2</ele>
        <time>2024-07-23T09:46:04Z</time>
      </trkpt>
      <trkpt lat="44.66139" lon="1.26338">
        <ele>242.4</ele>
        <time>2024-07-23T09:46:05Z</time>
      </trkpt>
      <trkpt lat="44.66138" lon="1.26338">
        <ele>242.6</ele>
        <time>2024-07-23T09:46:06Z</time>
      </trkpt>
      <trkpt lat="44.66137" lon="1.26338">
        <ele>242.8</ele>
        <time>2024-07-23T09:46:07Z</time>
      </trkpt>
      <trkpt lat="44.66136" lon="1.26339">
        <ele>242.8</ele>
        <time>2024-07-23T09:46:08Z</time>
      </trkpt>
      <trkpt lat="44.66135" lon="1.26339">
        <ele>243.2</ele>
        <time>2024-07-23T09:46:09Z</time>
      </trkpt>
      <trkpt lat="44.66135" lon="1.2634">
        <ele>243.2</ele>
        <time>2024-07-23T09:46:10Z</time>
      </trkpt>
      <trkpt lat="44.66134" lon="1.2634">
        <ele>243.2</ele>
        <time>2024-07-23T09:46:11Z</time>
      </trkpt>
      <trkpt lat="44.66133" lon="1.26341">
        <ele>243.6</ele>
        <time>2024-07-23T09:46:12Z</time>
      </trkpt>
      <trkpt lat="44.66133" lon="1.26342">
        <ele>243.8</ele>
        <time>2024-07-23T09:46:13Z</time>
      </trkpt>
      <trkpt lat="44.66132" lon="1.26342">
        <ele>244</ele>
        <time>2024-07-23T09:46:14Z</time>
      </trkpt>
      <trkpt lat="44.66131" lon="1.26343">
        <ele>244.4</ele>
        <time>2024-07-23T09:46:15Z</time>
      </trkpt>
      <trkpt lat="44.66131" lon="1.26344">
        <ele>244.8</ele>
        <time>2024-07-23T09:46:16Z</time>
      </trkpt>
      <trkpt lat="44.6613" lon="1.26345">
        <ele>245</ele>
        <time>2024-07-23T09:46:17Z</time>
      </trkpt>
      <trkpt lat="44.66129" lon="1.26346">
        <ele>245</ele>
        <time>2024-07-23T09:46:18Z</time>
      </trkpt>
      <trkpt lat="44.66128" lon="1.26347">
        <ele>245.2</ele>
        <time>2024-07-23T09:46:19Z</time>
      </trkpt>
      <trkpt lat="44.66127" lon="1.26348">
        <ele>245.2</ele>
        <time>2024-07-23T09:46:20Z</time>
      </trkpt>
      <trkpt lat="44.66127" lon="1.26349">
        <ele>245.6</ele>
        <time>2024-07-23T09:46:21Z</time>
      </trkpt>
      <trkpt lat="44.66126" lon="1.2635">
        <ele>245.6</ele>
        <time>2024-07-23T09:46:22Z</time>
      </trkpt>
      <trkpt lat="44.66126" lon="1.26351">
        <ele>246</ele>
        <time>2024-07-23T09:46:23Z</time>
      </trkpt>
      <trkpt lat="44.66125" lon="1.26352">
        <ele>246.4</ele>
        <time>2024-07-23T09:46:24Z</time>
      </trkpt>
      <trkpt lat="44.66124" lon="1.26353">
        <ele>246.4</ele>
        <time>2024-07-23T09:46:25Z</time>
      </trkpt>
      <trkpt lat="44.66124" lon="1.26354">
        <ele>246.6</ele>
        <time>2024-07-23T09:46:26Z</time>
      </trkpt>
      <trkpt lat="44.66123" lon="1.26355">
        <ele>246.6</ele>
        <time>2024-07-23T09:46:27Z</time>
      </trkpt>
      <trkpt lat="44.66122" lon="1.26356">
        <ele>246.8</ele>
        <time>2024-07-23T09:46:28Z</time>
      </trkpt>
      <trkpt lat="44.66122" lon="1.26358">
        <ele>247</ele>
        <time>2024-07-23T09:46:29Z</time>
      </trkpt>
      <trkpt lat="44.66121" lon="1.26359">
        <ele>247.2</ele>
        <time>2024-07-23T09:46:30Z</time>
      </trkpt>
      <trkpt lat="44.6612" lon="1.2636">
        <ele>247.4</ele>
        <time>2024-07-23T09:46:31Z</time>
      </trkpt>
      <trkpt lat="44.66119" lon="1.26361">
        <ele>247.4</ele>
        <time>2024-07-23T09:46:32Z</time>
      </trkpt>
      <trkpt lat="44.66118" lon="1.26362">
        <ele>247.6</ele>
        <time>2024-07-23T09:46:33Z</time>
      </trkpt>
      <trkpt lat="44.66117" lon="1.26363">
        <ele>247.8</ele>
        <time>2024-07-23T09:46:34Z</time>
      </trkpt>
      <trkpt lat="44.66116" lon="1.26365">
        <ele>248</ele>
        <time>2024-07-23T09:46:35Z</time>
      </trkpt>
      <trkpt lat="44.66116" lon="1.26366">
        <ele>248</ele>
        <time>2024-07-23T09:46:36Z</time>
      </trkpt>
      <trkpt lat="44.66115" lon="1.26367">
        <ele>248</ele>
        <time>2024-07-23T09:46:37Z</time>
      </trkpt>
      <trkpt lat="44.66114" lon="1.26368">
        <ele>248.2</ele>
        <time>2024-07-23T09:46:38Z</time>
      </trkpt>
      <trkpt lat="44.66113" lon="1.26369">
        <ele>248.2</ele>
        <time>2024-07-23T09:46:39Z</time>
      </trkpt>
      <trkpt lat="44.66113" lon="1.26371">
        <ele>248.4</ele>
        <time>2024-07-23T09:46:40Z</time>
      </trkpt>
      <trkpt lat="44.66112" lon="1.26372">
        <ele>248.4</ele>
        <time>2024-07-23T09:46:41Z</time>
      </trkpt>
      <trkpt lat="44.66111" lon="1.26374">
        <ele>248.6</ele>
        <time>2024-07-23T09:46:42Z</time>
      </trkpt>
      <trkpt lat="44.6611" lon="1.26375">
        <ele>248.8</ele>
        <time>2024-07-23T09:46:43Z</time>
      </trkpt>
      <trkpt lat="44.66109" lon="1.26377">
        <ele>248.8</ele>
        <time>2024-07-23T09:46:44Z</time>
      </trkpt>
      <trkpt lat="44.66109" lon="1.26378">
        <ele>249</ele>
        <time>2024-07-23T09:46:45Z</time>
      </trkpt>
      <trkpt lat="44.66108" lon="1.2638">
        <ele>249</ele>
        <time>2024-07-23T09:46:46Z</time>
      </trkpt>
      <trkpt lat="44.66107" lon="1.26381">
        <ele>249.2</ele>
        <time>2024-07-23T09:46:47Z</time>
      </trkpt>
      <trkpt lat="44.66107" lon="1.26383">
        <ele>249.4</ele>
        <time>2024-07-23T09:46:48Z</time>
      </trkpt>
      <trkpt lat="44.66106" lon="1.26384">
        <ele>249.6</ele>
        <time>2024-07-23T09:46:49Z</time>
      </trkpt>
      <trkpt lat="44.66105" lon="1.26385">
        <ele>249.6</ele>
        <time>2024-07-23T09:46:50Z</time>
      </trkpt>
      <trkpt lat="44.66104" lon="1.26386">
        <ele>249.8</ele>
        <time>2024-07-23T09:46:51Z</time>
      </trkpt>
      <trkpt lat="44.66104" lon="1.26387">
        <ele>250</ele>
        <time>2024-07-23T09:46:52Z</time>
      </trkpt>
      <trkpt lat="44.66103" lon="1.26389">
        <ele>250</ele>
        <time>2024-07-23T09:46:53Z</time>
      </trkpt>
      <trkpt lat="44.66102" lon="1.2639">
        <ele>250.2</ele>
        <time>2024-07-23T09:46:54Z</time>
      </trkpt>
      <trkpt lat="44.66101" lon="1.26391">
        <ele>250.2</ele>
        <time>2024-07-23T09:46:55Z</time>
      </trkpt>
      <trkpt lat="44.66101" lon="1.26393">
        <ele>250.4</ele>
        <time>2024-07-23T09:46:56Z</time>
      </trkpt>
      <trkpt lat="44.661" lon="1.26394">
        <ele>250.6</ele>
        <time>2024-07-23T09:46:57Z</time>
      </trkpt>
      <trkpt lat="44.66099" lon="1.26395">
        <ele>250.8</ele>
        <time>2024-07-23T09:46:58Z</time>
      </trkpt>
      <trkpt lat="44.66098" lon="1.26396">
        <ele>251</ele>
        <time>2024-07-23T09:46:59Z</time>
      </trkpt>
      <trkpt lat="44.66097" lon="1.26397">
        <ele>251</ele>
        <time>2024-07-23T09:47:00Z</time>
      </trkpt>
      <trkpt lat="44.66096" lon="1.26399">
        <ele>251.2</ele>
        <time>2024-07-23T09:47:01Z</time>
      </trkpt>
      <trkpt lat="44.66096" lon="1.264">
        <ele>251.4</ele>
        <time>2024-07-23T09:47:02Z</time>
      </trkpt>
      <trkpt lat="44.66095" lon="1.26401">
        <ele>251.4</ele>
        <time>2024-07-23T09:47:03Z</time>
      </trkpt>
      <trkpt lat="44.66094" lon="1.26402">
        <ele>251.8</ele>
        <time>2024-07-23T09:47:04Z</time>
      </trkpt>
      <trkpt lat="44.66093" lon="1.26403">
        <ele>251.8</ele>
        <time>2024-07-23T09:47:05Z</time>
      </trkpt>
      <trkpt lat="44.66092" lon="1.26404">
        <ele>252.2</ele>
        <time>2024-07-23T09:47:06Z</time>
      </trkpt>
      <trkpt lat="44.66092" lon="1.26405">
        <ele>252.2</ele>
        <time>2024-07-23T09:47:07Z</time>
      </trkpt>
      <trkpt lat="44.66091" lon="1.26406">
        <ele>252.6</ele>
        <time>2024-07-23T09:47:08Z</time>
      </trkpt>
      <trkpt lat="44.66091" lon="1.26407">
        <ele>252.8</ele>
        <time>2024-07-23T09:47:09Z</time>
      </trkpt>
      <trkpt lat="44.6609" lon="1.26408">
        <ele>252.8</ele>
        <time>2024-07-23T09:47:10Z</time>
      </trkpt>
      <trkpt lat="44.66089" lon="1.26409">
        <ele>253.2</ele>
        <time>2024-07-23T09:47:11Z</time>
      </trkpt>
      <trkpt lat="44.66088" lon="1.26409">
        <ele>253.2</ele>
        <time>2024-07-23T09:47:12Z</time>
      </trkpt>
      <trkpt lat="44.66087" lon="1.2641">
        <ele>253.4</ele>
        <time>2024-07-23T09:47:13Z</time>
      </trkpt>
      <trkpt lat="44.66086" lon="1.26411">
        <ele>253.6</ele>
        <time>2024-07-23T09:47:14Z</time>
      </trkpt>
      <trkpt lat="44.66085" lon="1.26412">
        <ele>253.6</ele>
        <time>2024-07-23T09:47:15Z</time>
      </trkpt>
      <trkpt lat="44.66085" lon="1.26413">
        <ele>253.8</ele>
        <time>2024-07-23T09:47:16Z</time>
      </trkpt>
      <trkpt lat="44.66084" lon="1.26414">
        <ele>254</ele>
        <time>2024-07-23T09:47:17Z</time>
      </trkpt>
      <trkpt lat="44.66083" lon="1.26416">
        <ele>254</ele>
        <time>2024-07-23T09:47:18Z</time>
      </trkpt>
      <trkpt lat="44.66082" lon="1.26417">
        <ele>254.2</ele>
        <time>2024-07-23T09:47:19Z</time>
      </trkpt>
      <trkpt lat="44.66081" lon="1.26418">
        <ele>254.6</ele>
        <time>2024-07-23T09:47:20Z</time>
      </trkpt>
      <trkpt lat="44.66081" lon="1.26419">
        <ele>254.6</ele>
        <time>2024-07-23T09:47:21Z</time>
      </trkpt>
      <trkpt lat="44.6608" lon="1.2642">
        <ele>254.8</ele>
        <time>2024-07-23T09:47:22Z</time>
      </trkpt>
      <trkpt lat="44.66079" lon="1.26421">
        <ele>254.8</ele>
        <time>2024-07-23T09:47:23Z</time>
      </trkpt>
      <trkpt lat="44.66078" lon="1.26422">
        <ele>255</ele>
        <time>2024-07-23T09:47:24Z</time>
      </trkpt>
      <trkpt lat="44.66077" lon="1.26423">
        <ele>255.2</ele>
        <time>2024-07-23T09:47:25Z</time>
      </trkpt>
      <trkpt lat="44.66076" lon="1.26424">
        <ele>255.2</ele>
        <time>2024-07-23T09:47:26Z</time>
      </trkpt>
      <trkpt lat="44.66075" lon="1.26425">
        <ele>255.4</ele>
        <time>2024-07-23T09:47:27Z</time>
      </trkpt>
      <trkpt lat="44.66074" lon="1.26426">
        <ele>255.6</ele>
        <time>2024-07-23T09:47:28Z</time>
      </trkpt>
      <trkpt lat="44.66073" lon="1.26427">
        <ele>255.6</ele>
        <time>2024-07-23T09:47:29Z</time>
      </trkpt>
      <trkpt lat="44.66072" lon="1.26428">
        <ele>255.8</ele>
        <time>2024-07-23T09:47:30Z</time>
      </trkpt>
      <trkpt lat="44.66072" lon="1.26429">
        <ele>255.8</ele>
        <time>2024-07-23T09:47:31Z</time>
      </trkpt>
      <trkpt lat="44.66071" lon="1.2643">
        <ele>256</ele>
        <time>2024-07-23T09:47:32Z</time>
      </trkpt>
      <trkpt lat="44.6607" lon="1.26431">
        <ele>256.2</ele>
        <time>2024-07-23T09:47:33Z</time>
      </trkpt>
      <trkpt lat="44.66069" lon="1.26432">
        <ele>256.4</ele>
        <time>2024-07-23T09:47:34Z</time>
      </trkpt>
      <trkpt lat="44.66068" lon="1.26433">
        <ele>256.4</ele>
        <time>2024-07-23T09:47:35Z</time>
      </trkpt>
      <trkpt lat="44.66067" lon="1.26434">
        <ele>256.6</ele>
        <time>2024-07-23T09:47:36Z</time>
      </trkpt>
      <trkpt lat="44.66066" lon="1.26435">
        <ele>256.6</ele>
        <time>2024-07-23T09:47:37Z</time>
      </trkpt>
      <trkpt lat="44.66065" lon="1.26436">
        <ele>256.8</ele>
        <time>2024-07-23T09:47:38Z</time>
      </trkpt>
      <trkpt lat="44.66064" lon="1.26437">
        <ele>257</ele>
        <time>2024-07-23T09:47:39Z</time>
      </trkpt>
      <trkpt lat="44.66063" lon="1.26438">
        <ele>257</ele>
        <time>2024-07-23T09:47:40Z</time>
      </trkpt>
      <trkpt lat="44.66062" lon="1.26439">
        <ele>257.2</ele>
        <time>2024-07-23T09:47:41Z</time>
      </trkpt>
      <trkpt lat="44.66061" lon="1.2644">
        <ele>257.4</ele>
        <time>2024-07-23T09:47:42Z</time>
      </trkpt>
      <trkpt lat="44.6606" lon="1.26442">
        <ele>257.4</ele>
        <time>2024-07-23T09:47:43Z</time>
      </trkpt>
      <trkpt lat="44.66059" lon="1.26443">
        <ele>257.6</ele>
        <time>2024-07-23T09:47:44Z</time>
      </trkpt>
      <trkpt lat="44.66058" lon="1.26444">
        <ele>257.8</ele>
        <time>2024-07-23T09:47:45Z</time>
      </trkpt>
      <trkpt lat="44.66057" lon="1.26445">
        <ele>258</ele>
        <time>2024-07-23T09:47:46Z</time>
      </trkpt>
      <trkpt lat="44.66056" lon="1.26446">
        <ele>258.2</ele>
        <time>2024-07-23T09:47:47Z</time>
      </trkpt>
      <trkpt lat="44.66054" lon="1.26447">
        <ele>258.4</ele>
        <time>2024-07-23T09:47:48Z</time>
      </trkpt>
      <trkpt lat="44.66053" lon="1.26448">
        <ele>258.6</ele>
        <time>2024-07-23T09:47:49Z</time>
      </trkpt>
      <trkpt lat="44.66052" lon="1.26449">
        <ele>258.8</ele>
        <time>2024-07-23T09:47:50Z</time>
      </trkpt>
      <trkpt lat="44.66051" lon="1.2645">
        <ele>259</ele>
        <time>2024-07-23T09:47:51Z</time>
      </trkpt>
      <trkpt lat="44.6605" lon="1.26452">
        <ele>259</ele>
        <time>2024-07-23T09:47:52Z</time>
      </trkpt>
      <trkpt lat="44.66049" lon="1.26453">
        <ele>259.2</ele>
        <time>2024-07-23T09:47:53Z</time>
      </trkpt>
      <trkpt lat="44.66048" lon="1.26454">
        <ele>259.4</ele>
        <time>2024-07-23T09:47:54Z</time>
      </trkpt>
      <trkpt lat="44.66046" lon="1.26456">
        <ele>259.4</ele>
        <time>2024-07-23T09:47:55Z</time>
      </trkpt>
      <trkpt lat="44.66045" lon="1.26458">
        <ele>259.6</ele>
        <time>2024-07-23T09:47:56Z</time>
      </trkpt>
      <trkpt lat="44.66043" lon="1.26459">
        <ele>259.6</ele>
        <time>2024-07-23T09:47:57Z</time>
      </trkpt>
      <trkpt lat="44.66042" lon="1.26461">
        <ele>259.6</ele>
        <time>2024-07-23T09:47:58Z</time>
      </trkpt>
      <trkpt lat="44.66041" lon="1.26463">
        <ele>259.6</ele>
        <time>2024-07-23T09:47:59Z</time>
      </trkpt>
      <trkpt lat="44.66039" lon="1.26465">
        <ele>259.8</ele>
        <time>2024-07-23T09:48:00Z</time>
      </trkpt>
      <trkpt lat="44.66038" lon="1.26466">
        <ele>260</ele>
        <time>2024-07-23T09:48:01Z</time>
      </trkpt>
      <trkpt lat="44.66036" lon="1.26468">
        <ele>260.2</ele>
        <time>2024-07-23T09:48:02Z</time>
      </trkpt>
      <trkpt lat="44.66035" lon="1.2647">
        <ele>260.4</ele>
        <time>2024-07-23T09:48:03Z</time>
      </trkpt>
      <trkpt lat="44.66034" lon="1.26471">
        <ele>260.4</ele>
        <time>2024-07-23T09:48:04Z</time>
      </trkpt>
      <trkpt lat="44.66033" lon="1.26473">
        <ele>260.6</ele>
        <time>2024-07-23T09:48:05Z</time>
      </trkpt>
      <trkpt lat="44.66031" lon="1.26474">
        <ele>260.6</ele>
        <time>2024-07-23T09:48:06Z</time>
      </trkpt>
      <trkpt lat="44.6603" lon="1.26475">
        <ele>260.6</ele>
        <time>2024-07-23T09:48:07Z</time>
      </trkpt>
      <trkpt lat="44.66029" lon="1.26477">
        <ele>260.8</ele>
        <time>2024-07-23T09:48:08Z</time>
      </trkpt>
      <trkpt lat="44.66027" lon="1.26478">
        <ele>260.8</ele>
        <time>2024-07-23T09:48:09Z</time>
      </trkpt>
      <trkpt lat="44.66026" lon="1.2648">
        <ele>261</ele>
        <time>2024-07-23T09:48:10Z</time>
      </trkpt>
      <trkpt lat="44.66024" lon="1.26482">
        <ele>261.2</ele>
        <time>2024-07-23T09:48:11Z</time>
      </trkpt>
      <trkpt lat="44.66022" lon="1.26484">
        <ele>261.2</ele>
        <time>2024-07-23T09:48:12Z</time>
      </trkpt>
      <trkpt lat="44.66019" lon="1.26486">
        <ele>261.4</ele>
        <time>2024-07-23T09:48:13Z</time>
      </trkpt>
      <trkpt lat="44.66017" lon="1.26488">
        <ele>261.4</ele>
        <time>2024-07-23T09:48:14Z</time>
      </trkpt>
      <trkpt lat="44.66015" lon="1.2649">
        <ele>261.6</ele>
        <time>2024-07-23T09:48:15Z</time>
      </trkpt>
      <trkpt lat="44.66013" lon="1.26492">
        <ele>261.6</ele>
        <time>2024-07-23T09:48:16Z</time>
      </trkpt>
      <trkpt lat="44.66011" lon="1.26494">
        <ele>261.6</ele>
        <time>2024-07-23T09:48:17Z</time>
      </trkpt>
      <trkpt lat="44.66008" lon="1.26496">
        <ele>261.6</ele>
        <time>2024-07-23T09:48:18Z</time>
      </trkpt>
      <trkpt lat="44.66005" lon="1.26498">
        <ele>261.6</ele>
        <time>2024-07-23T09:48:19Z</time>
      </trkpt>
      <trkpt lat="44.66003" lon="1.265">
        <ele>261.8</ele>
        <time>2024-07-23T09:48:20Z</time>
      </trkpt>
      <trkpt lat="44.66" lon="1.26501">
        <ele>261.8</ele>
        <time>2024-07-23T09:48:21Z</time>
      </trkpt>
      <trkpt lat="44.65997" lon="1.26503">
        <ele>261.8</ele>
        <time>2024-07-23T09:48:22Z</time>
      </trkpt>
      <trkpt lat="44.65995" lon="1.26504">
        <ele>261.8</ele>
        <time>2024-07-23T09:48:23Z</time>
      </trkpt>
      <trkpt lat="44.65992" lon="1.26505">
        <ele>261.8</ele>
        <time>2024-07-23T09:48:24Z</time>
      </trkpt>
      <trkpt lat="44.65973" lon="1.26512">
        <ele>261.6</ele>
        <time>2024-07-23T09:48:30Z</time>
      </trkpt>
      <trkpt lat="44.65947" lon="1.2652">
        <ele>261.4</ele>
        <time>2024-07-23T09:48:37Z</time>
      </trkpt>
      <trkpt lat="44.65923" lon="1.26526">
        <ele>260.6</ele>
        <time>2024-07-23T09:48:42Z</time>
      </trkpt>
      <trkpt lat="44.65917" lon="1.26526">
        <ele>260.4</ele>
        <time>2024-07-23T09:48:43Z</time>
      </trkpt>
      <trkpt lat="44.65904" lon="1.26523">
        <ele>260</ele>
        <time>2024-07-23T09:48:45Z</time>
      </trkpt>
      <trkpt lat="44.65889" lon="1.26517">
        <ele>259.4</ele>
        <time>2024-07-23T09:48:47Z</time>
      </trkpt>
      <trkpt lat="44.65881" lon="1.26513">
        <ele>258.8</ele>
        <time>2024-07-23T09:48:48Z</time>
      </trkpt>
      <trkpt lat="44.65864" lon="1.26502">
        <ele>257.6</ele>
        <time>2024-07-23T09:48:50Z</time>
      </trkpt>
      <trkpt lat="44.65855" lon="1.26496">
        <ele>257</ele>
        <time>2024-07-23T09:48:51Z</time>
      </trkpt>
      <trkpt lat="44.65847" lon="1.2649">
        <ele>256.6</ele>
        <time>2024-07-23T09:48:52Z</time>
      </trkpt>
      <trkpt lat="44.6583" lon="1.26478">
        <ele>255.6</ele>
        <time>2024-07-23T09:48:54Z</time>
      </trkpt>
      <trkpt lat="44.65823" lon="1.26471">
        <ele>254.6</ele>
        <time>2024-07-23T09:48:55Z</time>
      </trkpt>
      <trkpt lat="44.65816" lon="1.26463">
        <ele>254.2</ele>
        <time>2024-07-23T09:48:56Z</time>
      </trkpt>
      <trkpt lat="44.65809" lon="1.26456">
        <ele>253</ele>
        <time>2024-07-23T09:48:57Z</time>
      </trkpt>
      <trkpt lat="44.65802" lon="1.26451">
        <ele>251.8</ele>
        <time>2024-07-23T09:48:58Z</time>
      </trkpt>
      <trkpt lat="44.65794" lon="1.26448">
        <ele>251.4</ele>
        <time>2024-07-23T09:48:59Z</time>
      </trkpt>
      <trkpt lat="44.65786" lon="1.26447">
        <ele>251</ele>
        <time>2024-07-23T09:49:00Z</time>
      </trkpt>
      <trkpt lat="44.65777" lon="1.26447">
        <ele>250.8</ele>
        <time>2024-07-23T09:49:01Z</time>
      </trkpt>
      <trkpt lat="44.65769" lon="1.26448">
        <ele>250.4</ele>
        <time>2024-07-23T09:49:02Z</time>
      </trkpt>
      <trkpt lat="44.65762" lon="1.2645">
        <ele>250.2</ele>
        <time>2024-07-23T09:49:03Z</time>
      </trkpt>
      <trkpt lat="44.65757" lon="1.26453">
        <ele>250</ele>
        <time>2024-07-23T09:49:04Z</time>
      </trkpt>
      <trkpt lat="44.65753" lon="1.26455">
        <ele>249.6</ele>
        <time>2024-07-23T09:49:05Z</time>
      </trkpt>
      <trkpt lat="44.6575" lon="1.26456">
        <ele>249.4</ele>
        <time>2024-07-23T09:49:06Z</time>
      </trkpt>
      <trkpt lat="44.65747" lon="1.26457">
        <ele>248.8</ele>
        <time>2024-07-23T09:49:07Z</time>
      </trkpt>
      <trkpt lat="44.65746" lon="1.26458">
        <ele>248.6</ele>
        <time>2024-07-23T09:49:08Z</time>
      </trkpt>
      <trkpt lat="44.65744" lon="1.26459">
        <ele>248</ele>
        <time>2024-07-23T09:49:09Z</time>
      </trkpt>
      <trkpt lat="44.65743" lon="1.2646">
        <ele>247.4</ele>
        <time>2024-07-23T09:49:10Z</time>
      </trkpt>
      <trkpt lat="44.65743" lon="1.26461">
        <ele>247.2</ele>
        <time>2024-07-23T09:49:11Z</time>
      </trkpt>
      <trkpt lat="44.65741" lon="1.26461">
        <ele>246.8</ele>
        <time>2024-07-23T09:49:12Z</time>
      </trkpt>
      <trkpt lat="44.6574" lon="1.26461">
        <ele>246.6</ele>
        <time>2024-07-23T09:49:13Z</time>
      </trkpt>
      <trkpt lat="44.6574" lon="1.26461">
        <ele>246.4</ele>
        <time>2024-07-23T09:49:14Z</time>
      </trkpt>
      <trkpt lat="44.6574" lon="1.26461">
        <ele>246.2</ele>
        <time>2024-07-23T09:49:16Z</time>
      </trkpt>
      <trkpt lat="44.65736" lon="1.26464">
        <ele>245</ele>
        <time>2024-07-23T09:49:35Z</time>
      </trkpt>
      <trkpt lat="44.65732" lon="1.26467">
        <ele>245.2</ele>
        <time>2024-07-23T09:49:37Z</time>
      </trkpt>
      <trkpt lat="44.65709" lon="1.26478">
        <ele>244.8</ele>
        <time>2024-07-23T09:49:44Z</time>
      </trkpt>
      <trkpt lat="44.65706" lon="1.2648">
        <ele>244.8</ele>
        <time>2024-07-23T09:49:45Z</time>
      </trkpt>
      <trkpt lat="44.65687" lon="1.2649">
        <ele>244.2</ele>
        <time>2024-07-23T09:49:51Z</time>
      </trkpt>
      <trkpt lat="44.65685" lon="1.26491">
        <ele>244</ele>
        <time>2024-07-23T09:49:52Z</time>
      </trkpt>
      <trkpt lat="44.65684" lon="1.26493">
        <ele>243.8</ele>
        <time>2024-07-23T09:49:53Z</time>
      </trkpt>
      <trkpt lat="44.65683" lon="1.26494">
        <ele>243.8</ele>
        <time>2024-07-23T09:49:54Z</time>
      </trkpt>
      <trkpt lat="44.65683" lon="1.26494">
        <ele>243.6</ele>
        <time>2024-07-23T09:49:55Z</time>
      </trkpt>
      <trkpt lat="44.65683" lon="1.26494">
        <ele>243.2</ele>
        <time>2024-07-23T09:49:57Z</time>
      </trkpt>
      <trkpt lat="44.65679" lon="1.26496">
        <ele>242.6</ele>
        <time>2024-07-23T09:50:03Z</time>
      </trkpt>
      <trkpt lat="44.65675" lon="1.26497">
        <ele>242.4</ele>
        <time>2024-07-23T09:50:05Z</time>
      </trkpt>
      <trkpt lat="44.65672" lon="1.26497">
        <ele>242.4</ele>
        <time>2024-07-23T09:50:06Z</time>
      </trkpt>
      <trkpt lat="44.65666" lon="1.26499">
        <ele>242.2</ele>
        <time>2024-07-23T09:50:09Z</time>
      </trkpt>
      <trkpt lat="44.65665" lon="1.26499">
        <ele>242.2</ele>
        <time>2024-07-23T09:50:10Z</time>
      </trkpt>
      <trkpt lat="44.65664" lon="1.26499">
        <ele>242.2</ele>
        <time>2024-07-23T09:50:11Z</time>
      </trkpt>
      <trkpt lat="44.65663" lon="1.265">
        <ele>242.2</ele>
        <time>2024-07-23T09:50:12Z</time>
      </trkpt>
      <trkpt lat="44.65664" lon="1.26501">
        <ele>242</ele>
        <time>2024-07-23T09:50:13Z</time>
      </trkpt>
      <trkpt lat="44.65666" lon="1.26501">
        <ele>242</ele>
        <time>2024-07-23T09:50:14Z</time>
      </trkpt>
      <trkpt lat="44.65667" lon="1.265">
        <ele>242</ele>
        <time>2024-07-23T09:50:15Z</time>
      </trkpt>
      <trkpt lat="44.65668" lon="1.26499">
        <ele>241.8</ele>
        <time>2024-07-23T09:50:16Z</time>
      </trkpt>
      <trkpt lat="44.65676" lon="1.26495">
        <ele>241.8</ele>
        <time>2024-07-23T09:50:20Z</time>
      </trkpt>
      <trkpt lat="44.65681" lon="1.26493">
        <ele>241.8</ele>
        <time>2024-07-23T09:50:22Z</time>
      </trkpt>
      <trkpt lat="44.65686" lon="1.26492">
        <ele>242</ele>
        <time>2024-07-23T09:50:24Z</time>
      </trkpt>
      <trkpt lat="44.65688" lon="1.26492">
        <ele>242</ele>
        <time>2024-07-23T09:50:25Z</time>
      </trkpt>
      <trkpt lat="44.65693" lon="1.26494">
        <ele>242.2</ele>
        <time>2024-07-23T09:50:27Z</time>
      </trkpt>
      <trkpt lat="44.65695" lon="1.26495">
        <ele>242.2</ele>
        <time>2024-07-23T09:50:28Z</time>
      </trkpt>
      <trkpt lat="44.65697" lon="1.26497">
        <ele>242.4</ele>
        <time>2024-07-23T09:50:29Z</time>
      </trkpt>
      <trkpt lat="44.65697" lon="1.26504">
        <ele>242.4</ele>
        <time>2024-07-23T09:50:31Z</time>
      </trkpt>
      <trkpt lat="44.65695" lon="1.26512">
        <ele>242.4</ele>
        <time>2024-07-23T09:50:33Z</time>
      </trkpt>
      <trkpt lat="44.65695" lon="1.26515">
        <ele>242.4</ele>
        <time>2024-07-23T09:50:34Z</time>
      </trkpt>
      <trkpt lat="44.65694" lon="1.26518">
        <ele>242.2</ele>
        <time>2024-07-23T09:50:35Z</time>
      </trkpt>
      <trkpt lat="44.65692" lon="1.2652">
        <ele>242</ele>
        <time>2024-07-23T09:50:36Z</time>
      </trkpt>
      <trkpt lat="44.6569" lon="1.26522">
        <ele>241.4</ele>
        <time>2024-07-23T09:50:37Z</time>
      </trkpt>
      <trkpt lat="44.65683" lon="1.26525">
        <ele>240.8</ele>
        <time>2024-07-23T09:50:39Z</time>
      </trkpt>
      <trkpt lat="44.65679" lon="1.26527">
        <ele>240.6</ele>
        <time>2024-07-23T09:50:40Z</time>
      </trkpt>
      <trkpt lat="44.65674" lon="1.2653">
        <ele>240</ele>
        <time>2024-07-23T09:50:41Z</time>
      </trkpt>
      <trkpt lat="44.6566" lon="1.26539">
        <ele>238.6</ele>
        <time>2024-07-23T09:50:44Z</time>
      </trkpt>
      <trkpt lat="44.65655" lon="1.26542">
        <ele>238.2</ele>
        <time>2024-07-23T09:50:45Z</time>
      </trkpt>
      <trkpt lat="44.65651" lon="1.26545">
        <ele>237.6</ele>
        <time>2024-07-23T09:50:46Z</time>
      </trkpt>
      <trkpt lat="44.65648" lon="1.26548">
        <ele>237.2</ele>
        <time>2024-07-23T09:50:47Z</time>
      </trkpt>
      <trkpt lat="44.65645" lon="1.26552">
        <ele>237</ele>
        <time>2024-07-23T09:50:48Z</time>
      </trkpt>
      <trkpt lat="44.65641" lon="1.26559">
        <ele>236.4</ele>
        <time>2024-07-23T09:50:49Z</time>
      </trkpt>
      <trkpt lat="44.65638" lon="1.26564">
        <ele>236.4</ele>
        <time>2024-07-23T09:50:50Z</time>
      </trkpt>
      <trkpt lat="44.65634" lon="1.26571">
        <ele>236</ele>
        <time>2024-07-23T09:50:51Z</time>
      </trkpt>
      <trkpt lat="44.6563" lon="1.26581">
        <ele>235.2</ele>
        <time>2024-07-23T09:50:53Z</time>
      </trkpt>
      <trkpt lat="44.65628" lon="1.26587">
        <ele>234.6</ele>
        <time>2024-07-23T09:50:54Z</time>
      </trkpt>
      <trkpt lat="44.65625" lon="1.26594">
        <ele>234.2</ele>
        <time>2024-07-23T09:50:55Z</time>
      </trkpt>
      <trkpt lat="44.65623" lon="1.26602">
        <ele>233.6</ele>
        <time>2024-07-23T09:50:56Z</time>
      </trkpt>
      <trkpt lat="44.65623" lon="1.26618">
        <ele>233.2</ele>
        <time>2024-07-23T09:50:58Z</time>
      </trkpt>
      <trkpt lat="44.65625" lon="1.26626">
        <ele>232.6</ele>
        <time>2024-07-23T09:50:59Z</time>
      </trkpt>
      <trkpt lat="44.65626" lon="1.26634">
        <ele>232.4</ele>
        <time>2024-07-23T09:51:00Z</time>
      </trkpt>
      <trkpt lat="44.65627" lon="1.26642">
        <ele>231.8</ele>
        <time>2024-07-23T09:51:01Z</time>
      </trkpt>
      <trkpt lat="44.65631" lon="1.26657">
        <ele>230.2</ele>
        <time>2024-07-23T09:51:03Z</time>
      </trkpt>
      <trkpt lat="44.65634" lon="1.26674">
        <ele>229</ele>
        <time>2024-07-23T09:51:05Z</time>
      </trkpt>
      <trkpt lat="44.65632" lon="1.26688">
        <ele>228.2</ele>
        <time>2024-07-23T09:51:07Z</time>
      </trkpt>
      <trkpt lat="44.6563" lon="1.26695">
        <ele>227.4</ele>
        <time>2024-07-23T09:51:08Z</time>
      </trkpt>
      <trkpt lat="44.65627" lon="1.26701">
        <ele>227</ele>
        <time>2024-07-23T09:51:09Z</time>
      </trkpt>
      <trkpt lat="44.65624" lon="1.26708">
        <ele>226</ele>
        <time>2024-07-23T09:51:10Z</time>
      </trkpt>
      <trkpt lat="44.65623" lon="1.26713">
        <ele>225.4</ele>
        <time>2024-07-23T09:51:11Z</time>
      </trkpt>
      <trkpt lat="44.6562" lon="1.26717">
        <ele>225</ele>
        <time>2024-07-23T09:51:12Z</time>
      </trkpt>
      <trkpt lat="44.65617" lon="1.26722">
        <ele>224</ele>
        <time>2024-07-23T09:51:13Z</time>
      </trkpt>
      <trkpt lat="44.65613" lon="1.26727">
        <ele>223.6</ele>
        <time>2024-07-23T09:51:14Z</time>
      </trkpt>
      <trkpt lat="44.65609" lon="1.26732">
        <ele>222.6</ele>
        <time>2024-07-23T09:51:15Z</time>
      </trkpt>
      <trkpt lat="44.65602" lon="1.26741">
        <ele>221.2</ele>
        <time>2024-07-23T09:51:17Z</time>
      </trkpt>
      <trkpt lat="44.65594" lon="1.26747">
        <ele>220.2</ele>
        <time>2024-07-23T09:51:19Z</time>
      </trkpt>
      <trkpt lat="44.6559" lon="1.2675">
        <ele>219.6</ele>
        <time>2024-07-23T09:51:20Z</time>
      </trkpt>
      <trkpt lat="44.65587" lon="1.26753">
        <ele>219.2</ele>
        <time>2024-07-23T09:51:21Z</time>
      </trkpt>
      <trkpt lat="44.65584" lon="1.26757">
        <ele>218.6</ele>
        <time>2024-07-23T09:51:22Z</time>
      </trkpt>
      <trkpt lat="44.65581" lon="1.2676">
        <ele>217.4</ele>
        <time>2024-07-23T09:51:23Z</time>
      </trkpt>
      <trkpt lat="44.65575" lon="1.26767">
        <ele>216.2</ele>
        <time>2024-07-23T09:51:25Z</time>
      </trkpt>
      <trkpt lat="44.65567" lon="1.26774">
        <ele>215</ele>
        <time>2024-07-23T09:51:27Z</time>
      </trkpt>
      <trkpt lat="44.65559" lon="1.26782">
        <ele>213.4</ele>
        <time>2024-07-23T09:51:29Z</time>
      </trkpt>
      <trkpt lat="44.6555" lon="1.26791">
        <ele>212.4</ele>
        <time>2024-07-23T09:51:31Z</time>
      </trkpt>
      <trkpt lat="44.65545" lon="1.26795">
        <ele>211.6</ele>
        <time>2024-07-23T09:51:32Z</time>
      </trkpt>
      <trkpt lat="44.65536" lon="1.26805">
        <ele>209.8</ele>
        <time>2024-07-23T09:51:34Z</time>
      </trkpt>
      <trkpt lat="44.65531" lon="1.2681">
        <ele>208.8</ele>
        <time>2024-07-23T09:51:35Z</time>
      </trkpt>
      <trkpt lat="44.65527" lon="1.26815">
        <ele>208.4</ele>
        <time>2024-07-23T09:51:36Z</time>
      </trkpt>
      <trkpt lat="44.65524" lon="1.2682">
        <ele>207.8</ele>
        <time>2024-07-23T09:51:37Z</time>
      </trkpt>
      <trkpt lat="44.6552" lon="1.26825">
        <ele>207.4</ele>
        <time>2024-07-23T09:51:38Z</time>
      </trkpt>
      <trkpt lat="44.65516" lon="1.26829">
        <ele>206.4</ele>
        <time>2024-07-23T09:51:39Z</time>
      </trkpt>
      <trkpt lat="44.65513" lon="1.26834">
        <ele>205.8</ele>
        <time>2024-07-23T09:51:40Z</time>
      </trkpt>
      <trkpt lat="44.6551" lon="1.2684">
        <ele>204.8</ele>
        <time>2024-07-23T09:51:41Z</time>
      </trkpt>
      <trkpt lat="44.65506" lon="1.26846">
        <ele>203.6</ele>
        <time>2024-07-23T09:51:42Z</time>
      </trkpt>
      <trkpt lat="44.65499" lon="1.26858">
        <ele>202.4</ele>
        <time>2024-07-23T09:51:44Z</time>
      </trkpt>
      <trkpt lat="44.65494" lon="1.26866">
        <ele>201</ele>
        <time>2024-07-23T09:51:46Z</time>
      </trkpt>
      <trkpt lat="44.65491" lon="1.26869">
        <ele>200.4</ele>
        <time>2024-07-23T09:51:47Z</time>
      </trkpt>
      <trkpt lat="44.65489" lon="1.26869">
        <ele>198.6</ele>
        <time>2024-07-23T09:51:48Z</time>
      </trkpt>
      <trkpt lat="44.65487" lon="1.26867">
        <ele>197.4</ele>
        <time>2024-07-23T09:51:49Z</time>
      </trkpt>
      <trkpt lat="44.65482" lon="1.2686">
        <ele>196.2</ele>
        <time>2024-07-23T09:51:51Z</time>
      </trkpt>
      <trkpt lat="44.65476" lon="1.26852">
        <ele>195</ele>
        <time>2024-07-23T09:51:53Z</time>
      </trkpt>
      <trkpt lat="44.6547" lon="1.26843">
        <ele>193.8</ele>
        <time>2024-07-23T09:51:55Z</time>
      </trkpt>
      <trkpt lat="44.65461" lon="1.26832">
        <ele>192.8</ele>
        <time>2024-07-23T09:51:57Z</time>
      </trkpt>
      <trkpt lat="44.65451" lon="1.26821">
        <ele>191.2</ele>
        <time>2024-07-23T09:51:59Z</time>
      </trkpt>
      <trkpt lat="44.6544" lon="1.26815">
        <ele>190.2</ele>
        <time>2024-07-23T09:52:01Z</time>
      </trkpt>
      <trkpt lat="44.65434" lon="1.26813">
        <ele>190</ele>
        <time>2024-07-23T09:52:02Z</time>
      </trkpt>
      <trkpt lat="44.65428" lon="1.26814">
        <ele>189.8</ele>
        <time>2024-07-23T09:52:03Z</time>
      </trkpt>
      <trkpt lat="44.65423" lon="1.26816">
        <ele>189.6</ele>
        <time>2024-07-23T09:52:04Z</time>
      </trkpt>
      <trkpt lat="44.65418" lon="1.26819">
        <ele>189.4</ele>
        <time>2024-07-23T09:52:05Z</time>
      </trkpt>
      <trkpt lat="44.65413" lon="1.26823">
        <ele>189.4</ele>
        <time>2024-07-23T09:52:06Z</time>
      </trkpt>
      <trkpt lat="44.65408" lon="1.26826">
        <ele>189.4</ele>
        <time>2024-07-23T09:52:07Z</time>
      </trkpt>
      <trkpt lat="44.65404" lon="1.26829">
        <ele>189.4</ele>
        <time>2024-07-23T09:52:08Z</time>
      </trkpt>
      <trkpt lat="44.654" lon="1.26832">
        <ele>189.4</ele>
        <time>2024-07-23T09:52:09Z</time>
      </trkpt>
      <trkpt lat="44.65396" lon="1.26836">
        <ele>189.4</ele>
        <time>2024-07-23T09:52:10Z</time>
      </trkpt>
      <trkpt lat="44.65393" lon="1.26839">
        <ele>189.4</ele>
        <time>2024-07-23T09:52:11Z</time>
      </trkpt>
      <trkpt lat="44.65389" lon="1.26842">
        <ele>189.4</ele>
        <time>2024-07-23T09:52:12Z</time>
      </trkpt>
      <trkpt lat="44.65386" lon="1.26845">
        <ele>189.2</ele>
        <time>2024-07-23T09:52:13Z</time>
      </trkpt>
      <trkpt lat="44.65383" lon="1.26848">
        <ele>189.2</ele>
        <time>2024-07-23T09:52:14Z</time>
      </trkpt>
      <trkpt lat="44.6538" lon="1.2685">
        <ele>189.2</ele>
        <time>2024-07-23T09:52:15Z</time>
      </trkpt>
      <trkpt lat="44.65376" lon="1.26852">
        <ele>189.2</ele>
        <time>2024-07-23T09:52:16Z</time>
      </trkpt>
      <trkpt lat="44.65373" lon="1.26855">
        <ele>189</ele>
        <time>2024-07-23T09:52:17Z</time>
      </trkpt>
      <trkpt lat="44.65356" lon="1.26864">
        <ele>189</ele>
        <time>2024-07-23T09:52:22Z</time>
      </trkpt>
      <trkpt lat="44.65352" lon="1.26864">
        <ele>189</ele>
        <time>2024-07-23T09:52:23Z</time>
      </trkpt>
      <trkpt lat="44.65321" lon="1.26867">
        <ele>188.8</ele>
        <time>2024-07-23T09:52:31Z</time>
      </trkpt>
      <trkpt lat="44.65305" lon="1.2686">
        <ele>188.6</ele>
        <time>2024-07-23T09:52:36Z</time>
      </trkpt>
      <trkpt lat="44.65303" lon="1.26857">
        <ele>188.6</ele>
        <time>2024-07-23T09:52:37Z</time>
      </trkpt>
      <trkpt lat="44.65301" lon="1.26855">
        <ele>188.6</ele>
        <time>2024-07-23T09:52:38Z</time>
      </trkpt>
      <trkpt lat="44.65299" lon="1.26852">
        <ele>188.6</ele>
        <time>2024-07-23T09:52:39Z</time>
      </trkpt>
      <trkpt lat="44.65298" lon="1.2685">
        <ele>188.6</ele>
        <time>2024-07-23T09:52:40Z</time>
      </trkpt>
      <trkpt lat="44.65297" lon="1.26848">
        <ele>188.8</ele>
        <time>2024-07-23T09:52:41Z</time>
      </trkpt>
      <trkpt lat="44.65295" lon="1.26846">
        <ele>188.8</ele>
        <time>2024-07-23T09:52:42Z</time>
      </trkpt>
      <trkpt lat="44.65293" lon="1.26842">
        <ele>189</ele>
        <time>2024-07-23T09:52:44Z</time>
      </trkpt>
      <trkpt lat="44.65292" lon="1.2684">
        <ele>189</ele>
        <time>2024-07-23T09:52:45Z</time>
      </trkpt>
      <trkpt lat="44.65291" lon="1.26838">
        <ele>189.4</ele>
        <time>2024-07-23T09:52:46Z</time>
      </trkpt>
      <trkpt lat="44.65289" lon="1.26836">
        <ele>189.4</ele>
        <time>2024-07-23T09:52:47Z</time>
      </trkpt>
      <trkpt lat="44.65288" lon="1.26834">
        <ele>189.6</ele>
        <time>2024-07-23T09:52:48Z</time>
      </trkpt>
      <trkpt lat="44.65287" lon="1.26832">
        <ele>189.8</ele>
        <time>2024-07-23T09:52:49Z</time>
      </trkpt>
      <trkpt lat="44.65284" lon="1.26827">
        <ele>190.2</ele>
        <time>2024-07-23T09:52:51Z</time>
      </trkpt>
      <trkpt lat="44.65283" lon="1.26825">
        <ele>190.4</ele>
        <time>2024-07-23T09:52:52Z</time>
      </trkpt>
      <trkpt lat="44.65282" lon="1.26824">
        <ele>190.8</ele>
        <time>2024-07-23T09:52:53Z</time>
      </trkpt>
      <trkpt lat="44.65281" lon="1.26822">
        <ele>191</ele>
        <time>2024-07-23T09:52:54Z</time>
      </trkpt>
      <trkpt lat="44.65279" lon="1.2682">
        <ele>191.2</ele>
        <time>2024-07-23T09:52:55Z</time>
      </trkpt>
      <trkpt lat="44.65278" lon="1.26818">
        <ele>191.4</ele>
        <time>2024-07-23T09:52:56Z</time>
      </trkpt>
      <trkpt lat="44.65277" lon="1.26816">
        <ele>191.6</ele>
        <time>2024-07-23T09:52:57Z</time>
      </trkpt>
      <trkpt lat="44.65276" lon="1.26813">
        <ele>191.6</ele>
        <time>2024-07-23T09:52:58Z</time>
      </trkpt>
      <trkpt lat="44.65273" lon="1.26809">
        <ele>192</ele>
        <time>2024-07-23T09:53:00Z</time>
      </trkpt>
      <trkpt lat="44.65272" lon="1.26807">
        <ele>192</ele>
        <time>2024-07-23T09:53:01Z</time>
      </trkpt>
      <trkpt lat="44.65271" lon="1.26805">
        <ele>192.2</ele>
        <time>2024-07-23T09:53:02Z</time>
      </trkpt>
      <trkpt lat="44.6527" lon="1.26803">
        <ele>192.4</ele>
        <time>2024-07-23T09:53:03Z</time>
      </trkpt>
      <trkpt lat="44.65269" lon="1.26801">
        <ele>192.6</ele>
        <time>2024-07-23T09:53:04Z</time>
      </trkpt>
      <trkpt lat="44.65268" lon="1.26799">
        <ele>192.8</ele>
        <time>2024-07-23T09:53:05Z</time>
      </trkpt>
      <trkpt lat="44.65267" lon="1.26797">
        <ele>193</ele>
        <time>2024-07-23T09:53:06Z</time>
      </trkpt>
      <trkpt lat="44.65265" lon="1.26795">
        <ele>193.2</ele>
        <time>2024-07-23T09:53:07Z</time>
      </trkpt>
      <trkpt lat="44.65264" lon="1.26793">
        <ele>193.2</ele>
        <time>2024-07-23T09:53:08Z</time>
      </trkpt>
      <trkpt lat="44.65262" lon="1.26791">
        <ele>193.4</ele>
        <time>2024-07-23T09:53:09Z</time>
      </trkpt>
      <trkpt lat="44.65261" lon="1.26789">
        <ele>193.6</ele>
        <time>2024-07-23T09:53:10Z</time>
      </trkpt>
      <trkpt lat="44.6526" lon="1.26787">
        <ele>193.8</ele>
        <time>2024-07-23T09:53:11Z</time>
      </trkpt>
      <trkpt lat="44.65259" lon="1.26785">
        <ele>193.8</ele>
        <time>2024-07-23T09:53:12Z</time>
      </trkpt>
      <trkpt lat="44.65257" lon="1.26783">
        <ele>194</ele>
        <time>2024-07-23T09:53:13Z</time>
      </trkpt>
      <trkpt lat="44.65256" lon="1.26781">
        <ele>194.4</ele>
        <time>2024-07-23T09:53:14Z</time>
      </trkpt>
      <trkpt lat="44.65254" lon="1.26778">
        <ele>194.6</ele>
        <time>2024-07-23T09:53:15Z</time>
      </trkpt>
      <trkpt lat="44.65253" lon="1.26776">
        <ele>194.6</ele>
        <time>2024-07-23T09:53:16Z</time>
      </trkpt>
      <trkpt lat="44.65251" lon="1.26774">
        <ele>195</ele>
        <time>2024-07-23T09:53:17Z</time>
      </trkpt>
      <trkpt lat="44.65249" lon="1.26772">
        <ele>195</ele>
        <time>2024-07-23T09:53:18Z</time>
      </trkpt>
      <trkpt lat="44.65248" lon="1.2677">
        <ele>195.2</ele>
        <time>2024-07-23T09:53:19Z</time>
      </trkpt>
      <trkpt lat="44.65247" lon="1.26767">
        <ele>195.4</ele>
        <time>2024-07-23T09:53:20Z</time>
      </trkpt>
      <trkpt lat="44.65245" lon="1.26765">
        <ele>195.6</ele>
        <time>2024-07-23T09:53:21Z</time>
      </trkpt>
      <trkpt lat="44.65243" lon="1.26763">
        <ele>195.8</ele>
        <time>2024-07-23T09:53:22Z</time>
      </trkpt>
      <trkpt lat="44.65241" lon="1.26762">
        <ele>195.8</ele>
        <time>2024-07-23T09:53:23Z</time>
      </trkpt>
      <trkpt lat="44.6524" lon="1.2676">
        <ele>196.2</ele>
        <time>2024-07-23T09:53:24Z</time>
      </trkpt>
      <trkpt lat="44.65238" lon="1.26758">
        <ele>196.2</ele>
        <time>2024-07-23T09:53:25Z</time>
      </trkpt>
      <trkpt lat="44.65236" lon="1.26756">
        <ele>196.4</ele>
        <time>2024-07-23T09:53:26Z</time>
      </trkpt>
      <trkpt lat="44.65234" lon="1.26754">
        <ele>196.6</ele>
        <time>2024-07-23T09:53:27Z</time>
      </trkpt>
      <trkpt lat="44.65233" lon="1.26753">
        <ele>196.6</ele>
        <time>2024-07-23T09:53:28Z</time>
      </trkpt>
      <trkpt lat="44.65231" lon="1.26751">
        <ele>196.8</ele>
        <time>2024-07-23T09:53:29Z</time>
      </trkpt>
      <trkpt lat="44.65229" lon="1.26749">
        <ele>196.8</ele>
        <time>2024-07-23T09:53:30Z</time>
      </trkpt>
      <trkpt lat="44.65228" lon="1.26748">
        <ele>196.8</ele>
        <time>2024-07-23T09:53:31Z</time>
      </trkpt>
      <trkpt lat="44.65226" lon="1.26746">
        <ele>197</ele>
        <time>2024-07-23T09:53:32Z</time>
      </trkpt>
      <trkpt lat="44.65224" lon="1.26745">
        <ele>197</ele>
        <time>2024-07-23T09:53:33Z</time>
      </trkpt>
      <trkpt lat="44.65222" lon="1.26743">
        <ele>197.2</ele>
        <time>2024-07-23T09:53:34Z</time>
      </trkpt>
      <trkpt lat="44.65221" lon="1.26741">
        <ele>197.2</ele>
        <time>2024-07-23T09:53:35Z</time>
      </trkpt>
      <trkpt lat="44.65219" lon="1.26739">
        <ele>197.4</ele>
        <time>2024-07-23T09:53:36Z</time>
      </trkpt>
      <trkpt lat="44.65217" lon="1.26738">
        <ele>197.6</ele>
        <time>2024-07-23T09:53:37Z</time>
      </trkpt>
      <trkpt lat="44.65216" lon="1.26736">
        <ele>197.8</ele>
        <time>2024-07-23T09:53:38Z</time>
      </trkpt>
      <trkpt lat="44.65214" lon="1.26735">
        <ele>197.8</ele>
        <time>2024-07-23T09:53:39Z</time>
      </trkpt>
      <trkpt lat="44.65212" lon="1.26733">
        <ele>198</ele>
        <time>2024-07-23T09:53:40Z</time>
      </trkpt>
      <trkpt lat="44.65211" lon="1.26732">
        <ele>198</ele>
        <time>2024-07-23T09:53:41Z</time>
      </trkpt>
      <trkpt lat="44.65208" lon="1.26731">
        <ele>198.2</ele>
        <time>2024-07-23T09:53:42Z</time>
      </trkpt>
      <trkpt lat="44.65207" lon="1.26729">
        <ele>198.4</ele>
        <time>2024-07-23T09:53:43Z</time>
      </trkpt>
      <trkpt lat="44.65205" lon="1.26728">
        <ele>198.4</ele>
        <time>2024-07-23T09:53:44Z</time>
      </trkpt>
      <trkpt lat="44.65203" lon="1.26726">
        <ele>198.6</ele>
        <time>2024-07-23T09:53:45Z</time>
      </trkpt>
      <trkpt lat="44.65202" lon="1.26724">
        <ele>198.8</ele>
        <time>2024-07-23T09:53:46Z</time>
      </trkpt>
      <trkpt lat="44.652" lon="1.26723">
        <ele>199</ele>
        <time>2024-07-23T09:53:47Z</time>
      </trkpt>
      <trkpt lat="44.65199" lon="1.26721">
        <ele>199.2</ele>
        <time>2024-07-23T09:53:48Z</time>
      </trkpt>
      <trkpt lat="44.65197" lon="1.2672">
        <ele>199.2</ele>
        <time>2024-07-23T09:53:49Z</time>
      </trkpt>
      <trkpt lat="44.65195" lon="1.26718">
        <ele>199.4</ele>
        <time>2024-07-23T09:53:50Z</time>
      </trkpt>
      <trkpt lat="44.65194" lon="1.26716">
        <ele>199.6</ele>
        <time>2024-07-23T09:53:51Z</time>
      </trkpt>
      <trkpt lat="44.65192" lon="1.26715">
        <ele>199.6</ele>
        <time>2024-07-23T09:53:52Z</time>
      </trkpt>
      <trkpt lat="44.65191" lon="1.26713">
        <ele>199.8</ele>
        <time>2024-07-23T09:53:53Z</time>
      </trkpt>
      <trkpt lat="44.65189" lon="1.26711">
        <ele>200</ele>
        <time>2024-07-23T09:53:54Z</time>
      </trkpt>
      <trkpt lat="44.65188" lon="1.26709">
        <ele>200.2</ele>
        <time>2024-07-23T09:53:55Z</time>
      </trkpt>
      <trkpt lat="44.65187" lon="1.26707">
        <ele>200.2</ele>
        <time>2024-07-23T09:53:56Z</time>
      </trkpt>
      <trkpt lat="44.65185" lon="1.26705">
        <ele>200.6</ele>
        <time>2024-07-23T09:53:57Z</time>
      </trkpt>
      <trkpt lat="44.65183" lon="1.26703">
        <ele>200.8</ele>
        <time>2024-07-23T09:53:58Z</time>
      </trkpt>
      <trkpt lat="44.65182" lon="1.26701">
        <ele>201</ele>
        <time>2024-07-23T09:53:59Z</time>
      </trkpt>
      <trkpt lat="44.65181" lon="1.26699">
        <ele>201.2</ele>
        <time>2024-07-23T09:54:00Z</time>
      </trkpt>
      <trkpt lat="44.6518" lon="1.26697">
        <ele>201.2</ele>
        <time>2024-07-23T09:54:01Z</time>
      </trkpt>
      <trkpt lat="44.65179" lon="1.26695">
        <ele>201.2</ele>
        <time>2024-07-23T09:54:02Z</time>
      </trkpt>
      <trkpt lat="44.65177" lon="1.26693">
        <ele>201.2</ele>
        <time>2024-07-23T09:54:03Z</time>
      </trkpt>
      <trkpt lat="44.65176" lon="1.26691">
        <ele>201.4</ele>
        <time>2024-07-23T09:54:04Z</time>
      </trkpt>
      <trkpt lat="44.65175" lon="1.26689">
        <ele>201.6</ele>
        <time>2024-07-23T09:54:05Z</time>
      </trkpt>
      <trkpt lat="44.65174" lon="1.26687">
        <ele>201.6</ele>
        <time>2024-07-23T09:54:06Z</time>
      </trkpt>
      <trkpt lat="44.65173" lon="1.26685">
        <ele>201.8</ele>
        <time>2024-07-23T09:54:07Z</time>
      </trkpt>
      <trkpt lat="44.65171" lon="1.26683">
        <ele>201.8</ele>
        <time>2024-07-23T09:54:08Z</time>
      </trkpt>
      <trkpt lat="44.6517" lon="1.2668">
        <ele>201.8</ele>
        <time>2024-07-23T09:54:09Z</time>
      </trkpt>
      <trkpt lat="44.65169" lon="1.26678">
        <ele>202</ele>
        <time>2024-07-23T09:54:10Z</time>
      </trkpt>
      <trkpt lat="44.65168" lon="1.26676">
        <ele>202.2</ele>
        <time>2024-07-23T09:54:11Z</time>
      </trkpt>
      <trkpt lat="44.65167" lon="1.26674">
        <ele>202.2</ele>
        <time>2024-07-23T09:54:12Z</time>
      </trkpt>
      <trkpt lat="44.65166" lon="1.26672">
        <ele>202.2</ele>
        <time>2024-07-23T09:54:13Z</time>
      </trkpt>
      <trkpt lat="44.65165" lon="1.2667">
        <ele>202.4</ele>
        <time>2024-07-23T09:54:14Z</time>
      </trkpt>
      <trkpt lat="44.65165" lon="1.26668">
        <ele>202.4</ele>
        <time>2024-07-23T09:54:15Z</time>
      </trkpt>
      <trkpt lat="44.65164" lon="1.26665">
        <ele>202.6</ele>
        <time>2024-07-23T09:54:16Z</time>
      </trkpt>
      <trkpt lat="44.65163" lon="1.26663">
        <ele>202.8</ele>
        <time>2024-07-23T09:54:17Z</time>
      </trkpt>
      <trkpt lat="44.65161" lon="1.2666">
        <ele>202.8</ele>
        <time>2024-07-23T09:54:18Z</time>
      </trkpt>
      <trkpt lat="44.65161" lon="1.26658">
        <ele>203</ele>
        <time>2024-07-23T09:54:19Z</time>
      </trkpt>
      <trkpt lat="44.6516" lon="1.26656">
        <ele>203.2</ele>
        <time>2024-07-23T09:54:20Z</time>
      </trkpt>
      <trkpt lat="44.65159" lon="1.26653">
        <ele>203.2</ele>
        <time>2024-07-23T09:54:21Z</time>
      </trkpt>
      <trkpt lat="44.65158" lon="1.26651">
        <ele>203.4</ele>
        <time>2024-07-23T09:54:22Z</time>
      </trkpt>
      <trkpt lat="44.65157" lon="1.26648">
        <ele>203.4</ele>
        <time>2024-07-23T09:54:23Z</time>
      </trkpt>
      <trkpt lat="44.65156" lon="1.26646">
        <ele>203.6</ele>
        <time>2024-07-23T09:54:24Z</time>
      </trkpt>
      <trkpt lat="44.65155" lon="1.26643">
        <ele>203.6</ele>
        <time>2024-07-23T09:54:25Z</time>
      </trkpt>
      <trkpt lat="44.65154" lon="1.26641">
        <ele>203.8</ele>
        <time>2024-07-23T09:54:26Z</time>
      </trkpt>
      <trkpt lat="44.65153" lon="1.26638">
        <ele>204</ele>
        <time>2024-07-23T09:54:27Z</time>
      </trkpt>
      <trkpt lat="44.65153" lon="1.26636">
        <ele>204.4</ele>
        <time>2024-07-23T09:54:28Z</time>
      </trkpt>
      <trkpt lat="44.65152" lon="1.26634">
        <ele>204.6</ele>
        <time>2024-07-23T09:54:29Z</time>
      </trkpt>
      <trkpt lat="44.65151" lon="1.26632">
        <ele>204.8</ele>
        <time>2024-07-23T09:54:30Z</time>
      </trkpt>
      <trkpt lat="44.6515" lon="1.26629">
        <ele>205</ele>
        <time>2024-07-23T09:54:31Z</time>
      </trkpt>
      <trkpt lat="44.6515" lon="1.26627">
        <ele>205</ele>
        <time>2024-07-23T09:54:32Z</time>
      </trkpt>
      <trkpt lat="44.65149" lon="1.26624">
        <ele>205.2</ele>
        <time>2024-07-23T09:54:33Z</time>
      </trkpt>
      <trkpt lat="44.65148" lon="1.26622">
        <ele>205.2</ele>
        <time>2024-07-23T09:54:34Z</time>
      </trkpt>
      <trkpt lat="44.65147" lon="1.2662">
        <ele>205.2</ele>
        <time>2024-07-23T09:54:35Z</time>
      </trkpt>
      <trkpt lat="44.65146" lon="1.26618">
        <ele>205.2</ele>
        <time>2024-07-23T09:54:36Z</time>
      </trkpt>
      <trkpt lat="44.65146" lon="1.26616">
        <ele>205.6</ele>
        <time>2024-07-23T09:54:37Z</time>
      </trkpt>
      <trkpt lat="44.65145" lon="1.26614">
        <ele>206</ele>
        <time>2024-07-23T09:54:38Z</time>
      </trkpt>
      <trkpt lat="44.65145" lon="1.26613">
        <ele>206.2</ele>
        <time>2024-07-23T09:54:39Z</time>
      </trkpt>
      <trkpt lat="44.65145" lon="1.26612">
        <ele>206.6</ele>
        <time>2024-07-23T09:54:40Z</time>
      </trkpt>
      <trkpt lat="44.65144" lon="1.26613">
        <ele>206.8</ele>
        <time>2024-07-23T09:54:41Z</time>
      </trkpt>
      <trkpt lat="44.65144" lon="1.26614">
        <ele>207</ele>
        <time>2024-07-23T09:54:42Z</time>
      </trkpt>
      <trkpt lat="44.65144" lon="1.26615">
        <ele>207</ele>
        <time>2024-07-23T09:54:43Z</time>
      </trkpt>
      <trkpt lat="44.65145" lon="1.26617">
        <ele>207</ele>
        <time>2024-07-23T09:54:44Z</time>
      </trkpt>
      <trkpt lat="44.65146" lon="1.2662">
        <ele>207</ele>
        <time>2024-07-23T09:54:45Z</time>
      </trkpt>
      <trkpt lat="44.65148" lon="1.26622">
        <ele>207</ele>
        <time>2024-07-23T09:54:46Z</time>
      </trkpt>
      <trkpt lat="44.65149" lon="1.26626">
        <ele>207</ele>
        <time>2024-07-23T09:54:47Z</time>
      </trkpt>
      <trkpt lat="44.65151" lon="1.26631">
        <ele>207</ele>
        <time>2024-07-23T09:54:48Z</time>
      </trkpt>
      <trkpt lat="44.65153" lon="1.26635">
        <ele>207</ele>
        <time>2024-07-23T09:54:49Z</time>
      </trkpt>
      <trkpt lat="44.65155" lon="1.26641">
        <ele>206.8</ele>
        <time>2024-07-23T09:54:50Z</time>
      </trkpt>
      <trkpt lat="44.65157" lon="1.26647">
        <ele>206.8</ele>
        <time>2024-07-23T09:54:51Z</time>
      </trkpt>
      <trkpt lat="44.65159" lon="1.26653">
        <ele>206.4</ele>
        <time>2024-07-23T09:54:52Z</time>
      </trkpt>
      <trkpt lat="44.65162" lon="1.2666">
        <ele>206.4</ele>
        <time>2024-07-23T09:54:53Z</time>
      </trkpt>
      <trkpt lat="44.65164" lon="1.26666">
        <ele>206.2</ele>
        <time>2024-07-23T09:54:54Z</time>
      </trkpt>
      <trkpt lat="44.65167" lon="1.26672">
        <ele>206</ele>
        <time>2024-07-23T09:54:55Z</time>
      </trkpt>
      <trkpt lat="44.6517" lon="1.26678">
        <ele>206</ele>
        <time>2024-07-23T09:54:56Z</time>
      </trkpt>
      <trkpt lat="44.65172" lon="1.26682">
        <ele>205.8</ele>
        <time>2024-07-23T09:54:57Z</time>
      </trkpt>
      <trkpt lat="44.65174" lon="1.26686">
        <ele>205.6</ele>
        <time>2024-07-23T09:54:58Z</time>
      </trkpt>
      <trkpt lat="44.65175" lon="1.2669">
        <ele>205.2</ele>
        <time>2024-07-23T09:54:59Z</time>
      </trkpt>
      <trkpt lat="44.65175" lon="1.26693">
        <ele>205</ele>
        <time>2024-07-23T09:55:00Z</time>
      </trkpt>
      <trkpt lat="44.65173" lon="1.26694">
        <ele>204.6</ele>
        <time>2024-07-23T09:55:01Z</time>
      </trkpt>
      <trkpt lat="44.65171" lon="1.26692">
        <ele>204.2</ele>
        <time>2024-07-23T09:55:02Z</time>
      </trkpt>
      <trkpt lat="44.65165" lon="1.26682">
        <ele>203.4</ele>
        <time>2024-07-23T09:55:05Z</time>
      </trkpt>
      <trkpt lat="44.65163" lon="1.26678">
        <ele>203.2</ele>
        <time>2024-07-23T09:55:06Z</time>
      </trkpt>
      <trkpt lat="44.6516" lon="1.26674">
        <ele>203.2</ele>
        <time>2024-07-23T09:55:07Z</time>
      </trkpt>
      <trkpt lat="44.65151" lon="1.2666">
        <ele>202.6</ele>
        <time>2024-07-23T09:55:10Z</time>
      </trkpt>
      <trkpt lat="44.65145" lon="1.26652">
        <ele>202.4</ele>
        <time>2024-07-23T09:55:12Z</time>
      </trkpt>
      <trkpt lat="44.65142" lon="1.26646">
        <ele>202.2</ele>
        <time>2024-07-23T09:55:13Z</time>
      </trkpt>
      <trkpt lat="44.65138" lon="1.26641">
        <ele>202</ele>
        <time>2024-07-23T09:55:14Z</time>
      </trkpt>
      <trkpt lat="44.65135" lon="1.26635">
        <ele>202</ele>
        <time>2024-07-23T09:55:15Z</time>
      </trkpt>
      <trkpt lat="44.65128" lon="1.26622">
        <ele>201.4</ele>
        <time>2024-07-23T09:55:17Z</time>
      </trkpt>
      <trkpt lat="44.65121" lon="1.26608">
        <ele>200.8</ele>
        <time>2024-07-23T09:55:19Z</time>
      </trkpt>
      <trkpt lat="44.65118" lon="1.26599">
        <ele>200.6</ele>
        <time>2024-07-23T09:55:20Z</time>
      </trkpt>
      <trkpt lat="44.65112" lon="1.26582">
        <ele>199.6</ele>
        <time>2024-07-23T09:55:22Z</time>
      </trkpt>
      <trkpt lat="44.65107" lon="1.26566">
        <ele>198.8</ele>
        <time>2024-07-23T09:55:24Z</time>
      </trkpt>
      <trkpt lat="44.65104" lon="1.2656">
        <ele>198.4</ele>
        <time>2024-07-23T09:55:25Z</time>
      </trkpt>
      <trkpt lat="44.65101" lon="1.26557">
        <ele>198</ele>
        <time>2024-07-23T09:55:26Z</time>
      </trkpt>
      <trkpt lat="44.65098" lon="1.26556">
        <ele>197.8</ele>
        <time>2024-07-23T09:55:27Z</time>
      </trkpt>
      <trkpt lat="44.65095" lon="1.26557">
        <ele>197.6</ele>
        <time>2024-07-23T09:55:28Z</time>
      </trkpt>
      <trkpt lat="44.65092" lon="1.26557">
        <ele>197.4</ele>
        <time>2024-07-23T09:55:29Z</time>
      </trkpt>
      <trkpt lat="44.6509" lon="1.26557">
        <ele>197</ele>
        <time>2024-07-23T09:55:30Z</time>
      </trkpt>
      <trkpt lat="44.65089" lon="1.26557">
        <ele>196.4</ele>
        <time>2024-07-23T09:55:31Z</time>
      </trkpt>
      <trkpt lat="44.65088" lon="1.26557">
        <ele>196.2</ele>
        <time>2024-07-23T09:55:32Z</time>
      </trkpt>
      <trkpt lat="44.65087" lon="1.26556">
        <ele>196</ele>
        <time>2024-07-23T09:55:33Z</time>
      </trkpt>
      <trkpt lat="44.65086" lon="1.26555">
        <ele>195.8</ele>
        <time>2024-07-23T09:55:34Z</time>
      </trkpt>
      <trkpt lat="44.65085" lon="1.26554">
        <ele>195.8</ele>
        <time>2024-07-23T09:55:35Z</time>
      </trkpt>
      <trkpt lat="44.65083" lon="1.26552">
        <ele>195.8</ele>
        <time>2024-07-23T09:55:37Z</time>
      </trkpt>
      <trkpt lat="44.65082" lon="1.26552">
        <ele>195.8</ele>
        <time>2024-07-23T09:55:38Z</time>
      </trkpt>
      <trkpt lat="44.65081" lon="1.26551">
        <ele>195.8</ele>
        <time>2024-07-23T09:55:39Z</time>
      </trkpt>
      <trkpt lat="44.6508" lon="1.2655">
        <ele>195.8</ele>
        <time>2024-07-23T09:55:40Z</time>
      </trkpt>
      <trkpt lat="44.65079" lon="1.2655">
        <ele>196</ele>
        <time>2024-07-23T09:55:41Z</time>
      </trkpt>
      <trkpt lat="44.65078" lon="1.26549">
        <ele>196.2</ele>
        <time>2024-07-23T09:55:42Z</time>
      </trkpt>
      <trkpt lat="44.65075" lon="1.26547">
        <ele>197.2</ele>
        <time>2024-07-23T09:55:45Z</time>
      </trkpt>
      <trkpt lat="44.65071" lon="1.26543">
        <ele>198</ele>
        <time>2024-07-23T09:55:48Z</time>
      </trkpt>
      <trkpt lat="44.65069" lon="1.26542">
        <ele>198.2</ele>
        <time>2024-07-23T09:55:49Z</time>
      </trkpt>
      <trkpt lat="44.65067" lon="1.2654">
        <ele>198.6</ele>
        <time>2024-07-23T09:55:51Z</time>
      </trkpt>
      <trkpt lat="44.65067" lon="1.2654">
        <ele>199</ele>
        <time>2024-07-23T09:55:52Z</time>
      </trkpt>
      <trkpt lat="44.65066" lon="1.26539">
        <ele>199.2</ele>
        <time>2024-07-23T09:55:53Z</time>
      </trkpt>
      <trkpt lat="44.65065" lon="1.26538">
        <ele>199.6</ele>
        <time>2024-07-23T09:55:54Z</time>
      </trkpt>
      <trkpt lat="44.65064" lon="1.26537">
        <ele>200</ele>
        <time>2024-07-23T09:55:56Z</time>
      </trkpt>
      <trkpt lat="44.65062" lon="1.26535">
        <ele>200</ele>
        <time>2024-07-23T09:55:57Z</time>
      </trkpt>
      <trkpt lat="44.65061" lon="1.26534">
        <ele>200.2</ele>
        <time>2024-07-23T09:55:58Z</time>
      </trkpt>
      <trkpt lat="44.6506" lon="1.26533">
        <ele>200.6</ele>
        <time>2024-07-23T09:55:59Z</time>
      </trkpt>
      <trkpt lat="44.6506" lon="1.26532">
        <ele>200.6</ele>
        <time>2024-07-23T09:56:00Z</time>
      </trkpt>
      <trkpt lat="44.65059" lon="1.26532">
        <ele>201</ele>
        <time>2024-07-23T09:56:01Z</time>
      </trkpt>
      <trkpt lat="44.65058" lon="1.26531">
        <ele>201.2</ele>
        <time>2024-07-23T09:56:02Z</time>
      </trkpt>
      <trkpt lat="44.65057" lon="1.26531">
        <ele>201.4</ele>
        <time>2024-07-23T09:56:03Z</time>
      </trkpt>
      <trkpt lat="44.65056" lon="1.2653">
        <ele>201.6</ele>
        <time>2024-07-23T09:56:04Z</time>
      </trkpt>
      <trkpt lat="44.65055" lon="1.2653">
        <ele>201.8</ele>
        <time>2024-07-23T09:56:05Z</time>
      </trkpt>
      <trkpt lat="44.65054" lon="1.2653">
        <ele>202</ele>
        <time>2024-07-23T09:56:06Z</time>
      </trkpt>
      <trkpt lat="44.65053" lon="1.26529">
        <ele>202.2</ele>
        <time>2024-07-23T09:56:07Z</time>
      </trkpt>
      <trkpt lat="44.65053" lon="1.26528">
        <ele>202.6</ele>
        <time>2024-07-23T09:56:08Z</time>
      </trkpt>
      <trkpt lat="44.65052" lon="1.26528">
        <ele>203</ele>
        <time>2024-07-23T09:56:09Z</time>
      </trkpt>
      <trkpt lat="44.65051" lon="1.26528">
        <ele>203.2</ele>
        <time>2024-07-23T09:56:10Z</time>
      </trkpt>
      <trkpt lat="44.6505" lon="1.26528">
        <ele>203.6</ele>
        <time>2024-07-23T09:56:11Z</time>
      </trkpt>
      <trkpt lat="44.65048" lon="1.26528">
        <ele>203.8</ele>
        <time>2024-07-23T09:56:12Z</time>
      </trkpt>
      <trkpt lat="44.65047" lon="1.26528">
        <ele>204</ele>
        <time>2024-07-23T09:56:13Z</time>
      </trkpt>
      <trkpt lat="44.65046" lon="1.26528">
        <ele>204.4</ele>
        <time>2024-07-23T09:56:14Z</time>
      </trkpt>
      <trkpt lat="44.65045" lon="1.26528">
        <ele>204.8</ele>
        <time>2024-07-23T09:56:15Z</time>
      </trkpt>
      <trkpt lat="44.65044" lon="1.26527">
        <ele>205.2</ele>
        <time>2024-07-23T09:56:16Z</time>
      </trkpt>
      <trkpt lat="44.65043" lon="1.26527">
        <ele>205.2</ele>
        <time>2024-07-23T09:56:17Z</time>
      </trkpt>
      <trkpt lat="44.65043" lon="1.26526">
        <ele>205.6</ele>
        <time>2024-07-23T09:56:18Z</time>
      </trkpt>
      <trkpt lat="44.65042" lon="1.26526">
        <ele>205.6</ele>
        <time>2024-07-23T09:56:19Z</time>
      </trkpt>
      <trkpt lat="44.65041" lon="1.26525">
        <ele>205.6</ele>
        <time>2024-07-23T09:56:20Z</time>
      </trkpt>
      <trkpt lat="44.6504" lon="1.26524">
        <ele>206</ele>
        <time>2024-07-23T09:56:21Z</time>
      </trkpt>
      <trkpt lat="44.65039" lon="1.26523">
        <ele>206</ele>
        <time>2024-07-23T09:56:22Z</time>
      </trkpt>
      <trkpt lat="44.65039" lon="1.26522">
        <ele>206.4</ele>
        <time>2024-07-23T09:56:23Z</time>
      </trkpt>
      <trkpt lat="44.65039" lon="1.26521">
        <ele>206.4</ele>
        <time>2024-07-23T09:56:24Z</time>
      </trkpt>
      <trkpt lat="44.65039" lon="1.26519">
        <ele>206.8</ele>
        <time>2024-07-23T09:56:25Z</time>
      </trkpt>
      <trkpt lat="44.65038" lon="1.26518">
        <ele>207</ele>
        <time>2024-07-23T09:56:26Z</time>
      </trkpt>
      <trkpt lat="44.65038" lon="1.26517">
        <ele>207.2</ele>
        <time>2024-07-23T09:56:27Z</time>
      </trkpt>
      <trkpt lat="44.65038" lon="1.26515">
        <ele>207.4</ele>
        <time>2024-07-23T09:56:28Z</time>
      </trkpt>
      <trkpt lat="44.65038" lon="1.26514">
        <ele>207.6</ele>
        <time>2024-07-23T09:56:29Z</time>
      </trkpt>
      <trkpt lat="44.65038" lon="1.26512">
        <ele>207.8</ele>
        <time>2024-07-23T09:56:30Z</time>
      </trkpt>
      <trkpt lat="44.65038" lon="1.26511">
        <ele>207.8</ele>
        <time>2024-07-23T09:56:31Z</time>
      </trkpt>
      <trkpt lat="44.65038" lon="1.26509">
        <ele>208</ele>
        <time>2024-07-23T09:56:32Z</time>
      </trkpt>
      <trkpt lat="44.65038" lon="1.26508">
        <ele>208.2</ele>
        <time>2024-07-23T09:56:33Z</time>
      </trkpt>
      <trkpt lat="44.65038" lon="1.26506">
        <ele>208.2</ele>
        <time>2024-07-23T09:56:34Z</time>
      </trkpt>
      <trkpt lat="44.65038" lon="1.26505">
        <ele>208.2</ele>
        <time>2024-07-23T09:56:35Z</time>
      </trkpt>
      <trkpt lat="44.65038" lon="1.26504">
        <ele>208.4</ele>
        <time>2024-07-23T09:56:36Z</time>
      </trkpt>
      <trkpt lat="44.65039" lon="1.26502">
        <ele>208.4</ele>
        <time>2024-07-23T09:56:37Z</time>
      </trkpt>
      <trkpt lat="44.6504" lon="1.26501">
        <ele>208.4</ele>
        <time>2024-07-23T09:56:38Z</time>
      </trkpt>
      <trkpt lat="44.6504" lon="1.265">
        <ele>208.4</ele>
        <time>2024-07-23T09:56:39Z</time>
      </trkpt>
      <trkpt lat="44.65041" lon="1.26498">
        <ele>208.4</ele>
        <time>2024-07-23T09:56:40Z</time>
      </trkpt>
      <trkpt lat="44.65041" lon="1.26497">
        <ele>208.4</ele>
        <time>2024-07-23T09:56:41Z</time>
      </trkpt>
      <trkpt lat="44.65042" lon="1.26495">
        <ele>208.6</ele>
        <time>2024-07-23T09:56:42Z</time>
      </trkpt>
      <trkpt lat="44.65042" lon="1.26493">
        <ele>208.6</ele>
        <time>2024-07-23T09:56:43Z</time>
      </trkpt>
      <trkpt lat="44.65042" lon="1.26492">
        <ele>208.8</ele>
        <time>2024-07-23T09:56:44Z</time>
      </trkpt>
      <trkpt lat="44.65043" lon="1.2649">
        <ele>208.8</ele>
        <time>2024-07-23T09:56:45Z</time>
      </trkpt>
      <trkpt lat="44.65043" lon="1.26488">
        <ele>209</ele>
        <time>2024-07-23T09:56:46Z</time>
      </trkpt>
      <trkpt lat="44.65043" lon="1.26487">
        <ele>209</ele>
        <time>2024-07-23T09:56:47Z</time>
      </trkpt>
      <trkpt lat="44.65043" lon="1.26485">
        <ele>209</ele>
        <time>2024-07-23T09:56:48Z</time>
      </trkpt>
      <trkpt lat="44.65043" lon="1.26483">
        <ele>209.2</ele>
        <time>2024-07-23T09:56:49Z</time>
      </trkpt>
      <trkpt lat="44.65043" lon="1.26481">
        <ele>209.2</ele>
        <time>2024-07-23T09:56:50Z</time>
      </trkpt>
      <trkpt lat="44.65042" lon="1.2648">
        <ele>209.4</ele>
        <time>2024-07-23T09:56:51Z</time>
      </trkpt>
      <trkpt lat="44.65042" lon="1.26478">
        <ele>209.6</ele>
        <time>2024-07-23T09:56:52Z</time>
      </trkpt>
      <trkpt lat="44.65042" lon="1.26477">
        <ele>209.6</ele>
        <time>2024-07-23T09:56:53Z</time>
      </trkpt>
      <trkpt lat="44.65042" lon="1.26475">
        <ele>209.8</ele>
        <time>2024-07-23T09:56:54Z</time>
      </trkpt>
      <trkpt lat="44.65042" lon="1.26473">
        <ele>209.8</ele>
        <time>2024-07-23T09:56:55Z</time>
      </trkpt>
      <trkpt lat="44.65041" lon="1.26471">
        <ele>210.2</ele>
        <time>2024-07-23T09:56:56Z</time>
      </trkpt>
      <trkpt lat="44.65041" lon="1.26469">
        <ele>210.4</ele>
        <time>2024-07-23T09:56:57Z</time>
      </trkpt>
      <trkpt lat="44.6504" lon="1.26468">
        <ele>210.6</ele>
        <time>2024-07-23T09:56:58Z</time>
      </trkpt>
      <trkpt lat="44.6504" lon="1.26466">
        <ele>210.6</ele>
        <time>2024-07-23T09:56:59Z</time>
      </trkpt>
      <trkpt lat="44.6504" lon="1.26465">
        <ele>210.8</ele>
        <time>2024-07-23T09:57:00Z</time>
      </trkpt>
      <trkpt lat="44.65039" lon="1.26463">
        <ele>210.8</ele>
        <time>2024-07-23T09:57:01Z</time>
      </trkpt>
      <trkpt lat="44.65039" lon="1.26461">
        <ele>211</ele>
        <time>2024-07-23T09:57:02Z</time>
      </trkpt>
      <trkpt lat="44.65038" lon="1.2646">
        <ele>211</ele>
        <time>2024-07-23T09:57:03Z</time>
      </trkpt>
      <trkpt lat="44.65038" lon="1.26458">
        <ele>211.2</ele>
        <time>2024-07-23T09:57:04Z</time>
      </trkpt>
      <trkpt lat="44.65037" lon="1.26456">
        <ele>211.2</ele>
        <time>2024-07-23T09:57:05Z</time>
      </trkpt>
      <trkpt lat="44.65037" lon="1.26454">
        <ele>211.4</ele>
        <time>2024-07-23T09:57:06Z</time>
      </trkpt>
      <trkpt lat="44.65037" lon="1.26453">
        <ele>211.6</ele>
        <time>2024-07-23T09:57:07Z</time>
      </trkpt>
      <trkpt lat="44.65036" lon="1.26451">
        <ele>211.8</ele>
        <time>2024-07-23T09:57:08Z</time>
      </trkpt>
      <trkpt lat="44.65036" lon="1.26449">
        <ele>212</ele>
        <time>2024-07-23T09:57:09Z</time>
      </trkpt>
      <trkpt lat="44.65035" lon="1.26447">
        <ele>212</ele>
        <time>2024-07-23T09:57:10Z</time>
      </trkpt>
      <trkpt lat="44.65035" lon="1.26445">
        <ele>212.4</ele>
        <time>2024-07-23T09:57:11Z</time>
      </trkpt>
      <trkpt lat="44.65034" lon="1.26444">
        <ele>212.4</ele>
        <time>2024-07-23T09:57:12Z</time>
      </trkpt>
      <trkpt lat="44.65034" lon="1.26442">
        <ele>212.6</ele>
        <time>2024-07-23T09:57:13Z</time>
      </trkpt>
      <trkpt lat="44.65033" lon="1.2644">
        <ele>212.8</ele>
        <time>2024-07-23T09:57:14Z</time>
      </trkpt>
      <trkpt lat="44.65033" lon="1.26439">
        <ele>213</ele>
        <time>2024-07-23T09:57:15Z</time>
      </trkpt>
      <trkpt lat="44.65032" lon="1.26437">
        <ele>213.2</ele>
        <time>2024-07-23T09:57:16Z</time>
      </trkpt>
      <trkpt lat="44.65032" lon="1.26435">
        <ele>213.4</ele>
        <time>2024-07-23T09:57:17Z</time>
      </trkpt>
      <trkpt lat="44.65032" lon="1.26434">
        <ele>213.6</ele>
        <time>2024-07-23T09:57:18Z</time>
      </trkpt>
      <trkpt lat="44.65031" lon="1.26432">
        <ele>213.6</ele>
        <time>2024-07-23T09:57:19Z</time>
      </trkpt>
      <trkpt lat="44.65031" lon="1.2643">
        <ele>213.8</ele>
        <time>2024-07-23T09:57:20Z</time>
      </trkpt>
      <trkpt lat="44.65031" lon="1.26429">
        <ele>214</ele>
        <time>2024-07-23T09:57:21Z</time>
      </trkpt>
      <trkpt lat="44.6503" lon="1.26428">
        <ele>214.2</ele>
        <time>2024-07-23T09:57:22Z</time>
      </trkpt>
      <trkpt lat="44.6503" lon="1.26426">
        <ele>214.6</ele>
        <time>2024-07-23T09:57:23Z</time>
      </trkpt>
      <trkpt lat="44.6503" lon="1.26424">
        <ele>214.8</ele>
        <time>2024-07-23T09:57:24Z</time>
      </trkpt>
      <trkpt lat="44.65029" lon="1.26423">
        <ele>215.2</ele>
        <time>2024-07-23T09:57:25Z</time>
      </trkpt>
      <trkpt lat="44.65029" lon="1.26421">
        <ele>215.2</ele>
        <time>2024-07-23T09:57:26Z</time>
      </trkpt>
      <trkpt lat="44.65028" lon="1.26419">
        <ele>215.4</ele>
        <time>2024-07-23T09:57:27Z</time>
      </trkpt>
      <trkpt lat="44.65028" lon="1.26418">
        <ele>215.6</ele>
        <time>2024-07-23T09:57:28Z</time>
      </trkpt>
      <trkpt lat="44.65028" lon="1.26417">
        <ele>215.6</ele>
        <time>2024-07-23T09:57:29Z</time>
      </trkpt>
      <trkpt lat="44.65028" lon="1.26416">
        <ele>215.8</ele>
        <time>2024-07-23T09:57:30Z</time>
      </trkpt>
      <trkpt lat="44.65028" lon="1.26415">
        <ele>215.8</ele>
        <time>2024-07-23T09:57:31Z</time>
      </trkpt>
      <trkpt lat="44.65028" lon="1.26413">
        <ele>216</ele>
        <time>2024-07-23T09:57:32Z</time>
      </trkpt>
      <trkpt lat="44.65027" lon="1.26412">
        <ele>216.2</ele>
        <time>2024-07-23T09:57:33Z</time>
      </trkpt>
      <trkpt lat="44.65027" lon="1.2641">
        <ele>216.4</ele>
        <time>2024-07-23T09:57:34Z</time>
      </trkpt>
      <trkpt lat="44.65027" lon="1.26409">
        <ele>216.8</ele>
        <time>2024-07-23T09:57:35Z</time>
      </trkpt>
      <trkpt lat="44.65026" lon="1.26407">
        <ele>216.8</ele>
        <time>2024-07-23T09:57:36Z</time>
      </trkpt>
      <trkpt lat="44.65026" lon="1.26406">
        <ele>217</ele>
        <time>2024-07-23T09:57:37Z</time>
      </trkpt>
      <trkpt lat="44.65026" lon="1.26404">
        <ele>217.2</ele>
        <time>2024-07-23T09:57:38Z</time>
      </trkpt>
      <trkpt lat="44.65026" lon="1.26403">
        <ele>217.2</ele>
        <time>2024-07-23T09:57:39Z</time>
      </trkpt>
      <trkpt lat="44.65025" lon="1.26402">
        <ele>217.6</ele>
        <time>2024-07-23T09:57:40Z</time>
      </trkpt>
      <trkpt lat="44.65025" lon="1.264">
        <ele>217.6</ele>
        <time>2024-07-23T09:57:41Z</time>
      </trkpt>
      <trkpt lat="44.65024" lon="1.26399">
        <ele>217.8</ele>
        <time>2024-07-23T09:57:42Z</time>
      </trkpt>
      <trkpt lat="44.65024" lon="1.26397">
        <ele>217.8</ele>
        <time>2024-07-23T09:57:43Z</time>
      </trkpt>
      <trkpt lat="44.65024" lon="1.26396">
        <ele>218</ele>
        <time>2024-07-23T09:57:44Z</time>
      </trkpt>
      <trkpt lat="44.65023" lon="1.26394">
        <ele>218.2</ele>
        <time>2024-07-23T09:57:45Z</time>
      </trkpt>
      <trkpt lat="44.65023" lon="1.26392">
        <ele>218.4</ele>
        <time>2024-07-23T09:57:46Z</time>
      </trkpt>
      <trkpt lat="44.65022" lon="1.2639">
        <ele>218.8</ele>
        <time>2024-07-23T09:57:47Z</time>
      </trkpt>
      <trkpt lat="44.65022" lon="1.26389">
        <ele>218.8</ele>
        <time>2024-07-23T09:57:48Z</time>
      </trkpt>
      <trkpt lat="44.65021" lon="1.26388">
        <ele>219</ele>
        <time>2024-07-23T09:57:49Z</time>
      </trkpt>
      <trkpt lat="44.65021" lon="1.26386">
        <ele>219.2</ele>
        <time>2024-07-23T09:57:50Z</time>
      </trkpt>
      <trkpt lat="44.6502" lon="1.26385">
        <ele>219.6</ele>
        <time>2024-07-23T09:57:51Z</time>
      </trkpt>
      <trkpt lat="44.6502" lon="1.26383">
        <ele>219.4</ele>
        <time>2024-07-23T09:57:52Z</time>
      </trkpt>
      <trkpt lat="44.65019" lon="1.26382">
        <ele>219.8</ele>
        <time>2024-07-23T09:57:53Z</time>
      </trkpt>
      <trkpt lat="44.65019" lon="1.26381">
        <ele>219.8</ele>
        <time>2024-07-23T09:57:54Z</time>
      </trkpt>
      <trkpt lat="44.65018" lon="1.2638">
        <ele>220</ele>
        <time>2024-07-23T09:57:55Z</time>
      </trkpt>
      <trkpt lat="44.65017" lon="1.26379">
        <ele>220</ele>
        <time>2024-07-23T09:57:56Z</time>
      </trkpt>
      <trkpt lat="44.65016" lon="1.26378">
        <ele>220</ele>
        <time>2024-07-23T09:57:57Z</time>
      </trkpt>
      <trkpt lat="44.65016" lon="1.26377">
        <ele>220.4</ele>
        <time>2024-07-23T09:57:58Z</time>
      </trkpt>
      <trkpt lat="44.65015" lon="1.26376">
        <ele>220.6</ele>
        <time>2024-07-23T09:57:59Z</time>
      </trkpt>
      <trkpt lat="44.65014" lon="1.26375">
        <ele>220.8</ele>
        <time>2024-07-23T09:58:00Z</time>
      </trkpt>
      <trkpt lat="44.65013" lon="1.26373">
        <ele>221.2</ele>
        <time>2024-07-23T09:58:01Z</time>
      </trkpt>
      <trkpt lat="44.65013" lon="1.26372">
        <ele>221.4</ele>
        <time>2024-07-23T09:58:02Z</time>
      </trkpt>
      <trkpt lat="44.65012" lon="1.26371">
        <ele>221.6</ele>
        <time>2024-07-23T09:58:03Z</time>
      </trkpt>
      <trkpt lat="44.65011" lon="1.2637">
        <ele>222</ele>
        <time>2024-07-23T09:58:04Z</time>
      </trkpt>
      <trkpt lat="44.6501" lon="1.26369">
        <ele>222</ele>
        <time>2024-07-23T09:58:05Z</time>
      </trkpt>
      <trkpt lat="44.65009" lon="1.26368">
        <ele>222</ele>
        <time>2024-07-23T09:58:06Z</time>
      </trkpt>
      <trkpt lat="44.65009" lon="1.26367">
        <ele>222.2</ele>
        <time>2024-07-23T09:58:07Z</time>
      </trkpt>
      <trkpt lat="44.65008" lon="1.26366">
        <ele>222.4</ele>
        <time>2024-07-23T09:58:08Z</time>
      </trkpt>
      <trkpt lat="44.65007" lon="1.26366">
        <ele>222.6</ele>
        <time>2024-07-23T09:58:09Z</time>
      </trkpt>
      <trkpt lat="44.65006" lon="1.26365">
        <ele>222.8</ele>
        <time>2024-07-23T09:58:10Z</time>
      </trkpt>
      <trkpt lat="44.65005" lon="1.26365">
        <ele>223</ele>
        <time>2024-07-23T09:58:11Z</time>
      </trkpt>
      <trkpt lat="44.65004" lon="1.26364">
        <ele>223</ele>
        <time>2024-07-23T09:58:12Z</time>
      </trkpt>
      <trkpt lat="44.65003" lon="1.26363">
        <ele>223.4</ele>
        <time>2024-07-23T09:58:13Z</time>
      </trkpt>
      <trkpt lat="44.65001" lon="1.26362">
        <ele>223.8</ele>
        <time>2024-07-23T09:58:14Z</time>
      </trkpt>
      <trkpt lat="44.65" lon="1.26361">
        <ele>224.2</ele>
        <time>2024-07-23T09:58:15Z</time>
      </trkpt>
      <trkpt lat="44.64999" lon="1.2636">
        <ele>224.4</ele>
        <time>2024-07-23T09:58:16Z</time>
      </trkpt>
      <trkpt lat="44.64998" lon="1.2636">
        <ele>224.6</ele>
        <time>2024-07-23T09:58:17Z</time>
      </trkpt>
      <trkpt lat="44.64997" lon="1.26359">
        <ele>225</ele>
        <time>2024-07-23T09:58:18Z</time>
      </trkpt>
      <trkpt lat="44.64997" lon="1.26358">
        <ele>225.2</ele>
        <time>2024-07-23T09:58:19Z</time>
      </trkpt>
      <trkpt lat="44.64996" lon="1.26358">
        <ele>225.4</ele>
        <time>2024-07-23T09:58:20Z</time>
      </trkpt>
      <trkpt lat="44.64995" lon="1.26358">
        <ele>225.6</ele>
        <time>2024-07-23T09:58:21Z</time>
      </trkpt>
      <trkpt lat="44.64994" lon="1.26357">
        <ele>226</ele>
        <time>2024-07-23T09:58:22Z</time>
      </trkpt>
      <trkpt lat="44.64992" lon="1.26356">
        <ele>226.2</ele>
        <time>2024-07-23T09:58:23Z</time>
      </trkpt>
      <trkpt lat="44.64991" lon="1.26356">
        <ele>226.2</ele>
        <time>2024-07-23T09:58:24Z</time>
      </trkpt>
      <trkpt lat="44.6499" lon="1.26356">
        <ele>226.4</ele>
        <time>2024-07-23T09:58:25Z</time>
      </trkpt>
      <trkpt lat="44.6499" lon="1.26355">
        <ele>226.4</ele>
        <time>2024-07-23T09:58:26Z</time>
      </trkpt>
      <trkpt lat="44.64988" lon="1.26355">
        <ele>226.8</ele>
        <time>2024-07-23T09:58:27Z</time>
      </trkpt>
      <trkpt lat="44.64987" lon="1.26354">
        <ele>227</ele>
        <time>2024-07-23T09:58:28Z</time>
      </trkpt>
      <trkpt lat="44.64987" lon="1.26354">
        <ele>227.2</ele>
        <time>2024-07-23T09:58:29Z</time>
      </trkpt>
      <trkpt lat="44.64985" lon="1.26353">
        <ele>227.4</ele>
        <time>2024-07-23T09:58:30Z</time>
      </trkpt>
      <trkpt lat="44.64984" lon="1.26353">
        <ele>227.4</ele>
        <time>2024-07-23T09:58:31Z</time>
      </trkpt>
      <trkpt lat="44.64983" lon="1.26353">
        <ele>227.6</ele>
        <time>2024-07-23T09:58:32Z</time>
      </trkpt>
      <trkpt lat="44.64982" lon="1.26352">
        <ele>227.6</ele>
        <time>2024-07-23T09:58:33Z</time>
      </trkpt>
      <trkpt lat="44.6498" lon="1.26352">
        <ele>227.6</ele>
        <time>2024-07-23T09:58:34Z</time>
      </trkpt>
      <trkpt lat="44.64979" lon="1.26352">
        <ele>227.8</ele>
        <time>2024-07-23T09:58:35Z</time>
      </trkpt>
      <trkpt lat="44.64978" lon="1.26351">
        <ele>227.8</ele>
        <time>2024-07-23T09:58:36Z</time>
      </trkpt>
      <trkpt lat="44.64977" lon="1.26351">
        <ele>228</ele>
        <time>2024-07-23T09:58:37Z</time>
      </trkpt>
      <trkpt lat="44.64976" lon="1.26351">
        <ele>228</ele>
        <time>2024-07-23T09:58:38Z</time>
      </trkpt>
      <trkpt lat="44.64974" lon="1.26351">
        <ele>228.2</ele>
        <time>2024-07-23T09:58:39Z</time>
      </trkpt>
      <trkpt lat="44.64973" lon="1.2635">
        <ele>228.2</ele>
        <time>2024-07-23T09:58:40Z</time>
      </trkpt>
      <trkpt lat="44.64972" lon="1.2635">
        <ele>228.2</ele>
        <time>2024-07-23T09:58:41Z</time>
      </trkpt>
      <trkpt lat="44.64971" lon="1.2635">
        <ele>228.4</ele>
        <time>2024-07-23T09:58:42Z</time>
      </trkpt>
      <trkpt lat="44.64969" lon="1.2635">
        <ele>228.6</ele>
        <time>2024-07-23T09:58:43Z</time>
      </trkpt>
      <trkpt lat="44.64968" lon="1.2635">
        <ele>228.8</ele>
        <time>2024-07-23T09:58:44Z</time>
      </trkpt>
      <trkpt lat="44.64967" lon="1.2635">
        <ele>229</ele>
        <time>2024-07-23T09:58:45Z</time>
      </trkpt>
      <trkpt lat="44.64966" lon="1.2635">
        <ele>229.2</ele>
        <time>2024-07-23T09:58:46Z</time>
      </trkpt>
      <trkpt lat="44.64964" lon="1.2635">
        <ele>229.2</ele>
        <time>2024-07-23T09:58:47Z</time>
      </trkpt>
      <trkpt lat="44.64963" lon="1.2635">
        <ele>229.4</ele>
        <time>2024-07-23T09:58:48Z</time>
      </trkpt>
      <trkpt lat="44.64962" lon="1.2635">
        <ele>229.4</ele>
        <time>2024-07-23T09:58:49Z</time>
      </trkpt>
      <trkpt lat="44.64961" lon="1.2635">
        <ele>229.4</ele>
        <time>2024-07-23T09:58:50Z</time>
      </trkpt>
      <trkpt lat="44.64959" lon="1.2635">
        <ele>229.6</ele>
        <time>2024-07-23T09:58:51Z</time>
      </trkpt>
      <trkpt lat="44.64958" lon="1.26349">
        <ele>229.6</ele>
        <time>2024-07-23T09:58:52Z</time>
      </trkpt>
      <trkpt lat="44.64957" lon="1.26349">
        <ele>229.8</ele>
        <time>2024-07-23T09:58:53Z</time>
      </trkpt>
      <trkpt lat="44.64956" lon="1.26349">
        <ele>230</ele>
        <time>2024-07-23T09:58:54Z</time>
      </trkpt>
      <trkpt lat="44.64954" lon="1.26349">
        <ele>230</ele>
        <time>2024-07-23T09:58:55Z</time>
      </trkpt>
      <trkpt lat="44.64953" lon="1.26349">
        <ele>230.2</ele>
        <time>2024-07-23T09:58:56Z</time>
      </trkpt>
      <trkpt lat="44.64952" lon="1.26348">
        <ele>230.4</ele>
        <time>2024-07-23T09:58:57Z</time>
      </trkpt>
      <trkpt lat="44.64951" lon="1.26348">
        <ele>230.6</ele>
        <time>2024-07-23T09:58:58Z</time>
      </trkpt>
      <trkpt lat="44.64949" lon="1.26348">
        <ele>230.8</ele>
        <time>2024-07-23T09:58:59Z</time>
      </trkpt>
      <trkpt lat="44.64948" lon="1.26348">
        <ele>231</ele>
        <time>2024-07-23T09:59:00Z</time>
      </trkpt>
      <trkpt lat="44.64947" lon="1.26349">
        <ele>231.2</ele>
        <time>2024-07-23T09:59:01Z</time>
      </trkpt>
      <trkpt lat="44.64945" lon="1.26349">
        <ele>231.2</ele>
        <time>2024-07-23T09:59:02Z</time>
      </trkpt>
      <trkpt lat="44.64944" lon="1.26349">
        <ele>231.4</ele>
        <time>2024-07-23T09:59:03Z</time>
      </trkpt>
      <trkpt lat="44.64943" lon="1.26349">
        <ele>231.6</ele>
        <time>2024-07-23T09:59:04Z</time>
      </trkpt>
      <trkpt lat="44.64942" lon="1.26349">
        <ele>231.6</ele>
        <time>2024-07-23T09:59:05Z</time>
      </trkpt>
      <trkpt lat="44.6494" lon="1.26349">
        <ele>231.8</ele>
        <time>2024-07-23T09:59:06Z</time>
      </trkpt>
      <trkpt lat="44.64939" lon="1.26349">
        <ele>231.8</ele>
        <time>2024-07-23T09:59:07Z</time>
      </trkpt>
      <trkpt lat="44.64938" lon="1.26349">
        <ele>232</ele>
        <time>2024-07-23T09:59:08Z</time>
      </trkpt>
      <trkpt lat="44.64937" lon="1.26349">
        <ele>232</ele>
        <time>2024-07-23T09:59:09Z</time>
      </trkpt>
      <trkpt lat="44.64935" lon="1.26348">
        <ele>232.2</ele>
        <time>2024-07-23T09:59:10Z</time>
      </trkpt>
      <trkpt lat="44.64933" lon="1.26348">
        <ele>232.4</ele>
        <time>2024-07-23T09:59:11Z</time>
      </trkpt>
      <trkpt lat="44.64932" lon="1.26348">
        <ele>232.6</ele>
        <time>2024-07-23T09:59:12Z</time>
      </trkpt>
      <trkpt lat="44.64931" lon="1.26348">
        <ele>232.8</ele>
        <time>2024-07-23T09:59:13Z</time>
      </trkpt>
      <trkpt lat="44.64929" lon="1.26348">
        <ele>232.8</ele>
        <time>2024-07-23T09:59:14Z</time>
      </trkpt>
      <trkpt lat="44.64928" lon="1.26347">
        <ele>233</ele>
        <time>2024-07-23T09:59:15Z</time>
      </trkpt>
      <trkpt lat="44.64927" lon="1.26347">
        <ele>233</ele>
        <time>2024-07-23T09:59:16Z</time>
      </trkpt>
      <trkpt lat="44.64926" lon="1.26347">
        <ele>233.2</ele>
        <time>2024-07-23T09:59:17Z</time>
      </trkpt>
      <trkpt lat="44.64925" lon="1.26346">
        <ele>233.2</ele>
        <time>2024-07-23T09:59:18Z</time>
      </trkpt>
      <trkpt lat="44.64923" lon="1.26346">
        <ele>233.4</ele>
        <time>2024-07-23T09:59:19Z</time>
      </trkpt>
      <trkpt lat="44.64922" lon="1.26346">
        <ele>233.6</ele>
        <time>2024-07-23T09:59:20Z</time>
      </trkpt>
      <trkpt lat="44.64921" lon="1.26345">
        <ele>233.8</ele>
        <time>2024-07-23T09:59:21Z</time>
      </trkpt>
      <trkpt lat="44.6492" lon="1.26344">
        <ele>233.8</ele>
        <time>2024-07-23T09:59:22Z</time>
      </trkpt>
      <trkpt lat="44.64919" lon="1.26344">
        <ele>234</ele>
        <time>2024-07-23T09:59:23Z</time>
      </trkpt>
      <trkpt lat="44.64919" lon="1.26343">
        <ele>234.2</ele>
        <time>2024-07-23T09:59:24Z</time>
      </trkpt>
      <trkpt lat="44.64918" lon="1.26343">
        <ele>234.6</ele>
        <time>2024-07-23T09:59:25Z</time>
      </trkpt>
      <trkpt lat="44.64917" lon="1.26343">
        <ele>234.6</ele>
        <time>2024-07-23T09:59:26Z</time>
      </trkpt>
      <trkpt lat="44.64916" lon="1.26343">
        <ele>235</ele>
        <time>2024-07-23T09:59:27Z</time>
      </trkpt>
      <trkpt lat="44.64915" lon="1.26343">
        <ele>235.2</ele>
        <time>2024-07-23T09:59:28Z</time>
      </trkpt>
      <trkpt lat="44.64913" lon="1.26343">
        <ele>235.6</ele>
        <time>2024-07-23T09:59:29Z</time>
      </trkpt>
      <trkpt lat="44.64912" lon="1.26343">
        <ele>235.8</ele>
        <time>2024-07-23T09:59:30Z</time>
      </trkpt>
      <trkpt lat="44.64911" lon="1.26343">
        <ele>235.8</ele>
        <time>2024-07-23T09:59:31Z</time>
      </trkpt>
      <trkpt lat="44.6491" lon="1.26343">
        <ele>236</ele>
        <time>2024-07-23T09:59:32Z</time>
      </trkpt>
      <trkpt lat="44.64909" lon="1.26343">
        <ele>236</ele>
        <time>2024-07-23T09:59:33Z</time>
      </trkpt>
      <trkpt lat="44.64908" lon="1.26342">
        <ele>236.2</ele>
        <time>2024-07-23T09:59:34Z</time>
      </trkpt>
      <trkpt lat="44.64907" lon="1.26342">
        <ele>236.6</ele>
        <time>2024-07-23T09:59:35Z</time>
      </trkpt>
      <trkpt lat="44.64906" lon="1.26342">
        <ele>236.6</ele>
        <time>2024-07-23T09:59:36Z</time>
      </trkpt>
      <trkpt lat="44.64905" lon="1.26341">
        <ele>236.8</ele>
        <time>2024-07-23T09:59:37Z</time>
      </trkpt>
      <trkpt lat="44.64904" lon="1.26341">
        <ele>237</ele>
        <time>2024-07-23T09:59:38Z</time>
      </trkpt>
      <trkpt lat="44.64903" lon="1.2634">
        <ele>237.2</ele>
        <time>2024-07-23T09:59:39Z</time>
      </trkpt>
      <trkpt lat="44.64903" lon="1.2634">
        <ele>237.2</ele>
        <time>2024-07-23T09:59:40Z</time>
      </trkpt>
      <trkpt lat="44.64902" lon="1.26339">
        <ele>237.6</ele>
        <time>2024-07-23T09:59:41Z</time>
      </trkpt>
      <trkpt lat="44.64901" lon="1.26338">
        <ele>237.8</ele>
        <time>2024-07-23T09:59:42Z</time>
      </trkpt>
      <trkpt lat="44.649" lon="1.26338">
        <ele>238</ele>
        <time>2024-07-23T09:59:43Z</time>
      </trkpt>
      <trkpt lat="44.64899" lon="1.26337">
        <ele>238.4</ele>
        <time>2024-07-23T09:59:44Z</time>
      </trkpt>
      <trkpt lat="44.64899" lon="1.26337">
        <ele>238.4</ele>
        <time>2024-07-23T09:59:45Z</time>
      </trkpt>
      <trkpt lat="44.64898" lon="1.26336">
        <ele>238.8</ele>
        <time>2024-07-23T09:59:46Z</time>
      </trkpt>
      <trkpt lat="44.64897" lon="1.26335">
        <ele>239</ele>
        <time>2024-07-23T09:59:47Z</time>
      </trkpt>
      <trkpt lat="44.64896" lon="1.26334">
        <ele>239.2</ele>
        <time>2024-07-23T09:59:48Z</time>
      </trkpt>
      <trkpt lat="44.64895" lon="1.26333">
        <ele>239.6</ele>
        <time>2024-07-23T09:59:49Z</time>
      </trkpt>
      <trkpt lat="44.64894" lon="1.26333">
        <ele>239.8</ele>
        <time>2024-07-23T09:59:50Z</time>
      </trkpt>
      <trkpt lat="44.64893" lon="1.26332">
        <ele>240.2</ele>
        <time>2024-07-23T09:59:51Z</time>
      </trkpt>
      <trkpt lat="44.64892" lon="1.26331">
        <ele>240.4</ele>
        <time>2024-07-23T09:59:52Z</time>
      </trkpt>
      <trkpt lat="44.64891" lon="1.2633">
        <ele>240.6</ele>
        <time>2024-07-23T09:59:53Z</time>
      </trkpt>
      <trkpt lat="44.64888" lon="1.26329">
        <ele>240.8</ele>
        <time>2024-07-23T09:59:54Z</time>
      </trkpt>
      <trkpt lat="44.64887" lon="1.26328">
        <ele>241</ele>
        <time>2024-07-23T09:59:55Z</time>
      </trkpt>
      <trkpt lat="44.64886" lon="1.26327">
        <ele>241.2</ele>
        <time>2024-07-23T09:59:56Z</time>
      </trkpt>
      <trkpt lat="44.64885" lon="1.26326">
        <ele>241.4</ele>
        <time>2024-07-23T09:59:57Z</time>
      </trkpt>
      <trkpt lat="44.64884" lon="1.26325">
        <ele>241.6</ele>
        <time>2024-07-23T09:59:58Z</time>
      </trkpt>
      <trkpt lat="44.64883" lon="1.26324">
        <ele>241.8</ele>
        <time>2024-07-23T09:59:59Z</time>
      </trkpt>
      <trkpt lat="44.64882" lon="1.26323">
        <ele>242</ele>
        <time>2024-07-23T10:00:00Z</time>
      </trkpt>
      <trkpt lat="44.6488" lon="1.26323">
        <ele>242.2</ele>
        <time>2024-07-23T10:00:01Z</time>
      </trkpt>
      <trkpt lat="44.64879" lon="1.26322">
        <ele>242.4</ele>
        <time>2024-07-23T10:00:02Z</time>
      </trkpt>
      <trkpt lat="44.64878" lon="1.26321">
        <ele>242.8</ele>
        <time>2024-07-23T10:00:03Z</time>
      </trkpt>
      <trkpt lat="44.64877" lon="1.2632">
        <ele>242.8</ele>
        <time>2024-07-23T10:00:04Z</time>
      </trkpt>
      <trkpt lat="44.64876" lon="1.26319">
        <ele>243.2</ele>
        <time>2024-07-23T10:00:05Z</time>
      </trkpt>
      <trkpt lat="44.64875" lon="1.26318">
        <ele>243.4</ele>
        <time>2024-07-23T10:00:06Z</time>
      </trkpt>
      <trkpt lat="44.64874" lon="1.26317">
        <ele>243.4</ele>
        <time>2024-07-23T10:00:07Z</time>
      </trkpt>
      <trkpt lat="44.64872" lon="1.26317">
        <ele>243.6</ele>
        <time>2024-07-23T10:00:08Z</time>
      </trkpt>
      <trkpt lat="44.64871" lon="1.26316">
        <ele>243.8</ele>
        <time>2024-07-23T10:00:09Z</time>
      </trkpt>
      <trkpt lat="44.6487" lon="1.26315">
        <ele>244.2</ele>
        <time>2024-07-23T10:00:10Z</time>
      </trkpt>
      <trkpt lat="44.64869" lon="1.26315">
        <ele>244.4</ele>
        <time>2024-07-23T10:00:11Z</time>
      </trkpt>
      <trkpt lat="44.64867" lon="1.26314">
        <ele>244.4</ele>
        <time>2024-07-23T10:00:12Z</time>
      </trkpt>
      <trkpt lat="44.64866" lon="1.26313">
        <ele>244.6</ele>
        <time>2024-07-23T10:00:13Z</time>
      </trkpt>
      <trkpt lat="44.64864" lon="1.26312">
        <ele>244.6</ele>
        <time>2024-07-23T10:00:14Z</time>
      </trkpt>
      <trkpt lat="44.64863" lon="1.26311">
        <ele>244.8</ele>
        <time>2024-07-23T10:00:15Z</time>
      </trkpt>
      <trkpt lat="44.64862" lon="1.26311">
        <ele>244.8</ele>
        <time>2024-07-23T10:00:16Z</time>
      </trkpt>
      <trkpt lat="44.64861" lon="1.2631">
        <ele>245.2</ele>
        <time>2024-07-23T10:00:17Z</time>
      </trkpt>
      <trkpt lat="44.64859" lon="1.26309">
        <ele>245.2</ele>
        <time>2024-07-23T10:00:18Z</time>
      </trkpt>
      <trkpt lat="44.64858" lon="1.26308">
        <ele>245</ele>
        <time>2024-07-23T10:00:19Z</time>
      </trkpt>
      <trkpt lat="44.64856" lon="1.26307">
        <ele>245.4</ele>
        <time>2024-07-23T10:00:20Z</time>
      </trkpt>
      <trkpt lat="44.64855" lon="1.26305">
        <ele>245.4</ele>
        <time>2024-07-23T10:00:21Z</time>
      </trkpt>
      <trkpt lat="44.64853" lon="1.26304">
        <ele>245.4</ele>
        <time>2024-07-23T10:00:22Z</time>
      </trkpt>
      <trkpt lat="44.64852" lon="1.26303">
        <ele>245.8</ele>
        <time>2024-07-23T10:00:23Z</time>
      </trkpt>
      <trkpt lat="44.64851" lon="1.26302">
        <ele>245.8</ele>
        <time>2024-07-23T10:00:24Z</time>
      </trkpt>
      <trkpt lat="44.64849" lon="1.26301">
        <ele>246</ele>
        <time>2024-07-23T10:00:25Z</time>
      </trkpt>
      <trkpt lat="44.64848" lon="1.263">
        <ele>246.2</ele>
        <time>2024-07-23T10:00:26Z</time>
      </trkpt>
      <trkpt lat="44.64846" lon="1.26299">
        <ele>246.2</ele>
        <time>2024-07-23T10:00:27Z</time>
      </trkpt>
      <trkpt lat="44.64845" lon="1.26298">
        <ele>246.2</ele>
        <time>2024-07-23T10:00:28Z</time>
      </trkpt>
      <trkpt lat="44.64843" lon="1.26297">
        <ele>246.4</ele>
        <time>2024-07-23T10:00:29Z</time>
      </trkpt>
      <trkpt lat="44.64841" lon="1.26295">
        <ele>246.6</ele>
        <time>2024-07-23T10:00:30Z</time>
      </trkpt>
      <trkpt lat="44.64839" lon="1.26294">
        <ele>246.6</ele>
        <time>2024-07-23T10:00:31Z</time>
      </trkpt>
      <trkpt lat="44.64837" lon="1.26292">
        <ele>246.6</ele>
        <time>2024-07-23T10:00:32Z</time>
      </trkpt>
      <trkpt lat="44.64835" lon="1.2629">
        <ele>246.8</ele>
        <time>2024-07-23T10:00:33Z</time>
      </trkpt>
      <trkpt lat="44.64833" lon="1.26289">
        <ele>246.8</ele>
        <time>2024-07-23T10:00:34Z</time>
      </trkpt>
      <trkpt lat="44.64831" lon="1.26287">
        <ele>246.8</ele>
        <time>2024-07-23T10:00:35Z</time>
      </trkpt>
      <trkpt lat="44.6483" lon="1.26285">
        <ele>246.8</ele>
        <time>2024-07-23T10:00:36Z</time>
      </trkpt>
      <trkpt lat="44.64828" lon="1.26284">
        <ele>246.8</ele>
        <time>2024-07-23T10:00:37Z</time>
      </trkpt>
      <trkpt lat="44.64826" lon="1.26282">
        <ele>247</ele>
        <time>2024-07-23T10:00:38Z</time>
      </trkpt>
      <trkpt lat="44.64824" lon="1.2628">
        <ele>247</ele>
        <time>2024-07-23T10:00:39Z</time>
      </trkpt>
      <trkpt lat="44.64822" lon="1.26278">
        <ele>247</ele>
        <time>2024-07-23T10:00:40Z</time>
      </trkpt>
      <trkpt lat="44.6482" lon="1.26276">
        <ele>247.2</ele>
        <time>2024-07-23T10:00:41Z</time>
      </trkpt>
      <trkpt lat="44.64817" lon="1.26275">
        <ele>247.2</ele>
        <time>2024-07-23T10:00:42Z</time>
      </trkpt>
      <trkpt lat="44.64815" lon="1.26273">
        <ele>247.2</ele>
        <time>2024-07-23T10:00:43Z</time>
      </trkpt>
      <trkpt lat="44.64792" lon="1.26259">
        <ele>247.4</ele>
        <time>2024-07-23T10:00:52Z</time>
      </trkpt>
      <trkpt lat="44.64771" lon="1.26244">
        <ele>247.8</ele>
        <time>2024-07-23T10:01:00Z</time>
      </trkpt>
      <trkpt lat="44.64756" lon="1.26235">
        <ele>248.4</ele>
        <time>2024-07-23T10:01:05Z</time>
      </trkpt>
      <trkpt lat="44.64751" lon="1.26232">
        <ele>248.6</ele>
        <time>2024-07-23T10:01:07Z</time>
      </trkpt>
      <trkpt lat="44.64749" lon="1.26231">
        <ele>248.6</ele>
        <time>2024-07-23T10:01:08Z</time>
      </trkpt>
      <trkpt lat="44.64748" lon="1.26229">
        <ele>248.6</ele>
        <time>2024-07-23T10:01:09Z</time>
      </trkpt>
      <trkpt lat="44.64746" lon="1.26228">
        <ele>248.8</ele>
        <time>2024-07-23T10:01:10Z</time>
      </trkpt>
      <trkpt lat="44.64742" lon="1.26226">
        <ele>249</ele>
        <time>2024-07-23T10:01:11Z</time>
      </trkpt>
      <trkpt lat="44.64737" lon="1.26224">
        <ele>249.4</ele>
        <time>2024-07-23T10:01:13Z</time>
      </trkpt>
      <trkpt lat="44.64735" lon="1.26222">
        <ele>249.6</ele>
        <time>2024-07-23T10:01:14Z</time>
      </trkpt>
      <trkpt lat="44.64733" lon="1.2622">
        <ele>249.8</ele>
        <time>2024-07-23T10:01:15Z</time>
      </trkpt>
      <trkpt lat="44.64731" lon="1.26219">
        <ele>250</ele>
        <time>2024-07-23T10:01:16Z</time>
      </trkpt>
      <trkpt lat="44.64729" lon="1.26218">
        <ele>250.2</ele>
        <time>2024-07-23T10:01:17Z</time>
      </trkpt>
      <trkpt lat="44.64728" lon="1.26217">
        <ele>250.2</ele>
        <time>2024-07-23T10:01:18Z</time>
      </trkpt>
      <trkpt lat="44.64726" lon="1.26215">
        <ele>250.4</ele>
        <time>2024-07-23T10:01:19Z</time>
      </trkpt>
      <trkpt lat="44.64724" lon="1.26214">
        <ele>251</ele>
        <time>2024-07-23T10:01:20Z</time>
      </trkpt>
      <trkpt lat="44.64723" lon="1.26213">
        <ele>251.2</ele>
        <time>2024-07-23T10:01:21Z</time>
      </trkpt>
      <trkpt lat="44.64721" lon="1.26212">
        <ele>251.4</ele>
        <time>2024-07-23T10:01:22Z</time>
      </trkpt>
      <trkpt lat="44.64719" lon="1.26211">
        <ele>251.6</ele>
        <time>2024-07-23T10:01:23Z</time>
      </trkpt>
      <trkpt lat="44.64717" lon="1.26209">
        <ele>251.8</ele>
        <time>2024-07-23T10:01:24Z</time>
      </trkpt>
      <trkpt lat="44.64716" lon="1.26208">
        <ele>252</ele>
        <time>2024-07-23T10:01:25Z</time>
      </trkpt>
      <trkpt lat="44.64714" lon="1.26207">
        <ele>252.2</ele>
        <time>2024-07-23T10:01:26Z</time>
      </trkpt>
      <trkpt lat="44.64712" lon="1.26206">
        <ele>252.2</ele>
        <time>2024-07-23T10:01:27Z</time>
      </trkpt>
      <trkpt lat="44.64711" lon="1.26204">
        <ele>252.6</ele>
        <time>2024-07-23T10:01:28Z</time>
      </trkpt>
      <trkpt lat="44.64709" lon="1.26203">
        <ele>253</ele>
        <time>2024-07-23T10:01:29Z</time>
      </trkpt>
      <trkpt lat="44.64707" lon="1.26202">
        <ele>253.2</ele>
        <time>2024-07-23T10:01:30Z</time>
      </trkpt>
      <trkpt lat="44.64706" lon="1.26201">
        <ele>253.4</ele>
        <time>2024-07-23T10:01:31Z</time>
      </trkpt>
      <trkpt lat="44.64704" lon="1.262">
        <ele>253.4</ele>
        <time>2024-07-23T10:01:32Z</time>
      </trkpt>
      <trkpt lat="44.64703" lon="1.26199">
        <ele>253.6</ele>
        <time>2024-07-23T10:01:33Z</time>
      </trkpt>
      <trkpt lat="44.64701" lon="1.26199">
        <ele>253.8</ele>
        <time>2024-07-23T10:01:34Z</time>
      </trkpt>
      <trkpt lat="44.647" lon="1.26198">
        <ele>254</ele>
        <time>2024-07-23T10:01:35Z</time>
      </trkpt>
      <trkpt lat="44.64698" lon="1.26197">
        <ele>254</ele>
        <time>2024-07-23T10:01:36Z</time>
      </trkpt>
      <trkpt lat="44.64697" lon="1.26197">
        <ele>254.2</ele>
        <time>2024-07-23T10:01:37Z</time>
      </trkpt>
      <trkpt lat="44.64696" lon="1.26196">
        <ele>254.4</ele>
        <time>2024-07-23T10:01:38Z</time>
      </trkpt>
      <trkpt lat="44.64694" lon="1.26195">
        <ele>254.6</ele>
        <time>2024-07-23T10:01:39Z</time>
      </trkpt>
      <trkpt lat="44.64693" lon="1.26194">
        <ele>254.8</ele>
        <time>2024-07-23T10:01:40Z</time>
      </trkpt>
      <trkpt lat="44.64691" lon="1.26193">
        <ele>254.8</ele>
        <time>2024-07-23T10:01:41Z</time>
      </trkpt>
      <trkpt lat="44.6469" lon="1.26192">
        <ele>255</ele>
        <time>2024-07-23T10:01:42Z</time>
      </trkpt>
      <trkpt lat="44.64688" lon="1.26191">
        <ele>255</ele>
        <time>2024-07-23T10:01:43Z</time>
      </trkpt>
      <trkpt lat="44.64687" lon="1.26191">
        <ele>255.4</ele>
        <time>2024-07-23T10:01:44Z</time>
      </trkpt>
      <trkpt lat="44.64685" lon="1.2619">
        <ele>255.4</ele>
        <time>2024-07-23T10:01:45Z</time>
      </trkpt>
      <trkpt lat="44.64684" lon="1.26189">
        <ele>255.6</ele>
        <time>2024-07-23T10:01:46Z</time>
      </trkpt>
      <trkpt lat="44.64683" lon="1.26188">
        <ele>256</ele>
        <time>2024-07-23T10:01:47Z</time>
      </trkpt>
      <trkpt lat="44.64681" lon="1.26187">
        <ele>256</ele>
        <time>2024-07-23T10:01:48Z</time>
      </trkpt>
      <trkpt lat="44.6468" lon="1.26186">
        <ele>256.2</ele>
        <time>2024-07-23T10:01:49Z</time>
      </trkpt>
      <trkpt lat="44.64679" lon="1.26185">
        <ele>256.4</ele>
        <time>2024-07-23T10:01:50Z</time>
      </trkpt>
      <trkpt lat="44.64677" lon="1.26184">
        <ele>256.4</ele>
        <time>2024-07-23T10:01:51Z</time>
      </trkpt>
      <trkpt lat="44.64676" lon="1.26183">
        <ele>256.6</ele>
        <time>2024-07-23T10:01:52Z</time>
      </trkpt>
      <trkpt lat="44.64675" lon="1.26182">
        <ele>256.8</ele>
        <time>2024-07-23T10:01:53Z</time>
      </trkpt>
      <trkpt lat="44.64673" lon="1.26181">
        <ele>257</ele>
        <time>2024-07-23T10:01:54Z</time>
      </trkpt>
      <trkpt lat="44.64672" lon="1.2618">
        <ele>257</ele>
        <time>2024-07-23T10:01:55Z</time>
      </trkpt>
      <trkpt lat="44.64671" lon="1.26179">
        <ele>257.2</ele>
        <time>2024-07-23T10:01:56Z</time>
      </trkpt>
      <trkpt lat="44.6467" lon="1.26178">
        <ele>257.4</ele>
        <time>2024-07-23T10:01:57Z</time>
      </trkpt>
      <trkpt lat="44.64669" lon="1.26177">
        <ele>257.6</ele>
        <time>2024-07-23T10:01:58Z</time>
      </trkpt>
      <trkpt lat="44.64667" lon="1.26176">
        <ele>258</ele>
        <time>2024-07-23T10:01:59Z</time>
      </trkpt>
      <trkpt lat="44.64666" lon="1.26176">
        <ele>258.2</ele>
        <time>2024-07-23T10:02:00Z</time>
      </trkpt>
      <trkpt lat="44.64665" lon="1.26175">
        <ele>258.2</ele>
        <time>2024-07-23T10:02:01Z</time>
      </trkpt>
      <trkpt lat="44.64664" lon="1.26174">
        <ele>258.4</ele>
        <time>2024-07-23T10:02:02Z</time>
      </trkpt>
      <trkpt lat="44.64662" lon="1.26173">
        <ele>258.4</ele>
        <time>2024-07-23T10:02:03Z</time>
      </trkpt>
      <trkpt lat="44.64661" lon="1.26173">
        <ele>258.6</ele>
        <time>2024-07-23T10:02:04Z</time>
      </trkpt>
      <trkpt lat="44.6466" lon="1.26172">
        <ele>258.8</ele>
        <time>2024-07-23T10:02:05Z</time>
      </trkpt>
      <trkpt lat="44.64658" lon="1.26171">
        <ele>259</ele>
        <time>2024-07-23T10:02:06Z</time>
      </trkpt>
      <trkpt lat="44.64657" lon="1.2617">
        <ele>259.2</ele>
        <time>2024-07-23T10:02:07Z</time>
      </trkpt>
      <trkpt lat="44.64655" lon="1.26169">
        <ele>259.4</ele>
        <time>2024-07-23T10:02:08Z</time>
      </trkpt>
      <trkpt lat="44.64654" lon="1.26168">
        <ele>259.4</ele>
        <time>2024-07-23T10:02:09Z</time>
      </trkpt>
      <trkpt lat="44.64652" lon="1.26167">
        <ele>259.6</ele>
        <time>2024-07-23T10:02:10Z</time>
      </trkpt>
      <trkpt lat="44.64651" lon="1.26165">
        <ele>259.6</ele>
        <time>2024-07-23T10:02:11Z</time>
      </trkpt>
      <trkpt lat="44.64649" lon="1.26164">
        <ele>259.8</ele>
        <time>2024-07-23T10:02:12Z</time>
      </trkpt>
      <trkpt lat="44.64648" lon="1.26163">
        <ele>259.8</ele>
        <time>2024-07-23T10:02:13Z</time>
      </trkpt>
      <trkpt lat="44.64646" lon="1.26162">
        <ele>260</ele>
        <time>2024-07-23T10:02:14Z</time>
      </trkpt>
      <trkpt lat="44.64644" lon="1.26161">
        <ele>260.2</ele>
        <time>2024-07-23T10:02:15Z</time>
      </trkpt>
      <trkpt lat="44.64643" lon="1.2616">
        <ele>260.2</ele>
        <time>2024-07-23T10:02:16Z</time>
      </trkpt>
      <trkpt lat="44.64641" lon="1.26159">
        <ele>260.2</ele>
        <time>2024-07-23T10:02:17Z</time>
      </trkpt>
      <trkpt lat="44.64639" lon="1.26158">
        <ele>260.4</ele>
        <time>2024-07-23T10:02:18Z</time>
      </trkpt>
      <trkpt lat="44.64638" lon="1.26157">
        <ele>260.4</ele>
        <time>2024-07-23T10:02:19Z</time>
      </trkpt>
      <trkpt lat="44.64636" lon="1.26156">
        <ele>260.4</ele>
        <time>2024-07-23T10:02:20Z</time>
      </trkpt>
      <trkpt lat="44.64635" lon="1.26155">
        <ele>260.6</ele>
        <time>2024-07-23T10:02:21Z</time>
      </trkpt>
      <trkpt lat="44.64634" lon="1.26154">
        <ele>260.6</ele>
        <time>2024-07-23T10:02:22Z</time>
      </trkpt>
      <trkpt lat="44.64632" lon="1.26153">
        <ele>260.8</ele>
        <time>2024-07-23T10:02:23Z</time>
      </trkpt>
      <trkpt lat="44.64631" lon="1.26152">
        <ele>260.8</ele>
        <time>2024-07-23T10:02:24Z</time>
      </trkpt>
      <trkpt lat="44.6463" lon="1.26151">
        <ele>261</ele>
        <time>2024-07-23T10:02:25Z</time>
      </trkpt>
      <trkpt lat="44.64628" lon="1.26151">
        <ele>261.2</ele>
        <time>2024-07-23T10:02:26Z</time>
      </trkpt>
      <trkpt lat="44.64627" lon="1.2615">
        <ele>261.4</ele>
        <time>2024-07-23T10:02:27Z</time>
      </trkpt>
      <trkpt lat="44.64626" lon="1.2615">
        <ele>261.6</ele>
        <time>2024-07-23T10:02:28Z</time>
      </trkpt>
      <trkpt lat="44.64625" lon="1.2615">
        <ele>261.6</ele>
        <time>2024-07-23T10:02:29Z</time>
      </trkpt>
      <trkpt lat="44.64624" lon="1.2615">
        <ele>262</ele>
        <time>2024-07-23T10:02:30Z</time>
      </trkpt>
      <trkpt lat="44.64622" lon="1.2615">
        <ele>262</ele>
        <time>2024-07-23T10:02:31Z</time>
      </trkpt>
      <trkpt lat="44.64621" lon="1.2615">
        <ele>262.2</ele>
        <time>2024-07-23T10:02:32Z</time>
      </trkpt>
      <trkpt lat="44.6462" lon="1.26149">
        <ele>262.4</ele>
        <time>2024-07-23T10:02:33Z</time>
      </trkpt>
      <trkpt lat="44.6462" lon="1.26149">
        <ele>262.8</ele>
        <time>2024-07-23T10:02:35Z</time>
      </trkpt>
      <trkpt lat="44.64619" lon="1.26145">
        <ele>264</ele>
        <time>2024-07-23T10:03:36Z</time>
      </trkpt>
      <trkpt lat="44.64618" lon="1.26142">
        <ele>264</ele>
        <time>2024-07-23T10:03:37Z</time>
      </trkpt>
      <trkpt lat="44.64617" lon="1.2614">
        <ele>264</ele>
        <time>2024-07-23T10:03:38Z</time>
      </trkpt>
      <trkpt lat="44.6461" lon="1.26126">
        <ele>264.2</ele>
        <time>2024-07-23T10:03:45Z</time>
      </trkpt>
      <trkpt lat="44.64602" lon="1.26113">
        <ele>264.8</ele>
        <time>2024-07-23T10:03:52Z</time>
      </trkpt>
      <trkpt lat="44.646" lon="1.2611">
        <ele>265</ele>
        <time>2024-07-23T10:03:54Z</time>
      </trkpt>
      <trkpt lat="44.64597" lon="1.26102">
        <ele>265.4</ele>
        <time>2024-07-23T10:03:58Z</time>
      </trkpt>
      <trkpt lat="44.64596" lon="1.26101">
        <ele>265.6</ele>
        <time>2024-07-23T10:03:59Z</time>
      </trkpt>
      <trkpt lat="44.64594" lon="1.26099">
        <ele>265.6</ele>
        <time>2024-07-23T10:04:00Z</time>
      </trkpt>
      <trkpt lat="44.64593" lon="1.26097">
        <ele>265.8</ele>
        <time>2024-07-23T10:04:01Z</time>
      </trkpt>
      <trkpt lat="44.6459" lon="1.26092">
        <ele>266.2</ele>
        <time>2024-07-23T10:04:04Z</time>
      </trkpt>
      <trkpt lat="44.64589" lon="1.2609">
        <ele>266.2</ele>
        <time>2024-07-23T10:04:05Z</time>
      </trkpt>
      <trkpt lat="44.64583" lon="1.2608">
        <ele>267</ele>
        <time>2024-07-23T10:04:11Z</time>
      </trkpt>
      <trkpt lat="44.64582" lon="1.26078">
        <ele>267.2</ele>
        <time>2024-07-23T10:04:12Z</time>
      </trkpt>
      <trkpt lat="44.64581" lon="1.26077">
        <ele>267.4</ele>
        <time>2024-07-23T10:04:13Z</time>
      </trkpt>
      <trkpt lat="44.64579" lon="1.26073">
        <ele>267.6</ele>
        <time>2024-07-23T10:04:15Z</time>
      </trkpt>
      <trkpt lat="44.64578" lon="1.26072">
        <ele>267.6</ele>
        <time>2024-07-23T10:04:16Z</time>
      </trkpt>
      <trkpt lat="44.64577" lon="1.2607">
        <ele>267.8</ele>
        <time>2024-07-23T10:04:17Z</time>
      </trkpt>
      <trkpt lat="44.64577" lon="1.26068">
        <ele>267.8</ele>
        <time>2024-07-23T10:04:18Z</time>
      </trkpt>
      <trkpt lat="44.64576" lon="1.26066">
        <ele>268</ele>
        <time>2024-07-23T10:04:19Z</time>
      </trkpt>
      <trkpt lat="44.64575" lon="1.26064">
        <ele>268.2</ele>
        <time>2024-07-23T10:04:20Z</time>
      </trkpt>
      <trkpt lat="44.64574" lon="1.26061">
        <ele>268.2</ele>
        <time>2024-07-23T10:04:21Z</time>
      </trkpt>
      <trkpt lat="44.64574" lon="1.26059">
        <ele>268.4</ele>
        <time>2024-07-23T10:04:22Z</time>
      </trkpt>
      <trkpt lat="44.64573" lon="1.26057">
        <ele>268.4</ele>
        <time>2024-07-23T10:04:23Z</time>
      </trkpt>
      <trkpt lat="44.64573" lon="1.26055">
        <ele>268.6</ele>
        <time>2024-07-23T10:04:24Z</time>
      </trkpt>
      <trkpt lat="44.64572" lon="1.26053">
        <ele>268.6</ele>
        <time>2024-07-23T10:04:25Z</time>
      </trkpt>
      <trkpt lat="44.64572" lon="1.26051">
        <ele>268.6</ele>
        <time>2024-07-23T10:04:26Z</time>
      </trkpt>
      <trkpt lat="44.64571" lon="1.26049">
        <ele>268.8</ele>
        <time>2024-07-23T10:04:27Z</time>
      </trkpt>
      <trkpt lat="44.64571" lon="1.26047">
        <ele>269</ele>
        <time>2024-07-23T10:04:28Z</time>
      </trkpt>
      <trkpt lat="44.64571" lon="1.26045">
        <ele>269</ele>
        <time>2024-07-23T10:04:29Z</time>
      </trkpt>
      <trkpt lat="44.6457" lon="1.26042">
        <ele>269.2</ele>
        <time>2024-07-23T10:04:30Z</time>
      </trkpt>
      <trkpt lat="44.6457" lon="1.2604">
        <ele>269.6</ele>
        <time>2024-07-23T10:04:31Z</time>
      </trkpt>
      <trkpt lat="44.6457" lon="1.26038">
        <ele>269.6</ele>
        <time>2024-07-23T10:04:32Z</time>
      </trkpt>
      <trkpt lat="44.6457" lon="1.26036">
        <ele>269.8</ele>
        <time>2024-07-23T10:04:33Z</time>
      </trkpt>
      <trkpt lat="44.64569" lon="1.26033">
        <ele>270</ele>
        <time>2024-07-23T10:04:34Z</time>
      </trkpt>
      <trkpt lat="44.64569" lon="1.26031">
        <ele>270.2</ele>
        <time>2024-07-23T10:04:35Z</time>
      </trkpt>
      <trkpt lat="44.64569" lon="1.26029">
        <ele>270.4</ele>
        <time>2024-07-23T10:04:36Z</time>
      </trkpt>
      <trkpt lat="44.64569" lon="1.26027">
        <ele>270.6</ele>
        <time>2024-07-23T10:04:37Z</time>
      </trkpt>
      <trkpt lat="44.64569" lon="1.26024">
        <ele>270.8</ele>
        <time>2024-07-23T10:04:38Z</time>
      </trkpt>
      <trkpt lat="44.64568" lon="1.26022">
        <ele>271</ele>
        <time>2024-07-23T10:04:39Z</time>
      </trkpt>
      <trkpt lat="44.64568" lon="1.2602">
        <ele>271.4</ele>
        <time>2024-07-23T10:04:40Z</time>
      </trkpt>
      <trkpt lat="44.64567" lon="1.26018">
        <ele>271.8</ele>
        <time>2024-07-23T10:04:41Z</time>
      </trkpt>
      <trkpt lat="44.64566" lon="1.26015">
        <ele>271.8</ele>
        <time>2024-07-23T10:04:42Z</time>
      </trkpt>
      <trkpt lat="44.64566" lon="1.26012">
        <ele>272</ele>
        <time>2024-07-23T10:04:43Z</time>
      </trkpt>
      <trkpt lat="44.64565" lon="1.26009">
        <ele>272</ele>
        <time>2024-07-23T10:04:44Z</time>
      </trkpt>
      <trkpt lat="44.64564" lon="1.26007">
        <ele>272.2</ele>
        <time>2024-07-23T10:04:45Z</time>
      </trkpt>
      <trkpt lat="44.64562" lon="1.26004">
        <ele>272.2</ele>
        <time>2024-07-23T10:04:46Z</time>
      </trkpt>
      <trkpt lat="44.64561" lon="1.26001">
        <ele>272.2</ele>
        <time>2024-07-23T10:04:47Z</time>
      </trkpt>
      <trkpt lat="44.6456" lon="1.25999">
        <ele>272.4</ele>
        <time>2024-07-23T10:04:48Z</time>
      </trkpt>
      <trkpt lat="44.64559" lon="1.25996">
        <ele>272.4</ele>
        <time>2024-07-23T10:04:49Z</time>
      </trkpt>
      <trkpt lat="44.64558" lon="1.25994">
        <ele>272.4</ele>
        <time>2024-07-23T10:04:50Z</time>
      </trkpt>
      <trkpt lat="44.64557" lon="1.25992">
        <ele>272.6</ele>
        <time>2024-07-23T10:04:51Z</time>
      </trkpt>
      <trkpt lat="44.64556" lon="1.2599">
        <ele>272.6</ele>
        <time>2024-07-23T10:04:52Z</time>
      </trkpt>
      <trkpt lat="44.64555" lon="1.25988">
        <ele>272.8</ele>
        <time>2024-07-23T10:04:53Z</time>
      </trkpt>
      <trkpt lat="44.64554" lon="1.25986">
        <ele>273</ele>
        <time>2024-07-23T10:04:54Z</time>
      </trkpt>
      <trkpt lat="44.64552" lon="1.25984">
        <ele>273</ele>
        <time>2024-07-23T10:04:55Z</time>
      </trkpt>
      <trkpt lat="44.64551" lon="1.25982">
        <ele>273.2</ele>
        <time>2024-07-23T10:04:56Z</time>
      </trkpt>
      <trkpt lat="44.64549" lon="1.2598">
        <ele>273.6</ele>
        <time>2024-07-23T10:04:57Z</time>
      </trkpt>
      <trkpt lat="44.64548" lon="1.25977">
        <ele>273.8</ele>
        <time>2024-07-23T10:04:58Z</time>
      </trkpt>
      <trkpt lat="44.64546" lon="1.25975">
        <ele>273.8</ele>
        <time>2024-07-23T10:04:59Z</time>
      </trkpt>
      <trkpt lat="44.64545" lon="1.25973">
        <ele>274</ele>
        <time>2024-07-23T10:05:00Z</time>
      </trkpt>
      <trkpt lat="44.64543" lon="1.25971">
        <ele>274</ele>
        <time>2024-07-23T10:05:01Z</time>
      </trkpt>
      <trkpt lat="44.64541" lon="1.25969">
        <ele>274.4</ele>
        <time>2024-07-23T10:05:02Z</time>
      </trkpt>
      <trkpt lat="44.64539" lon="1.25967">
        <ele>274.4</ele>
        <time>2024-07-23T10:05:03Z</time>
      </trkpt>
      <trkpt lat="44.64538" lon="1.25965">
        <ele>274.6</ele>
        <time>2024-07-23T10:05:04Z</time>
      </trkpt>
      <trkpt lat="44.64536" lon="1.25963">
        <ele>274.8</ele>
        <time>2024-07-23T10:05:05Z</time>
      </trkpt>
      <trkpt lat="44.64534" lon="1.25961">
        <ele>274.8</ele>
        <time>2024-07-23T10:05:06Z</time>
      </trkpt>
      <trkpt lat="44.64532" lon="1.25959">
        <ele>275.2</ele>
        <time>2024-07-23T10:05:07Z</time>
      </trkpt>
      <trkpt lat="44.6453" lon="1.25958">
        <ele>275.2</ele>
        <time>2024-07-23T10:05:08Z</time>
      </trkpt>
      <trkpt lat="44.64528" lon="1.25956">
        <ele>275.4</ele>
        <time>2024-07-23T10:05:09Z</time>
      </trkpt>
      <trkpt lat="44.64526" lon="1.25954">
        <ele>275.8</ele>
        <time>2024-07-23T10:05:10Z</time>
      </trkpt>
      <trkpt lat="44.64525" lon="1.25953">
        <ele>275.8</ele>
        <time>2024-07-23T10:05:11Z</time>
      </trkpt>
      <trkpt lat="44.64523" lon="1.25951">
        <ele>276</ele>
        <time>2024-07-23T10:05:12Z</time>
      </trkpt>
      <trkpt lat="44.64521" lon="1.2595">
        <ele>276</ele>
        <time>2024-07-23T10:05:13Z</time>
      </trkpt>
      <trkpt lat="44.64519" lon="1.25949">
        <ele>276.2</ele>
        <time>2024-07-23T10:05:14Z</time>
      </trkpt>
      <trkpt lat="44.64517" lon="1.25947">
        <ele>276.4</ele>
        <time>2024-07-23T10:05:15Z</time>
      </trkpt>
      <trkpt lat="44.64515" lon="1.25946">
        <ele>276.6</ele>
        <time>2024-07-23T10:05:16Z</time>
      </trkpt>
      <trkpt lat="44.64513" lon="1.25945">
        <ele>276.6</ele>
        <time>2024-07-23T10:05:17Z</time>
      </trkpt>
      <trkpt lat="44.64511" lon="1.25944">
        <ele>276.8</ele>
        <time>2024-07-23T10:05:18Z</time>
      </trkpt>
      <trkpt lat="44.64508" lon="1.25943">
        <ele>277</ele>
        <time>2024-07-23T10:05:19Z</time>
      </trkpt>
      <trkpt lat="44.64506" lon="1.25942">
        <ele>277</ele>
        <time>2024-07-23T10:05:20Z</time>
      </trkpt>
      <trkpt lat="44.64504" lon="1.25941">
        <ele>277.2</ele>
        <time>2024-07-23T10:05:21Z</time>
      </trkpt>
      <trkpt lat="44.64502" lon="1.25939">
        <ele>277.4</ele>
        <time>2024-07-23T10:05:22Z</time>
      </trkpt>
      <trkpt lat="44.64499" lon="1.25938">
        <ele>277.6</ele>
        <time>2024-07-23T10:05:23Z</time>
      </trkpt>
      <trkpt lat="44.64497" lon="1.25936">
        <ele>277.8</ele>
        <time>2024-07-23T10:05:24Z</time>
      </trkpt>
      <trkpt lat="44.64495" lon="1.25934">
        <ele>277.8</ele>
        <time>2024-07-23T10:05:25Z</time>
      </trkpt>
      <trkpt lat="44.64493" lon="1.25932">
        <ele>278</ele>
        <time>2024-07-23T10:05:26Z</time>
      </trkpt>
      <trkpt lat="44.64492" lon="1.25929">
        <ele>278</ele>
        <time>2024-07-23T10:05:27Z</time>
      </trkpt>
      <trkpt lat="44.6449" lon="1.25926">
        <ele>278.2</ele>
        <time>2024-07-23T10:05:28Z</time>
      </trkpt>
      <trkpt lat="44.64489" lon="1.25924">
        <ele>278.2</ele>
        <time>2024-07-23T10:05:29Z</time>
      </trkpt>
      <trkpt lat="44.64488" lon="1.2592">
        <ele>278.2</ele>
        <time>2024-07-23T10:05:30Z</time>
      </trkpt>
      <trkpt lat="44.64487" lon="1.25917">
        <ele>278.4</ele>
        <time>2024-07-23T10:05:31Z</time>
      </trkpt>
      <trkpt lat="44.64486" lon="1.25914">
        <ele>278.4</ele>
        <time>2024-07-23T10:05:32Z</time>
      </trkpt>
      <trkpt lat="44.64485" lon="1.2591">
        <ele>278.4</ele>
        <time>2024-07-23T10:05:33Z</time>
      </trkpt>
      <trkpt lat="44.64484" lon="1.25907">
        <ele>278.6</ele>
        <time>2024-07-23T10:05:34Z</time>
      </trkpt>
      <trkpt lat="44.64483" lon="1.25903">
        <ele>278.6</ele>
        <time>2024-07-23T10:05:35Z</time>
      </trkpt>
      <trkpt lat="44.64482" lon="1.259">
        <ele>278.6</ele>
        <time>2024-07-23T10:05:36Z</time>
      </trkpt>
      <trkpt lat="44.64481" lon="1.25896">
        <ele>278.6</ele>
        <time>2024-07-23T10:05:37Z</time>
      </trkpt>
      <trkpt lat="44.6448" lon="1.25893">
        <ele>278.6</ele>
        <time>2024-07-23T10:05:38Z</time>
      </trkpt>
      <trkpt lat="44.64479" lon="1.2589">
        <ele>278.6</ele>
        <time>2024-07-23T10:05:39Z</time>
      </trkpt>
      <trkpt lat="44.64478" lon="1.25885">
        <ele>278.8</ele>
        <time>2024-07-23T10:05:40Z</time>
      </trkpt>
      <trkpt lat="44.64476" lon="1.25881">
        <ele>278.8</ele>
        <time>2024-07-23T10:05:41Z</time>
      </trkpt>
      <trkpt lat="44.64475" lon="1.25876">
        <ele>278.8</ele>
        <time>2024-07-23T10:05:42Z</time>
      </trkpt>
      <trkpt lat="44.64474" lon="1.25872">
        <ele>278.8</ele>
        <time>2024-07-23T10:05:43Z</time>
      </trkpt>
      <trkpt lat="44.64472" lon="1.25862">
        <ele>279</ele>
        <time>2024-07-23T10:05:45Z</time>
      </trkpt>
      <trkpt lat="44.64458" lon="1.25819">
        <ele>279.4</ele>
        <time>2024-07-23T10:05:54Z</time>
      </trkpt>
      <trkpt lat="44.64456" lon="1.25814">
        <ele>279.4</ele>
        <time>2024-07-23T10:05:55Z</time>
      </trkpt>
      <trkpt lat="44.64451" lon="1.25802">
        <ele>279.6</ele>
        <time>2024-07-23T10:05:58Z</time>
      </trkpt>
      <trkpt lat="44.64448" lon="1.25794">
        <ele>279.6</ele>
        <time>2024-07-23T10:06:00Z</time>
      </trkpt>
      <trkpt lat="44.64443" lon="1.25779">
        <ele>279.6</ele>
        <time>2024-07-23T10:06:03Z</time>
      </trkpt>
      <trkpt lat="44.64434" lon="1.25754">
        <ele>279.6</ele>
        <time>2024-07-23T10:06:07Z</time>
      </trkpt>
      <trkpt lat="44.64431" lon="1.25739">
        <ele>279.4</ele>
        <time>2024-07-23T10:06:09Z</time>
      </trkpt>
      <trkpt lat="44.64425" lon="1.25713">
        <ele>279</ele>
        <time>2024-07-23T10:06:12Z</time>
      </trkpt>
      <trkpt lat="44.64422" lon="1.25701">
        <ele>279</ele>
        <time>2024-07-23T10:06:13Z</time>
      </trkpt>
      <trkpt lat="44.64415" lon="1.25683">
        <ele>278.4</ele>
        <time>2024-07-23T10:06:15Z</time>
      </trkpt>
      <trkpt lat="44.64404" lon="1.2565">
        <ele>277.6</ele>
        <time>2024-07-23T10:06:18Z</time>
      </trkpt>
      <trkpt lat="44.64401" lon="1.25641">
        <ele>276.2</ele>
        <time>2024-07-23T10:06:19Z</time>
      </trkpt>
      <trkpt lat="44.64398" lon="1.25631">
        <ele>275.4</ele>
        <time>2024-07-23T10:06:20Z</time>
      </trkpt>
      <trkpt lat="44.64392" lon="1.25613">
        <ele>275</ele>
        <time>2024-07-23T10:06:22Z</time>
      </trkpt>
      <trkpt lat="44.64386" lon="1.25591">
        <ele>274.4</ele>
        <time>2024-07-23T10:06:24Z</time>
      </trkpt>
      <trkpt lat="44.64376" lon="1.25564">
        <ele>273.8</ele>
        <time>2024-07-23T10:06:27Z</time>
      </trkpt>
      <trkpt lat="44.64369" lon="1.25541">
        <ele>272.8</ele>
        <time>2024-07-23T10:06:29Z</time>
      </trkpt>
      <trkpt lat="44.64361" lon="1.25521">
        <ele>271.6</ele>
        <time>2024-07-23T10:06:31Z</time>
      </trkpt>
      <trkpt lat="44.64357" lon="1.25514">
        <ele>270.8</ele>
        <time>2024-07-23T10:06:32Z</time>
      </trkpt>
      <trkpt lat="44.64347" lon="1.25497">
        <ele>270</ele>
        <time>2024-07-23T10:06:34Z</time>
      </trkpt>
      <trkpt lat="44.64342" lon="1.2549">
        <ele>269.6</ele>
        <time>2024-07-23T10:06:35Z</time>
      </trkpt>
      <trkpt lat="44.64337" lon="1.25483">
        <ele>269.4</ele>
        <time>2024-07-23T10:06:36Z</time>
      </trkpt>
      <trkpt lat="44.64335" lon="1.25475">
        <ele>269.2</ele>
        <time>2024-07-23T10:06:37Z</time>
      </trkpt>
      <trkpt lat="44.64333" lon="1.25469">
        <ele>269.2</ele>
        <time>2024-07-23T10:06:38Z</time>
      </trkpt>
      <trkpt lat="44.64333" lon="1.25463">
        <ele>269</ele>
        <time>2024-07-23T10:06:39Z</time>
      </trkpt>
      <trkpt lat="44.64334" lon="1.25458">
        <ele>268.8</ele>
        <time>2024-07-23T10:06:40Z</time>
      </trkpt>
      <trkpt lat="44.64335" lon="1.25453">
        <ele>268.8</ele>
        <time>2024-07-23T10:06:41Z</time>
      </trkpt>
      <trkpt lat="44.64336" lon="1.25449">
        <ele>268.8</ele>
        <time>2024-07-23T10:06:42Z</time>
      </trkpt>
      <trkpt lat="44.64338" lon="1.25445">
        <ele>268.8</ele>
        <time>2024-07-23T10:06:43Z</time>
      </trkpt>
      <trkpt lat="44.6434" lon="1.25442">
        <ele>269</ele>
        <time>2024-07-23T10:06:44Z</time>
      </trkpt>
      <trkpt lat="44.64341" lon="1.25439">
        <ele>269</ele>
        <time>2024-07-23T10:06:45Z</time>
      </trkpt>
      <trkpt lat="44.64342" lon="1.25436">
        <ele>269.2</ele>
        <time>2024-07-23T10:06:46Z</time>
      </trkpt>
      <trkpt lat="44.64343" lon="1.25434">
        <ele>269.2</ele>
        <time>2024-07-23T10:06:47Z</time>
      </trkpt>
      <trkpt lat="44.64344" lon="1.25432">
        <ele>269.4</ele>
        <time>2024-07-23T10:06:48Z</time>
      </trkpt>
      <trkpt lat="44.64345" lon="1.2543">
        <ele>269.8</ele>
        <time>2024-07-23T10:06:49Z</time>
      </trkpt>
      <trkpt lat="44.64346" lon="1.25428">
        <ele>270.2</ele>
        <time>2024-07-23T10:06:50Z</time>
      </trkpt>
      <trkpt lat="44.64346" lon="1.25426">
        <ele>270.4</ele>
        <time>2024-07-23T10:06:51Z</time>
      </trkpt>
      <trkpt lat="44.64348" lon="1.25422">
        <ele>271.4</ele>
        <time>2024-07-23T10:06:54Z</time>
      </trkpt>
      <trkpt lat="44.64349" lon="1.2542">
        <ele>271.8</ele>
        <time>2024-07-23T10:06:55Z</time>
      </trkpt>
      <trkpt lat="44.6435" lon="1.25417">
        <ele>272.4</ele>
        <time>2024-07-23T10:06:56Z</time>
      </trkpt>
      <trkpt lat="44.64351" lon="1.25415">
        <ele>272.6</ele>
        <time>2024-07-23T10:06:57Z</time>
      </trkpt>
      <trkpt lat="44.64351" lon="1.25413">
        <ele>273</ele>
        <time>2024-07-23T10:06:58Z</time>
      </trkpt>
      <trkpt lat="44.64352" lon="1.25412">
        <ele>273</ele>
        <time>2024-07-23T10:06:59Z</time>
      </trkpt>
      <trkpt lat="44.64352" lon="1.2541">
        <ele>273.4</ele>
        <time>2024-07-23T10:07:00Z</time>
      </trkpt>
      <trkpt lat="44.64353" lon="1.25407">
        <ele>273.8</ele>
        <time>2024-07-23T10:07:01Z</time>
      </trkpt>
      <trkpt lat="44.64354" lon="1.25406">
        <ele>274</ele>
        <time>2024-07-23T10:07:02Z</time>
      </trkpt>
      <trkpt lat="44.64354" lon="1.25403">
        <ele>274</ele>
        <time>2024-07-23T10:07:03Z</time>
      </trkpt>
      <trkpt lat="44.64355" lon="1.25401">
        <ele>274.2</ele>
        <time>2024-07-23T10:07:04Z</time>
      </trkpt>
      <trkpt lat="44.64355" lon="1.25399">
        <ele>274.4</ele>
        <time>2024-07-23T10:07:05Z</time>
      </trkpt>
      <trkpt lat="44.64355" lon="1.25397">
        <ele>274.6</ele>
        <time>2024-07-23T10:07:06Z</time>
      </trkpt>
      <trkpt lat="44.64355" lon="1.25395">
        <ele>274.8</ele>
        <time>2024-07-23T10:07:07Z</time>
      </trkpt>
      <trkpt lat="44.64356" lon="1.25393">
        <ele>275</ele>
        <time>2024-07-23T10:07:08Z</time>
      </trkpt>
      <trkpt lat="44.64355" lon="1.2539">
        <ele>275</ele>
        <time>2024-07-23T10:07:09Z</time>
      </trkpt>
      <trkpt lat="44.64354" lon="1.25388">
        <ele>275.4</ele>
        <time>2024-07-23T10:07:10Z</time>
      </trkpt>
      <trkpt lat="44.64353" lon="1.25386">
        <ele>275.6</ele>
        <time>2024-07-23T10:07:11Z</time>
      </trkpt>
      <trkpt lat="44.64352" lon="1.25384">
        <ele>275.6</ele>
        <time>2024-07-23T10:07:12Z</time>
      </trkpt>
      <trkpt lat="44.64351" lon="1.25381">
        <ele>276</ele>
        <time>2024-07-23T10:07:13Z</time>
      </trkpt>
      <trkpt lat="44.6435" lon="1.25379">
        <ele>276.2</ele>
        <time>2024-07-23T10:07:14Z</time>
      </trkpt>
      <trkpt lat="44.6435" lon="1.25377">
        <ele>276.4</ele>
        <time>2024-07-23T10:07:15Z</time>
      </trkpt>
      <trkpt lat="44.64349" lon="1.25376">
        <ele>276.6</ele>
        <time>2024-07-23T10:07:16Z</time>
      </trkpt>
      <trkpt lat="44.64348" lon="1.25374">
        <ele>277</ele>
        <time>2024-07-23T10:07:17Z</time>
      </trkpt>
      <trkpt lat="44.64348" lon="1.25372">
        <ele>277.4</ele>
        <time>2024-07-23T10:07:18Z</time>
      </trkpt>
      <trkpt lat="44.64347" lon="1.2537">
        <ele>277.4</ele>
        <time>2024-07-23T10:07:19Z</time>
      </trkpt>
      <trkpt lat="44.64346" lon="1.25367">
        <ele>277.6</ele>
        <time>2024-07-23T10:07:20Z</time>
      </trkpt>
      <trkpt lat="44.64345" lon="1.25364">
        <ele>277.8</ele>
        <time>2024-07-23T10:07:21Z</time>
      </trkpt>
      <trkpt lat="44.64344" lon="1.25362">
        <ele>278</ele>
        <time>2024-07-23T10:07:22Z</time>
      </trkpt>
      <trkpt lat="44.64343" lon="1.2536">
        <ele>278.2</ele>
        <time>2024-07-23T10:07:23Z</time>
      </trkpt>
      <trkpt lat="44.64342" lon="1.25358">
        <ele>278.2</ele>
        <time>2024-07-23T10:07:24Z</time>
      </trkpt>
      <trkpt lat="44.64342" lon="1.25356">
        <ele>278.4</ele>
        <time>2024-07-23T10:07:25Z</time>
      </trkpt>
      <trkpt lat="44.64342" lon="1.25355">
        <ele>278.6</ele>
        <time>2024-07-23T10:07:26Z</time>
      </trkpt>
      <trkpt lat="44.64342" lon="1.25354">
        <ele>279</ele>
        <time>2024-07-23T10:07:27Z</time>
      </trkpt>
      <trkpt lat="44.64342" lon="1.25353">
        <ele>279.2</ele>
        <time>2024-07-23T10:07:28Z</time>
      </trkpt>
      <trkpt lat="44.64341" lon="1.2535">
        <ele>279.4</ele>
        <time>2024-07-23T10:07:29Z</time>
      </trkpt>
      <trkpt lat="44.6434" lon="1.25347">
        <ele>279.6</ele>
        <time>2024-07-23T10:07:30Z</time>
      </trkpt>
      <trkpt lat="44.64339" lon="1.25345">
        <ele>279.8</ele>
        <time>2024-07-23T10:07:31Z</time>
      </trkpt>
      <trkpt lat="44.64338" lon="1.25342">
        <ele>279.8</ele>
        <time>2024-07-23T10:07:32Z</time>
      </trkpt>
      <trkpt lat="44.64337" lon="1.2534">
        <ele>279.8</ele>
        <time>2024-07-23T10:07:33Z</time>
      </trkpt>
      <trkpt lat="44.64337" lon="1.25338">
        <ele>280</ele>
        <time>2024-07-23T10:07:34Z</time>
      </trkpt>
      <trkpt lat="44.64336" lon="1.25336">
        <ele>280.2</ele>
        <time>2024-07-23T10:07:35Z</time>
      </trkpt>
      <trkpt lat="44.64335" lon="1.25334">
        <ele>280.4</ele>
        <time>2024-07-23T10:07:36Z</time>
      </trkpt>
      <trkpt lat="44.64334" lon="1.25331">
        <ele>280.4</ele>
        <time>2024-07-23T10:07:37Z</time>
      </trkpt>
      <trkpt lat="44.64333" lon="1.25328">
        <ele>280.6</ele>
        <time>2024-07-23T10:07:38Z</time>
      </trkpt>
      <trkpt lat="44.64332" lon="1.25326">
        <ele>281</ele>
        <time>2024-07-23T10:07:39Z</time>
      </trkpt>
      <trkpt lat="44.64332" lon="1.25324">
        <ele>281.2</ele>
        <time>2024-07-23T10:07:40Z</time>
      </trkpt>
      <trkpt lat="44.64331" lon="1.25321">
        <ele>281.2</ele>
        <time>2024-07-23T10:07:41Z</time>
      </trkpt>
      <trkpt lat="44.64331" lon="1.25319">
        <ele>281.4</ele>
        <time>2024-07-23T10:07:42Z</time>
      </trkpt>
      <trkpt lat="44.64331" lon="1.25316">
        <ele>281.6</ele>
        <time>2024-07-23T10:07:43Z</time>
      </trkpt>
      <trkpt lat="44.6433" lon="1.25313">
        <ele>281.6</ele>
        <time>2024-07-23T10:07:44Z</time>
      </trkpt>
      <trkpt lat="44.6433" lon="1.25311">
        <ele>281.8</ele>
        <time>2024-07-23T10:07:45Z</time>
      </trkpt>
      <trkpt lat="44.6433" lon="1.25309">
        <ele>281.8</ele>
        <time>2024-07-23T10:07:46Z</time>
      </trkpt>
      <trkpt lat="44.64329" lon="1.25304">
        <ele>281.8</ele>
        <time>2024-07-23T10:07:47Z</time>
      </trkpt>
      <trkpt lat="44.64327" lon="1.253">
        <ele>282</ele>
        <time>2024-07-23T10:07:48Z</time>
      </trkpt>
      <trkpt lat="44.64327" lon="1.253">
        <ele>282</ele>
        <time>2024-07-23T10:07:49Z</time>
      </trkpt>
      <trkpt lat="44.64326" lon="1.25296">
        <ele>282</ele>
        <time>2024-07-23T10:07:50Z</time>
      </trkpt>
      <trkpt lat="44.64325" lon="1.25292">
        <ele>282.2</ele>
        <time>2024-07-23T10:07:51Z</time>
      </trkpt>
      <trkpt lat="44.64324" lon="1.2529">
        <ele>282.2</ele>
        <time>2024-07-23T10:07:52Z</time>
      </trkpt>
      <trkpt lat="44.64324" lon="1.25287">
        <ele>282.2</ele>
        <time>2024-07-23T10:07:53Z</time>
      </trkpt>
      <trkpt lat="44.6432" lon="1.25277">
        <ele>282.2</ele>
        <time>2024-07-23T10:07:54Z</time>
      </trkpt>
      <trkpt lat="44.6432" lon="1.25277">
        <ele>282.2</ele>
        <time>2024-07-23T10:07:55Z</time>
      </trkpt>
      <trkpt lat="44.64319" lon="1.25273">
        <ele>282.2</ele>
        <time>2024-07-23T10:07:56Z</time>
      </trkpt>
      <trkpt lat="44.64318" lon="1.25269">
        <ele>282.2</ele>
        <time>2024-07-23T10:07:57Z</time>
      </trkpt>
      <trkpt lat="44.64317" lon="1.25264">
        <ele>282.2</ele>
        <time>2024-07-23T10:07:58Z</time>
      </trkpt>
      <trkpt lat="44.64316" lon="1.25258">
        <ele>282.2</ele>
        <time>2024-07-23T10:07:59Z</time>
      </trkpt>
      <trkpt lat="44.64314" lon="1.25252">
        <ele>282.2</ele>
        <time>2024-07-23T10:08:00Z</time>
      </trkpt>
      <trkpt lat="44.64313" lon="1.25247">
        <ele>282.2</ele>
        <time>2024-07-23T10:08:01Z</time>
      </trkpt>
      <trkpt lat="44.64312" lon="1.25242">
        <ele>282.2</ele>
        <time>2024-07-23T10:08:02Z</time>
      </trkpt>
      <trkpt lat="44.64311" lon="1.25237">
        <ele>282.2</ele>
        <time>2024-07-23T10:08:03Z</time>
      </trkpt>
      <trkpt lat="44.64309" lon="1.25231">
        <ele>282.2</ele>
        <time>2024-07-23T10:08:04Z</time>
      </trkpt>
      <trkpt lat="44.64293" lon="1.25197">
        <ele>282.2</ele>
        <time>2024-07-23T10:08:12Z</time>
      </trkpt>
      <trkpt lat="44.64285" lon="1.25176">
        <ele>282.8</ele>
        <time>2024-07-23T10:08:16Z</time>
      </trkpt>
      <trkpt lat="44.64279" lon="1.25162">
        <ele>282.8</ele>
        <time>2024-07-23T10:08:19Z</time>
      </trkpt>
      <trkpt lat="44.64271" lon="1.2513">
        <ele>283</ele>
        <time>2024-07-23T10:08:26Z</time>
      </trkpt>
      <trkpt lat="44.64267" lon="1.2511">
        <ele>283</ele>
        <time>2024-07-23T10:08:28Z</time>
      </trkpt>
      <trkpt lat="44.64265" lon="1.25093">
        <ele>283</ele>
        <time>2024-07-23T10:08:31Z</time>
      </trkpt>
      <trkpt lat="44.64262" lon="1.25072">
        <ele>282.6</ele>
        <time>2024-07-23T10:08:33Z</time>
      </trkpt>
      <trkpt lat="44.6426" lon="1.25064">
        <ele>282.6</ele>
        <time>2024-07-23T10:08:34Z</time>
      </trkpt>
      <trkpt lat="44.64256" lon="1.25056">
        <ele>282.4</ele>
        <time>2024-07-23T10:08:35Z</time>
      </trkpt>
      <trkpt lat="44.64248" lon="1.25043">
        <ele>281.8</ele>
        <time>2024-07-23T10:08:37Z</time>
      </trkpt>
      <trkpt lat="44.64244" lon="1.25039">
        <ele>281.2</ele>
        <time>2024-07-23T10:08:38Z</time>
      </trkpt>
      <trkpt lat="44.64237" lon="1.25029">
        <ele>280.6</ele>
        <time>2024-07-23T10:08:40Z</time>
      </trkpt>
      <trkpt lat="44.64237" lon="1.25029">
        <ele>280.4</ele>
        <time>2024-07-23T10:08:41Z</time>
      </trkpt>
      <trkpt lat="44.64233" lon="1.25025">
        <ele>280.4</ele>
        <time>2024-07-23T10:08:42Z</time>
      </trkpt>
      <trkpt lat="44.6423" lon="1.25022">
        <ele>280.4</ele>
        <time>2024-07-23T10:08:43Z</time>
      </trkpt>
      <trkpt lat="44.64227" lon="1.25019">
        <ele>280.4</ele>
        <time>2024-07-23T10:08:44Z</time>
      </trkpt>
      <trkpt lat="44.64222" lon="1.25013">
        <ele>280.6</ele>
        <time>2024-07-23T10:08:45Z</time>
      </trkpt>
      <trkpt lat="44.64222" lon="1.25013">
        <ele>280.8</ele>
        <time>2024-07-23T10:08:46Z</time>
      </trkpt>
      <trkpt lat="44.64217" lon="1.25007">
        <ele>281</ele>
        <time>2024-07-23T10:08:47Z</time>
      </trkpt>
      <trkpt lat="44.64217" lon="1.25005">
        <ele>281</ele>
        <time>2024-07-23T10:08:48Z</time>
      </trkpt>
      <trkpt lat="44.64215" lon="1.25004">
        <ele>281.2</ele>
        <time>2024-07-23T10:08:49Z</time>
      </trkpt>
      <trkpt lat="44.64214" lon="1.25002">
        <ele>281.4</ele>
        <time>2024-07-23T10:08:50Z</time>
      </trkpt>
      <trkpt lat="44.64213" lon="1.25001">
        <ele>281.6</ele>
        <time>2024-07-23T10:08:51Z</time>
      </trkpt>
      <trkpt lat="44.64213" lon="1.25001">
        <ele>281.8</ele>
        <time>2024-07-23T10:08:52Z</time>
      </trkpt>
      <trkpt lat="44.64209" lon="1.24996">
        <ele>282</ele>
        <time>2024-07-23T10:08:54Z</time>
      </trkpt>
      <trkpt lat="44.64208" lon="1.24994">
        <ele>282.2</ele>
        <time>2024-07-23T10:08:55Z</time>
      </trkpt>
      <trkpt lat="44.64208" lon="1.24994">
        <ele>282.4</ele>
        <time>2024-07-23T10:08:56Z</time>
      </trkpt>
      <trkpt lat="44.64208" lon="1.24992">
        <ele>282.6</ele>
        <time>2024-07-23T10:08:57Z</time>
      </trkpt>
      <trkpt lat="44.64206" lon="1.2499">
        <ele>282.8</ele>
        <time>2024-07-23T10:08:58Z</time>
      </trkpt>
      <trkpt lat="44.64206" lon="1.2499">
        <ele>283</ele>
        <time>2024-07-23T10:08:59Z</time>
      </trkpt>
      <trkpt lat="44.64204" lon="1.24986">
        <ele>283.2</ele>
        <time>2024-07-23T10:09:00Z</time>
      </trkpt>
      <trkpt lat="44.64203" lon="1.24985">
        <ele>283.4</ele>
        <time>2024-07-23T10:09:01Z</time>
      </trkpt>
      <trkpt lat="44.64199" lon="1.24979">
        <ele>284.2</ele>
        <time>2024-07-23T10:09:05Z</time>
      </trkpt>
      <trkpt lat="44.64198" lon="1.24978">
        <ele>284.6</ele>
        <time>2024-07-23T10:09:06Z</time>
      </trkpt>
      <trkpt lat="44.64197" lon="1.24977">
        <ele>284.8</ele>
        <time>2024-07-23T10:09:07Z</time>
      </trkpt>
      <trkpt lat="44.64197" lon="1.24977">
        <ele>284.8</ele>
        <time>2024-07-23T10:09:08Z</time>
      </trkpt>
      <trkpt lat="44.64196" lon="1.24974">
        <ele>285.2</ele>
        <time>2024-07-23T10:09:09Z</time>
      </trkpt>
      <trkpt lat="44.64195" lon="1.24973">
        <ele>285.2</ele>
        <time>2024-07-23T10:09:10Z</time>
      </trkpt>
      <trkpt lat="44.64194" lon="1.24972">
        <ele>285.6</ele>
        <time>2024-07-23T10:09:11Z</time>
      </trkpt>
      <trkpt lat="44.64193" lon="1.2497">
        <ele>285.6</ele>
        <time>2024-07-23T10:09:12Z</time>
      </trkpt>
      <trkpt lat="44.64193" lon="1.24969">
        <ele>286</ele>
        <time>2024-07-23T10:09:13Z</time>
      </trkpt>
      <trkpt lat="44.64192" lon="1.24968">
        <ele>286.2</ele>
        <time>2024-07-23T10:09:14Z</time>
      </trkpt>
      <trkpt lat="44.64192" lon="1.24966">
        <ele>286.4</ele>
        <time>2024-07-23T10:09:15Z</time>
      </trkpt>
      <trkpt lat="44.64192" lon="1.24964">
        <ele>286.6</ele>
        <time>2024-07-23T10:09:16Z</time>
      </trkpt>
      <trkpt lat="44.64191" lon="1.24962">
        <ele>286.8</ele>
        <time>2024-07-23T10:09:17Z</time>
      </trkpt>
      <trkpt lat="44.6419" lon="1.2496">
        <ele>287</ele>
        <time>2024-07-23T10:09:18Z</time>
      </trkpt>
      <trkpt lat="44.64189" lon="1.24959">
        <ele>287.2</ele>
        <time>2024-07-23T10:09:19Z</time>
      </trkpt>
      <trkpt lat="44.64188" lon="1.24957">
        <ele>287.2</ele>
        <time>2024-07-23T10:09:20Z</time>
      </trkpt>
      <trkpt lat="44.64188" lon="1.24955">
        <ele>287.4</ele>
        <time>2024-07-23T10:09:21Z</time>
      </trkpt>
      <trkpt lat="44.64187" lon="1.24954">
        <ele>287.4</ele>
        <time>2024-07-23T10:09:22Z</time>
      </trkpt>
      <trkpt lat="44.64187" lon="1.24953">
        <ele>287.8</ele>
        <time>2024-07-23T10:09:23Z</time>
      </trkpt>
      <trkpt lat="44.64187" lon="1.24953">
        <ele>288</ele>
        <time>2024-07-23T10:09:24Z</time>
      </trkpt>
      <trkpt lat="44.64187" lon="1.24951">
        <ele>288.2</ele>
        <time>2024-07-23T10:09:25Z</time>
      </trkpt>
      <trkpt lat="44.64187" lon="1.2495">
        <ele>288.6</ele>
        <time>2024-07-23T10:09:26Z</time>
      </trkpt>
      <trkpt lat="44.64187" lon="1.24949">
        <ele>288.6</ele>
        <time>2024-07-23T10:09:27Z</time>
      </trkpt>
      <trkpt lat="44.64187" lon="1.24948">
        <ele>288.8</ele>
        <time>2024-07-23T10:09:28Z</time>
      </trkpt>
      <trkpt lat="44.64187" lon="1.24946">
        <ele>288.8</ele>
        <time>2024-07-23T10:09:29Z</time>
      </trkpt>
      <trkpt lat="44.64187" lon="1.24945">
        <ele>289</ele>
        <time>2024-07-23T10:09:30Z</time>
      </trkpt>
      <trkpt lat="44.64187" lon="1.24943">
        <ele>289.4</ele>
        <time>2024-07-23T10:09:31Z</time>
      </trkpt>
      <trkpt lat="44.64187" lon="1.24942">
        <ele>289.6</ele>
        <time>2024-07-23T10:09:32Z</time>
      </trkpt>
      <trkpt lat="44.64187" lon="1.24942">
        <ele>289.8</ele>
        <time>2024-07-23T10:09:33Z</time>
      </trkpt>
      <trkpt lat="44.64187" lon="1.2494">
        <ele>290</ele>
        <time>2024-07-23T10:09:34Z</time>
      </trkpt>
      <trkpt lat="44.64187" lon="1.2494">
        <ele>290.2</ele>
        <time>2024-07-23T10:09:35Z</time>
      </trkpt>
      <trkpt lat="44.64187" lon="1.24938">
        <ele>290.4</ele>
        <time>2024-07-23T10:09:36Z</time>
      </trkpt>
      <trkpt lat="44.64187" lon="1.24936">
        <ele>290.6</ele>
        <time>2024-07-23T10:09:37Z</time>
      </trkpt>
      <trkpt lat="44.64188" lon="1.24935">
        <ele>290.6</ele>
        <time>2024-07-23T10:09:38Z</time>
      </trkpt>
      <trkpt lat="44.64187" lon="1.24933">
        <ele>290.8</ele>
        <time>2024-07-23T10:09:39Z</time>
      </trkpt>
      <trkpt lat="44.64187" lon="1.24933">
        <ele>290.8</ele>
        <time>2024-07-23T10:09:40Z</time>
      </trkpt>
      <trkpt lat="44.64188" lon="1.24931">
        <ele>291</ele>
        <time>2024-07-23T10:09:41Z</time>
      </trkpt>
      <trkpt lat="44.64188" lon="1.2493">
        <ele>291.4</ele>
        <time>2024-07-23T10:09:42Z</time>
      </trkpt>
      <trkpt lat="44.64188" lon="1.24929">
        <ele>291.4</ele>
        <time>2024-07-23T10:09:43Z</time>
      </trkpt>
      <trkpt lat="44.64188" lon="1.24928">
        <ele>291.6</ele>
        <time>2024-07-23T10:09:44Z</time>
      </trkpt>
      <trkpt lat="44.64189" lon="1.24926">
        <ele>291.8</ele>
        <time>2024-07-23T10:09:45Z</time>
      </trkpt>
      <trkpt lat="44.64189" lon="1.24925">
        <ele>292</ele>
        <time>2024-07-23T10:09:46Z</time>
      </trkpt>
      <trkpt lat="44.64189" lon="1.24924">
        <ele>292.2</ele>
        <time>2024-07-23T10:09:47Z</time>
      </trkpt>
      <trkpt lat="44.64189" lon="1.24922">
        <ele>292.4</ele>
        <time>2024-07-23T10:09:48Z</time>
      </trkpt>
      <trkpt lat="44.64189" lon="1.2492">
        <ele>292.4</ele>
        <time>2024-07-23T10:09:49Z</time>
      </trkpt>
      <trkpt lat="44.64189" lon="1.24918">
        <ele>292.6</ele>
        <time>2024-07-23T10:09:50Z</time>
      </trkpt>
      <trkpt lat="44.64189" lon="1.24918">
        <ele>292.8</ele>
        <time>2024-07-23T10:09:51Z</time>
      </trkpt>
      <trkpt lat="44.64189" lon="1.24915">
        <ele>293</ele>
        <time>2024-07-23T10:09:52Z</time>
      </trkpt>
      <trkpt lat="44.64189" lon="1.24913">
        <ele>293.2</ele>
        <time>2024-07-23T10:09:53Z</time>
      </trkpt>
      <trkpt lat="44.64189" lon="1.24912">
        <ele>293.2</ele>
        <time>2024-07-23T10:09:54Z</time>
      </trkpt>
      <trkpt lat="44.6419" lon="1.24911">
        <ele>293.4</ele>
        <time>2024-07-23T10:09:55Z</time>
      </trkpt>
      <trkpt lat="44.6419" lon="1.24909">
        <ele>293.6</ele>
        <time>2024-07-23T10:09:56Z</time>
      </trkpt>
      <trkpt lat="44.6419" lon="1.24908">
        <ele>293.6</ele>
        <time>2024-07-23T10:09:57Z</time>
      </trkpt>
      <trkpt lat="44.6419" lon="1.24906">
        <ele>293.8</ele>
        <time>2024-07-23T10:09:58Z</time>
      </trkpt>
      <trkpt lat="44.6419" lon="1.24905">
        <ele>294.2</ele>
        <time>2024-07-23T10:09:59Z</time>
      </trkpt>
      <trkpt lat="44.6419" lon="1.24904">
        <ele>294.4</ele>
        <time>2024-07-23T10:10:00Z</time>
      </trkpt>
      <trkpt lat="44.6419" lon="1.24902">
        <ele>294.6</ele>
        <time>2024-07-23T10:10:01Z</time>
      </trkpt>
      <trkpt lat="44.6419" lon="1.249">
        <ele>294.6</ele>
        <time>2024-07-23T10:10:02Z</time>
      </trkpt>
      <trkpt lat="44.6419" lon="1.24898">
        <ele>294.8</ele>
        <time>2024-07-23T10:10:03Z</time>
      </trkpt>
      <trkpt lat="44.6419" lon="1.24897">
        <ele>295</ele>
        <time>2024-07-23T10:10:04Z</time>
      </trkpt>
      <trkpt lat="44.6419" lon="1.24896">
        <ele>295.2</ele>
        <time>2024-07-23T10:10:05Z</time>
      </trkpt>
      <trkpt lat="44.6419" lon="1.24895">
        <ele>295.2</ele>
        <time>2024-07-23T10:10:06Z</time>
      </trkpt>
      <trkpt lat="44.6419" lon="1.24895">
        <ele>295.4</ele>
        <time>2024-07-23T10:10:07Z</time>
      </trkpt>
      <trkpt lat="44.6419" lon="1.24892">
        <ele>295.4</ele>
        <time>2024-07-23T10:10:08Z</time>
      </trkpt>
      <trkpt lat="44.6419" lon="1.24891">
        <ele>295.6</ele>
        <time>2024-07-23T10:10:09Z</time>
      </trkpt>
      <trkpt lat="44.6419" lon="1.2489">
        <ele>295.8</ele>
        <time>2024-07-23T10:10:10Z</time>
      </trkpt>
      <trkpt lat="44.6419" lon="1.24889">
        <ele>296</ele>
        <time>2024-07-23T10:10:11Z</time>
      </trkpt>
      <trkpt lat="44.6419" lon="1.24887">
        <ele>296</ele>
        <time>2024-07-23T10:10:12Z</time>
      </trkpt>
      <trkpt lat="44.6419" lon="1.24886">
        <ele>296.2</ele>
        <time>2024-07-23T10:10:13Z</time>
      </trkpt>
      <trkpt lat="44.6419" lon="1.24884">
        <ele>296.4</ele>
        <time>2024-07-23T10:10:14Z</time>
      </trkpt>
      <trkpt lat="44.6419" lon="1.24883">
        <ele>296.4</ele>
        <time>2024-07-23T10:10:15Z</time>
      </trkpt>
      <trkpt lat="44.6419" lon="1.24882">
        <ele>296.8</ele>
        <time>2024-07-23T10:10:16Z</time>
      </trkpt>
      <trkpt lat="44.64191" lon="1.24881">
        <ele>297</ele>
        <time>2024-07-23T10:10:17Z</time>
      </trkpt>
      <trkpt lat="44.64191" lon="1.24879">
        <ele>297</ele>
        <time>2024-07-23T10:10:18Z</time>
      </trkpt>
      <trkpt lat="44.64191" lon="1.24878">
        <ele>297.2</ele>
        <time>2024-07-23T10:10:19Z</time>
      </trkpt>
      <trkpt lat="44.64191" lon="1.24878">
        <ele>297.2</ele>
        <time>2024-07-23T10:10:20Z</time>
      </trkpt>
      <trkpt lat="44.64191" lon="1.24876">
        <ele>297.4</ele>
        <time>2024-07-23T10:10:21Z</time>
      </trkpt>
      <trkpt lat="44.64191" lon="1.24873">
        <ele>297.4</ele>
        <time>2024-07-23T10:10:22Z</time>
      </trkpt>
      <trkpt lat="44.64191" lon="1.24873">
        <ele>297.6</ele>
        <time>2024-07-23T10:10:23Z</time>
      </trkpt>
      <trkpt lat="44.64191" lon="1.2487">
        <ele>297.8</ele>
        <time>2024-07-23T10:10:24Z</time>
      </trkpt>
      <trkpt lat="44.64191" lon="1.24868">
        <ele>298</ele>
        <time>2024-07-23T10:10:25Z</time>
      </trkpt>
      <trkpt lat="44.64191" lon="1.24867">
        <ele>298.2</ele>
        <time>2024-07-23T10:10:26Z</time>
      </trkpt>
      <trkpt lat="44.64192" lon="1.24865">
        <ele>298.2</ele>
        <time>2024-07-23T10:10:27Z</time>
      </trkpt>
      <trkpt lat="44.64192" lon="1.24864">
        <ele>298.4</ele>
        <time>2024-07-23T10:10:28Z</time>
      </trkpt>
      <trkpt lat="44.64192" lon="1.24862">
        <ele>298.6</ele>
        <time>2024-07-23T10:10:29Z</time>
      </trkpt>
      <trkpt lat="44.64192" lon="1.24861">
        <ele>298.6</ele>
        <time>2024-07-23T10:10:30Z</time>
      </trkpt>
      <trkpt lat="44.64192" lon="1.24859">
        <ele>298.8</ele>
        <time>2024-07-23T10:10:31Z</time>
      </trkpt>
      <trkpt lat="44.64192" lon="1.24857">
        <ele>298.8</ele>
        <time>2024-07-23T10:10:32Z</time>
      </trkpt>
      <trkpt lat="44.64192" lon="1.24855">
        <ele>299.2</ele>
        <time>2024-07-23T10:10:33Z</time>
      </trkpt>
      <trkpt lat="44.64192" lon="1.24854">
        <ele>299.2</ele>
        <time>2024-07-23T10:10:34Z</time>
      </trkpt>
      <trkpt lat="44.64192" lon="1.24852">
        <ele>299.6</ele>
        <time>2024-07-23T10:10:35Z</time>
      </trkpt>
      <trkpt lat="44.64192" lon="1.24852">
        <ele>300</ele>
        <time>2024-07-23T10:10:36Z</time>
      </trkpt>
      <trkpt lat="44.64192" lon="1.2485">
        <ele>300.2</ele>
        <time>2024-07-23T10:10:37Z</time>
      </trkpt>
      <trkpt lat="44.64192" lon="1.24847">
        <ele>300.4</ele>
        <time>2024-07-23T10:10:38Z</time>
      </trkpt>
      <trkpt lat="44.64192" lon="1.24847">
        <ele>300.6</ele>
        <time>2024-07-23T10:10:39Z</time>
      </trkpt>
      <trkpt lat="44.64192" lon="1.24844">
        <ele>300.8</ele>
        <time>2024-07-23T10:10:40Z</time>
      </trkpt>
      <trkpt lat="44.64193" lon="1.24842">
        <ele>301</ele>
        <time>2024-07-23T10:10:41Z</time>
      </trkpt>
      <trkpt lat="44.64193" lon="1.24841">
        <ele>301</ele>
        <time>2024-07-23T10:10:42Z</time>
      </trkpt>
      <trkpt lat="44.64193" lon="1.24841">
        <ele>301.2</ele>
        <time>2024-07-23T10:10:43Z</time>
      </trkpt>
      <trkpt lat="44.64194" lon="1.24839">
        <ele>301.2</ele>
        <time>2024-07-23T10:10:44Z</time>
      </trkpt>
      <trkpt lat="44.64194" lon="1.24839">
        <ele>301.4</ele>
        <time>2024-07-23T10:10:45Z</time>
      </trkpt>
      <trkpt lat="44.64194" lon="1.24836">
        <ele>301.4</ele>
        <time>2024-07-23T10:10:46Z</time>
      </trkpt>
      <trkpt lat="44.64194" lon="1.24834">
        <ele>301.6</ele>
        <time>2024-07-23T10:10:47Z</time>
      </trkpt>
      <trkpt lat="44.64194" lon="1.24834">
        <ele>301.8</ele>
        <time>2024-07-23T10:10:48Z</time>
      </trkpt>
      <trkpt lat="44.64195" lon="1.24831">
        <ele>302</ele>
        <time>2024-07-23T10:10:49Z</time>
      </trkpt>
      <trkpt lat="44.64196" lon="1.24829">
        <ele>302.2</ele>
        <time>2024-07-23T10:10:50Z</time>
      </trkpt>
      <trkpt lat="44.64196" lon="1.24828">
        <ele>302.2</ele>
        <time>2024-07-23T10:10:51Z</time>
      </trkpt>
      <trkpt lat="44.64196" lon="1.24826">
        <ele>302.4</ele>
        <time>2024-07-23T10:10:52Z</time>
      </trkpt>
      <trkpt lat="44.64197" lon="1.24824">
        <ele>303</ele>
        <time>2024-07-23T10:10:53Z</time>
      </trkpt>
      <trkpt lat="44.64197" lon="1.24822">
        <ele>303</ele>
        <time>2024-07-23T10:10:54Z</time>
      </trkpt>
      <trkpt lat="44.64198" lon="1.24821">
        <ele>303</ele>
        <time>2024-07-23T10:10:55Z</time>
      </trkpt>
      <trkpt lat="44.64198" lon="1.24819">
        <ele>303.4</ele>
        <time>2024-07-23T10:10:56Z</time>
      </trkpt>
      <trkpt lat="44.64199" lon="1.24818">
        <ele>303.4</ele>
        <time>2024-07-23T10:10:57Z</time>
      </trkpt>
      <trkpt lat="44.64199" lon="1.24816">
        <ele>303.6</ele>
        <time>2024-07-23T10:10:58Z</time>
      </trkpt>
      <trkpt lat="44.64199" lon="1.24815">
        <ele>303.6</ele>
        <time>2024-07-23T10:10:59Z</time>
      </trkpt>
      <trkpt lat="44.64199" lon="1.24814">
        <ele>303.8</ele>
        <time>2024-07-23T10:11:00Z</time>
      </trkpt>
      <trkpt lat="44.642" lon="1.24812">
        <ele>304</ele>
        <time>2024-07-23T10:11:01Z</time>
      </trkpt>
      <trkpt lat="44.64201" lon="1.2481">
        <ele>304</ele>
        <time>2024-07-23T10:11:02Z</time>
      </trkpt>
      <trkpt lat="44.64201" lon="1.24809">
        <ele>304</ele>
        <time>2024-07-23T10:11:03Z</time>
      </trkpt>
      <trkpt lat="44.64201" lon="1.24807">
        <ele>304.2</ele>
        <time>2024-07-23T10:11:04Z</time>
      </trkpt>
      <trkpt lat="44.64202" lon="1.24806">
        <ele>304.6</ele>
        <time>2024-07-23T10:11:05Z</time>
      </trkpt>
      <trkpt lat="44.64202" lon="1.24806">
        <ele>304.6</ele>
        <time>2024-07-23T10:11:06Z</time>
      </trkpt>
      <trkpt lat="44.64202" lon="1.24803">
        <ele>304.8</ele>
        <time>2024-07-23T10:11:07Z</time>
      </trkpt>
      <trkpt lat="44.64202" lon="1.24802">
        <ele>304.8</ele>
        <time>2024-07-23T10:11:08Z</time>
      </trkpt>
      <trkpt lat="44.64203" lon="1.248">
        <ele>305</ele>
        <time>2024-07-23T10:11:09Z</time>
      </trkpt>
      <trkpt lat="44.64204" lon="1.24799">
        <ele>305.2</ele>
        <time>2024-07-23T10:11:10Z</time>
      </trkpt>
      <trkpt lat="44.64204" lon="1.24796">
        <ele>305.2</ele>
        <time>2024-07-23T10:11:11Z</time>
      </trkpt>
      <trkpt lat="44.64205" lon="1.24795">
        <ele>305.4</ele>
        <time>2024-07-23T10:11:12Z</time>
      </trkpt>
      <trkpt lat="44.64205" lon="1.24795">
        <ele>305.6</ele>
        <time>2024-07-23T10:11:13Z</time>
      </trkpt>
      <trkpt lat="44.64205" lon="1.24791">
        <ele>305.8</ele>
        <time>2024-07-23T10:11:14Z</time>
      </trkpt>
      <trkpt lat="44.64206" lon="1.2479">
        <ele>305.8</ele>
        <time>2024-07-23T10:11:15Z</time>
      </trkpt>
      <trkpt lat="44.64206" lon="1.24788">
        <ele>306</ele>
        <time>2024-07-23T10:11:16Z</time>
      </trkpt>
      <trkpt lat="44.64207" lon="1.24786">
        <ele>306.2</ele>
        <time>2024-07-23T10:11:17Z</time>
      </trkpt>
      <trkpt lat="44.64207" lon="1.24786">
        <ele>306.4</ele>
        <time>2024-07-23T10:11:18Z</time>
      </trkpt>
      <trkpt lat="44.64207" lon="1.24784">
        <ele>306.6</ele>
        <time>2024-07-23T10:11:19Z</time>
      </trkpt>
      <trkpt lat="44.64208" lon="1.24782">
        <ele>306.8</ele>
        <time>2024-07-23T10:11:20Z</time>
      </trkpt>
      <trkpt lat="44.64209" lon="1.24779">
        <ele>307</ele>
        <time>2024-07-23T10:11:21Z</time>
      </trkpt>
      <trkpt lat="44.64209" lon="1.24779">
        <ele>307.2</ele>
        <time>2024-07-23T10:11:22Z</time>
      </trkpt>
      <trkpt lat="44.64209" lon="1.24776">
        <ele>307.4</ele>
        <time>2024-07-23T10:11:23Z</time>
      </trkpt>
      <trkpt lat="44.6421" lon="1.24774">
        <ele>307.6</ele>
        <time>2024-07-23T10:11:24Z</time>
      </trkpt>
      <trkpt lat="44.6421" lon="1.24774">
        <ele>307.6</ele>
        <time>2024-07-23T10:11:25Z</time>
      </trkpt>
      <trkpt lat="44.6421" lon="1.24771">
        <ele>307.8</ele>
        <time>2024-07-23T10:11:26Z</time>
      </trkpt>
      <trkpt lat="44.6421" lon="1.2477">
        <ele>307.8</ele>
        <time>2024-07-23T10:11:27Z</time>
      </trkpt>
      <trkpt lat="44.64211" lon="1.24768">
        <ele>308</ele>
        <time>2024-07-23T10:11:28Z</time>
      </trkpt>
      <trkpt lat="44.64211" lon="1.24767">
        <ele>308.2</ele>
        <time>2024-07-23T10:11:29Z</time>
      </trkpt>
      <trkpt lat="44.64212" lon="1.24766">
        <ele>308.2</ele>
        <time>2024-07-23T10:11:30Z</time>
      </trkpt>
      <trkpt lat="44.64212" lon="1.24764">
        <ele>308.4</ele>
        <time>2024-07-23T10:11:31Z</time>
      </trkpt>
      <trkpt lat="44.64212" lon="1.24763">
        <ele>308.4</ele>
        <time>2024-07-23T10:11:32Z</time>
      </trkpt>
      <trkpt lat="44.64213" lon="1.24762">
        <ele>308.6</ele>
        <time>2024-07-23T10:11:33Z</time>
      </trkpt>
      <trkpt lat="44.64213" lon="1.24761">
        <ele>308.8</ele>
        <time>2024-07-23T10:11:34Z</time>
      </trkpt>
      <trkpt lat="44.64214" lon="1.24759">
        <ele>309</ele>
        <time>2024-07-23T10:11:35Z</time>
      </trkpt>
      <trkpt lat="44.64214" lon="1.24757">
        <ele>309.2</ele>
        <time>2024-07-23T10:11:36Z</time>
      </trkpt>
      <trkpt lat="44.64214" lon="1.24755">
        <ele>309.4</ele>
        <time>2024-07-23T10:11:37Z</time>
      </trkpt>
      <trkpt lat="44.64214" lon="1.24755">
        <ele>309.6</ele>
        <time>2024-07-23T10:11:38Z</time>
      </trkpt>
      <trkpt lat="44.64215" lon="1.24753">
        <ele>309.8</ele>
        <time>2024-07-23T10:11:39Z</time>
      </trkpt>
      <trkpt lat="44.64216" lon="1.24751">
        <ele>310</ele>
        <time>2024-07-23T10:11:40Z</time>
      </trkpt>
      <trkpt lat="44.64216" lon="1.2475">
        <ele>310.2</ele>
        <time>2024-07-23T10:11:41Z</time>
      </trkpt>
      <trkpt lat="44.64216" lon="1.24749">
        <ele>310.2</ele>
        <time>2024-07-23T10:11:42Z</time>
      </trkpt>
      <trkpt lat="44.64217" lon="1.24748">
        <ele>310.6</ele>
        <time>2024-07-23T10:11:43Z</time>
      </trkpt>
      <trkpt lat="44.64217" lon="1.24747">
        <ele>310.6</ele>
        <time>2024-07-23T10:11:44Z</time>
      </trkpt>
      <trkpt lat="44.64217" lon="1.24745">
        <ele>310.8</ele>
        <time>2024-07-23T10:11:45Z</time>
      </trkpt>
      <trkpt lat="44.64217" lon="1.24744">
        <ele>311.2</ele>
        <time>2024-07-23T10:11:46Z</time>
      </trkpt>
      <trkpt lat="44.64217" lon="1.24742">
        <ele>311.2</ele>
        <time>2024-07-23T10:11:47Z</time>
      </trkpt>
      <trkpt lat="44.64217" lon="1.24742">
        <ele>311.6</ele>
        <time>2024-07-23T10:11:48Z</time>
      </trkpt>
      <trkpt lat="44.64217" lon="1.24742">
        <ele>311.8</ele>
        <time>2024-07-23T10:11:49Z</time>
      </trkpt>
      <trkpt lat="44.64217" lon="1.24742">
        <ele>312.2</ele>
        <time>2024-07-23T10:11:50Z</time>
      </trkpt>
      <trkpt lat="44.64219" lon="1.24742">
        <ele>313.4</ele>
        <time>2024-07-23T10:13:41Z</time>
      </trkpt>
      <trkpt lat="44.64236" lon="1.24741">
        <ele>312.8</ele>
        <time>2024-07-23T10:13:46Z</time>
      </trkpt>
      <trkpt lat="44.64253" lon="1.24743">
        <ele>312.4</ele>
        <time>2024-07-23T10:13:49Z</time>
      </trkpt>
      <trkpt lat="44.64263" lon="1.24745">
        <ele>312</ele>
        <time>2024-07-23T10:13:51Z</time>
      </trkpt>
      <trkpt lat="44.64273" lon="1.24748">
        <ele>311.6</ele>
        <time>2024-07-23T10:13:53Z</time>
      </trkpt>
      <trkpt lat="44.64278" lon="1.24749">
        <ele>311.4</ele>
        <time>2024-07-23T10:13:54Z</time>
      </trkpt>
      <trkpt lat="44.64282" lon="1.24751">
        <ele>311</ele>
        <time>2024-07-23T10:13:55Z</time>
      </trkpt>
      <trkpt lat="44.64286" lon="1.24752">
        <ele>310.8</ele>
        <time>2024-07-23T10:13:56Z</time>
      </trkpt>
      <trkpt lat="44.6429" lon="1.24754">
        <ele>310.8</ele>
        <time>2024-07-23T10:13:57Z</time>
      </trkpt>
      <trkpt lat="44.64293" lon="1.24756">
        <ele>310.8</ele>
        <time>2024-07-23T10:13:58Z</time>
      </trkpt>
      <trkpt lat="44.64296" lon="1.24758">
        <ele>310.8</ele>
        <time>2024-07-23T10:13:59Z</time>
      </trkpt>
      <trkpt lat="44.643" lon="1.2476">
        <ele>310.8</ele>
        <time>2024-07-23T10:14:00Z</time>
      </trkpt>
      <trkpt lat="44.64303" lon="1.24762">
        <ele>310.6</ele>
        <time>2024-07-23T10:14:01Z</time>
      </trkpt>
      <trkpt lat="44.64306" lon="1.24763">
        <ele>310.8</ele>
        <time>2024-07-23T10:14:02Z</time>
      </trkpt>
      <trkpt lat="44.64308" lon="1.24763">
        <ele>310.8</ele>
        <time>2024-07-23T10:14:03Z</time>
      </trkpt>
      <trkpt lat="44.64311" lon="1.24764">
        <ele>310.8</ele>
        <time>2024-07-23T10:14:04Z</time>
      </trkpt>
      <trkpt lat="44.64314" lon="1.24765">
        <ele>311</ele>
        <time>2024-07-23T10:14:05Z</time>
      </trkpt>
      <trkpt lat="44.64317" lon="1.24766">
        <ele>311</ele>
        <time>2024-07-23T10:14:06Z</time>
      </trkpt>
      <trkpt lat="44.64327" lon="1.2477">
        <ele>311.8</ele>
        <time>2024-07-23T10:14:09Z</time>
      </trkpt>
      <trkpt lat="44.64336" lon="1.24774">
        <ele>312.4</ele>
        <time>2024-07-23T10:14:12Z</time>
      </trkpt>
      <trkpt lat="44.64339" lon="1.24775">
        <ele>312.8</ele>
        <time>2024-07-23T10:14:13Z</time>
      </trkpt>
      <trkpt lat="44.64341" lon="1.24776">
        <ele>313</ele>
        <time>2024-07-23T10:14:14Z</time>
      </trkpt>
      <trkpt lat="44.64349" lon="1.24778">
        <ele>313.6</ele>
        <time>2024-07-23T10:14:17Z</time>
      </trkpt>
      <trkpt lat="44.64351" lon="1.24779">
        <ele>313.8</ele>
        <time>2024-07-23T10:14:18Z</time>
      </trkpt>
      <trkpt lat="44.64354" lon="1.2478">
        <ele>314.2</ele>
        <time>2024-07-23T10:14:19Z</time>
      </trkpt>
      <trkpt lat="44.64357" lon="1.24781">
        <ele>314.6</ele>
        <time>2024-07-23T10:14:20Z</time>
      </trkpt>
      <trkpt lat="44.6436" lon="1.24782">
        <ele>314.8</ele>
        <time>2024-07-23T10:14:21Z</time>
      </trkpt>
      <trkpt lat="44.64363" lon="1.24782">
        <ele>315</ele>
        <time>2024-07-23T10:14:22Z</time>
      </trkpt>
      <trkpt lat="44.64365" lon="1.24783">
        <ele>315</ele>
        <time>2024-07-23T10:14:23Z</time>
      </trkpt>
      <trkpt lat="44.64367" lon="1.24784">
        <ele>315.6</ele>
        <time>2024-07-23T10:14:24Z</time>
      </trkpt>
      <trkpt lat="44.6437" lon="1.24785">
        <ele>315.8</ele>
        <time>2024-07-23T10:14:25Z</time>
      </trkpt>
      <trkpt lat="44.64372" lon="1.24785">
        <ele>316</ele>
        <time>2024-07-23T10:14:26Z</time>
      </trkpt>
      <trkpt lat="44.64374" lon="1.24785">
        <ele>316.2</ele>
        <time>2024-07-23T10:14:27Z</time>
      </trkpt>
      <trkpt lat="44.64377" lon="1.24785">
        <ele>316.2</ele>
        <time>2024-07-23T10:14:28Z</time>
      </trkpt>
      <trkpt lat="44.64379" lon="1.24785">
        <ele>316.4</ele>
        <time>2024-07-23T10:14:29Z</time>
      </trkpt>
      <trkpt lat="44.64381" lon="1.24785">
        <ele>316.4</ele>
        <time>2024-07-23T10:14:30Z</time>
      </trkpt>
      <trkpt lat="44.64384" lon="1.24785">
        <ele>316.8</ele>
        <time>2024-07-23T10:14:31Z</time>
      </trkpt>
      <trkpt lat="44.64386" lon="1.24785">
        <ele>317.2</ele>
        <time>2024-07-23T10:14:32Z</time>
      </trkpt>
      <trkpt lat="44.64389" lon="1.24784">
        <ele>317.4</ele>
        <time>2024-07-23T10:14:33Z</time>
      </trkpt>
      <trkpt lat="44.64391" lon="1.24784">
        <ele>317.6</ele>
        <time>2024-07-23T10:14:34Z</time>
      </trkpt>
      <trkpt lat="44.64393" lon="1.24784">
        <ele>317.8</ele>
        <time>2024-07-23T10:14:35Z</time>
      </trkpt>
      <trkpt lat="44.64396" lon="1.24784">
        <ele>318</ele>
        <time>2024-07-23T10:14:36Z</time>
      </trkpt>
      <trkpt lat="44.64396" lon="1.24784">
        <ele>318.2</ele>
        <time>2024-07-23T10:14:37Z</time>
      </trkpt>
      <trkpt lat="44.644" lon="1.24784">
        <ele>318.4</ele>
        <time>2024-07-23T10:14:38Z</time>
      </trkpt>
      <trkpt lat="44.64403" lon="1.24784">
        <ele>318.4</ele>
        <time>2024-07-23T10:14:39Z</time>
      </trkpt>
      <trkpt lat="44.64405" lon="1.24784">
        <ele>318.6</ele>
        <time>2024-07-23T10:14:40Z</time>
      </trkpt>
      <trkpt lat="44.64407" lon="1.24784">
        <ele>318.6</ele>
        <time>2024-07-23T10:14:41Z</time>
      </trkpt>
      <trkpt lat="44.64409" lon="1.24784">
        <ele>318.6</ele>
        <time>2024-07-23T10:14:42Z</time>
      </trkpt>
      <trkpt lat="44.64412" lon="1.24784">
        <ele>318.8</ele>
        <time>2024-07-23T10:14:43Z</time>
      </trkpt>
      <trkpt lat="44.64414" lon="1.24784">
        <ele>318.8</ele>
        <time>2024-07-23T10:14:44Z</time>
      </trkpt>
      <trkpt lat="44.64416" lon="1.24784">
        <ele>319</ele>
        <time>2024-07-23T10:14:45Z</time>
      </trkpt>
      <trkpt lat="44.64419" lon="1.24783">
        <ele>319</ele>
        <time>2024-07-23T10:14:46Z</time>
      </trkpt>
      <trkpt lat="44.64421" lon="1.24783">
        <ele>319.2</ele>
        <time>2024-07-23T10:14:47Z</time>
      </trkpt>
      <trkpt lat="44.64423" lon="1.24783">
        <ele>319.2</ele>
        <time>2024-07-23T10:14:48Z</time>
      </trkpt>
      <trkpt lat="44.64425" lon="1.24784">
        <ele>319.2</ele>
        <time>2024-07-23T10:14:49Z</time>
      </trkpt>
      <trkpt lat="44.64427" lon="1.24785">
        <ele>319.4</ele>
        <time>2024-07-23T10:14:50Z</time>
      </trkpt>
      <trkpt lat="44.64428" lon="1.24786">
        <ele>319.4</ele>
        <time>2024-07-23T10:14:51Z</time>
      </trkpt>
      <trkpt lat="44.6443" lon="1.24788">
        <ele>319.4</ele>
        <time>2024-07-23T10:14:52Z</time>
      </trkpt>
      <trkpt lat="44.64432" lon="1.24789">
        <ele>319.4</ele>
        <time>2024-07-23T10:14:53Z</time>
      </trkpt>
      <trkpt lat="44.64433" lon="1.2479">
        <ele>319.6</ele>
        <time>2024-07-23T10:14:54Z</time>
      </trkpt>
      <trkpt lat="44.64435" lon="1.24791">
        <ele>319.6</ele>
        <time>2024-07-23T10:14:55Z</time>
      </trkpt>
      <trkpt lat="44.64436" lon="1.24793">
        <ele>319.8</ele>
        <time>2024-07-23T10:14:56Z</time>
      </trkpt>
      <trkpt lat="44.64438" lon="1.24794">
        <ele>320</ele>
        <time>2024-07-23T10:14:57Z</time>
      </trkpt>
      <trkpt lat="44.64439" lon="1.24795">
        <ele>320.2</ele>
        <time>2024-07-23T10:14:58Z</time>
      </trkpt>
      <trkpt lat="44.6444" lon="1.24796">
        <ele>320.2</ele>
        <time>2024-07-23T10:14:59Z</time>
      </trkpt>
      <trkpt lat="44.64441" lon="1.24797">
        <ele>320.4</ele>
        <time>2024-07-23T10:15:00Z</time>
      </trkpt>
      <trkpt lat="44.64442" lon="1.24797">
        <ele>320.6</ele>
        <time>2024-07-23T10:15:01Z</time>
      </trkpt>
      <trkpt lat="44.64442" lon="1.24797">
        <ele>320.6</ele>
        <time>2024-07-23T10:15:02Z</time>
      </trkpt>
      <trkpt lat="44.64442" lon="1.24797">
        <ele>320.8</ele>
        <time>2024-07-23T10:15:03Z</time>
      </trkpt>
      <trkpt lat="44.64444" lon="1.24798">
        <ele>320.8</ele>
        <time>2024-07-23T10:15:21Z</time>
      </trkpt>
      <trkpt lat="44.64451" lon="1.24803">
        <ele>320.8</ele>
        <time>2024-07-23T10:15:24Z</time>
      </trkpt>
      <trkpt lat="44.64464" lon="1.24813">
        <ele>320.2</ele>
        <time>2024-07-23T10:15:29Z</time>
      </trkpt>
      <trkpt lat="44.64472" lon="1.2482">
        <ele>320</ele>
        <time>2024-07-23T10:15:32Z</time>
      </trkpt>
      <trkpt lat="44.6449" lon="1.24835">
        <ele>319.8</ele>
        <time>2024-07-23T10:15:40Z</time>
      </trkpt>
      <trkpt lat="44.64492" lon="1.24837">
        <ele>319.8</ele>
        <time>2024-07-23T10:15:41Z</time>
      </trkpt>
      <trkpt lat="44.64494" lon="1.24838">
        <ele>319.8</ele>
        <time>2024-07-23T10:15:42Z</time>
      </trkpt>
      <trkpt lat="44.64497" lon="1.24839">
        <ele>320</ele>
        <time>2024-07-23T10:15:43Z</time>
      </trkpt>
      <trkpt lat="44.64499" lon="1.24841">
        <ele>320</ele>
        <time>2024-07-23T10:15:44Z</time>
      </trkpt>
      <trkpt lat="44.64501" lon="1.24843">
        <ele>320</ele>
        <time>2024-07-23T10:15:45Z</time>
      </trkpt>
      <trkpt lat="44.64503" lon="1.24844">
        <ele>320.2</ele>
        <time>2024-07-23T10:15:46Z</time>
      </trkpt>
      <trkpt lat="44.64505" lon="1.24846">
        <ele>320.2</ele>
        <time>2024-07-23T10:15:47Z</time>
      </trkpt>
      <trkpt lat="44.64507" lon="1.24847">
        <ele>320.2</ele>
        <time>2024-07-23T10:15:48Z</time>
      </trkpt>
      <trkpt lat="44.64514" lon="1.2485">
        <ele>320.4</ele>
        <time>2024-07-23T10:15:51Z</time>
      </trkpt>
      <trkpt lat="44.64516" lon="1.24851">
        <ele>320.4</ele>
        <time>2024-07-23T10:15:52Z</time>
      </trkpt>
      <trkpt lat="44.64521" lon="1.24854">
        <ele>320.6</ele>
        <time>2024-07-23T10:15:54Z</time>
      </trkpt>
      <trkpt lat="44.64536" lon="1.24865">
        <ele>320.4</ele>
        <time>2024-07-23T10:15:59Z</time>
      </trkpt>
      <trkpt lat="44.64539" lon="1.24867">
        <ele>320.4</ele>
        <time>2024-07-23T10:16:00Z</time>
      </trkpt>
      <trkpt lat="44.64541" lon="1.24869">
        <ele>320.4</ele>
        <time>2024-07-23T10:16:01Z</time>
      </trkpt>
      <trkpt lat="44.64543" lon="1.2487">
        <ele>320.2</ele>
        <time>2024-07-23T10:16:02Z</time>
      </trkpt>
      <trkpt lat="44.64545" lon="1.24871">
        <ele>320.2</ele>
        <time>2024-07-23T10:16:03Z</time>
      </trkpt>
      <trkpt lat="44.64547" lon="1.24871">
        <ele>320.2</ele>
        <time>2024-07-23T10:16:04Z</time>
      </trkpt>
      <trkpt lat="44.64549" lon="1.24869">
        <ele>320</ele>
        <time>2024-07-23T10:16:05Z</time>
      </trkpt>
      <trkpt lat="44.64551" lon="1.24867">
        <ele>320</ele>
        <time>2024-07-23T10:16:06Z</time>
      </trkpt>
      <trkpt lat="44.64556" lon="1.24862">
        <ele>319.6</ele>
        <time>2024-07-23T10:16:08Z</time>
      </trkpt>
      <trkpt lat="44.64559" lon="1.24858">
        <ele>319.6</ele>
        <time>2024-07-23T10:16:09Z</time>
      </trkpt>
      <trkpt lat="44.64563" lon="1.24855">
        <ele>319.2</ele>
        <time>2024-07-23T10:16:10Z</time>
      </trkpt>
      <trkpt lat="44.64581" lon="1.24833">
        <ele>318.4</ele>
        <time>2024-07-23T10:16:15Z</time>
      </trkpt>
      <trkpt lat="44.64588" lon="1.24824">
        <ele>318.2</ele>
        <time>2024-07-23T10:16:17Z</time>
      </trkpt>
      <trkpt lat="44.64591" lon="1.2482">
        <ele>318.2</ele>
        <time>2024-07-23T10:16:18Z</time>
      </trkpt>
      <trkpt lat="44.64593" lon="1.24816">
        <ele>318</ele>
        <time>2024-07-23T10:16:19Z</time>
      </trkpt>
      <trkpt lat="44.64595" lon="1.24811">
        <ele>317.8</ele>
        <time>2024-07-23T10:16:20Z</time>
      </trkpt>
      <trkpt lat="44.64595" lon="1.24806">
        <ele>317.6</ele>
        <time>2024-07-23T10:16:21Z</time>
      </trkpt>
      <trkpt lat="44.64593" lon="1.24801">
        <ele>317.4</ele>
        <time>2024-07-23T10:16:22Z</time>
      </trkpt>
      <trkpt lat="44.6459" lon="1.24798">
        <ele>317.2</ele>
        <time>2024-07-23T10:16:23Z</time>
      </trkpt>
      <trkpt lat="44.64586" lon="1.24794">
        <ele>317</ele>
        <time>2024-07-23T10:16:24Z</time>
      </trkpt>
      <trkpt lat="44.64576" lon="1.24784">
        <ele>315.8</ele>
        <time>2024-07-23T10:16:27Z</time>
      </trkpt>
      <trkpt lat="44.64557" lon="1.24763">
        <ele>314.8</ele>
        <time>2024-07-23T10:16:33Z</time>
      </trkpt>
      <trkpt lat="44.64553" lon="1.24759">
        <ele>314.8</ele>
        <time>2024-07-23T10:16:34Z</time>
      </trkpt>
      <trkpt lat="44.64525" lon="1.24728">
        <ele>314</ele>
        <time>2024-07-23T10:16:42Z</time>
      </trkpt>
      <trkpt lat="44.64523" lon="1.24725">
        <ele>314</ele>
        <time>2024-07-23T10:16:43Z</time>
      </trkpt>
      <trkpt lat="44.6452" lon="1.24721">
        <ele>313.8</ele>
        <time>2024-07-23T10:16:44Z</time>
      </trkpt>
      <trkpt lat="44.64517" lon="1.24718">
        <ele>313.8</ele>
        <time>2024-07-23T10:16:45Z</time>
      </trkpt>
      <trkpt lat="44.64508" lon="1.24707">
        <ele>313.6</ele>
        <time>2024-07-23T10:16:48Z</time>
      </trkpt>
      <trkpt lat="44.64485" lon="1.2468">
        <ele>313</ele>
        <time>2024-07-23T10:16:54Z</time>
      </trkpt>
      <trkpt lat="44.64478" lon="1.2467">
        <ele>312.8</ele>
        <time>2024-07-23T10:16:56Z</time>
      </trkpt>
      <trkpt lat="44.64472" lon="1.2466">
        <ele>312.6</ele>
        <time>2024-07-23T10:16:58Z</time>
      </trkpt>
      <trkpt lat="44.64466" lon="1.2465">
        <ele>312.4</ele>
        <time>2024-07-23T10:17:00Z</time>
      </trkpt>
      <trkpt lat="44.64461" lon="1.2464">
        <ele>312.2</ele>
        <time>2024-07-23T10:17:02Z</time>
      </trkpt>
      <trkpt lat="44.64458" lon="1.24635">
        <ele>312.2</ele>
        <time>2024-07-23T10:17:03Z</time>
      </trkpt>
      <trkpt lat="44.64456" lon="1.2463">
        <ele>312</ele>
        <time>2024-07-23T10:17:04Z</time>
      </trkpt>
      <trkpt lat="44.64454" lon="1.24625">
        <ele>312</ele>
        <time>2024-07-23T10:17:05Z</time>
      </trkpt>
      <trkpt lat="44.64451" lon="1.24621">
        <ele>312</ele>
        <time>2024-07-23T10:17:06Z</time>
      </trkpt>
      <trkpt lat="44.64449" lon="1.24617">
        <ele>312</ele>
        <time>2024-07-23T10:17:07Z</time>
      </trkpt>
      <trkpt lat="44.64447" lon="1.24612">
        <ele>312</ele>
        <time>2024-07-23T10:17:08Z</time>
      </trkpt>
      <trkpt lat="44.64445" lon="1.24608">
        <ele>312</ele>
        <time>2024-07-23T10:17:09Z</time>
      </trkpt>
      <trkpt lat="44.64442" lon="1.24603">
        <ele>312.2</ele>
        <time>2024-07-23T10:17:10Z</time>
      </trkpt>
      <trkpt lat="44.6444" lon="1.24598">
        <ele>312.4</ele>
        <time>2024-07-23T10:17:11Z</time>
      </trkpt>
      <trkpt lat="44.64437" lon="1.24594">
        <ele>312.4</ele>
        <time>2024-07-23T10:17:12Z</time>
      </trkpt>
      <trkpt lat="44.64435" lon="1.24589">
        <ele>312.6</ele>
        <time>2024-07-23T10:17:13Z</time>
      </trkpt>
      <trkpt lat="44.64433" lon="1.24585">
        <ele>312.6</ele>
        <time>2024-07-23T10:17:14Z</time>
      </trkpt>
      <trkpt lat="44.64431" lon="1.24581">
        <ele>312.6</ele>
        <time>2024-07-23T10:17:15Z</time>
      </trkpt>
      <trkpt lat="44.64429" lon="1.24577">
        <ele>312.6</ele>
        <time>2024-07-23T10:17:16Z</time>
      </trkpt>
      <trkpt lat="44.64428" lon="1.24573">
        <ele>312.8</ele>
        <time>2024-07-23T10:17:17Z</time>
      </trkpt>
      <trkpt lat="44.64427" lon="1.24569">
        <ele>312.8</ele>
        <time>2024-07-23T10:17:18Z</time>
      </trkpt>
      <trkpt lat="44.64425" lon="1.24566">
        <ele>313.2</ele>
        <time>2024-07-23T10:17:19Z</time>
      </trkpt>
      <trkpt lat="44.64424" lon="1.24562">
        <ele>313.4</ele>
        <time>2024-07-23T10:17:20Z</time>
      </trkpt>
      <trkpt lat="44.64422" lon="1.24559">
        <ele>313.4</ele>
        <time>2024-07-23T10:17:21Z</time>
      </trkpt>
      <trkpt lat="44.64421" lon="1.24557">
        <ele>313.6</ele>
        <time>2024-07-23T10:17:22Z</time>
      </trkpt>
      <trkpt lat="44.6442" lon="1.24555">
        <ele>313.8</ele>
        <time>2024-07-23T10:17:23Z</time>
      </trkpt>
      <trkpt lat="44.6442" lon="1.24552">
        <ele>314</ele>
        <time>2024-07-23T10:17:24Z</time>
      </trkpt>
      <trkpt lat="44.64419" lon="1.2455">
        <ele>314.2</ele>
        <time>2024-07-23T10:17:25Z</time>
      </trkpt>
      <trkpt lat="44.64419" lon="1.24547">
        <ele>314.2</ele>
        <time>2024-07-23T10:17:26Z</time>
      </trkpt>
      <trkpt lat="44.64418" lon="1.24545">
        <ele>314.4</ele>
        <time>2024-07-23T10:17:27Z</time>
      </trkpt>
      <trkpt lat="44.64418" lon="1.24543">
        <ele>314.4</ele>
        <time>2024-07-23T10:17:28Z</time>
      </trkpt>
      <trkpt lat="44.64418" lon="1.24541">
        <ele>315</ele>
        <time>2024-07-23T10:17:29Z</time>
      </trkpt>
      <trkpt lat="44.64418" lon="1.24535">
        <ele>316</ele>
        <time>2024-07-23T10:17:32Z</time>
      </trkpt>
      <trkpt lat="44.64418" lon="1.24533">
        <ele>316.4</ele>
        <time>2024-07-23T10:17:33Z</time>
      </trkpt>
      <trkpt lat="44.64418" lon="1.2453">
        <ele>316.6</ele>
        <time>2024-07-23T10:17:34Z</time>
      </trkpt>
      <trkpt lat="44.64419" lon="1.24527">
        <ele>316.8</ele>
        <time>2024-07-23T10:17:35Z</time>
      </trkpt>
      <trkpt lat="44.64419" lon="1.24524">
        <ele>317</ele>
        <time>2024-07-23T10:17:36Z</time>
      </trkpt>
      <trkpt lat="44.64419" lon="1.2452">
        <ele>317.6</ele>
        <time>2024-07-23T10:17:37Z</time>
      </trkpt>
      <trkpt lat="44.64419" lon="1.24517">
        <ele>317.6</ele>
        <time>2024-07-23T10:17:38Z</time>
      </trkpt>
      <trkpt lat="44.6442" lon="1.24514">
        <ele>318</ele>
        <time>2024-07-23T10:17:39Z</time>
      </trkpt>
      <trkpt lat="44.64419" lon="1.24512">
        <ele>318</ele>
        <time>2024-07-23T10:17:40Z</time>
      </trkpt>
      <trkpt lat="44.6442" lon="1.24509">
        <ele>318.4</ele>
        <time>2024-07-23T10:17:41Z</time>
      </trkpt>
      <trkpt lat="44.6442" lon="1.24506">
        <ele>318.4</ele>
        <time>2024-07-23T10:17:42Z</time>
      </trkpt>
      <trkpt lat="44.64422" lon="1.24503">
        <ele>318.8</ele>
        <time>2024-07-23T10:17:43Z</time>
      </trkpt>
      <trkpt lat="44.64422" lon="1.245">
        <ele>319</ele>
        <time>2024-07-23T10:17:44Z</time>
      </trkpt>
      <trkpt lat="44.64422" lon="1.24496">
        <ele>319.2</ele>
        <time>2024-07-23T10:17:45Z</time>
      </trkpt>
      <trkpt lat="44.64423" lon="1.24492">
        <ele>319.4</ele>
        <time>2024-07-23T10:17:46Z</time>
      </trkpt>
      <trkpt lat="44.64424" lon="1.2449">
        <ele>319.4</ele>
        <time>2024-07-23T10:17:47Z</time>
      </trkpt>
      <trkpt lat="44.64425" lon="1.24488">
        <ele>319.6</ele>
        <time>2024-07-23T10:17:48Z</time>
      </trkpt>
      <trkpt lat="44.64426" lon="1.24485">
        <ele>319.8</ele>
        <time>2024-07-23T10:17:49Z</time>
      </trkpt>
      <trkpt lat="44.64427" lon="1.24482">
        <ele>320.2</ele>
        <time>2024-07-23T10:17:50Z</time>
      </trkpt>
      <trkpt lat="44.64428" lon="1.24479">
        <ele>320.4</ele>
        <time>2024-07-23T10:17:51Z</time>
      </trkpt>
      <trkpt lat="44.64429" lon="1.24477">
        <ele>320.4</ele>
        <time>2024-07-23T10:17:52Z</time>
      </trkpt>
      <trkpt lat="44.64429" lon="1.24474">
        <ele>320.8</ele>
        <time>2024-07-23T10:17:53Z</time>
      </trkpt>
      <trkpt lat="44.64431" lon="1.24472">
        <ele>320.8</ele>
        <time>2024-07-23T10:17:54Z</time>
      </trkpt>
      <trkpt lat="44.64433" lon="1.24469">
        <ele>321</ele>
        <time>2024-07-23T10:17:55Z</time>
      </trkpt>
      <trkpt lat="44.64434" lon="1.24466">
        <ele>321.2</ele>
        <time>2024-07-23T10:17:56Z</time>
      </trkpt>
      <trkpt lat="44.64436" lon="1.24465">
        <ele>321.4</ele>
        <time>2024-07-23T10:17:57Z</time>
      </trkpt>
      <trkpt lat="44.64437" lon="1.24463">
        <ele>321.8</ele>
        <time>2024-07-23T10:17:58Z</time>
      </trkpt>
      <trkpt lat="44.64439" lon="1.2446">
        <ele>322</ele>
        <time>2024-07-23T10:17:59Z</time>
      </trkpt>
      <trkpt lat="44.6444" lon="1.24457">
        <ele>322</ele>
        <time>2024-07-23T10:18:00Z</time>
      </trkpt>
      <trkpt lat="44.64441" lon="1.24454">
        <ele>322.2</ele>
        <time>2024-07-23T10:18:01Z</time>
      </trkpt>
      <trkpt lat="44.64442" lon="1.24452">
        <ele>322.6</ele>
        <time>2024-07-23T10:18:02Z</time>
      </trkpt>
      <trkpt lat="44.64442" lon="1.2445">
        <ele>322.6</ele>
        <time>2024-07-23T10:18:03Z</time>
      </trkpt>
      <trkpt lat="44.64443" lon="1.24448">
        <ele>322.8</ele>
        <time>2024-07-23T10:18:04Z</time>
      </trkpt>
      <trkpt lat="44.64444" lon="1.24446">
        <ele>323</ele>
        <time>2024-07-23T10:18:05Z</time>
      </trkpt>
      <trkpt lat="44.64444" lon="1.24443">
        <ele>323.2</ele>
        <time>2024-07-23T10:18:06Z</time>
      </trkpt>
      <trkpt lat="44.64444" lon="1.24441">
        <ele>323.4</ele>
        <time>2024-07-23T10:18:07Z</time>
      </trkpt>
      <trkpt lat="44.64445" lon="1.24438">
        <ele>323.8</ele>
        <time>2024-07-23T10:18:08Z</time>
      </trkpt>
      <trkpt lat="44.64445" lon="1.24435">
        <ele>323.8</ele>
        <time>2024-07-23T10:18:09Z</time>
      </trkpt>
      <trkpt lat="44.64446" lon="1.24433">
        <ele>324</ele>
        <time>2024-07-23T10:18:10Z</time>
      </trkpt>
      <trkpt lat="44.64446" lon="1.24431">
        <ele>324</ele>
        <time>2024-07-23T10:18:11Z</time>
      </trkpt>
      <trkpt lat="44.64446" lon="1.24428">
        <ele>324.2</ele>
        <time>2024-07-23T10:18:12Z</time>
      </trkpt>
      <trkpt lat="44.64446" lon="1.24425">
        <ele>324.2</ele>
        <time>2024-07-23T10:18:13Z</time>
      </trkpt>
      <trkpt lat="44.64446" lon="1.24423">
        <ele>324.6</ele>
        <time>2024-07-23T10:18:14Z</time>
      </trkpt>
      <trkpt lat="44.64446" lon="1.2442">
        <ele>324.8</ele>
        <time>2024-07-23T10:18:15Z</time>
      </trkpt>
      <trkpt lat="44.64445" lon="1.24418">
        <ele>324.8</ele>
        <time>2024-07-23T10:18:16Z</time>
      </trkpt>
      <trkpt lat="44.64444" lon="1.24416">
        <ele>325</ele>
        <time>2024-07-23T10:18:17Z</time>
      </trkpt>
      <trkpt lat="44.64443" lon="1.24414">
        <ele>325</ele>
        <time>2024-07-23T10:18:18Z</time>
      </trkpt>
      <trkpt lat="44.64442" lon="1.24411">
        <ele>325</ele>
        <time>2024-07-23T10:18:19Z</time>
      </trkpt>
      <trkpt lat="44.6444" lon="1.24408">
        <ele>325</ele>
        <time>2024-07-23T10:18:20Z</time>
      </trkpt>
      <trkpt lat="44.64438" lon="1.24406">
        <ele>325</ele>
        <time>2024-07-23T10:18:21Z</time>
      </trkpt>
      <trkpt lat="44.64436" lon="1.24404">
        <ele>325.2</ele>
        <time>2024-07-23T10:18:22Z</time>
      </trkpt>
      <trkpt lat="44.64433" lon="1.24402">
        <ele>325.2</ele>
        <time>2024-07-23T10:18:23Z</time>
      </trkpt>
      <trkpt lat="44.64431" lon="1.244">
        <ele>325.2</ele>
        <time>2024-07-23T10:18:24Z</time>
      </trkpt>
      <trkpt lat="44.64428" lon="1.24399">
        <ele>325.2</ele>
        <time>2024-07-23T10:18:25Z</time>
      </trkpt>
      <trkpt lat="44.64425" lon="1.24398">
        <ele>325.2</ele>
        <time>2024-07-23T10:18:26Z</time>
      </trkpt>
      <trkpt lat="44.64422" lon="1.24398">
        <ele>325.2</ele>
        <time>2024-07-23T10:18:27Z</time>
      </trkpt>
      <trkpt lat="44.64419" lon="1.24398">
        <ele>325.2</ele>
        <time>2024-07-23T10:18:28Z</time>
      </trkpt>
      <trkpt lat="44.64417" lon="1.24396">
        <ele>325</ele>
        <time>2024-07-23T10:18:29Z</time>
      </trkpt>
      <trkpt lat="44.64416" lon="1.24394">
        <ele>325</ele>
        <time>2024-07-23T10:18:30Z</time>
      </trkpt>
      <trkpt lat="44.64416" lon="1.24391">
        <ele>325</ele>
        <time>2024-07-23T10:18:31Z</time>
      </trkpt>
      <trkpt lat="44.64417" lon="1.24387">
        <ele>325</ele>
        <time>2024-07-23T10:18:32Z</time>
      </trkpt>
      <trkpt lat="44.64421" lon="1.24374">
        <ele>325</ele>
        <time>2024-07-23T10:18:35Z</time>
      </trkpt>
      <trkpt lat="44.64422" lon="1.24369">
        <ele>324.6</ele>
        <time>2024-07-23T10:18:36Z</time>
      </trkpt>
      <trkpt lat="44.64427" lon="1.24354">
        <ele>324</ele>
        <time>2024-07-23T10:18:39Z</time>
      </trkpt>
      <trkpt lat="44.64429" lon="1.24349">
        <ele>324</ele>
        <time>2024-07-23T10:18:40Z</time>
      </trkpt>
      <trkpt lat="44.6443" lon="1.24345">
        <ele>324</ele>
        <time>2024-07-23T10:18:41Z</time>
      </trkpt>
      <trkpt lat="44.64431" lon="1.2434">
        <ele>323.8</ele>
        <time>2024-07-23T10:18:42Z</time>
      </trkpt>
      <trkpt lat="44.64432" lon="1.24335">
        <ele>323.8</ele>
        <time>2024-07-23T10:18:43Z</time>
      </trkpt>
      <trkpt lat="44.64433" lon="1.24331">
        <ele>323.6</ele>
        <time>2024-07-23T10:18:44Z</time>
      </trkpt>
      <trkpt lat="44.64435" lon="1.24324">
        <ele>323.6</ele>
        <time>2024-07-23T10:18:45Z</time>
      </trkpt>
      <trkpt lat="44.6444" lon="1.24302">
        <ele>323.4</ele>
        <time>2024-07-23T10:18:49Z</time>
      </trkpt>
      <trkpt lat="44.64442" lon="1.24297">
        <ele>323.2</ele>
        <time>2024-07-23T10:18:50Z</time>
      </trkpt>
      <trkpt lat="44.64442" lon="1.24292">
        <ele>322.8</ele>
        <time>2024-07-23T10:18:51Z</time>
      </trkpt>
      <trkpt lat="44.64443" lon="1.24288">
        <ele>322.8</ele>
        <time>2024-07-23T10:18:52Z</time>
      </trkpt>
      <trkpt lat="44.64444" lon="1.24284">
        <ele>322.8</ele>
        <time>2024-07-23T10:18:53Z</time>
      </trkpt>
      <trkpt lat="44.64444" lon="1.2427">
        <ele>322.4</ele>
        <time>2024-07-23T10:18:55Z</time>
      </trkpt>
      <trkpt lat="44.64444" lon="1.24255">
        <ele>322.4</ele>
        <time>2024-07-23T10:18:57Z</time>
      </trkpt>
      <trkpt lat="44.64444" lon="1.24248">
        <ele>322.2</ele>
        <time>2024-07-23T10:18:58Z</time>
      </trkpt>
      <trkpt lat="44.64441" lon="1.24229">
        <ele>322.2</ele>
        <time>2024-07-23T10:19:00Z</time>
      </trkpt>
      <trkpt lat="44.64439" lon="1.24219">
        <ele>322.2</ele>
        <time>2024-07-23T10:19:01Z</time>
      </trkpt>
      <trkpt lat="44.64437" lon="1.24202">
        <ele>322</ele>
        <time>2024-07-23T10:19:03Z</time>
      </trkpt>
      <trkpt lat="44.64437" lon="1.24194">
        <ele>321.8</ele>
        <time>2024-07-23T10:19:04Z</time>
      </trkpt>
      <trkpt lat="44.64436" lon="1.24186">
        <ele>321.8</ele>
        <time>2024-07-23T10:19:05Z</time>
      </trkpt>
      <trkpt lat="44.64435" lon="1.24178">
        <ele>321.8</ele>
        <time>2024-07-23T10:19:06Z</time>
      </trkpt>
      <trkpt lat="44.64433" lon="1.24161">
        <ele>321</ele>
        <time>2024-07-23T10:19:08Z</time>
      </trkpt>
      <trkpt lat="44.64433" lon="1.24155">
        <ele>320.8</ele>
        <time>2024-07-23T10:19:09Z</time>
      </trkpt>
      <trkpt lat="44.64436" lon="1.2414">
        <ele>320.6</ele>
        <time>2024-07-23T10:19:11Z</time>
      </trkpt>
      <trkpt lat="44.64437" lon="1.24135">
        <ele>320.4</ele>
        <time>2024-07-23T10:19:12Z</time>
      </trkpt>
      <trkpt lat="44.64439" lon="1.24129">
        <ele>320.2</ele>
        <time>2024-07-23T10:19:13Z</time>
      </trkpt>
      <trkpt lat="44.6444" lon="1.24123">
        <ele>320.2</ele>
        <time>2024-07-23T10:19:14Z</time>
      </trkpt>
      <trkpt lat="44.6444" lon="1.24118">
        <ele>320</ele>
        <time>2024-07-23T10:19:15Z</time>
      </trkpt>
      <trkpt lat="44.64441" lon="1.24113">
        <ele>320</ele>
        <time>2024-07-23T10:19:16Z</time>
      </trkpt>
      <trkpt lat="44.64442" lon="1.24107">
        <ele>319.8</ele>
        <time>2024-07-23T10:19:17Z</time>
      </trkpt>
      <trkpt lat="44.64442" lon="1.241">
        <ele>319.6</ele>
        <time>2024-07-23T10:19:18Z</time>
      </trkpt>
      <trkpt lat="44.64442" lon="1.24094">
        <ele>319.4</ele>
        <time>2024-07-23T10:19:19Z</time>
      </trkpt>
      <trkpt lat="44.64441" lon="1.24084">
        <ele>319.2</ele>
        <time>2024-07-23T10:19:21Z</time>
      </trkpt>
      <trkpt lat="44.6444" lon="1.24079">
        <ele>319</ele>
        <time>2024-07-23T10:19:22Z</time>
      </trkpt>
      <trkpt lat="44.64439" lon="1.24075">
        <ele>319</ele>
        <time>2024-07-23T10:19:23Z</time>
      </trkpt>
      <trkpt lat="44.64437" lon="1.24072">
        <ele>318.6</ele>
        <time>2024-07-23T10:19:24Z</time>
      </trkpt>
      <trkpt lat="44.64437" lon="1.24072">
        <ele>318.4</ele>
        <time>2024-07-23T10:19:25Z</time>
      </trkpt>
      <trkpt lat="44.64437" lon="1.24072">
        <ele>318</ele>
        <time>2024-07-23T10:19:26Z</time>
      </trkpt>
      <trkpt lat="44.64437" lon="1.24072">
        <ele>317.6</ele>
        <time>2024-07-23T10:19:27Z</time>
      </trkpt>
      <trkpt lat="44.64435" lon="1.24065">
        <ele>314.8</ele>
        <time>2024-07-23T10:20:29Z</time>
      </trkpt>
      <trkpt lat="44.64433" lon="1.24056">
        <ele>314.8</ele>
        <time>2024-07-23T10:20:31Z</time>
      </trkpt>
      <trkpt lat="44.64423" lon="1.24019">
        <ele>314.4</ele>
        <time>2024-07-23T10:20:37Z</time>
      </trkpt>
      <trkpt lat="44.64421" lon="1.24004">
        <ele>314.2</ele>
        <time>2024-07-23T10:20:39Z</time>
      </trkpt>
      <trkpt lat="44.64419" lon="1.23995">
        <ele>314.2</ele>
        <time>2024-07-23T10:20:40Z</time>
      </trkpt>
      <trkpt lat="44.64418" lon="1.23987">
        <ele>314</ele>
        <time>2024-07-23T10:20:41Z</time>
      </trkpt>
      <trkpt lat="44.64416" lon="1.23978">
        <ele>313.8</ele>
        <time>2024-07-23T10:20:42Z</time>
      </trkpt>
      <trkpt lat="44.64414" lon="1.23968">
        <ele>313.6</ele>
        <time>2024-07-23T10:20:43Z</time>
      </trkpt>
      <trkpt lat="44.64411" lon="1.2395">
        <ele>312.6</ele>
        <time>2024-07-23T10:20:45Z</time>
      </trkpt>
      <trkpt lat="44.64405" lon="1.23915">
        <ele>312</ele>
        <time>2024-07-23T10:20:48Z</time>
      </trkpt>
      <trkpt lat="44.644" lon="1.23868">
        <ele>311.6</ele>
        <time>2024-07-23T10:20:52Z</time>
      </trkpt>
      <trkpt lat="44.64398" lon="1.23854">
        <ele>311</ele>
        <time>2024-07-23T10:20:53Z</time>
      </trkpt>
      <trkpt lat="44.64398" lon="1.23828">
        <ele>310.2</ele>
        <time>2024-07-23T10:20:55Z</time>
      </trkpt>
      <trkpt lat="44.644" lon="1.23803">
        <ele>309</ele>
        <time>2024-07-23T10:20:57Z</time>
      </trkpt>
      <trkpt lat="44.644" lon="1.23776">
        <ele>307.8</ele>
        <time>2024-07-23T10:20:59Z</time>
      </trkpt>
      <trkpt lat="44.64402" lon="1.23748">
        <ele>306.4</ele>
        <time>2024-07-23T10:21:01Z</time>
      </trkpt>
      <trkpt lat="44.64403" lon="1.23735">
        <ele>305.8</ele>
        <time>2024-07-23T10:21:02Z</time>
      </trkpt>
      <trkpt lat="44.64407" lon="1.23725">
        <ele>305.4</ele>
        <time>2024-07-23T10:21:03Z</time>
      </trkpt>
      <trkpt lat="44.64412" lon="1.23716">
        <ele>304</ele>
        <time>2024-07-23T10:21:04Z</time>
      </trkpt>
      <trkpt lat="44.64418" lon="1.23709">
        <ele>302.8</ele>
        <time>2024-07-23T10:21:05Z</time>
      </trkpt>
      <trkpt lat="44.64424" lon="1.23704">
        <ele>302.4</ele>
        <time>2024-07-23T10:21:06Z</time>
      </trkpt>
      <trkpt lat="44.64431" lon="1.23699">
        <ele>300.8</ele>
        <time>2024-07-23T10:21:07Z</time>
      </trkpt>
      <trkpt lat="44.64438" lon="1.23695">
        <ele>300.4</ele>
        <time>2024-07-23T10:21:08Z</time>
      </trkpt>
      <trkpt lat="44.64446" lon="1.2369">
        <ele>299.8</ele>
        <time>2024-07-23T10:21:09Z</time>
      </trkpt>
      <trkpt lat="44.6446" lon="1.23686">
        <ele>299.4</ele>
        <time>2024-07-23T10:21:11Z</time>
      </trkpt>
      <trkpt lat="44.64468" lon="1.23686">
        <ele>298.8</ele>
        <time>2024-07-23T10:21:12Z</time>
      </trkpt>
      <trkpt lat="44.64474" lon="1.23689">
        <ele>298.6</ele>
        <time>2024-07-23T10:21:13Z</time>
      </trkpt>
      <trkpt lat="44.6448" lon="1.23691">
        <ele>297.6</ele>
        <time>2024-07-23T10:21:14Z</time>
      </trkpt>
      <trkpt lat="44.64485" lon="1.23692">
        <ele>297.2</ele>
        <time>2024-07-23T10:21:15Z</time>
      </trkpt>
      <trkpt lat="44.64489" lon="1.23691">
        <ele>296.4</ele>
        <time>2024-07-23T10:21:16Z</time>
      </trkpt>
      <trkpt lat="44.64493" lon="1.23688">
        <ele>295.8</ele>
        <time>2024-07-23T10:21:17Z</time>
      </trkpt>
      <trkpt lat="44.64497" lon="1.23684">
        <ele>295.2</ele>
        <time>2024-07-23T10:21:18Z</time>
      </trkpt>
      <trkpt lat="44.64502" lon="1.23679">
        <ele>294</ele>
        <time>2024-07-23T10:21:19Z</time>
      </trkpt>
      <trkpt lat="44.64506" lon="1.23675">
        <ele>293.2</ele>
        <time>2024-07-23T10:21:20Z</time>
      </trkpt>
      <trkpt lat="44.6451" lon="1.23669">
        <ele>292</ele>
        <time>2024-07-23T10:21:21Z</time>
      </trkpt>
      <trkpt lat="44.64513" lon="1.23662">
        <ele>291.4</ele>
        <time>2024-07-23T10:21:22Z</time>
      </trkpt>
      <trkpt lat="44.64515" lon="1.23653">
        <ele>290.6</ele>
        <time>2024-07-23T10:21:23Z</time>
      </trkpt>
      <trkpt lat="44.64516" lon="1.23646">
        <ele>289.6</ele>
        <time>2024-07-23T10:21:24Z</time>
      </trkpt>
      <trkpt lat="44.64517" lon="1.23636">
        <ele>288.8</ele>
        <time>2024-07-23T10:21:25Z</time>
      </trkpt>
      <trkpt lat="44.64519" lon="1.23626">
        <ele>286.6</ele>
        <time>2024-07-23T10:21:26Z</time>
      </trkpt>
      <trkpt lat="44.64525" lon="1.23603">
        <ele>284</ele>
        <time>2024-07-23T10:21:28Z</time>
      </trkpt>
      <trkpt lat="44.64528" lon="1.23593">
        <ele>282.2</ele>
        <time>2024-07-23T10:21:29Z</time>
      </trkpt>
      <trkpt lat="44.64532" lon="1.23581">
        <ele>281.6</ele>
        <time>2024-07-23T10:21:30Z</time>
      </trkpt>
      <trkpt lat="44.64535" lon="1.23569">
        <ele>280.8</ele>
        <time>2024-07-23T10:21:31Z</time>
      </trkpt>
      <trkpt lat="44.64541" lon="1.23546">
        <ele>279.2</ele>
        <time>2024-07-23T10:21:33Z</time>
      </trkpt>
      <trkpt lat="44.64544" lon="1.23535">
        <ele>278.2</ele>
        <time>2024-07-23T10:21:34Z</time>
      </trkpt>
      <trkpt lat="44.64548" lon="1.23525">
        <ele>276.4</ele>
        <time>2024-07-23T10:21:35Z</time>
      </trkpt>
      <trkpt lat="44.64552" lon="1.23516">
        <ele>274.8</ele>
        <time>2024-07-23T10:21:36Z</time>
      </trkpt>
      <trkpt lat="44.64555" lon="1.23508">
        <ele>274.6</ele>
        <time>2024-07-23T10:21:37Z</time>
      </trkpt>
      <trkpt lat="44.64558" lon="1.23504">
        <ele>273.4</ele>
        <time>2024-07-23T10:21:38Z</time>
      </trkpt>
      <trkpt lat="44.64559" lon="1.23498">
        <ele>272.6</ele>
        <time>2024-07-23T10:21:39Z</time>
      </trkpt>
      <trkpt lat="44.6456" lon="1.23495">
        <ele>271</ele>
        <time>2024-07-23T10:21:40Z</time>
      </trkpt>
      <trkpt lat="44.64559" lon="1.23492">
        <ele>268.6</ele>
        <time>2024-07-23T10:21:41Z</time>
      </trkpt>
      <trkpt lat="44.64558" lon="1.23486">
        <ele>267.8</ele>
        <time>2024-07-23T10:21:42Z</time>
      </trkpt>
      <trkpt lat="44.64558" lon="1.23481">
        <ele>266.6</ele>
        <time>2024-07-23T10:21:43Z</time>
      </trkpt>
      <trkpt lat="44.64558" lon="1.23477">
        <ele>265.8</ele>
        <time>2024-07-23T10:21:44Z</time>
      </trkpt>
      <trkpt lat="44.64557" lon="1.23475">
        <ele>264.8</ele>
        <time>2024-07-23T10:21:45Z</time>
      </trkpt>
      <trkpt lat="44.64557" lon="1.23471">
        <ele>264.4</ele>
        <time>2024-07-23T10:21:46Z</time>
      </trkpt>
      <trkpt lat="44.64556" lon="1.23469">
        <ele>263.4</ele>
        <time>2024-07-23T10:21:47Z</time>
      </trkpt>
      <trkpt lat="44.64556" lon="1.23467">
        <ele>262.8</ele>
        <time>2024-07-23T10:21:48Z</time>
      </trkpt>
      <trkpt lat="44.64556" lon="1.23465">
        <ele>262.4</ele>
        <time>2024-07-23T10:21:49Z</time>
      </trkpt>
      <trkpt lat="44.64554" lon="1.23461">
        <ele>261.8</ele>
        <time>2024-07-23T10:21:50Z</time>
      </trkpt>
      <trkpt lat="44.64553" lon="1.23458">
        <ele>261.4</ele>
        <time>2024-07-23T10:21:51Z</time>
      </trkpt>
      <trkpt lat="44.64554" lon="1.23455">
        <ele>260.8</ele>
        <time>2024-07-23T10:21:52Z</time>
      </trkpt>
      <trkpt lat="44.64554" lon="1.23452">
        <ele>260.6</ele>
        <time>2024-07-23T10:21:53Z</time>
      </trkpt>
      <trkpt lat="44.64552" lon="1.23444">
        <ele>259.8</ele>
        <time>2024-07-23T10:21:55Z</time>
      </trkpt>
      <trkpt lat="44.64551" lon="1.23439">
        <ele>259.6</ele>
        <time>2024-07-23T10:21:56Z</time>
      </trkpt>
      <trkpt lat="44.6455" lon="1.23428">
        <ele>259.2</ele>
        <time>2024-07-23T10:21:58Z</time>
      </trkpt>
      <trkpt lat="44.64549" lon="1.23421">
        <ele>258.8</ele>
        <time>2024-07-23T10:21:59Z</time>
      </trkpt>
      <trkpt lat="44.64549" lon="1.23413">
        <ele>258.6</ele>
        <time>2024-07-23T10:22:00Z</time>
      </trkpt>
      <trkpt lat="44.64546" lon="1.23379">
        <ele>257</ele>
        <time>2024-07-23T10:22:04Z</time>
      </trkpt>
      <trkpt lat="44.6454" lon="1.23358">
        <ele>256</ele>
        <time>2024-07-23T10:22:06Z</time>
      </trkpt>
      <trkpt lat="44.64529" lon="1.23336">
        <ele>255</ele>
        <time>2024-07-23T10:22:08Z</time>
      </trkpt>
      <trkpt lat="44.64525" lon="1.23328">
        <ele>254.2</ele>
        <time>2024-07-23T10:22:09Z</time>
      </trkpt>
      <trkpt lat="44.64518" lon="1.23312">
        <ele>252</ele>
        <time>2024-07-23T10:22:11Z</time>
      </trkpt>
      <trkpt lat="44.64516" lon="1.23305">
        <ele>250.6</ele>
        <time>2024-07-23T10:22:12Z</time>
      </trkpt>
      <trkpt lat="44.64514" lon="1.23295">
        <ele>249.6</ele>
        <time>2024-07-23T10:22:13Z</time>
      </trkpt>
      <trkpt lat="44.64512" lon="1.23282">
        <ele>248</ele>
        <time>2024-07-23T10:22:14Z</time>
      </trkpt>
      <trkpt lat="44.64509" lon="1.23269">
        <ele>247.4</ele>
        <time>2024-07-23T10:22:15Z</time>
      </trkpt>
      <trkpt lat="44.64506" lon="1.23255">
        <ele>246.4</ele>
        <time>2024-07-23T10:22:16Z</time>
      </trkpt>
      <trkpt lat="44.64502" lon="1.23228">
        <ele>245</ele>
        <time>2024-07-23T10:22:18Z</time>
      </trkpt>
      <trkpt lat="44.64495" lon="1.232">
        <ele>244</ele>
        <time>2024-07-23T10:22:20Z</time>
      </trkpt>
      <trkpt lat="44.64491" lon="1.23186">
        <ele>242.6</ele>
        <time>2024-07-23T10:22:21Z</time>
      </trkpt>
      <trkpt lat="44.64486" lon="1.23174">
        <ele>241.6</ele>
        <time>2024-07-23T10:22:22Z</time>
      </trkpt>
      <trkpt lat="44.6448" lon="1.2316">
        <ele>239.4</ele>
        <time>2024-07-23T10:22:23Z</time>
      </trkpt>
      <trkpt lat="44.64474" lon="1.23147">
        <ele>237.4</ele>
        <time>2024-07-23T10:22:24Z</time>
      </trkpt>
      <trkpt lat="44.64462" lon="1.23115">
        <ele>235.2</ele>
        <time>2024-07-23T10:22:26Z</time>
      </trkpt>
      <trkpt lat="44.64455" lon="1.23087">
        <ele>233.2</ele>
        <time>2024-07-23T10:22:28Z</time>
      </trkpt>
      <trkpt lat="44.64453" lon="1.23072">
        <ele>232.4</ele>
        <time>2024-07-23T10:22:29Z</time>
      </trkpt>
      <trkpt lat="44.64452" lon="1.2306">
        <ele>231.2</ele>
        <time>2024-07-23T10:22:30Z</time>
      </trkpt>
      <trkpt lat="44.6445" lon="1.23041">
        <ele>229.4</ele>
        <time>2024-07-23T10:22:31Z</time>
      </trkpt>
      <trkpt lat="44.64448" lon="1.23027">
        <ele>228.8</ele>
        <time>2024-07-23T10:22:32Z</time>
      </trkpt>
      <trkpt lat="44.64446" lon="1.23013">
        <ele>227.4</ele>
        <time>2024-07-23T10:22:33Z</time>
      </trkpt>
      <trkpt lat="44.64442" lon="1.23002">
        <ele>227</ele>
        <time>2024-07-23T10:22:34Z</time>
      </trkpt>
      <trkpt lat="44.6444" lon="1.22994">
        <ele>225.6</ele>
        <time>2024-07-23T10:22:35Z</time>
      </trkpt>
      <trkpt lat="44.64437" lon="1.22987">
        <ele>225.2</ele>
        <time>2024-07-23T10:22:36Z</time>
      </trkpt>
      <trkpt lat="44.64435" lon="1.2298">
        <ele>223.8</ele>
        <time>2024-07-23T10:22:37Z</time>
      </trkpt>
      <trkpt lat="44.64435" lon="1.22975">
        <ele>223.2</ele>
        <time>2024-07-23T10:22:38Z</time>
      </trkpt>
      <trkpt lat="44.64435" lon="1.22971">
        <ele>222.8</ele>
        <time>2024-07-23T10:22:39Z</time>
      </trkpt>
      <trkpt lat="44.64435" lon="1.22967">
        <ele>222.2</ele>
        <time>2024-07-23T10:22:40Z</time>
      </trkpt>
      <trkpt lat="44.64436" lon="1.22964">
        <ele>221.8</ele>
        <time>2024-07-23T10:22:41Z</time>
      </trkpt>
      <trkpt lat="44.64437" lon="1.22961">
        <ele>221.4</ele>
        <time>2024-07-23T10:22:42Z</time>
      </trkpt>
      <trkpt lat="44.64438" lon="1.22958">
        <ele>221.4</ele>
        <time>2024-07-23T10:22:43Z</time>
      </trkpt>
      <trkpt lat="44.64438" lon="1.22956">
        <ele>221.2</ele>
        <time>2024-07-23T10:22:44Z</time>
      </trkpt>
      <trkpt lat="44.64438" lon="1.22954">
        <ele>221.2</ele>
        <time>2024-07-23T10:22:45Z</time>
      </trkpt>
      <trkpt lat="44.64438" lon="1.22952">
        <ele>221.2</ele>
        <time>2024-07-23T10:22:46Z</time>
      </trkpt>
      <trkpt lat="44.64438" lon="1.22951">
        <ele>221.4</ele>
        <time>2024-07-23T10:22:47Z</time>
      </trkpt>
      <trkpt lat="44.64437" lon="1.2295">
        <ele>221.4</ele>
        <time>2024-07-23T10:22:48Z</time>
      </trkpt>
      <trkpt lat="44.64436" lon="1.22949">
        <ele>221.6</ele>
        <time>2024-07-23T10:22:49Z</time>
      </trkpt>
      <trkpt lat="44.64435" lon="1.22949">
        <ele>222</ele>
        <time>2024-07-23T10:22:50Z</time>
      </trkpt>
      <trkpt lat="44.64435" lon="1.22949">
        <ele>222.2</ele>
        <time>2024-07-23T10:22:51Z</time>
      </trkpt>
      <trkpt lat="44.64429" lon="1.22946">
        <ele>222.6</ele>
        <time>2024-07-23T10:23:01Z</time>
      </trkpt>
      <trkpt lat="44.64426" lon="1.22944">
        <ele>222.6</ele>
        <time>2024-07-23T10:23:02Z</time>
      </trkpt>
      <trkpt lat="44.64423" lon="1.22942">
        <ele>222.6</ele>
        <time>2024-07-23T10:23:03Z</time>
      </trkpt>
      <trkpt lat="44.64411" lon="1.22933">
        <ele>222</ele>
        <time>2024-07-23T10:23:07Z</time>
      </trkpt>
      <trkpt lat="44.64409" lon="1.22931">
        <ele>222</ele>
        <time>2024-07-23T10:23:08Z</time>
      </trkpt>
      <trkpt lat="44.64407" lon="1.22928">
        <ele>222</ele>
        <time>2024-07-23T10:23:09Z</time>
      </trkpt>
      <trkpt lat="44.64405" lon="1.22925">
        <ele>222</ele>
        <time>2024-07-23T10:23:10Z</time>
      </trkpt>
      <trkpt lat="44.64403" lon="1.22923">
        <ele>221.8</ele>
        <time>2024-07-23T10:23:11Z</time>
      </trkpt>
      <trkpt lat="44.64401" lon="1.22921">
        <ele>221.8</ele>
        <time>2024-07-23T10:23:12Z</time>
      </trkpt>
      <trkpt lat="44.644" lon="1.22919">
        <ele>222</ele>
        <time>2024-07-23T10:23:13Z</time>
      </trkpt>
      <trkpt lat="44.64398" lon="1.22918">
        <ele>222</ele>
        <time>2024-07-23T10:23:14Z</time>
      </trkpt>
      <trkpt lat="44.64396" lon="1.22917">
        <ele>222</ele>
        <time>2024-07-23T10:23:15Z</time>
      </trkpt>
      <trkpt lat="44.64395" lon="1.22916">
        <ele>222.2</ele>
        <time>2024-07-23T10:23:16Z</time>
      </trkpt>
      <trkpt lat="44.64393" lon="1.22915">
        <ele>222.2</ele>
        <time>2024-07-23T10:23:17Z</time>
      </trkpt>
      <trkpt lat="44.64389" lon="1.22912">
        <ele>222.6</ele>
        <time>2024-07-23T10:23:19Z</time>
      </trkpt>
      <trkpt lat="44.64384" lon="1.22907">
        <ele>222.8</ele>
        <time>2024-07-23T10:23:21Z</time>
      </trkpt>
      <trkpt lat="44.64383" lon="1.22904">
        <ele>222.8</ele>
        <time>2024-07-23T10:23:22Z</time>
      </trkpt>
      <trkpt lat="44.64382" lon="1.229">
        <ele>222.8</ele>
        <time>2024-07-23T10:23:23Z</time>
      </trkpt>
      <trkpt lat="44.64381" lon="1.22896">
        <ele>222.8</ele>
        <time>2024-07-23T10:23:24Z</time>
      </trkpt>
      <trkpt lat="44.6438" lon="1.22891">
        <ele>222.8</ele>
        <time>2024-07-23T10:23:25Z</time>
      </trkpt>
      <trkpt lat="44.64377" lon="1.22887">
        <ele>222.2</ele>
        <time>2024-07-23T10:23:26Z</time>
      </trkpt>
      <trkpt lat="44.64375" lon="1.22883">
        <ele>222.2</ele>
        <time>2024-07-23T10:23:27Z</time>
      </trkpt>
      <trkpt lat="44.64374" lon="1.22878">
        <ele>222</ele>
        <time>2024-07-23T10:23:28Z</time>
      </trkpt>
      <trkpt lat="44.64376" lon="1.22866">
        <ele>221.4</ele>
        <time>2024-07-23T10:23:30Z</time>
      </trkpt>
      <trkpt lat="44.64377" lon="1.2286">
        <ele>221</ele>
        <time>2024-07-23T10:23:31Z</time>
      </trkpt>
      <trkpt lat="44.64377" lon="1.22855">
        <ele>220.6</ele>
        <time>2024-07-23T10:23:32Z</time>
      </trkpt>
      <trkpt lat="44.64377" lon="1.22849">
        <ele>219.8</ele>
        <time>2024-07-23T10:23:33Z</time>
      </trkpt>
      <trkpt lat="44.64378" lon="1.22839">
        <ele>219</ele>
        <time>2024-07-23T10:23:35Z</time>
      </trkpt>
      <trkpt lat="44.64378" lon="1.22835">
        <ele>218.6</ele>
        <time>2024-07-23T10:23:36Z</time>
      </trkpt>
      <trkpt lat="44.64378" lon="1.2283">
        <ele>218</ele>
        <time>2024-07-23T10:23:37Z</time>
      </trkpt>
      <trkpt lat="44.64379" lon="1.22825">
        <ele>217.4</ele>
        <time>2024-07-23T10:23:38Z</time>
      </trkpt>
      <trkpt lat="44.64381" lon="1.22822">
        <ele>216.4</ele>
        <time>2024-07-23T10:23:39Z</time>
      </trkpt>
      <trkpt lat="44.64383" lon="1.2282">
        <ele>215.6</ele>
        <time>2024-07-23T10:23:40Z</time>
      </trkpt>
      <trkpt lat="44.64384" lon="1.22818">
        <ele>215</ele>
        <time>2024-07-23T10:23:41Z</time>
      </trkpt>
      <trkpt lat="44.64386" lon="1.22816">
        <ele>214.4</ele>
        <time>2024-07-23T10:23:42Z</time>
      </trkpt>
      <trkpt lat="44.64386" lon="1.22814">
        <ele>214</ele>
        <time>2024-07-23T10:23:43Z</time>
      </trkpt>
      <trkpt lat="44.64386" lon="1.22812">
        <ele>213.2</ele>
        <time>2024-07-23T10:23:44Z</time>
      </trkpt>
      <trkpt lat="44.64386" lon="1.2281">
        <ele>212.6</ele>
        <time>2024-07-23T10:23:45Z</time>
      </trkpt>
      <trkpt lat="44.64385" lon="1.22808">
        <ele>212.4</ele>
        <time>2024-07-23T10:23:46Z</time>
      </trkpt>
      <trkpt lat="44.64383" lon="1.22806">
        <ele>211.8</ele>
        <time>2024-07-23T10:23:47Z</time>
      </trkpt>
      <trkpt lat="44.64382" lon="1.22803">
        <ele>211.6</ele>
        <time>2024-07-23T10:23:48Z</time>
      </trkpt>
      <trkpt lat="44.6438" lon="1.228">
        <ele>211</ele>
        <time>2024-07-23T10:23:49Z</time>
      </trkpt>
      <trkpt lat="44.64375" lon="1.22792">
        <ele>210.2</ele>
        <time>2024-07-23T10:23:51Z</time>
      </trkpt>
      <trkpt lat="44.64366" lon="1.22779">
        <ele>209</ele>
        <time>2024-07-23T10:23:54Z</time>
      </trkpt>
      <trkpt lat="44.64363" lon="1.22775">
        <ele>208.8</ele>
        <time>2024-07-23T10:23:55Z</time>
      </trkpt>
      <trkpt lat="44.64356" lon="1.22767">
        <ele>207.8</ele>
        <time>2024-07-23T10:23:57Z</time>
      </trkpt>
      <trkpt lat="44.64354" lon="1.22765">
        <ele>207.4</ele>
        <time>2024-07-23T10:23:58Z</time>
      </trkpt>
      <trkpt lat="44.64354" lon="1.22765">
        <ele>206.8</ele>
        <time>2024-07-23T10:23:59Z</time>
      </trkpt>
      <trkpt lat="44.64354" lon="1.22765">
        <ele>206.4</ele>
        <time>2024-07-23T10:24:00Z</time>
      </trkpt>
      <trkpt lat="44.64354" lon="1.22765">
        <ele>205.6</ele>
        <time>2024-07-23T10:24:01Z</time>
      </trkpt>
      <trkpt lat="44.64354" lon="1.22765">
        <ele>205.4</ele>
        <time>2024-07-23T10:24:02Z</time>
      </trkpt>
      <trkpt lat="44.64348" lon="1.22761">
        <ele>202.2</ele>
        <time>2024-07-23T10:24:09Z</time>
      </trkpt>
      <trkpt lat="44.64346" lon="1.22759">
        <ele>202</ele>
        <time>2024-07-23T10:24:10Z</time>
      </trkpt>
      <trkpt lat="44.64339" lon="1.22754">
        <ele>201.8</ele>
        <time>2024-07-23T10:24:13Z</time>
      </trkpt>
      <trkpt lat="44.64333" lon="1.22746">
        <ele>201.2</ele>
        <time>2024-07-23T10:24:16Z</time>
      </trkpt>
      <trkpt lat="44.64331" lon="1.22743">
        <ele>201</ele>
        <time>2024-07-23T10:24:17Z</time>
      </trkpt>
      <trkpt lat="44.6433" lon="1.22735">
        <ele>200.2</ele>
        <time>2024-07-23T10:24:19Z</time>
      </trkpt>
      <trkpt lat="44.64331" lon="1.2273">
        <ele>199.6</ele>
        <time>2024-07-23T10:24:20Z</time>
      </trkpt>
      <trkpt lat="44.64332" lon="1.22721">
        <ele>198.8</ele>
        <time>2024-07-23T10:24:22Z</time>
      </trkpt>
      <trkpt lat="44.64333" lon="1.22715">
        <ele>198.4</ele>
        <time>2024-07-23T10:24:23Z</time>
      </trkpt>
      <trkpt lat="44.64333" lon="1.2271">
        <ele>198.2</ele>
        <time>2024-07-23T10:24:24Z</time>
      </trkpt>
      <trkpt lat="44.64334" lon="1.22693">
        <ele>197.4</ele>
        <time>2024-07-23T10:24:27Z</time>
      </trkpt>
      <trkpt lat="44.64334" lon="1.22678">
        <ele>197</ele>
        <time>2024-07-23T10:24:29Z</time>
      </trkpt>
      <trkpt lat="44.64337" lon="1.2266">
        <ele>196.6</ele>
        <time>2024-07-23T10:24:32Z</time>
      </trkpt>
      <trkpt lat="44.64337" lon="1.22654">
        <ele>196.4</ele>
        <time>2024-07-23T10:24:33Z</time>
      </trkpt>
      <trkpt lat="44.64338" lon="1.22648">
        <ele>196.2</ele>
        <time>2024-07-23T10:24:34Z</time>
      </trkpt>
      <trkpt lat="44.64339" lon="1.22641">
        <ele>196</ele>
        <time>2024-07-23T10:24:35Z</time>
      </trkpt>
      <trkpt lat="44.64346" lon="1.22606">
        <ele>195.6</ele>
        <time>2024-07-23T10:24:40Z</time>
      </trkpt>
      <trkpt lat="44.64349" lon="1.2259">
        <ele>194.8</ele>
        <time>2024-07-23T10:24:42Z</time>
      </trkpt>
      <trkpt lat="44.64355" lon="1.22568">
        <ele>194.4</ele>
        <time>2024-07-23T10:24:45Z</time>
      </trkpt>
      <trkpt lat="44.64359" lon="1.22553">
        <ele>193.8</ele>
        <time>2024-07-23T10:24:47Z</time>
      </trkpt>
      <trkpt lat="44.64369" lon="1.22509">
        <ele>192.6</ele>
        <time>2024-07-23T10:24:53Z</time>
      </trkpt>
      <trkpt lat="44.64371" lon="1.22505">
        <ele>192.4</ele>
        <time>2024-07-23T10:24:54Z</time>
      </trkpt>
      <trkpt lat="44.64373" lon="1.22501">
        <ele>192.4</ele>
        <time>2024-07-23T10:24:55Z</time>
      </trkpt>
      <trkpt lat="44.64374" lon="1.22496">
        <ele>192.2</ele>
        <time>2024-07-23T10:24:56Z</time>
      </trkpt>
      <trkpt lat="44.64375" lon="1.22492">
        <ele>192.2</ele>
        <time>2024-07-23T10:24:57Z</time>
      </trkpt>
      <trkpt lat="44.64375" lon="1.22488">
        <ele>192</ele>
        <time>2024-07-23T10:24:58Z</time>
      </trkpt>
      <trkpt lat="44.64376" lon="1.22484">
        <ele>191.8</ele>
        <time>2024-07-23T10:24:59Z</time>
      </trkpt>
      <trkpt lat="44.64378" lon="1.22476">
        <ele>191.4</ele>
        <time>2024-07-23T10:25:01Z</time>
      </trkpt>
      <trkpt lat="44.6438" lon="1.22469">
        <ele>191.2</ele>
        <time>2024-07-23T10:25:03Z</time>
      </trkpt>
      <trkpt lat="44.6438" lon="1.22465">
        <ele>191.2</ele>
        <time>2024-07-23T10:25:04Z</time>
      </trkpt>
      <trkpt lat="44.64381" lon="1.22461">
        <ele>191</ele>
        <time>2024-07-23T10:25:05Z</time>
      </trkpt>
      <trkpt lat="44.64381" lon="1.22458">
        <ele>191</ele>
        <time>2024-07-23T10:25:06Z</time>
      </trkpt>
      <trkpt lat="44.64382" lon="1.22455">
        <ele>191</ele>
        <time>2024-07-23T10:25:07Z</time>
      </trkpt>
      <trkpt lat="44.64382" lon="1.22452">
        <ele>191</ele>
        <time>2024-07-23T10:25:08Z</time>
      </trkpt>
      <trkpt lat="44.64382" lon="1.22451">
        <ele>191</ele>
        <time>2024-07-23T10:25:09Z</time>
      </trkpt>
      <trkpt lat="44.64382" lon="1.2245">
        <ele>190.8</ele>
        <time>2024-07-23T10:25:10Z</time>
      </trkpt>
      <trkpt lat="44.64382" lon="1.22448">
        <ele>190.8</ele>
        <time>2024-07-23T10:25:11Z</time>
      </trkpt>
      <trkpt lat="44.64383" lon="1.22447">
        <ele>190.8</ele>
        <time>2024-07-23T10:25:12Z</time>
      </trkpt>
      <trkpt lat="44.64383" lon="1.22445">
        <ele>190.8</ele>
        <time>2024-07-23T10:25:13Z</time>
      </trkpt>
      <trkpt lat="44.64384" lon="1.22444">
        <ele>190.6</ele>
        <time>2024-07-23T10:25:14Z</time>
      </trkpt>
      <trkpt lat="44.64384" lon="1.22443">
        <ele>190.6</ele>
        <time>2024-07-23T10:25:15Z</time>
      </trkpt>
      <trkpt lat="44.64384" lon="1.22443">
        <ele>190.4</ele>
        <time>2024-07-23T10:25:16Z</time>
      </trkpt>
      <trkpt lat="44.64384" lon="1.22443">
        <ele>190.4</ele>
        <time>2024-07-23T10:25:17Z</time>
      </trkpt>
      <trkpt lat="44.6438" lon="1.2246">
        <ele>191</ele>
        <time>2024-07-23T10:26:25Z</time>
      </trkpt>
      <trkpt lat="44.64383" lon="1.22446">
        <ele>190.6</ele>
        <time>2024-07-23T10:26:29Z</time>
      </trkpt>
      <trkpt lat="44.64384" lon="1.22441">
        <ele>190.6</ele>
        <time>2024-07-23T10:26:30Z</time>
      </trkpt>
      <trkpt lat="44.64389" lon="1.2243">
        <ele>190.6</ele>
        <time>2024-07-23T10:26:33Z</time>
      </trkpt>
      <trkpt lat="44.64392" lon="1.22426">
        <ele>190.6</ele>
        <time>2024-07-23T10:26:34Z</time>
      </trkpt>
      <trkpt lat="44.64394" lon="1.22425">
        <ele>190.6</ele>
        <time>2024-07-23T10:26:35Z</time>
      </trkpt>
      <trkpt lat="44.64397" lon="1.22424">
        <ele>190.6</ele>
        <time>2024-07-23T10:26:36Z</time>
      </trkpt>
      <trkpt lat="44.64399" lon="1.22424">
        <ele>190.6</ele>
        <time>2024-07-23T10:26:37Z</time>
      </trkpt>
      <trkpt lat="44.64401" lon="1.22426">
        <ele>190.6</ele>
        <time>2024-07-23T10:26:38Z</time>
      </trkpt>
      <trkpt lat="44.64403" lon="1.22427">
        <ele>190.6</ele>
        <time>2024-07-23T10:26:39Z</time>
      </trkpt>
      <trkpt lat="44.64404" lon="1.2243">
        <ele>190.6</ele>
        <time>2024-07-23T10:26:40Z</time>
      </trkpt>
      <trkpt lat="44.64405" lon="1.22431">
        <ele>190.6</ele>
        <time>2024-07-23T10:26:41Z</time>
      </trkpt>
      <trkpt lat="44.64406" lon="1.22433">
        <ele>190.8</ele>
        <time>2024-07-23T10:26:42Z</time>
      </trkpt>
      <trkpt lat="44.64406" lon="1.22434">
        <ele>190.8</ele>
        <time>2024-07-23T10:26:43Z</time>
      </trkpt>
      <trkpt lat="44.64407" lon="1.22434">
        <ele>190.8</ele>
        <time>2024-07-23T10:26:44Z</time>
      </trkpt>
      <trkpt lat="44.64407" lon="1.22434">
        <ele>190.8</ele>
        <time>2024-07-23T10:26:45Z</time>
      </trkpt>
      <trkpt lat="44.64407" lon="1.22434">
        <ele>190.8</ele>
        <time>2024-07-23T10:26:46Z</time>
      </trkpt>
      <trkpt lat="44.64429" lon="1.22434">
        <ele>194.2</ele>
        <time>2024-07-23T12:02:36Z</time>
      </trkpt>
      <trkpt lat="44.64432" lon="1.22446">
        <ele>193.8</ele>
        <time>2024-07-23T12:02:38Z</time>
      </trkpt>
      <trkpt lat="44.64419" lon="1.22434">
        <ele>194.6</ele>
        <time>2024-07-23T12:02:58Z</time>
      </trkpt>
      <trkpt lat="44.64419" lon="1.22431">
        <ele>194.6</ele>
        <time>2024-07-23T12:02:59Z</time>
      </trkpt>
      <trkpt lat="44.64419" lon="1.22429">
        <ele>194.6</ele>
        <time>2024-07-23T12:03:00Z</time>
      </trkpt>
      <trkpt lat="44.64417" lon="1.22428">
        <ele>194.6</ele>
        <time>2024-07-23T12:03:01Z</time>
      </trkpt>
      <trkpt lat="44.64415" lon="1.22427">
        <ele>194.4</ele>
        <time>2024-07-23T12:03:02Z</time>
      </trkpt>
      <trkpt lat="44.6441" lon="1.22423">
        <ele>194</ele>
        <time>2024-07-23T12:03:06Z</time>
      </trkpt>
      <trkpt lat="44.6441" lon="1.22423">
        <ele>194</ele>
        <time>2024-07-23T12:03:07Z</time>
      </trkpt>
      <trkpt lat="44.6441" lon="1.2242">
        <ele>194</ele>
        <time>2024-07-23T12:03:08Z</time>
      </trkpt>
      <trkpt lat="44.64408" lon="1.22407">
        <ele>193.8</ele>
        <time>2024-07-23T12:03:11Z</time>
      </trkpt>
      <trkpt lat="44.64408" lon="1.22395">
        <ele>193.2</ele>
        <time>2024-07-23T12:03:14Z</time>
      </trkpt>
      <trkpt lat="44.64408" lon="1.22391">
        <ele>193</ele>
        <time>2024-07-23T12:03:15Z</time>
      </trkpt>
      <trkpt lat="44.64409" lon="1.22388">
        <ele>193</ele>
        <time>2024-07-23T12:03:16Z</time>
      </trkpt>
      <trkpt lat="44.64409" lon="1.2237">
        <ele>192.6</ele>
        <time>2024-07-23T12:03:21Z</time>
      </trkpt>
      <trkpt lat="44.6441" lon="1.22367">
        <ele>192.6</ele>
        <time>2024-07-23T12:03:22Z</time>
      </trkpt>
      <trkpt lat="44.6441" lon="1.22364">
        <ele>192.6</ele>
        <time>2024-07-23T12:03:23Z</time>
      </trkpt>
      <trkpt lat="44.64409" lon="1.22359">
        <ele>192.6</ele>
        <time>2024-07-23T12:03:24Z</time>
      </trkpt>
      <trkpt lat="44.64408" lon="1.22354">
        <ele>192.6</ele>
        <time>2024-07-23T12:03:25Z</time>
      </trkpt>
      <trkpt lat="44.64409" lon="1.22351">
        <ele>192.6</ele>
        <time>2024-07-23T12:03:26Z</time>
      </trkpt>
      <trkpt lat="44.64413" lon="1.22332">
        <ele>192.6</ele>
        <time>2024-07-23T12:03:31Z</time>
      </trkpt>
      <trkpt lat="44.64416" lon="1.2232">
        <ele>192.6</ele>
        <time>2024-07-23T12:03:35Z</time>
      </trkpt>
      <trkpt lat="44.64417" lon="1.22317">
        <ele>192.6</ele>
        <time>2024-07-23T12:03:36Z</time>
      </trkpt>
      <trkpt lat="44.64419" lon="1.22306">
        <ele>192.8</ele>
        <time>2024-07-23T12:03:39Z</time>
      </trkpt>
      <trkpt lat="44.64419" lon="1.22301">
        <ele>192.8</ele>
        <time>2024-07-23T12:03:40Z</time>
      </trkpt>
      <trkpt lat="44.64418" lon="1.22297">
        <ele>193</ele>
        <time>2024-07-23T12:03:41Z</time>
      </trkpt>
      <trkpt lat="44.64418" lon="1.22294">
        <ele>193</ele>
        <time>2024-07-23T12:03:42Z</time>
      </trkpt>
      <trkpt lat="44.64418" lon="1.22291">
        <ele>193.2</ele>
        <time>2024-07-23T12:03:43Z</time>
      </trkpt>
      <trkpt lat="44.64417" lon="1.22283">
        <ele>193.4</ele>
        <time>2024-07-23T12:03:45Z</time>
      </trkpt>
      <trkpt lat="44.64417" lon="1.22279">
        <ele>193.4</ele>
        <time>2024-07-23T12:03:46Z</time>
      </trkpt>
      <trkpt lat="44.64417" lon="1.22276">
        <ele>193.6</ele>
        <time>2024-07-23T12:03:47Z</time>
      </trkpt>
      <trkpt lat="44.64417" lon="1.22272">
        <ele>193.6</ele>
        <time>2024-07-23T12:03:48Z</time>
      </trkpt>
      <trkpt lat="44.64417" lon="1.22269">
        <ele>193.6</ele>
        <time>2024-07-23T12:03:49Z</time>
      </trkpt>
      <trkpt lat="44.64417" lon="1.22266">
        <ele>193.8</ele>
        <time>2024-07-23T12:03:50Z</time>
      </trkpt>
      <trkpt lat="44.64418" lon="1.22263">
        <ele>193.8</ele>
        <time>2024-07-23T12:03:51Z</time>
      </trkpt>
      <trkpt lat="44.64418" lon="1.2226">
        <ele>193.8</ele>
        <time>2024-07-23T12:03:52Z</time>
      </trkpt>
      <trkpt lat="44.64418" lon="1.22241">
        <ele>194</ele>
        <time>2024-07-23T12:03:57Z</time>
      </trkpt>
      <trkpt lat="44.64419" lon="1.22208">
        <ele>193.8</ele>
        <time>2024-07-23T12:04:04Z</time>
      </trkpt>
      <trkpt lat="44.6442" lon="1.22201">
        <ele>193.6</ele>
        <time>2024-07-23T12:04:05Z</time>
      </trkpt>
      <trkpt lat="44.64421" lon="1.22195">
        <ele>193.6</ele>
        <time>2024-07-23T12:04:06Z</time>
      </trkpt>
      <trkpt lat="44.64423" lon="1.22182">
        <ele>193.2</ele>
        <time>2024-07-23T12:04:08Z</time>
      </trkpt>
      <trkpt lat="44.64425" lon="1.22175">
        <ele>193</ele>
        <time>2024-07-23T12:04:09Z</time>
      </trkpt>
      <trkpt lat="44.64427" lon="1.22151">
        <ele>192.2</ele>
        <time>2024-07-23T12:04:12Z</time>
      </trkpt>
      <trkpt lat="44.64427" lon="1.22142">
        <ele>192.2</ele>
        <time>2024-07-23T12:04:13Z</time>
      </trkpt>
      <trkpt lat="44.64427" lon="1.22132">
        <ele>191.8</ele>
        <time>2024-07-23T12:04:14Z</time>
      </trkpt>
      <trkpt lat="44.64422" lon="1.22102">
        <ele>190.6</ele>
        <time>2024-07-23T12:04:17Z</time>
      </trkpt>
      <trkpt lat="44.6442" lon="1.22092">
        <ele>190.4</ele>
        <time>2024-07-23T12:04:18Z</time>
      </trkpt>
      <trkpt lat="44.64417" lon="1.22073">
        <ele>190</ele>
        <time>2024-07-23T12:04:20Z</time>
      </trkpt>
      <trkpt lat="44.64415" lon="1.22063">
        <ele>189.6</ele>
        <time>2024-07-23T12:04:21Z</time>
      </trkpt>
      <trkpt lat="44.64413" lon="1.22054">
        <ele>189.4</ele>
        <time>2024-07-23T12:04:22Z</time>
      </trkpt>
      <trkpt lat="44.64411" lon="1.22044">
        <ele>189</ele>
        <time>2024-07-23T12:04:23Z</time>
      </trkpt>
      <trkpt lat="44.644" lon="1.22004">
        <ele>188.2</ele>
        <time>2024-07-23T12:04:27Z</time>
      </trkpt>
      <trkpt lat="44.64398" lon="1.21995">
        <ele>188.2</ele>
        <time>2024-07-23T12:04:28Z</time>
      </trkpt>
      <trkpt lat="44.64396" lon="1.21985">
        <ele>188.2</ele>
        <time>2024-07-23T12:04:29Z</time>
      </trkpt>
      <trkpt lat="44.64395" lon="1.21976">
        <ele>188</ele>
        <time>2024-07-23T12:04:30Z</time>
      </trkpt>
      <trkpt lat="44.64393" lon="1.21967">
        <ele>188</ele>
        <time>2024-07-23T12:04:31Z</time>
      </trkpt>
      <trkpt lat="44.64392" lon="1.21959">
        <ele>187.8</ele>
        <time>2024-07-23T12:04:32Z</time>
      </trkpt>
      <trkpt lat="44.6439" lon="1.21951">
        <ele>187.6</ele>
        <time>2024-07-23T12:04:33Z</time>
      </trkpt>
      <trkpt lat="44.64389" lon="1.21943">
        <ele>187.4</ele>
        <time>2024-07-23T12:04:34Z</time>
      </trkpt>
      <trkpt lat="44.64388" lon="1.21936">
        <ele>187.4</ele>
        <time>2024-07-23T12:04:35Z</time>
      </trkpt>
      <trkpt lat="44.64387" lon="1.21928">
        <ele>187.4</ele>
        <time>2024-07-23T12:04:36Z</time>
      </trkpt>
      <trkpt lat="44.64386" lon="1.21921">
        <ele>187.4</ele>
        <time>2024-07-23T12:04:37Z</time>
      </trkpt>
      <trkpt lat="44.64385" lon="1.21916">
        <ele>187.4</ele>
        <time>2024-07-23T12:04:38Z</time>
      </trkpt>
      <trkpt lat="44.64384" lon="1.2191">
        <ele>187.4</ele>
        <time>2024-07-23T12:04:39Z</time>
      </trkpt>
      <trkpt lat="44.64383" lon="1.21904">
        <ele>187.4</ele>
        <time>2024-07-23T12:04:40Z</time>
      </trkpt>
      <trkpt lat="44.64381" lon="1.219">
        <ele>187.4</ele>
        <time>2024-07-23T12:04:41Z</time>
      </trkpt>
      <trkpt lat="44.6438" lon="1.21897">
        <ele>187.4</ele>
        <time>2024-07-23T12:04:42Z</time>
      </trkpt>
      <trkpt lat="44.64377" lon="1.21894">
        <ele>187.4</ele>
        <time>2024-07-23T12:04:43Z</time>
      </trkpt>
      <trkpt lat="44.64375" lon="1.21891">
        <ele>187.4</ele>
        <time>2024-07-23T12:04:44Z</time>
      </trkpt>
      <trkpt lat="44.64373" lon="1.21888">
        <ele>187.6</ele>
        <time>2024-07-23T12:04:45Z</time>
      </trkpt>
      <trkpt lat="44.64371" lon="1.21885">
        <ele>187.6</ele>
        <time>2024-07-23T12:04:46Z</time>
      </trkpt>
      <trkpt lat="44.64361" lon="1.21877">
        <ele>187.6</ele>
        <time>2024-07-23T12:04:49Z</time>
      </trkpt>
      <trkpt lat="44.64337" lon="1.21862">
        <ele>187.8</ele>
        <time>2024-07-23T12:04:56Z</time>
      </trkpt>
      <trkpt lat="44.64332" lon="1.21859">
        <ele>188</ele>
        <time>2024-07-23T12:04:58Z</time>
      </trkpt>
      <trkpt lat="44.64329" lon="1.21857">
        <ele>188</ele>
        <time>2024-07-23T12:04:59Z</time>
      </trkpt>
      <trkpt lat="44.64326" lon="1.21856">
        <ele>188</ele>
        <time>2024-07-23T12:05:00Z</time>
      </trkpt>
      <trkpt lat="44.64323" lon="1.21854">
        <ele>188</ele>
        <time>2024-07-23T12:05:01Z</time>
      </trkpt>
      <trkpt lat="44.6432" lon="1.21854">
        <ele>188</ele>
        <time>2024-07-23T12:05:02Z</time>
      </trkpt>
      <trkpt lat="44.64316" lon="1.21853">
        <ele>188</ele>
        <time>2024-07-23T12:05:03Z</time>
      </trkpt>
      <trkpt lat="44.64293" lon="1.21847">
        <ele>188.2</ele>
        <time>2024-07-23T12:05:09Z</time>
      </trkpt>
      <trkpt lat="44.64289" lon="1.21846">
        <ele>188.2</ele>
        <time>2024-07-23T12:05:10Z</time>
      </trkpt>
      <trkpt lat="44.64285" lon="1.21845">
        <ele>188.2</ele>
        <time>2024-07-23T12:05:11Z</time>
      </trkpt>
      <trkpt lat="44.64281" lon="1.21843">
        <ele>188</ele>
        <time>2024-07-23T12:05:12Z</time>
      </trkpt>
      <trkpt lat="44.64268" lon="1.21839">
        <ele>187.8</ele>
        <time>2024-07-23T12:05:15Z</time>
      </trkpt>
      <trkpt lat="44.64254" lon="1.21839">
        <ele>187.6</ele>
        <time>2024-07-23T12:05:18Z</time>
      </trkpt>
      <trkpt lat="44.64251" lon="1.2184">
        <ele>187.6</ele>
        <time>2024-07-23T12:05:19Z</time>
      </trkpt>
      <trkpt lat="44.64247" lon="1.21842">
        <ele>187.6</ele>
        <time>2024-07-23T12:05:20Z</time>
      </trkpt>
      <trkpt lat="44.64229" lon="1.21851">
        <ele>187.2</ele>
        <time>2024-07-23T12:05:24Z</time>
      </trkpt>
      <trkpt lat="44.6422" lon="1.21856">
        <ele>187.2</ele>
        <time>2024-07-23T12:05:26Z</time>
      </trkpt>
      <trkpt lat="44.64188" lon="1.21875">
        <ele>186.6</ele>
        <time>2024-07-23T12:05:33Z</time>
      </trkpt>
      <trkpt lat="44.64184" lon="1.21876">
        <ele>186.4</ele>
        <time>2024-07-23T12:05:34Z</time>
      </trkpt>
      <trkpt lat="44.6417" lon="1.21879">
        <ele>186.2</ele>
        <time>2024-07-23T12:05:37Z</time>
      </trkpt>
      <trkpt lat="44.64165" lon="1.21879">
        <ele>186</ele>
        <time>2024-07-23T12:05:38Z</time>
      </trkpt>
      <trkpt lat="44.64161" lon="1.2188">
        <ele>186</ele>
        <time>2024-07-23T12:05:39Z</time>
      </trkpt>
      <trkpt lat="44.64157" lon="1.2188">
        <ele>185.8</ele>
        <time>2024-07-23T12:05:40Z</time>
      </trkpt>
      <trkpt lat="44.64153" lon="1.2188">
        <ele>185.8</ele>
        <time>2024-07-23T12:05:41Z</time>
      </trkpt>
      <trkpt lat="44.64149" lon="1.21879">
        <ele>185.8</ele>
        <time>2024-07-23T12:05:42Z</time>
      </trkpt>
      <trkpt lat="44.64134" lon="1.21877">
        <ele>185.6</ele>
        <time>2024-07-23T12:05:46Z</time>
      </trkpt>
      <trkpt lat="44.64131" lon="1.21876">
        <ele>185.6</ele>
        <time>2024-07-23T12:05:47Z</time>
      </trkpt>
      <trkpt lat="44.64128" lon="1.21875">
        <ele>185.6</ele>
        <time>2024-07-23T12:05:48Z</time>
      </trkpt>
      <trkpt lat="44.64124" lon="1.21874">
        <ele>185.6</ele>
        <time>2024-07-23T12:05:49Z</time>
      </trkpt>
      <trkpt lat="44.64121" lon="1.21873">
        <ele>185.8</ele>
        <time>2024-07-23T12:05:50Z</time>
      </trkpt>
      <trkpt lat="44.64118" lon="1.21873">
        <ele>185.8</ele>
        <time>2024-07-23T12:05:51Z</time>
      </trkpt>
      <trkpt lat="44.64116" lon="1.21873">
        <ele>186</ele>
        <time>2024-07-23T12:05:52Z</time>
      </trkpt>
      <trkpt lat="44.64112" lon="1.21872">
        <ele>186.2</ele>
        <time>2024-07-23T12:05:53Z</time>
      </trkpt>
      <trkpt lat="44.64109" lon="1.21872">
        <ele>186.2</ele>
        <time>2024-07-23T12:05:54Z</time>
      </trkpt>
      <trkpt lat="44.641" lon="1.21871">
        <ele>186.6</ele>
        <time>2024-07-23T12:05:57Z</time>
      </trkpt>
      <trkpt lat="44.64097" lon="1.2187">
        <ele>186.8</ele>
        <time>2024-07-23T12:05:58Z</time>
      </trkpt>
      <trkpt lat="44.64094" lon="1.21871">
        <ele>186.8</ele>
        <time>2024-07-23T12:05:59Z</time>
      </trkpt>
      <trkpt lat="44.6409" lon="1.2187">
        <ele>187</ele>
        <time>2024-07-23T12:06:00Z</time>
      </trkpt>
      <trkpt lat="44.64079" lon="1.21869">
        <ele>187.4</ele>
        <time>2024-07-23T12:06:03Z</time>
      </trkpt>
      <trkpt lat="44.6405" lon="1.21865">
        <ele>188.2</ele>
        <time>2024-07-23T12:06:11Z</time>
      </trkpt>
      <trkpt lat="44.64047" lon="1.21865">
        <ele>188.2</ele>
        <time>2024-07-23T12:06:12Z</time>
      </trkpt>
      <trkpt lat="44.64043" lon="1.21864">
        <ele>188.4</ele>
        <time>2024-07-23T12:06:13Z</time>
      </trkpt>
      <trkpt lat="44.64039" lon="1.21864">
        <ele>188.6</ele>
        <time>2024-07-23T12:06:14Z</time>
      </trkpt>
      <trkpt lat="44.64036" lon="1.21863">
        <ele>188.8</ele>
        <time>2024-07-23T12:06:15Z</time>
      </trkpt>
      <trkpt lat="44.64034" lon="1.21864">
        <ele>189</ele>
        <time>2024-07-23T12:06:16Z</time>
      </trkpt>
      <trkpt lat="44.64031" lon="1.21862">
        <ele>189.2</ele>
        <time>2024-07-23T12:06:17Z</time>
      </trkpt>
      <trkpt lat="44.64029" lon="1.21862">
        <ele>189.2</ele>
        <time>2024-07-23T12:06:18Z</time>
      </trkpt>
      <trkpt lat="44.64026" lon="1.21862">
        <ele>189.4</ele>
        <time>2024-07-23T12:06:19Z</time>
      </trkpt>
      <trkpt lat="44.64024" lon="1.21862">
        <ele>189.4</ele>
        <time>2024-07-23T12:06:20Z</time>
      </trkpt>
      <trkpt lat="44.64021" lon="1.21861">
        <ele>189.4</ele>
        <time>2024-07-23T12:06:21Z</time>
      </trkpt>
      <trkpt lat="44.64019" lon="1.21861">
        <ele>189.6</ele>
        <time>2024-07-23T12:06:22Z</time>
      </trkpt>
      <trkpt lat="44.64016" lon="1.2186">
        <ele>189.6</ele>
        <time>2024-07-23T12:06:23Z</time>
      </trkpt>
      <trkpt lat="44.64014" lon="1.2186">
        <ele>189.8</ele>
        <time>2024-07-23T12:06:24Z</time>
      </trkpt>
      <trkpt lat="44.64012" lon="1.21859">
        <ele>189.8</ele>
        <time>2024-07-23T12:06:25Z</time>
      </trkpt>
      <trkpt lat="44.64011" lon="1.21859">
        <ele>190</ele>
        <time>2024-07-23T12:06:26Z</time>
      </trkpt>
      <trkpt lat="44.64009" lon="1.21858">
        <ele>190.2</ele>
        <time>2024-07-23T12:06:27Z</time>
      </trkpt>
      <trkpt lat="44.64008" lon="1.21856">
        <ele>190.4</ele>
        <time>2024-07-23T12:06:28Z</time>
      </trkpt>
      <trkpt lat="44.64008" lon="1.21854">
        <ele>190.4</ele>
        <time>2024-07-23T12:06:29Z</time>
      </trkpt>
      <trkpt lat="44.64007" lon="1.21851">
        <ele>190.6</ele>
        <time>2024-07-23T12:06:30Z</time>
      </trkpt>
      <trkpt lat="44.64007" lon="1.21848">
        <ele>190.6</ele>
        <time>2024-07-23T12:06:31Z</time>
      </trkpt>
      <trkpt lat="44.64006" lon="1.21846">
        <ele>190.8</ele>
        <time>2024-07-23T12:06:32Z</time>
      </trkpt>
      <trkpt lat="44.64006" lon="1.21842">
        <ele>190.8</ele>
        <time>2024-07-23T12:06:33Z</time>
      </trkpt>
      <trkpt lat="44.64005" lon="1.21839">
        <ele>191</ele>
        <time>2024-07-23T12:06:34Z</time>
      </trkpt>
      <trkpt lat="44.64004" lon="1.21836">
        <ele>191</ele>
        <time>2024-07-23T12:06:35Z</time>
      </trkpt>
      <trkpt lat="44.64004" lon="1.21832">
        <ele>191.2</ele>
        <time>2024-07-23T12:06:36Z</time>
      </trkpt>
      <trkpt lat="44.64003" lon="1.21828">
        <ele>191.2</ele>
        <time>2024-07-23T12:06:37Z</time>
      </trkpt>
      <trkpt lat="44.64002" lon="1.21825">
        <ele>191.6</ele>
        <time>2024-07-23T12:06:38Z</time>
      </trkpt>
      <trkpt lat="44.64002" lon="1.21821">
        <ele>191.6</ele>
        <time>2024-07-23T12:06:39Z</time>
      </trkpt>
      <trkpt lat="44.64001" lon="1.21817">
        <ele>191.6</ele>
        <time>2024-07-23T12:06:40Z</time>
      </trkpt>
      <trkpt lat="44.64" lon="1.21814">
        <ele>191.8</ele>
        <time>2024-07-23T12:06:41Z</time>
      </trkpt>
      <trkpt lat="44.63999" lon="1.2181">
        <ele>191.8</ele>
        <time>2024-07-23T12:06:42Z</time>
      </trkpt>
      <trkpt lat="44.63997" lon="1.21806">
        <ele>191.8</ele>
        <time>2024-07-23T12:06:43Z</time>
      </trkpt>
      <trkpt lat="44.63997" lon="1.21802">
        <ele>192</ele>
        <time>2024-07-23T12:06:44Z</time>
      </trkpt>
      <trkpt lat="44.63996" lon="1.21798">
        <ele>192</ele>
        <time>2024-07-23T12:06:45Z</time>
      </trkpt>
      <trkpt lat="44.63995" lon="1.21794">
        <ele>192</ele>
        <time>2024-07-23T12:06:46Z</time>
      </trkpt>
      <trkpt lat="44.63994" lon="1.21791">
        <ele>192</ele>
        <time>2024-07-23T12:06:47Z</time>
      </trkpt>
      <trkpt lat="44.63993" lon="1.21787">
        <ele>192.2</ele>
        <time>2024-07-23T12:06:48Z</time>
      </trkpt>
      <trkpt lat="44.63992" lon="1.21783">
        <ele>192.4</ele>
        <time>2024-07-23T12:06:49Z</time>
      </trkpt>
      <trkpt lat="44.63991" lon="1.21779">
        <ele>192.4</ele>
        <time>2024-07-23T12:06:50Z</time>
      </trkpt>
      <trkpt lat="44.63991" lon="1.21775">
        <ele>192.6</ele>
        <time>2024-07-23T12:06:51Z</time>
      </trkpt>
      <trkpt lat="44.6399" lon="1.21771">
        <ele>192.6</ele>
        <time>2024-07-23T12:06:52Z</time>
      </trkpt>
      <trkpt lat="44.63989" lon="1.21768">
        <ele>192.8</ele>
        <time>2024-07-23T12:06:53Z</time>
      </trkpt>
      <trkpt lat="44.63986" lon="1.21756">
        <ele>193.2</ele>
        <time>2024-07-23T12:06:56Z</time>
      </trkpt>
      <trkpt lat="44.63983" lon="1.21742">
        <ele>193.4</ele>
        <time>2024-07-23T12:07:00Z</time>
      </trkpt>
      <trkpt lat="44.63979" lon="1.21731">
        <ele>193.8</ele>
        <time>2024-07-23T12:07:03Z</time>
      </trkpt>
      <trkpt lat="44.63978" lon="1.21728">
        <ele>193.8</ele>
        <time>2024-07-23T12:07:04Z</time>
      </trkpt>
      <trkpt lat="44.63977" lon="1.21724">
        <ele>194</ele>
        <time>2024-07-23T12:07:05Z</time>
      </trkpt>
      <trkpt lat="44.63976" lon="1.21721">
        <ele>194.2</ele>
        <time>2024-07-23T12:07:06Z</time>
      </trkpt>
      <trkpt lat="44.63975" lon="1.21717">
        <ele>194.2</ele>
        <time>2024-07-23T12:07:07Z</time>
      </trkpt>
      <trkpt lat="44.63974" lon="1.21714">
        <ele>194.2</ele>
        <time>2024-07-23T12:07:08Z</time>
      </trkpt>
      <trkpt lat="44.63973" lon="1.21711">
        <ele>194.4</ele>
        <time>2024-07-23T12:07:09Z</time>
      </trkpt>
      <trkpt lat="44.63972" lon="1.21709">
        <ele>194.4</ele>
        <time>2024-07-23T12:07:10Z</time>
      </trkpt>
      <trkpt lat="44.63971" lon="1.21707">
        <ele>194.4</ele>
        <time>2024-07-23T12:07:11Z</time>
      </trkpt>
      <trkpt lat="44.6397" lon="1.21704">
        <ele>194.6</ele>
        <time>2024-07-23T12:07:12Z</time>
      </trkpt>
      <trkpt lat="44.63969" lon="1.21701">
        <ele>194.8</ele>
        <time>2024-07-23T12:07:13Z</time>
      </trkpt>
      <trkpt lat="44.63968" lon="1.21698">
        <ele>195</ele>
        <time>2024-07-23T12:07:14Z</time>
      </trkpt>
      <trkpt lat="44.63967" lon="1.21695">
        <ele>195.2</ele>
        <time>2024-07-23T12:07:15Z</time>
      </trkpt>
      <trkpt lat="44.63966" lon="1.21692">
        <ele>195.2</ele>
        <time>2024-07-23T12:07:16Z</time>
      </trkpt>
      <trkpt lat="44.63964" lon="1.2169">
        <ele>195.4</ele>
        <time>2024-07-23T12:07:17Z</time>
      </trkpt>
      <trkpt lat="44.63963" lon="1.21687">
        <ele>195.4</ele>
        <time>2024-07-23T12:07:18Z</time>
      </trkpt>
      <trkpt lat="44.63962" lon="1.21684">
        <ele>195.4</ele>
        <time>2024-07-23T12:07:19Z</time>
      </trkpt>
      <trkpt lat="44.63961" lon="1.21682">
        <ele>195.4</ele>
        <time>2024-07-23T12:07:20Z</time>
      </trkpt>
      <trkpt lat="44.63959" lon="1.21679">
        <ele>195.6</ele>
        <time>2024-07-23T12:07:21Z</time>
      </trkpt>
      <trkpt lat="44.63958" lon="1.21676">
        <ele>195.6</ele>
        <time>2024-07-23T12:07:22Z</time>
      </trkpt>
      <trkpt lat="44.63957" lon="1.21673">
        <ele>195.8</ele>
        <time>2024-07-23T12:07:23Z</time>
      </trkpt>
      <trkpt lat="44.63956" lon="1.21671">
        <ele>195.8</ele>
        <time>2024-07-23T12:07:24Z</time>
      </trkpt>
      <trkpt lat="44.63955" lon="1.21668">
        <ele>195.8</ele>
        <time>2024-07-23T12:07:25Z</time>
      </trkpt>
      <trkpt lat="44.63953" lon="1.21665">
        <ele>196</ele>
        <time>2024-07-23T12:07:26Z</time>
      </trkpt>
      <trkpt lat="44.63952" lon="1.21662">
        <ele>196.2</ele>
        <time>2024-07-23T12:07:27Z</time>
      </trkpt>
      <trkpt lat="44.63944" lon="1.21644">
        <ele>196.6</ele>
        <time>2024-07-23T12:07:33Z</time>
      </trkpt>
      <trkpt lat="44.63941" lon="1.21639">
        <ele>197</ele>
        <time>2024-07-23T12:07:35Z</time>
      </trkpt>
      <trkpt lat="44.63927" lon="1.21617">
        <ele>197.4</ele>
        <time>2024-07-23T12:07:43Z</time>
      </trkpt>
      <trkpt lat="44.63914" lon="1.21599">
        <ele>198</ele>
        <time>2024-07-23T12:07:50Z</time>
      </trkpt>
      <trkpt lat="44.6391" lon="1.21596">
        <ele>198.2</ele>
        <time>2024-07-23T12:07:52Z</time>
      </trkpt>
      <trkpt lat="44.63908" lon="1.21594">
        <ele>198.4</ele>
        <time>2024-07-23T12:07:53Z</time>
      </trkpt>
      <trkpt lat="44.63906" lon="1.21592">
        <ele>198.4</ele>
        <time>2024-07-23T12:07:54Z</time>
      </trkpt>
      <trkpt lat="44.63904" lon="1.2159">
        <ele>198.6</ele>
        <time>2024-07-23T12:07:55Z</time>
      </trkpt>
      <trkpt lat="44.63903" lon="1.21588">
        <ele>198.6</ele>
        <time>2024-07-23T12:07:56Z</time>
      </trkpt>
      <trkpt lat="44.639" lon="1.21586">
        <ele>198.8</ele>
        <time>2024-07-23T12:07:57Z</time>
      </trkpt>
      <trkpt lat="44.63898" lon="1.21584">
        <ele>198.8</ele>
        <time>2024-07-23T12:07:58Z</time>
      </trkpt>
      <trkpt lat="44.63896" lon="1.21582">
        <ele>198.8</ele>
        <time>2024-07-23T12:07:59Z</time>
      </trkpt>
      <trkpt lat="44.63894" lon="1.2158">
        <ele>198.8</ele>
        <time>2024-07-23T12:08:00Z</time>
      </trkpt>
      <trkpt lat="44.63891" lon="1.21578">
        <ele>199</ele>
        <time>2024-07-23T12:08:01Z</time>
      </trkpt>
      <trkpt lat="44.63877" lon="1.21559">
        <ele>200</ele>
        <time>2024-07-23T12:08:09Z</time>
      </trkpt>
      <trkpt lat="44.63876" lon="1.21557">
        <ele>200</ele>
        <time>2024-07-23T12:08:10Z</time>
      </trkpt>
      <trkpt lat="44.63868" lon="1.21546">
        <ele>200.2</ele>
        <time>2024-07-23T12:08:14Z</time>
      </trkpt>
      <trkpt lat="44.63867" lon="1.21543">
        <ele>200.4</ele>
        <time>2024-07-23T12:08:15Z</time>
      </trkpt>
      <trkpt lat="44.63865" lon="1.2154">
        <ele>200.4</ele>
        <time>2024-07-23T12:08:16Z</time>
      </trkpt>
      <trkpt lat="44.63861" lon="1.21532">
        <ele>200.6</ele>
        <time>2024-07-23T12:08:19Z</time>
      </trkpt>
      <trkpt lat="44.63857" lon="1.21524">
        <ele>201</ele>
        <time>2024-07-23T12:08:22Z</time>
      </trkpt>
      <trkpt lat="44.63856" lon="1.21522">
        <ele>201</ele>
        <time>2024-07-23T12:08:23Z</time>
      </trkpt>
      <trkpt lat="44.63855" lon="1.21519">
        <ele>201.2</ele>
        <time>2024-07-23T12:08:24Z</time>
      </trkpt>
      <trkpt lat="44.63854" lon="1.21516">
        <ele>201.4</ele>
        <time>2024-07-23T12:08:25Z</time>
      </trkpt>
      <trkpt lat="44.63852" lon="1.21514">
        <ele>201.6</ele>
        <time>2024-07-23T12:08:26Z</time>
      </trkpt>
      <trkpt lat="44.63851" lon="1.21511">
        <ele>201.8</ele>
        <time>2024-07-23T12:08:27Z</time>
      </trkpt>
      <trkpt lat="44.63849" lon="1.21509">
        <ele>201.8</ele>
        <time>2024-07-23T12:08:28Z</time>
      </trkpt>
      <trkpt lat="44.63845" lon="1.21503">
        <ele>202</ele>
        <time>2024-07-23T12:08:30Z</time>
      </trkpt>
      <trkpt lat="44.63842" lon="1.21499">
        <ele>202.4</ele>
        <time>2024-07-23T12:08:32Z</time>
      </trkpt>
      <trkpt lat="44.63841" lon="1.21497">
        <ele>202.4</ele>
        <time>2024-07-23T12:08:33Z</time>
      </trkpt>
      <trkpt lat="44.63839" lon="1.21495">
        <ele>202.6</ele>
        <time>2024-07-23T12:08:34Z</time>
      </trkpt>
      <trkpt lat="44.63838" lon="1.21493">
        <ele>202.6</ele>
        <time>2024-07-23T12:08:35Z</time>
      </trkpt>
      <trkpt lat="44.63837" lon="1.21491">
        <ele>202.8</ele>
        <time>2024-07-23T12:08:36Z</time>
      </trkpt>
      <trkpt lat="44.63835" lon="1.21489">
        <ele>203</ele>
        <time>2024-07-23T12:08:37Z</time>
      </trkpt>
      <trkpt lat="44.63834" lon="1.21487">
        <ele>203.2</ele>
        <time>2024-07-23T12:08:38Z</time>
      </trkpt>
      <trkpt lat="44.63832" lon="1.21485">
        <ele>203.2</ele>
        <time>2024-07-23T12:08:39Z</time>
      </trkpt>
      <trkpt lat="44.6383" lon="1.21482">
        <ele>203.2</ele>
        <time>2024-07-23T12:08:40Z</time>
      </trkpt>
      <trkpt lat="44.63828" lon="1.2148">
        <ele>203.2</ele>
        <time>2024-07-23T12:08:41Z</time>
      </trkpt>
      <trkpt lat="44.63826" lon="1.21478">
        <ele>203.2</ele>
        <time>2024-07-23T12:08:42Z</time>
      </trkpt>
      <trkpt lat="44.63825" lon="1.21476">
        <ele>203.6</ele>
        <time>2024-07-23T12:08:43Z</time>
      </trkpt>
      <trkpt lat="44.63823" lon="1.21473">
        <ele>204</ele>
        <time>2024-07-23T12:08:44Z</time>
      </trkpt>
      <trkpt lat="44.63821" lon="1.21471">
        <ele>204</ele>
        <time>2024-07-23T12:08:45Z</time>
      </trkpt>
      <trkpt lat="44.6382" lon="1.21469">
        <ele>204.2</ele>
        <time>2024-07-23T12:08:46Z</time>
      </trkpt>
      <trkpt lat="44.63819" lon="1.21467">
        <ele>204.2</ele>
        <time>2024-07-23T12:08:47Z</time>
      </trkpt>
      <trkpt lat="44.63817" lon="1.21464">
        <ele>204.6</ele>
        <time>2024-07-23T12:08:48Z</time>
      </trkpt>
      <trkpt lat="44.63816" lon="1.21462">
        <ele>204.6</ele>
        <time>2024-07-23T12:08:49Z</time>
      </trkpt>
      <trkpt lat="44.63814" lon="1.21459">
        <ele>204.8</ele>
        <time>2024-07-23T12:08:50Z</time>
      </trkpt>
      <trkpt lat="44.63813" lon="1.21457">
        <ele>205</ele>
        <time>2024-07-23T12:08:51Z</time>
      </trkpt>
      <trkpt lat="44.63811" lon="1.21454">
        <ele>205</ele>
        <time>2024-07-23T12:08:52Z</time>
      </trkpt>
      <trkpt lat="44.6381" lon="1.21452">
        <ele>205.2</ele>
        <time>2024-07-23T12:08:53Z</time>
      </trkpt>
      <trkpt lat="44.63809" lon="1.21449">
        <ele>205.2</ele>
        <time>2024-07-23T12:08:54Z</time>
      </trkpt>
      <trkpt lat="44.63807" lon="1.21447">
        <ele>205.4</ele>
        <time>2024-07-23T12:08:55Z</time>
      </trkpt>
      <trkpt lat="44.63806" lon="1.21444">
        <ele>205.6</ele>
        <time>2024-07-23T12:08:56Z</time>
      </trkpt>
      <trkpt lat="44.63805" lon="1.21442">
        <ele>205.8</ele>
        <time>2024-07-23T12:08:57Z</time>
      </trkpt>
      <trkpt lat="44.63804" lon="1.2144">
        <ele>206</ele>
        <time>2024-07-23T12:08:58Z</time>
      </trkpt>
      <trkpt lat="44.63803" lon="1.21438">
        <ele>206.2</ele>
        <time>2024-07-23T12:08:59Z</time>
      </trkpt>
      <trkpt lat="44.63802" lon="1.21436">
        <ele>206.4</ele>
        <time>2024-07-23T12:09:00Z</time>
      </trkpt>
      <trkpt lat="44.63801" lon="1.21434">
        <ele>206.6</ele>
        <time>2024-07-23T12:09:01Z</time>
      </trkpt>
      <trkpt lat="44.638" lon="1.21431">
        <ele>206.8</ele>
        <time>2024-07-23T12:09:02Z</time>
      </trkpt>
      <trkpt lat="44.63799" lon="1.21429">
        <ele>207</ele>
        <time>2024-07-23T12:09:03Z</time>
      </trkpt>
      <trkpt lat="44.63798" lon="1.21427">
        <ele>207</ele>
        <time>2024-07-23T12:09:04Z</time>
      </trkpt>
      <trkpt lat="44.63798" lon="1.21425">
        <ele>207.4</ele>
        <time>2024-07-23T12:09:05Z</time>
      </trkpt>
      <trkpt lat="44.63797" lon="1.21423">
        <ele>207.6</ele>
        <time>2024-07-23T12:09:06Z</time>
      </trkpt>
      <trkpt lat="44.63796" lon="1.2142">
        <ele>207.6</ele>
        <time>2024-07-23T12:09:07Z</time>
      </trkpt>
      <trkpt lat="44.63794" lon="1.21418">
        <ele>207.8</ele>
        <time>2024-07-23T12:09:08Z</time>
      </trkpt>
      <trkpt lat="44.63793" lon="1.21415">
        <ele>207.8</ele>
        <time>2024-07-23T12:09:09Z</time>
      </trkpt>
      <trkpt lat="44.63792" lon="1.21412">
        <ele>208</ele>
        <time>2024-07-23T12:09:10Z</time>
      </trkpt>
      <trkpt lat="44.63791" lon="1.2141">
        <ele>208</ele>
        <time>2024-07-23T12:09:11Z</time>
      </trkpt>
      <trkpt lat="44.6379" lon="1.21408">
        <ele>208.4</ele>
        <time>2024-07-23T12:09:12Z</time>
      </trkpt>
      <trkpt lat="44.6379" lon="1.21406">
        <ele>208.8</ele>
        <time>2024-07-23T12:09:13Z</time>
      </trkpt>
      <trkpt lat="44.63789" lon="1.21404">
        <ele>208.6</ele>
        <time>2024-07-23T12:09:14Z</time>
      </trkpt>
      <trkpt lat="44.63788" lon="1.21402">
        <ele>208.8</ele>
        <time>2024-07-23T12:09:15Z</time>
      </trkpt>
      <trkpt lat="44.63788" lon="1.21399">
        <ele>209</ele>
        <time>2024-07-23T12:09:16Z</time>
      </trkpt>
      <trkpt lat="44.63786" lon="1.21396">
        <ele>209.2</ele>
        <time>2024-07-23T12:09:17Z</time>
      </trkpt>
      <trkpt lat="44.63786" lon="1.21394">
        <ele>209.4</ele>
        <time>2024-07-23T12:09:18Z</time>
      </trkpt>
      <trkpt lat="44.63784" lon="1.21391">
        <ele>209.4</ele>
        <time>2024-07-23T12:09:19Z</time>
      </trkpt>
      <trkpt lat="44.63783" lon="1.21387">
        <ele>209.6</ele>
        <time>2024-07-23T12:09:20Z</time>
      </trkpt>
      <trkpt lat="44.63782" lon="1.21384">
        <ele>209.6</ele>
        <time>2024-07-23T12:09:21Z</time>
      </trkpt>
      <trkpt lat="44.63781" lon="1.21382">
        <ele>209.8</ele>
        <time>2024-07-23T12:09:22Z</time>
      </trkpt>
      <trkpt lat="44.63781" lon="1.21379">
        <ele>209.8</ele>
        <time>2024-07-23T12:09:23Z</time>
      </trkpt>
      <trkpt lat="44.6378" lon="1.21377">
        <ele>210</ele>
        <time>2024-07-23T12:09:24Z</time>
      </trkpt>
      <trkpt lat="44.63778" lon="1.21373">
        <ele>210.2</ele>
        <time>2024-07-23T12:09:25Z</time>
      </trkpt>
      <trkpt lat="44.63777" lon="1.2137">
        <ele>210.2</ele>
        <time>2024-07-23T12:09:26Z</time>
      </trkpt>
      <trkpt lat="44.63777" lon="1.21367">
        <ele>210.6</ele>
        <time>2024-07-23T12:09:27Z</time>
      </trkpt>
      <trkpt lat="44.63776" lon="1.21365">
        <ele>210.6</ele>
        <time>2024-07-23T12:09:28Z</time>
      </trkpt>
      <trkpt lat="44.63775" lon="1.21362">
        <ele>210.6</ele>
        <time>2024-07-23T12:09:29Z</time>
      </trkpt>
      <trkpt lat="44.63774" lon="1.21359">
        <ele>210.8</ele>
        <time>2024-07-23T12:09:30Z</time>
      </trkpt>
      <trkpt lat="44.63773" lon="1.21356">
        <ele>210.8</ele>
        <time>2024-07-23T12:09:31Z</time>
      </trkpt>
      <trkpt lat="44.63773" lon="1.21353">
        <ele>210.8</ele>
        <time>2024-07-23T12:09:32Z</time>
      </trkpt>
      <trkpt lat="44.63772" lon="1.2135">
        <ele>211</ele>
        <time>2024-07-23T12:09:33Z</time>
      </trkpt>
      <trkpt lat="44.63771" lon="1.21347">
        <ele>211</ele>
        <time>2024-07-23T12:09:34Z</time>
      </trkpt>
      <trkpt lat="44.63771" lon="1.21345">
        <ele>211</ele>
        <time>2024-07-23T12:09:35Z</time>
      </trkpt>
      <trkpt lat="44.6377" lon="1.21342">
        <ele>211.2</ele>
        <time>2024-07-23T12:09:36Z</time>
      </trkpt>
      <trkpt lat="44.63769" lon="1.2134">
        <ele>211.4</ele>
        <time>2024-07-23T12:09:37Z</time>
      </trkpt>
      <trkpt lat="44.63767" lon="1.21337">
        <ele>211.6</ele>
        <time>2024-07-23T12:09:38Z</time>
      </trkpt>
      <trkpt lat="44.63766" lon="1.21334">
        <ele>211.8</ele>
        <time>2024-07-23T12:09:39Z</time>
      </trkpt>
      <trkpt lat="44.63766" lon="1.21331">
        <ele>212</ele>
        <time>2024-07-23T12:09:40Z</time>
      </trkpt>
      <trkpt lat="44.63765" lon="1.21328">
        <ele>212.2</ele>
        <time>2024-07-23T12:09:41Z</time>
      </trkpt>
      <trkpt lat="44.63764" lon="1.21326">
        <ele>212.6</ele>
        <time>2024-07-23T12:09:42Z</time>
      </trkpt>
      <trkpt lat="44.63763" lon="1.21324">
        <ele>212.6</ele>
        <time>2024-07-23T12:09:43Z</time>
      </trkpt>
      <trkpt lat="44.63762" lon="1.21321">
        <ele>212.8</ele>
        <time>2024-07-23T12:09:44Z</time>
      </trkpt>
      <trkpt lat="44.63761" lon="1.2132">
        <ele>212.8</ele>
        <time>2024-07-23T12:09:45Z</time>
      </trkpt>
      <trkpt lat="44.63761" lon="1.21318">
        <ele>213</ele>
        <time>2024-07-23T12:09:46Z</time>
      </trkpt>
      <trkpt lat="44.6376" lon="1.21316">
        <ele>213.2</ele>
        <time>2024-07-23T12:09:47Z</time>
      </trkpt>
      <trkpt lat="44.6376" lon="1.21314">
        <ele>213.4</ele>
        <time>2024-07-23T12:09:48Z</time>
      </trkpt>
      <trkpt lat="44.63759" lon="1.21312">
        <ele>213.4</ele>
        <time>2024-07-23T12:09:49Z</time>
      </trkpt>
      <trkpt lat="44.63758" lon="1.2131">
        <ele>213.4</ele>
        <time>2024-07-23T12:09:50Z</time>
      </trkpt>
      <trkpt lat="44.63757" lon="1.21309">
        <ele>213.6</ele>
        <time>2024-07-23T12:09:51Z</time>
      </trkpt>
      <trkpt lat="44.63756" lon="1.21307">
        <ele>213.6</ele>
        <time>2024-07-23T12:09:52Z</time>
      </trkpt>
      <trkpt lat="44.63756" lon="1.21305">
        <ele>213.8</ele>
        <time>2024-07-23T12:09:53Z</time>
      </trkpt>
      <trkpt lat="44.63756" lon="1.21303">
        <ele>214</ele>
        <time>2024-07-23T12:09:54Z</time>
      </trkpt>
      <trkpt lat="44.63755" lon="1.21301">
        <ele>214</ele>
        <time>2024-07-23T12:09:55Z</time>
      </trkpt>
      <trkpt lat="44.63755" lon="1.213">
        <ele>214.2</ele>
        <time>2024-07-23T12:09:56Z</time>
      </trkpt>
      <trkpt lat="44.63754" lon="1.21298">
        <ele>214.2</ele>
        <time>2024-07-23T12:09:57Z</time>
      </trkpt>
      <trkpt lat="44.63753" lon="1.21296">
        <ele>214.4</ele>
        <time>2024-07-23T12:09:58Z</time>
      </trkpt>
      <trkpt lat="44.63753" lon="1.21295">
        <ele>214.6</ele>
        <time>2024-07-23T12:09:59Z</time>
      </trkpt>
      <trkpt lat="44.63753" lon="1.21294">
        <ele>214.6</ele>
        <time>2024-07-23T12:10:00Z</time>
      </trkpt>
      <trkpt lat="44.63752" lon="1.21292">
        <ele>215</ele>
        <time>2024-07-23T12:10:01Z</time>
      </trkpt>
      <trkpt lat="44.63752" lon="1.21291">
        <ele>215</ele>
        <time>2024-07-23T12:10:02Z</time>
      </trkpt>
      <trkpt lat="44.63751" lon="1.21289">
        <ele>215.4</ele>
        <time>2024-07-23T12:10:03Z</time>
      </trkpt>
      <trkpt lat="44.63751" lon="1.21287">
        <ele>215.4</ele>
        <time>2024-07-23T12:10:04Z</time>
      </trkpt>
      <trkpt lat="44.6375" lon="1.21285">
        <ele>215.6</ele>
        <time>2024-07-23T12:10:05Z</time>
      </trkpt>
      <trkpt lat="44.6375" lon="1.21283">
        <ele>215.8</ele>
        <time>2024-07-23T12:10:06Z</time>
      </trkpt>
      <trkpt lat="44.63749" lon="1.21282">
        <ele>215.8</ele>
        <time>2024-07-23T12:10:07Z</time>
      </trkpt>
      <trkpt lat="44.63748" lon="1.21281">
        <ele>216</ele>
        <time>2024-07-23T12:10:08Z</time>
      </trkpt>
      <trkpt lat="44.63748" lon="1.2128">
        <ele>216</ele>
        <time>2024-07-23T12:10:09Z</time>
      </trkpt>
      <trkpt lat="44.63748" lon="1.21278">
        <ele>216.4</ele>
        <time>2024-07-23T12:10:10Z</time>
      </trkpt>
      <trkpt lat="44.63747" lon="1.21277">
        <ele>216.4</ele>
        <time>2024-07-23T12:10:11Z</time>
      </trkpt>
      <trkpt lat="44.63746" lon="1.21275">
        <ele>216.6</ele>
        <time>2024-07-23T12:10:12Z</time>
      </trkpt>
      <trkpt lat="44.63746" lon="1.21273">
        <ele>216.6</ele>
        <time>2024-07-23T12:10:13Z</time>
      </trkpt>
      <trkpt lat="44.63746" lon="1.21272">
        <ele>216.8</ele>
        <time>2024-07-23T12:10:14Z</time>
      </trkpt>
      <trkpt lat="44.63745" lon="1.21271">
        <ele>216.8</ele>
        <time>2024-07-23T12:10:15Z</time>
      </trkpt>
      <trkpt lat="44.63745" lon="1.2127">
        <ele>217</ele>
        <time>2024-07-23T12:10:16Z</time>
      </trkpt>
      <trkpt lat="44.63745" lon="1.21269">
        <ele>217.4</ele>
        <time>2024-07-23T12:10:17Z</time>
      </trkpt>
      <trkpt lat="44.63745" lon="1.21268">
        <ele>217.8</ele>
        <time>2024-07-23T12:10:18Z</time>
      </trkpt>
      <trkpt lat="44.63744" lon="1.21266">
        <ele>217.8</ele>
        <time>2024-07-23T12:10:19Z</time>
      </trkpt>
      <trkpt lat="44.63744" lon="1.21265">
        <ele>218</ele>
        <time>2024-07-23T12:10:20Z</time>
      </trkpt>
      <trkpt lat="44.63743" lon="1.21263">
        <ele>218</ele>
        <time>2024-07-23T12:10:21Z</time>
      </trkpt>
      <trkpt lat="44.63743" lon="1.21261">
        <ele>218</ele>
        <time>2024-07-23T12:10:22Z</time>
      </trkpt>
      <trkpt lat="44.63743" lon="1.2126">
        <ele>218.4</ele>
        <time>2024-07-23T12:10:23Z</time>
      </trkpt>
      <trkpt lat="44.63743" lon="1.21259">
        <ele>218.6</ele>
        <time>2024-07-23T12:10:24Z</time>
      </trkpt>
      <trkpt lat="44.63743" lon="1.21258">
        <ele>218.8</ele>
        <time>2024-07-23T12:10:25Z</time>
      </trkpt>
      <trkpt lat="44.63742" lon="1.21257">
        <ele>218.8</ele>
        <time>2024-07-23T12:10:26Z</time>
      </trkpt>
      <trkpt lat="44.63742" lon="1.21256">
        <ele>219.2</ele>
        <time>2024-07-23T12:10:27Z</time>
      </trkpt>
      <trkpt lat="44.63741" lon="1.21255">
        <ele>219.2</ele>
        <time>2024-07-23T12:10:28Z</time>
      </trkpt>
      <trkpt lat="44.6374" lon="1.21253">
        <ele>219.6</ele>
        <time>2024-07-23T12:10:29Z</time>
      </trkpt>
      <trkpt lat="44.6374" lon="1.21252">
        <ele>220</ele>
        <time>2024-07-23T12:10:30Z</time>
      </trkpt>
      <trkpt lat="44.63738" lon="1.2125">
        <ele>220</ele>
        <time>2024-07-23T12:10:31Z</time>
      </trkpt>
      <trkpt lat="44.63738" lon="1.21249">
        <ele>220.4</ele>
        <time>2024-07-23T12:10:32Z</time>
      </trkpt>
      <trkpt lat="44.63737" lon="1.21248">
        <ele>220.4</ele>
        <time>2024-07-23T12:10:33Z</time>
      </trkpt>
      <trkpt lat="44.63736" lon="1.21247">
        <ele>220.6</ele>
        <time>2024-07-23T12:10:34Z</time>
      </trkpt>
      <trkpt lat="44.63736" lon="1.21245">
        <ele>220.8</ele>
        <time>2024-07-23T12:10:35Z</time>
      </trkpt>
      <trkpt lat="44.63736" lon="1.21244">
        <ele>221</ele>
        <time>2024-07-23T12:10:36Z</time>
      </trkpt>
      <trkpt lat="44.63735" lon="1.21243">
        <ele>221.4</ele>
        <time>2024-07-23T12:10:37Z</time>
      </trkpt>
      <trkpt lat="44.63735" lon="1.21242">
        <ele>221.4</ele>
        <time>2024-07-23T12:10:38Z</time>
      </trkpt>
      <trkpt lat="44.63735" lon="1.21242">
        <ele>221.4</ele>
        <time>2024-07-23T12:10:39Z</time>
      </trkpt>
      <trkpt lat="44.63735" lon="1.21241">
        <ele>221.4</ele>
        <time>2024-07-23T12:10:40Z</time>
      </trkpt>
      <trkpt lat="44.63734" lon="1.2124">
        <ele>221.6</ele>
        <time>2024-07-23T12:10:41Z</time>
      </trkpt>
      <trkpt lat="44.63733" lon="1.21239">
        <ele>221.8</ele>
        <time>2024-07-23T12:10:42Z</time>
      </trkpt>
      <trkpt lat="44.63733" lon="1.21239">
        <ele>222</ele>
        <time>2024-07-23T12:10:43Z</time>
      </trkpt>
      <trkpt lat="44.63733" lon="1.21238">
        <ele>222.2</ele>
        <time>2024-07-23T12:10:44Z</time>
      </trkpt>
      <trkpt lat="44.63732" lon="1.21238">
        <ele>222.2</ele>
        <time>2024-07-23T12:10:45Z</time>
      </trkpt>
      <trkpt lat="44.63731" lon="1.21238">
        <ele>222.4</ele>
        <time>2024-07-23T12:10:46Z</time>
      </trkpt>
      <trkpt lat="44.63731" lon="1.21238">
        <ele>222.6</ele>
        <time>2024-07-23T12:10:47Z</time>
      </trkpt>
      <trkpt lat="44.6373" lon="1.21237">
        <ele>222.6</ele>
        <time>2024-07-23T12:10:48Z</time>
      </trkpt>
      <trkpt lat="44.63729" lon="1.21235">
        <ele>222.8</ele>
        <time>2024-07-23T12:10:49Z</time>
      </trkpt>
      <trkpt lat="44.63729" lon="1.21234">
        <ele>222.8</ele>
        <time>2024-07-23T12:10:50Z</time>
      </trkpt>
      <trkpt lat="44.63727" lon="1.21232">
        <ele>223.2</ele>
        <time>2024-07-23T12:10:51Z</time>
      </trkpt>
      <trkpt lat="44.63726" lon="1.21232">
        <ele>223.4</ele>
        <time>2024-07-23T12:10:52Z</time>
      </trkpt>
      <trkpt lat="44.63725" lon="1.21231">
        <ele>223.8</ele>
        <time>2024-07-23T12:10:53Z</time>
      </trkpt>
      <trkpt lat="44.63724" lon="1.2123">
        <ele>224.2</ele>
        <time>2024-07-23T12:10:54Z</time>
      </trkpt>
      <trkpt lat="44.63722" lon="1.21229">
        <ele>224.4</ele>
        <time>2024-07-23T12:10:55Z</time>
      </trkpt>
      <trkpt lat="44.63721" lon="1.21229">
        <ele>224.6</ele>
        <time>2024-07-23T12:10:56Z</time>
      </trkpt>
      <trkpt lat="44.6372" lon="1.21228">
        <ele>224.6</ele>
        <time>2024-07-23T12:10:57Z</time>
      </trkpt>
      <trkpt lat="44.63718" lon="1.21226">
        <ele>224.8</ele>
        <time>2024-07-23T12:10:58Z</time>
      </trkpt>
      <trkpt lat="44.63716" lon="1.21225">
        <ele>224.8</ele>
        <time>2024-07-23T12:10:59Z</time>
      </trkpt>
      <trkpt lat="44.63715" lon="1.21224">
        <ele>224.8</ele>
        <time>2024-07-23T12:11:00Z</time>
      </trkpt>
      <trkpt lat="44.63713" lon="1.21223">
        <ele>225</ele>
        <time>2024-07-23T12:11:01Z</time>
      </trkpt>
      <trkpt lat="44.63711" lon="1.21222">
        <ele>225</ele>
        <time>2024-07-23T12:11:02Z</time>
      </trkpt>
      <trkpt lat="44.63709" lon="1.21221">
        <ele>225.2</ele>
        <time>2024-07-23T12:11:03Z</time>
      </trkpt>
      <trkpt lat="44.63707" lon="1.2122">
        <ele>225.4</ele>
        <time>2024-07-23T12:11:04Z</time>
      </trkpt>
      <trkpt lat="44.63706" lon="1.21219">
        <ele>225.6</ele>
        <time>2024-07-23T12:11:05Z</time>
      </trkpt>
      <trkpt lat="44.63704" lon="1.21218">
        <ele>226</ele>
        <time>2024-07-23T12:11:06Z</time>
      </trkpt>
      <trkpt lat="44.63702" lon="1.21218">
        <ele>226</ele>
        <time>2024-07-23T12:11:07Z</time>
      </trkpt>
      <trkpt lat="44.63701" lon="1.21217">
        <ele>226.4</ele>
        <time>2024-07-23T12:11:08Z</time>
      </trkpt>
      <trkpt lat="44.63699" lon="1.21217">
        <ele>226.4</ele>
        <time>2024-07-23T12:11:09Z</time>
      </trkpt>
      <trkpt lat="44.63698" lon="1.21217">
        <ele>227</ele>
        <time>2024-07-23T12:11:10Z</time>
      </trkpt>
      <trkpt lat="44.63697" lon="1.21217">
        <ele>227.2</ele>
        <time>2024-07-23T12:11:11Z</time>
      </trkpt>
      <trkpt lat="44.63696" lon="1.21217">
        <ele>227.4</ele>
        <time>2024-07-23T12:11:12Z</time>
      </trkpt>
      <trkpt lat="44.63695" lon="1.21217">
        <ele>227.6</ele>
        <time>2024-07-23T12:11:13Z</time>
      </trkpt>
      <trkpt lat="44.63694" lon="1.21217">
        <ele>227.6</ele>
        <time>2024-07-23T12:11:14Z</time>
      </trkpt>
      <trkpt lat="44.63693" lon="1.21217">
        <ele>227.8</ele>
        <time>2024-07-23T12:11:15Z</time>
      </trkpt>
      <trkpt lat="44.63693" lon="1.21217">
        <ele>228.2</ele>
        <time>2024-07-23T12:11:17Z</time>
      </trkpt>
      <trkpt lat="44.63692" lon="1.21217">
        <ele>228.4</ele>
        <time>2024-07-23T12:11:18Z</time>
      </trkpt>
      <trkpt lat="44.63691" lon="1.21217">
        <ele>228.4</ele>
        <time>2024-07-23T12:11:19Z</time>
      </trkpt>
      <trkpt lat="44.6369" lon="1.21217">
        <ele>228.6</ele>
        <time>2024-07-23T12:11:20Z</time>
      </trkpt>
      <trkpt lat="44.63689" lon="1.21218">
        <ele>228.8</ele>
        <time>2024-07-23T12:11:21Z</time>
      </trkpt>
      <trkpt lat="44.63688" lon="1.21217">
        <ele>229</ele>
        <time>2024-07-23T12:11:22Z</time>
      </trkpt>
      <trkpt lat="44.63686" lon="1.21217">
        <ele>229.4</ele>
        <time>2024-07-23T12:11:23Z</time>
      </trkpt>
      <trkpt lat="44.63685" lon="1.21216">
        <ele>229.4</ele>
        <time>2024-07-23T12:11:24Z</time>
      </trkpt>
      <trkpt lat="44.63683" lon="1.21216">
        <ele>229.6</ele>
        <time>2024-07-23T12:11:25Z</time>
      </trkpt>
      <trkpt lat="44.63682" lon="1.21216">
        <ele>229.8</ele>
        <time>2024-07-23T12:11:26Z</time>
      </trkpt>
      <trkpt lat="44.63681" lon="1.21216">
        <ele>230</ele>
        <time>2024-07-23T12:11:27Z</time>
      </trkpt>
      <trkpt lat="44.63679" lon="1.21216">
        <ele>230.4</ele>
        <time>2024-07-23T12:11:28Z</time>
      </trkpt>
      <trkpt lat="44.63678" lon="1.21216">
        <ele>230.4</ele>
        <time>2024-07-23T12:11:29Z</time>
      </trkpt>
      <trkpt lat="44.63677" lon="1.21216">
        <ele>230.8</ele>
        <time>2024-07-23T12:11:30Z</time>
      </trkpt>
      <trkpt lat="44.63676" lon="1.21216">
        <ele>231</ele>
        <time>2024-07-23T12:11:31Z</time>
      </trkpt>
      <trkpt lat="44.63675" lon="1.21216">
        <ele>231.2</ele>
        <time>2024-07-23T12:11:32Z</time>
      </trkpt>
      <trkpt lat="44.63673" lon="1.21216">
        <ele>231.2</ele>
        <time>2024-07-23T12:11:33Z</time>
      </trkpt>
      <trkpt lat="44.63672" lon="1.21216">
        <ele>231.4</ele>
        <time>2024-07-23T12:11:34Z</time>
      </trkpt>
      <trkpt lat="44.63671" lon="1.21216">
        <ele>231.6</ele>
        <time>2024-07-23T12:11:35Z</time>
      </trkpt>
      <trkpt lat="44.63669" lon="1.21216">
        <ele>231.8</ele>
        <time>2024-07-23T12:11:36Z</time>
      </trkpt>
      <trkpt lat="44.63668" lon="1.21215">
        <ele>232</ele>
        <time>2024-07-23T12:11:37Z</time>
      </trkpt>
      <trkpt lat="44.63667" lon="1.21215">
        <ele>232</ele>
        <time>2024-07-23T12:11:38Z</time>
      </trkpt>
      <trkpt lat="44.63665" lon="1.21215">
        <ele>232.2</ele>
        <time>2024-07-23T12:11:39Z</time>
      </trkpt>
      <trkpt lat="44.63664" lon="1.21215">
        <ele>232.4</ele>
        <time>2024-07-23T12:11:40Z</time>
      </trkpt>
      <trkpt lat="44.63663" lon="1.21216">
        <ele>232.6</ele>
        <time>2024-07-23T12:11:41Z</time>
      </trkpt>
      <trkpt lat="44.63662" lon="1.21215">
        <ele>232.6</ele>
        <time>2024-07-23T12:11:42Z</time>
      </trkpt>
      <trkpt lat="44.6366" lon="1.21215">
        <ele>232.8</ele>
        <time>2024-07-23T12:11:43Z</time>
      </trkpt>
      <trkpt lat="44.63659" lon="1.21215">
        <ele>232.6</ele>
        <time>2024-07-23T12:11:44Z</time>
      </trkpt>
      <trkpt lat="44.63658" lon="1.21214">
        <ele>232.8</ele>
        <time>2024-07-23T12:11:45Z</time>
      </trkpt>
      <trkpt lat="44.63657" lon="1.21214">
        <ele>232.8</ele>
        <time>2024-07-23T12:11:46Z</time>
      </trkpt>
      <trkpt lat="44.63656" lon="1.21214">
        <ele>233.2</ele>
        <time>2024-07-23T12:11:47Z</time>
      </trkpt>
      <trkpt lat="44.63655" lon="1.21214">
        <ele>233.4</ele>
        <time>2024-07-23T12:11:48Z</time>
      </trkpt>
      <trkpt lat="44.63653" lon="1.21214">
        <ele>233.6</ele>
        <time>2024-07-23T12:11:49Z</time>
      </trkpt>
      <trkpt lat="44.63652" lon="1.21213">
        <ele>233.6</ele>
        <time>2024-07-23T12:11:50Z</time>
      </trkpt>
      <trkpt lat="44.6365" lon="1.21213">
        <ele>233.8</ele>
        <time>2024-07-23T12:11:51Z</time>
      </trkpt>
      <trkpt lat="44.63649" lon="1.21213">
        <ele>234</ele>
        <time>2024-07-23T12:11:52Z</time>
      </trkpt>
      <trkpt lat="44.63648" lon="1.21212">
        <ele>234</ele>
        <time>2024-07-23T12:11:53Z</time>
      </trkpt>
      <trkpt lat="44.63646" lon="1.21212">
        <ele>234.2</ele>
        <time>2024-07-23T12:11:54Z</time>
      </trkpt>
      <trkpt lat="44.63645" lon="1.21211">
        <ele>234.2</ele>
        <time>2024-07-23T12:11:55Z</time>
      </trkpt>
      <trkpt lat="44.63644" lon="1.21211">
        <ele>234.4</ele>
        <time>2024-07-23T12:11:56Z</time>
      </trkpt>
      <trkpt lat="44.63643" lon="1.21211">
        <ele>234.4</ele>
        <time>2024-07-23T12:11:57Z</time>
      </trkpt>
      <trkpt lat="44.63642" lon="1.21211">
        <ele>234.8</ele>
        <time>2024-07-23T12:11:58Z</time>
      </trkpt>
      <trkpt lat="44.63641" lon="1.21211">
        <ele>235.2</ele>
        <time>2024-07-23T12:11:59Z</time>
      </trkpt>
      <trkpt lat="44.6364" lon="1.21211">
        <ele>235.2</ele>
        <time>2024-07-23T12:12:00Z</time>
      </trkpt>
      <trkpt lat="44.63639" lon="1.21211">
        <ele>235.4</ele>
        <time>2024-07-23T12:12:01Z</time>
      </trkpt>
      <trkpt lat="44.63638" lon="1.21211">
        <ele>235.4</ele>
        <time>2024-07-23T12:12:02Z</time>
      </trkpt>
      <trkpt lat="44.63636" lon="1.2121">
        <ele>235.6</ele>
        <time>2024-07-23T12:12:03Z</time>
      </trkpt>
      <trkpt lat="44.63636" lon="1.2121">
        <ele>235.8</ele>
        <time>2024-07-23T12:12:04Z</time>
      </trkpt>
      <trkpt lat="44.63635" lon="1.2121">
        <ele>235.8</ele>
        <time>2024-07-23T12:12:05Z</time>
      </trkpt>
      <trkpt lat="44.63634" lon="1.2121">
        <ele>236.2</ele>
        <time>2024-07-23T12:12:06Z</time>
      </trkpt>
      <trkpt lat="44.63632" lon="1.21209">
        <ele>236.2</ele>
        <time>2024-07-23T12:12:07Z</time>
      </trkpt>
      <trkpt lat="44.63631" lon="1.21209">
        <ele>236.4</ele>
        <time>2024-07-23T12:12:08Z</time>
      </trkpt>
      <trkpt lat="44.6363" lon="1.21209">
        <ele>236.6</ele>
        <time>2024-07-23T12:12:09Z</time>
      </trkpt>
      <trkpt lat="44.63629" lon="1.21209">
        <ele>236.6</ele>
        <time>2024-07-23T12:12:10Z</time>
      </trkpt>
      <trkpt lat="44.63628" lon="1.21209">
        <ele>237</ele>
        <time>2024-07-23T12:12:11Z</time>
      </trkpt>
      <trkpt lat="44.63626" lon="1.21209">
        <ele>237</ele>
        <time>2024-07-23T12:12:12Z</time>
      </trkpt>
      <trkpt lat="44.63626" lon="1.21209">
        <ele>237.2</ele>
        <time>2024-07-23T12:12:13Z</time>
      </trkpt>
      <trkpt lat="44.63625" lon="1.2121">
        <ele>237.2</ele>
        <time>2024-07-23T12:12:14Z</time>
      </trkpt>
      <trkpt lat="44.63624" lon="1.2121">
        <ele>237.4</ele>
        <time>2024-07-23T12:12:15Z</time>
      </trkpt>
      <trkpt lat="44.63623" lon="1.2121">
        <ele>237.6</ele>
        <time>2024-07-23T12:12:16Z</time>
      </trkpt>
      <trkpt lat="44.63622" lon="1.2121">
        <ele>237.6</ele>
        <time>2024-07-23T12:12:17Z</time>
      </trkpt>
      <trkpt lat="44.63621" lon="1.21209">
        <ele>237.8</ele>
        <time>2024-07-23T12:12:18Z</time>
      </trkpt>
      <trkpt lat="44.6362" lon="1.2121">
        <ele>237.8</ele>
        <time>2024-07-23T12:12:19Z</time>
      </trkpt>
      <trkpt lat="44.63619" lon="1.21209">
        <ele>238.2</ele>
        <time>2024-07-23T12:12:20Z</time>
      </trkpt>
      <trkpt lat="44.63618" lon="1.2121">
        <ele>238.4</ele>
        <time>2024-07-23T12:12:21Z</time>
      </trkpt>
      <trkpt lat="44.63617" lon="1.2121">
        <ele>238.6</ele>
        <time>2024-07-23T12:12:22Z</time>
      </trkpt>
      <trkpt lat="44.63616" lon="1.2121">
        <ele>238.8</ele>
        <time>2024-07-23T12:12:23Z</time>
      </trkpt>
      <trkpt lat="44.63615" lon="1.2121">
        <ele>238.8</ele>
        <time>2024-07-23T12:12:24Z</time>
      </trkpt>
      <trkpt lat="44.63614" lon="1.2121">
        <ele>239.2</ele>
        <time>2024-07-23T12:12:25Z</time>
      </trkpt>
      <trkpt lat="44.63613" lon="1.2121">
        <ele>239.2</ele>
        <time>2024-07-23T12:12:26Z</time>
      </trkpt>
      <trkpt lat="44.63611" lon="1.2121">
        <ele>239.4</ele>
        <time>2024-07-23T12:12:27Z</time>
      </trkpt>
      <trkpt lat="44.6361" lon="1.2121">
        <ele>239.6</ele>
        <time>2024-07-23T12:12:28Z</time>
      </trkpt>
      <trkpt lat="44.63609" lon="1.21211">
        <ele>239.6</ele>
        <time>2024-07-23T12:12:29Z</time>
      </trkpt>
      <trkpt lat="44.63608" lon="1.21211">
        <ele>239.8</ele>
        <time>2024-07-23T12:12:30Z</time>
      </trkpt>
      <trkpt lat="44.63607" lon="1.21211">
        <ele>239.8</ele>
        <time>2024-07-23T12:12:31Z</time>
      </trkpt>
      <trkpt lat="44.63606" lon="1.21211">
        <ele>240</ele>
        <time>2024-07-23T12:12:32Z</time>
      </trkpt>
      <trkpt lat="44.63605" lon="1.21212">
        <ele>240.4</ele>
        <time>2024-07-23T12:12:33Z</time>
      </trkpt>
      <trkpt lat="44.63604" lon="1.21212">
        <ele>240.4</ele>
        <time>2024-07-23T12:12:34Z</time>
      </trkpt>
      <trkpt lat="44.63603" lon="1.21213">
        <ele>240.6</ele>
        <time>2024-07-23T12:12:35Z</time>
      </trkpt>
      <trkpt lat="44.63602" lon="1.21213">
        <ele>240.8</ele>
        <time>2024-07-23T12:12:36Z</time>
      </trkpt>
      <trkpt lat="44.63601" lon="1.21213">
        <ele>241</ele>
        <time>2024-07-23T12:12:37Z</time>
      </trkpt>
      <trkpt lat="44.636" lon="1.21214">
        <ele>241.2</ele>
        <time>2024-07-23T12:12:38Z</time>
      </trkpt>
      <trkpt lat="44.63599" lon="1.21214">
        <ele>241.6</ele>
        <time>2024-07-23T12:12:39Z</time>
      </trkpt>
      <trkpt lat="44.63598" lon="1.21215">
        <ele>241.8</ele>
        <time>2024-07-23T12:12:40Z</time>
      </trkpt>
      <trkpt lat="44.63597" lon="1.21216">
        <ele>242</ele>
        <time>2024-07-23T12:12:41Z</time>
      </trkpt>
      <trkpt lat="44.63597" lon="1.21217">
        <ele>242.2</ele>
        <time>2024-07-23T12:12:42Z</time>
      </trkpt>
      <trkpt lat="44.63596" lon="1.21217">
        <ele>242.4</ele>
        <time>2024-07-23T12:12:43Z</time>
      </trkpt>
      <trkpt lat="44.63595" lon="1.21217">
        <ele>242.6</ele>
        <time>2024-07-23T12:12:44Z</time>
      </trkpt>
      <trkpt lat="44.63594" lon="1.21218">
        <ele>242.8</ele>
        <time>2024-07-23T12:12:45Z</time>
      </trkpt>
      <trkpt lat="44.63594" lon="1.21219">
        <ele>243</ele>
        <time>2024-07-23T12:12:46Z</time>
      </trkpt>
      <trkpt lat="44.63593" lon="1.21219">
        <ele>243.2</ele>
        <time>2024-07-23T12:12:47Z</time>
      </trkpt>
      <trkpt lat="44.63592" lon="1.21219">
        <ele>243.2</ele>
        <time>2024-07-23T12:12:48Z</time>
      </trkpt>
      <trkpt lat="44.63592" lon="1.21221">
        <ele>243.6</ele>
        <time>2024-07-23T12:12:49Z</time>
      </trkpt>
      <trkpt lat="44.63591" lon="1.21222">
        <ele>243.8</ele>
        <time>2024-07-23T12:12:50Z</time>
      </trkpt>
      <trkpt lat="44.6359" lon="1.21222">
        <ele>244</ele>
        <time>2024-07-23T12:12:51Z</time>
      </trkpt>
      <trkpt lat="44.63588" lon="1.21224">
        <ele>244.2</ele>
        <time>2024-07-23T12:12:52Z</time>
      </trkpt>
      <trkpt lat="44.63588" lon="1.21225">
        <ele>244.2</ele>
        <time>2024-07-23T12:12:53Z</time>
      </trkpt>
      <trkpt lat="44.63587" lon="1.21226">
        <ele>244.6</ele>
        <time>2024-07-23T12:12:54Z</time>
      </trkpt>
      <trkpt lat="44.63585" lon="1.21227">
        <ele>244.6</ele>
        <time>2024-07-23T12:12:55Z</time>
      </trkpt>
      <trkpt lat="44.63585" lon="1.21227">
        <ele>244.8</ele>
        <time>2024-07-23T12:12:56Z</time>
      </trkpt>
      <trkpt lat="44.63584" lon="1.21228">
        <ele>245</ele>
        <time>2024-07-23T12:12:57Z</time>
      </trkpt>
      <trkpt lat="44.63583" lon="1.21228">
        <ele>245.2</ele>
        <time>2024-07-23T12:12:58Z</time>
      </trkpt>
      <trkpt lat="44.63582" lon="1.21229">
        <ele>245.4</ele>
        <time>2024-07-23T12:12:59Z</time>
      </trkpt>
      <trkpt lat="44.63581" lon="1.2123">
        <ele>245.4</ele>
        <time>2024-07-23T12:13:00Z</time>
      </trkpt>
      <trkpt lat="44.6358" lon="1.2123">
        <ele>245.8</ele>
        <time>2024-07-23T12:13:01Z</time>
      </trkpt>
      <trkpt lat="44.63579" lon="1.2123">
        <ele>246</ele>
        <time>2024-07-23T12:13:02Z</time>
      </trkpt>
      <trkpt lat="44.63578" lon="1.21231">
        <ele>246</ele>
        <time>2024-07-23T12:13:03Z</time>
      </trkpt>
      <trkpt lat="44.63577" lon="1.21232">
        <ele>246.2</ele>
        <time>2024-07-23T12:13:04Z</time>
      </trkpt>
      <trkpt lat="44.63576" lon="1.21233">
        <ele>246.4</ele>
        <time>2024-07-23T12:13:05Z</time>
      </trkpt>
      <trkpt lat="44.63575" lon="1.21234">
        <ele>246.8</ele>
        <time>2024-07-23T12:13:06Z</time>
      </trkpt>
      <trkpt lat="44.63574" lon="1.21234">
        <ele>246.8</ele>
        <time>2024-07-23T12:13:07Z</time>
      </trkpt>
      <trkpt lat="44.63573" lon="1.21235">
        <ele>247.2</ele>
        <time>2024-07-23T12:13:08Z</time>
      </trkpt>
      <trkpt lat="44.63571" lon="1.21235">
        <ele>247.4</ele>
        <time>2024-07-23T12:13:09Z</time>
      </trkpt>
      <trkpt lat="44.6357" lon="1.21235">
        <ele>247.6</ele>
        <time>2024-07-23T12:13:10Z</time>
      </trkpt>
      <trkpt lat="44.63569" lon="1.21235">
        <ele>247.6</ele>
        <time>2024-07-23T12:13:11Z</time>
      </trkpt>
      <trkpt lat="44.63568" lon="1.21236">
        <ele>247.8</ele>
        <time>2024-07-23T12:13:12Z</time>
      </trkpt>
      <trkpt lat="44.63567" lon="1.21236">
        <ele>248</ele>
        <time>2024-07-23T12:13:13Z</time>
      </trkpt>
      <trkpt lat="44.63566" lon="1.21237">
        <ele>248.2</ele>
        <time>2024-07-23T12:13:14Z</time>
      </trkpt>
      <trkpt lat="44.63565" lon="1.21237">
        <ele>248.4</ele>
        <time>2024-07-23T12:13:15Z</time>
      </trkpt>
      <trkpt lat="44.63564" lon="1.21237">
        <ele>248.4</ele>
        <time>2024-07-23T12:13:16Z</time>
      </trkpt>
      <trkpt lat="44.63563" lon="1.21237">
        <ele>248.6</ele>
        <time>2024-07-23T12:13:17Z</time>
      </trkpt>
      <trkpt lat="44.63562" lon="1.21237">
        <ele>248.6</ele>
        <time>2024-07-23T12:13:18Z</time>
      </trkpt>
      <trkpt lat="44.63561" lon="1.21237">
        <ele>248.8</ele>
        <time>2024-07-23T12:13:19Z</time>
      </trkpt>
      <trkpt lat="44.6356" lon="1.21237">
        <ele>249</ele>
        <time>2024-07-23T12:13:20Z</time>
      </trkpt>
      <trkpt lat="44.63558" lon="1.21237">
        <ele>249</ele>
        <time>2024-07-23T12:13:21Z</time>
      </trkpt>
      <trkpt lat="44.63557" lon="1.21238">
        <ele>249.2</ele>
        <time>2024-07-23T12:13:22Z</time>
      </trkpt>
      <trkpt lat="44.63556" lon="1.21238">
        <ele>249.2</ele>
        <time>2024-07-23T12:13:23Z</time>
      </trkpt>
      <trkpt lat="44.63555" lon="1.21238">
        <ele>249.4</ele>
        <time>2024-07-23T12:13:24Z</time>
      </trkpt>
      <trkpt lat="44.63554" lon="1.21238">
        <ele>249.6</ele>
        <time>2024-07-23T12:13:25Z</time>
      </trkpt>
      <trkpt lat="44.63553" lon="1.21238">
        <ele>249.8</ele>
        <time>2024-07-23T12:13:26Z</time>
      </trkpt>
      <trkpt lat="44.63552" lon="1.21238">
        <ele>249.8</ele>
        <time>2024-07-23T12:13:27Z</time>
      </trkpt>
      <trkpt lat="44.63551" lon="1.21238">
        <ele>250</ele>
        <time>2024-07-23T12:13:28Z</time>
      </trkpt>
      <trkpt lat="44.6355" lon="1.21238">
        <ele>250.2</ele>
        <time>2024-07-23T12:13:29Z</time>
      </trkpt>
      <trkpt lat="44.63548" lon="1.21238">
        <ele>250.6</ele>
        <time>2024-07-23T12:13:30Z</time>
      </trkpt>
      <trkpt lat="44.63548" lon="1.21238">
        <ele>250.8</ele>
        <time>2024-07-23T12:13:31Z</time>
      </trkpt>
      <trkpt lat="44.63546" lon="1.21238">
        <ele>251</ele>
        <time>2024-07-23T12:13:32Z</time>
      </trkpt>
      <trkpt lat="44.63545" lon="1.21239">
        <ele>251.2</ele>
        <time>2024-07-23T12:13:33Z</time>
      </trkpt>
      <trkpt lat="44.63544" lon="1.21239">
        <ele>251.2</ele>
        <time>2024-07-23T12:13:34Z</time>
      </trkpt>
      <trkpt lat="44.63544" lon="1.21239">
        <ele>251.4</ele>
        <time>2024-07-23T12:13:35Z</time>
      </trkpt>
      <trkpt lat="44.63543" lon="1.21239">
        <ele>251.4</ele>
        <time>2024-07-23T12:13:36Z</time>
      </trkpt>
      <trkpt lat="44.63542" lon="1.21238">
        <ele>251.6</ele>
        <time>2024-07-23T12:13:37Z</time>
      </trkpt>
      <trkpt lat="44.63541" lon="1.21238">
        <ele>251.8</ele>
        <time>2024-07-23T12:13:38Z</time>
      </trkpt>
      <trkpt lat="44.63541" lon="1.21236">
        <ele>251.8</ele>
        <time>2024-07-23T12:13:39Z</time>
      </trkpt>
      <trkpt lat="44.63542" lon="1.21235">
        <ele>252</ele>
        <time>2024-07-23T12:13:40Z</time>
      </trkpt>
      <trkpt lat="44.63542" lon="1.21234">
        <ele>252</ele>
        <time>2024-07-23T12:13:41Z</time>
      </trkpt>
      <trkpt lat="44.63543" lon="1.21234">
        <ele>252</ele>
        <time>2024-07-23T12:13:42Z</time>
      </trkpt>
      <trkpt lat="44.63544" lon="1.21234">
        <ele>252.2</ele>
        <time>2024-07-23T12:13:43Z</time>
      </trkpt>
      <trkpt lat="44.63545" lon="1.21233">
        <ele>252.2</ele>
        <time>2024-07-23T12:13:44Z</time>
      </trkpt>
      <trkpt lat="44.63546" lon="1.21233">
        <ele>252.2</ele>
        <time>2024-07-23T12:13:45Z</time>
      </trkpt>
      <trkpt lat="44.63547" lon="1.21232">
        <ele>252.4</ele>
        <time>2024-07-23T12:13:46Z</time>
      </trkpt>
      <trkpt lat="44.63548" lon="1.21231">
        <ele>252.6</ele>
        <time>2024-07-23T12:13:47Z</time>
      </trkpt>
      <trkpt lat="44.63549" lon="1.2123">
        <ele>252.6</ele>
        <time>2024-07-23T12:13:48Z</time>
      </trkpt>
      <trkpt lat="44.6355" lon="1.21229">
        <ele>252.8</ele>
        <time>2024-07-23T12:13:49Z</time>
      </trkpt>
      <trkpt lat="44.63551" lon="1.21228">
        <ele>252.8</ele>
        <time>2024-07-23T12:13:50Z</time>
      </trkpt>
      <trkpt lat="44.63552" lon="1.21227">
        <ele>252.8</ele>
        <time>2024-07-23T12:13:51Z</time>
      </trkpt>
      <trkpt lat="44.63553" lon="1.21226">
        <ele>253</ele>
        <time>2024-07-23T12:13:52Z</time>
      </trkpt>
      <trkpt lat="44.63554" lon="1.21225">
        <ele>253</ele>
        <time>2024-07-23T12:13:53Z</time>
      </trkpt>
      <trkpt lat="44.63555" lon="1.21224">
        <ele>253</ele>
        <time>2024-07-23T12:13:54Z</time>
      </trkpt>
      <trkpt lat="44.63555" lon="1.21223">
        <ele>253.2</ele>
        <time>2024-07-23T12:13:55Z</time>
      </trkpt>
      <trkpt lat="44.63556" lon="1.21221">
        <ele>253.2</ele>
        <time>2024-07-23T12:13:56Z</time>
      </trkpt>
      <trkpt lat="44.63557" lon="1.2122">
        <ele>253.2</ele>
        <time>2024-07-23T12:13:57Z</time>
      </trkpt>
      <trkpt lat="44.63558" lon="1.21219">
        <ele>253.2</ele>
        <time>2024-07-23T12:13:58Z</time>
      </trkpt>
      <trkpt lat="44.63559" lon="1.21218">
        <ele>253.2</ele>
        <time>2024-07-23T12:13:59Z</time>
      </trkpt>
      <trkpt lat="44.6356" lon="1.21217">
        <ele>253.4</ele>
        <time>2024-07-23T12:14:00Z</time>
      </trkpt>
      <trkpt lat="44.6356" lon="1.21215">
        <ele>253.4</ele>
        <time>2024-07-23T12:14:01Z</time>
      </trkpt>
      <trkpt lat="44.63566" lon="1.21206">
        <ele>253.6</ele>
        <time>2024-07-23T12:14:09Z</time>
      </trkpt>
      <trkpt lat="44.63567" lon="1.21205">
        <ele>253.6</ele>
        <time>2024-07-23T12:14:10Z</time>
      </trkpt>
      <trkpt lat="44.63567" lon="1.21204">
        <ele>253.6</ele>
        <time>2024-07-23T12:14:11Z</time>
      </trkpt>
      <trkpt lat="44.63567" lon="1.21203">
        <ele>253.6</ele>
        <time>2024-07-23T12:14:12Z</time>
      </trkpt>
      <trkpt lat="44.63568" lon="1.21202">
        <ele>253.8</ele>
        <time>2024-07-23T12:14:13Z</time>
      </trkpt>
      <trkpt lat="44.63568" lon="1.21201">
        <ele>253.8</ele>
        <time>2024-07-23T12:14:14Z</time>
      </trkpt>
      <trkpt lat="44.63568" lon="1.212">
        <ele>253.8</ele>
        <time>2024-07-23T12:14:15Z</time>
      </trkpt>
      <trkpt lat="44.63568" lon="1.21197">
        <ele>253.8</ele>
        <time>2024-07-23T12:14:18Z</time>
      </trkpt>
      <trkpt lat="44.63568" lon="1.21196">
        <ele>254</ele>
        <time>2024-07-23T12:14:19Z</time>
      </trkpt>
      <trkpt lat="44.63569" lon="1.21195">
        <ele>254</ele>
        <time>2024-07-23T12:14:20Z</time>
      </trkpt>
      <trkpt lat="44.63569" lon="1.21193">
        <ele>254</ele>
        <time>2024-07-23T12:14:21Z</time>
      </trkpt>
      <trkpt lat="44.6357" lon="1.21186">
        <ele>254</ele>
        <time>2024-07-23T12:14:25Z</time>
      </trkpt>
      <trkpt lat="44.63571" lon="1.21181">
        <ele>254.2</ele>
        <time>2024-07-23T12:14:28Z</time>
      </trkpt>
      <trkpt lat="44.63572" lon="1.21179">
        <ele>254.2</ele>
        <time>2024-07-23T12:14:29Z</time>
      </trkpt>
      <trkpt lat="44.63577" lon="1.21165">
        <ele>254.2</ele>
        <time>2024-07-23T12:14:37Z</time>
      </trkpt>
      <trkpt lat="44.63578" lon="1.2116">
        <ele>254.2</ele>
        <time>2024-07-23T12:14:39Z</time>
      </trkpt>
      <trkpt lat="44.63579" lon="1.21158">
        <ele>254.2</ele>
        <time>2024-07-23T12:14:40Z</time>
      </trkpt>
      <trkpt lat="44.6358" lon="1.21154">
        <ele>254.6</ele>
        <time>2024-07-23T12:14:42Z</time>
      </trkpt>
      <trkpt lat="44.6358" lon="1.21153">
        <ele>254.6</ele>
        <time>2024-07-23T12:14:43Z</time>
      </trkpt>
      <trkpt lat="44.63581" lon="1.21151">
        <ele>254.8</ele>
        <time>2024-07-23T12:14:44Z</time>
      </trkpt>
      <trkpt lat="44.63581" lon="1.21146">
        <ele>254.6</ele>
        <time>2024-07-23T12:14:46Z</time>
      </trkpt>
      <trkpt lat="44.63584" lon="1.21134">
        <ele>254.6</ele>
        <time>2024-07-23T12:14:51Z</time>
      </trkpt>
      <trkpt lat="44.63587" lon="1.21128">
        <ele>254.8</ele>
        <time>2024-07-23T12:14:54Z</time>
      </trkpt>
      <trkpt lat="44.6359" lon="1.21119">
        <ele>255</ele>
        <time>2024-07-23T12:14:58Z</time>
      </trkpt>
      <trkpt lat="44.63591" lon="1.21117">
        <ele>255</ele>
        <time>2024-07-23T12:14:59Z</time>
      </trkpt>
      <trkpt lat="44.63592" lon="1.21115">
        <ele>255.2</ele>
        <time>2024-07-23T12:15:00Z</time>
      </trkpt>
      <trkpt lat="44.63591" lon="1.21112">
        <ele>255.4</ele>
        <time>2024-07-23T12:15:01Z</time>
      </trkpt>
      <trkpt lat="44.6359" lon="1.2111">
        <ele>255.4</ele>
        <time>2024-07-23T12:15:02Z</time>
      </trkpt>
      <trkpt lat="44.63594" lon="1.21102">
        <ele>255.6</ele>
        <time>2024-07-23T12:15:05Z</time>
      </trkpt>
      <trkpt lat="44.63595" lon="1.21101">
        <ele>255.8</ele>
        <time>2024-07-23T12:15:06Z</time>
      </trkpt>
      <trkpt lat="44.63595" lon="1.211">
        <ele>255.8</ele>
        <time>2024-07-23T12:15:07Z</time>
      </trkpt>
      <trkpt lat="44.63596" lon="1.21099">
        <ele>256</ele>
        <time>2024-07-23T12:15:08Z</time>
      </trkpt>
      <trkpt lat="44.63597" lon="1.21097">
        <ele>256.2</ele>
        <time>2024-07-23T12:15:09Z</time>
      </trkpt>
      <trkpt lat="44.63597" lon="1.21094">
        <ele>256.4</ele>
        <time>2024-07-23T12:15:11Z</time>
      </trkpt>
      <trkpt lat="44.63598" lon="1.21092">
        <ele>256.6</ele>
        <time>2024-07-23T12:15:12Z</time>
      </trkpt>
      <trkpt lat="44.63598" lon="1.21091">
        <ele>256.8</ele>
        <time>2024-07-23T12:15:13Z</time>
      </trkpt>
      <trkpt lat="44.63599" lon="1.2109">
        <ele>257</ele>
        <time>2024-07-23T12:15:14Z</time>
      </trkpt>
      <trkpt lat="44.636" lon="1.21089">
        <ele>257</ele>
        <time>2024-07-23T12:15:15Z</time>
      </trkpt>
      <trkpt lat="44.636" lon="1.21087">
        <ele>257.2</ele>
        <time>2024-07-23T12:15:16Z</time>
      </trkpt>
      <trkpt lat="44.636" lon="1.21085">
        <ele>257.2</ele>
        <time>2024-07-23T12:15:17Z</time>
      </trkpt>
      <trkpt lat="44.63602" lon="1.21081">
        <ele>257.4</ele>
        <time>2024-07-23T12:15:20Z</time>
      </trkpt>
      <trkpt lat="44.63603" lon="1.21079">
        <ele>257.4</ele>
        <time>2024-07-23T12:15:21Z</time>
      </trkpt>
      <trkpt lat="44.63604" lon="1.21078">
        <ele>257.6</ele>
        <time>2024-07-23T12:15:22Z</time>
      </trkpt>
      <trkpt lat="44.63606" lon="1.21074">
        <ele>258</ele>
        <time>2024-07-23T12:15:24Z</time>
      </trkpt>
      <trkpt lat="44.63608" lon="1.2107">
        <ele>258.2</ele>
        <time>2024-07-23T12:15:26Z</time>
      </trkpt>
      <trkpt lat="44.63609" lon="1.21067">
        <ele>258.2</ele>
        <time>2024-07-23T12:15:27Z</time>
      </trkpt>
      <trkpt lat="44.6361" lon="1.21065">
        <ele>258.4</ele>
        <time>2024-07-23T12:15:28Z</time>
      </trkpt>
      <trkpt lat="44.63611" lon="1.21063">
        <ele>258.4</ele>
        <time>2024-07-23T12:15:29Z</time>
      </trkpt>
      <trkpt lat="44.63612" lon="1.21061">
        <ele>258.4</ele>
        <time>2024-07-23T12:15:30Z</time>
      </trkpt>
      <trkpt lat="44.63613" lon="1.21059">
        <ele>258.8</ele>
        <time>2024-07-23T12:15:31Z</time>
      </trkpt>
      <trkpt lat="44.63614" lon="1.21057">
        <ele>258.8</ele>
        <time>2024-07-23T12:15:32Z</time>
      </trkpt>
      <trkpt lat="44.63615" lon="1.21055">
        <ele>259</ele>
        <time>2024-07-23T12:15:33Z</time>
      </trkpt>
      <trkpt lat="44.63616" lon="1.21053">
        <ele>259.2</ele>
        <time>2024-07-23T12:15:34Z</time>
      </trkpt>
      <trkpt lat="44.63617" lon="1.21051">
        <ele>259.2</ele>
        <time>2024-07-23T12:15:35Z</time>
      </trkpt>
      <trkpt lat="44.63618" lon="1.21049">
        <ele>259.4</ele>
        <time>2024-07-23T12:15:36Z</time>
      </trkpt>
      <trkpt lat="44.6362" lon="1.21047">
        <ele>259.6</ele>
        <time>2024-07-23T12:15:37Z</time>
      </trkpt>
      <trkpt lat="44.63621" lon="1.21045">
        <ele>259.8</ele>
        <time>2024-07-23T12:15:38Z</time>
      </trkpt>
      <trkpt lat="44.63622" lon="1.21044">
        <ele>259.8</ele>
        <time>2024-07-23T12:15:39Z</time>
      </trkpt>
      <trkpt lat="44.63624" lon="1.21041">
        <ele>260</ele>
        <time>2024-07-23T12:15:40Z</time>
      </trkpt>
      <trkpt lat="44.63625" lon="1.21039">
        <ele>260.2</ele>
        <time>2024-07-23T12:15:41Z</time>
      </trkpt>
      <trkpt lat="44.63625" lon="1.21037">
        <ele>260.4</ele>
        <time>2024-07-23T12:15:42Z</time>
      </trkpt>
      <trkpt lat="44.63626" lon="1.21036">
        <ele>260.6</ele>
        <time>2024-07-23T12:15:43Z</time>
      </trkpt>
      <trkpt lat="44.63628" lon="1.21035">
        <ele>260.6</ele>
        <time>2024-07-23T12:15:44Z</time>
      </trkpt>
      <trkpt lat="44.63629" lon="1.21033">
        <ele>260.8</ele>
        <time>2024-07-23T12:15:45Z</time>
      </trkpt>
      <trkpt lat="44.63629" lon="1.2103">
        <ele>260.8</ele>
        <time>2024-07-23T12:15:46Z</time>
      </trkpt>
      <trkpt lat="44.6363" lon="1.21027">
        <ele>260.8</ele>
        <time>2024-07-23T12:15:47Z</time>
      </trkpt>
      <trkpt lat="44.63631" lon="1.21024">
        <ele>261</ele>
        <time>2024-07-23T12:15:48Z</time>
      </trkpt>
      <trkpt lat="44.63632" lon="1.21022">
        <ele>261</ele>
        <time>2024-07-23T12:15:49Z</time>
      </trkpt>
      <trkpt lat="44.63633" lon="1.21019">
        <ele>261</ele>
        <time>2024-07-23T12:15:50Z</time>
      </trkpt>
      <trkpt lat="44.63634" lon="1.21017">
        <ele>261.2</ele>
        <time>2024-07-23T12:15:51Z</time>
      </trkpt>
      <trkpt lat="44.63635" lon="1.21016">
        <ele>261.4</ele>
        <time>2024-07-23T12:15:52Z</time>
      </trkpt>
      <trkpt lat="44.63637" lon="1.21013">
        <ele>261.4</ele>
        <time>2024-07-23T12:15:53Z</time>
      </trkpt>
      <trkpt lat="44.63638" lon="1.21011">
        <ele>261.4</ele>
        <time>2024-07-23T12:15:54Z</time>
      </trkpt>
      <trkpt lat="44.63639" lon="1.21009">
        <ele>261.4</ele>
        <time>2024-07-23T12:15:55Z</time>
      </trkpt>
      <trkpt lat="44.63641" lon="1.21007">
        <ele>261.6</ele>
        <time>2024-07-23T12:15:56Z</time>
      </trkpt>
      <trkpt lat="44.63642" lon="1.21004">
        <ele>261.6</ele>
        <time>2024-07-23T12:15:57Z</time>
      </trkpt>
      <trkpt lat="44.63645" lon="1.21003">
        <ele>261.6</ele>
        <time>2024-07-23T12:15:58Z</time>
      </trkpt>
      <trkpt lat="44.63646" lon="1.21">
        <ele>261.6</ele>
        <time>2024-07-23T12:15:59Z</time>
      </trkpt>
      <trkpt lat="44.63648" lon="1.20996">
        <ele>261.6</ele>
        <time>2024-07-23T12:16:00Z</time>
      </trkpt>
      <trkpt lat="44.6365" lon="1.20992">
        <ele>261.6</ele>
        <time>2024-07-23T12:16:01Z</time>
      </trkpt>
      <trkpt lat="44.63651" lon="1.20987">
        <ele>261.6</ele>
        <time>2024-07-23T12:16:02Z</time>
      </trkpt>
      <trkpt lat="44.63653" lon="1.20981">
        <ele>261.6</ele>
        <time>2024-07-23T12:16:03Z</time>
      </trkpt>
      <trkpt lat="44.63657" lon="1.20969">
        <ele>261.2</ele>
        <time>2024-07-23T12:16:05Z</time>
      </trkpt>
      <trkpt lat="44.63659" lon="1.20961">
        <ele>261.2</ele>
        <time>2024-07-23T12:16:06Z</time>
      </trkpt>
      <trkpt lat="44.63663" lon="1.20925">
        <ele>260.4</ele>
        <time>2024-07-23T12:16:10Z</time>
      </trkpt>
      <trkpt lat="44.63664" lon="1.20916">
        <ele>260.2</ele>
        <time>2024-07-23T12:16:11Z</time>
      </trkpt>
      <trkpt lat="44.63665" lon="1.20907">
        <ele>260</ele>
        <time>2024-07-23T12:16:12Z</time>
      </trkpt>
      <trkpt lat="44.63666" lon="1.20898">
        <ele>259.8</ele>
        <time>2024-07-23T12:16:13Z</time>
      </trkpt>
      <trkpt lat="44.63667" lon="1.20889">
        <ele>259.6</ele>
        <time>2024-07-23T12:16:14Z</time>
      </trkpt>
      <trkpt lat="44.63667" lon="1.20865">
        <ele>259.2</ele>
        <time>2024-07-23T12:16:17Z</time>
      </trkpt>
      <trkpt lat="44.63667" lon="1.20858">
        <ele>259.2</ele>
        <time>2024-07-23T12:16:18Z</time>
      </trkpt>
      <trkpt lat="44.63668" lon="1.20852">
        <ele>259</ele>
        <time>2024-07-23T12:16:19Z</time>
      </trkpt>
      <trkpt lat="44.63669" lon="1.20845">
        <ele>259</ele>
        <time>2024-07-23T12:16:20Z</time>
      </trkpt>
      <trkpt lat="44.6367" lon="1.20839">
        <ele>258.8</ele>
        <time>2024-07-23T12:16:21Z</time>
      </trkpt>
      <trkpt lat="44.6367" lon="1.20832">
        <ele>258.8</ele>
        <time>2024-07-23T12:16:22Z</time>
      </trkpt>
      <trkpt lat="44.6367" lon="1.20827">
        <ele>258.6</ele>
        <time>2024-07-23T12:16:23Z</time>
      </trkpt>
      <trkpt lat="44.6367" lon="1.20823">
        <ele>258.6</ele>
        <time>2024-07-23T12:16:24Z</time>
      </trkpt>
      <trkpt lat="44.63671" lon="1.20818">
        <ele>258.6</ele>
        <time>2024-07-23T12:16:25Z</time>
      </trkpt>
      <trkpt lat="44.63671" lon="1.20806">
        <ele>258.4</ele>
        <time>2024-07-23T12:16:28Z</time>
      </trkpt>
      <trkpt lat="44.63672" lon="1.20802">
        <ele>258.4</ele>
        <time>2024-07-23T12:16:29Z</time>
      </trkpt>
      <trkpt lat="44.63673" lon="1.20794">
        <ele>258.4</ele>
        <time>2024-07-23T12:16:31Z</time>
      </trkpt>
      <trkpt lat="44.63674" lon="1.20789">
        <ele>258.4</ele>
        <time>2024-07-23T12:16:32Z</time>
      </trkpt>
      <trkpt lat="44.63675" lon="1.20785">
        <ele>258.4</ele>
        <time>2024-07-23T12:16:33Z</time>
      </trkpt>
      <trkpt lat="44.63679" lon="1.20775">
        <ele>258.2</ele>
        <time>2024-07-23T12:16:35Z</time>
      </trkpt>
      <trkpt lat="44.63692" lon="1.20741">
        <ele>257.8</ele>
        <time>2024-07-23T12:16:40Z</time>
      </trkpt>
      <trkpt lat="44.63699" lon="1.20728">
        <ele>257</ele>
        <time>2024-07-23T12:16:42Z</time>
      </trkpt>
      <trkpt lat="44.63703" lon="1.20721">
        <ele>256.8</ele>
        <time>2024-07-23T12:16:43Z</time>
      </trkpt>
      <trkpt lat="44.63707" lon="1.20714">
        <ele>256.2</ele>
        <time>2024-07-23T12:16:44Z</time>
      </trkpt>
      <trkpt lat="44.63712" lon="1.20699">
        <ele>255.6</ele>
        <time>2024-07-23T12:16:46Z</time>
      </trkpt>
      <trkpt lat="44.63719" lon="1.20662">
        <ele>254.6</ele>
        <time>2024-07-23T12:16:50Z</time>
      </trkpt>
      <trkpt lat="44.6372" lon="1.20651">
        <ele>254</ele>
        <time>2024-07-23T12:16:51Z</time>
      </trkpt>
      <trkpt lat="44.63727" lon="1.20631">
        <ele>253.2</ele>
        <time>2024-07-23T12:16:53Z</time>
      </trkpt>
      <trkpt lat="44.63734" lon="1.20611">
        <ele>252.4</ele>
        <time>2024-07-23T12:16:55Z</time>
      </trkpt>
      <trkpt lat="44.63737" lon="1.20601">
        <ele>251.8</ele>
        <time>2024-07-23T12:16:56Z</time>
      </trkpt>
      <trkpt lat="44.6374" lon="1.20581">
        <ele>251</ele>
        <time>2024-07-23T12:16:58Z</time>
      </trkpt>
      <trkpt lat="44.63741" lon="1.20571">
        <ele>250.6</ele>
        <time>2024-07-23T12:16:59Z</time>
      </trkpt>
      <trkpt lat="44.63742" lon="1.2054">
        <ele>249.8</ele>
        <time>2024-07-23T12:17:02Z</time>
      </trkpt>
      <trkpt lat="44.63742" lon="1.2053">
        <ele>249.4</ele>
        <time>2024-07-23T12:17:03Z</time>
      </trkpt>
      <trkpt lat="44.63742" lon="1.2052">
        <ele>249.2</ele>
        <time>2024-07-23T12:17:04Z</time>
      </trkpt>
      <trkpt lat="44.63741" lon="1.2051">
        <ele>248.8</ele>
        <time>2024-07-23T12:17:05Z</time>
      </trkpt>
      <trkpt lat="44.63741" lon="1.20501">
        <ele>248.6</ele>
        <time>2024-07-23T12:17:06Z</time>
      </trkpt>
      <trkpt lat="44.63741" lon="1.20492">
        <ele>248.6</ele>
        <time>2024-07-23T12:17:07Z</time>
      </trkpt>
      <trkpt lat="44.6374" lon="1.20483">
        <ele>248.4</ele>
        <time>2024-07-23T12:17:08Z</time>
      </trkpt>
      <trkpt lat="44.6374" lon="1.20475">
        <ele>248.4</ele>
        <time>2024-07-23T12:17:09Z</time>
      </trkpt>
      <trkpt lat="44.63739" lon="1.20467">
        <ele>248.4</ele>
        <time>2024-07-23T12:17:10Z</time>
      </trkpt>
      <trkpt lat="44.63738" lon="1.20459">
        <ele>248.2</ele>
        <time>2024-07-23T12:17:11Z</time>
      </trkpt>
      <trkpt lat="44.63738" lon="1.20453">
        <ele>248</ele>
        <time>2024-07-23T12:17:12Z</time>
      </trkpt>
      <trkpt lat="44.63737" lon="1.20446">
        <ele>247.8</ele>
        <time>2024-07-23T12:17:13Z</time>
      </trkpt>
      <trkpt lat="44.63737" lon="1.2044">
        <ele>247.8</ele>
        <time>2024-07-23T12:17:14Z</time>
      </trkpt>
      <trkpt lat="44.63737" lon="1.20434">
        <ele>247.6</ele>
        <time>2024-07-23T12:17:15Z</time>
      </trkpt>
      <trkpt lat="44.63736" lon="1.20429">
        <ele>247.4</ele>
        <time>2024-07-23T12:17:16Z</time>
      </trkpt>
      <trkpt lat="44.63736" lon="1.20424">
        <ele>247.4</ele>
        <time>2024-07-23T12:17:17Z</time>
      </trkpt>
      <trkpt lat="44.63736" lon="1.20419">
        <ele>247.4</ele>
        <time>2024-07-23T12:17:18Z</time>
      </trkpt>
      <trkpt lat="44.63737" lon="1.20415">
        <ele>247.2</ele>
        <time>2024-07-23T12:17:19Z</time>
      </trkpt>
      <trkpt lat="44.63737" lon="1.20411">
        <ele>247.2</ele>
        <time>2024-07-23T12:17:20Z</time>
      </trkpt>
      <trkpt lat="44.63738" lon="1.20409">
        <ele>247.2</ele>
        <time>2024-07-23T12:17:21Z</time>
      </trkpt>
      <trkpt lat="44.63738" lon="1.20406">
        <ele>247.2</ele>
        <time>2024-07-23T12:17:22Z</time>
      </trkpt>
      <trkpt lat="44.63737" lon="1.20403">
        <ele>247.2</ele>
        <time>2024-07-23T12:17:23Z</time>
      </trkpt>
      <trkpt lat="44.63736" lon="1.204">
        <ele>247.2</ele>
        <time>2024-07-23T12:17:24Z</time>
      </trkpt>
      <trkpt lat="44.63735" lon="1.20397">
        <ele>247.2</ele>
        <time>2024-07-23T12:17:25Z</time>
      </trkpt>
      <trkpt lat="44.63734" lon="1.20393">
        <ele>247.2</ele>
        <time>2024-07-23T12:17:26Z</time>
      </trkpt>
      <trkpt lat="44.63727" lon="1.20379">
        <ele>247</ele>
        <time>2024-07-23T12:17:30Z</time>
      </trkpt>
      <trkpt lat="44.63713" lon="1.20363">
        <ele>246.8</ele>
        <time>2024-07-23T12:17:36Z</time>
      </trkpt>
      <trkpt lat="44.63703" lon="1.20357">
        <ele>247</ele>
        <time>2024-07-23T12:17:40Z</time>
      </trkpt>
      <trkpt lat="44.637" lon="1.20356">
        <ele>247.2</ele>
        <time>2024-07-23T12:17:41Z</time>
      </trkpt>
      <trkpt lat="44.63698" lon="1.20355">
        <ele>247.4</ele>
        <time>2024-07-23T12:17:42Z</time>
      </trkpt>
      <trkpt lat="44.63696" lon="1.20354">
        <ele>247.4</ele>
        <time>2024-07-23T12:17:43Z</time>
      </trkpt>
      <trkpt lat="44.63694" lon="1.20354">
        <ele>247.4</ele>
        <time>2024-07-23T12:17:44Z</time>
      </trkpt>
      <trkpt lat="44.63691" lon="1.20353">
        <ele>247.6</ele>
        <time>2024-07-23T12:17:45Z</time>
      </trkpt>
      <trkpt lat="44.63688" lon="1.20351">
        <ele>247.8</ele>
        <time>2024-07-23T12:17:46Z</time>
      </trkpt>
      <trkpt lat="44.63686" lon="1.2035">
        <ele>247.8</ele>
        <time>2024-07-23T12:17:47Z</time>
      </trkpt>
      <trkpt lat="44.63684" lon="1.20348">
        <ele>247.8</ele>
        <time>2024-07-23T12:17:48Z</time>
      </trkpt>
      <trkpt lat="44.63682" lon="1.20346">
        <ele>248</ele>
        <time>2024-07-23T12:17:49Z</time>
      </trkpt>
      <trkpt lat="44.63681" lon="1.20345">
        <ele>248</ele>
        <time>2024-07-23T12:17:50Z</time>
      </trkpt>
      <trkpt lat="44.63679" lon="1.20344">
        <ele>248</ele>
        <time>2024-07-23T12:17:51Z</time>
      </trkpt>
      <trkpt lat="44.63677" lon="1.20343">
        <ele>248</ele>
        <time>2024-07-23T12:17:52Z</time>
      </trkpt>
      <trkpt lat="44.63674" lon="1.20342">
        <ele>248</ele>
        <time>2024-07-23T12:17:53Z</time>
      </trkpt>
      <trkpt lat="44.63667" lon="1.20339">
        <ele>248.2</ele>
        <time>2024-07-23T12:17:56Z</time>
      </trkpt>
      <trkpt lat="44.63665" lon="1.20339">
        <ele>248.2</ele>
        <time>2024-07-23T12:17:57Z</time>
      </trkpt>
      <trkpt lat="44.63664" lon="1.20338">
        <ele>248.2</ele>
        <time>2024-07-23T12:17:58Z</time>
      </trkpt>
      <trkpt lat="44.63661" lon="1.20338">
        <ele>248.2</ele>
        <time>2024-07-23T12:17:59Z</time>
      </trkpt>
      <trkpt lat="44.63657" lon="1.20337">
        <ele>248.6</ele>
        <time>2024-07-23T12:18:01Z</time>
      </trkpt>
      <trkpt lat="44.63652" lon="1.20336">
        <ele>248.8</ele>
        <time>2024-07-23T12:18:03Z</time>
      </trkpt>
      <trkpt lat="44.6365" lon="1.20335">
        <ele>249.2</ele>
        <time>2024-07-23T12:18:04Z</time>
      </trkpt>
      <trkpt lat="44.63648" lon="1.20335">
        <ele>249.2</ele>
        <time>2024-07-23T12:18:05Z</time>
      </trkpt>
      <trkpt lat="44.63646" lon="1.20334">
        <ele>249.4</ele>
        <time>2024-07-23T12:18:06Z</time>
      </trkpt>
      <trkpt lat="44.63644" lon="1.20333">
        <ele>249.6</ele>
        <time>2024-07-23T12:18:07Z</time>
      </trkpt>
      <trkpt lat="44.63642" lon="1.20333">
        <ele>249.6</ele>
        <time>2024-07-23T12:18:08Z</time>
      </trkpt>
      <trkpt lat="44.6364" lon="1.20333">
        <ele>249.8</ele>
        <time>2024-07-23T12:18:09Z</time>
      </trkpt>
      <trkpt lat="44.63637" lon="1.20332">
        <ele>250.2</ele>
        <time>2024-07-23T12:18:11Z</time>
      </trkpt>
      <trkpt lat="44.63634" lon="1.20332">
        <ele>250.2</ele>
        <time>2024-07-23T12:18:12Z</time>
      </trkpt>
      <trkpt lat="44.63633" lon="1.20332">
        <ele>250.4</ele>
        <time>2024-07-23T12:18:13Z</time>
      </trkpt>
      <trkpt lat="44.63631" lon="1.20331">
        <ele>250.4</ele>
        <time>2024-07-23T12:18:14Z</time>
      </trkpt>
      <trkpt lat="44.63627" lon="1.20331">
        <ele>250.6</ele>
        <time>2024-07-23T12:18:16Z</time>
      </trkpt>
      <trkpt lat="44.63625" lon="1.20331">
        <ele>250.6</ele>
        <time>2024-07-23T12:18:17Z</time>
      </trkpt>
      <trkpt lat="44.63622" lon="1.2033">
        <ele>250.6</ele>
        <time>2024-07-23T12:18:18Z</time>
      </trkpt>
      <trkpt lat="44.6362" lon="1.2033">
        <ele>250.8</ele>
        <time>2024-07-23T12:18:19Z</time>
      </trkpt>
      <trkpt lat="44.63617" lon="1.2033">
        <ele>251</ele>
        <time>2024-07-23T12:18:20Z</time>
      </trkpt>
      <trkpt lat="44.63614" lon="1.2033">
        <ele>251</ele>
        <time>2024-07-23T12:18:21Z</time>
      </trkpt>
      <trkpt lat="44.63612" lon="1.2033">
        <ele>251.2</ele>
        <time>2024-07-23T12:18:22Z</time>
      </trkpt>
      <trkpt lat="44.6361" lon="1.20331">
        <ele>251.2</ele>
        <time>2024-07-23T12:18:23Z</time>
      </trkpt>
      <trkpt lat="44.63608" lon="1.20331">
        <ele>251.4</ele>
        <time>2024-07-23T12:18:24Z</time>
      </trkpt>
      <trkpt lat="44.63605" lon="1.20331">
        <ele>251.4</ele>
        <time>2024-07-23T12:18:25Z</time>
      </trkpt>
      <trkpt lat="44.63604" lon="1.20331">
        <ele>251.4</ele>
        <time>2024-07-23T12:18:26Z</time>
      </trkpt>
      <trkpt lat="44.63601" lon="1.20331">
        <ele>251.6</ele>
        <time>2024-07-23T12:18:27Z</time>
      </trkpt>
      <trkpt lat="44.63599" lon="1.2033">
        <ele>251.8</ele>
        <time>2024-07-23T12:18:28Z</time>
      </trkpt>
      <trkpt lat="44.63596" lon="1.2033">
        <ele>251.8</ele>
        <time>2024-07-23T12:18:29Z</time>
      </trkpt>
      <trkpt lat="44.63595" lon="1.2033">
        <ele>252</ele>
        <time>2024-07-23T12:18:30Z</time>
      </trkpt>
      <trkpt lat="44.63592" lon="1.20329">
        <ele>252</ele>
        <time>2024-07-23T12:18:31Z</time>
      </trkpt>
      <trkpt lat="44.63591" lon="1.20328">
        <ele>252.2</ele>
        <time>2024-07-23T12:18:32Z</time>
      </trkpt>
      <trkpt lat="44.63589" lon="1.20327">
        <ele>252.4</ele>
        <time>2024-07-23T12:18:33Z</time>
      </trkpt>
      <trkpt lat="44.63587" lon="1.20327">
        <ele>252.6</ele>
        <time>2024-07-23T12:18:34Z</time>
      </trkpt>
      <trkpt lat="44.63585" lon="1.20327">
        <ele>252.8</ele>
        <time>2024-07-23T12:18:35Z</time>
      </trkpt>
      <trkpt lat="44.63583" lon="1.20327">
        <ele>253</ele>
        <time>2024-07-23T12:18:36Z</time>
      </trkpt>
      <trkpt lat="44.63581" lon="1.20326">
        <ele>253.2</ele>
        <time>2024-07-23T12:18:37Z</time>
      </trkpt>
      <trkpt lat="44.63579" lon="1.20326">
        <ele>253.4</ele>
        <time>2024-07-23T12:18:38Z</time>
      </trkpt>
      <trkpt lat="44.63577" lon="1.20326">
        <ele>253.4</ele>
        <time>2024-07-23T12:18:39Z</time>
      </trkpt>
      <trkpt lat="44.63576" lon="1.20326">
        <ele>253.6</ele>
        <time>2024-07-23T12:18:40Z</time>
      </trkpt>
      <trkpt lat="44.63574" lon="1.20326">
        <ele>253.6</ele>
        <time>2024-07-23T12:18:41Z</time>
      </trkpt>
      <trkpt lat="44.63572" lon="1.20327">
        <ele>253.6</ele>
        <time>2024-07-23T12:18:42Z</time>
      </trkpt>
      <trkpt lat="44.6357" lon="1.20327">
        <ele>253.8</ele>
        <time>2024-07-23T12:18:43Z</time>
      </trkpt>
      <trkpt lat="44.63568" lon="1.20326">
        <ele>254</ele>
        <time>2024-07-23T12:18:44Z</time>
      </trkpt>
      <trkpt lat="44.63566" lon="1.20326">
        <ele>254.4</ele>
        <time>2024-07-23T12:18:45Z</time>
      </trkpt>
      <trkpt lat="44.63564" lon="1.20325">
        <ele>254.4</ele>
        <time>2024-07-23T12:18:46Z</time>
      </trkpt>
      <trkpt lat="44.63563" lon="1.20324">
        <ele>254.8</ele>
        <time>2024-07-23T12:18:47Z</time>
      </trkpt>
      <trkpt lat="44.63561" lon="1.20323">
        <ele>255</ele>
        <time>2024-07-23T12:18:48Z</time>
      </trkpt>
      <trkpt lat="44.63559" lon="1.20321">
        <ele>255.2</ele>
        <time>2024-07-23T12:18:49Z</time>
      </trkpt>
      <trkpt lat="44.63557" lon="1.20321">
        <ele>255.2</ele>
        <time>2024-07-23T12:18:50Z</time>
      </trkpt>
      <trkpt lat="44.63555" lon="1.2032">
        <ele>255.4</ele>
        <time>2024-07-23T12:18:51Z</time>
      </trkpt>
      <trkpt lat="44.63553" lon="1.20319">
        <ele>255.4</ele>
        <time>2024-07-23T12:18:52Z</time>
      </trkpt>
      <trkpt lat="44.63552" lon="1.20319">
        <ele>255.4</ele>
        <time>2024-07-23T12:18:53Z</time>
      </trkpt>
      <trkpt lat="44.63549" lon="1.20318">
        <ele>255.4</ele>
        <time>2024-07-23T12:18:54Z</time>
      </trkpt>
      <trkpt lat="44.63547" lon="1.20317">
        <ele>255.6</ele>
        <time>2024-07-23T12:18:55Z</time>
      </trkpt>
      <trkpt lat="44.63546" lon="1.20316">
        <ele>255.6</ele>
        <time>2024-07-23T12:18:56Z</time>
      </trkpt>
      <trkpt lat="44.63544" lon="1.20316">
        <ele>255.8</ele>
        <time>2024-07-23T12:18:57Z</time>
      </trkpt>
      <trkpt lat="44.63543" lon="1.20316">
        <ele>255.8</ele>
        <time>2024-07-23T12:18:58Z</time>
      </trkpt>
      <trkpt lat="44.63541" lon="1.20315">
        <ele>256</ele>
        <time>2024-07-23T12:18:59Z</time>
      </trkpt>
      <trkpt lat="44.63539" lon="1.20314">
        <ele>256</ele>
        <time>2024-07-23T12:19:00Z</time>
      </trkpt>
      <trkpt lat="44.63538" lon="1.20312">
        <ele>256.2</ele>
        <time>2024-07-23T12:19:01Z</time>
      </trkpt>
      <trkpt lat="44.63536" lon="1.20311">
        <ele>256.6</ele>
        <time>2024-07-23T12:19:02Z</time>
      </trkpt>
      <trkpt lat="44.63535" lon="1.20311">
        <ele>256.4</ele>
        <time>2024-07-23T12:19:03Z</time>
      </trkpt>
      <trkpt lat="44.63533" lon="1.20309">
        <ele>256.4</ele>
        <time>2024-07-23T12:19:04Z</time>
      </trkpt>
      <trkpt lat="44.63531" lon="1.20308">
        <ele>256.6</ele>
        <time>2024-07-23T12:19:05Z</time>
      </trkpt>
      <trkpt lat="44.6353" lon="1.20307">
        <ele>256.6</ele>
        <time>2024-07-23T12:19:06Z</time>
      </trkpt>
      <trkpt lat="44.63528" lon="1.20306">
        <ele>256.8</ele>
        <time>2024-07-23T12:19:07Z</time>
      </trkpt>
      <trkpt lat="44.63527" lon="1.20305">
        <ele>256.8</ele>
        <time>2024-07-23T12:19:08Z</time>
      </trkpt>
      <trkpt lat="44.63526" lon="1.20304">
        <ele>257</ele>
        <time>2024-07-23T12:19:09Z</time>
      </trkpt>
      <trkpt lat="44.63524" lon="1.20302">
        <ele>257</ele>
        <time>2024-07-23T12:19:10Z</time>
      </trkpt>
      <trkpt lat="44.63522" lon="1.20301">
        <ele>257</ele>
        <time>2024-07-23T12:19:11Z</time>
      </trkpt>
      <trkpt lat="44.63522" lon="1.203">
        <ele>257.2</ele>
        <time>2024-07-23T12:19:12Z</time>
      </trkpt>
      <trkpt lat="44.6352" lon="1.20299">
        <ele>257.4</ele>
        <time>2024-07-23T12:19:13Z</time>
      </trkpt>
      <trkpt lat="44.63519" lon="1.20298">
        <ele>257.6</ele>
        <time>2024-07-23T12:19:14Z</time>
      </trkpt>
      <trkpt lat="44.63517" lon="1.20296">
        <ele>257.6</ele>
        <time>2024-07-23T12:19:15Z</time>
      </trkpt>
      <trkpt lat="44.63515" lon="1.20294">
        <ele>257.8</ele>
        <time>2024-07-23T12:19:16Z</time>
      </trkpt>
      <trkpt lat="44.63513" lon="1.20293">
        <ele>257.8</ele>
        <time>2024-07-23T12:19:17Z</time>
      </trkpt>
      <trkpt lat="44.63512" lon="1.20292">
        <ele>258</ele>
        <time>2024-07-23T12:19:18Z</time>
      </trkpt>
      <trkpt lat="44.63511" lon="1.20291">
        <ele>258.2</ele>
        <time>2024-07-23T12:19:19Z</time>
      </trkpt>
      <trkpt lat="44.6351" lon="1.20289">
        <ele>258.2</ele>
        <time>2024-07-23T12:19:20Z</time>
      </trkpt>
      <trkpt lat="44.63508" lon="1.20287">
        <ele>258.4</ele>
        <time>2024-07-23T12:19:21Z</time>
      </trkpt>
      <trkpt lat="44.63507" lon="1.20287">
        <ele>258.4</ele>
        <time>2024-07-23T12:19:22Z</time>
      </trkpt>
      <trkpt lat="44.63506" lon="1.20286">
        <ele>258.6</ele>
        <time>2024-07-23T12:19:23Z</time>
      </trkpt>
      <trkpt lat="44.63505" lon="1.20285">
        <ele>258.8</ele>
        <time>2024-07-23T12:19:24Z</time>
      </trkpt>
      <trkpt lat="44.63504" lon="1.20284">
        <ele>258.8</ele>
        <time>2024-07-23T12:19:25Z</time>
      </trkpt>
      <trkpt lat="44.63502" lon="1.20283">
        <ele>259</ele>
        <time>2024-07-23T12:19:26Z</time>
      </trkpt>
      <trkpt lat="44.63501" lon="1.20281">
        <ele>259.2</ele>
        <time>2024-07-23T12:19:27Z</time>
      </trkpt>
      <trkpt lat="44.635" lon="1.2028">
        <ele>259.4</ele>
        <time>2024-07-23T12:19:28Z</time>
      </trkpt>
      <trkpt lat="44.63499" lon="1.20279">
        <ele>259.8</ele>
        <time>2024-07-23T12:19:29Z</time>
      </trkpt>
      <trkpt lat="44.63498" lon="1.20278">
        <ele>260</ele>
        <time>2024-07-23T12:19:30Z</time>
      </trkpt>
      <trkpt lat="44.63497" lon="1.20276">
        <ele>260.2</ele>
        <time>2024-07-23T12:19:31Z</time>
      </trkpt>
      <trkpt lat="44.63496" lon="1.20275">
        <ele>260.4</ele>
        <time>2024-07-23T12:19:32Z</time>
      </trkpt>
      <trkpt lat="44.63494" lon="1.20274">
        <ele>260.6</ele>
        <time>2024-07-23T12:19:33Z</time>
      </trkpt>
      <trkpt lat="44.63493" lon="1.20273">
        <ele>260.6</ele>
        <time>2024-07-23T12:19:34Z</time>
      </trkpt>
      <trkpt lat="44.63492" lon="1.20271">
        <ele>261</ele>
        <time>2024-07-23T12:19:35Z</time>
      </trkpt>
      <trkpt lat="44.6349" lon="1.2027">
        <ele>261.2</ele>
        <time>2024-07-23T12:19:36Z</time>
      </trkpt>
      <trkpt lat="44.6349" lon="1.20268">
        <ele>261.4</ele>
        <time>2024-07-23T12:19:37Z</time>
      </trkpt>
      <trkpt lat="44.63489" lon="1.20267">
        <ele>261.4</ele>
        <time>2024-07-23T12:19:38Z</time>
      </trkpt>
      <trkpt lat="44.63487" lon="1.20265">
        <ele>261.4</ele>
        <time>2024-07-23T12:19:39Z</time>
      </trkpt>
      <trkpt lat="44.63487" lon="1.20264">
        <ele>261.6</ele>
        <time>2024-07-23T12:19:40Z</time>
      </trkpt>
      <trkpt lat="44.63485" lon="1.20262">
        <ele>261.6</ele>
        <time>2024-07-23T12:19:41Z</time>
      </trkpt>
      <trkpt lat="44.63483" lon="1.20259">
        <ele>261.6</ele>
        <time>2024-07-23T12:19:42Z</time>
      </trkpt>
      <trkpt lat="44.63481" lon="1.20258">
        <ele>261.8</ele>
        <time>2024-07-23T12:19:43Z</time>
      </trkpt>
      <trkpt lat="44.63479" lon="1.20256">
        <ele>261.8</ele>
        <time>2024-07-23T12:19:44Z</time>
      </trkpt>
      <trkpt lat="44.63478" lon="1.20256">
        <ele>261.8</ele>
        <time>2024-07-23T12:19:45Z</time>
      </trkpt>
      <trkpt lat="44.63476" lon="1.20255">
        <ele>261.8</ele>
        <time>2024-07-23T12:19:46Z</time>
      </trkpt>
      <trkpt lat="44.63473" lon="1.20254">
        <ele>262</ele>
        <time>2024-07-23T12:19:47Z</time>
      </trkpt>
      <trkpt lat="44.63471" lon="1.20253">
        <ele>262</ele>
        <time>2024-07-23T12:19:48Z</time>
      </trkpt>
      <trkpt lat="44.63469" lon="1.20253">
        <ele>262.2</ele>
        <time>2024-07-23T12:19:49Z</time>
      </trkpt>
      <trkpt lat="44.63467" lon="1.20252">
        <ele>262.6</ele>
        <time>2024-07-23T12:19:50Z</time>
      </trkpt>
      <trkpt lat="44.63465" lon="1.20251">
        <ele>262.8</ele>
        <time>2024-07-23T12:19:51Z</time>
      </trkpt>
      <trkpt lat="44.63462" lon="1.2025">
        <ele>263</ele>
        <time>2024-07-23T12:19:52Z</time>
      </trkpt>
      <trkpt lat="44.6346" lon="1.20249">
        <ele>263.2</ele>
        <time>2024-07-23T12:19:53Z</time>
      </trkpt>
      <trkpt lat="44.63458" lon="1.20248">
        <ele>263.2</ele>
        <time>2024-07-23T12:19:54Z</time>
      </trkpt>
      <trkpt lat="44.63456" lon="1.20248">
        <ele>263.4</ele>
        <time>2024-07-23T12:19:55Z</time>
      </trkpt>
      <trkpt lat="44.63455" lon="1.20247">
        <ele>263.4</ele>
        <time>2024-07-23T12:19:56Z</time>
      </trkpt>
      <trkpt lat="44.63453" lon="1.20247">
        <ele>263.8</ele>
        <time>2024-07-23T12:19:57Z</time>
      </trkpt>
      <trkpt lat="44.63451" lon="1.20246">
        <ele>264</ele>
        <time>2024-07-23T12:19:58Z</time>
      </trkpt>
      <trkpt lat="44.63448" lon="1.20246">
        <ele>264.2</ele>
        <time>2024-07-23T12:19:59Z</time>
      </trkpt>
      <trkpt lat="44.63446" lon="1.20245">
        <ele>264.2</ele>
        <time>2024-07-23T12:20:00Z</time>
      </trkpt>
      <trkpt lat="44.63443" lon="1.20243">
        <ele>264.4</ele>
        <time>2024-07-23T12:20:01Z</time>
      </trkpt>
      <trkpt lat="44.63442" lon="1.20244">
        <ele>264.6</ele>
        <time>2024-07-23T12:20:02Z</time>
      </trkpt>
      <trkpt lat="44.6344" lon="1.20245">
        <ele>264.6</ele>
        <time>2024-07-23T12:20:03Z</time>
      </trkpt>
      <trkpt lat="44.63438" lon="1.20245">
        <ele>264.6</ele>
        <time>2024-07-23T12:20:04Z</time>
      </trkpt>
      <trkpt lat="44.63435" lon="1.20245">
        <ele>264.6</ele>
        <time>2024-07-23T12:20:05Z</time>
      </trkpt>
      <trkpt lat="44.63433" lon="1.20244">
        <ele>264.8</ele>
        <time>2024-07-23T12:20:06Z</time>
      </trkpt>
      <trkpt lat="44.6343" lon="1.20244">
        <ele>264.8</ele>
        <time>2024-07-23T12:20:07Z</time>
      </trkpt>
      <trkpt lat="44.63426" lon="1.20245">
        <ele>264.8</ele>
        <time>2024-07-23T12:20:08Z</time>
      </trkpt>
      <trkpt lat="44.63422" lon="1.20244">
        <ele>264.8</ele>
        <time>2024-07-23T12:20:09Z</time>
      </trkpt>
      <trkpt lat="44.63419" lon="1.20244">
        <ele>264.8</ele>
        <time>2024-07-23T12:20:10Z</time>
      </trkpt>
      <trkpt lat="44.63416" lon="1.20244">
        <ele>264.8</ele>
        <time>2024-07-23T12:20:11Z</time>
      </trkpt>
      <trkpt lat="44.63412" lon="1.20242">
        <ele>264.8</ele>
        <time>2024-07-23T12:20:12Z</time>
      </trkpt>
      <trkpt lat="44.6341" lon="1.20241">
        <ele>264.8</ele>
        <time>2024-07-23T12:20:13Z</time>
      </trkpt>
      <trkpt lat="44.63407" lon="1.20239">
        <ele>264.6</ele>
        <time>2024-07-23T12:20:14Z</time>
      </trkpt>
      <trkpt lat="44.63404" lon="1.20236">
        <ele>264.6</ele>
        <time>2024-07-23T12:20:15Z</time>
      </trkpt>
      <trkpt lat="44.63403" lon="1.20234">
        <ele>264.6</ele>
        <time>2024-07-23T12:20:16Z</time>
      </trkpt>
      <trkpt lat="44.63401" lon="1.20231">
        <ele>264.8</ele>
        <time>2024-07-23T12:20:17Z</time>
      </trkpt>
      <trkpt lat="44.63399" lon="1.20229">
        <ele>264.8</ele>
        <time>2024-07-23T12:20:18Z</time>
      </trkpt>
      <trkpt lat="44.63397" lon="1.20227">
        <ele>264.8</ele>
        <time>2024-07-23T12:20:19Z</time>
      </trkpt>
      <trkpt lat="44.63394" lon="1.20223">
        <ele>264.8</ele>
        <time>2024-07-23T12:20:20Z</time>
      </trkpt>
      <trkpt lat="44.63393" lon="1.20221">
        <ele>264.8</ele>
        <time>2024-07-23T12:20:21Z</time>
      </trkpt>
      <trkpt lat="44.63392" lon="1.2022">
        <ele>264.8</ele>
        <time>2024-07-23T12:20:22Z</time>
      </trkpt>
      <trkpt lat="44.63389" lon="1.20217">
        <ele>264.8</ele>
        <time>2024-07-23T12:20:23Z</time>
      </trkpt>
      <trkpt lat="44.63386" lon="1.20214">
        <ele>265</ele>
        <time>2024-07-23T12:20:24Z</time>
      </trkpt>
      <trkpt lat="44.63382" lon="1.20211">
        <ele>265</ele>
        <time>2024-07-23T12:20:25Z</time>
      </trkpt>
      <trkpt lat="44.6338" lon="1.20208">
        <ele>265.2</ele>
        <time>2024-07-23T12:20:26Z</time>
      </trkpt>
      <trkpt lat="44.63377" lon="1.20206">
        <ele>265.2</ele>
        <time>2024-07-23T12:20:27Z</time>
      </trkpt>
      <trkpt lat="44.63375" lon="1.20204">
        <ele>265.2</ele>
        <time>2024-07-23T12:20:28Z</time>
      </trkpt>
      <trkpt lat="44.63372" lon="1.20201">
        <ele>265.4</ele>
        <time>2024-07-23T12:20:29Z</time>
      </trkpt>
      <trkpt lat="44.6337" lon="1.20198">
        <ele>265.6</ele>
        <time>2024-07-23T12:20:30Z</time>
      </trkpt>
      <trkpt lat="44.63368" lon="1.20196">
        <ele>265.8</ele>
        <time>2024-07-23T12:20:31Z</time>
      </trkpt>
      <trkpt lat="44.63358" lon="1.20184">
        <ele>266.2</ele>
        <time>2024-07-23T12:20:37Z</time>
      </trkpt>
      <trkpt lat="44.63358" lon="1.20183">
        <ele>266.4</ele>
        <time>2024-07-23T12:20:38Z</time>
      </trkpt>
      <trkpt lat="44.63357" lon="1.2018">
        <ele>266.6</ele>
        <time>2024-07-23T12:20:39Z</time>
      </trkpt>
      <trkpt lat="44.63356" lon="1.20179">
        <ele>266.6</ele>
        <time>2024-07-23T12:20:40Z</time>
      </trkpt>
      <trkpt lat="44.63355" lon="1.20177">
        <ele>266.8</ele>
        <time>2024-07-23T12:20:41Z</time>
      </trkpt>
      <trkpt lat="44.63355" lon="1.20176">
        <ele>267</ele>
        <time>2024-07-23T12:20:42Z</time>
      </trkpt>
      <trkpt lat="44.63354" lon="1.20175">
        <ele>267.4</ele>
        <time>2024-07-23T12:20:43Z</time>
      </trkpt>
      <trkpt lat="44.63352" lon="1.20173">
        <ele>267.6</ele>
        <time>2024-07-23T12:20:44Z</time>
      </trkpt>
      <trkpt lat="44.6335" lon="1.20171">
        <ele>267.8</ele>
        <time>2024-07-23T12:20:45Z</time>
      </trkpt>
      <trkpt lat="44.63348" lon="1.2017">
        <ele>268</ele>
        <time>2024-07-23T12:20:46Z</time>
      </trkpt>
      <trkpt lat="44.63347" lon="1.20168">
        <ele>268</ele>
        <time>2024-07-23T12:20:47Z</time>
      </trkpt>
      <trkpt lat="44.63345" lon="1.20166">
        <ele>268.2</ele>
        <time>2024-07-23T12:20:48Z</time>
      </trkpt>
      <trkpt lat="44.63342" lon="1.20164">
        <ele>268.2</ele>
        <time>2024-07-23T12:20:49Z</time>
      </trkpt>
      <trkpt lat="44.63341" lon="1.20163">
        <ele>268.4</ele>
        <time>2024-07-23T12:20:50Z</time>
      </trkpt>
      <trkpt lat="44.6334" lon="1.20161">
        <ele>268.4</ele>
        <time>2024-07-23T12:20:51Z</time>
      </trkpt>
      <trkpt lat="44.63337" lon="1.20158">
        <ele>268.6</ele>
        <time>2024-07-23T12:20:52Z</time>
      </trkpt>
      <trkpt lat="44.63336" lon="1.20157">
        <ele>268.6</ele>
        <time>2024-07-23T12:20:53Z</time>
      </trkpt>
      <trkpt lat="44.63335" lon="1.20155">
        <ele>268.8</ele>
        <time>2024-07-23T12:20:54Z</time>
      </trkpt>
      <trkpt lat="44.63333" lon="1.20153">
        <ele>269</ele>
        <time>2024-07-23T12:20:55Z</time>
      </trkpt>
      <trkpt lat="44.63331" lon="1.20151">
        <ele>269.2</ele>
        <time>2024-07-23T12:20:56Z</time>
      </trkpt>
      <trkpt lat="44.63328" lon="1.20148">
        <ele>269.2</ele>
        <time>2024-07-23T12:20:57Z</time>
      </trkpt>
      <trkpt lat="44.63326" lon="1.20145">
        <ele>269.4</ele>
        <time>2024-07-23T12:20:58Z</time>
      </trkpt>
      <trkpt lat="44.63324" lon="1.20142">
        <ele>269.4</ele>
        <time>2024-07-23T12:20:59Z</time>
      </trkpt>
      <trkpt lat="44.63322" lon="1.2014">
        <ele>269.6</ele>
        <time>2024-07-23T12:21:00Z</time>
      </trkpt>
      <trkpt lat="44.63319" lon="1.20136">
        <ele>269.8</ele>
        <time>2024-07-23T12:21:01Z</time>
      </trkpt>
      <trkpt lat="44.63316" lon="1.20132">
        <ele>270</ele>
        <time>2024-07-23T12:21:02Z</time>
      </trkpt>
      <trkpt lat="44.63311" lon="1.20127">
        <ele>270.2</ele>
        <time>2024-07-23T12:21:03Z</time>
      </trkpt>
      <trkpt lat="44.63308" lon="1.20123">
        <ele>270.2</ele>
        <time>2024-07-23T12:21:04Z</time>
      </trkpt>
      <trkpt lat="44.63305" lon="1.2012">
        <ele>270.4</ele>
        <time>2024-07-23T12:21:05Z</time>
      </trkpt>
      <trkpt lat="44.63301" lon="1.20116">
        <ele>270.4</ele>
        <time>2024-07-23T12:21:06Z</time>
      </trkpt>
      <trkpt lat="44.63298" lon="1.20112">
        <ele>270.6</ele>
        <time>2024-07-23T12:21:07Z</time>
      </trkpt>
      <trkpt lat="44.63297" lon="1.20111">
        <ele>270.6</ele>
        <time>2024-07-23T12:21:08Z</time>
      </trkpt>
      <trkpt lat="44.63295" lon="1.20108">
        <ele>270.8</ele>
        <time>2024-07-23T12:21:09Z</time>
      </trkpt>
      <trkpt lat="44.63294" lon="1.20105">
        <ele>270.8</ele>
        <time>2024-07-23T12:21:10Z</time>
      </trkpt>
      <trkpt lat="44.63292" lon="1.20101">
        <ele>270.8</ele>
        <time>2024-07-23T12:21:11Z</time>
      </trkpt>
      <trkpt lat="44.6329" lon="1.20098">
        <ele>271</ele>
        <time>2024-07-23T12:21:12Z</time>
      </trkpt>
      <trkpt lat="44.63287" lon="1.20094">
        <ele>271</ele>
        <time>2024-07-23T12:21:13Z</time>
      </trkpt>
      <trkpt lat="44.63285" lon="1.20092">
        <ele>271</ele>
        <time>2024-07-23T12:21:14Z</time>
      </trkpt>
      <trkpt lat="44.63282" lon="1.20089">
        <ele>271.2</ele>
        <time>2024-07-23T12:21:15Z</time>
      </trkpt>
      <trkpt lat="44.63279" lon="1.20086">
        <ele>271.2</ele>
        <time>2024-07-23T12:21:16Z</time>
      </trkpt>
      <trkpt lat="44.63276" lon="1.20082">
        <ele>271.4</ele>
        <time>2024-07-23T12:21:17Z</time>
      </trkpt>
      <trkpt lat="44.63274" lon="1.20079">
        <ele>271.2</ele>
        <time>2024-07-23T12:21:18Z</time>
      </trkpt>
      <trkpt lat="44.63271" lon="1.20075">
        <ele>271.4</ele>
        <time>2024-07-23T12:21:19Z</time>
      </trkpt>
      <trkpt lat="44.63271" lon="1.20073">
        <ele>271.4</ele>
        <time>2024-07-23T12:21:20Z</time>
      </trkpt>
      <trkpt lat="44.63269" lon="1.20073">
        <ele>271.4</ele>
        <time>2024-07-23T12:21:21Z</time>
      </trkpt>
      <trkpt lat="44.63269" lon="1.20072">
        <ele>271.6</ele>
        <time>2024-07-23T12:21:22Z</time>
      </trkpt>
      <trkpt lat="44.63269" lon="1.20072">
        <ele>271.6</ele>
        <time>2024-07-23T12:21:23Z</time>
      </trkpt>
      <trkpt lat="44.63269" lon="1.2007">
        <ele>271.6</ele>
        <time>2024-07-23T12:21:24Z</time>
      </trkpt>
      <trkpt lat="44.63268" lon="1.20066">
        <ele>271.6</ele>
        <time>2024-07-23T12:21:25Z</time>
      </trkpt>
      <trkpt lat="44.63267" lon="1.20064">
        <ele>272</ele>
        <time>2024-07-23T12:21:26Z</time>
      </trkpt>
      <trkpt lat="44.63266" lon="1.20063">
        <ele>272</ele>
        <time>2024-07-23T12:21:27Z</time>
      </trkpt>
      <trkpt lat="44.63262" lon="1.20058">
        <ele>272.2</ele>
        <time>2024-07-23T12:21:29Z</time>
      </trkpt>
      <trkpt lat="44.63261" lon="1.20056">
        <ele>272.4</ele>
        <time>2024-07-23T12:21:30Z</time>
      </trkpt>
      <trkpt lat="44.63252" lon="1.20042">
        <ele>272.8</ele>
        <time>2024-07-23T12:21:35Z</time>
      </trkpt>
      <trkpt lat="44.63251" lon="1.20039">
        <ele>273</ele>
        <time>2024-07-23T12:21:36Z</time>
      </trkpt>
      <trkpt lat="44.6325" lon="1.20037">
        <ele>273.4</ele>
        <time>2024-07-23T12:21:37Z</time>
      </trkpt>
      <trkpt lat="44.63248" lon="1.20034">
        <ele>273.4</ele>
        <time>2024-07-23T12:21:38Z</time>
      </trkpt>
      <trkpt lat="44.63246" lon="1.20031">
        <ele>273.6</ele>
        <time>2024-07-23T12:21:39Z</time>
      </trkpt>
      <trkpt lat="44.63243" lon="1.20028">
        <ele>273.6</ele>
        <time>2024-07-23T12:21:40Z</time>
      </trkpt>
      <trkpt lat="44.6324" lon="1.20025">
        <ele>273.8</ele>
        <time>2024-07-23T12:21:41Z</time>
      </trkpt>
      <trkpt lat="44.63238" lon="1.20022">
        <ele>274</ele>
        <time>2024-07-23T12:21:42Z</time>
      </trkpt>
      <trkpt lat="44.63235" lon="1.20019">
        <ele>274</ele>
        <time>2024-07-23T12:21:43Z</time>
      </trkpt>
      <trkpt lat="44.63233" lon="1.20015">
        <ele>274.2</ele>
        <time>2024-07-23T12:21:44Z</time>
      </trkpt>
      <trkpt lat="44.6323" lon="1.20012">
        <ele>274.6</ele>
        <time>2024-07-23T12:21:45Z</time>
      </trkpt>
      <trkpt lat="44.63229" lon="1.2001">
        <ele>274.6</ele>
        <time>2024-07-23T12:21:46Z</time>
      </trkpt>
      <trkpt lat="44.63227" lon="1.20007">
        <ele>274.8</ele>
        <time>2024-07-23T12:21:47Z</time>
      </trkpt>
      <trkpt lat="44.63224" lon="1.20004">
        <ele>275.2</ele>
        <time>2024-07-23T12:21:48Z</time>
      </trkpt>
      <trkpt lat="44.63221" lon="1.20001">
        <ele>275.4</ele>
        <time>2024-07-23T12:21:49Z</time>
      </trkpt>
      <trkpt lat="44.6322" lon="1.19999">
        <ele>275.6</ele>
        <time>2024-07-23T12:21:50Z</time>
      </trkpt>
      <trkpt lat="44.63218" lon="1.19996">
        <ele>275.6</ele>
        <time>2024-07-23T12:21:51Z</time>
      </trkpt>
      <trkpt lat="44.63217" lon="1.19993">
        <ele>275.6</ele>
        <time>2024-07-23T12:21:52Z</time>
      </trkpt>
      <trkpt lat="44.63215" lon="1.1999">
        <ele>275.8</ele>
        <time>2024-07-23T12:21:53Z</time>
      </trkpt>
      <trkpt lat="44.63213" lon="1.19987">
        <ele>275.8</ele>
        <time>2024-07-23T12:21:54Z</time>
      </trkpt>
      <trkpt lat="44.6321" lon="1.19985">
        <ele>276</ele>
        <time>2024-07-23T12:21:55Z</time>
      </trkpt>
      <trkpt lat="44.63208" lon="1.19983">
        <ele>276.2</ele>
        <time>2024-07-23T12:21:56Z</time>
      </trkpt>
      <trkpt lat="44.63206" lon="1.19983">
        <ele>276.2</ele>
        <time>2024-07-23T12:21:57Z</time>
      </trkpt>
      <trkpt lat="44.63205" lon="1.19981">
        <ele>276.4</ele>
        <time>2024-07-23T12:21:58Z</time>
      </trkpt>
      <trkpt lat="44.63203" lon="1.19979">
        <ele>276.4</ele>
        <time>2024-07-23T12:21:59Z</time>
      </trkpt>
      <trkpt lat="44.63202" lon="1.19977">
        <ele>276.6</ele>
        <time>2024-07-23T12:22:00Z</time>
      </trkpt>
      <trkpt lat="44.632" lon="1.19974">
        <ele>276.8</ele>
        <time>2024-07-23T12:22:01Z</time>
      </trkpt>
      <trkpt lat="44.632" lon="1.19972">
        <ele>277</ele>
        <time>2024-07-23T12:22:02Z</time>
      </trkpt>
      <trkpt lat="44.63199" lon="1.1997">
        <ele>277.2</ele>
        <time>2024-07-23T12:22:03Z</time>
      </trkpt>
      <trkpt lat="44.63198" lon="1.19968">
        <ele>277.2</ele>
        <time>2024-07-23T12:22:04Z</time>
      </trkpt>
      <trkpt lat="44.63197" lon="1.19965">
        <ele>277.4</ele>
        <time>2024-07-23T12:22:05Z</time>
      </trkpt>
      <trkpt lat="44.63196" lon="1.19962">
        <ele>277.4</ele>
        <time>2024-07-23T12:22:06Z</time>
      </trkpt>
      <trkpt lat="44.63196" lon="1.1996">
        <ele>277.4</ele>
        <time>2024-07-23T12:22:07Z</time>
      </trkpt>
      <trkpt lat="44.63195" lon="1.19958">
        <ele>277.8</ele>
        <time>2024-07-23T12:22:08Z</time>
      </trkpt>
      <trkpt lat="44.63194" lon="1.19957">
        <ele>277.8</ele>
        <time>2024-07-23T12:22:09Z</time>
      </trkpt>
      <trkpt lat="44.63194" lon="1.19955">
        <ele>278.2</ele>
        <time>2024-07-23T12:22:10Z</time>
      </trkpt>
      <trkpt lat="44.63193" lon="1.19954">
        <ele>278.4</ele>
        <time>2024-07-23T12:22:11Z</time>
      </trkpt>
      <trkpt lat="44.63192" lon="1.19953">
        <ele>278.6</ele>
        <time>2024-07-23T12:22:12Z</time>
      </trkpt>
      <trkpt lat="44.63192" lon="1.19952">
        <ele>278.6</ele>
        <time>2024-07-23T12:22:13Z</time>
      </trkpt>
      <trkpt lat="44.6319" lon="1.1995">
        <ele>278.6</ele>
        <time>2024-07-23T12:22:14Z</time>
      </trkpt>
      <trkpt lat="44.6319" lon="1.19948">
        <ele>278.8</ele>
        <time>2024-07-23T12:22:15Z</time>
      </trkpt>
      <trkpt lat="44.63189" lon="1.19945">
        <ele>278.8</ele>
        <time>2024-07-23T12:22:16Z</time>
      </trkpt>
      <trkpt lat="44.63188" lon="1.19942">
        <ele>279</ele>
        <time>2024-07-23T12:22:17Z</time>
      </trkpt>
      <trkpt lat="44.63187" lon="1.19939">
        <ele>279.2</ele>
        <time>2024-07-23T12:22:18Z</time>
      </trkpt>
      <trkpt lat="44.63187" lon="1.19936">
        <ele>279.2</ele>
        <time>2024-07-23T12:22:19Z</time>
      </trkpt>
      <trkpt lat="44.63187" lon="1.19933">
        <ele>279.4</ele>
        <time>2024-07-23T12:22:20Z</time>
      </trkpt>
      <trkpt lat="44.63186" lon="1.1993">
        <ele>279.4</ele>
        <time>2024-07-23T12:22:21Z</time>
      </trkpt>
      <trkpt lat="44.63185" lon="1.19927">
        <ele>279.6</ele>
        <time>2024-07-23T12:22:22Z</time>
      </trkpt>
      <trkpt lat="44.63184" lon="1.19925">
        <ele>279.6</ele>
        <time>2024-07-23T12:22:23Z</time>
      </trkpt>
      <trkpt lat="44.63182" lon="1.19923">
        <ele>279.8</ele>
        <time>2024-07-23T12:22:24Z</time>
      </trkpt>
      <trkpt lat="44.63181" lon="1.1992">
        <ele>279.8</ele>
        <time>2024-07-23T12:22:25Z</time>
      </trkpt>
      <trkpt lat="44.63179" lon="1.19917">
        <ele>279.8</ele>
        <time>2024-07-23T12:22:26Z</time>
      </trkpt>
      <trkpt lat="44.63178" lon="1.19914">
        <ele>280</ele>
        <time>2024-07-23T12:22:27Z</time>
      </trkpt>
      <trkpt lat="44.63176" lon="1.1991">
        <ele>280.2</ele>
        <time>2024-07-23T12:22:28Z</time>
      </trkpt>
      <trkpt lat="44.63176" lon="1.19907">
        <ele>280.2</ele>
        <time>2024-07-23T12:22:29Z</time>
      </trkpt>
      <trkpt lat="44.63176" lon="1.19904">
        <ele>280.4</ele>
        <time>2024-07-23T12:22:30Z</time>
      </trkpt>
      <trkpt lat="44.63174" lon="1.19899">
        <ele>280.4</ele>
        <time>2024-07-23T12:22:31Z</time>
      </trkpt>
      <trkpt lat="44.63173" lon="1.19895">
        <ele>280.6</ele>
        <time>2024-07-23T12:22:32Z</time>
      </trkpt>
      <trkpt lat="44.63172" lon="1.19893">
        <ele>280.6</ele>
        <time>2024-07-23T12:22:33Z</time>
      </trkpt>
      <trkpt lat="44.63171" lon="1.1989">
        <ele>280.8</ele>
        <time>2024-07-23T12:22:34Z</time>
      </trkpt>
      <trkpt lat="44.63169" lon="1.19887">
        <ele>280.8</ele>
        <time>2024-07-23T12:22:35Z</time>
      </trkpt>
      <trkpt lat="44.63168" lon="1.19884">
        <ele>281</ele>
        <time>2024-07-23T12:22:36Z</time>
      </trkpt>
      <trkpt lat="44.63166" lon="1.19881">
        <ele>281.2</ele>
        <time>2024-07-23T12:22:37Z</time>
      </trkpt>
      <trkpt lat="44.63165" lon="1.19876">
        <ele>281.2</ele>
        <time>2024-07-23T12:22:38Z</time>
      </trkpt>
      <trkpt lat="44.63163" lon="1.19872">
        <ele>281.2</ele>
        <time>2024-07-23T12:22:39Z</time>
      </trkpt>
      <trkpt lat="44.63161" lon="1.19869">
        <ele>281.2</ele>
        <time>2024-07-23T12:22:40Z</time>
      </trkpt>
      <trkpt lat="44.6316" lon="1.19865">
        <ele>281.4</ele>
        <time>2024-07-23T12:22:41Z</time>
      </trkpt>
      <trkpt lat="44.63159" lon="1.19861">
        <ele>281.6</ele>
        <time>2024-07-23T12:22:42Z</time>
      </trkpt>
      <trkpt lat="44.63157" lon="1.19858">
        <ele>281.6</ele>
        <time>2024-07-23T12:22:43Z</time>
      </trkpt>
      <trkpt lat="44.63156" lon="1.19854">
        <ele>281.8</ele>
        <time>2024-07-23T12:22:44Z</time>
      </trkpt>
      <trkpt lat="44.63156" lon="1.19851">
        <ele>281.8</ele>
        <time>2024-07-23T12:22:45Z</time>
      </trkpt>
      <trkpt lat="44.63154" lon="1.19847">
        <ele>282</ele>
        <time>2024-07-23T12:22:46Z</time>
      </trkpt>
      <trkpt lat="44.63153" lon="1.19845">
        <ele>282.2</ele>
        <time>2024-07-23T12:22:47Z</time>
      </trkpt>
      <trkpt lat="44.63152" lon="1.19843">
        <ele>282.4</ele>
        <time>2024-07-23T12:22:48Z</time>
      </trkpt>
      <trkpt lat="44.63151" lon="1.19841">
        <ele>282.8</ele>
        <time>2024-07-23T12:22:49Z</time>
      </trkpt>
      <trkpt lat="44.6315" lon="1.19839">
        <ele>282.8</ele>
        <time>2024-07-23T12:22:50Z</time>
      </trkpt>
      <trkpt lat="44.63149" lon="1.19837">
        <ele>282.8</ele>
        <time>2024-07-23T12:22:51Z</time>
      </trkpt>
      <trkpt lat="44.63149" lon="1.19835">
        <ele>283</ele>
        <time>2024-07-23T12:22:52Z</time>
      </trkpt>
      <trkpt lat="44.63148" lon="1.19833">
        <ele>283.2</ele>
        <time>2024-07-23T12:22:53Z</time>
      </trkpt>
      <trkpt lat="44.63147" lon="1.19831">
        <ele>283.4</ele>
        <time>2024-07-23T12:22:54Z</time>
      </trkpt>
      <trkpt lat="44.63147" lon="1.19829">
        <ele>283.4</ele>
        <time>2024-07-23T12:22:55Z</time>
      </trkpt>
      <trkpt lat="44.63146" lon="1.19827">
        <ele>283.6</ele>
        <time>2024-07-23T12:22:56Z</time>
      </trkpt>
      <trkpt lat="44.63146" lon="1.19825">
        <ele>283.8</ele>
        <time>2024-07-23T12:22:57Z</time>
      </trkpt>
      <trkpt lat="44.63145" lon="1.19823">
        <ele>284</ele>
        <time>2024-07-23T12:22:58Z</time>
      </trkpt>
      <trkpt lat="44.63145" lon="1.19821">
        <ele>284</ele>
        <time>2024-07-23T12:22:59Z</time>
      </trkpt>
      <trkpt lat="44.63144" lon="1.1982">
        <ele>284.2</ele>
        <time>2024-07-23T12:23:00Z</time>
      </trkpt>
      <trkpt lat="44.63144" lon="1.19818">
        <ele>284.6</ele>
        <time>2024-07-23T12:23:01Z</time>
      </trkpt>
      <trkpt lat="44.63143" lon="1.19816">
        <ele>284.6</ele>
        <time>2024-07-23T12:23:02Z</time>
      </trkpt>
      <trkpt lat="44.63143" lon="1.19815">
        <ele>284.8</ele>
        <time>2024-07-23T12:23:03Z</time>
      </trkpt>
      <trkpt lat="44.63143" lon="1.19813">
        <ele>285</ele>
        <time>2024-07-23T12:23:04Z</time>
      </trkpt>
      <trkpt lat="44.63143" lon="1.19812">
        <ele>285.2</ele>
        <time>2024-07-23T12:23:05Z</time>
      </trkpt>
      <trkpt lat="44.63142" lon="1.19811">
        <ele>285.2</ele>
        <time>2024-07-23T12:23:06Z</time>
      </trkpt>
      <trkpt lat="44.63142" lon="1.19809">
        <ele>285.4</ele>
        <time>2024-07-23T12:23:07Z</time>
      </trkpt>
      <trkpt lat="44.63142" lon="1.19807">
        <ele>285.6</ele>
        <time>2024-07-23T12:23:08Z</time>
      </trkpt>
      <trkpt lat="44.63141" lon="1.19806">
        <ele>285.6</ele>
        <time>2024-07-23T12:23:09Z</time>
      </trkpt>
      <trkpt lat="44.63141" lon="1.19805">
        <ele>286</ele>
        <time>2024-07-23T12:23:10Z</time>
      </trkpt>
      <trkpt lat="44.63141" lon="1.19803">
        <ele>286.2</ele>
        <time>2024-07-23T12:23:11Z</time>
      </trkpt>
      <trkpt lat="44.63141" lon="1.19802">
        <ele>286.4</ele>
        <time>2024-07-23T12:23:12Z</time>
      </trkpt>
      <trkpt lat="44.63141" lon="1.19801">
        <ele>286.6</ele>
        <time>2024-07-23T12:23:13Z</time>
      </trkpt>
      <trkpt lat="44.63141" lon="1.19799">
        <ele>286.8</ele>
        <time>2024-07-23T12:23:14Z</time>
      </trkpt>
      <trkpt lat="44.63141" lon="1.19798">
        <ele>287</ele>
        <time>2024-07-23T12:23:15Z</time>
      </trkpt>
      <trkpt lat="44.6314" lon="1.19796">
        <ele>287.6</ele>
        <time>2024-07-23T12:23:16Z</time>
      </trkpt>
      <trkpt lat="44.6314" lon="1.19794">
        <ele>287.6</ele>
        <time>2024-07-23T12:23:17Z</time>
      </trkpt>
      <trkpt lat="44.63139" lon="1.19793">
        <ele>288</ele>
        <time>2024-07-23T12:23:18Z</time>
      </trkpt>
      <trkpt lat="44.63138" lon="1.19791">
        <ele>288</ele>
        <time>2024-07-23T12:23:19Z</time>
      </trkpt>
      <trkpt lat="44.63138" lon="1.19789">
        <ele>288.4</ele>
        <time>2024-07-23T12:23:20Z</time>
      </trkpt>
      <trkpt lat="44.63138" lon="1.19788">
        <ele>288.6</ele>
        <time>2024-07-23T12:23:21Z</time>
      </trkpt>
      <trkpt lat="44.63138" lon="1.19787">
        <ele>288.6</ele>
        <time>2024-07-23T12:23:22Z</time>
      </trkpt>
      <trkpt lat="44.63138" lon="1.19785">
        <ele>288.8</ele>
        <time>2024-07-23T12:23:23Z</time>
      </trkpt>
      <trkpt lat="44.63137" lon="1.19783">
        <ele>288.8</ele>
        <time>2024-07-23T12:23:24Z</time>
      </trkpt>
      <trkpt lat="44.63137" lon="1.19781">
        <ele>289</ele>
        <time>2024-07-23T12:23:25Z</time>
      </trkpt>
      <trkpt lat="44.63136" lon="1.19779">
        <ele>289.2</ele>
        <time>2024-07-23T12:23:26Z</time>
      </trkpt>
      <trkpt lat="44.63136" lon="1.19777">
        <ele>289.2</ele>
        <time>2024-07-23T12:23:27Z</time>
      </trkpt>
      <trkpt lat="44.63136" lon="1.19777">
        <ele>289.6</ele>
        <time>2024-07-23T12:23:28Z</time>
      </trkpt>
      <trkpt lat="44.63134" lon="1.19775">
        <ele>289.8</ele>
        <time>2024-07-23T12:23:29Z</time>
      </trkpt>
      <trkpt lat="44.63134" lon="1.19773">
        <ele>290</ele>
        <time>2024-07-23T12:23:30Z</time>
      </trkpt>
      <trkpt lat="44.63132" lon="1.19771">
        <ele>290</ele>
        <time>2024-07-23T12:23:31Z</time>
      </trkpt>
      <trkpt lat="44.63132" lon="1.19768">
        <ele>290.2</ele>
        <time>2024-07-23T12:23:32Z</time>
      </trkpt>
      <trkpt lat="44.63131" lon="1.19765">
        <ele>290.4</ele>
        <time>2024-07-23T12:23:33Z</time>
      </trkpt>
      <trkpt lat="44.6313" lon="1.19762">
        <ele>290.6</ele>
        <time>2024-07-23T12:23:34Z</time>
      </trkpt>
      <trkpt lat="44.6313" lon="1.1976">
        <ele>290.8</ele>
        <time>2024-07-23T12:23:35Z</time>
      </trkpt>
      <trkpt lat="44.63129" lon="1.19758">
        <ele>291</ele>
        <time>2024-07-23T12:23:36Z</time>
      </trkpt>
      <trkpt lat="44.63128" lon="1.19754">
        <ele>291.2</ele>
        <time>2024-07-23T12:23:37Z</time>
      </trkpt>
      <trkpt lat="44.63128" lon="1.1975">
        <ele>291.2</ele>
        <time>2024-07-23T12:23:38Z</time>
      </trkpt>
      <trkpt lat="44.63129" lon="1.19746">
        <ele>291.2</ele>
        <time>2024-07-23T12:23:39Z</time>
      </trkpt>
      <trkpt lat="44.6313" lon="1.1974">
        <ele>291.4</ele>
        <time>2024-07-23T12:23:40Z</time>
      </trkpt>
      <trkpt lat="44.6313" lon="1.19735">
        <ele>291.4</ele>
        <time>2024-07-23T12:23:41Z</time>
      </trkpt>
      <trkpt lat="44.6313" lon="1.19728">
        <ele>291.4</ele>
        <time>2024-07-23T12:23:42Z</time>
      </trkpt>
      <trkpt lat="44.6313" lon="1.19722">
        <ele>291.4</ele>
        <time>2024-07-23T12:23:43Z</time>
      </trkpt>
      <trkpt lat="44.6313" lon="1.19719">
        <ele>291.2</ele>
        <time>2024-07-23T12:23:44Z</time>
      </trkpt>
      <trkpt lat="44.63129" lon="1.19716">
        <ele>291.2</ele>
        <time>2024-07-23T12:23:45Z</time>
      </trkpt>
      <trkpt lat="44.63129" lon="1.19713">
        <ele>291.2</ele>
        <time>2024-07-23T12:23:46Z</time>
      </trkpt>
      <trkpt lat="44.63129" lon="1.19709">
        <ele>291.2</ele>
        <time>2024-07-23T12:23:47Z</time>
      </trkpt>
      <trkpt lat="44.63128" lon="1.19707">
        <ele>291.2</ele>
        <time>2024-07-23T12:23:48Z</time>
      </trkpt>
      <trkpt lat="44.63128" lon="1.19705">
        <ele>291.2</ele>
        <time>2024-07-23T12:23:49Z</time>
      </trkpt>
      <trkpt lat="44.63128" lon="1.19703">
        <ele>291.2</ele>
        <time>2024-07-23T12:23:50Z</time>
      </trkpt>
      <trkpt lat="44.63127" lon="1.19701">
        <ele>291.2</ele>
        <time>2024-07-23T12:23:51Z</time>
      </trkpt>
      <trkpt lat="44.63126" lon="1.19698">
        <ele>291.4</ele>
        <time>2024-07-23T12:23:52Z</time>
      </trkpt>
      <trkpt lat="44.63124" lon="1.19695">
        <ele>291.4</ele>
        <time>2024-07-23T12:23:53Z</time>
      </trkpt>
      <trkpt lat="44.63124" lon="1.19692">
        <ele>291.6</ele>
        <time>2024-07-23T12:23:54Z</time>
      </trkpt>
      <trkpt lat="44.63122" lon="1.1969">
        <ele>291.8</ele>
        <time>2024-07-23T12:23:55Z</time>
      </trkpt>
      <trkpt lat="44.63121" lon="1.19688">
        <ele>292</ele>
        <time>2024-07-23T12:23:56Z</time>
      </trkpt>
      <trkpt lat="44.63121" lon="1.19685">
        <ele>292.2</ele>
        <time>2024-07-23T12:23:57Z</time>
      </trkpt>
      <trkpt lat="44.63122" lon="1.19683">
        <ele>292.4</ele>
        <time>2024-07-23T12:23:58Z</time>
      </trkpt>
      <trkpt lat="44.63122" lon="1.1968">
        <ele>292.6</ele>
        <time>2024-07-23T12:23:59Z</time>
      </trkpt>
      <trkpt lat="44.63121" lon="1.19677">
        <ele>292.8</ele>
        <time>2024-07-23T12:24:00Z</time>
      </trkpt>
      <trkpt lat="44.63119" lon="1.19674">
        <ele>293</ele>
        <time>2024-07-23T12:24:01Z</time>
      </trkpt>
      <trkpt lat="44.63117" lon="1.19671">
        <ele>293</ele>
        <time>2024-07-23T12:24:02Z</time>
      </trkpt>
      <trkpt lat="44.63116" lon="1.19668">
        <ele>293.2</ele>
        <time>2024-07-23T12:24:03Z</time>
      </trkpt>
      <trkpt lat="44.63114" lon="1.19664">
        <ele>293.4</ele>
        <time>2024-07-23T12:24:04Z</time>
      </trkpt>
      <trkpt lat="44.63112" lon="1.19661">
        <ele>293.6</ele>
        <time>2024-07-23T12:24:06Z</time>
      </trkpt>
      <trkpt lat="44.63112" lon="1.19659">
        <ele>293.8</ele>
        <time>2024-07-23T12:24:07Z</time>
      </trkpt>
      <trkpt lat="44.63111" lon="1.19657">
        <ele>293.8</ele>
        <time>2024-07-23T12:24:08Z</time>
      </trkpt>
      <trkpt lat="44.63109" lon="1.19655">
        <ele>294</ele>
        <time>2024-07-23T12:24:09Z</time>
      </trkpt>
      <trkpt lat="44.63108" lon="1.19652">
        <ele>294.4</ele>
        <time>2024-07-23T12:24:10Z</time>
      </trkpt>
      <trkpt lat="44.63107" lon="1.19651">
        <ele>294.4</ele>
        <time>2024-07-23T12:24:11Z</time>
      </trkpt>
      <trkpt lat="44.63108" lon="1.1965">
        <ele>294.4</ele>
        <time>2024-07-23T12:24:12Z</time>
      </trkpt>
      <trkpt lat="44.63107" lon="1.19648">
        <ele>294.6</ele>
        <time>2024-07-23T12:24:13Z</time>
      </trkpt>
      <trkpt lat="44.63106" lon="1.19646">
        <ele>294.8</ele>
        <time>2024-07-23T12:24:14Z</time>
      </trkpt>
      <trkpt lat="44.63106" lon="1.19645">
        <ele>295</ele>
        <time>2024-07-23T12:24:15Z</time>
      </trkpt>
      <trkpt lat="44.63105" lon="1.19643">
        <ele>295.2</ele>
        <time>2024-07-23T12:24:16Z</time>
      </trkpt>
      <trkpt lat="44.63104" lon="1.19642">
        <ele>295.4</ele>
        <time>2024-07-23T12:24:17Z</time>
      </trkpt>
      <trkpt lat="44.63103" lon="1.19641">
        <ele>295.6</ele>
        <time>2024-07-23T12:24:18Z</time>
      </trkpt>
      <trkpt lat="44.63102" lon="1.1964">
        <ele>295.8</ele>
        <time>2024-07-23T12:24:19Z</time>
      </trkpt>
      <trkpt lat="44.631" lon="1.19638">
        <ele>295.8</ele>
        <time>2024-07-23T12:24:20Z</time>
      </trkpt>
      <trkpt lat="44.63099" lon="1.19637">
        <ele>296</ele>
        <time>2024-07-23T12:24:21Z</time>
      </trkpt>
      <trkpt lat="44.63098" lon="1.19636">
        <ele>296</ele>
        <time>2024-07-23T12:24:22Z</time>
      </trkpt>
      <trkpt lat="44.63097" lon="1.19634">
        <ele>296.2</ele>
        <time>2024-07-23T12:24:23Z</time>
      </trkpt>
      <trkpt lat="44.63096" lon="1.19633">
        <ele>296.6</ele>
        <time>2024-07-23T12:24:24Z</time>
      </trkpt>
      <trkpt lat="44.63096" lon="1.19632">
        <ele>297</ele>
        <time>2024-07-23T12:24:25Z</time>
      </trkpt>
      <trkpt lat="44.63095" lon="1.19631">
        <ele>297.2</ele>
        <time>2024-07-23T12:24:26Z</time>
      </trkpt>
      <trkpt lat="44.63094" lon="1.1963">
        <ele>297.4</ele>
        <time>2024-07-23T12:24:27Z</time>
      </trkpt>
      <trkpt lat="44.63094" lon="1.19629">
        <ele>297.6</ele>
        <time>2024-07-23T12:24:28Z</time>
      </trkpt>
      <trkpt lat="44.63093" lon="1.19628">
        <ele>297.8</ele>
        <time>2024-07-23T12:24:29Z</time>
      </trkpt>
      <trkpt lat="44.63092" lon="1.19627">
        <ele>298</ele>
        <time>2024-07-23T12:24:30Z</time>
      </trkpt>
      <trkpt lat="44.63091" lon="1.19626">
        <ele>298.2</ele>
        <time>2024-07-23T12:24:31Z</time>
      </trkpt>
      <trkpt lat="44.6309" lon="1.19625">
        <ele>298.4</ele>
        <time>2024-07-23T12:24:32Z</time>
      </trkpt>
      <trkpt lat="44.63089" lon="1.19624">
        <ele>298.6</ele>
        <time>2024-07-23T12:24:33Z</time>
      </trkpt>
      <trkpt lat="44.63088" lon="1.19623">
        <ele>298.8</ele>
        <time>2024-07-23T12:24:34Z</time>
      </trkpt>
      <trkpt lat="44.63087" lon="1.19622">
        <ele>299</ele>
        <time>2024-07-23T12:24:35Z</time>
      </trkpt>
      <trkpt lat="44.63086" lon="1.19621">
        <ele>299</ele>
        <time>2024-07-23T12:24:36Z</time>
      </trkpt>
      <trkpt lat="44.63085" lon="1.1962">
        <ele>299.4</ele>
        <time>2024-07-23T12:24:37Z</time>
      </trkpt>
      <trkpt lat="44.63084" lon="1.19619">
        <ele>299.6</ele>
        <time>2024-07-23T12:24:38Z</time>
      </trkpt>
      <trkpt lat="44.63083" lon="1.19618">
        <ele>299.8</ele>
        <time>2024-07-23T12:24:39Z</time>
      </trkpt>
      <trkpt lat="44.63082" lon="1.19617">
        <ele>300</ele>
        <time>2024-07-23T12:24:40Z</time>
      </trkpt>
      <trkpt lat="44.63081" lon="1.19616">
        <ele>300</ele>
        <time>2024-07-23T12:24:41Z</time>
      </trkpt>
      <trkpt lat="44.6308" lon="1.19615">
        <ele>300.2</ele>
        <time>2024-07-23T12:24:42Z</time>
      </trkpt>
      <trkpt lat="44.63079" lon="1.19614">
        <ele>300.4</ele>
        <time>2024-07-23T12:24:43Z</time>
      </trkpt>
      <trkpt lat="44.63078" lon="1.19613">
        <ele>300.6</ele>
        <time>2024-07-23T12:24:44Z</time>
      </trkpt>
      <trkpt lat="44.63077" lon="1.19611">
        <ele>300.6</ele>
        <time>2024-07-23T12:24:45Z</time>
      </trkpt>
      <trkpt lat="44.63077" lon="1.19609">
        <ele>300.8</ele>
        <time>2024-07-23T12:24:46Z</time>
      </trkpt>
      <trkpt lat="44.63076" lon="1.19607">
        <ele>300.8</ele>
        <time>2024-07-23T12:24:47Z</time>
      </trkpt>
      <trkpt lat="44.63076" lon="1.19605">
        <ele>301</ele>
        <time>2024-07-23T12:24:48Z</time>
      </trkpt>
      <trkpt lat="44.63075" lon="1.19603">
        <ele>301</ele>
        <time>2024-07-23T12:24:49Z</time>
      </trkpt>
      <trkpt lat="44.63075" lon="1.196">
        <ele>301.2</ele>
        <time>2024-07-23T12:24:50Z</time>
      </trkpt>
      <trkpt lat="44.63076" lon="1.19598">
        <ele>301.2</ele>
        <time>2024-07-23T12:24:51Z</time>
      </trkpt>
      <trkpt lat="44.63076" lon="1.19596">
        <ele>301.2</ele>
        <time>2024-07-23T12:24:52Z</time>
      </trkpt>
      <trkpt lat="44.63076" lon="1.19594">
        <ele>301.4</ele>
        <time>2024-07-23T12:24:53Z</time>
      </trkpt>
      <trkpt lat="44.63075" lon="1.19592">
        <ele>301.4</ele>
        <time>2024-07-23T12:24:54Z</time>
      </trkpt>
      <trkpt lat="44.63075" lon="1.1959">
        <ele>301.6</ele>
        <time>2024-07-23T12:24:55Z</time>
      </trkpt>
      <trkpt lat="44.63075" lon="1.19587">
        <ele>301.6</ele>
        <time>2024-07-23T12:24:56Z</time>
      </trkpt>
      <trkpt lat="44.63075" lon="1.19585">
        <ele>301.6</ele>
        <time>2024-07-23T12:24:57Z</time>
      </trkpt>
      <trkpt lat="44.63075" lon="1.19582">
        <ele>301.8</ele>
        <time>2024-07-23T12:24:58Z</time>
      </trkpt>
      <trkpt lat="44.63075" lon="1.1958">
        <ele>301.8</ele>
        <time>2024-07-23T12:24:59Z</time>
      </trkpt>
      <trkpt lat="44.63075" lon="1.19577">
        <ele>301.8</ele>
        <time>2024-07-23T12:25:00Z</time>
      </trkpt>
      <trkpt lat="44.63075" lon="1.19575">
        <ele>302</ele>
        <time>2024-07-23T12:25:01Z</time>
      </trkpt>
      <trkpt lat="44.63075" lon="1.19572">
        <ele>302</ele>
        <time>2024-07-23T12:25:02Z</time>
      </trkpt>
      <trkpt lat="44.63075" lon="1.19569">
        <ele>302.2</ele>
        <time>2024-07-23T12:25:03Z</time>
      </trkpt>
      <trkpt lat="44.63075" lon="1.19567">
        <ele>302.2</ele>
        <time>2024-07-23T12:25:04Z</time>
      </trkpt>
      <trkpt lat="44.63075" lon="1.19564">
        <ele>302.2</ele>
        <time>2024-07-23T12:25:05Z</time>
      </trkpt>
      <trkpt lat="44.63074" lon="1.19562">
        <ele>302.4</ele>
        <time>2024-07-23T12:25:06Z</time>
      </trkpt>
      <trkpt lat="44.63074" lon="1.1956">
        <ele>302.4</ele>
        <time>2024-07-23T12:25:07Z</time>
      </trkpt>
      <trkpt lat="44.63075" lon="1.19557">
        <ele>302.4</ele>
        <time>2024-07-23T12:25:08Z</time>
      </trkpt>
      <trkpt lat="44.63075" lon="1.19555">
        <ele>302.4</ele>
        <time>2024-07-23T12:25:09Z</time>
      </trkpt>
      <trkpt lat="44.63075" lon="1.19553">
        <ele>302.4</ele>
        <time>2024-07-23T12:25:10Z</time>
      </trkpt>
      <trkpt lat="44.63076" lon="1.19547">
        <ele>302.6</ele>
        <time>2024-07-23T12:25:12Z</time>
      </trkpt>
      <trkpt lat="44.63076" lon="1.19541">
        <ele>302.6</ele>
        <time>2024-07-23T12:25:14Z</time>
      </trkpt>
      <trkpt lat="44.63079" lon="1.19516">
        <ele>303.2</ele>
        <time>2024-07-23T12:25:23Z</time>
      </trkpt>
      <trkpt lat="44.6308" lon="1.19512">
        <ele>303.4</ele>
        <time>2024-07-23T12:25:25Z</time>
      </trkpt>
      <trkpt lat="44.63081" lon="1.19509">
        <ele>303.6</ele>
        <time>2024-07-23T12:25:26Z</time>
      </trkpt>
      <trkpt lat="44.63081" lon="1.19506">
        <ele>303.8</ele>
        <time>2024-07-23T12:25:27Z</time>
      </trkpt>
      <trkpt lat="44.63082" lon="1.19499">
        <ele>304.2</ele>
        <time>2024-07-23T12:25:30Z</time>
      </trkpt>
      <trkpt lat="44.63083" lon="1.19497">
        <ele>304.4</ele>
        <time>2024-07-23T12:25:31Z</time>
      </trkpt>
      <trkpt lat="44.63083" lon="1.19494">
        <ele>304.4</ele>
        <time>2024-07-23T12:25:32Z</time>
      </trkpt>
      <trkpt lat="44.63083" lon="1.19492">
        <ele>304.6</ele>
        <time>2024-07-23T12:25:33Z</time>
      </trkpt>
      <trkpt lat="44.63083" lon="1.19489">
        <ele>304.8</ele>
        <time>2024-07-23T12:25:34Z</time>
      </trkpt>
      <trkpt lat="44.63084" lon="1.19477">
        <ele>305.2</ele>
        <time>2024-07-23T12:25:38Z</time>
      </trkpt>
      <trkpt lat="44.63084" lon="1.19473">
        <ele>305.4</ele>
        <time>2024-07-23T12:25:39Z</time>
      </trkpt>
      <trkpt lat="44.63083" lon="1.1947">
        <ele>305.8</ele>
        <time>2024-07-23T12:25:40Z</time>
      </trkpt>
      <trkpt lat="44.63083" lon="1.19467">
        <ele>306</ele>
        <time>2024-07-23T12:25:41Z</time>
      </trkpt>
      <trkpt lat="44.63083" lon="1.19463">
        <ele>306.2</ele>
        <time>2024-07-23T12:25:42Z</time>
      </trkpt>
      <trkpt lat="44.63082" lon="1.1946">
        <ele>306.4</ele>
        <time>2024-07-23T12:25:43Z</time>
      </trkpt>
      <trkpt lat="44.63082" lon="1.19456">
        <ele>306.4</ele>
        <time>2024-07-23T12:25:44Z</time>
      </trkpt>
      <trkpt lat="44.63081" lon="1.19452">
        <ele>306.6</ele>
        <time>2024-07-23T12:25:45Z</time>
      </trkpt>
      <trkpt lat="44.6308" lon="1.19449">
        <ele>306.6</ele>
        <time>2024-07-23T12:25:46Z</time>
      </trkpt>
      <trkpt lat="44.63079" lon="1.19444">
        <ele>306.8</ele>
        <time>2024-07-23T12:25:47Z</time>
      </trkpt>
      <trkpt lat="44.63078" lon="1.19441">
        <ele>306.8</ele>
        <time>2024-07-23T12:25:48Z</time>
      </trkpt>
      <trkpt lat="44.63078" lon="1.19438">
        <ele>307</ele>
        <time>2024-07-23T12:25:49Z</time>
      </trkpt>
      <trkpt lat="44.63077" lon="1.19435">
        <ele>307</ele>
        <time>2024-07-23T12:25:50Z</time>
      </trkpt>
      <trkpt lat="44.63075" lon="1.19432">
        <ele>307.2</ele>
        <time>2024-07-23T12:25:51Z</time>
      </trkpt>
      <trkpt lat="44.63074" lon="1.19429">
        <ele>307.2</ele>
        <time>2024-07-23T12:25:52Z</time>
      </trkpt>
      <trkpt lat="44.63073" lon="1.19425">
        <ele>307.4</ele>
        <time>2024-07-23T12:25:53Z</time>
      </trkpt>
      <trkpt lat="44.63072" lon="1.19423">
        <ele>307.6</ele>
        <time>2024-07-23T12:25:54Z</time>
      </trkpt>
      <trkpt lat="44.63071" lon="1.1942">
        <ele>307.6</ele>
        <time>2024-07-23T12:25:55Z</time>
      </trkpt>
      <trkpt lat="44.6307" lon="1.19416">
        <ele>307.6</ele>
        <time>2024-07-23T12:25:56Z</time>
      </trkpt>
      <trkpt lat="44.63068" lon="1.19412">
        <ele>307.6</ele>
        <time>2024-07-23T12:25:57Z</time>
      </trkpt>
      <trkpt lat="44.63067" lon="1.19407">
        <ele>307.6</ele>
        <time>2024-07-23T12:25:58Z</time>
      </trkpt>
      <trkpt lat="44.63065" lon="1.19404">
        <ele>307.6</ele>
        <time>2024-07-23T12:25:59Z</time>
      </trkpt>
      <trkpt lat="44.63063" lon="1.19398">
        <ele>307.6</ele>
        <time>2024-07-23T12:26:00Z</time>
      </trkpt>
      <trkpt lat="44.63062" lon="1.19393">
        <ele>307.6</ele>
        <time>2024-07-23T12:26:01Z</time>
      </trkpt>
      <trkpt lat="44.6306" lon="1.19389">
        <ele>307.6</ele>
        <time>2024-07-23T12:26:02Z</time>
      </trkpt>
      <trkpt lat="44.63058" lon="1.19384">
        <ele>307.6</ele>
        <time>2024-07-23T12:26:03Z</time>
      </trkpt>
      <trkpt lat="44.63057" lon="1.1938">
        <ele>307.6</ele>
        <time>2024-07-23T12:26:04Z</time>
      </trkpt>
      <trkpt lat="44.63055" lon="1.19375">
        <ele>307.6</ele>
        <time>2024-07-23T12:26:05Z</time>
      </trkpt>
      <trkpt lat="44.63054" lon="1.19366">
        <ele>307.2</ele>
        <time>2024-07-23T12:26:07Z</time>
      </trkpt>
      <trkpt lat="44.63054" lon="1.19361">
        <ele>307.4</ele>
        <time>2024-07-23T12:26:08Z</time>
      </trkpt>
      <trkpt lat="44.63048" lon="1.19344">
        <ele>307.4</ele>
        <time>2024-07-23T12:26:11Z</time>
      </trkpt>
      <trkpt lat="44.63043" lon="1.19331">
        <ele>307.4</ele>
        <time>2024-07-23T12:26:12Z</time>
      </trkpt>
      <trkpt lat="44.63033" lon="1.19279">
        <ele>307.2</ele>
        <time>2024-07-23T12:26:21Z</time>
      </trkpt>
      <trkpt lat="44.63034" lon="1.19266">
        <ele>307</ele>
        <time>2024-07-23T12:26:23Z</time>
      </trkpt>
      <trkpt lat="44.63036" lon="1.19253">
        <ele>307</ele>
        <time>2024-07-23T12:26:26Z</time>
      </trkpt>
      <trkpt lat="44.63039" lon="1.1924">
        <ele>307</ele>
        <time>2024-07-23T12:26:27Z</time>
      </trkpt>
      <trkpt lat="44.63044" lon="1.1922">
        <ele>306.8</ele>
        <time>2024-07-23T12:26:30Z</time>
      </trkpt>
      <trkpt lat="44.63049" lon="1.19201">
        <ele>306.8</ele>
        <time>2024-07-23T12:26:33Z</time>
      </trkpt>
      <trkpt lat="44.6305" lon="1.19195">
        <ele>306.6</ele>
        <time>2024-07-23T12:26:34Z</time>
      </trkpt>
      <trkpt lat="44.63051" lon="1.19189">
        <ele>306.4</ele>
        <time>2024-07-23T12:26:35Z</time>
      </trkpt>
      <trkpt lat="44.63053" lon="1.19154">
        <ele>305.6</ele>
        <time>2024-07-23T12:26:40Z</time>
      </trkpt>
      <trkpt lat="44.63053" lon="1.19154">
        <ele>305.4</ele>
        <time>2024-07-23T12:26:41Z</time>
      </trkpt>
      <trkpt lat="44.63054" lon="1.1914">
        <ele>305.2</ele>
        <time>2024-07-23T12:26:42Z</time>
      </trkpt>
      <trkpt lat="44.63055" lon="1.19134">
        <ele>305</ele>
        <time>2024-07-23T12:26:43Z</time>
      </trkpt>
      <trkpt lat="44.63056" lon="1.19128">
        <ele>305</ele>
        <time>2024-07-23T12:26:44Z</time>
      </trkpt>
      <trkpt lat="44.63059" lon="1.19102">
        <ele>304.8</ele>
        <time>2024-07-23T12:26:48Z</time>
      </trkpt>
      <trkpt lat="44.63058" lon="1.19097">
        <ele>304.6</ele>
        <time>2024-07-23T12:26:50Z</time>
      </trkpt>
      <trkpt lat="44.63053" lon="1.19093">
        <ele>304.6</ele>
        <time>2024-07-23T12:26:51Z</time>
      </trkpt>
      <trkpt lat="44.6305" lon="1.19092">
        <ele>304.4</ele>
        <time>2024-07-23T12:26:52Z</time>
      </trkpt>
      <trkpt lat="44.63042" lon="1.1909">
        <ele>304.2</ele>
        <time>2024-07-23T12:26:54Z</time>
      </trkpt>
      <trkpt lat="44.63038" lon="1.1909">
        <ele>304.2</ele>
        <time>2024-07-23T12:26:55Z</time>
      </trkpt>
      <trkpt lat="44.63028" lon="1.19089">
        <ele>304</ele>
        <time>2024-07-23T12:26:57Z</time>
      </trkpt>
      <trkpt lat="44.62991" lon="1.19084">
        <ele>303.4</ele>
        <time>2024-07-23T12:27:03Z</time>
      </trkpt>
      <trkpt lat="44.62954" lon="1.19078">
        <ele>302.6</ele>
        <time>2024-07-23T12:27:08Z</time>
      </trkpt>
      <trkpt lat="44.62937" lon="1.19073">
        <ele>301.8</ele>
        <time>2024-07-23T12:27:10Z</time>
      </trkpt>
      <trkpt lat="44.62929" lon="1.1907">
        <ele>301</ele>
        <time>2024-07-23T12:27:11Z</time>
      </trkpt>
      <trkpt lat="44.62921" lon="1.19066">
        <ele>300.6</ele>
        <time>2024-07-23T12:27:12Z</time>
      </trkpt>
      <trkpt lat="44.62913" lon="1.19062">
        <ele>299.2</ele>
        <time>2024-07-23T12:27:13Z</time>
      </trkpt>
      <trkpt lat="44.62897" lon="1.19052">
        <ele>298.2</ele>
        <time>2024-07-23T12:27:15Z</time>
      </trkpt>
      <trkpt lat="44.62889" lon="1.19048">
        <ele>297.8</ele>
        <time>2024-07-23T12:27:16Z</time>
      </trkpt>
      <trkpt lat="44.62881" lon="1.19043">
        <ele>297.6</ele>
        <time>2024-07-23T12:27:17Z</time>
      </trkpt>
      <trkpt lat="44.6287" lon="1.19029">
        <ele>297.2</ele>
        <time>2024-07-23T12:27:19Z</time>
      </trkpt>
      <trkpt lat="44.62866" lon="1.19021">
        <ele>296.8</ele>
        <time>2024-07-23T12:27:20Z</time>
      </trkpt>
      <trkpt lat="44.62866" lon="1.19021">
        <ele>296.4</ele>
        <time>2024-07-23T12:27:21Z</time>
      </trkpt>
      <trkpt lat="44.62858" lon="1.19004">
        <ele>295.6</ele>
        <time>2024-07-23T12:27:22Z</time>
      </trkpt>
      <trkpt lat="44.62853" lon="1.18996">
        <ele>294.6</ele>
        <time>2024-07-23T12:27:23Z</time>
      </trkpt>
      <trkpt lat="44.62847" lon="1.1899">
        <ele>294.2</ele>
        <time>2024-07-23T12:27:24Z</time>
      </trkpt>
      <trkpt lat="44.62841" lon="1.18984">
        <ele>293.2</ele>
        <time>2024-07-23T12:27:25Z</time>
      </trkpt>
      <trkpt lat="44.62826" lon="1.18972">
        <ele>292.2</ele>
        <time>2024-07-23T12:27:27Z</time>
      </trkpt>
      <trkpt lat="44.6282" lon="1.18966">
        <ele>291.8</ele>
        <time>2024-07-23T12:27:28Z</time>
      </trkpt>
      <trkpt lat="44.62814" lon="1.1896">
        <ele>291.6</ele>
        <time>2024-07-23T12:27:29Z</time>
      </trkpt>
      <trkpt lat="44.62814" lon="1.1896">
        <ele>291.4</ele>
        <time>2024-07-23T12:27:30Z</time>
      </trkpt>
      <trkpt lat="44.62799" lon="1.18939">
        <ele>291.2</ele>
        <time>2024-07-23T12:27:32Z</time>
      </trkpt>
      <trkpt lat="44.62793" lon="1.18932">
        <ele>291</ele>
        <time>2024-07-23T12:27:33Z</time>
      </trkpt>
      <trkpt lat="44.62789" lon="1.18927">
        <ele>290.8</ele>
        <time>2024-07-23T12:27:34Z</time>
      </trkpt>
      <trkpt lat="44.62784" lon="1.18922">
        <ele>290.6</ele>
        <time>2024-07-23T12:27:35Z</time>
      </trkpt>
      <trkpt lat="44.6278" lon="1.18917">
        <ele>290.4</ele>
        <time>2024-07-23T12:27:36Z</time>
      </trkpt>
      <trkpt lat="44.62777" lon="1.18913">
        <ele>290</ele>
        <time>2024-07-23T12:27:37Z</time>
      </trkpt>
      <trkpt lat="44.62773" lon="1.18908">
        <ele>289.8</ele>
        <time>2024-07-23T12:27:38Z</time>
      </trkpt>
      <trkpt lat="44.6277" lon="1.18904">
        <ele>289.6</ele>
        <time>2024-07-23T12:27:39Z</time>
      </trkpt>
      <trkpt lat="44.62766" lon="1.189">
        <ele>289.6</ele>
        <time>2024-07-23T12:27:40Z</time>
      </trkpt>
      <trkpt lat="44.62762" lon="1.18897">
        <ele>289.4</ele>
        <time>2024-07-23T12:27:41Z</time>
      </trkpt>
      <trkpt lat="44.62757" lon="1.18894">
        <ele>289.4</ele>
        <time>2024-07-23T12:27:42Z</time>
      </trkpt>
      <trkpt lat="44.62744" lon="1.18887">
        <ele>289.4</ele>
        <time>2024-07-23T12:27:45Z</time>
      </trkpt>
      <trkpt lat="44.62739" lon="1.18885">
        <ele>289.2</ele>
        <time>2024-07-23T12:27:46Z</time>
      </trkpt>
      <trkpt lat="44.62735" lon="1.18885">
        <ele>289.2</ele>
        <time>2024-07-23T12:27:47Z</time>
      </trkpt>
      <trkpt lat="44.62731" lon="1.18885">
        <ele>289.2</ele>
        <time>2024-07-23T12:27:48Z</time>
      </trkpt>
      <trkpt lat="44.62726" lon="1.18885">
        <ele>289.2</ele>
        <time>2024-07-23T12:27:49Z</time>
      </trkpt>
      <trkpt lat="44.62708" lon="1.18886">
        <ele>289.2</ele>
        <time>2024-07-23T12:27:53Z</time>
      </trkpt>
      <trkpt lat="44.6269" lon="1.18888">
        <ele>289.2</ele>
        <time>2024-07-23T12:27:57Z</time>
      </trkpt>
      <trkpt lat="44.62681" lon="1.1889">
        <ele>289.4</ele>
        <time>2024-07-23T12:27:59Z</time>
      </trkpt>
      <trkpt lat="44.62664" lon="1.18896">
        <ele>289.6</ele>
        <time>2024-07-23T12:28:03Z</time>
      </trkpt>
      <trkpt lat="44.62653" lon="1.18897">
        <ele>289.6</ele>
        <time>2024-07-23T12:28:05Z</time>
      </trkpt>
      <trkpt lat="44.62648" lon="1.18898">
        <ele>289.6</ele>
        <time>2024-07-23T12:28:06Z</time>
      </trkpt>
      <trkpt lat="44.62614" lon="1.18902">
        <ele>289.2</ele>
        <time>2024-07-23T12:28:13Z</time>
      </trkpt>
      <trkpt lat="44.62609" lon="1.18902">
        <ele>289.2</ele>
        <time>2024-07-23T12:28:14Z</time>
      </trkpt>
      <trkpt lat="44.62605" lon="1.18903">
        <ele>289</ele>
        <time>2024-07-23T12:28:15Z</time>
      </trkpt>
      <trkpt lat="44.62601" lon="1.18904">
        <ele>289</ele>
        <time>2024-07-23T12:28:16Z</time>
      </trkpt>
      <trkpt lat="44.62601" lon="1.18904">
        <ele>289</ele>
        <time>2024-07-23T12:28:17Z</time>
      </trkpt>
      <trkpt lat="44.62594" lon="1.18906">
        <ele>289</ele>
        <time>2024-07-23T12:28:18Z</time>
      </trkpt>
      <trkpt lat="44.6259" lon="1.18907">
        <ele>289</ele>
        <time>2024-07-23T12:28:19Z</time>
      </trkpt>
      <trkpt lat="44.62585" lon="1.18908">
        <ele>288.8</ele>
        <time>2024-07-23T12:28:20Z</time>
      </trkpt>
      <trkpt lat="44.62578" lon="1.18911">
        <ele>288.8</ele>
        <time>2024-07-23T12:28:23Z</time>
      </trkpt>
      <trkpt lat="44.62565" lon="1.18916">
        <ele>288.6</ele>
        <time>2024-07-23T12:28:26Z</time>
      </trkpt>
      <trkpt lat="44.62559" lon="1.1892">
        <ele>288.6</ele>
        <time>2024-07-23T12:28:27Z</time>
      </trkpt>
      <trkpt lat="44.62555" lon="1.18922">
        <ele>288.6</ele>
        <time>2024-07-23T12:28:28Z</time>
      </trkpt>
      <trkpt lat="44.62549" lon="1.18925">
        <ele>288.8</ele>
        <time>2024-07-23T12:28:30Z</time>
      </trkpt>
      <trkpt lat="44.62546" lon="1.18926">
        <ele>289</ele>
        <time>2024-07-23T12:28:31Z</time>
      </trkpt>
      <trkpt lat="44.62542" lon="1.18928">
        <ele>289.2</ele>
        <time>2024-07-23T12:28:32Z</time>
      </trkpt>
      <trkpt lat="44.62537" lon="1.18929">
        <ele>289.4</ele>
        <time>2024-07-23T12:28:33Z</time>
      </trkpt>
      <trkpt lat="44.62533" lon="1.1893">
        <ele>289.4</ele>
        <time>2024-07-23T12:28:34Z</time>
      </trkpt>
      <trkpt lat="44.6253" lon="1.18933">
        <ele>289.6</ele>
        <time>2024-07-23T12:28:35Z</time>
      </trkpt>
      <trkpt lat="44.62526" lon="1.18933">
        <ele>289.6</ele>
        <time>2024-07-23T12:28:36Z</time>
      </trkpt>
      <trkpt lat="44.62523" lon="1.18933">
        <ele>290.2</ele>
        <time>2024-07-23T12:28:37Z</time>
      </trkpt>
      <trkpt lat="44.62521" lon="1.18933">
        <ele>290.2</ele>
        <time>2024-07-23T12:28:38Z</time>
      </trkpt>
      <trkpt lat="44.6252" lon="1.18934">
        <ele>290.6</ele>
        <time>2024-07-23T12:28:39Z</time>
      </trkpt>
      <trkpt lat="44.62517" lon="1.18934">
        <ele>290.8</ele>
        <time>2024-07-23T12:28:40Z</time>
      </trkpt>
      <trkpt lat="44.62515" lon="1.18936">
        <ele>291</ele>
        <time>2024-07-23T12:28:41Z</time>
      </trkpt>
      <trkpt lat="44.62512" lon="1.18938">
        <ele>291.2</ele>
        <time>2024-07-23T12:28:42Z</time>
      </trkpt>
      <trkpt lat="44.6251" lon="1.1894">
        <ele>291.2</ele>
        <time>2024-07-23T12:28:43Z</time>
      </trkpt>
      <trkpt lat="44.62507" lon="1.18941">
        <ele>291.4</ele>
        <time>2024-07-23T12:28:44Z</time>
      </trkpt>
      <trkpt lat="44.62505" lon="1.18942">
        <ele>291.6</ele>
        <time>2024-07-23T12:28:45Z</time>
      </trkpt>
      <trkpt lat="44.62502" lon="1.18943">
        <ele>291.6</ele>
        <time>2024-07-23T12:28:46Z</time>
      </trkpt>
      <trkpt lat="44.62498" lon="1.18946">
        <ele>292</ele>
        <time>2024-07-23T12:28:47Z</time>
      </trkpt>
      <trkpt lat="44.62495" lon="1.18947">
        <ele>292.2</ele>
        <time>2024-07-23T12:28:48Z</time>
      </trkpt>
      <trkpt lat="44.6249" lon="1.18949">
        <ele>292.4</ele>
        <time>2024-07-23T12:28:49Z</time>
      </trkpt>
      <trkpt lat="44.62486" lon="1.18951">
        <ele>292.4</ele>
        <time>2024-07-23T12:28:50Z</time>
      </trkpt>
      <trkpt lat="44.62482" lon="1.18953">
        <ele>292.4</ele>
        <time>2024-07-23T12:28:51Z</time>
      </trkpt>
      <trkpt lat="44.62478" lon="1.18955">
        <ele>292.6</ele>
        <time>2024-07-23T12:28:52Z</time>
      </trkpt>
      <trkpt lat="44.62474" lon="1.18956">
        <ele>292.6</ele>
        <time>2024-07-23T12:28:53Z</time>
      </trkpt>
      <trkpt lat="44.62474" lon="1.18956">
        <ele>292.6</ele>
        <time>2024-07-23T12:28:54Z</time>
      </trkpt>
      <trkpt lat="44.62465" lon="1.18959">
        <ele>292.6</ele>
        <time>2024-07-23T12:28:55Z</time>
      </trkpt>
      <trkpt lat="44.62461" lon="1.18961">
        <ele>292.6</ele>
        <time>2024-07-23T12:28:56Z</time>
      </trkpt>
      <trkpt lat="44.62457" lon="1.18963">
        <ele>292.6</ele>
        <time>2024-07-23T12:28:57Z</time>
      </trkpt>
      <trkpt lat="44.62453" lon="1.18965">
        <ele>292.6</ele>
        <time>2024-07-23T12:28:58Z</time>
      </trkpt>
      <trkpt lat="44.62449" lon="1.18967">
        <ele>292.8</ele>
        <time>2024-07-23T12:28:59Z</time>
      </trkpt>
      <trkpt lat="44.62445" lon="1.18968">
        <ele>292.8</ele>
        <time>2024-07-23T12:29:00Z</time>
      </trkpt>
      <trkpt lat="44.6244" lon="1.1897">
        <ele>292.8</ele>
        <time>2024-07-23T12:29:01Z</time>
      </trkpt>
      <trkpt lat="44.62436" lon="1.18971">
        <ele>292.6</ele>
        <time>2024-07-23T12:29:02Z</time>
      </trkpt>
      <trkpt lat="44.62436" lon="1.18971">
        <ele>292.6</ele>
        <time>2024-07-23T12:29:03Z</time>
      </trkpt>
      <trkpt lat="44.6243" lon="1.18974">
        <ele>292.8</ele>
        <time>2024-07-23T12:29:04Z</time>
      </trkpt>
      <trkpt lat="44.62426" lon="1.18976">
        <ele>292.8</ele>
        <time>2024-07-23T12:29:05Z</time>
      </trkpt>
      <trkpt lat="44.62424" lon="1.18976">
        <ele>293</ele>
        <time>2024-07-23T12:29:06Z</time>
      </trkpt>
      <trkpt lat="44.62422" lon="1.18977">
        <ele>293</ele>
        <time>2024-07-23T12:29:07Z</time>
      </trkpt>
      <trkpt lat="44.6242" lon="1.18979">
        <ele>293</ele>
        <time>2024-07-23T12:29:08Z</time>
      </trkpt>
      <trkpt lat="44.62417" lon="1.18981">
        <ele>293</ele>
        <time>2024-07-23T12:29:09Z</time>
      </trkpt>
      <trkpt lat="44.62415" lon="1.18982">
        <ele>293.2</ele>
        <time>2024-07-23T12:29:10Z</time>
      </trkpt>
      <trkpt lat="44.62406" lon="1.18986">
        <ele>293.4</ele>
        <time>2024-07-23T12:29:13Z</time>
      </trkpt>
      <trkpt lat="44.62403" lon="1.18988">
        <ele>293.4</ele>
        <time>2024-07-23T12:29:14Z</time>
      </trkpt>
      <trkpt lat="44.62399" lon="1.1899">
        <ele>293.6</ele>
        <time>2024-07-23T12:29:16Z</time>
      </trkpt>
      <trkpt lat="44.62375" lon="1.19014">
        <ele>293.4</ele>
        <time>2024-07-23T12:29:21Z</time>
      </trkpt>
      <trkpt lat="44.62347" lon="1.19038">
        <ele>292.6</ele>
        <time>2024-07-23T12:29:27Z</time>
      </trkpt>
      <trkpt lat="44.62347" lon="1.19038">
        <ele>292.4</ele>
        <time>2024-07-23T12:29:28Z</time>
      </trkpt>
      <trkpt lat="44.62337" lon="1.19043">
        <ele>292.2</ele>
        <time>2024-07-23T12:29:29Z</time>
      </trkpt>
      <trkpt lat="44.62333" lon="1.19045">
        <ele>292.2</ele>
        <time>2024-07-23T12:29:30Z</time>
      </trkpt>
      <trkpt lat="44.62325" lon="1.19047">
        <ele>292</ele>
        <time>2024-07-23T12:29:32Z</time>
      </trkpt>
      <trkpt lat="44.62322" lon="1.19049">
        <ele>292</ele>
        <time>2024-07-23T12:29:33Z</time>
      </trkpt>
      <trkpt lat="44.62319" lon="1.19049">
        <ele>291.8</ele>
        <time>2024-07-23T12:29:34Z</time>
      </trkpt>
      <trkpt lat="44.62316" lon="1.19049">
        <ele>291.6</ele>
        <time>2024-07-23T12:29:35Z</time>
      </trkpt>
      <trkpt lat="44.62312" lon="1.19049">
        <ele>291.6</ele>
        <time>2024-07-23T12:29:36Z</time>
      </trkpt>
      <trkpt lat="44.62309" lon="1.19049">
        <ele>291.4</ele>
        <time>2024-07-23T12:29:37Z</time>
      </trkpt>
      <trkpt lat="44.62305" lon="1.19051">
        <ele>291.4</ele>
        <time>2024-07-23T12:29:38Z</time>
      </trkpt>
      <trkpt lat="44.62302" lon="1.19053">
        <ele>291.4</ele>
        <time>2024-07-23T12:29:39Z</time>
      </trkpt>
      <trkpt lat="44.62298" lon="1.19055">
        <ele>291.4</ele>
        <time>2024-07-23T12:29:40Z</time>
      </trkpt>
      <trkpt lat="44.62294" lon="1.19056">
        <ele>291.4</ele>
        <time>2024-07-23T12:29:41Z</time>
      </trkpt>
      <trkpt lat="44.62289" lon="1.19057">
        <ele>291.4</ele>
        <time>2024-07-23T12:29:42Z</time>
      </trkpt>
      <trkpt lat="44.62275" lon="1.19056">
        <ele>291.4</ele>
        <time>2024-07-23T12:29:45Z</time>
      </trkpt>
      <trkpt lat="44.62271" lon="1.19055">
        <ele>291.4</ele>
        <time>2024-07-23T12:29:46Z</time>
      </trkpt>
      <trkpt lat="44.62264" lon="1.19054">
        <ele>291.4</ele>
        <time>2024-07-23T12:29:48Z</time>
      </trkpt>
      <trkpt lat="44.62259" lon="1.19054">
        <ele>291.4</ele>
        <time>2024-07-23T12:29:49Z</time>
      </trkpt>
      <trkpt lat="44.62252" lon="1.19052">
        <ele>291.8</ele>
        <time>2024-07-23T12:29:51Z</time>
      </trkpt>
      <trkpt lat="44.6225" lon="1.19051">
        <ele>292</ele>
        <time>2024-07-23T12:29:52Z</time>
      </trkpt>
      <trkpt lat="44.62246" lon="1.19051">
        <ele>292</ele>
        <time>2024-07-23T12:29:53Z</time>
      </trkpt>
      <trkpt lat="44.62241" lon="1.1905">
        <ele>292.2</ele>
        <time>2024-07-23T12:29:54Z</time>
      </trkpt>
      <trkpt lat="44.62237" lon="1.19048">
        <ele>292.2</ele>
        <time>2024-07-23T12:29:55Z</time>
      </trkpt>
      <trkpt lat="44.62237" lon="1.19048">
        <ele>292.4</ele>
        <time>2024-07-23T12:29:56Z</time>
      </trkpt>
      <trkpt lat="44.6222" lon="1.19049">
        <ele>292.4</ele>
        <time>2024-07-23T12:30:00Z</time>
      </trkpt>
      <trkpt lat="44.62216" lon="1.19049">
        <ele>292.6</ele>
        <time>2024-07-23T12:30:01Z</time>
      </trkpt>
      <trkpt lat="44.62214" lon="1.19049">
        <ele>292.6</ele>
        <time>2024-07-23T12:30:02Z</time>
      </trkpt>
      <trkpt lat="44.62211" lon="1.1905">
        <ele>292.8</ele>
        <time>2024-07-23T12:30:03Z</time>
      </trkpt>
      <trkpt lat="44.62199" lon="1.19048">
        <ele>293.2</ele>
        <time>2024-07-23T12:30:06Z</time>
      </trkpt>
      <trkpt lat="44.6218" lon="1.1905">
        <ele>293.6</ele>
        <time>2024-07-23T12:30:11Z</time>
      </trkpt>
      <trkpt lat="44.62168" lon="1.19049">
        <ele>293.8</ele>
        <time>2024-07-23T12:30:15Z</time>
      </trkpt>
      <trkpt lat="44.62159" lon="1.19048">
        <ele>294.2</ele>
        <time>2024-07-23T12:30:18Z</time>
      </trkpt>
      <trkpt lat="44.62155" lon="1.19048">
        <ele>294.4</ele>
        <time>2024-07-23T12:30:19Z</time>
      </trkpt>
      <trkpt lat="44.6215" lon="1.19048">
        <ele>294.6</ele>
        <time>2024-07-23T12:30:22Z</time>
      </trkpt>
      <trkpt lat="44.62147" lon="1.19049">
        <ele>294.8</ele>
        <time>2024-07-23T12:30:23Z</time>
      </trkpt>
      <trkpt lat="44.62143" lon="1.19049">
        <ele>294.8</ele>
        <time>2024-07-23T12:30:24Z</time>
      </trkpt>
      <trkpt lat="44.62138" lon="1.19049">
        <ele>295</ele>
        <time>2024-07-23T12:30:26Z</time>
      </trkpt>
      <trkpt lat="44.62136" lon="1.19049">
        <ele>295.2</ele>
        <time>2024-07-23T12:30:27Z</time>
      </trkpt>
      <trkpt lat="44.62135" lon="1.19049">
        <ele>295.2</ele>
        <time>2024-07-23T12:30:28Z</time>
      </trkpt>
      <trkpt lat="44.62132" lon="1.19049">
        <ele>295.4</ele>
        <time>2024-07-23T12:30:29Z</time>
      </trkpt>
      <trkpt lat="44.62129" lon="1.19049">
        <ele>295.8</ele>
        <time>2024-07-23T12:30:30Z</time>
      </trkpt>
      <trkpt lat="44.62126" lon="1.1905">
        <ele>295.8</ele>
        <time>2024-07-23T12:30:31Z</time>
      </trkpt>
      <trkpt lat="44.62126" lon="1.1905">
        <ele>296</ele>
        <time>2024-07-23T12:30:32Z</time>
      </trkpt>
      <trkpt lat="44.62121" lon="1.19051">
        <ele>296</ele>
        <time>2024-07-23T12:30:33Z</time>
      </trkpt>
      <trkpt lat="44.62119" lon="1.19051">
        <ele>296.2</ele>
        <time>2024-07-23T12:30:34Z</time>
      </trkpt>
      <trkpt lat="44.62115" lon="1.19053">
        <ele>296.2</ele>
        <time>2024-07-23T12:30:35Z</time>
      </trkpt>
      <trkpt lat="44.62112" lon="1.19054">
        <ele>296.4</ele>
        <time>2024-07-23T12:30:36Z</time>
      </trkpt>
      <trkpt lat="44.6211" lon="1.19055">
        <ele>296.4</ele>
        <time>2024-07-23T12:30:37Z</time>
      </trkpt>
      <trkpt lat="44.62107" lon="1.19056">
        <ele>296.6</ele>
        <time>2024-07-23T12:30:38Z</time>
      </trkpt>
      <trkpt lat="44.62105" lon="1.19056">
        <ele>296.6</ele>
        <time>2024-07-23T12:30:39Z</time>
      </trkpt>
      <trkpt lat="44.62102" lon="1.19056">
        <ele>296.6</ele>
        <time>2024-07-23T12:30:40Z</time>
      </trkpt>
      <trkpt lat="44.621" lon="1.19056">
        <ele>296.8</ele>
        <time>2024-07-23T12:30:41Z</time>
      </trkpt>
      <trkpt lat="44.62097" lon="1.19057">
        <ele>297</ele>
        <time>2024-07-23T12:30:42Z</time>
      </trkpt>
      <trkpt lat="44.62094" lon="1.19059">
        <ele>297</ele>
        <time>2024-07-23T12:30:43Z</time>
      </trkpt>
      <trkpt lat="44.62089" lon="1.19058">
        <ele>297.2</ele>
        <time>2024-07-23T12:30:44Z</time>
      </trkpt>
      <trkpt lat="44.62084" lon="1.19057">
        <ele>297.2</ele>
        <time>2024-07-23T12:30:45Z</time>
      </trkpt>
      <trkpt lat="44.62081" lon="1.19058">
        <ele>297.4</ele>
        <time>2024-07-23T12:30:46Z</time>
      </trkpt>
      <trkpt lat="44.62077" lon="1.19058">
        <ele>297.4</ele>
        <time>2024-07-23T12:30:47Z</time>
      </trkpt>
      <trkpt lat="44.62074" lon="1.19058">
        <ele>297.6</ele>
        <time>2024-07-23T12:30:48Z</time>
      </trkpt>
      <trkpt lat="44.62067" lon="1.19057">
        <ele>297.8</ele>
        <time>2024-07-23T12:30:49Z</time>
      </trkpt>
      <trkpt lat="44.62063" lon="1.19058">
        <ele>297.8</ele>
        <time>2024-07-23T12:30:50Z</time>
      </trkpt>
      <trkpt lat="44.62058" lon="1.19058">
        <ele>297.8</ele>
        <time>2024-07-23T12:30:51Z</time>
      </trkpt>
      <trkpt lat="44.62055" lon="1.19058">
        <ele>297.8</ele>
        <time>2024-07-23T12:30:52Z</time>
      </trkpt>
      <trkpt lat="44.6205" lon="1.19059">
        <ele>297.8</ele>
        <time>2024-07-23T12:30:53Z</time>
      </trkpt>
      <trkpt lat="44.62045" lon="1.1906">
        <ele>297.6</ele>
        <time>2024-07-23T12:30:54Z</time>
      </trkpt>
      <trkpt lat="44.6204" lon="1.19062">
        <ele>297.6</ele>
        <time>2024-07-23T12:30:55Z</time>
      </trkpt>
      <trkpt lat="44.62035" lon="1.19064">
        <ele>297.4</ele>
        <time>2024-07-23T12:30:56Z</time>
      </trkpt>
      <trkpt lat="44.6203" lon="1.19065">
        <ele>297.4</ele>
        <time>2024-07-23T12:30:57Z</time>
      </trkpt>
      <trkpt lat="44.62006" lon="1.19073">
        <ele>297</ele>
        <time>2024-07-23T12:31:01Z</time>
      </trkpt>
      <trkpt lat="44.61982" lon="1.19077">
        <ele>296.6</ele>
        <time>2024-07-23T12:31:05Z</time>
      </trkpt>
      <trkpt lat="44.61977" lon="1.19078">
        <ele>296.6</ele>
        <time>2024-07-23T12:31:06Z</time>
      </trkpt>
      <trkpt lat="44.61969" lon="1.19079">
        <ele>296.4</ele>
        <time>2024-07-23T12:31:07Z</time>
      </trkpt>
      <trkpt lat="44.61962" lon="1.1908">
        <ele>296.4</ele>
        <time>2024-07-23T12:31:08Z</time>
      </trkpt>
      <trkpt lat="44.61956" lon="1.19082">
        <ele>296.2</ele>
        <time>2024-07-23T12:31:09Z</time>
      </trkpt>
      <trkpt lat="44.61935" lon="1.19086">
        <ele>295.8</ele>
        <time>2024-07-23T12:31:12Z</time>
      </trkpt>
      <trkpt lat="44.61917" lon="1.19092">
        <ele>295.2</ele>
        <time>2024-07-23T12:31:14Z</time>
      </trkpt>
      <trkpt lat="44.61901" lon="1.19097">
        <ele>294.4</ele>
        <time>2024-07-23T12:31:16Z</time>
      </trkpt>
      <trkpt lat="44.61892" lon="1.19099">
        <ele>294</ele>
        <time>2024-07-23T12:31:17Z</time>
      </trkpt>
      <trkpt lat="44.61877" lon="1.19102">
        <ele>293</ele>
        <time>2024-07-23T12:31:19Z</time>
      </trkpt>
      <trkpt lat="44.61869" lon="1.19108">
        <ele>292.4</ele>
        <time>2024-07-23T12:31:20Z</time>
      </trkpt>
      <trkpt lat="44.61855" lon="1.19117">
        <ele>291.6</ele>
        <time>2024-07-23T12:31:22Z</time>
      </trkpt>
      <trkpt lat="44.61848" lon="1.1912">
        <ele>291.4</ele>
        <time>2024-07-23T12:31:23Z</time>
      </trkpt>
      <trkpt lat="44.6184" lon="1.19123">
        <ele>291.2</ele>
        <time>2024-07-23T12:31:24Z</time>
      </trkpt>
      <trkpt lat="44.61834" lon="1.19126">
        <ele>291</ele>
        <time>2024-07-23T12:31:25Z</time>
      </trkpt>
      <trkpt lat="44.61827" lon="1.19128">
        <ele>290.8</ele>
        <time>2024-07-23T12:31:26Z</time>
      </trkpt>
      <trkpt lat="44.61821" lon="1.1913">
        <ele>290.6</ele>
        <time>2024-07-23T12:31:27Z</time>
      </trkpt>
      <trkpt lat="44.61815" lon="1.19132">
        <ele>290.6</ele>
        <time>2024-07-23T12:31:28Z</time>
      </trkpt>
      <trkpt lat="44.61808" lon="1.19133">
        <ele>290.4</ele>
        <time>2024-07-23T12:31:29Z</time>
      </trkpt>
      <trkpt lat="44.61808" lon="1.19133">
        <ele>290</ele>
        <time>2024-07-23T12:31:30Z</time>
      </trkpt>
      <trkpt lat="44.61787" lon="1.19136">
        <ele>289.6</ele>
        <time>2024-07-23T12:31:32Z</time>
      </trkpt>
      <trkpt lat="44.61781" lon="1.19136">
        <ele>289</ele>
        <time>2024-07-23T12:31:33Z</time>
      </trkpt>
      <trkpt lat="44.61768" lon="1.19135">
        <ele>287.6</ele>
        <time>2024-07-23T12:31:35Z</time>
      </trkpt>
      <trkpt lat="44.61763" lon="1.19135">
        <ele>287.6</ele>
        <time>2024-07-23T12:31:36Z</time>
      </trkpt>
      <trkpt lat="44.61758" lon="1.19133">
        <ele>287.4</ele>
        <time>2024-07-23T12:31:37Z</time>
      </trkpt>
      <trkpt lat="44.61753" lon="1.19131">
        <ele>287.2</ele>
        <time>2024-07-23T12:31:38Z</time>
      </trkpt>
      <trkpt lat="44.61748" lon="1.19128">
        <ele>287.2</ele>
        <time>2024-07-23T12:31:39Z</time>
      </trkpt>
      <trkpt lat="44.61744" lon="1.19127">
        <ele>287.2</ele>
        <time>2024-07-23T12:31:40Z</time>
      </trkpt>
      <trkpt lat="44.61741" lon="1.19125">
        <ele>287</ele>
        <time>2024-07-23T12:31:41Z</time>
      </trkpt>
      <trkpt lat="44.61737" lon="1.19125">
        <ele>287</ele>
        <time>2024-07-23T12:31:42Z</time>
      </trkpt>
      <trkpt lat="44.61737" lon="1.19125">
        <ele>287</ele>
        <time>2024-07-23T12:31:43Z</time>
      </trkpt>
      <trkpt lat="44.61724" lon="1.19123">
        <ele>287.4</ele>
        <time>2024-07-23T12:31:46Z</time>
      </trkpt>
      <trkpt lat="44.6172" lon="1.19121">
        <ele>287.4</ele>
        <time>2024-07-23T12:31:47Z</time>
      </trkpt>
      <trkpt lat="44.61716" lon="1.19121">
        <ele>287.6</ele>
        <time>2024-07-23T12:31:48Z</time>
      </trkpt>
      <trkpt lat="44.61709" lon="1.19121">
        <ele>287.6</ele>
        <time>2024-07-23T12:31:50Z</time>
      </trkpt>
      <trkpt lat="44.61703" lon="1.19121">
        <ele>287.8</ele>
        <time>2024-07-23T12:31:52Z</time>
      </trkpt>
      <trkpt lat="44.617" lon="1.1912">
        <ele>287.8</ele>
        <time>2024-07-23T12:31:53Z</time>
      </trkpt>
      <trkpt lat="44.61696" lon="1.19118">
        <ele>288</ele>
        <time>2024-07-23T12:31:54Z</time>
      </trkpt>
      <trkpt lat="44.61692" lon="1.19116">
        <ele>288</ele>
        <time>2024-07-23T12:31:55Z</time>
      </trkpt>
      <trkpt lat="44.61689" lon="1.19113">
        <ele>288</ele>
        <time>2024-07-23T12:31:56Z</time>
      </trkpt>
      <trkpt lat="44.61687" lon="1.19112">
        <ele>288</ele>
        <time>2024-07-23T12:31:57Z</time>
      </trkpt>
      <trkpt lat="44.61685" lon="1.19111">
        <ele>288.2</ele>
        <time>2024-07-23T12:31:58Z</time>
      </trkpt>
      <trkpt lat="44.61681" lon="1.19108">
        <ele>288.4</ele>
        <time>2024-07-23T12:31:59Z</time>
      </trkpt>
      <trkpt lat="44.61676" lon="1.19104">
        <ele>288.4</ele>
        <time>2024-07-23T12:32:00Z</time>
      </trkpt>
      <trkpt lat="44.61669" lon="1.19098">
        <ele>288.6</ele>
        <time>2024-07-23T12:32:02Z</time>
      </trkpt>
      <trkpt lat="44.61665" lon="1.19095">
        <ele>288.8</ele>
        <time>2024-07-23T12:32:03Z</time>
      </trkpt>
      <trkpt lat="44.61665" lon="1.19095">
        <ele>288.8</ele>
        <time>2024-07-23T12:32:04Z</time>
      </trkpt>
      <trkpt lat="44.61658" lon="1.19088">
        <ele>289</ele>
        <time>2024-07-23T12:32:06Z</time>
      </trkpt>
      <trkpt lat="44.61658" lon="1.19088">
        <ele>289.2</ele>
        <time>2024-07-23T12:32:07Z</time>
      </trkpt>
      <trkpt lat="44.61655" lon="1.19087">
        <ele>289.2</ele>
        <time>2024-07-23T12:32:08Z</time>
      </trkpt>
      <trkpt lat="44.61651" lon="1.19085">
        <ele>289.2</ele>
        <time>2024-07-23T12:32:09Z</time>
      </trkpt>
      <trkpt lat="44.61641" lon="1.1908">
        <ele>289.8</ele>
        <time>2024-07-23T12:32:12Z</time>
      </trkpt>
      <trkpt lat="44.61641" lon="1.1908">
        <ele>290</ele>
        <time>2024-07-23T12:32:13Z</time>
      </trkpt>
      <trkpt lat="44.61622" lon="1.1907">
        <ele>290.8</ele>
        <time>2024-07-23T12:32:18Z</time>
      </trkpt>
      <trkpt lat="44.61616" lon="1.19067">
        <ele>291</ele>
        <time>2024-07-23T12:32:20Z</time>
      </trkpt>
      <trkpt lat="44.61614" lon="1.19066">
        <ele>291</ele>
        <time>2024-07-23T12:32:21Z</time>
      </trkpt>
      <trkpt lat="44.6161" lon="1.19064">
        <ele>291</ele>
        <time>2024-07-23T12:32:22Z</time>
      </trkpt>
      <trkpt lat="44.61606" lon="1.19062">
        <ele>291</ele>
        <time>2024-07-23T12:32:23Z</time>
      </trkpt>
      <trkpt lat="44.61602" lon="1.19061">
        <ele>291</ele>
        <time>2024-07-23T12:32:24Z</time>
      </trkpt>
      <trkpt lat="44.61599" lon="1.19061">
        <ele>291</ele>
        <time>2024-07-23T12:32:25Z</time>
      </trkpt>
      <trkpt lat="44.61595" lon="1.19059">
        <ele>291</ele>
        <time>2024-07-23T12:32:26Z</time>
      </trkpt>
      <trkpt lat="44.6159" lon="1.19057">
        <ele>291</ele>
        <time>2024-07-23T12:32:27Z</time>
      </trkpt>
      <trkpt lat="44.61586" lon="1.19055">
        <ele>291</ele>
        <time>2024-07-23T12:32:28Z</time>
      </trkpt>
      <trkpt lat="44.61582" lon="1.19053">
        <ele>291</ele>
        <time>2024-07-23T12:32:29Z</time>
      </trkpt>
      <trkpt lat="44.6157" lon="1.19052">
        <ele>291.2</ele>
        <time>2024-07-23T12:32:32Z</time>
      </trkpt>
      <trkpt lat="44.61543" lon="1.19045">
        <ele>291.4</ele>
        <time>2024-07-23T12:32:38Z</time>
      </trkpt>
      <trkpt lat="44.61529" lon="1.19042">
        <ele>291.6</ele>
        <time>2024-07-23T12:32:41Z</time>
      </trkpt>
      <trkpt lat="44.61519" lon="1.19038">
        <ele>291.8</ele>
        <time>2024-07-23T12:32:44Z</time>
      </trkpt>
      <trkpt lat="44.61515" lon="1.19039">
        <ele>292</ele>
        <time>2024-07-23T12:32:45Z</time>
      </trkpt>
      <trkpt lat="44.61513" lon="1.19041">
        <ele>292</ele>
        <time>2024-07-23T12:32:46Z</time>
      </trkpt>
      <trkpt lat="44.6151" lon="1.19041">
        <ele>292.2</ele>
        <time>2024-07-23T12:32:47Z</time>
      </trkpt>
      <trkpt lat="44.61507" lon="1.1904">
        <ele>292.2</ele>
        <time>2024-07-23T12:32:48Z</time>
      </trkpt>
      <trkpt lat="44.61505" lon="1.19041">
        <ele>292.4</ele>
        <time>2024-07-23T12:32:49Z</time>
      </trkpt>
      <trkpt lat="44.61503" lon="1.1904">
        <ele>292.6</ele>
        <time>2024-07-23T12:32:50Z</time>
      </trkpt>
      <trkpt lat="44.61501" lon="1.19039">
        <ele>292.8</ele>
        <time>2024-07-23T12:32:51Z</time>
      </trkpt>
      <trkpt lat="44.61498" lon="1.19038">
        <ele>292.8</ele>
        <time>2024-07-23T12:32:52Z</time>
      </trkpt>
      <trkpt lat="44.61496" lon="1.19038">
        <ele>293</ele>
        <time>2024-07-23T12:32:53Z</time>
      </trkpt>
      <trkpt lat="44.61494" lon="1.19036">
        <ele>293.2</ele>
        <time>2024-07-23T12:32:54Z</time>
      </trkpt>
      <trkpt lat="44.61492" lon="1.19035">
        <ele>293.4</ele>
        <time>2024-07-23T12:32:55Z</time>
      </trkpt>
      <trkpt lat="44.61489" lon="1.19034">
        <ele>293.6</ele>
        <time>2024-07-23T12:32:56Z</time>
      </trkpt>
      <trkpt lat="44.61484" lon="1.19032">
        <ele>293.6</ele>
        <time>2024-07-23T12:32:58Z</time>
      </trkpt>
      <trkpt lat="44.61482" lon="1.19032">
        <ele>293.8</ele>
        <time>2024-07-23T12:32:59Z</time>
      </trkpt>
      <trkpt lat="44.6148" lon="1.19031">
        <ele>294</ele>
        <time>2024-07-23T12:33:00Z</time>
      </trkpt>
      <trkpt lat="44.61478" lon="1.1903">
        <ele>294.4</ele>
        <time>2024-07-23T12:33:01Z</time>
      </trkpt>
      <trkpt lat="44.61475" lon="1.19029">
        <ele>294.6</ele>
        <time>2024-07-23T12:33:02Z</time>
      </trkpt>
      <trkpt lat="44.61473" lon="1.19029">
        <ele>295</ele>
        <time>2024-07-23T12:33:03Z</time>
      </trkpt>
      <trkpt lat="44.6147" lon="1.19028">
        <ele>295</ele>
        <time>2024-07-23T12:33:04Z</time>
      </trkpt>
      <trkpt lat="44.61468" lon="1.19027">
        <ele>295.2</ele>
        <time>2024-07-23T12:33:05Z</time>
      </trkpt>
      <trkpt lat="44.61465" lon="1.19028">
        <ele>295.4</ele>
        <time>2024-07-23T12:33:06Z</time>
      </trkpt>
      <trkpt lat="44.61463" lon="1.19028">
        <ele>295.4</ele>
        <time>2024-07-23T12:33:07Z</time>
      </trkpt>
      <trkpt lat="44.61459" lon="1.19027">
        <ele>295.4</ele>
        <time>2024-07-23T12:33:08Z</time>
      </trkpt>
      <trkpt lat="44.61455" lon="1.19026">
        <ele>295.6</ele>
        <time>2024-07-23T12:33:09Z</time>
      </trkpt>
      <trkpt lat="44.61453" lon="1.19026">
        <ele>295.6</ele>
        <time>2024-07-23T12:33:10Z</time>
      </trkpt>
      <trkpt lat="44.61449" lon="1.19025">
        <ele>295.6</ele>
        <time>2024-07-23T12:33:11Z</time>
      </trkpt>
      <trkpt lat="44.61445" lon="1.19025">
        <ele>295.8</ele>
        <time>2024-07-23T12:33:12Z</time>
      </trkpt>
      <trkpt lat="44.61441" lon="1.19025">
        <ele>295.8</ele>
        <time>2024-07-23T12:33:13Z</time>
      </trkpt>
      <trkpt lat="44.61436" lon="1.19024">
        <ele>295.8</ele>
        <time>2024-07-23T12:33:14Z</time>
      </trkpt>
      <trkpt lat="44.61432" lon="1.19023">
        <ele>295.6</ele>
        <time>2024-07-23T12:33:15Z</time>
      </trkpt>
      <trkpt lat="44.61427" lon="1.19023">
        <ele>295.6</ele>
        <time>2024-07-23T12:33:16Z</time>
      </trkpt>
      <trkpt lat="44.61423" lon="1.19021">
        <ele>295.6</ele>
        <time>2024-07-23T12:33:17Z</time>
      </trkpt>
      <trkpt lat="44.61418" lon="1.1902">
        <ele>295.6</ele>
        <time>2024-07-23T12:33:18Z</time>
      </trkpt>
      <trkpt lat="44.61415" lon="1.1902">
        <ele>295.6</ele>
        <time>2024-07-23T12:33:19Z</time>
      </trkpt>
      <trkpt lat="44.61412" lon="1.19018">
        <ele>295.6</ele>
        <time>2024-07-23T12:33:20Z</time>
      </trkpt>
      <trkpt lat="44.61408" lon="1.19016">
        <ele>295.4</ele>
        <time>2024-07-23T12:33:21Z</time>
      </trkpt>
      <trkpt lat="44.61395" lon="1.19004">
        <ele>295.2</ele>
        <time>2024-07-23T12:33:26Z</time>
      </trkpt>
      <trkpt lat="44.61395" lon="1.19002">
        <ele>295</ele>
        <time>2024-07-23T12:33:27Z</time>
      </trkpt>
      <trkpt lat="44.61394" lon="1.18999">
        <ele>295</ele>
        <time>2024-07-23T12:33:28Z</time>
      </trkpt>
      <trkpt lat="44.61394" lon="1.18996">
        <ele>295</ele>
        <time>2024-07-23T12:33:29Z</time>
      </trkpt>
      <trkpt lat="44.61394" lon="1.18994">
        <ele>295</ele>
        <time>2024-07-23T12:33:30Z</time>
      </trkpt>
      <trkpt lat="44.61393" lon="1.18991">
        <ele>294.8</ele>
        <time>2024-07-23T12:33:31Z</time>
      </trkpt>
      <trkpt lat="44.61393" lon="1.18988">
        <ele>294.8</ele>
        <time>2024-07-23T12:33:32Z</time>
      </trkpt>
      <trkpt lat="44.61393" lon="1.18983">
        <ele>294.8</ele>
        <time>2024-07-23T12:33:34Z</time>
      </trkpt>
      <trkpt lat="44.61393" lon="1.18983">
        <ele>294.8</ele>
        <time>2024-07-23T12:33:35Z</time>
      </trkpt>
      <trkpt lat="44.61392" lon="1.18978">
        <ele>294.8</ele>
        <time>2024-07-23T12:33:36Z</time>
      </trkpt>
      <trkpt lat="44.61393" lon="1.18969">
        <ele>294.6</ele>
        <time>2024-07-23T12:33:39Z</time>
      </trkpt>
      <trkpt lat="44.61394" lon="1.18947">
        <ele>294.6</ele>
        <time>2024-07-23T12:33:46Z</time>
      </trkpt>
      <trkpt lat="44.61393" lon="1.18944">
        <ele>294.6</ele>
        <time>2024-07-23T12:33:48Z</time>
      </trkpt>
      <trkpt lat="44.61392" lon="1.18943">
        <ele>294.6</ele>
        <time>2024-07-23T12:33:49Z</time>
      </trkpt>
      <trkpt lat="44.61391" lon="1.18942">
        <ele>294.6</ele>
        <time>2024-07-23T12:33:50Z</time>
      </trkpt>
      <trkpt lat="44.6139" lon="1.1894">
        <ele>294.8</ele>
        <time>2024-07-23T12:33:51Z</time>
      </trkpt>
      <trkpt lat="44.61389" lon="1.18938">
        <ele>294.8</ele>
        <time>2024-07-23T12:33:52Z</time>
      </trkpt>
      <trkpt lat="44.61387" lon="1.18935">
        <ele>294.8</ele>
        <time>2024-07-23T12:33:53Z</time>
      </trkpt>
      <trkpt lat="44.61386" lon="1.18932">
        <ele>294.8</ele>
        <time>2024-07-23T12:33:54Z</time>
      </trkpt>
      <trkpt lat="44.61383" lon="1.18928">
        <ele>294.8</ele>
        <time>2024-07-23T12:33:55Z</time>
      </trkpt>
      <trkpt lat="44.61372" lon="1.18915">
        <ele>294.6</ele>
        <time>2024-07-23T12:33:58Z</time>
      </trkpt>
      <trkpt lat="44.6136" lon="1.1891">
        <ele>294</ele>
        <time>2024-07-23T12:34:00Z</time>
      </trkpt>
      <trkpt lat="44.61353" lon="1.18909">
        <ele>293.6</ele>
        <time>2024-07-23T12:34:01Z</time>
      </trkpt>
      <trkpt lat="44.61346" lon="1.18908">
        <ele>293.2</ele>
        <time>2024-07-23T12:34:02Z</time>
      </trkpt>
      <trkpt lat="44.61338" lon="1.18906">
        <ele>292.8</ele>
        <time>2024-07-23T12:34:03Z</time>
      </trkpt>
      <trkpt lat="44.61324" lon="1.18902">
        <ele>291.8</ele>
        <time>2024-07-23T12:34:05Z</time>
      </trkpt>
      <trkpt lat="44.61318" lon="1.18899">
        <ele>291.6</ele>
        <time>2024-07-23T12:34:06Z</time>
      </trkpt>
      <trkpt lat="44.61312" lon="1.18895">
        <ele>291.2</ele>
        <time>2024-07-23T12:34:07Z</time>
      </trkpt>
      <trkpt lat="44.61306" lon="1.18891">
        <ele>290.6</ele>
        <time>2024-07-23T12:34:08Z</time>
      </trkpt>
      <trkpt lat="44.61299" lon="1.18887">
        <ele>290.4</ele>
        <time>2024-07-23T12:34:09Z</time>
      </trkpt>
      <trkpt lat="44.6128" lon="1.18873">
        <ele>289</ele>
        <time>2024-07-23T12:34:12Z</time>
      </trkpt>
      <trkpt lat="44.61274" lon="1.18868">
        <ele>288.6</ele>
        <time>2024-07-23T12:34:13Z</time>
      </trkpt>
      <trkpt lat="44.6126" lon="1.18855">
        <ele>287.8</ele>
        <time>2024-07-23T12:34:16Z</time>
      </trkpt>
      <trkpt lat="44.61236" lon="1.18834">
        <ele>286.8</ele>
        <time>2024-07-23T12:34:18Z</time>
      </trkpt>
      <trkpt lat="44.61236" lon="1.18834">
        <ele>286.2</ele>
        <time>2024-07-23T12:34:19Z</time>
      </trkpt>
      <trkpt lat="44.61219" lon="1.18822">
        <ele>285</ele>
        <time>2024-07-23T12:34:20Z</time>
      </trkpt>
      <trkpt lat="44.61202" lon="1.18817">
        <ele>284</ele>
        <time>2024-07-23T12:34:22Z</time>
      </trkpt>
      <trkpt lat="44.61193" lon="1.18815">
        <ele>283.8</ele>
        <time>2024-07-23T12:34:23Z</time>
      </trkpt>
      <trkpt lat="44.61184" lon="1.18813">
        <ele>282.4</ele>
        <time>2024-07-23T12:34:24Z</time>
      </trkpt>
      <trkpt lat="44.61184" lon="1.18813">
        <ele>280.6</ele>
        <time>2024-07-23T12:34:25Z</time>
      </trkpt>
      <trkpt lat="44.6116" lon="1.18807">
        <ele>279.4</ele>
        <time>2024-07-23T12:34:27Z</time>
      </trkpt>
      <trkpt lat="44.6116" lon="1.18807">
        <ele>278.8</ele>
        <time>2024-07-23T12:34:28Z</time>
      </trkpt>
      <trkpt lat="44.61146" lon="1.18804">
        <ele>278.2</ele>
        <time>2024-07-23T12:34:29Z</time>
      </trkpt>
      <trkpt lat="44.61137" lon="1.18803">
        <ele>277.8</ele>
        <time>2024-07-23T12:34:30Z</time>
      </trkpt>
      <trkpt lat="44.61119" lon="1.18802">
        <ele>277</ele>
        <time>2024-07-23T12:34:32Z</time>
      </trkpt>
      <trkpt lat="44.611" lon="1.188">
        <ele>275.8</ele>
        <time>2024-07-23T12:34:34Z</time>
      </trkpt>
      <trkpt lat="44.61075" lon="1.18798">
        <ele>274.8</ele>
        <time>2024-07-23T12:34:37Z</time>
      </trkpt>
      <trkpt lat="44.61057" lon="1.18794">
        <ele>274.2</ele>
        <time>2024-07-23T12:34:39Z</time>
      </trkpt>
      <trkpt lat="44.61038" lon="1.18789">
        <ele>273.6</ele>
        <time>2024-07-23T12:34:41Z</time>
      </trkpt>
      <trkpt lat="44.61016" lon="1.18784">
        <ele>272.2</ele>
        <time>2024-07-23T12:34:44Z</time>
      </trkpt>
      <trkpt lat="44.61012" lon="1.18783">
        <ele>271.6</ele>
        <time>2024-07-23T12:34:45Z</time>
      </trkpt>
      <trkpt lat="44.61008" lon="1.18783">
        <ele>270.6</ele>
        <time>2024-07-23T12:34:46Z</time>
      </trkpt>
      <trkpt lat="44.61004" lon="1.18783">
        <ele>269.6</ele>
        <time>2024-07-23T12:34:47Z</time>
      </trkpt>
      <trkpt lat="44.60999" lon="1.18782">
        <ele>268.6</ele>
        <time>2024-07-23T12:34:48Z</time>
      </trkpt>
      <trkpt lat="44.60995" lon="1.1878">
        <ele>268</ele>
        <time>2024-07-23T12:34:49Z</time>
      </trkpt>
      <trkpt lat="44.6099" lon="1.18778">
        <ele>267.8</ele>
        <time>2024-07-23T12:34:50Z</time>
      </trkpt>
      <trkpt lat="44.60986" lon="1.18776">
        <ele>267.6</ele>
        <time>2024-07-23T12:34:51Z</time>
      </trkpt>
      <trkpt lat="44.60982" lon="1.18775">
        <ele>267.6</ele>
        <time>2024-07-23T12:34:52Z</time>
      </trkpt>
      <trkpt lat="44.60968" lon="1.18771">
        <ele>266.8</ele>
        <time>2024-07-23T12:34:55Z</time>
      </trkpt>
      <trkpt lat="44.60959" lon="1.18769">
        <ele>266.4</ele>
        <time>2024-07-23T12:34:57Z</time>
      </trkpt>
      <trkpt lat="44.60921" lon="1.18756">
        <ele>265.4</ele>
        <time>2024-07-23T12:35:05Z</time>
      </trkpt>
      <trkpt lat="44.60916" lon="1.18754">
        <ele>265.4</ele>
        <time>2024-07-23T12:35:06Z</time>
      </trkpt>
      <trkpt lat="44.60888" lon="1.1874">
        <ele>265</ele>
        <time>2024-07-23T12:35:12Z</time>
      </trkpt>
      <trkpt lat="44.60869" lon="1.18731">
        <ele>264.8</ele>
        <time>2024-07-23T12:35:16Z</time>
      </trkpt>
      <trkpt lat="44.60859" lon="1.18729">
        <ele>264.8</ele>
        <time>2024-07-23T12:35:18Z</time>
      </trkpt>
      <trkpt lat="44.60855" lon="1.18728">
        <ele>264.6</ele>
        <time>2024-07-23T12:35:19Z</time>
      </trkpt>
      <trkpt lat="44.60841" lon="1.18729">
        <ele>264.6</ele>
        <time>2024-07-23T12:35:22Z</time>
      </trkpt>
      <trkpt lat="44.60827" lon="1.18734">
        <ele>264.6</ele>
        <time>2024-07-23T12:35:25Z</time>
      </trkpt>
      <trkpt lat="44.60813" lon="1.18741">
        <ele>264.6</ele>
        <time>2024-07-23T12:35:28Z</time>
      </trkpt>
      <trkpt lat="44.60783" lon="1.18768">
        <ele>264.6</ele>
        <time>2024-07-23T12:35:36Z</time>
      </trkpt>
      <trkpt lat="44.6078" lon="1.18772">
        <ele>264.6</ele>
        <time>2024-07-23T12:35:37Z</time>
      </trkpt>
      <trkpt lat="44.60776" lon="1.18776">
        <ele>264.8</ele>
        <time>2024-07-23T12:35:38Z</time>
      </trkpt>
      <trkpt lat="44.60773" lon="1.1878">
        <ele>264.8</ele>
        <time>2024-07-23T12:35:39Z</time>
      </trkpt>
      <trkpt lat="44.60769" lon="1.18784">
        <ele>264.8</ele>
        <time>2024-07-23T12:35:40Z</time>
      </trkpt>
      <trkpt lat="44.60748" lon="1.18809">
        <ele>264.6</ele>
        <time>2024-07-23T12:35:45Z</time>
      </trkpt>
      <trkpt lat="44.60722" lon="1.18839">
        <ele>264.2</ele>
        <time>2024-07-23T12:35:50Z</time>
      </trkpt>
      <trkpt lat="44.60716" lon="1.18846">
        <ele>263.8</ele>
        <time>2024-07-23T12:35:52Z</time>
      </trkpt>
      <trkpt lat="44.60707" lon="1.1886">
        <ele>263.2</ele>
        <time>2024-07-23T12:35:53Z</time>
      </trkpt>
      <trkpt lat="44.60702" lon="1.1887">
        <ele>263</ele>
        <time>2024-07-23T12:35:54Z</time>
      </trkpt>
      <trkpt lat="44.60693" lon="1.18889">
        <ele>262.4</ele>
        <time>2024-07-23T12:35:56Z</time>
      </trkpt>
      <trkpt lat="44.6069" lon="1.18896">
        <ele>262.2</ele>
        <time>2024-07-23T12:35:57Z</time>
      </trkpt>
      <trkpt lat="44.6069" lon="1.18896">
        <ele>261.8</ele>
        <time>2024-07-23T12:35:58Z</time>
      </trkpt>
      <trkpt lat="44.60681" lon="1.18917">
        <ele>261.6</ele>
        <time>2024-07-23T12:35:59Z</time>
      </trkpt>
      <trkpt lat="44.60664" lon="1.18953">
        <ele>260.6</ele>
        <time>2024-07-23T12:36:03Z</time>
      </trkpt>
      <trkpt lat="44.60659" lon="1.18961">
        <ele>260.4</ele>
        <time>2024-07-23T12:36:04Z</time>
      </trkpt>
      <trkpt lat="44.60654" lon="1.18968">
        <ele>260</ele>
        <time>2024-07-23T12:36:05Z</time>
      </trkpt>
      <trkpt lat="44.6065" lon="1.18974">
        <ele>259.6</ele>
        <time>2024-07-23T12:36:06Z</time>
      </trkpt>
      <trkpt lat="44.60642" lon="1.1898">
        <ele>259.2</ele>
        <time>2024-07-23T12:36:07Z</time>
      </trkpt>
      <trkpt lat="44.60636" lon="1.18985">
        <ele>259</ele>
        <time>2024-07-23T12:36:08Z</time>
      </trkpt>
      <trkpt lat="44.60629" lon="1.18989">
        <ele>259</ele>
        <time>2024-07-23T12:36:09Z</time>
      </trkpt>
      <trkpt lat="44.60623" lon="1.18993">
        <ele>258.8</ele>
        <time>2024-07-23T12:36:10Z</time>
      </trkpt>
      <trkpt lat="44.60619" lon="1.18996">
        <ele>258.8</ele>
        <time>2024-07-23T12:36:11Z</time>
      </trkpt>
      <trkpt lat="44.60614" lon="1.19">
        <ele>258.4</ele>
        <time>2024-07-23T12:36:12Z</time>
      </trkpt>
      <trkpt lat="44.60608" lon="1.19005">
        <ele>258.2</ele>
        <time>2024-07-23T12:36:13Z</time>
      </trkpt>
      <trkpt lat="44.60605" lon="1.19008">
        <ele>257.8</ele>
        <time>2024-07-23T12:36:14Z</time>
      </trkpt>
      <trkpt lat="44.60602" lon="1.19011">
        <ele>257.6</ele>
        <time>2024-07-23T12:36:15Z</time>
      </trkpt>
      <trkpt lat="44.60599" lon="1.19012">
        <ele>257.6</ele>
        <time>2024-07-23T12:36:16Z</time>
      </trkpt>
      <trkpt lat="44.60595" lon="1.19015">
        <ele>257.4</ele>
        <time>2024-07-23T12:36:17Z</time>
      </trkpt>
      <trkpt lat="44.60592" lon="1.19016">
        <ele>257.4</ele>
        <time>2024-07-23T12:36:18Z</time>
      </trkpt>
      <trkpt lat="44.60588" lon="1.19016">
        <ele>257.2</ele>
        <time>2024-07-23T12:36:19Z</time>
      </trkpt>
      <trkpt lat="44.60585" lon="1.19016">
        <ele>257.2</ele>
        <time>2024-07-23T12:36:20Z</time>
      </trkpt>
      <trkpt lat="44.60581" lon="1.19016">
        <ele>257.2</ele>
        <time>2024-07-23T12:36:21Z</time>
      </trkpt>
      <trkpt lat="44.60577" lon="1.19016">
        <ele>257.2</ele>
        <time>2024-07-23T12:36:22Z</time>
      </trkpt>
      <trkpt lat="44.60566" lon="1.19015">
        <ele>257</ele>
        <time>2024-07-23T12:36:25Z</time>
      </trkpt>
      <trkpt lat="44.60532" lon="1.19008">
        <ele>256.8</ele>
        <time>2024-07-23T12:36:34Z</time>
      </trkpt>
      <trkpt lat="44.60524" lon="1.19006">
        <ele>256.8</ele>
        <time>2024-07-23T12:36:36Z</time>
      </trkpt>
      <trkpt lat="44.60513" lon="1.19004">
        <ele>256.8</ele>
        <time>2024-07-23T12:36:39Z</time>
      </trkpt>
      <trkpt lat="44.60493" lon="1.19004">
        <ele>257.2</ele>
        <time>2024-07-23T12:36:44Z</time>
      </trkpt>
      <trkpt lat="44.60473" lon="1.19011">
        <ele>257.2</ele>
        <time>2024-07-23T12:36:49Z</time>
      </trkpt>
      <trkpt lat="44.60465" lon="1.19011">
        <ele>257.2</ele>
        <time>2024-07-23T12:36:51Z</time>
      </trkpt>
      <trkpt lat="44.60459" lon="1.19009">
        <ele>257.2</ele>
        <time>2024-07-23T12:36:53Z</time>
      </trkpt>
      <trkpt lat="44.60456" lon="1.19008">
        <ele>257.2</ele>
        <time>2024-07-23T12:36:54Z</time>
      </trkpt>
      <trkpt lat="44.60455" lon="1.19006">
        <ele>257.2</ele>
        <time>2024-07-23T12:36:55Z</time>
      </trkpt>
      <trkpt lat="44.60454" lon="1.19005">
        <ele>257.2</ele>
        <time>2024-07-23T12:36:56Z</time>
      </trkpt>
      <trkpt lat="44.60454" lon="1.19005">
        <ele>257.4</ele>
        <time>2024-07-23T12:36:57Z</time>
      </trkpt>
      <trkpt lat="44.60453" lon="1.19006">
        <ele>257.4</ele>
        <time>2024-07-23T12:36:58Z</time>
      </trkpt>
      <trkpt lat="44.60454" lon="1.19008">
        <ele>257.4</ele>
        <time>2024-07-23T12:36:59Z</time>
      </trkpt>
      <trkpt lat="44.60456" lon="1.1901">
        <ele>257.6</ele>
        <time>2024-07-23T12:37:01Z</time>
      </trkpt>
      <trkpt lat="44.6046" lon="1.19012">
        <ele>257.8</ele>
        <time>2024-07-23T12:37:03Z</time>
      </trkpt>
      <trkpt lat="44.60462" lon="1.19014">
        <ele>257.8</ele>
        <time>2024-07-23T12:37:04Z</time>
      </trkpt>
      <trkpt lat="44.60462" lon="1.19016">
        <ele>257.8</ele>
        <time>2024-07-23T12:37:05Z</time>
      </trkpt>
      <trkpt lat="44.60461" lon="1.19018">
        <ele>257.8</ele>
        <time>2024-07-23T12:37:06Z</time>
      </trkpt>
      <trkpt lat="44.6046" lon="1.1902">
        <ele>257.8</ele>
        <time>2024-07-23T12:37:07Z</time>
      </trkpt>
      <trkpt lat="44.60458" lon="1.19022">
        <ele>257.8</ele>
        <time>2024-07-23T12:37:08Z</time>
      </trkpt>
      <trkpt lat="44.60452" lon="1.19024">
        <ele>257.6</ele>
        <time>2024-07-23T12:37:10Z</time>
      </trkpt>
      <trkpt lat="44.60452" lon="1.19024">
        <ele>257.6</ele>
        <time>2024-07-23T12:37:11Z</time>
      </trkpt>
      <trkpt lat="44.60434" lon="1.19029">
        <ele>256.8</ele>
        <time>2024-07-23T12:37:15Z</time>
      </trkpt>
      <trkpt lat="44.6043" lon="1.1903">
        <ele>256.6</ele>
        <time>2024-07-23T12:37:16Z</time>
      </trkpt>
      <trkpt lat="44.60427" lon="1.1903">
        <ele>256.4</ele>
        <time>2024-07-23T12:37:17Z</time>
      </trkpt>
      <trkpt lat="44.60423" lon="1.1903">
        <ele>256.4</ele>
        <time>2024-07-23T12:37:18Z</time>
      </trkpt>
      <trkpt lat="44.60413" lon="1.19029">
        <ele>256.2</ele>
        <time>2024-07-23T12:37:21Z</time>
      </trkpt>
      <trkpt lat="44.60395" lon="1.19021">
        <ele>255.8</ele>
        <time>2024-07-23T12:37:26Z</time>
      </trkpt>
      <trkpt lat="44.60372" lon="1.18998">
        <ele>255.2</ele>
        <time>2024-07-23T12:37:33Z</time>
      </trkpt>
      <trkpt lat="44.60356" lon="1.18968">
        <ele>254.2</ele>
        <time>2024-07-23T12:37:39Z</time>
      </trkpt>
      <trkpt lat="44.60354" lon="1.18962">
        <ele>254.2</ele>
        <time>2024-07-23T12:37:40Z</time>
      </trkpt>
      <trkpt lat="44.60351" lon="1.18949">
        <ele>253.6</ele>
        <time>2024-07-23T12:37:42Z</time>
      </trkpt>
      <trkpt lat="44.6035" lon="1.18945">
        <ele>253.2</ele>
        <time>2024-07-23T12:37:44Z</time>
      </trkpt>
      <trkpt lat="44.60349" lon="1.18938">
        <ele>253</ele>
        <time>2024-07-23T12:37:45Z</time>
      </trkpt>
      <trkpt lat="44.60349" lon="1.18936">
        <ele>252.6</ele>
        <time>2024-07-23T12:37:46Z</time>
      </trkpt>
      <trkpt lat="44.60349" lon="1.18936">
        <ele>252.4</ele>
        <time>2024-07-23T12:37:47Z</time>
      </trkpt>
      <trkpt lat="44.60348" lon="1.18927">
        <ele>252</ele>
        <time>2024-07-23T12:37:48Z</time>
      </trkpt>
      <trkpt lat="44.60347" lon="1.18923">
        <ele>251.8</ele>
        <time>2024-07-23T12:37:49Z</time>
      </trkpt>
      <trkpt lat="44.60344" lon="1.18914">
        <ele>251.2</ele>
        <time>2024-07-23T12:37:51Z</time>
      </trkpt>
      <trkpt lat="44.60342" lon="1.18909">
        <ele>251</ele>
        <time>2024-07-23T12:37:52Z</time>
      </trkpt>
      <trkpt lat="44.60339" lon="1.18906">
        <ele>250.8</ele>
        <time>2024-07-23T12:37:53Z</time>
      </trkpt>
      <trkpt lat="44.60335" lon="1.18904">
        <ele>250.6</ele>
        <time>2024-07-23T12:37:54Z</time>
      </trkpt>
      <trkpt lat="44.60332" lon="1.18901">
        <ele>250.6</ele>
        <time>2024-07-23T12:37:55Z</time>
      </trkpt>
      <trkpt lat="44.60332" lon="1.18901">
        <ele>250.6</ele>
        <time>2024-07-23T12:37:56Z</time>
      </trkpt>
      <trkpt lat="44.60325" lon="1.18896">
        <ele>250.4</ele>
        <time>2024-07-23T12:37:57Z</time>
      </trkpt>
      <trkpt lat="44.60322" lon="1.18894">
        <ele>250.2</ele>
        <time>2024-07-23T12:37:58Z</time>
      </trkpt>
      <trkpt lat="44.60316" lon="1.1889">
        <ele>249.8</ele>
        <time>2024-07-23T12:38:00Z</time>
      </trkpt>
      <trkpt lat="44.60313" lon="1.18888">
        <ele>249.2</ele>
        <time>2024-07-23T12:38:02Z</time>
      </trkpt>
      <trkpt lat="44.60309" lon="1.18885">
        <ele>249</ele>
        <time>2024-07-23T12:38:03Z</time>
      </trkpt>
      <trkpt lat="44.60307" lon="1.18883">
        <ele>249</ele>
        <time>2024-07-23T12:38:04Z</time>
      </trkpt>
      <trkpt lat="44.60307" lon="1.18883">
        <ele>249</ele>
        <time>2024-07-23T12:38:05Z</time>
      </trkpt>
      <trkpt lat="44.60304" lon="1.18879">
        <ele>249</ele>
        <time>2024-07-23T12:38:06Z</time>
      </trkpt>
      <trkpt lat="44.60303" lon="1.18877">
        <ele>249</ele>
        <time>2024-07-23T12:38:07Z</time>
      </trkpt>
      <trkpt lat="44.60303" lon="1.18877">
        <ele>248.8</ele>
        <time>2024-07-23T12:38:08Z</time>
      </trkpt>
      <trkpt lat="44.60303" lon="1.18874">
        <ele>248.8</ele>
        <time>2024-07-23T12:38:09Z</time>
      </trkpt>
      <trkpt lat="44.60304" lon="1.18871">
        <ele>248.8</ele>
        <time>2024-07-23T12:38:10Z</time>
      </trkpt>
      <trkpt lat="44.60304" lon="1.18871">
        <ele>248.8</ele>
        <time>2024-07-23T12:38:11Z</time>
      </trkpt>
      <trkpt lat="44.60306" lon="1.18867">
        <ele>248.8</ele>
        <time>2024-07-23T12:38:12Z</time>
      </trkpt>
      <trkpt lat="44.60306" lon="1.18865">
        <ele>248.8</ele>
        <time>2024-07-23T12:38:13Z</time>
      </trkpt>
      <trkpt lat="44.60308" lon="1.18862">
        <ele>248.8</ele>
        <time>2024-07-23T12:38:14Z</time>
      </trkpt>
      <trkpt lat="44.60309" lon="1.18858">
        <ele>248.8</ele>
        <time>2024-07-23T12:38:15Z</time>
      </trkpt>
      <trkpt lat="44.6031" lon="1.18854">
        <ele>248.8</ele>
        <time>2024-07-23T12:38:16Z</time>
      </trkpt>
      <trkpt lat="44.6031" lon="1.1885">
        <ele>248.8</ele>
        <time>2024-07-23T12:38:17Z</time>
      </trkpt>
      <trkpt lat="44.60314" lon="1.1884">
        <ele>248.8</ele>
        <time>2024-07-23T12:38:20Z</time>
      </trkpt>
      <trkpt lat="44.60315" lon="1.18836">
        <ele>249</ele>
        <time>2024-07-23T12:38:21Z</time>
      </trkpt>
      <trkpt lat="44.60317" lon="1.18832">
        <ele>249</ele>
        <time>2024-07-23T12:38:22Z</time>
      </trkpt>
      <trkpt lat="44.60326" lon="1.18806">
        <ele>249.4</ele>
        <time>2024-07-23T12:38:27Z</time>
      </trkpt>
      <trkpt lat="44.60335" lon="1.18785">
        <ele>249.4</ele>
        <time>2024-07-23T12:38:31Z</time>
      </trkpt>
      <trkpt lat="44.60339" lon="1.18778">
        <ele>249.4</ele>
        <time>2024-07-23T12:38:32Z</time>
      </trkpt>
      <trkpt lat="44.60342" lon="1.18772">
        <ele>249.4</ele>
        <time>2024-07-23T12:38:33Z</time>
      </trkpt>
      <trkpt lat="44.60352" lon="1.18735">
        <ele>248.8</ele>
        <time>2024-07-23T12:38:39Z</time>
      </trkpt>
      <trkpt lat="44.60355" lon="1.18725">
        <ele>248.6</ele>
        <time>2024-07-23T12:38:41Z</time>
      </trkpt>
      <trkpt lat="44.60357" lon="1.1872">
        <ele>248.6</ele>
        <time>2024-07-23T12:38:42Z</time>
      </trkpt>
      <trkpt lat="44.60358" lon="1.18713">
        <ele>248.6</ele>
        <time>2024-07-23T12:38:43Z</time>
      </trkpt>
      <trkpt lat="44.60358" lon="1.18707">
        <ele>248.4</ele>
        <time>2024-07-23T12:38:44Z</time>
      </trkpt>
      <trkpt lat="44.60358" lon="1.18701">
        <ele>248.4</ele>
        <time>2024-07-23T12:38:45Z</time>
      </trkpt>
      <trkpt lat="44.60357" lon="1.18695">
        <ele>248.2</ele>
        <time>2024-07-23T12:38:46Z</time>
      </trkpt>
      <trkpt lat="44.60356" lon="1.18688">
        <ele>248.2</ele>
        <time>2024-07-23T12:38:47Z</time>
      </trkpt>
      <trkpt lat="44.60355" lon="1.18682">
        <ele>248</ele>
        <time>2024-07-23T12:38:48Z</time>
      </trkpt>
      <trkpt lat="44.60355" lon="1.18675">
        <ele>248</ele>
        <time>2024-07-23T12:38:49Z</time>
      </trkpt>
      <trkpt lat="44.60354" lon="1.1867">
        <ele>248</ele>
        <time>2024-07-23T12:38:50Z</time>
      </trkpt>
      <trkpt lat="44.60352" lon="1.18664">
        <ele>248</ele>
        <time>2024-07-23T12:38:51Z</time>
      </trkpt>
      <trkpt lat="44.60352" lon="1.1866">
        <ele>248</ele>
        <time>2024-07-23T12:38:52Z</time>
      </trkpt>
      <trkpt lat="44.6035" lon="1.18649">
        <ele>247.8</ele>
        <time>2024-07-23T12:38:54Z</time>
      </trkpt>
      <trkpt lat="44.60349" lon="1.18643">
        <ele>247.6</ele>
        <time>2024-07-23T12:38:55Z</time>
      </trkpt>
      <trkpt lat="44.60342" lon="1.18632">
        <ele>247.8</ele>
        <time>2024-07-23T12:38:57Z</time>
      </trkpt>
      <trkpt lat="44.60341" lon="1.18628">
        <ele>247.6</ele>
        <time>2024-07-23T12:38:58Z</time>
      </trkpt>
      <trkpt lat="44.6034" lon="1.18623">
        <ele>247.6</ele>
        <time>2024-07-23T12:38:59Z</time>
      </trkpt>
      <trkpt lat="44.60339" lon="1.18618">
        <ele>247.6</ele>
        <time>2024-07-23T12:39:00Z</time>
      </trkpt>
      <trkpt lat="44.60339" lon="1.18614">
        <ele>247.6</ele>
        <time>2024-07-23T12:39:01Z</time>
      </trkpt>
      <trkpt lat="44.60339" lon="1.18609">
        <ele>247.6</ele>
        <time>2024-07-23T12:39:02Z</time>
      </trkpt>
      <trkpt lat="44.60337" lon="1.18604">
        <ele>247.6</ele>
        <time>2024-07-23T12:39:03Z</time>
      </trkpt>
      <trkpt lat="44.60333" lon="1.18598">
        <ele>247.6</ele>
        <time>2024-07-23T12:39:04Z</time>
      </trkpt>
      <trkpt lat="44.60329" lon="1.18586">
        <ele>247.6</ele>
        <time>2024-07-23T12:39:06Z</time>
      </trkpt>
      <trkpt lat="44.60327" lon="1.1858">
        <ele>247.4</ele>
        <time>2024-07-23T12:39:07Z</time>
      </trkpt>
      <trkpt lat="44.60319" lon="1.18562">
        <ele>247.2</ele>
        <time>2024-07-23T12:39:10Z</time>
      </trkpt>
      <trkpt lat="44.60315" lon="1.18557">
        <ele>247.2</ele>
        <time>2024-07-23T12:39:11Z</time>
      </trkpt>
      <trkpt lat="44.60311" lon="1.1855">
        <ele>247.2</ele>
        <time>2024-07-23T12:39:12Z</time>
      </trkpt>
      <trkpt lat="44.60299" lon="1.18531">
        <ele>247</ele>
        <time>2024-07-23T12:39:15Z</time>
      </trkpt>
      <trkpt lat="44.60298" lon="1.18528">
        <ele>247</ele>
        <time>2024-07-23T12:39:16Z</time>
      </trkpt>
      <trkpt lat="44.60297" lon="1.18523">
        <ele>247</ele>
        <time>2024-07-23T12:39:17Z</time>
      </trkpt>
      <trkpt lat="44.60295" lon="1.18518">
        <ele>247</ele>
        <time>2024-07-23T12:39:18Z</time>
      </trkpt>
      <trkpt lat="44.60294" lon="1.18515">
        <ele>246.6</ele>
        <time>2024-07-23T12:39:19Z</time>
      </trkpt>
      <trkpt lat="44.6029" lon="1.1851">
        <ele>246.6</ele>
        <time>2024-07-23T12:39:20Z</time>
      </trkpt>
      <trkpt lat="44.60286" lon="1.18503">
        <ele>246.4</ele>
        <time>2024-07-23T12:39:21Z</time>
      </trkpt>
      <trkpt lat="44.60283" lon="1.18499">
        <ele>246.2</ele>
        <time>2024-07-23T12:39:22Z</time>
      </trkpt>
      <trkpt lat="44.60277" lon="1.18491">
        <ele>246.2</ele>
        <time>2024-07-23T12:39:23Z</time>
      </trkpt>
      <trkpt lat="44.60271" lon="1.18482">
        <ele>246.2</ele>
        <time>2024-07-23T12:39:25Z</time>
      </trkpt>
      <trkpt lat="44.60264" lon="1.18471">
        <ele>246.2</ele>
        <time>2024-07-23T12:39:27Z</time>
      </trkpt>
      <trkpt lat="44.60256" lon="1.18462">
        <ele>246</ele>
        <time>2024-07-23T12:39:28Z</time>
      </trkpt>
      <trkpt lat="44.60251" lon="1.18455">
        <ele>246</ele>
        <time>2024-07-23T12:39:29Z</time>
      </trkpt>
      <trkpt lat="44.6024" lon="1.18436">
        <ele>245.6</ele>
        <time>2024-07-23T12:39:32Z</time>
      </trkpt>
      <trkpt lat="44.60233" lon="1.18429">
        <ele>245.6</ele>
        <time>2024-07-23T12:39:33Z</time>
      </trkpt>
      <trkpt lat="44.60225" lon="1.18412">
        <ele>244.8</ele>
        <time>2024-07-23T12:39:36Z</time>
      </trkpt>
      <trkpt lat="44.60221" lon="1.184">
        <ele>244.4</ele>
        <time>2024-07-23T12:39:38Z</time>
      </trkpt>
      <trkpt lat="44.60219" lon="1.18395">
        <ele>244</ele>
        <time>2024-07-23T12:39:39Z</time>
      </trkpt>
      <trkpt lat="44.60215" lon="1.18388">
        <ele>243.8</ele>
        <time>2024-07-23T12:39:40Z</time>
      </trkpt>
      <trkpt lat="44.60212" lon="1.18381">
        <ele>243.6</ele>
        <time>2024-07-23T12:39:41Z</time>
      </trkpt>
      <trkpt lat="44.60209" lon="1.18375">
        <ele>243.6</ele>
        <time>2024-07-23T12:39:42Z</time>
      </trkpt>
      <trkpt lat="44.60206" lon="1.18369">
        <ele>243.4</ele>
        <time>2024-07-23T12:39:43Z</time>
      </trkpt>
      <trkpt lat="44.60204" lon="1.18363">
        <ele>243.2</ele>
        <time>2024-07-23T12:39:44Z</time>
      </trkpt>
      <trkpt lat="44.60197" lon="1.18343">
        <ele>242.8</ele>
        <time>2024-07-23T12:39:47Z</time>
      </trkpt>
      <trkpt lat="44.60196" lon="1.18338">
        <ele>242.4</ele>
        <time>2024-07-23T12:39:48Z</time>
      </trkpt>
      <trkpt lat="44.60193" lon="1.18331">
        <ele>242.4</ele>
        <time>2024-07-23T12:39:49Z</time>
      </trkpt>
      <trkpt lat="44.60188" lon="1.18316">
        <ele>242</ele>
        <time>2024-07-23T12:39:52Z</time>
      </trkpt>
      <trkpt lat="44.60185" lon="1.18306">
        <ele>241.6</ele>
        <time>2024-07-23T12:39:54Z</time>
      </trkpt>
      <trkpt lat="44.60184" lon="1.18302">
        <ele>241.4</ele>
        <time>2024-07-23T12:39:55Z</time>
      </trkpt>
      <trkpt lat="44.60183" lon="1.18296">
        <ele>241.4</ele>
        <time>2024-07-23T12:39:57Z</time>
      </trkpt>
      <trkpt lat="44.60183" lon="1.18293">
        <ele>241.2</ele>
        <time>2024-07-23T12:39:58Z</time>
      </trkpt>
      <trkpt lat="44.60183" lon="1.18291">
        <ele>241.2</ele>
        <time>2024-07-23T12:39:59Z</time>
      </trkpt>
      <trkpt lat="44.60183" lon="1.18288">
        <ele>241</ele>
        <time>2024-07-23T12:40:00Z</time>
      </trkpt>
      <trkpt lat="44.60182" lon="1.18285">
        <ele>240.8</ele>
        <time>2024-07-23T12:40:01Z</time>
      </trkpt>
      <trkpt lat="44.60182" lon="1.18283">
        <ele>240.6</ele>
        <time>2024-07-23T12:40:02Z</time>
      </trkpt>
      <trkpt lat="44.60176" lon="1.18273">
        <ele>240.2</ele>
        <time>2024-07-23T12:40:05Z</time>
      </trkpt>
      <trkpt lat="44.60164" lon="1.18262">
        <ele>240</ele>
        <time>2024-07-23T12:40:09Z</time>
      </trkpt>
      <trkpt lat="44.6016" lon="1.18261">
        <ele>239.8</ele>
        <time>2024-07-23T12:40:10Z</time>
      </trkpt>
      <trkpt lat="44.60134" lon="1.1825">
        <ele>239.2</ele>
        <time>2024-07-23T12:40:15Z</time>
      </trkpt>
      <trkpt lat="44.60113" lon="1.18238">
        <ele>238.8</ele>
        <time>2024-07-23T12:40:19Z</time>
      </trkpt>
      <trkpt lat="44.6011" lon="1.18237">
        <ele>238.6</ele>
        <time>2024-07-23T12:40:20Z</time>
      </trkpt>
      <trkpt lat="44.60105" lon="1.18235">
        <ele>238.6</ele>
        <time>2024-07-23T12:40:21Z</time>
      </trkpt>
      <trkpt lat="44.601" lon="1.18233">
        <ele>238.4</ele>
        <time>2024-07-23T12:40:22Z</time>
      </trkpt>
      <trkpt lat="44.60093" lon="1.18228">
        <ele>238</ele>
        <time>2024-07-23T12:40:24Z</time>
      </trkpt>
      <trkpt lat="44.60084" lon="1.18221">
        <ele>237.8</ele>
        <time>2024-07-23T12:40:26Z</time>
      </trkpt>
      <trkpt lat="44.6008" lon="1.18218">
        <ele>237.6</ele>
        <time>2024-07-23T12:40:27Z</time>
      </trkpt>
      <trkpt lat="44.60071" lon="1.18211">
        <ele>237.4</ele>
        <time>2024-07-23T12:40:29Z</time>
      </trkpt>
      <trkpt lat="44.60067" lon="1.18208">
        <ele>237.4</ele>
        <time>2024-07-23T12:40:30Z</time>
      </trkpt>
      <trkpt lat="44.60063" lon="1.18205">
        <ele>237.4</ele>
        <time>2024-07-23T12:40:31Z</time>
      </trkpt>
      <trkpt lat="44.6006" lon="1.18202">
        <ele>237.4</ele>
        <time>2024-07-23T12:40:32Z</time>
      </trkpt>
      <trkpt lat="44.60052" lon="1.18195">
        <ele>237.4</ele>
        <time>2024-07-23T12:40:34Z</time>
      </trkpt>
      <trkpt lat="44.60047" lon="1.18191">
        <ele>237.2</ele>
        <time>2024-07-23T12:40:35Z</time>
      </trkpt>
      <trkpt lat="44.60035" lon="1.18185">
        <ele>236.6</ele>
        <time>2024-07-23T12:40:38Z</time>
      </trkpt>
      <trkpt lat="44.60025" lon="1.18182">
        <ele>236.4</ele>
        <time>2024-07-23T12:40:40Z</time>
      </trkpt>
      <trkpt lat="44.6002" lon="1.18183">
        <ele>236.2</ele>
        <time>2024-07-23T12:40:41Z</time>
      </trkpt>
      <trkpt lat="44.60015" lon="1.18183">
        <ele>236</ele>
        <time>2024-07-23T12:40:42Z</time>
      </trkpt>
      <trkpt lat="44.6001" lon="1.18183">
        <ele>236</ele>
        <time>2024-07-23T12:40:43Z</time>
      </trkpt>
      <trkpt lat="44.60002" lon="1.18186">
        <ele>235.8</ele>
        <time>2024-07-23T12:40:45Z</time>
      </trkpt>
      <trkpt lat="44.59998" lon="1.1819">
        <ele>235.6</ele>
        <time>2024-07-23T12:40:46Z</time>
      </trkpt>
      <trkpt lat="44.59993" lon="1.18194">
        <ele>235.4</ele>
        <time>2024-07-23T12:40:47Z</time>
      </trkpt>
      <trkpt lat="44.5999" lon="1.18196">
        <ele>235.2</ele>
        <time>2024-07-23T12:40:48Z</time>
      </trkpt>
      <trkpt lat="44.59985" lon="1.18201">
        <ele>235</ele>
        <time>2024-07-23T12:40:49Z</time>
      </trkpt>
      <trkpt lat="44.59981" lon="1.18204">
        <ele>235</ele>
        <time>2024-07-23T12:40:50Z</time>
      </trkpt>
      <trkpt lat="44.59974" lon="1.18208">
        <ele>234.8</ele>
        <time>2024-07-23T12:40:52Z</time>
      </trkpt>
      <trkpt lat="44.59969" lon="1.1821">
        <ele>234.6</ele>
        <time>2024-07-23T12:40:53Z</time>
      </trkpt>
      <trkpt lat="44.59964" lon="1.1821">
        <ele>234.6</ele>
        <time>2024-07-23T12:40:54Z</time>
      </trkpt>
      <trkpt lat="44.59959" lon="1.18211">
        <ele>234.6</ele>
        <time>2024-07-23T12:40:55Z</time>
      </trkpt>
      <trkpt lat="44.59955" lon="1.18214">
        <ele>234.4</ele>
        <time>2024-07-23T12:40:56Z</time>
      </trkpt>
      <trkpt lat="44.59942" lon="1.18218">
        <ele>234</ele>
        <time>2024-07-23T12:40:59Z</time>
      </trkpt>
      <trkpt lat="44.59938" lon="1.1822">
        <ele>233.8</ele>
        <time>2024-07-23T12:41:00Z</time>
      </trkpt>
      <trkpt lat="44.59934" lon="1.18221">
        <ele>233.6</ele>
        <time>2024-07-23T12:41:01Z</time>
      </trkpt>
      <trkpt lat="44.59927" lon="1.18227">
        <ele>233.4</ele>
        <time>2024-07-23T12:41:02Z</time>
      </trkpt>
      <trkpt lat="44.59922" lon="1.18233">
        <ele>233.2</ele>
        <time>2024-07-23T12:41:03Z</time>
      </trkpt>
      <trkpt lat="44.59896" lon="1.1825">
        <ele>233</ele>
        <time>2024-07-23T12:41:08Z</time>
      </trkpt>
      <trkpt lat="44.59892" lon="1.18251">
        <ele>233</ele>
        <time>2024-07-23T12:41:09Z</time>
      </trkpt>
      <trkpt lat="44.59888" lon="1.18251">
        <ele>232.8</ele>
        <time>2024-07-23T12:41:10Z</time>
      </trkpt>
      <trkpt lat="44.59884" lon="1.18251">
        <ele>232.8</ele>
        <time>2024-07-23T12:41:11Z</time>
      </trkpt>
      <trkpt lat="44.59879" lon="1.18253">
        <ele>232.8</ele>
        <time>2024-07-23T12:41:12Z</time>
      </trkpt>
      <trkpt lat="44.59874" lon="1.18254">
        <ele>232.8</ele>
        <time>2024-07-23T12:41:13Z</time>
      </trkpt>
      <trkpt lat="44.5987" lon="1.18252">
        <ele>232.8</ele>
        <time>2024-07-23T12:41:14Z</time>
      </trkpt>
      <trkpt lat="44.59866" lon="1.18248">
        <ele>232.6</ele>
        <time>2024-07-23T12:41:15Z</time>
      </trkpt>
      <trkpt lat="44.59863" lon="1.18244">
        <ele>232.6</ele>
        <time>2024-07-23T12:41:16Z</time>
      </trkpt>
      <trkpt lat="44.5986" lon="1.1824">
        <ele>232.4</ele>
        <time>2024-07-23T12:41:17Z</time>
      </trkpt>
      <trkpt lat="44.59858" lon="1.18236">
        <ele>232.4</ele>
        <time>2024-07-23T12:41:18Z</time>
      </trkpt>
      <trkpt lat="44.59856" lon="1.18233">
        <ele>232.2</ele>
        <time>2024-07-23T12:41:19Z</time>
      </trkpt>
      <trkpt lat="44.59852" lon="1.18228">
        <ele>232</ele>
        <time>2024-07-23T12:41:20Z</time>
      </trkpt>
      <trkpt lat="44.59848" lon="1.18224">
        <ele>232</ele>
        <time>2024-07-23T12:41:21Z</time>
      </trkpt>
      <trkpt lat="44.59839" lon="1.18214">
        <ele>231.8</ele>
        <time>2024-07-23T12:41:24Z</time>
      </trkpt>
      <trkpt lat="44.59814" lon="1.18189">
        <ele>231.6</ele>
        <time>2024-07-23T12:41:30Z</time>
      </trkpt>
      <trkpt lat="44.59779" lon="1.18148">
        <ele>231.4</ele>
        <time>2024-07-23T12:41:40Z</time>
      </trkpt>
      <trkpt lat="44.59776" lon="1.18145">
        <ele>231.2</ele>
        <time>2024-07-23T12:41:41Z</time>
      </trkpt>
      <trkpt lat="44.59774" lon="1.18142">
        <ele>231.2</ele>
        <time>2024-07-23T12:41:42Z</time>
      </trkpt>
      <trkpt lat="44.59771" lon="1.18138">
        <ele>230.8</ele>
        <time>2024-07-23T12:41:43Z</time>
      </trkpt>
      <trkpt lat="44.59768" lon="1.18133">
        <ele>230.8</ele>
        <time>2024-07-23T12:41:44Z</time>
      </trkpt>
      <trkpt lat="44.59767" lon="1.18129">
        <ele>230.8</ele>
        <time>2024-07-23T12:41:45Z</time>
      </trkpt>
      <trkpt lat="44.59766" lon="1.18125">
        <ele>230.8</ele>
        <time>2024-07-23T12:41:46Z</time>
      </trkpt>
      <trkpt lat="44.59765" lon="1.1812">
        <ele>230.8</ele>
        <time>2024-07-23T12:41:47Z</time>
      </trkpt>
      <trkpt lat="44.59764" lon="1.18113">
        <ele>230.8</ele>
        <time>2024-07-23T12:41:48Z</time>
      </trkpt>
      <trkpt lat="44.59764" lon="1.18107">
        <ele>230.8</ele>
        <time>2024-07-23T12:41:49Z</time>
      </trkpt>
      <trkpt lat="44.59764" lon="1.18077">
        <ele>230.6</ele>
        <time>2024-07-23T12:41:54Z</time>
      </trkpt>
      <trkpt lat="44.59763" lon="1.18071">
        <ele>230.4</ele>
        <time>2024-07-23T12:41:55Z</time>
      </trkpt>
      <trkpt lat="44.59761" lon="1.18055">
        <ele>230.2</ele>
        <time>2024-07-23T12:41:58Z</time>
      </trkpt>
      <trkpt lat="44.5976" lon="1.1805">
        <ele>230</ele>
        <time>2024-07-23T12:41:59Z</time>
      </trkpt>
      <trkpt lat="44.5976" lon="1.18045">
        <ele>230</ele>
        <time>2024-07-23T12:42:00Z</time>
      </trkpt>
      <trkpt lat="44.59761" lon="1.18033">
        <ele>229.8</ele>
        <time>2024-07-23T12:42:02Z</time>
      </trkpt>
      <trkpt lat="44.59763" lon="1.18028">
        <ele>229.8</ele>
        <time>2024-07-23T12:42:03Z</time>
      </trkpt>
      <trkpt lat="44.59764" lon="1.18023">
        <ele>229.8</ele>
        <time>2024-07-23T12:42:04Z</time>
      </trkpt>
      <trkpt lat="44.59764" lon="1.18018">
        <ele>229.8</ele>
        <time>2024-07-23T12:42:05Z</time>
      </trkpt>
      <trkpt lat="44.59765" lon="1.18013">
        <ele>229.6</ele>
        <time>2024-07-23T12:42:06Z</time>
      </trkpt>
      <trkpt lat="44.59766" lon="1.17976">
        <ele>229</ele>
        <time>2024-07-23T12:42:12Z</time>
      </trkpt>
      <trkpt lat="44.59767" lon="1.1795">
        <ele>229.2</ele>
        <time>2024-07-23T12:42:17Z</time>
      </trkpt>
      <trkpt lat="44.59768" lon="1.17946">
        <ele>229.2</ele>
        <time>2024-07-23T12:42:18Z</time>
      </trkpt>
      <trkpt lat="44.59768" lon="1.17942">
        <ele>229.2</ele>
        <time>2024-07-23T12:42:19Z</time>
      </trkpt>
      <trkpt lat="44.59768" lon="1.17938">
        <ele>229.2</ele>
        <time>2024-07-23T12:42:20Z</time>
      </trkpt>
      <trkpt lat="44.59769" lon="1.17934">
        <ele>229.4</ele>
        <time>2024-07-23T12:42:21Z</time>
      </trkpt>
      <trkpt lat="44.59769" lon="1.1793">
        <ele>229.6</ele>
        <time>2024-07-23T12:42:22Z</time>
      </trkpt>
      <trkpt lat="44.59769" lon="1.17927">
        <ele>229.6</ele>
        <time>2024-07-23T12:42:23Z</time>
      </trkpt>
      <trkpt lat="44.5977" lon="1.17916">
        <ele>230.2</ele>
        <time>2024-07-23T12:42:26Z</time>
      </trkpt>
      <trkpt lat="44.59771" lon="1.17913">
        <ele>230.4</ele>
        <time>2024-07-23T12:42:27Z</time>
      </trkpt>
      <trkpt lat="44.59771" lon="1.17911">
        <ele>230.4</ele>
        <time>2024-07-23T12:42:28Z</time>
      </trkpt>
      <trkpt lat="44.59769" lon="1.17908">
        <ele>230.6</ele>
        <time>2024-07-23T12:42:29Z</time>
      </trkpt>
      <trkpt lat="44.59768" lon="1.17907">
        <ele>230.8</ele>
        <time>2024-07-23T12:42:30Z</time>
      </trkpt>
      <trkpt lat="44.59767" lon="1.17906">
        <ele>231</ele>
        <time>2024-07-23T12:42:31Z</time>
      </trkpt>
      <trkpt lat="44.59765" lon="1.17904">
        <ele>231.2</ele>
        <time>2024-07-23T12:42:32Z</time>
      </trkpt>
      <trkpt lat="44.59754" lon="1.17892">
        <ele>231.4</ele>
        <time>2024-07-23T12:42:35Z</time>
      </trkpt>
      <trkpt lat="44.59729" lon="1.17862">
        <ele>231.4</ele>
        <time>2024-07-23T12:42:40Z</time>
      </trkpt>
      <trkpt lat="44.5972" lon="1.17852">
        <ele>230.8</ele>
        <time>2024-07-23T12:42:42Z</time>
      </trkpt>
      <trkpt lat="44.59713" lon="1.17847">
        <ele>230.2</ele>
        <time>2024-07-23T12:42:43Z</time>
      </trkpt>
      <trkpt lat="44.59708" lon="1.17844">
        <ele>229.6</ele>
        <time>2024-07-23T12:42:44Z</time>
      </trkpt>
      <trkpt lat="44.59702" lon="1.1784">
        <ele>229.4</ele>
        <time>2024-07-23T12:42:45Z</time>
      </trkpt>
      <trkpt lat="44.59697" lon="1.17836">
        <ele>229</ele>
        <time>2024-07-23T12:42:46Z</time>
      </trkpt>
      <trkpt lat="44.59686" lon="1.17828">
        <ele>228.2</ele>
        <time>2024-07-23T12:42:48Z</time>
      </trkpt>
      <trkpt lat="44.5967" lon="1.17814">
        <ele>227.8</ele>
        <time>2024-07-23T12:42:51Z</time>
      </trkpt>
      <trkpt lat="44.59664" lon="1.17809">
        <ele>227.8</ele>
        <time>2024-07-23T12:42:52Z</time>
      </trkpt>
      <trkpt lat="44.59655" lon="1.17801">
        <ele>227.6</ele>
        <time>2024-07-23T12:42:54Z</time>
      </trkpt>
      <trkpt lat="44.59641" lon="1.17792">
        <ele>227.4</ele>
        <time>2024-07-23T12:42:57Z</time>
      </trkpt>
      <trkpt lat="44.59636" lon="1.17789">
        <ele>227.2</ele>
        <time>2024-07-23T12:42:58Z</time>
      </trkpt>
      <trkpt lat="44.59632" lon="1.17787">
        <ele>227.2</ele>
        <time>2024-07-23T12:42:59Z</time>
      </trkpt>
      <trkpt lat="44.59629" lon="1.17785">
        <ele>227.2</ele>
        <time>2024-07-23T12:43:00Z</time>
      </trkpt>
      <trkpt lat="44.59624" lon="1.17781">
        <ele>226.8</ele>
        <time>2024-07-23T12:43:01Z</time>
      </trkpt>
      <trkpt lat="44.5962" lon="1.17779">
        <ele>226.4</ele>
        <time>2024-07-23T12:43:02Z</time>
      </trkpt>
      <trkpt lat="44.59616" lon="1.17776">
        <ele>226.4</ele>
        <time>2024-07-23T12:43:03Z</time>
      </trkpt>
      <trkpt lat="44.59608" lon="1.1777">
        <ele>226.4</ele>
        <time>2024-07-23T12:43:05Z</time>
      </trkpt>
      <trkpt lat="44.59578" lon="1.17739">
        <ele>226.6</ele>
        <time>2024-07-23T12:43:13Z</time>
      </trkpt>
      <trkpt lat="44.59573" lon="1.17731">
        <ele>226.2</ele>
        <time>2024-07-23T12:43:15Z</time>
      </trkpt>
      <trkpt lat="44.5957" lon="1.17727">
        <ele>226.4</ele>
        <time>2024-07-23T12:43:16Z</time>
      </trkpt>
      <trkpt lat="44.59568" lon="1.17723">
        <ele>226</ele>
        <time>2024-07-23T12:43:17Z</time>
      </trkpt>
      <trkpt lat="44.59566" lon="1.1772">
        <ele>226.2</ele>
        <time>2024-07-23T12:43:18Z</time>
      </trkpt>
      <trkpt lat="44.59565" lon="1.17717">
        <ele>226.2</ele>
        <time>2024-07-23T12:43:19Z</time>
      </trkpt>
      <trkpt lat="44.59562" lon="1.17714">
        <ele>226.2</ele>
        <time>2024-07-23T12:43:20Z</time>
      </trkpt>
      <trkpt lat="44.5956" lon="1.17712">
        <ele>226</ele>
        <time>2024-07-23T12:43:21Z</time>
      </trkpt>
      <trkpt lat="44.59558" lon="1.17708">
        <ele>226</ele>
        <time>2024-07-23T12:43:22Z</time>
      </trkpt>
      <trkpt lat="44.59556" lon="1.17705">
        <ele>226</ele>
        <time>2024-07-23T12:43:23Z</time>
      </trkpt>
      <trkpt lat="44.59542" lon="1.17681">
        <ele>225.6</ele>
        <time>2024-07-23T12:43:27Z</time>
      </trkpt>
      <trkpt lat="44.59535" lon="1.17668">
        <ele>225.2</ele>
        <time>2024-07-23T12:43:29Z</time>
      </trkpt>
      <trkpt lat="44.59529" lon="1.17656">
        <ele>224.8</ele>
        <time>2024-07-23T12:43:31Z</time>
      </trkpt>
      <trkpt lat="44.59516" lon="1.17632">
        <ele>224.4</ele>
        <time>2024-07-23T12:43:35Z</time>
      </trkpt>
      <trkpt lat="44.59514" lon="1.17626">
        <ele>224.2</ele>
        <time>2024-07-23T12:43:36Z</time>
      </trkpt>
      <trkpt lat="44.59512" lon="1.17622">
        <ele>224</ele>
        <time>2024-07-23T12:43:37Z</time>
      </trkpt>
      <trkpt lat="44.59508" lon="1.17616">
        <ele>223.8</ele>
        <time>2024-07-23T12:43:38Z</time>
      </trkpt>
      <trkpt lat="44.59506" lon="1.17612">
        <ele>223.6</ele>
        <time>2024-07-23T12:43:39Z</time>
      </trkpt>
      <trkpt lat="44.59504" lon="1.17608">
        <ele>223.4</ele>
        <time>2024-07-23T12:43:40Z</time>
      </trkpt>
      <trkpt lat="44.59502" lon="1.17604">
        <ele>223.2</ele>
        <time>2024-07-23T12:43:41Z</time>
      </trkpt>
      <trkpt lat="44.595" lon="1.176">
        <ele>223</ele>
        <time>2024-07-23T12:43:42Z</time>
      </trkpt>
      <trkpt lat="44.59497" lon="1.17594">
        <ele>222.8</ele>
        <time>2024-07-23T12:43:43Z</time>
      </trkpt>
      <trkpt lat="44.59495" lon="1.17589">
        <ele>222.6</ele>
        <time>2024-07-23T12:43:44Z</time>
      </trkpt>
      <trkpt lat="44.59491" lon="1.17578">
        <ele>222</ele>
        <time>2024-07-23T12:43:46Z</time>
      </trkpt>
      <trkpt lat="44.59489" lon="1.1757">
        <ele>221.8</ele>
        <time>2024-07-23T12:43:47Z</time>
      </trkpt>
      <trkpt lat="44.59488" lon="1.17564">
        <ele>221.8</ele>
        <time>2024-07-23T12:43:48Z</time>
      </trkpt>
      <trkpt lat="44.59481" lon="1.1752">
        <ele>221</ele>
        <time>2024-07-23T12:43:55Z</time>
      </trkpt>
      <trkpt lat="44.59479" lon="1.17513">
        <ele>221</ele>
        <time>2024-07-23T12:43:56Z</time>
      </trkpt>
      <trkpt lat="44.59466" lon="1.17471">
        <ele>220.2</ele>
        <time>2024-07-23T12:44:03Z</time>
      </trkpt>
      <trkpt lat="44.5946" lon="1.17455">
        <ele>220</ele>
        <time>2024-07-23T12:44:06Z</time>
      </trkpt>
      <trkpt lat="44.59459" lon="1.1745">
        <ele>220</ele>
        <time>2024-07-23T12:44:07Z</time>
      </trkpt>
      <trkpt lat="44.59458" lon="1.17446">
        <ele>220</ele>
        <time>2024-07-23T12:44:08Z</time>
      </trkpt>
      <trkpt lat="44.59457" lon="1.1744">
        <ele>219.8</ele>
        <time>2024-07-23T12:44:09Z</time>
      </trkpt>
      <trkpt lat="44.59454" lon="1.17435">
        <ele>219.8</ele>
        <time>2024-07-23T12:44:10Z</time>
      </trkpt>
      <trkpt lat="44.59452" lon="1.1743">
        <ele>219.6</ele>
        <time>2024-07-23T12:44:11Z</time>
      </trkpt>
      <trkpt lat="44.5945" lon="1.17426">
        <ele>219.6</ele>
        <time>2024-07-23T12:44:12Z</time>
      </trkpt>
      <trkpt lat="44.59449" lon="1.17423">
        <ele>219.6</ele>
        <time>2024-07-23T12:44:13Z</time>
      </trkpt>
      <trkpt lat="44.59449" lon="1.1742">
        <ele>219.4</ele>
        <time>2024-07-23T12:44:14Z</time>
      </trkpt>
      <trkpt lat="44.59449" lon="1.17416">
        <ele>219.4</ele>
        <time>2024-07-23T12:44:15Z</time>
      </trkpt>
      <trkpt lat="44.59451" lon="1.17415">
        <ele>219.4</ele>
        <time>2024-07-23T12:44:16Z</time>
      </trkpt>
      <trkpt lat="44.59452" lon="1.17415">
        <ele>219.4</ele>
        <time>2024-07-23T12:44:17Z</time>
      </trkpt>
      <trkpt lat="44.59453" lon="1.17415">
        <ele>219.6</ele>
        <time>2024-07-23T12:44:18Z</time>
      </trkpt>
      <trkpt lat="44.59455" lon="1.17416">
        <ele>219.6</ele>
        <time>2024-07-23T12:44:19Z</time>
      </trkpt>
      <trkpt lat="44.59457" lon="1.17416">
        <ele>219.6</ele>
        <time>2024-07-23T12:44:20Z</time>
      </trkpt>
      <trkpt lat="44.59461" lon="1.17415">
        <ele>220</ele>
        <time>2024-07-23T12:44:23Z</time>
      </trkpt>
      <trkpt lat="44.59463" lon="1.17414">
        <ele>220.2</ele>
        <time>2024-07-23T12:44:24Z</time>
      </trkpt>
      <trkpt lat="44.59464" lon="1.17413">
        <ele>220.4</ele>
        <time>2024-07-23T12:44:25Z</time>
      </trkpt>
      <trkpt lat="44.59466" lon="1.17412">
        <ele>220.4</ele>
        <time>2024-07-23T12:44:26Z</time>
      </trkpt>
      <trkpt lat="44.59467" lon="1.17411">
        <ele>220.6</ele>
        <time>2024-07-23T12:44:27Z</time>
      </trkpt>
      <trkpt lat="44.59472" lon="1.17408">
        <ele>221</ele>
        <time>2024-07-23T12:44:30Z</time>
      </trkpt>
      <trkpt lat="44.59479" lon="1.17403">
        <ele>221.8</ele>
        <time>2024-07-23T12:44:35Z</time>
      </trkpt>
      <trkpt lat="44.59481" lon="1.17401">
        <ele>222</ele>
        <time>2024-07-23T12:44:36Z</time>
      </trkpt>
      <trkpt lat="44.59482" lon="1.174">
        <ele>222.2</ele>
        <time>2024-07-23T12:44:37Z</time>
      </trkpt>
      <trkpt lat="44.59484" lon="1.17399">
        <ele>222.6</ele>
        <time>2024-07-23T12:44:38Z</time>
      </trkpt>
      <trkpt lat="44.59486" lon="1.17396">
        <ele>223</ele>
        <time>2024-07-23T12:44:40Z</time>
      </trkpt>
      <trkpt lat="44.59488" lon="1.17395">
        <ele>223.4</ele>
        <time>2024-07-23T12:44:41Z</time>
      </trkpt>
      <trkpt lat="44.5949" lon="1.17392">
        <ele>223.8</ele>
        <time>2024-07-23T12:44:43Z</time>
      </trkpt>
      <trkpt lat="44.59492" lon="1.17391">
        <ele>223.8</ele>
        <time>2024-07-23T12:44:44Z</time>
      </trkpt>
      <trkpt lat="44.59493" lon="1.1739">
        <ele>224.2</ele>
        <time>2024-07-23T12:44:45Z</time>
      </trkpt>
      <trkpt lat="44.59494" lon="1.17389">
        <ele>224.6</ele>
        <time>2024-07-23T12:44:46Z</time>
      </trkpt>
      <trkpt lat="44.59496" lon="1.17387">
        <ele>224.6</ele>
        <time>2024-07-23T12:44:47Z</time>
      </trkpt>
      <trkpt lat="44.59497" lon="1.17386">
        <ele>225</ele>
        <time>2024-07-23T12:44:48Z</time>
      </trkpt>
      <trkpt lat="44.59499" lon="1.17384">
        <ele>225</ele>
        <time>2024-07-23T12:44:49Z</time>
      </trkpt>
      <trkpt lat="44.595" lon="1.17384">
        <ele>225.2</ele>
        <time>2024-07-23T12:44:50Z</time>
      </trkpt>
      <trkpt lat="44.59502" lon="1.17382">
        <ele>225.4</ele>
        <time>2024-07-23T12:44:51Z</time>
      </trkpt>
      <trkpt lat="44.59504" lon="1.17381">
        <ele>225.4</ele>
        <time>2024-07-23T12:44:52Z</time>
      </trkpt>
      <trkpt lat="44.59506" lon="1.1738">
        <ele>225.6</ele>
        <time>2024-07-23T12:44:53Z</time>
      </trkpt>
      <trkpt lat="44.59508" lon="1.17379">
        <ele>225.6</ele>
        <time>2024-07-23T12:44:54Z</time>
      </trkpt>
      <trkpt lat="44.59509" lon="1.17379">
        <ele>225.8</ele>
        <time>2024-07-23T12:44:55Z</time>
      </trkpt>
      <trkpt lat="44.59511" lon="1.17377">
        <ele>225.8</ele>
        <time>2024-07-23T12:44:56Z</time>
      </trkpt>
      <trkpt lat="44.59513" lon="1.17376">
        <ele>226</ele>
        <time>2024-07-23T12:44:57Z</time>
      </trkpt>
      <trkpt lat="44.59515" lon="1.17375">
        <ele>226</ele>
        <time>2024-07-23T12:44:58Z</time>
      </trkpt>
      <trkpt lat="44.59516" lon="1.17375">
        <ele>226.2</ele>
        <time>2024-07-23T12:44:59Z</time>
      </trkpt>
      <trkpt lat="44.59519" lon="1.17374">
        <ele>226.6</ele>
        <time>2024-07-23T12:45:00Z</time>
      </trkpt>
      <trkpt lat="44.5952" lon="1.17373">
        <ele>226.6</ele>
        <time>2024-07-23T12:45:01Z</time>
      </trkpt>
      <trkpt lat="44.59522" lon="1.17373">
        <ele>226.8</ele>
        <time>2024-07-23T12:45:02Z</time>
      </trkpt>
      <trkpt lat="44.59524" lon="1.17372">
        <ele>227</ele>
        <time>2024-07-23T12:45:03Z</time>
      </trkpt>
      <trkpt lat="44.59525" lon="1.17372">
        <ele>227</ele>
        <time>2024-07-23T12:45:04Z</time>
      </trkpt>
      <trkpt lat="44.59527" lon="1.17371">
        <ele>227.2</ele>
        <time>2024-07-23T12:45:05Z</time>
      </trkpt>
      <trkpt lat="44.59529" lon="1.17371">
        <ele>227.4</ele>
        <time>2024-07-23T12:45:06Z</time>
      </trkpt>
      <trkpt lat="44.59531" lon="1.1737">
        <ele>227.6</ele>
        <time>2024-07-23T12:45:07Z</time>
      </trkpt>
      <trkpt lat="44.59532" lon="1.1737">
        <ele>227.6</ele>
        <time>2024-07-23T12:45:08Z</time>
      </trkpt>
      <trkpt lat="44.59535" lon="1.17369">
        <ele>227.8</ele>
        <time>2024-07-23T12:45:09Z</time>
      </trkpt>
      <trkpt lat="44.59537" lon="1.17368">
        <ele>227.8</ele>
        <time>2024-07-23T12:45:10Z</time>
      </trkpt>
      <trkpt lat="44.59539" lon="1.17368">
        <ele>228</ele>
        <time>2024-07-23T12:45:11Z</time>
      </trkpt>
      <trkpt lat="44.59541" lon="1.17367">
        <ele>228.2</ele>
        <time>2024-07-23T12:45:12Z</time>
      </trkpt>
      <trkpt lat="44.59542" lon="1.17367">
        <ele>228.2</ele>
        <time>2024-07-23T12:45:13Z</time>
      </trkpt>
      <trkpt lat="44.59545" lon="1.17366">
        <ele>228.4</ele>
        <time>2024-07-23T12:45:14Z</time>
      </trkpt>
      <trkpt lat="44.59547" lon="1.17366">
        <ele>228.4</ele>
        <time>2024-07-23T12:45:15Z</time>
      </trkpt>
      <trkpt lat="44.59549" lon="1.17365">
        <ele>228.6</ele>
        <time>2024-07-23T12:45:16Z</time>
      </trkpt>
      <trkpt lat="44.59551" lon="1.17364">
        <ele>228.6</ele>
        <time>2024-07-23T12:45:17Z</time>
      </trkpt>
      <trkpt lat="44.59553" lon="1.17363">
        <ele>228.8</ele>
        <time>2024-07-23T12:45:18Z</time>
      </trkpt>
      <trkpt lat="44.59555" lon="1.17362">
        <ele>229</ele>
        <time>2024-07-23T12:45:19Z</time>
      </trkpt>
      <trkpt lat="44.59557" lon="1.17361">
        <ele>229</ele>
        <time>2024-07-23T12:45:20Z</time>
      </trkpt>
      <trkpt lat="44.59558" lon="1.1736">
        <ele>229</ele>
        <time>2024-07-23T12:45:21Z</time>
      </trkpt>
      <trkpt lat="44.5956" lon="1.17358">
        <ele>229</ele>
        <time>2024-07-23T12:45:22Z</time>
      </trkpt>
      <trkpt lat="44.59562" lon="1.17357">
        <ele>229</ele>
        <time>2024-07-23T12:45:23Z</time>
      </trkpt>
      <trkpt lat="44.59564" lon="1.17356">
        <ele>229.2</ele>
        <time>2024-07-23T12:45:24Z</time>
      </trkpt>
      <trkpt lat="44.59566" lon="1.17354">
        <ele>229.2</ele>
        <time>2024-07-23T12:45:25Z</time>
      </trkpt>
      <trkpt lat="44.59568" lon="1.17353">
        <ele>229.4</ele>
        <time>2024-07-23T12:45:26Z</time>
      </trkpt>
      <trkpt lat="44.5957" lon="1.17351">
        <ele>229.4</ele>
        <time>2024-07-23T12:45:27Z</time>
      </trkpt>
      <trkpt lat="44.59571" lon="1.17349">
        <ele>229.4</ele>
        <time>2024-07-23T12:45:28Z</time>
      </trkpt>
      <trkpt lat="44.59573" lon="1.17348">
        <ele>229.8</ele>
        <time>2024-07-23T12:45:29Z</time>
      </trkpt>
      <trkpt lat="44.59575" lon="1.17346">
        <ele>229.8</ele>
        <time>2024-07-23T12:45:30Z</time>
      </trkpt>
      <trkpt lat="44.59576" lon="1.17345">
        <ele>230</ele>
        <time>2024-07-23T12:45:31Z</time>
      </trkpt>
      <trkpt lat="44.59578" lon="1.17343">
        <ele>230.2</ele>
        <time>2024-07-23T12:45:32Z</time>
      </trkpt>
      <trkpt lat="44.5958" lon="1.17341">
        <ele>230.2</ele>
        <time>2024-07-23T12:45:33Z</time>
      </trkpt>
      <trkpt lat="44.59581" lon="1.1734">
        <ele>230.6</ele>
        <time>2024-07-23T12:45:34Z</time>
      </trkpt>
      <trkpt lat="44.59582" lon="1.17338">
        <ele>230.6</ele>
        <time>2024-07-23T12:45:35Z</time>
      </trkpt>
      <trkpt lat="44.59584" lon="1.17336">
        <ele>230.8</ele>
        <time>2024-07-23T12:45:36Z</time>
      </trkpt>
      <trkpt lat="44.59586" lon="1.17334">
        <ele>230.8</ele>
        <time>2024-07-23T12:45:37Z</time>
      </trkpt>
      <trkpt lat="44.59587" lon="1.17332">
        <ele>231</ele>
        <time>2024-07-23T12:45:38Z</time>
      </trkpt>
      <trkpt lat="44.59589" lon="1.17331">
        <ele>231</ele>
        <time>2024-07-23T12:45:39Z</time>
      </trkpt>
      <trkpt lat="44.5959" lon="1.17329">
        <ele>231</ele>
        <time>2024-07-23T12:45:40Z</time>
      </trkpt>
      <trkpt lat="44.59591" lon="1.17327">
        <ele>231.2</ele>
        <time>2024-07-23T12:45:41Z</time>
      </trkpt>
      <trkpt lat="44.59592" lon="1.17325">
        <ele>231.2</ele>
        <time>2024-07-23T12:45:42Z</time>
      </trkpt>
      <trkpt lat="44.59594" lon="1.17324">
        <ele>231.4</ele>
        <time>2024-07-23T12:45:43Z</time>
      </trkpt>
      <trkpt lat="44.59595" lon="1.17322">
        <ele>231.4</ele>
        <time>2024-07-23T12:45:44Z</time>
      </trkpt>
      <trkpt lat="44.59596" lon="1.17321">
        <ele>231.6</ele>
        <time>2024-07-23T12:45:45Z</time>
      </trkpt>
      <trkpt lat="44.59597" lon="1.17319">
        <ele>231.8</ele>
        <time>2024-07-23T12:45:46Z</time>
      </trkpt>
      <trkpt lat="44.59598" lon="1.17318">
        <ele>232</ele>
        <time>2024-07-23T12:45:47Z</time>
      </trkpt>
      <trkpt lat="44.596" lon="1.17317">
        <ele>232</ele>
        <time>2024-07-23T12:45:48Z</time>
      </trkpt>
      <trkpt lat="44.59601" lon="1.17316">
        <ele>232</ele>
        <time>2024-07-23T12:45:49Z</time>
      </trkpt>
      <trkpt lat="44.59602" lon="1.17314">
        <ele>232.2</ele>
        <time>2024-07-23T12:45:50Z</time>
      </trkpt>
      <trkpt lat="44.59603" lon="1.17313">
        <ele>232.4</ele>
        <time>2024-07-23T12:45:51Z</time>
      </trkpt>
      <trkpt lat="44.59604" lon="1.17312">
        <ele>232.6</ele>
        <time>2024-07-23T12:45:52Z</time>
      </trkpt>
      <trkpt lat="44.59606" lon="1.17312">
        <ele>233</ele>
        <time>2024-07-23T12:45:53Z</time>
      </trkpt>
      <trkpt lat="44.59607" lon="1.17311">
        <ele>233</ele>
        <time>2024-07-23T12:45:54Z</time>
      </trkpt>
      <trkpt lat="44.59609" lon="1.1731">
        <ele>233.2</ele>
        <time>2024-07-23T12:45:55Z</time>
      </trkpt>
      <trkpt lat="44.5961" lon="1.17309">
        <ele>233.2</ele>
        <time>2024-07-23T12:45:56Z</time>
      </trkpt>
      <trkpt lat="44.59611" lon="1.17308">
        <ele>233.4</ele>
        <time>2024-07-23T12:45:57Z</time>
      </trkpt>
      <trkpt lat="44.59613" lon="1.17307">
        <ele>233.4</ele>
        <time>2024-07-23T12:45:58Z</time>
      </trkpt>
      <trkpt lat="44.59614" lon="1.17306">
        <ele>233.6</ele>
        <time>2024-07-23T12:45:59Z</time>
      </trkpt>
      <trkpt lat="44.59616" lon="1.17306">
        <ele>233.8</ele>
        <time>2024-07-23T12:46:00Z</time>
      </trkpt>
      <trkpt lat="44.59617" lon="1.17305">
        <ele>233.8</ele>
        <time>2024-07-23T12:46:01Z</time>
      </trkpt>
      <trkpt lat="44.59618" lon="1.17304">
        <ele>234</ele>
        <time>2024-07-23T12:46:02Z</time>
      </trkpt>
      <trkpt lat="44.5962" lon="1.17303">
        <ele>234.4</ele>
        <time>2024-07-23T12:46:03Z</time>
      </trkpt>
      <trkpt lat="44.59622" lon="1.17303">
        <ele>234.4</ele>
        <time>2024-07-23T12:46:04Z</time>
      </trkpt>
      <trkpt lat="44.59623" lon="1.17302">
        <ele>234.6</ele>
        <time>2024-07-23T12:46:05Z</time>
      </trkpt>
      <trkpt lat="44.59624" lon="1.17302">
        <ele>234.8</ele>
        <time>2024-07-23T12:46:06Z</time>
      </trkpt>
      <trkpt lat="44.59626" lon="1.17301">
        <ele>235</ele>
        <time>2024-07-23T12:46:07Z</time>
      </trkpt>
      <trkpt lat="44.59628" lon="1.17301">
        <ele>235</ele>
        <time>2024-07-23T12:46:08Z</time>
      </trkpt>
      <trkpt lat="44.5963" lon="1.173">
        <ele>235.4</ele>
        <time>2024-07-23T12:46:09Z</time>
      </trkpt>
      <trkpt lat="44.59631" lon="1.17299">
        <ele>235.4</ele>
        <time>2024-07-23T12:46:10Z</time>
      </trkpt>
      <trkpt lat="44.59633" lon="1.17299">
        <ele>235.6</ele>
        <time>2024-07-23T12:46:11Z</time>
      </trkpt>
      <trkpt lat="44.59635" lon="1.17298">
        <ele>235.6</ele>
        <time>2024-07-23T12:46:12Z</time>
      </trkpt>
      <trkpt lat="44.59636" lon="1.17297">
        <ele>235.6</ele>
        <time>2024-07-23T12:46:13Z</time>
      </trkpt>
      <trkpt lat="44.59638" lon="1.17296">
        <ele>235.8</ele>
        <time>2024-07-23T12:46:14Z</time>
      </trkpt>
      <trkpt lat="44.59639" lon="1.17296">
        <ele>236</ele>
        <time>2024-07-23T12:46:15Z</time>
      </trkpt>
      <trkpt lat="44.5964" lon="1.17295">
        <ele>236.2</ele>
        <time>2024-07-23T12:46:16Z</time>
      </trkpt>
      <trkpt lat="44.59641" lon="1.17295">
        <ele>236.4</ele>
        <time>2024-07-23T12:46:17Z</time>
      </trkpt>
      <trkpt lat="44.59642" lon="1.17294">
        <ele>236.6</ele>
        <time>2024-07-23T12:46:18Z</time>
      </trkpt>
      <trkpt lat="44.59644" lon="1.17293">
        <ele>237</ele>
        <time>2024-07-23T12:46:19Z</time>
      </trkpt>
      <trkpt lat="44.59645" lon="1.17292">
        <ele>237.2</ele>
        <time>2024-07-23T12:46:20Z</time>
      </trkpt>
      <trkpt lat="44.59647" lon="1.17291">
        <ele>237.4</ele>
        <time>2024-07-23T12:46:21Z</time>
      </trkpt>
      <trkpt lat="44.59648" lon="1.17289">
        <ele>237.6</ele>
        <time>2024-07-23T12:46:22Z</time>
      </trkpt>
      <trkpt lat="44.5965" lon="1.17287">
        <ele>237.6</ele>
        <time>2024-07-23T12:46:23Z</time>
      </trkpt>
      <trkpt lat="44.59651" lon="1.17285">
        <ele>237.6</ele>
        <time>2024-07-23T12:46:24Z</time>
      </trkpt>
      <trkpt lat="44.59652" lon="1.17284">
        <ele>237.6</ele>
        <time>2024-07-23T12:46:25Z</time>
      </trkpt>
      <trkpt lat="44.59653" lon="1.17283">
        <ele>237.8</ele>
        <time>2024-07-23T12:46:26Z</time>
      </trkpt>
      <trkpt lat="44.59654" lon="1.17281">
        <ele>237.8</ele>
        <time>2024-07-23T12:46:27Z</time>
      </trkpt>
      <trkpt lat="44.59656" lon="1.17279">
        <ele>237.8</ele>
        <time>2024-07-23T12:46:28Z</time>
      </trkpt>
      <trkpt lat="44.59656" lon="1.17278">
        <ele>238</ele>
        <time>2024-07-23T12:46:29Z</time>
      </trkpt>
      <trkpt lat="44.59657" lon="1.17276">
        <ele>238</ele>
        <time>2024-07-23T12:46:30Z</time>
      </trkpt>
      <trkpt lat="44.59658" lon="1.17274">
        <ele>238</ele>
        <time>2024-07-23T12:46:31Z</time>
      </trkpt>
      <trkpt lat="44.59659" lon="1.17271">
        <ele>238</ele>
        <time>2024-07-23T12:46:32Z</time>
      </trkpt>
      <trkpt lat="44.59659" lon="1.17269">
        <ele>238.2</ele>
        <time>2024-07-23T12:46:33Z</time>
      </trkpt>
      <trkpt lat="44.59659" lon="1.17267">
        <ele>238.2</ele>
        <time>2024-07-23T12:46:34Z</time>
      </trkpt>
      <trkpt lat="44.59659" lon="1.17265">
        <ele>238.4</ele>
        <time>2024-07-23T12:46:35Z</time>
      </trkpt>
      <trkpt lat="44.5966" lon="1.17262">
        <ele>238.4</ele>
        <time>2024-07-23T12:46:36Z</time>
      </trkpt>
      <trkpt lat="44.5966" lon="1.1726">
        <ele>238.4</ele>
        <time>2024-07-23T12:46:37Z</time>
      </trkpt>
      <trkpt lat="44.5966" lon="1.17257">
        <ele>238.8</ele>
        <time>2024-07-23T12:46:38Z</time>
      </trkpt>
      <trkpt lat="44.5966" lon="1.17256">
        <ele>239</ele>
        <time>2024-07-23T12:46:39Z</time>
      </trkpt>
      <trkpt lat="44.59661" lon="1.17254">
        <ele>239.2</ele>
        <time>2024-07-23T12:46:40Z</time>
      </trkpt>
      <trkpt lat="44.59661" lon="1.17251">
        <ele>239.4</ele>
        <time>2024-07-23T12:46:41Z</time>
      </trkpt>
      <trkpt lat="44.59662" lon="1.17249">
        <ele>239.8</ele>
        <time>2024-07-23T12:46:42Z</time>
      </trkpt>
      <trkpt lat="44.59662" lon="1.17247">
        <ele>240</ele>
        <time>2024-07-23T12:46:43Z</time>
      </trkpt>
      <trkpt lat="44.59662" lon="1.17245">
        <ele>240.2</ele>
        <time>2024-07-23T12:46:44Z</time>
      </trkpt>
      <trkpt lat="44.59662" lon="1.17243">
        <ele>240.4</ele>
        <time>2024-07-23T12:46:45Z</time>
      </trkpt>
      <trkpt lat="44.59662" lon="1.17241">
        <ele>240.6</ele>
        <time>2024-07-23T12:46:46Z</time>
      </trkpt>
      <trkpt lat="44.59662" lon="1.17238">
        <ele>240.6</ele>
        <time>2024-07-23T12:46:47Z</time>
      </trkpt>
      <trkpt lat="44.59662" lon="1.17236">
        <ele>241</ele>
        <time>2024-07-23T12:46:48Z</time>
      </trkpt>
      <trkpt lat="44.59662" lon="1.17234">
        <ele>241.2</ele>
        <time>2024-07-23T12:46:49Z</time>
      </trkpt>
      <trkpt lat="44.59662" lon="1.17232">
        <ele>241.4</ele>
        <time>2024-07-23T12:46:50Z</time>
      </trkpt>
      <trkpt lat="44.59662" lon="1.1723">
        <ele>241.6</ele>
        <time>2024-07-23T12:46:51Z</time>
      </trkpt>
      <trkpt lat="44.59662" lon="1.17228">
        <ele>241.8</ele>
        <time>2024-07-23T12:46:52Z</time>
      </trkpt>
      <trkpt lat="44.59662" lon="1.17226">
        <ele>242</ele>
        <time>2024-07-23T12:46:53Z</time>
      </trkpt>
      <trkpt lat="44.59662" lon="1.17224">
        <ele>242</ele>
        <time>2024-07-23T12:46:54Z</time>
      </trkpt>
      <trkpt lat="44.59662" lon="1.17221">
        <ele>242.2</ele>
        <time>2024-07-23T12:46:55Z</time>
      </trkpt>
      <trkpt lat="44.59662" lon="1.17218">
        <ele>242.2</ele>
        <time>2024-07-23T12:46:56Z</time>
      </trkpt>
      <trkpt lat="44.59663" lon="1.17216">
        <ele>242.4</ele>
        <time>2024-07-23T12:46:57Z</time>
      </trkpt>
      <trkpt lat="44.59663" lon="1.17214">
        <ele>242.4</ele>
        <time>2024-07-23T12:46:58Z</time>
      </trkpt>
      <trkpt lat="44.59664" lon="1.17212">
        <ele>242.6</ele>
        <time>2024-07-23T12:46:59Z</time>
      </trkpt>
      <trkpt lat="44.59665" lon="1.17209">
        <ele>242.8</ele>
        <time>2024-07-23T12:47:00Z</time>
      </trkpt>
      <trkpt lat="44.59666" lon="1.17207">
        <ele>243</ele>
        <time>2024-07-23T12:47:01Z</time>
      </trkpt>
      <trkpt lat="44.59666" lon="1.17205">
        <ele>243.2</ele>
        <time>2024-07-23T12:47:02Z</time>
      </trkpt>
      <trkpt lat="44.59667" lon="1.17203">
        <ele>243.2</ele>
        <time>2024-07-23T12:47:03Z</time>
      </trkpt>
      <trkpt lat="44.59668" lon="1.17201">
        <ele>243.4</ele>
        <time>2024-07-23T12:47:04Z</time>
      </trkpt>
      <trkpt lat="44.59669" lon="1.17198">
        <ele>243.4</ele>
        <time>2024-07-23T12:47:05Z</time>
      </trkpt>
      <trkpt lat="44.59669" lon="1.17196">
        <ele>243.6</ele>
        <time>2024-07-23T12:47:06Z</time>
      </trkpt>
      <trkpt lat="44.5967" lon="1.17194">
        <ele>243.6</ele>
        <time>2024-07-23T12:47:07Z</time>
      </trkpt>
      <trkpt lat="44.59671" lon="1.17192">
        <ele>243.8</ele>
        <time>2024-07-23T12:47:08Z</time>
      </trkpt>
      <trkpt lat="44.59672" lon="1.1719">
        <ele>243.8</ele>
        <time>2024-07-23T12:47:09Z</time>
      </trkpt>
      <trkpt lat="44.59672" lon="1.17188">
        <ele>244</ele>
        <time>2024-07-23T12:47:10Z</time>
      </trkpt>
      <trkpt lat="44.59673" lon="1.17186">
        <ele>244</ele>
        <time>2024-07-23T12:47:11Z</time>
      </trkpt>
      <trkpt lat="44.59674" lon="1.17185">
        <ele>244.2</ele>
        <time>2024-07-23T12:47:12Z</time>
      </trkpt>
      <trkpt lat="44.59675" lon="1.17183">
        <ele>244.2</ele>
        <time>2024-07-23T12:47:13Z</time>
      </trkpt>
      <trkpt lat="44.59676" lon="1.17181">
        <ele>244.4</ele>
        <time>2024-07-23T12:47:14Z</time>
      </trkpt>
      <trkpt lat="44.59677" lon="1.1718">
        <ele>244.6</ele>
        <time>2024-07-23T12:47:15Z</time>
      </trkpt>
      <trkpt lat="44.59678" lon="1.17178">
        <ele>244.6</ele>
        <time>2024-07-23T12:47:16Z</time>
      </trkpt>
      <trkpt lat="44.59678" lon="1.17177">
        <ele>244.8</ele>
        <time>2024-07-23T12:47:17Z</time>
      </trkpt>
      <trkpt lat="44.59679" lon="1.17176">
        <ele>245</ele>
        <time>2024-07-23T12:47:18Z</time>
      </trkpt>
      <trkpt lat="44.5968" lon="1.17174">
        <ele>245.2</ele>
        <time>2024-07-23T12:47:19Z</time>
      </trkpt>
      <trkpt lat="44.59681" lon="1.17173">
        <ele>245.2</ele>
        <time>2024-07-23T12:47:20Z</time>
      </trkpt>
      <trkpt lat="44.59683" lon="1.17171">
        <ele>245.2</ele>
        <time>2024-07-23T12:47:21Z</time>
      </trkpt>
      <trkpt lat="44.59684" lon="1.17169">
        <ele>245.6</ele>
        <time>2024-07-23T12:47:22Z</time>
      </trkpt>
      <trkpt lat="44.59685" lon="1.17167">
        <ele>245.6</ele>
        <time>2024-07-23T12:47:23Z</time>
      </trkpt>
      <trkpt lat="44.59686" lon="1.17165">
        <ele>245.8</ele>
        <time>2024-07-23T12:47:24Z</time>
      </trkpt>
      <trkpt lat="44.59687" lon="1.17163">
        <ele>245.8</ele>
        <time>2024-07-23T12:47:25Z</time>
      </trkpt>
      <trkpt lat="44.59688" lon="1.17162">
        <ele>245.8</ele>
        <time>2024-07-23T12:47:26Z</time>
      </trkpt>
      <trkpt lat="44.59688" lon="1.1716">
        <ele>246</ele>
        <time>2024-07-23T12:47:27Z</time>
      </trkpt>
      <trkpt lat="44.59689" lon="1.17158">
        <ele>246</ele>
        <time>2024-07-23T12:47:28Z</time>
      </trkpt>
      <trkpt lat="44.5969" lon="1.17156">
        <ele>246.2</ele>
        <time>2024-07-23T12:47:29Z</time>
      </trkpt>
      <trkpt lat="44.5969" lon="1.17154">
        <ele>246.2</ele>
        <time>2024-07-23T12:47:30Z</time>
      </trkpt>
      <trkpt lat="44.59691" lon="1.17152">
        <ele>246.4</ele>
        <time>2024-07-23T12:47:31Z</time>
      </trkpt>
      <trkpt lat="44.59691" lon="1.17149">
        <ele>246.6</ele>
        <time>2024-07-23T12:47:32Z</time>
      </trkpt>
      <trkpt lat="44.59691" lon="1.17146">
        <ele>246.8</ele>
        <time>2024-07-23T12:47:33Z</time>
      </trkpt>
      <trkpt lat="44.59691" lon="1.17143">
        <ele>247</ele>
        <time>2024-07-23T12:47:34Z</time>
      </trkpt>
      <trkpt lat="44.59691" lon="1.1714">
        <ele>247</ele>
        <time>2024-07-23T12:47:35Z</time>
      </trkpt>
      <trkpt lat="44.59691" lon="1.17138">
        <ele>247.2</ele>
        <time>2024-07-23T12:47:36Z</time>
      </trkpt>
      <trkpt lat="44.59691" lon="1.17135">
        <ele>247.4</ele>
        <time>2024-07-23T12:47:37Z</time>
      </trkpt>
      <trkpt lat="44.59691" lon="1.17132">
        <ele>247.4</ele>
        <time>2024-07-23T12:47:38Z</time>
      </trkpt>
      <trkpt lat="44.59691" lon="1.17128">
        <ele>247.6</ele>
        <time>2024-07-23T12:47:39Z</time>
      </trkpt>
      <trkpt lat="44.59691" lon="1.17125">
        <ele>247.6</ele>
        <time>2024-07-23T12:47:40Z</time>
      </trkpt>
      <trkpt lat="44.59691" lon="1.17122">
        <ele>247.8</ele>
        <time>2024-07-23T12:47:41Z</time>
      </trkpt>
      <trkpt lat="44.59691" lon="1.17119">
        <ele>247.8</ele>
        <time>2024-07-23T12:47:42Z</time>
      </trkpt>
      <trkpt lat="44.59691" lon="1.17115">
        <ele>247.8</ele>
        <time>2024-07-23T12:47:43Z</time>
      </trkpt>
      <trkpt lat="44.5969" lon="1.17112">
        <ele>248</ele>
        <time>2024-07-23T12:47:44Z</time>
      </trkpt>
      <trkpt lat="44.5969" lon="1.17108">
        <ele>248</ele>
        <time>2024-07-23T12:47:45Z</time>
      </trkpt>
      <trkpt lat="44.5969" lon="1.17105">
        <ele>248</ele>
        <time>2024-07-23T12:47:46Z</time>
      </trkpt>
      <trkpt lat="44.59691" lon="1.17101">
        <ele>248</ele>
        <time>2024-07-23T12:47:47Z</time>
      </trkpt>
      <trkpt lat="44.59691" lon="1.17099">
        <ele>248</ele>
        <time>2024-07-23T12:47:48Z</time>
      </trkpt>
      <trkpt lat="44.59692" lon="1.17096">
        <ele>248</ele>
        <time>2024-07-23T12:47:49Z</time>
      </trkpt>
      <trkpt lat="44.59692" lon="1.17093">
        <ele>248</ele>
        <time>2024-07-23T12:47:50Z</time>
      </trkpt>
      <trkpt lat="44.59693" lon="1.1709">
        <ele>248</ele>
        <time>2024-07-23T12:47:51Z</time>
      </trkpt>
      <trkpt lat="44.59693" lon="1.17087">
        <ele>248</ele>
        <time>2024-07-23T12:47:52Z</time>
      </trkpt>
      <trkpt lat="44.59694" lon="1.17085">
        <ele>248.2</ele>
        <time>2024-07-23T12:47:53Z</time>
      </trkpt>
      <trkpt lat="44.59695" lon="1.17082">
        <ele>248.4</ele>
        <time>2024-07-23T12:47:54Z</time>
      </trkpt>
      <trkpt lat="44.59695" lon="1.1708">
        <ele>248.6</ele>
        <time>2024-07-23T12:47:55Z</time>
      </trkpt>
      <trkpt lat="44.59696" lon="1.17077">
        <ele>248.8</ele>
        <time>2024-07-23T12:47:56Z</time>
      </trkpt>
      <trkpt lat="44.59697" lon="1.17075">
        <ele>249</ele>
        <time>2024-07-23T12:47:57Z</time>
      </trkpt>
      <trkpt lat="44.59698" lon="1.17072">
        <ele>249</ele>
        <time>2024-07-23T12:47:58Z</time>
      </trkpt>
      <trkpt lat="44.59699" lon="1.1707">
        <ele>249</ele>
        <time>2024-07-23T12:47:59Z</time>
      </trkpt>
      <trkpt lat="44.59699" lon="1.17068">
        <ele>249.2</ele>
        <time>2024-07-23T12:48:00Z</time>
      </trkpt>
      <trkpt lat="44.597" lon="1.17064">
        <ele>249.2</ele>
        <time>2024-07-23T12:48:01Z</time>
      </trkpt>
      <trkpt lat="44.59701" lon="1.17062">
        <ele>249.4</ele>
        <time>2024-07-23T12:48:02Z</time>
      </trkpt>
      <trkpt lat="44.59702" lon="1.17057">
        <ele>249.6</ele>
        <time>2024-07-23T12:48:04Z</time>
      </trkpt>
      <trkpt lat="44.59707" lon="1.17046">
        <ele>250.4</ele>
        <time>2024-07-23T12:48:08Z</time>
      </trkpt>
      <trkpt lat="44.59708" lon="1.17042">
        <ele>250.4</ele>
        <time>2024-07-23T12:48:09Z</time>
      </trkpt>
      <trkpt lat="44.59709" lon="1.17038">
        <ele>250.4</ele>
        <time>2024-07-23T12:48:10Z</time>
      </trkpt>
      <trkpt lat="44.59711" lon="1.17034">
        <ele>250.6</ele>
        <time>2024-07-23T12:48:11Z</time>
      </trkpt>
      <trkpt lat="44.59713" lon="1.1703">
        <ele>250.6</ele>
        <time>2024-07-23T12:48:12Z</time>
      </trkpt>
      <trkpt lat="44.59715" lon="1.17025">
        <ele>250.6</ele>
        <time>2024-07-23T12:48:13Z</time>
      </trkpt>
      <trkpt lat="44.59717" lon="1.1702">
        <ele>250.6</ele>
        <time>2024-07-23T12:48:14Z</time>
      </trkpt>
      <trkpt lat="44.59719" lon="1.17015">
        <ele>250.4</ele>
        <time>2024-07-23T12:48:15Z</time>
      </trkpt>
      <trkpt lat="44.59721" lon="1.17009">
        <ele>250.4</ele>
        <time>2024-07-23T12:48:16Z</time>
      </trkpt>
      <trkpt lat="44.59724" lon="1.17003">
        <ele>250.2</ele>
        <time>2024-07-23T12:48:17Z</time>
      </trkpt>
      <trkpt lat="44.59726" lon="1.16996">
        <ele>250</ele>
        <time>2024-07-23T12:48:18Z</time>
      </trkpt>
      <trkpt lat="44.5974" lon="1.1696">
        <ele>249.2</ele>
        <time>2024-07-23T12:48:23Z</time>
      </trkpt>
      <trkpt lat="44.59745" lon="1.16944">
        <ele>248.4</ele>
        <time>2024-07-23T12:48:25Z</time>
      </trkpt>
      <trkpt lat="44.59748" lon="1.16936">
        <ele>248.2</ele>
        <time>2024-07-23T12:48:26Z</time>
      </trkpt>
      <trkpt lat="44.59751" lon="1.16929">
        <ele>247.8</ele>
        <time>2024-07-23T12:48:27Z</time>
      </trkpt>
      <trkpt lat="44.59759" lon="1.16907">
        <ele>247.2</ele>
        <time>2024-07-23T12:48:30Z</time>
      </trkpt>
      <trkpt lat="44.59762" lon="1.16894">
        <ele>247</ele>
        <time>2024-07-23T12:48:32Z</time>
      </trkpt>
      <trkpt lat="44.59763" lon="1.16887">
        <ele>247</ele>
        <time>2024-07-23T12:48:33Z</time>
      </trkpt>
      <trkpt lat="44.59763" lon="1.16881">
        <ele>246.8</ele>
        <time>2024-07-23T12:48:34Z</time>
      </trkpt>
      <trkpt lat="44.59763" lon="1.16876">
        <ele>246.8</ele>
        <time>2024-07-23T12:48:35Z</time>
      </trkpt>
      <trkpt lat="44.59762" lon="1.16871">
        <ele>246.8</ele>
        <time>2024-07-23T12:48:36Z</time>
      </trkpt>
      <trkpt lat="44.59762" lon="1.16867">
        <ele>246.8</ele>
        <time>2024-07-23T12:48:37Z</time>
      </trkpt>
      <trkpt lat="44.59762" lon="1.16862">
        <ele>246.8</ele>
        <time>2024-07-23T12:48:38Z</time>
      </trkpt>
      <trkpt lat="44.59761" lon="1.16859">
        <ele>247</ele>
        <time>2024-07-23T12:48:39Z</time>
      </trkpt>
      <trkpt lat="44.59761" lon="1.16855">
        <ele>247.2</ele>
        <time>2024-07-23T12:48:40Z</time>
      </trkpt>
      <trkpt lat="44.5976" lon="1.16852">
        <ele>247.2</ele>
        <time>2024-07-23T12:48:41Z</time>
      </trkpt>
      <trkpt lat="44.59759" lon="1.16849">
        <ele>247.4</ele>
        <time>2024-07-23T12:48:42Z</time>
      </trkpt>
      <trkpt lat="44.59759" lon="1.16846">
        <ele>247.6</ele>
        <time>2024-07-23T12:48:43Z</time>
      </trkpt>
      <trkpt lat="44.59759" lon="1.16844">
        <ele>247.6</ele>
        <time>2024-07-23T12:48:44Z</time>
      </trkpt>
      <trkpt lat="44.59758" lon="1.16841">
        <ele>247.6</ele>
        <time>2024-07-23T12:48:45Z</time>
      </trkpt>
      <trkpt lat="44.59758" lon="1.16839">
        <ele>247.8</ele>
        <time>2024-07-23T12:48:46Z</time>
      </trkpt>
      <trkpt lat="44.59756" lon="1.16837">
        <ele>247.8</ele>
        <time>2024-07-23T12:48:47Z</time>
      </trkpt>
      <trkpt lat="44.59755" lon="1.16835">
        <ele>248</ele>
        <time>2024-07-23T12:48:48Z</time>
      </trkpt>
      <trkpt lat="44.59755" lon="1.16832">
        <ele>248.2</ele>
        <time>2024-07-23T12:48:49Z</time>
      </trkpt>
      <trkpt lat="44.59755" lon="1.1683">
        <ele>248.4</ele>
        <time>2024-07-23T12:48:50Z</time>
      </trkpt>
      <trkpt lat="44.59754" lon="1.16829">
        <ele>248.6</ele>
        <time>2024-07-23T12:48:51Z</time>
      </trkpt>
      <trkpt lat="44.59754" lon="1.16826">
        <ele>248.6</ele>
        <time>2024-07-23T12:48:52Z</time>
      </trkpt>
      <trkpt lat="44.59753" lon="1.16825">
        <ele>248.8</ele>
        <time>2024-07-23T12:48:53Z</time>
      </trkpt>
      <trkpt lat="44.59753" lon="1.16823">
        <ele>249</ele>
        <time>2024-07-23T12:48:54Z</time>
      </trkpt>
      <trkpt lat="44.59753" lon="1.16821">
        <ele>249</ele>
        <time>2024-07-23T12:48:55Z</time>
      </trkpt>
      <trkpt lat="44.59753" lon="1.1682">
        <ele>249.2</ele>
        <time>2024-07-23T12:48:56Z</time>
      </trkpt>
      <trkpt lat="44.59752" lon="1.16818">
        <ele>249.2</ele>
        <time>2024-07-23T12:48:57Z</time>
      </trkpt>
      <trkpt lat="44.59752" lon="1.16817">
        <ele>249.4</ele>
        <time>2024-07-23T12:48:58Z</time>
      </trkpt>
      <trkpt lat="44.59752" lon="1.16815">
        <ele>249.8</ele>
        <time>2024-07-23T12:48:59Z</time>
      </trkpt>
      <trkpt lat="44.59752" lon="1.16813">
        <ele>249.8</ele>
        <time>2024-07-23T12:49:00Z</time>
      </trkpt>
      <trkpt lat="44.59751" lon="1.16811">
        <ele>250.2</ele>
        <time>2024-07-23T12:49:01Z</time>
      </trkpt>
      <trkpt lat="44.5975" lon="1.16808">
        <ele>250.4</ele>
        <time>2024-07-23T12:49:03Z</time>
      </trkpt>
      <trkpt lat="44.59749" lon="1.16803">
        <ele>250.8</ele>
        <time>2024-07-23T12:49:06Z</time>
      </trkpt>
      <trkpt lat="44.59749" lon="1.16801">
        <ele>251</ele>
        <time>2024-07-23T12:49:07Z</time>
      </trkpt>
      <trkpt lat="44.59749" lon="1.168">
        <ele>251.2</ele>
        <time>2024-07-23T12:49:08Z</time>
      </trkpt>
      <trkpt lat="44.59748" lon="1.16798">
        <ele>251.4</ele>
        <time>2024-07-23T12:49:09Z</time>
      </trkpt>
      <trkpt lat="44.59748" lon="1.16797">
        <ele>251.6</ele>
        <time>2024-07-23T12:49:10Z</time>
      </trkpt>
      <trkpt lat="44.59747" lon="1.16795">
        <ele>252.2</ele>
        <time>2024-07-23T12:49:11Z</time>
      </trkpt>
      <trkpt lat="44.59747" lon="1.16793">
        <ele>252.4</ele>
        <time>2024-07-23T12:49:12Z</time>
      </trkpt>
      <trkpt lat="44.59747" lon="1.16792">
        <ele>252.6</ele>
        <time>2024-07-23T12:49:13Z</time>
      </trkpt>
      <trkpt lat="44.59746" lon="1.16791">
        <ele>252.8</ele>
        <time>2024-07-23T12:49:14Z</time>
      </trkpt>
      <trkpt lat="44.59745" lon="1.16789">
        <ele>253</ele>
        <time>2024-07-23T12:49:15Z</time>
      </trkpt>
      <trkpt lat="44.59745" lon="1.16788">
        <ele>253.2</ele>
        <time>2024-07-23T12:49:16Z</time>
      </trkpt>
      <trkpt lat="44.59744" lon="1.16787">
        <ele>253.4</ele>
        <time>2024-07-23T12:49:17Z</time>
      </trkpt>
      <trkpt lat="44.59744" lon="1.16785">
        <ele>253.8</ele>
        <time>2024-07-23T12:49:18Z</time>
      </trkpt>
      <trkpt lat="44.59743" lon="1.16784">
        <ele>253.8</ele>
        <time>2024-07-23T12:49:19Z</time>
      </trkpt>
      <trkpt lat="44.59743" lon="1.16783">
        <ele>254</ele>
        <time>2024-07-23T12:49:20Z</time>
      </trkpt>
      <trkpt lat="44.59743" lon="1.16782">
        <ele>254.2</ele>
        <time>2024-07-23T12:49:21Z</time>
      </trkpt>
      <trkpt lat="44.59742" lon="1.1678">
        <ele>254.4</ele>
        <time>2024-07-23T12:49:22Z</time>
      </trkpt>
      <trkpt lat="44.59741" lon="1.16779">
        <ele>254.8</ele>
        <time>2024-07-23T12:49:23Z</time>
      </trkpt>
      <trkpt lat="44.59741" lon="1.16777">
        <ele>254.8</ele>
        <time>2024-07-23T12:49:24Z</time>
      </trkpt>
      <trkpt lat="44.5974" lon="1.16776">
        <ele>255</ele>
        <time>2024-07-23T12:49:25Z</time>
      </trkpt>
      <trkpt lat="44.5974" lon="1.16775">
        <ele>255</ele>
        <time>2024-07-23T12:49:26Z</time>
      </trkpt>
      <trkpt lat="44.5974" lon="1.16774">
        <ele>255.4</ele>
        <time>2024-07-23T12:49:27Z</time>
      </trkpt>
      <trkpt lat="44.59739" lon="1.16772">
        <ele>255.6</ele>
        <time>2024-07-23T12:49:28Z</time>
      </trkpt>
      <trkpt lat="44.59739" lon="1.16771">
        <ele>255.8</ele>
        <time>2024-07-23T12:49:29Z</time>
      </trkpt>
      <trkpt lat="44.59739" lon="1.1677">
        <ele>256</ele>
        <time>2024-07-23T12:49:30Z</time>
      </trkpt>
      <trkpt lat="44.59739" lon="1.16768">
        <ele>256.2</ele>
        <time>2024-07-23T12:49:31Z</time>
      </trkpt>
      <trkpt lat="44.59738" lon="1.16767">
        <ele>256.4</ele>
        <time>2024-07-23T12:49:32Z</time>
      </trkpt>
      <trkpt lat="44.59738" lon="1.16765">
        <ele>256.6</ele>
        <time>2024-07-23T12:49:33Z</time>
      </trkpt>
      <trkpt lat="44.59737" lon="1.16764">
        <ele>256.8</ele>
        <time>2024-07-23T12:49:34Z</time>
      </trkpt>
      <trkpt lat="44.59737" lon="1.16763">
        <ele>257</ele>
        <time>2024-07-23T12:49:35Z</time>
      </trkpt>
      <trkpt lat="44.59736" lon="1.16761">
        <ele>257.2</ele>
        <time>2024-07-23T12:49:36Z</time>
      </trkpt>
      <trkpt lat="44.59736" lon="1.1676">
        <ele>257.2</ele>
        <time>2024-07-23T12:49:37Z</time>
      </trkpt>
      <trkpt lat="44.59735" lon="1.16758">
        <ele>257.4</ele>
        <time>2024-07-23T12:49:38Z</time>
      </trkpt>
      <trkpt lat="44.59735" lon="1.16757">
        <ele>257.6</ele>
        <time>2024-07-23T12:49:39Z</time>
      </trkpt>
      <trkpt lat="44.59735" lon="1.16755">
        <ele>257.6</ele>
        <time>2024-07-23T12:49:40Z</time>
      </trkpt>
      <trkpt lat="44.59734" lon="1.16754">
        <ele>257.6</ele>
        <time>2024-07-23T12:49:41Z</time>
      </trkpt>
      <trkpt lat="44.59734" lon="1.16752">
        <ele>257.8</ele>
        <time>2024-07-23T12:49:42Z</time>
      </trkpt>
      <trkpt lat="44.59734" lon="1.1675">
        <ele>257.8</ele>
        <time>2024-07-23T12:49:43Z</time>
      </trkpt>
      <trkpt lat="44.59733" lon="1.16749">
        <ele>258</ele>
        <time>2024-07-23T12:49:44Z</time>
      </trkpt>
      <trkpt lat="44.59733" lon="1.16747">
        <ele>258.2</ele>
        <time>2024-07-23T12:49:45Z</time>
      </trkpt>
      <trkpt lat="44.59733" lon="1.16746">
        <ele>258.2</ele>
        <time>2024-07-23T12:49:46Z</time>
      </trkpt>
      <trkpt lat="44.59733" lon="1.16744">
        <ele>258.4</ele>
        <time>2024-07-23T12:49:47Z</time>
      </trkpt>
      <trkpt lat="44.59733" lon="1.16742">
        <ele>258.4</ele>
        <time>2024-07-23T12:49:48Z</time>
      </trkpt>
      <trkpt lat="44.59732" lon="1.16741">
        <ele>258.6</ele>
        <time>2024-07-23T12:49:49Z</time>
      </trkpt>
      <trkpt lat="44.59732" lon="1.16739">
        <ele>258.6</ele>
        <time>2024-07-23T12:49:50Z</time>
      </trkpt>
      <trkpt lat="44.59732" lon="1.16738">
        <ele>258.8</ele>
        <time>2024-07-23T12:49:51Z</time>
      </trkpt>
      <trkpt lat="44.59732" lon="1.16736">
        <ele>258.8</ele>
        <time>2024-07-23T12:49:52Z</time>
      </trkpt>
      <trkpt lat="44.59731" lon="1.16734">
        <ele>258.8</ele>
        <time>2024-07-23T12:49:53Z</time>
      </trkpt>
      <trkpt lat="44.59731" lon="1.16733">
        <ele>259</ele>
        <time>2024-07-23T12:49:54Z</time>
      </trkpt>
      <trkpt lat="44.5973" lon="1.16731">
        <ele>259</ele>
        <time>2024-07-23T12:49:55Z</time>
      </trkpt>
      <trkpt lat="44.5973" lon="1.16729">
        <ele>259.2</ele>
        <time>2024-07-23T12:49:56Z</time>
      </trkpt>
      <trkpt lat="44.5973" lon="1.16727">
        <ele>259.2</ele>
        <time>2024-07-23T12:49:57Z</time>
      </trkpt>
      <trkpt lat="44.5973" lon="1.16726">
        <ele>259.4</ele>
        <time>2024-07-23T12:49:58Z</time>
      </trkpt>
      <trkpt lat="44.5973" lon="1.16724">
        <ele>259.6</ele>
        <time>2024-07-23T12:49:59Z</time>
      </trkpt>
      <trkpt lat="44.59729" lon="1.16723">
        <ele>259.6</ele>
        <time>2024-07-23T12:50:00Z</time>
      </trkpt>
      <trkpt lat="44.59729" lon="1.16721">
        <ele>259.8</ele>
        <time>2024-07-23T12:50:01Z</time>
      </trkpt>
      <trkpt lat="44.59729" lon="1.16719">
        <ele>260</ele>
        <time>2024-07-23T12:50:02Z</time>
      </trkpt>
      <trkpt lat="44.59729" lon="1.16718">
        <ele>260</ele>
        <time>2024-07-23T12:50:03Z</time>
      </trkpt>
      <trkpt lat="44.59728" lon="1.16716">
        <ele>260.2</ele>
        <time>2024-07-23T12:50:04Z</time>
      </trkpt>
      <trkpt lat="44.59727" lon="1.16714">
        <ele>260.2</ele>
        <time>2024-07-23T12:50:05Z</time>
      </trkpt>
      <trkpt lat="44.59727" lon="1.16712">
        <ele>260.2</ele>
        <time>2024-07-23T12:50:06Z</time>
      </trkpt>
      <trkpt lat="44.59727" lon="1.16711">
        <ele>260.4</ele>
        <time>2024-07-23T12:50:07Z</time>
      </trkpt>
      <trkpt lat="44.59727" lon="1.16709">
        <ele>260.4</ele>
        <time>2024-07-23T12:50:08Z</time>
      </trkpt>
      <trkpt lat="44.59727" lon="1.16707">
        <ele>260.4</ele>
        <time>2024-07-23T12:50:09Z</time>
      </trkpt>
      <trkpt lat="44.59726" lon="1.16705">
        <ele>260.6</ele>
        <time>2024-07-23T12:50:10Z</time>
      </trkpt>
      <trkpt lat="44.59726" lon="1.16704">
        <ele>260.6</ele>
        <time>2024-07-23T12:50:11Z</time>
      </trkpt>
      <trkpt lat="44.59726" lon="1.16702">
        <ele>260.8</ele>
        <time>2024-07-23T12:50:12Z</time>
      </trkpt>
      <trkpt lat="44.59726" lon="1.16701">
        <ele>261</ele>
        <time>2024-07-23T12:50:13Z</time>
      </trkpt>
      <trkpt lat="44.59725" lon="1.16698">
        <ele>261.2</ele>
        <time>2024-07-23T12:50:14Z</time>
      </trkpt>
      <trkpt lat="44.59725" lon="1.16697">
        <ele>261.2</ele>
        <time>2024-07-23T12:50:15Z</time>
      </trkpt>
      <trkpt lat="44.59725" lon="1.16695">
        <ele>261.4</ele>
        <time>2024-07-23T12:50:16Z</time>
      </trkpt>
      <trkpt lat="44.59724" lon="1.16693">
        <ele>261.6</ele>
        <time>2024-07-23T12:50:17Z</time>
      </trkpt>
      <trkpt lat="44.59724" lon="1.16691">
        <ele>261.6</ele>
        <time>2024-07-23T12:50:18Z</time>
      </trkpt>
      <trkpt lat="44.59724" lon="1.16689">
        <ele>261.6</ele>
        <time>2024-07-23T12:50:19Z</time>
      </trkpt>
      <trkpt lat="44.59723" lon="1.16687">
        <ele>261.8</ele>
        <time>2024-07-23T12:50:20Z</time>
      </trkpt>
      <trkpt lat="44.59723" lon="1.16686">
        <ele>261.8</ele>
        <time>2024-07-23T12:50:21Z</time>
      </trkpt>
      <trkpt lat="44.59723" lon="1.16684">
        <ele>261.8</ele>
        <time>2024-07-23T12:50:22Z</time>
      </trkpt>
      <trkpt lat="44.59723" lon="1.16681">
        <ele>262</ele>
        <time>2024-07-23T12:50:23Z</time>
      </trkpt>
      <trkpt lat="44.59723" lon="1.1668">
        <ele>262</ele>
        <time>2024-07-23T12:50:24Z</time>
      </trkpt>
      <trkpt lat="44.59723" lon="1.16678">
        <ele>262.4</ele>
        <time>2024-07-23T12:50:25Z</time>
      </trkpt>
      <trkpt lat="44.59722" lon="1.16676">
        <ele>262.6</ele>
        <time>2024-07-23T12:50:26Z</time>
      </trkpt>
      <trkpt lat="44.59722" lon="1.16674">
        <ele>262.6</ele>
        <time>2024-07-23T12:50:27Z</time>
      </trkpt>
      <trkpt lat="44.59722" lon="1.16672">
        <ele>263</ele>
        <time>2024-07-23T12:50:28Z</time>
      </trkpt>
      <trkpt lat="44.59722" lon="1.1667">
        <ele>263</ele>
        <time>2024-07-23T12:50:29Z</time>
      </trkpt>
      <trkpt lat="44.59722" lon="1.16669">
        <ele>263.2</ele>
        <time>2024-07-23T12:50:30Z</time>
      </trkpt>
      <trkpt lat="44.59722" lon="1.16667">
        <ele>263.4</ele>
        <time>2024-07-23T12:50:31Z</time>
      </trkpt>
      <trkpt lat="44.59722" lon="1.16666">
        <ele>263.4</ele>
        <time>2024-07-23T12:50:32Z</time>
      </trkpt>
      <trkpt lat="44.59722" lon="1.16664">
        <ele>263.6</ele>
        <time>2024-07-23T12:50:33Z</time>
      </trkpt>
      <trkpt lat="44.59722" lon="1.16663">
        <ele>263.6</ele>
        <time>2024-07-23T12:50:34Z</time>
      </trkpt>
      <trkpt lat="44.59722" lon="1.16662">
        <ele>263.8</ele>
        <time>2024-07-23T12:50:35Z</time>
      </trkpt>
      <trkpt lat="44.59722" lon="1.1666">
        <ele>263.8</ele>
        <time>2024-07-23T12:50:36Z</time>
      </trkpt>
      <trkpt lat="44.59722" lon="1.16658">
        <ele>264</ele>
        <time>2024-07-23T12:50:37Z</time>
      </trkpt>
      <trkpt lat="44.59722" lon="1.16657">
        <ele>264.2</ele>
        <time>2024-07-23T12:50:38Z</time>
      </trkpt>
      <trkpt lat="44.59721" lon="1.16655">
        <ele>264.4</ele>
        <time>2024-07-23T12:50:39Z</time>
      </trkpt>
      <trkpt lat="44.59721" lon="1.16653">
        <ele>264.6</ele>
        <time>2024-07-23T12:50:40Z</time>
      </trkpt>
      <trkpt lat="44.59721" lon="1.16651">
        <ele>264.8</ele>
        <time>2024-07-23T12:50:41Z</time>
      </trkpt>
      <trkpt lat="44.59721" lon="1.16649">
        <ele>265</ele>
        <time>2024-07-23T12:50:42Z</time>
      </trkpt>
      <trkpt lat="44.59721" lon="1.16647">
        <ele>265.2</ele>
        <time>2024-07-23T12:50:43Z</time>
      </trkpt>
      <trkpt lat="44.5972" lon="1.16645">
        <ele>265.2</ele>
        <time>2024-07-23T12:50:44Z</time>
      </trkpt>
      <trkpt lat="44.5972" lon="1.16643">
        <ele>265.4</ele>
        <time>2024-07-23T12:50:45Z</time>
      </trkpt>
      <trkpt lat="44.5972" lon="1.16641">
        <ele>265.4</ele>
        <time>2024-07-23T12:50:46Z</time>
      </trkpt>
      <trkpt lat="44.5972" lon="1.1664">
        <ele>265.6</ele>
        <time>2024-07-23T12:50:47Z</time>
      </trkpt>
      <trkpt lat="44.5972" lon="1.16639">
        <ele>266</ele>
        <time>2024-07-23T12:50:48Z</time>
      </trkpt>
      <trkpt lat="44.5972" lon="1.16637">
        <ele>266</ele>
        <time>2024-07-23T12:50:49Z</time>
      </trkpt>
      <trkpt lat="44.59721" lon="1.16636">
        <ele>266.2</ele>
        <time>2024-07-23T12:50:50Z</time>
      </trkpt>
      <trkpt lat="44.59721" lon="1.16636">
        <ele>266.2</ele>
        <time>2024-07-23T12:50:51Z</time>
      </trkpt>
      <trkpt lat="44.59721" lon="1.16636">
        <ele>266.4</ele>
        <time>2024-07-23T12:50:52Z</time>
      </trkpt>
      <trkpt lat="44.59721" lon="1.16634">
        <ele>266.6</ele>
        <time>2024-07-23T12:50:53Z</time>
      </trkpt>
      <trkpt lat="44.59721" lon="1.16633">
        <ele>266.6</ele>
        <time>2024-07-23T12:50:54Z</time>
      </trkpt>
      <trkpt lat="44.59721" lon="1.16631">
        <ele>266.8</ele>
        <time>2024-07-23T12:50:55Z</time>
      </trkpt>
      <trkpt lat="44.5972" lon="1.16629">
        <ele>266.8</ele>
        <time>2024-07-23T12:50:56Z</time>
      </trkpt>
      <trkpt lat="44.59719" lon="1.16627">
        <ele>267</ele>
        <time>2024-07-23T12:50:57Z</time>
      </trkpt>
      <trkpt lat="44.59718" lon="1.16625">
        <ele>267</ele>
        <time>2024-07-23T12:50:58Z</time>
      </trkpt>
      <trkpt lat="44.59717" lon="1.16623">
        <ele>267.2</ele>
        <time>2024-07-23T12:50:59Z</time>
      </trkpt>
      <trkpt lat="44.59717" lon="1.16621">
        <ele>267.2</ele>
        <time>2024-07-23T12:51:00Z</time>
      </trkpt>
      <trkpt lat="44.59716" lon="1.16619">
        <ele>267.4</ele>
        <time>2024-07-23T12:51:01Z</time>
      </trkpt>
      <trkpt lat="44.59716" lon="1.16618">
        <ele>267.6</ele>
        <time>2024-07-23T12:51:02Z</time>
      </trkpt>
      <trkpt lat="44.59715" lon="1.16616">
        <ele>267.6</ele>
        <time>2024-07-23T12:51:03Z</time>
      </trkpt>
      <trkpt lat="44.59714" lon="1.16613">
        <ele>267.8</ele>
        <time>2024-07-23T12:51:04Z</time>
      </trkpt>
      <trkpt lat="44.59713" lon="1.16611">
        <ele>268</ele>
        <time>2024-07-23T12:51:05Z</time>
      </trkpt>
      <trkpt lat="44.59713" lon="1.16609">
        <ele>268</ele>
        <time>2024-07-23T12:51:06Z</time>
      </trkpt>
      <trkpt lat="44.59712" lon="1.16607">
        <ele>268.2</ele>
        <time>2024-07-23T12:51:07Z</time>
      </trkpt>
      <trkpt lat="44.59712" lon="1.16604">
        <ele>268.4</ele>
        <time>2024-07-23T12:51:08Z</time>
      </trkpt>
      <trkpt lat="44.59711" lon="1.16602">
        <ele>268.6</ele>
        <time>2024-07-23T12:51:09Z</time>
      </trkpt>
      <trkpt lat="44.5971" lon="1.166">
        <ele>268.6</ele>
        <time>2024-07-23T12:51:10Z</time>
      </trkpt>
      <trkpt lat="44.59709" lon="1.16598">
        <ele>268.8</ele>
        <time>2024-07-23T12:51:11Z</time>
      </trkpt>
      <trkpt lat="44.59709" lon="1.16596">
        <ele>269</ele>
        <time>2024-07-23T12:51:12Z</time>
      </trkpt>
      <trkpt lat="44.59707" lon="1.16592">
        <ele>269.2</ele>
        <time>2024-07-23T12:51:13Z</time>
      </trkpt>
      <trkpt lat="44.59707" lon="1.16589">
        <ele>269.4</ele>
        <time>2024-07-23T12:51:14Z</time>
      </trkpt>
      <trkpt lat="44.59706" lon="1.16588">
        <ele>269.6</ele>
        <time>2024-07-23T12:51:15Z</time>
      </trkpt>
      <trkpt lat="44.59706" lon="1.16586">
        <ele>269.6</ele>
        <time>2024-07-23T12:51:16Z</time>
      </trkpt>
      <trkpt lat="44.59706" lon="1.16584">
        <ele>269.8</ele>
        <time>2024-07-23T12:51:17Z</time>
      </trkpt>
      <trkpt lat="44.59705" lon="1.16583">
        <ele>269.8</ele>
        <time>2024-07-23T12:51:18Z</time>
      </trkpt>
      <trkpt lat="44.59705" lon="1.1658">
        <ele>269.8</ele>
        <time>2024-07-23T12:51:19Z</time>
      </trkpt>
      <trkpt lat="44.59704" lon="1.16578">
        <ele>269.8</ele>
        <time>2024-07-23T12:51:20Z</time>
      </trkpt>
      <trkpt lat="44.59703" lon="1.16575">
        <ele>269.8</ele>
        <time>2024-07-23T12:51:21Z</time>
      </trkpt>
      <trkpt lat="44.59703" lon="1.16573">
        <ele>269.8</ele>
        <time>2024-07-23T12:51:22Z</time>
      </trkpt>
      <trkpt lat="44.59702" lon="1.1657">
        <ele>269.8</ele>
        <time>2024-07-23T12:51:23Z</time>
      </trkpt>
      <trkpt lat="44.59701" lon="1.16568">
        <ele>269.8</ele>
        <time>2024-07-23T12:51:24Z</time>
      </trkpt>
      <trkpt lat="44.597" lon="1.16564">
        <ele>269.8</ele>
        <time>2024-07-23T12:51:25Z</time>
      </trkpt>
      <trkpt lat="44.59699" lon="1.16561">
        <ele>270</ele>
        <time>2024-07-23T12:51:26Z</time>
      </trkpt>
      <trkpt lat="44.59699" lon="1.16559">
        <ele>270</ele>
        <time>2024-07-23T12:51:27Z</time>
      </trkpt>
      <trkpt lat="44.59699" lon="1.16557">
        <ele>270.2</ele>
        <time>2024-07-23T12:51:28Z</time>
      </trkpt>
      <trkpt lat="44.59699" lon="1.16555">
        <ele>270.2</ele>
        <time>2024-07-23T12:51:29Z</time>
      </trkpt>
      <trkpt lat="44.59698" lon="1.16553">
        <ele>270.2</ele>
        <time>2024-07-23T12:51:30Z</time>
      </trkpt>
      <trkpt lat="44.59697" lon="1.16549">
        <ele>270.4</ele>
        <time>2024-07-23T12:51:31Z</time>
      </trkpt>
      <trkpt lat="44.59696" lon="1.16546">
        <ele>270.4</ele>
        <time>2024-07-23T12:51:32Z</time>
      </trkpt>
      <trkpt lat="44.59695" lon="1.16542">
        <ele>270.4</ele>
        <time>2024-07-23T12:51:33Z</time>
      </trkpt>
      <trkpt lat="44.59697" lon="1.16532">
        <ele>270.6</ele>
        <time>2024-07-23T12:51:36Z</time>
      </trkpt>
      <trkpt lat="44.59697" lon="1.1653">
        <ele>270.6</ele>
        <time>2024-07-23T12:51:37Z</time>
      </trkpt>
      <trkpt lat="44.59696" lon="1.1652">
        <ele>271</ele>
        <time>2024-07-23T12:51:41Z</time>
      </trkpt>
      <trkpt lat="44.59696" lon="1.16517">
        <ele>271</ele>
        <time>2024-07-23T12:51:42Z</time>
      </trkpt>
      <trkpt lat="44.59696" lon="1.16515">
        <ele>271.2</ele>
        <time>2024-07-23T12:51:43Z</time>
      </trkpt>
      <trkpt lat="44.59695" lon="1.16513">
        <ele>271.2</ele>
        <time>2024-07-23T12:51:44Z</time>
      </trkpt>
      <trkpt lat="44.59693" lon="1.165">
        <ele>271.4</ele>
        <time>2024-07-23T12:51:48Z</time>
      </trkpt>
      <trkpt lat="44.59691" lon="1.16475">
        <ele>271.8</ele>
        <time>2024-07-23T12:51:56Z</time>
      </trkpt>
      <trkpt lat="44.59692" lon="1.16472">
        <ele>272</ele>
        <time>2024-07-23T12:51:57Z</time>
      </trkpt>
      <trkpt lat="44.5969" lon="1.16458">
        <ele>272.4</ele>
        <time>2024-07-23T12:52:02Z</time>
      </trkpt>
      <trkpt lat="44.59689" lon="1.16455">
        <ele>272.4</ele>
        <time>2024-07-23T12:52:03Z</time>
      </trkpt>
      <trkpt lat="44.59688" lon="1.16453">
        <ele>272.4</ele>
        <time>2024-07-23T12:52:04Z</time>
      </trkpt>
      <trkpt lat="44.59688" lon="1.16449">
        <ele>272.6</ele>
        <time>2024-07-23T12:52:05Z</time>
      </trkpt>
      <trkpt lat="44.59687" lon="1.16447">
        <ele>272.6</ele>
        <time>2024-07-23T12:52:06Z</time>
      </trkpt>
      <trkpt lat="44.59687" lon="1.16444">
        <ele>272.8</ele>
        <time>2024-07-23T12:52:07Z</time>
      </trkpt>
      <trkpt lat="44.59686" lon="1.16441">
        <ele>273</ele>
        <time>2024-07-23T12:52:08Z</time>
      </trkpt>
      <trkpt lat="44.59685" lon="1.16438">
        <ele>273.2</ele>
        <time>2024-07-23T12:52:09Z</time>
      </trkpt>
      <trkpt lat="44.59685" lon="1.16436">
        <ele>273.4</ele>
        <time>2024-07-23T12:52:10Z</time>
      </trkpt>
      <trkpt lat="44.59684" lon="1.16434">
        <ele>273.4</ele>
        <time>2024-07-23T12:52:11Z</time>
      </trkpt>
      <trkpt lat="44.59683" lon="1.16431">
        <ele>273.6</ele>
        <time>2024-07-23T12:52:12Z</time>
      </trkpt>
      <trkpt lat="44.59682" lon="1.16427">
        <ele>274</ele>
        <time>2024-07-23T12:52:14Z</time>
      </trkpt>
      <trkpt lat="44.59681" lon="1.16424">
        <ele>274.2</ele>
        <time>2024-07-23T12:52:15Z</time>
      </trkpt>
      <trkpt lat="44.59679" lon="1.16417">
        <ele>274.6</ele>
        <time>2024-07-23T12:52:18Z</time>
      </trkpt>
      <trkpt lat="44.59679" lon="1.16415">
        <ele>274.8</ele>
        <time>2024-07-23T12:52:19Z</time>
      </trkpt>
      <trkpt lat="44.59678" lon="1.16412">
        <ele>275</ele>
        <time>2024-07-23T12:52:20Z</time>
      </trkpt>
      <trkpt lat="44.59677" lon="1.16409">
        <ele>275.2</ele>
        <time>2024-07-23T12:52:21Z</time>
      </trkpt>
      <trkpt lat="44.59676" lon="1.16407">
        <ele>275.2</ele>
        <time>2024-07-23T12:52:22Z</time>
      </trkpt>
      <trkpt lat="44.59676" lon="1.16405">
        <ele>275.4</ele>
        <time>2024-07-23T12:52:23Z</time>
      </trkpt>
      <trkpt lat="44.59675" lon="1.16402">
        <ele>275.4</ele>
        <time>2024-07-23T12:52:24Z</time>
      </trkpt>
      <trkpt lat="44.59674" lon="1.164">
        <ele>275.4</ele>
        <time>2024-07-23T12:52:25Z</time>
      </trkpt>
      <trkpt lat="44.59673" lon="1.16397">
        <ele>275.4</ele>
        <time>2024-07-23T12:52:26Z</time>
      </trkpt>
      <trkpt lat="44.59672" lon="1.16395">
        <ele>275.6</ele>
        <time>2024-07-23T12:52:27Z</time>
      </trkpt>
      <trkpt lat="44.5967" lon="1.16392">
        <ele>275.6</ele>
        <time>2024-07-23T12:52:28Z</time>
      </trkpt>
      <trkpt lat="44.59669" lon="1.16389">
        <ele>275.8</ele>
        <time>2024-07-23T12:52:29Z</time>
      </trkpt>
      <trkpt lat="44.59667" lon="1.16386">
        <ele>275.8</ele>
        <time>2024-07-23T12:52:30Z</time>
      </trkpt>
      <trkpt lat="44.59665" lon="1.16384">
        <ele>275.8</ele>
        <time>2024-07-23T12:52:31Z</time>
      </trkpt>
      <trkpt lat="44.59663" lon="1.16381">
        <ele>276</ele>
        <time>2024-07-23T12:52:32Z</time>
      </trkpt>
      <trkpt lat="44.59661" lon="1.16377">
        <ele>276</ele>
        <time>2024-07-23T12:52:33Z</time>
      </trkpt>
      <trkpt lat="44.59659" lon="1.16374">
        <ele>276</ele>
        <time>2024-07-23T12:52:34Z</time>
      </trkpt>
      <trkpt lat="44.59656" lon="1.16371">
        <ele>276</ele>
        <time>2024-07-23T12:52:35Z</time>
      </trkpt>
      <trkpt lat="44.59655" lon="1.16369">
        <ele>276</ele>
        <time>2024-07-23T12:52:36Z</time>
      </trkpt>
      <trkpt lat="44.59653" lon="1.16366">
        <ele>276</ele>
        <time>2024-07-23T12:52:37Z</time>
      </trkpt>
      <trkpt lat="44.59651" lon="1.16363">
        <ele>276</ele>
        <time>2024-07-23T12:52:38Z</time>
      </trkpt>
      <trkpt lat="44.5965" lon="1.1636">
        <ele>276</ele>
        <time>2024-07-23T12:52:39Z</time>
      </trkpt>
      <trkpt lat="44.59641" lon="1.16343">
        <ele>276.2</ele>
        <time>2024-07-23T12:52:44Z</time>
      </trkpt>
      <trkpt lat="44.59626" lon="1.16303">
        <ele>276</ele>
        <time>2024-07-23T12:52:55Z</time>
      </trkpt>
      <trkpt lat="44.59611" lon="1.1626">
        <ele>276.2</ele>
        <time>2024-07-23T12:53:05Z</time>
      </trkpt>
      <trkpt lat="44.59602" lon="1.16231">
        <ele>275.6</ele>
        <time>2024-07-23T12:53:10Z</time>
      </trkpt>
      <trkpt lat="44.59592" lon="1.16204">
        <ele>274</ele>
        <time>2024-07-23T12:53:14Z</time>
      </trkpt>
      <trkpt lat="44.59586" lon="1.16191">
        <ele>273.2</ele>
        <time>2024-07-23T12:53:16Z</time>
      </trkpt>
      <trkpt lat="44.59583" lon="1.16185">
        <ele>272.8</ele>
        <time>2024-07-23T12:53:17Z</time>
      </trkpt>
      <trkpt lat="44.59576" lon="1.16165">
        <ele>271.8</ele>
        <time>2024-07-23T12:53:20Z</time>
      </trkpt>
      <trkpt lat="44.59574" lon="1.16161">
        <ele>271.6</ele>
        <time>2024-07-23T12:53:21Z</time>
      </trkpt>
      <trkpt lat="44.59572" lon="1.16156">
        <ele>271.4</ele>
        <time>2024-07-23T12:53:22Z</time>
      </trkpt>
      <trkpt lat="44.5957" lon="1.16152">
        <ele>271.4</ele>
        <time>2024-07-23T12:53:23Z</time>
      </trkpt>
      <trkpt lat="44.59568" lon="1.16149">
        <ele>271.2</ele>
        <time>2024-07-23T12:53:24Z</time>
      </trkpt>
      <trkpt lat="44.59566" lon="1.16146">
        <ele>271</ele>
        <time>2024-07-23T12:53:25Z</time>
      </trkpt>
      <trkpt lat="44.59564" lon="1.16145">
        <ele>271</ele>
        <time>2024-07-23T12:53:26Z</time>
      </trkpt>
      <trkpt lat="44.59562" lon="1.16143">
        <ele>270.8</ele>
        <time>2024-07-23T12:53:27Z</time>
      </trkpt>
      <trkpt lat="44.5956" lon="1.16142">
        <ele>270.6</ele>
        <time>2024-07-23T12:53:28Z</time>
      </trkpt>
      <trkpt lat="44.59557" lon="1.16141">
        <ele>269.8</ele>
        <time>2024-07-23T12:53:30Z</time>
      </trkpt>
      <trkpt lat="44.59556" lon="1.1614">
        <ele>269.8</ele>
        <time>2024-07-23T12:53:31Z</time>
      </trkpt>
      <trkpt lat="44.59555" lon="1.16139">
        <ele>269.6</ele>
        <time>2024-07-23T12:53:32Z</time>
      </trkpt>
      <trkpt lat="44.59555" lon="1.16138">
        <ele>269.4</ele>
        <time>2024-07-23T12:53:33Z</time>
      </trkpt>
      <trkpt lat="44.59554" lon="1.16138">
        <ele>269.4</ele>
        <time>2024-07-23T12:53:34Z</time>
      </trkpt>
      <trkpt lat="44.59554" lon="1.16138">
        <ele>269.4</ele>
        <time>2024-07-23T12:53:35Z</time>
      </trkpt>
      <trkpt lat="44.5955" lon="1.16138">
        <ele>269</ele>
        <time>2024-07-23T13:02:40Z</time>
      </trkpt>
      <trkpt lat="44.59544" lon="1.16137">
        <ele>268.8</ele>
        <time>2024-07-23T13:02:42Z</time>
      </trkpt>
      <trkpt lat="44.59528" lon="1.16133">
        <ele>268.8</ele>
        <time>2024-07-23T13:02:46Z</time>
      </trkpt>
      <trkpt lat="44.59499" lon="1.1613">
        <ele>267.8</ele>
        <time>2024-07-23T13:02:52Z</time>
      </trkpt>
      <trkpt lat="44.59494" lon="1.16129">
        <ele>267.6</ele>
        <time>2024-07-23T13:02:53Z</time>
      </trkpt>
      <trkpt lat="44.5948" lon="1.16126">
        <ele>267.2</ele>
        <time>2024-07-23T13:02:55Z</time>
      </trkpt>
      <trkpt lat="44.59465" lon="1.16123">
        <ele>266.8</ele>
        <time>2024-07-23T13:02:57Z</time>
      </trkpt>
      <trkpt lat="44.5945" lon="1.16119">
        <ele>266.4</ele>
        <time>2024-07-23T13:02:59Z</time>
      </trkpt>
      <trkpt lat="44.59435" lon="1.16117">
        <ele>265.8</ele>
        <time>2024-07-23T13:03:01Z</time>
      </trkpt>
      <trkpt lat="44.59422" lon="1.16116">
        <ele>265.4</ele>
        <time>2024-07-23T13:03:03Z</time>
      </trkpt>
      <trkpt lat="44.59377" lon="1.16112">
        <ele>264.6</ele>
        <time>2024-07-23T13:03:10Z</time>
      </trkpt>
      <trkpt lat="44.5937" lon="1.16111">
        <ele>264.2</ele>
        <time>2024-07-23T13:03:11Z</time>
      </trkpt>
      <trkpt lat="44.59333" lon="1.16105">
        <ele>263.2</ele>
        <time>2024-07-23T13:03:16Z</time>
      </trkpt>
      <trkpt lat="44.59318" lon="1.16103">
        <ele>261.6</ele>
        <time>2024-07-23T13:03:18Z</time>
      </trkpt>
      <trkpt lat="44.59293" lon="1.16101">
        <ele>260.4</ele>
        <time>2024-07-23T13:03:21Z</time>
      </trkpt>
      <trkpt lat="44.59285" lon="1.16101">
        <ele>260.2</ele>
        <time>2024-07-23T13:03:22Z</time>
      </trkpt>
      <trkpt lat="44.59259" lon="1.161">
        <ele>259.6</ele>
        <time>2024-07-23T13:03:25Z</time>
      </trkpt>
      <trkpt lat="44.59251" lon="1.161">
        <ele>259.2</ele>
        <time>2024-07-23T13:03:26Z</time>
      </trkpt>
      <trkpt lat="44.59233" lon="1.16101">
        <ele>259</ele>
        <time>2024-07-23T13:03:28Z</time>
      </trkpt>
      <trkpt lat="44.59225" lon="1.16103">
        <ele>259</ele>
        <time>2024-07-23T13:03:29Z</time>
      </trkpt>
      <trkpt lat="44.59216" lon="1.16104">
        <ele>258.6</ele>
        <time>2024-07-23T13:03:30Z</time>
      </trkpt>
      <trkpt lat="44.59183" lon="1.16107">
        <ele>257.4</ele>
        <time>2024-07-23T13:03:34Z</time>
      </trkpt>
      <trkpt lat="44.59167" lon="1.16109">
        <ele>256.6</ele>
        <time>2024-07-23T13:03:36Z</time>
      </trkpt>
      <trkpt lat="44.5916" lon="1.1611">
        <ele>256.4</ele>
        <time>2024-07-23T13:03:37Z</time>
      </trkpt>
      <trkpt lat="44.59152" lon="1.1611">
        <ele>256.2</ele>
        <time>2024-07-23T13:03:38Z</time>
      </trkpt>
      <trkpt lat="44.59145" lon="1.16109">
        <ele>256</ele>
        <time>2024-07-23T13:03:39Z</time>
      </trkpt>
      <trkpt lat="44.5914" lon="1.16108">
        <ele>256</ele>
        <time>2024-07-23T13:03:40Z</time>
      </trkpt>
      <trkpt lat="44.59136" lon="1.16107">
        <ele>255.8</ele>
        <time>2024-07-23T13:03:41Z</time>
      </trkpt>
      <trkpt lat="44.59134" lon="1.16106">
        <ele>255.6</ele>
        <time>2024-07-23T13:03:42Z</time>
      </trkpt>
      <trkpt lat="44.59133" lon="1.16106">
        <ele>255.4</ele>
        <time>2024-07-23T13:03:43Z</time>
      </trkpt>
      <trkpt lat="44.59133" lon="1.16107">
        <ele>255</ele>
        <time>2024-07-23T13:03:44Z</time>
      </trkpt>
      <trkpt lat="44.59133" lon="1.16108">
        <ele>255</ele>
        <time>2024-07-23T13:03:45Z</time>
      </trkpt>
      <trkpt lat="44.59134" lon="1.16108">
        <ele>254.8</ele>
        <time>2024-07-23T13:03:46Z</time>
      </trkpt>
      <trkpt lat="44.59135" lon="1.16109">
        <ele>254.6</ele>
        <time>2024-07-23T13:03:47Z</time>
      </trkpt>
      <trkpt lat="44.59136" lon="1.16109">
        <ele>254.4</ele>
        <time>2024-07-23T13:03:48Z</time>
      </trkpt>
      <trkpt lat="44.5914" lon="1.16111">
        <ele>254.2</ele>
        <time>2024-07-23T13:03:50Z</time>
      </trkpt>
      <trkpt lat="44.59148" lon="1.16116">
        <ele>254.2</ele>
        <time>2024-07-23T13:03:53Z</time>
      </trkpt>
      <trkpt lat="44.59148" lon="1.16119">
        <ele>254</ele>
        <time>2024-07-23T13:03:54Z</time>
      </trkpt>
      <trkpt lat="44.59147" lon="1.16121">
        <ele>254</ele>
        <time>2024-07-23T13:03:55Z</time>
      </trkpt>
      <trkpt lat="44.59142" lon="1.16126">
        <ele>253.8</ele>
        <time>2024-07-23T13:03:57Z</time>
      </trkpt>
      <trkpt lat="44.59139" lon="1.16128">
        <ele>253.8</ele>
        <time>2024-07-23T13:03:58Z</time>
      </trkpt>
      <trkpt lat="44.59136" lon="1.1613">
        <ele>253.8</ele>
        <time>2024-07-23T13:03:59Z</time>
      </trkpt>
      <trkpt lat="44.59132" lon="1.16132">
        <ele>253.6</ele>
        <time>2024-07-23T13:04:00Z</time>
      </trkpt>
      <trkpt lat="44.59125" lon="1.16137">
        <ele>253.6</ele>
        <time>2024-07-23T13:04:02Z</time>
      </trkpt>
      <trkpt lat="44.59113" lon="1.16148">
        <ele>253.4</ele>
        <time>2024-07-23T13:04:05Z</time>
      </trkpt>
      <trkpt lat="44.59104" lon="1.1615">
        <ele>253.4</ele>
        <time>2024-07-23T13:04:07Z</time>
      </trkpt>
      <trkpt lat="44.59098" lon="1.16152">
        <ele>253.2</ele>
        <time>2024-07-23T13:04:08Z</time>
      </trkpt>
      <trkpt lat="44.59093" lon="1.16153">
        <ele>253</ele>
        <time>2024-07-23T13:04:09Z</time>
      </trkpt>
      <trkpt lat="44.59083" lon="1.16157">
        <ele>252.6</ele>
        <time>2024-07-23T13:04:11Z</time>
      </trkpt>
      <trkpt lat="44.59078" lon="1.1616">
        <ele>252</ele>
        <time>2024-07-23T13:04:12Z</time>
      </trkpt>
      <trkpt lat="44.59073" lon="1.16164">
        <ele>251.4</ele>
        <time>2024-07-23T13:04:13Z</time>
      </trkpt>
      <trkpt lat="44.59057" lon="1.16175">
        <ele>249.8</ele>
        <time>2024-07-23T13:04:16Z</time>
      </trkpt>
      <trkpt lat="44.59046" lon="1.16179">
        <ele>248.8</ele>
        <time>2024-07-23T13:04:18Z</time>
      </trkpt>
      <trkpt lat="44.59028" lon="1.16183">
        <ele>247.6</ele>
        <time>2024-07-23T13:04:21Z</time>
      </trkpt>
      <trkpt lat="44.5901" lon="1.1619">
        <ele>246.6</ele>
        <time>2024-07-23T13:04:24Z</time>
      </trkpt>
      <trkpt lat="44.5899" lon="1.16197">
        <ele>245</ele>
        <time>2024-07-23T13:04:27Z</time>
      </trkpt>
      <trkpt lat="44.58972" lon="1.16205">
        <ele>243.6</ele>
        <time>2024-07-23T13:04:30Z</time>
      </trkpt>
      <trkpt lat="44.58966" lon="1.16208">
        <ele>243.6</ele>
        <time>2024-07-23T13:04:31Z</time>
      </trkpt>
      <trkpt lat="44.58949" lon="1.16212">
        <ele>243</ele>
        <time>2024-07-23T13:04:34Z</time>
      </trkpt>
      <trkpt lat="44.58943" lon="1.16212">
        <ele>242.8</ele>
        <time>2024-07-23T13:04:35Z</time>
      </trkpt>
      <trkpt lat="44.58938" lon="1.16212">
        <ele>242.8</ele>
        <time>2024-07-23T13:04:36Z</time>
      </trkpt>
      <trkpt lat="44.58933" lon="1.16213">
        <ele>242.6</ele>
        <time>2024-07-23T13:04:37Z</time>
      </trkpt>
      <trkpt lat="44.58929" lon="1.16215">
        <ele>242.4</ele>
        <time>2024-07-23T13:04:38Z</time>
      </trkpt>
      <trkpt lat="44.58924" lon="1.16216">
        <ele>242.2</ele>
        <time>2024-07-23T13:04:39Z</time>
      </trkpt>
      <trkpt lat="44.5892" lon="1.16218">
        <ele>242.2</ele>
        <time>2024-07-23T13:04:40Z</time>
      </trkpt>
      <trkpt lat="44.58916" lon="1.1622">
        <ele>242</ele>
        <time>2024-07-23T13:04:41Z</time>
      </trkpt>
      <trkpt lat="44.58912" lon="1.16222">
        <ele>241.8</ele>
        <time>2024-07-23T13:04:42Z</time>
      </trkpt>
      <trkpt lat="44.58908" lon="1.16224">
        <ele>241.8</ele>
        <time>2024-07-23T13:04:43Z</time>
      </trkpt>
      <trkpt lat="44.58904" lon="1.16227">
        <ele>241.8</ele>
        <time>2024-07-23T13:04:44Z</time>
      </trkpt>
      <trkpt lat="44.58889" lon="1.16239">
        <ele>241.8</ele>
        <time>2024-07-23T13:04:48Z</time>
      </trkpt>
      <trkpt lat="44.58885" lon="1.16242">
        <ele>241.8</ele>
        <time>2024-07-23T13:04:49Z</time>
      </trkpt>
      <trkpt lat="44.58874" lon="1.16253">
        <ele>241.8</ele>
        <time>2024-07-23T13:04:52Z</time>
      </trkpt>
      <trkpt lat="44.58867" lon="1.16261">
        <ele>241.6</ele>
        <time>2024-07-23T13:04:54Z</time>
      </trkpt>
      <trkpt lat="44.58859" lon="1.16271">
        <ele>241.6</ele>
        <time>2024-07-23T13:04:56Z</time>
      </trkpt>
      <trkpt lat="44.58849" lon="1.16286">
        <ele>241</ele>
        <time>2024-07-23T13:04:59Z</time>
      </trkpt>
      <trkpt lat="44.58846" lon="1.16291">
        <ele>240.8</ele>
        <time>2024-07-23T13:05:00Z</time>
      </trkpt>
      <trkpt lat="44.58842" lon="1.16297">
        <ele>240.6</ele>
        <time>2024-07-23T13:05:01Z</time>
      </trkpt>
      <trkpt lat="44.58838" lon="1.16303">
        <ele>240.4</ele>
        <time>2024-07-23T13:05:02Z</time>
      </trkpt>
      <trkpt lat="44.58829" lon="1.16313">
        <ele>239.8</ele>
        <time>2024-07-23T13:05:04Z</time>
      </trkpt>
      <trkpt lat="44.5882" lon="1.16324">
        <ele>239.4</ele>
        <time>2024-07-23T13:05:06Z</time>
      </trkpt>
      <trkpt lat="44.58816" lon="1.16329">
        <ele>239.2</ele>
        <time>2024-07-23T13:05:07Z</time>
      </trkpt>
      <trkpt lat="44.58796" lon="1.16345">
        <ele>238.6</ele>
        <time>2024-07-23T13:05:11Z</time>
      </trkpt>
      <trkpt lat="44.58791" lon="1.16349">
        <ele>238.2</ele>
        <time>2024-07-23T13:05:12Z</time>
      </trkpt>
      <trkpt lat="44.58775" lon="1.16361">
        <ele>237</ele>
        <time>2024-07-23T13:05:15Z</time>
      </trkpt>
      <trkpt lat="44.58749" lon="1.16382">
        <ele>236</ele>
        <time>2024-07-23T13:05:20Z</time>
      </trkpt>
      <trkpt lat="44.5874" lon="1.16387">
        <ele>235.6</ele>
        <time>2024-07-23T13:05:22Z</time>
      </trkpt>
      <trkpt lat="44.58736" lon="1.1639">
        <ele>235.4</ele>
        <time>2024-07-23T13:05:23Z</time>
      </trkpt>
      <trkpt lat="44.58731" lon="1.16392">
        <ele>235.2</ele>
        <time>2024-07-23T13:05:24Z</time>
      </trkpt>
      <trkpt lat="44.58726" lon="1.16396">
        <ele>235</ele>
        <time>2024-07-23T13:05:25Z</time>
      </trkpt>
      <trkpt lat="44.58722" lon="1.16397">
        <ele>234.8</ele>
        <time>2024-07-23T13:05:26Z</time>
      </trkpt>
      <trkpt lat="44.58711" lon="1.16399">
        <ele>234</ele>
        <time>2024-07-23T13:05:28Z</time>
      </trkpt>
      <trkpt lat="44.58706" lon="1.16399">
        <ele>233.8</ele>
        <time>2024-07-23T13:05:29Z</time>
      </trkpt>
      <trkpt lat="44.58701" lon="1.16397">
        <ele>233.6</ele>
        <time>2024-07-23T13:05:30Z</time>
      </trkpt>
      <trkpt lat="44.58695" lon="1.16393">
        <ele>233.4</ele>
        <time>2024-07-23T13:05:31Z</time>
      </trkpt>
      <trkpt lat="44.58689" lon="1.16389">
        <ele>233</ele>
        <time>2024-07-23T13:05:32Z</time>
      </trkpt>
      <trkpt lat="44.58684" lon="1.16384">
        <ele>232.8</ele>
        <time>2024-07-23T13:05:33Z</time>
      </trkpt>
      <trkpt lat="44.58678" lon="1.16379">
        <ele>232.2</ele>
        <time>2024-07-23T13:05:34Z</time>
      </trkpt>
      <trkpt lat="44.58666" lon="1.16368">
        <ele>231.6</ele>
        <time>2024-07-23T13:05:36Z</time>
      </trkpt>
      <trkpt lat="44.5864" lon="1.16349">
        <ele>230.4</ele>
        <time>2024-07-23T13:05:40Z</time>
      </trkpt>
      <trkpt lat="44.58634" lon="1.16344">
        <ele>230</ele>
        <time>2024-07-23T13:05:41Z</time>
      </trkpt>
      <trkpt lat="44.58618" lon="1.16326">
        <ele>229</ele>
        <time>2024-07-23T13:05:44Z</time>
      </trkpt>
      <trkpt lat="44.58603" lon="1.16311">
        <ele>228.4</ele>
        <time>2024-07-23T13:05:47Z</time>
      </trkpt>
      <trkpt lat="44.58599" lon="1.16308">
        <ele>228.4</ele>
        <time>2024-07-23T13:05:48Z</time>
      </trkpt>
      <trkpt lat="44.58594" lon="1.16306">
        <ele>228.2</ele>
        <time>2024-07-23T13:05:49Z</time>
      </trkpt>
      <trkpt lat="44.5859" lon="1.16304">
        <ele>228</ele>
        <time>2024-07-23T13:05:50Z</time>
      </trkpt>
      <trkpt lat="44.58585" lon="1.16303">
        <ele>227.6</ele>
        <time>2024-07-23T13:05:51Z</time>
      </trkpt>
      <trkpt lat="44.58581" lon="1.16302">
        <ele>227.4</ele>
        <time>2024-07-23T13:05:52Z</time>
      </trkpt>
      <trkpt lat="44.58576" lon="1.16301">
        <ele>227.4</ele>
        <time>2024-07-23T13:05:53Z</time>
      </trkpt>
      <trkpt lat="44.58571" lon="1.163">
        <ele>227</ele>
        <time>2024-07-23T13:05:54Z</time>
      </trkpt>
      <trkpt lat="44.58547" lon="1.16299">
        <ele>225.8</ele>
        <time>2024-07-23T13:05:58Z</time>
      </trkpt>
      <trkpt lat="44.58541" lon="1.16299">
        <ele>225.4</ele>
        <time>2024-07-23T13:05:59Z</time>
      </trkpt>
      <trkpt lat="44.58528" lon="1.163">
        <ele>224.6</ele>
        <time>2024-07-23T13:06:01Z</time>
      </trkpt>
      <trkpt lat="44.58522" lon="1.16301">
        <ele>224.4</ele>
        <time>2024-07-23T13:06:02Z</time>
      </trkpt>
      <trkpt lat="44.58517" lon="1.16303">
        <ele>224</ele>
        <time>2024-07-23T13:06:03Z</time>
      </trkpt>
      <trkpt lat="44.58511" lon="1.16305">
        <ele>223.4</ele>
        <time>2024-07-23T13:06:04Z</time>
      </trkpt>
      <trkpt lat="44.58506" lon="1.16307">
        <ele>223</ele>
        <time>2024-07-23T13:06:05Z</time>
      </trkpt>
      <trkpt lat="44.58492" lon="1.16313">
        <ele>222</ele>
        <time>2024-07-23T13:06:08Z</time>
      </trkpt>
      <trkpt lat="44.58489" lon="1.16315">
        <ele>221.8</ele>
        <time>2024-07-23T13:06:09Z</time>
      </trkpt>
      <trkpt lat="44.58486" lon="1.16316">
        <ele>221</ele>
        <time>2024-07-23T13:06:10Z</time>
      </trkpt>
      <trkpt lat="44.58485" lon="1.16317">
        <ele>220</ele>
        <time>2024-07-23T13:06:11Z</time>
      </trkpt>
      <trkpt lat="44.58484" lon="1.16317">
        <ele>219.4</ele>
        <time>2024-07-23T13:06:12Z</time>
      </trkpt>
      <trkpt lat="44.58483" lon="1.16318">
        <ele>218.4</ele>
        <time>2024-07-23T13:06:13Z</time>
      </trkpt>
      <trkpt lat="44.58482" lon="1.16318">
        <ele>218</ele>
        <time>2024-07-23T13:06:14Z</time>
      </trkpt>
      <trkpt lat="44.58481" lon="1.16319">
        <ele>217</ele>
        <time>2024-07-23T13:06:15Z</time>
      </trkpt>
      <trkpt lat="44.58481" lon="1.16319">
        <ele>216.2</ele>
        <time>2024-07-23T13:06:16Z</time>
      </trkpt>
      <trkpt lat="44.58481" lon="1.16319">
        <ele>215.8</ele>
        <time>2024-07-23T13:06:17Z</time>
      </trkpt>
      <trkpt lat="44.58481" lon="1.16319">
        <ele>215.4</ele>
        <time>2024-07-23T13:06:18Z</time>
      </trkpt>
      <trkpt lat="44.58478" lon="1.1632">
        <ele>213.4</ele>
        <time>2024-07-23T13:06:44Z</time>
      </trkpt>
      <trkpt lat="44.58476" lon="1.1632">
        <ele>213.2</ele>
        <time>2024-07-23T13:06:45Z</time>
      </trkpt>
      <trkpt lat="44.58469" lon="1.16322">
        <ele>213.2</ele>
        <time>2024-07-23T13:06:48Z</time>
      </trkpt>
      <trkpt lat="44.5846" lon="1.16318">
        <ele>212.6</ele>
        <time>2024-07-23T13:06:51Z</time>
      </trkpt>
      <trkpt lat="44.58458" lon="1.16316">
        <ele>212</ele>
        <time>2024-07-23T13:06:52Z</time>
      </trkpt>
      <trkpt lat="44.58456" lon="1.16314">
        <ele>211.6</ele>
        <time>2024-07-23T13:06:53Z</time>
      </trkpt>
      <trkpt lat="44.58455" lon="1.16313">
        <ele>211.2</ele>
        <time>2024-07-23T13:06:54Z</time>
      </trkpt>
      <trkpt lat="44.58453" lon="1.16311">
        <ele>211</ele>
        <time>2024-07-23T13:06:55Z</time>
      </trkpt>
      <trkpt lat="44.5845" lon="1.1631">
        <ele>210.6</ele>
        <time>2024-07-23T13:06:56Z</time>
      </trkpt>
      <trkpt lat="44.58439" lon="1.16306">
        <ele>209.4</ele>
        <time>2024-07-23T13:06:59Z</time>
      </trkpt>
      <trkpt lat="44.58434" lon="1.16305">
        <ele>209.2</ele>
        <time>2024-07-23T13:07:00Z</time>
      </trkpt>
      <trkpt lat="44.58412" lon="1.16305">
        <ele>208.2</ele>
        <time>2024-07-23T13:07:04Z</time>
      </trkpt>
      <trkpt lat="44.58406" lon="1.16305">
        <ele>208.2</ele>
        <time>2024-07-23T13:07:05Z</time>
      </trkpt>
      <trkpt lat="44.5839" lon="1.16303">
        <ele>207.4</ele>
        <time>2024-07-23T13:07:08Z</time>
      </trkpt>
      <trkpt lat="44.58384" lon="1.16303">
        <ele>207.2</ele>
        <time>2024-07-23T13:07:09Z</time>
      </trkpt>
      <trkpt lat="44.58372" lon="1.16304">
        <ele>206.4</ele>
        <time>2024-07-23T13:07:11Z</time>
      </trkpt>
      <trkpt lat="44.58361" lon="1.16303">
        <ele>206</ele>
        <time>2024-07-23T13:07:13Z</time>
      </trkpt>
      <trkpt lat="44.58345" lon="1.16302">
        <ele>205</ele>
        <time>2024-07-23T13:07:16Z</time>
      </trkpt>
      <trkpt lat="44.58335" lon="1.16302">
        <ele>204.4</ele>
        <time>2024-07-23T13:07:18Z</time>
      </trkpt>
      <trkpt lat="44.58331" lon="1.16302">
        <ele>204.4</ele>
        <time>2024-07-23T13:07:19Z</time>
      </trkpt>
      <trkpt lat="44.58326" lon="1.16301">
        <ele>204</ele>
        <time>2024-07-23T13:07:20Z</time>
      </trkpt>
      <trkpt lat="44.58322" lon="1.16301">
        <ele>203.8</ele>
        <time>2024-07-23T13:07:21Z</time>
      </trkpt>
      <trkpt lat="44.58318" lon="1.163">
        <ele>203.4</ele>
        <time>2024-07-23T13:07:22Z</time>
      </trkpt>
      <trkpt lat="44.58315" lon="1.163">
        <ele>203.2</ele>
        <time>2024-07-23T13:07:23Z</time>
      </trkpt>
      <trkpt lat="44.58311" lon="1.163">
        <ele>203</ele>
        <time>2024-07-23T13:07:24Z</time>
      </trkpt>
      <trkpt lat="44.58307" lon="1.163">
        <ele>202.6</ele>
        <time>2024-07-23T13:07:25Z</time>
      </trkpt>
      <trkpt lat="44.58303" lon="1.163">
        <ele>202.6</ele>
        <time>2024-07-23T13:07:26Z</time>
      </trkpt>
      <trkpt lat="44.5828" lon="1.16311">
        <ele>202.4</ele>
        <time>2024-07-23T13:07:32Z</time>
      </trkpt>
      <trkpt lat="44.5827" lon="1.16323">
        <ele>202.4</ele>
        <time>2024-07-23T13:07:35Z</time>
      </trkpt>
      <trkpt lat="44.58262" lon="1.16338">
        <ele>202.4</ele>
        <time>2024-07-23T13:07:38Z</time>
      </trkpt>
      <trkpt lat="44.58252" lon="1.16362">
        <ele>202.4</ele>
        <time>2024-07-23T13:07:43Z</time>
      </trkpt>
      <trkpt lat="44.5825" lon="1.16367">
        <ele>202.2</ele>
        <time>2024-07-23T13:07:44Z</time>
      </trkpt>
      <trkpt lat="44.58248" lon="1.16372">
        <ele>202.2</ele>
        <time>2024-07-23T13:07:45Z</time>
      </trkpt>
      <trkpt lat="44.58246" lon="1.16376">
        <ele>202.2</ele>
        <time>2024-07-23T13:07:46Z</time>
      </trkpt>
      <trkpt lat="44.58245" lon="1.16381">
        <ele>202</ele>
        <time>2024-07-23T13:07:47Z</time>
      </trkpt>
      <trkpt lat="44.58243" lon="1.16386">
        <ele>202</ele>
        <time>2024-07-23T13:07:48Z</time>
      </trkpt>
      <trkpt lat="44.58241" lon="1.1639">
        <ele>202</ele>
        <time>2024-07-23T13:07:49Z</time>
      </trkpt>
      <trkpt lat="44.5824" lon="1.16395">
        <ele>202</ele>
        <time>2024-07-23T13:07:50Z</time>
      </trkpt>
      <trkpt lat="44.58239" lon="1.16399">
        <ele>202</ele>
        <time>2024-07-23T13:07:51Z</time>
      </trkpt>
      <trkpt lat="44.58238" lon="1.16403">
        <ele>202</ele>
        <time>2024-07-23T13:07:52Z</time>
      </trkpt>
      <trkpt lat="44.58237" lon="1.16407">
        <ele>202</ele>
        <time>2024-07-23T13:07:53Z</time>
      </trkpt>
      <trkpt lat="44.58237" lon="1.16411">
        <ele>202</ele>
        <time>2024-07-23T13:07:54Z</time>
      </trkpt>
      <trkpt lat="44.58236" lon="1.16414">
        <ele>202</ele>
        <time>2024-07-23T13:07:55Z</time>
      </trkpt>
      <trkpt lat="44.58236" lon="1.16418">
        <ele>202</ele>
        <time>2024-07-23T13:07:56Z</time>
      </trkpt>
      <trkpt lat="44.58235" lon="1.16421">
        <ele>202</ele>
        <time>2024-07-23T13:07:57Z</time>
      </trkpt>
      <trkpt lat="44.58235" lon="1.16424">
        <ele>202</ele>
        <time>2024-07-23T13:07:58Z</time>
      </trkpt>
      <trkpt lat="44.58235" lon="1.16427">
        <ele>202</ele>
        <time>2024-07-23T13:07:59Z</time>
      </trkpt>
      <trkpt lat="44.58235" lon="1.16429">
        <ele>202</ele>
        <time>2024-07-23T13:08:00Z</time>
      </trkpt>
      <trkpt lat="44.58235" lon="1.16432">
        <ele>201.8</ele>
        <time>2024-07-23T13:08:01Z</time>
      </trkpt>
      <trkpt lat="44.58234" lon="1.16434">
        <ele>201.8</ele>
        <time>2024-07-23T13:08:02Z</time>
      </trkpt>
      <trkpt lat="44.58234" lon="1.16436">
        <ele>201.8</ele>
        <time>2024-07-23T13:08:03Z</time>
      </trkpt>
      <trkpt lat="44.58234" lon="1.16438">
        <ele>201.8</ele>
        <time>2024-07-23T13:08:04Z</time>
      </trkpt>
      <trkpt lat="44.58233" lon="1.16442">
        <ele>201.8</ele>
        <time>2024-07-23T13:08:06Z</time>
      </trkpt>
      <trkpt lat="44.58232" lon="1.16443">
        <ele>201.8</ele>
        <time>2024-07-23T13:08:07Z</time>
      </trkpt>
      <trkpt lat="44.5823" lon="1.16444">
        <ele>201.8</ele>
        <time>2024-07-23T13:08:08Z</time>
      </trkpt>
      <trkpt lat="44.58229" lon="1.16445">
        <ele>201.8</ele>
        <time>2024-07-23T13:08:09Z</time>
      </trkpt>
      <trkpt lat="44.58227" lon="1.16446">
        <ele>201.8</ele>
        <time>2024-07-23T13:08:10Z</time>
      </trkpt>
      <trkpt lat="44.58225" lon="1.16445">
        <ele>201.8</ele>
        <time>2024-07-23T13:08:11Z</time>
      </trkpt>
      <trkpt lat="44.58223" lon="1.16444">
        <ele>201.8</ele>
        <time>2024-07-23T13:08:12Z</time>
      </trkpt>
      <trkpt lat="44.5822" lon="1.16444">
        <ele>201.8</ele>
        <time>2024-07-23T13:08:13Z</time>
      </trkpt>
      <trkpt lat="44.58219" lon="1.16443">
        <ele>201.8</ele>
        <time>2024-07-23T13:08:14Z</time>
      </trkpt>
      <trkpt lat="44.58216" lon="1.16443">
        <ele>201.8</ele>
        <time>2024-07-23T13:08:15Z</time>
      </trkpt>
      <trkpt lat="44.58214" lon="1.16442">
        <ele>201.8</ele>
        <time>2024-07-23T13:08:16Z</time>
      </trkpt>
      <trkpt lat="44.5821" lon="1.16439">
        <ele>201.4</ele>
        <time>2024-07-23T13:08:18Z</time>
      </trkpt>
      <trkpt lat="44.58206" lon="1.16437">
        <ele>201.2</ele>
        <time>2024-07-23T13:08:21Z</time>
      </trkpt>
      <trkpt lat="44.58206" lon="1.16437">
        <ele>201.2</ele>
        <time>2024-07-23T13:08:22Z</time>
      </trkpt>
      <trkpt lat="44.58205" lon="1.16436">
        <ele>201.2</ele>
        <time>2024-07-23T13:08:23Z</time>
      </trkpt>
      <trkpt lat="44.58205" lon="1.16435">
        <ele>201</ele>
        <time>2024-07-23T13:08:24Z</time>
      </trkpt>
      <trkpt lat="44.58205" lon="1.16435">
        <ele>201</ele>
        <time>2024-07-23T13:08:25Z</time>
      </trkpt>
      <trkpt lat="44.58205" lon="1.16433">
        <ele>202.6</ele>
        <time>2024-07-23T13:10:29Z</time>
      </trkpt>
      <trkpt lat="44.58205" lon="1.16431">
        <ele>202.6</ele>
        <time>2024-07-23T13:10:30Z</time>
      </trkpt>
      <trkpt lat="44.58205" lon="1.16427">
        <ele>202.6</ele>
        <time>2024-07-23T13:10:31Z</time>
      </trkpt>
      <trkpt lat="44.58206" lon="1.16422">
        <ele>202.6</ele>
        <time>2024-07-23T13:10:32Z</time>
      </trkpt>
      <trkpt lat="44.58207" lon="1.16415">
        <ele>202.6</ele>
        <time>2024-07-23T13:10:33Z</time>
      </trkpt>
      <trkpt lat="44.58208" lon="1.16409">
        <ele>202.6</ele>
        <time>2024-07-23T13:10:34Z</time>
      </trkpt>
      <trkpt lat="44.58209" lon="1.16401">
        <ele>202.4</ele>
        <time>2024-07-23T13:10:35Z</time>
      </trkpt>
      <trkpt lat="44.5821" lon="1.16394">
        <ele>202</ele>
        <time>2024-07-23T13:10:36Z</time>
      </trkpt>
      <trkpt lat="44.58212" lon="1.1638">
        <ele>201.4</ele>
        <time>2024-07-23T13:10:38Z</time>
      </trkpt>
      <trkpt lat="44.58211" lon="1.16376">
        <ele>201.2</ele>
        <time>2024-07-23T13:10:39Z</time>
      </trkpt>
      <trkpt lat="44.58208" lon="1.16373">
        <ele>201.2</ele>
        <time>2024-07-23T13:10:40Z</time>
      </trkpt>
      <trkpt lat="44.58206" lon="1.16373">
        <ele>200.8</ele>
        <time>2024-07-23T13:10:41Z</time>
      </trkpt>
      <trkpt lat="44.58203" lon="1.16374">
        <ele>200.8</ele>
        <time>2024-07-23T13:10:42Z</time>
      </trkpt>
      <trkpt lat="44.582" lon="1.16375">
        <ele>200.4</ele>
        <time>2024-07-23T13:10:43Z</time>
      </trkpt>
      <trkpt lat="44.58196" lon="1.16377">
        <ele>200.4</ele>
        <time>2024-07-23T13:10:44Z</time>
      </trkpt>
      <trkpt lat="44.58193" lon="1.16379">
        <ele>200.2</ele>
        <time>2024-07-23T13:10:45Z</time>
      </trkpt>
      <trkpt lat="44.5819" lon="1.16381">
        <ele>200</ele>
        <time>2024-07-23T13:10:46Z</time>
      </trkpt>
      <trkpt lat="44.58174" lon="1.16386">
        <ele>199.4</ele>
        <time>2024-07-23T13:10:51Z</time>
      </trkpt>
      <trkpt lat="44.58164" lon="1.16383">
        <ele>199.2</ele>
        <time>2024-07-23T13:10:54Z</time>
      </trkpt>
      <trkpt lat="44.58161" lon="1.16383">
        <ele>199.2</ele>
        <time>2024-07-23T13:10:55Z</time>
      </trkpt>
      <trkpt lat="44.58156" lon="1.16382">
        <ele>199.2</ele>
        <time>2024-07-23T13:10:57Z</time>
      </trkpt>
      <trkpt lat="44.58153" lon="1.16381">
        <ele>199.2</ele>
        <time>2024-07-23T13:10:58Z</time>
      </trkpt>
      <trkpt lat="44.5815" lon="1.1638">
        <ele>199.2</ele>
        <time>2024-07-23T13:10:59Z</time>
      </trkpt>
      <trkpt lat="44.58147" lon="1.16379">
        <ele>199.2</ele>
        <time>2024-07-23T13:11:00Z</time>
      </trkpt>
      <trkpt lat="44.58144" lon="1.16378">
        <ele>199.2</ele>
        <time>2024-07-23T13:11:01Z</time>
      </trkpt>
      <trkpt lat="44.58135" lon="1.16373">
        <ele>199.2</ele>
        <time>2024-07-23T13:11:04Z</time>
      </trkpt>
      <trkpt lat="44.5812" lon="1.16363">
        <ele>199.2</ele>
        <time>2024-07-23T13:11:10Z</time>
      </trkpt>
      <trkpt lat="44.5812" lon="1.1636">
        <ele>199.2</ele>
        <time>2024-07-23T13:11:11Z</time>
      </trkpt>
      <trkpt lat="44.58119" lon="1.16356">
        <ele>199.2</ele>
        <time>2024-07-23T13:11:12Z</time>
      </trkpt>
      <trkpt lat="44.5812" lon="1.16347">
        <ele>199.4</ele>
        <time>2024-07-23T13:11:14Z</time>
      </trkpt>
      <trkpt lat="44.58122" lon="1.1633">
        <ele>199.4</ele>
        <time>2024-07-23T13:11:18Z</time>
      </trkpt>
      <trkpt lat="44.58122" lon="1.16325">
        <ele>199.4</ele>
        <time>2024-07-23T13:11:19Z</time>
      </trkpt>
      <trkpt lat="44.5812" lon="1.16314">
        <ele>199.4</ele>
        <time>2024-07-23T13:11:21Z</time>
      </trkpt>
      <trkpt lat="44.58118" lon="1.16308">
        <ele>199.4</ele>
        <time>2024-07-23T13:11:22Z</time>
      </trkpt>
      <trkpt lat="44.58112" lon="1.16277">
        <ele>199.2</ele>
        <time>2024-07-23T13:11:27Z</time>
      </trkpt>
      <trkpt lat="44.58107" lon="1.16236">
        <ele>198.8</ele>
        <time>2024-07-23T13:11:34Z</time>
      </trkpt>
      <trkpt lat="44.58106" lon="1.1623">
        <ele>198.6</ele>
        <time>2024-07-23T13:11:35Z</time>
      </trkpt>
      <trkpt lat="44.58106" lon="1.16225">
        <ele>198.6</ele>
        <time>2024-07-23T13:11:36Z</time>
      </trkpt>
      <trkpt lat="44.58105" lon="1.1622">
        <ele>198.4</ele>
        <time>2024-07-23T13:11:37Z</time>
      </trkpt>
      <trkpt lat="44.58104" lon="1.16215">
        <ele>198.4</ele>
        <time>2024-07-23T13:11:38Z</time>
      </trkpt>
      <trkpt lat="44.58103" lon="1.16211">
        <ele>198.4</ele>
        <time>2024-07-23T13:11:39Z</time>
      </trkpt>
      <trkpt lat="44.58101" lon="1.16206">
        <ele>198.4</ele>
        <time>2024-07-23T13:11:40Z</time>
      </trkpt>
      <trkpt lat="44.581" lon="1.16201">
        <ele>198.4</ele>
        <time>2024-07-23T13:11:41Z</time>
      </trkpt>
      <trkpt lat="44.58098" lon="1.16196">
        <ele>198.4</ele>
        <time>2024-07-23T13:11:42Z</time>
      </trkpt>
      <trkpt lat="44.58097" lon="1.16192">
        <ele>198.4</ele>
        <time>2024-07-23T13:11:43Z</time>
      </trkpt>
      <trkpt lat="44.58096" lon="1.16187">
        <ele>198.4</ele>
        <time>2024-07-23T13:11:44Z</time>
      </trkpt>
      <trkpt lat="44.58095" lon="1.16183">
        <ele>198.6</ele>
        <time>2024-07-23T13:11:45Z</time>
      </trkpt>
      <trkpt lat="44.58093" lon="1.16178">
        <ele>198.6</ele>
        <time>2024-07-23T13:11:46Z</time>
      </trkpt>
      <trkpt lat="44.58093" lon="1.16173">
        <ele>198.6</ele>
        <time>2024-07-23T13:11:47Z</time>
      </trkpt>
      <trkpt lat="44.58092" lon="1.16169">
        <ele>198.8</ele>
        <time>2024-07-23T13:11:48Z</time>
      </trkpt>
      <trkpt lat="44.58091" lon="1.16165">
        <ele>198.8</ele>
        <time>2024-07-23T13:11:49Z</time>
      </trkpt>
      <trkpt lat="44.5809" lon="1.1616">
        <ele>199</ele>
        <time>2024-07-23T13:11:50Z</time>
      </trkpt>
      <trkpt lat="44.5809" lon="1.16157">
        <ele>199</ele>
        <time>2024-07-23T13:11:51Z</time>
      </trkpt>
      <trkpt lat="44.58089" lon="1.16153">
        <ele>199</ele>
        <time>2024-07-23T13:11:52Z</time>
      </trkpt>
      <trkpt lat="44.58088" lon="1.1615">
        <ele>199.2</ele>
        <time>2024-07-23T13:11:53Z</time>
      </trkpt>
      <trkpt lat="44.58088" lon="1.16147">
        <ele>199.4</ele>
        <time>2024-07-23T13:11:54Z</time>
      </trkpt>
      <trkpt lat="44.58088" lon="1.16144">
        <ele>199.4</ele>
        <time>2024-07-23T13:11:55Z</time>
      </trkpt>
      <trkpt lat="44.58089" lon="1.16142">
        <ele>199.4</ele>
        <time>2024-07-23T13:11:56Z</time>
      </trkpt>
      <trkpt lat="44.5809" lon="1.1614">
        <ele>199.6</ele>
        <time>2024-07-23T13:11:57Z</time>
      </trkpt>
      <trkpt lat="44.58091" lon="1.16139">
        <ele>199.8</ele>
        <time>2024-07-23T13:11:58Z</time>
      </trkpt>
      <trkpt lat="44.58092" lon="1.16139">
        <ele>200</ele>
        <time>2024-07-23T13:11:59Z</time>
      </trkpt>
      <trkpt lat="44.58093" lon="1.16139">
        <ele>200.2</ele>
        <time>2024-07-23T13:12:00Z</time>
      </trkpt>
      <trkpt lat="44.58095" lon="1.16139">
        <ele>200.4</ele>
        <time>2024-07-23T13:12:01Z</time>
      </trkpt>
      <trkpt lat="44.58097" lon="1.1614">
        <ele>200.6</ele>
        <time>2024-07-23T13:12:03Z</time>
      </trkpt>
      <trkpt lat="44.58098" lon="1.1614">
        <ele>200.8</ele>
        <time>2024-07-23T13:12:04Z</time>
      </trkpt>
      <trkpt lat="44.58099" lon="1.1614">
        <ele>201.2</ele>
        <time>2024-07-23T13:12:05Z</time>
      </trkpt>
      <trkpt lat="44.58101" lon="1.1614">
        <ele>201.4</ele>
        <time>2024-07-23T13:12:06Z</time>
      </trkpt>
      <trkpt lat="44.58102" lon="1.16141">
        <ele>201.4</ele>
        <time>2024-07-23T13:12:07Z</time>
      </trkpt>
      <trkpt lat="44.58103" lon="1.16141">
        <ele>201.6</ele>
        <time>2024-07-23T13:12:08Z</time>
      </trkpt>
      <trkpt lat="44.58104" lon="1.16141">
        <ele>201.6</ele>
        <time>2024-07-23T13:12:09Z</time>
      </trkpt>
      <trkpt lat="44.58105" lon="1.16141">
        <ele>202</ele>
        <time>2024-07-23T13:12:10Z</time>
      </trkpt>
      <trkpt lat="44.58106" lon="1.16141">
        <ele>202.4</ele>
        <time>2024-07-23T13:12:11Z</time>
      </trkpt>
      <trkpt lat="44.58107" lon="1.16141">
        <ele>202.4</ele>
        <time>2024-07-23T13:12:12Z</time>
      </trkpt>
      <trkpt lat="44.58108" lon="1.1614">
        <ele>202.8</ele>
        <time>2024-07-23T13:12:13Z</time>
      </trkpt>
      <trkpt lat="44.58109" lon="1.1614">
        <ele>203</ele>
        <time>2024-07-23T13:12:14Z</time>
      </trkpt>
      <trkpt lat="44.58111" lon="1.16139">
        <ele>203.2</ele>
        <time>2024-07-23T13:12:15Z</time>
      </trkpt>
      <trkpt lat="44.58112" lon="1.16139">
        <ele>203.2</ele>
        <time>2024-07-23T13:12:16Z</time>
      </trkpt>
      <trkpt lat="44.58113" lon="1.16138">
        <ele>203.6</ele>
        <time>2024-07-23T13:12:17Z</time>
      </trkpt>
      <trkpt lat="44.58114" lon="1.16137">
        <ele>203.8</ele>
        <time>2024-07-23T13:12:18Z</time>
      </trkpt>
      <trkpt lat="44.58115" lon="1.16136">
        <ele>203.8</ele>
        <time>2024-07-23T13:12:19Z</time>
      </trkpt>
      <trkpt lat="44.58116" lon="1.16135">
        <ele>204.6</ele>
        <time>2024-07-23T13:12:20Z</time>
      </trkpt>
      <trkpt lat="44.58117" lon="1.16134">
        <ele>204.8</ele>
        <time>2024-07-23T13:12:21Z</time>
      </trkpt>
      <trkpt lat="44.58118" lon="1.16133">
        <ele>205</ele>
        <time>2024-07-23T13:12:22Z</time>
      </trkpt>
      <trkpt lat="44.58119" lon="1.16132">
        <ele>205.2</ele>
        <time>2024-07-23T13:12:23Z</time>
      </trkpt>
      <trkpt lat="44.5812" lon="1.1613">
        <ele>205.4</ele>
        <time>2024-07-23T13:12:24Z</time>
      </trkpt>
      <trkpt lat="44.58121" lon="1.16129">
        <ele>205.6</ele>
        <time>2024-07-23T13:12:25Z</time>
      </trkpt>
      <trkpt lat="44.58122" lon="1.16128">
        <ele>205.8</ele>
        <time>2024-07-23T13:12:26Z</time>
      </trkpt>
      <trkpt lat="44.58123" lon="1.16127">
        <ele>205.8</ele>
        <time>2024-07-23T13:12:27Z</time>
      </trkpt>
      <trkpt lat="44.58123" lon="1.16126">
        <ele>206</ele>
        <time>2024-07-23T13:12:28Z</time>
      </trkpt>
      <trkpt lat="44.58124" lon="1.16125">
        <ele>206.2</ele>
        <time>2024-07-23T13:12:29Z</time>
      </trkpt>
      <trkpt lat="44.58125" lon="1.16124">
        <ele>206.6</ele>
        <time>2024-07-23T13:12:30Z</time>
      </trkpt>
      <trkpt lat="44.58126" lon="1.16123">
        <ele>206.6</ele>
        <time>2024-07-23T13:12:31Z</time>
      </trkpt>
      <trkpt lat="44.58127" lon="1.16122">
        <ele>206.8</ele>
        <time>2024-07-23T13:12:32Z</time>
      </trkpt>
      <trkpt lat="44.58128" lon="1.16121">
        <ele>206.8</ele>
        <time>2024-07-23T13:12:33Z</time>
      </trkpt>
      <trkpt lat="44.58129" lon="1.1612">
        <ele>207</ele>
        <time>2024-07-23T13:12:34Z</time>
      </trkpt>
      <trkpt lat="44.5813" lon="1.16119">
        <ele>207.2</ele>
        <time>2024-07-23T13:12:35Z</time>
      </trkpt>
      <trkpt lat="44.58131" lon="1.16118">
        <ele>207.2</ele>
        <time>2024-07-23T13:12:36Z</time>
      </trkpt>
      <trkpt lat="44.58132" lon="1.16117">
        <ele>207.4</ele>
        <time>2024-07-23T13:12:37Z</time>
      </trkpt>
      <trkpt lat="44.58133" lon="1.16115">
        <ele>207.6</ele>
        <time>2024-07-23T13:12:38Z</time>
      </trkpt>
      <trkpt lat="44.58134" lon="1.16114">
        <ele>207.8</ele>
        <time>2024-07-23T13:12:39Z</time>
      </trkpt>
      <trkpt lat="44.58135" lon="1.16113">
        <ele>208</ele>
        <time>2024-07-23T13:12:40Z</time>
      </trkpt>
      <trkpt lat="44.58136" lon="1.16112">
        <ele>208.2</ele>
        <time>2024-07-23T13:12:41Z</time>
      </trkpt>
      <trkpt lat="44.58137" lon="1.16111">
        <ele>208.4</ele>
        <time>2024-07-23T13:12:42Z</time>
      </trkpt>
      <trkpt lat="44.58138" lon="1.1611">
        <ele>208.4</ele>
        <time>2024-07-23T13:12:43Z</time>
      </trkpt>
      <trkpt lat="44.58139" lon="1.16109">
        <ele>208.6</ele>
        <time>2024-07-23T13:12:44Z</time>
      </trkpt>
      <trkpt lat="44.5814" lon="1.16108">
        <ele>208.8</ele>
        <time>2024-07-23T13:12:45Z</time>
      </trkpt>
      <trkpt lat="44.58141" lon="1.16107">
        <ele>209</ele>
        <time>2024-07-23T13:12:46Z</time>
      </trkpt>
      <trkpt lat="44.58142" lon="1.16106">
        <ele>209.2</ele>
        <time>2024-07-23T13:12:47Z</time>
      </trkpt>
      <trkpt lat="44.58143" lon="1.16105">
        <ele>209.2</ele>
        <time>2024-07-23T13:12:48Z</time>
      </trkpt>
      <trkpt lat="44.58144" lon="1.16104">
        <ele>209.4</ele>
        <time>2024-07-23T13:12:49Z</time>
      </trkpt>
      <trkpt lat="44.58145" lon="1.16104">
        <ele>209.4</ele>
        <time>2024-07-23T13:12:50Z</time>
      </trkpt>
      <trkpt lat="44.58146" lon="1.16104">
        <ele>209.4</ele>
        <time>2024-07-23T13:12:51Z</time>
      </trkpt>
      <trkpt lat="44.58148" lon="1.16104">
        <ele>209.6</ele>
        <time>2024-07-23T13:12:52Z</time>
      </trkpt>
      <trkpt lat="44.58149" lon="1.16104">
        <ele>209.6</ele>
        <time>2024-07-23T13:12:53Z</time>
      </trkpt>
      <trkpt lat="44.5815" lon="1.16104">
        <ele>209.8</ele>
        <time>2024-07-23T13:12:54Z</time>
      </trkpt>
      <trkpt lat="44.58151" lon="1.16104">
        <ele>210</ele>
        <time>2024-07-23T13:12:55Z</time>
      </trkpt>
      <trkpt lat="44.58152" lon="1.16105">
        <ele>210.2</ele>
        <time>2024-07-23T13:12:56Z</time>
      </trkpt>
      <trkpt lat="44.58153" lon="1.16106">
        <ele>210.2</ele>
        <time>2024-07-23T13:12:57Z</time>
      </trkpt>
      <trkpt lat="44.58154" lon="1.16107">
        <ele>210.4</ele>
        <time>2024-07-23T13:12:58Z</time>
      </trkpt>
      <trkpt lat="44.58155" lon="1.16108">
        <ele>210.4</ele>
        <time>2024-07-23T13:12:59Z</time>
      </trkpt>
      <trkpt lat="44.58156" lon="1.1611">
        <ele>210.6</ele>
        <time>2024-07-23T13:13:00Z</time>
      </trkpt>
      <trkpt lat="44.58157" lon="1.16111">
        <ele>211</ele>
        <time>2024-07-23T13:13:01Z</time>
      </trkpt>
      <trkpt lat="44.58158" lon="1.16113">
        <ele>211</ele>
        <time>2024-07-23T13:13:02Z</time>
      </trkpt>
      <trkpt lat="44.58159" lon="1.16114">
        <ele>211.2</ele>
        <time>2024-07-23T13:13:03Z</time>
      </trkpt>
      <trkpt lat="44.58161" lon="1.16116">
        <ele>211.4</ele>
        <time>2024-07-23T13:13:04Z</time>
      </trkpt>
      <trkpt lat="44.58162" lon="1.16117">
        <ele>211.6</ele>
        <time>2024-07-23T13:13:05Z</time>
      </trkpt>
      <trkpt lat="44.58163" lon="1.16119">
        <ele>211.8</ele>
        <time>2024-07-23T13:13:06Z</time>
      </trkpt>
      <trkpt lat="44.58164" lon="1.1612">
        <ele>211.8</ele>
        <time>2024-07-23T13:13:07Z</time>
      </trkpt>
      <trkpt lat="44.58165" lon="1.16121">
        <ele>212</ele>
        <time>2024-07-23T13:13:08Z</time>
      </trkpt>
      <trkpt lat="44.58166" lon="1.16123">
        <ele>212.2</ele>
        <time>2024-07-23T13:13:09Z</time>
      </trkpt>
      <trkpt lat="44.58168" lon="1.16125">
        <ele>212.4</ele>
        <time>2024-07-23T13:13:10Z</time>
      </trkpt>
      <trkpt lat="44.58169" lon="1.16126">
        <ele>212.4</ele>
        <time>2024-07-23T13:13:11Z</time>
      </trkpt>
      <trkpt lat="44.5817" lon="1.16128">
        <ele>212.8</ele>
        <time>2024-07-23T13:13:12Z</time>
      </trkpt>
      <trkpt lat="44.58171" lon="1.16129">
        <ele>212.6</ele>
        <time>2024-07-23T13:13:13Z</time>
      </trkpt>
      <trkpt lat="44.58173" lon="1.16131">
        <ele>212.8</ele>
        <time>2024-07-23T13:13:14Z</time>
      </trkpt>
      <trkpt lat="44.58174" lon="1.16133">
        <ele>213</ele>
        <time>2024-07-23T13:13:15Z</time>
      </trkpt>
      <trkpt lat="44.58175" lon="1.16134">
        <ele>213</ele>
        <time>2024-07-23T13:13:16Z</time>
      </trkpt>
      <trkpt lat="44.58176" lon="1.16135">
        <ele>213.2</ele>
        <time>2024-07-23T13:13:17Z</time>
      </trkpt>
      <trkpt lat="44.58177" lon="1.16137">
        <ele>213.2</ele>
        <time>2024-07-23T13:13:18Z</time>
      </trkpt>
      <trkpt lat="44.58179" lon="1.16138">
        <ele>213.2</ele>
        <time>2024-07-23T13:13:19Z</time>
      </trkpt>
      <trkpt lat="44.5818" lon="1.1614">
        <ele>213.4</ele>
        <time>2024-07-23T13:13:20Z</time>
      </trkpt>
      <trkpt lat="44.58181" lon="1.16141">
        <ele>213.4</ele>
        <time>2024-07-23T13:13:21Z</time>
      </trkpt>
      <trkpt lat="44.58182" lon="1.16142">
        <ele>213.6</ele>
        <time>2024-07-23T13:13:22Z</time>
      </trkpt>
      <trkpt lat="44.58184" lon="1.16142">
        <ele>213.6</ele>
        <time>2024-07-23T13:13:23Z</time>
      </trkpt>
      <trkpt lat="44.58185" lon="1.16143">
        <ele>213.6</ele>
        <time>2024-07-23T13:13:24Z</time>
      </trkpt>
      <trkpt lat="44.58187" lon="1.16142">
        <ele>213.8</ele>
        <time>2024-07-23T13:13:25Z</time>
      </trkpt>
      <trkpt lat="44.58188" lon="1.16141">
        <ele>214</ele>
        <time>2024-07-23T13:13:26Z</time>
      </trkpt>
      <trkpt lat="44.5819" lon="1.1614">
        <ele>214.2</ele>
        <time>2024-07-23T13:13:27Z</time>
      </trkpt>
      <trkpt lat="44.58191" lon="1.16138">
        <ele>214.2</ele>
        <time>2024-07-23T13:13:28Z</time>
      </trkpt>
      <trkpt lat="44.58192" lon="1.16136">
        <ele>214.2</ele>
        <time>2024-07-23T13:13:29Z</time>
      </trkpt>
      <trkpt lat="44.58193" lon="1.16134">
        <ele>214.2</ele>
        <time>2024-07-23T13:13:30Z</time>
      </trkpt>
      <trkpt lat="44.58193" lon="1.16132">
        <ele>214.2</ele>
        <time>2024-07-23T13:13:31Z</time>
      </trkpt>
      <trkpt lat="44.58194" lon="1.16129">
        <ele>214.4</ele>
        <time>2024-07-23T13:13:32Z</time>
      </trkpt>
      <trkpt lat="44.58194" lon="1.16127">
        <ele>214.4</ele>
        <time>2024-07-23T13:13:33Z</time>
      </trkpt>
      <trkpt lat="44.58195" lon="1.16124">
        <ele>214.4</ele>
        <time>2024-07-23T13:13:34Z</time>
      </trkpt>
      <trkpt lat="44.58196" lon="1.16121">
        <ele>214.4</ele>
        <time>2024-07-23T13:13:35Z</time>
      </trkpt>
      <trkpt lat="44.582" lon="1.1611">
        <ele>214.6</ele>
        <time>2024-07-23T13:13:40Z</time>
      </trkpt>
      <trkpt lat="44.58202" lon="1.16104">
        <ele>214.6</ele>
        <time>2024-07-23T13:13:42Z</time>
      </trkpt>
      <trkpt lat="44.58209" lon="1.16078">
        <ele>215.4</ele>
        <time>2024-07-23T13:13:52Z</time>
      </trkpt>
      <trkpt lat="44.58212" lon="1.16071">
        <ele>215.6</ele>
        <time>2024-07-23T13:13:55Z</time>
      </trkpt>
      <trkpt lat="44.58213" lon="1.16068">
        <ele>215.8</ele>
        <time>2024-07-23T13:13:56Z</time>
      </trkpt>
      <trkpt lat="44.58213" lon="1.16065">
        <ele>215.8</ele>
        <time>2024-07-23T13:13:57Z</time>
      </trkpt>
      <trkpt lat="44.58213" lon="1.16063">
        <ele>215.8</ele>
        <time>2024-07-23T13:13:58Z</time>
      </trkpt>
      <trkpt lat="44.58214" lon="1.1606">
        <ele>216</ele>
        <time>2024-07-23T13:13:59Z</time>
      </trkpt>
      <trkpt lat="44.58215" lon="1.16058">
        <ele>216</ele>
        <time>2024-07-23T13:14:00Z</time>
      </trkpt>
      <trkpt lat="44.58215" lon="1.16055">
        <ele>216.2</ele>
        <time>2024-07-23T13:14:01Z</time>
      </trkpt>
      <trkpt lat="44.58216" lon="1.16053">
        <ele>216.4</ele>
        <time>2024-07-23T13:14:02Z</time>
      </trkpt>
      <trkpt lat="44.58217" lon="1.1605">
        <ele>216.4</ele>
        <time>2024-07-23T13:14:03Z</time>
      </trkpt>
      <trkpt lat="44.58217" lon="1.16048">
        <ele>216.4</ele>
        <time>2024-07-23T13:14:04Z</time>
      </trkpt>
      <trkpt lat="44.58219" lon="1.1604">
        <ele>216.6</ele>
        <time>2024-07-23T13:14:07Z</time>
      </trkpt>
      <trkpt lat="44.5822" lon="1.16036">
        <ele>216.8</ele>
        <time>2024-07-23T13:14:09Z</time>
      </trkpt>
      <trkpt lat="44.58221" lon="1.16034">
        <ele>216.8</ele>
        <time>2024-07-23T13:14:10Z</time>
      </trkpt>
      <trkpt lat="44.58222" lon="1.16032">
        <ele>217</ele>
        <time>2024-07-23T13:14:11Z</time>
      </trkpt>
      <trkpt lat="44.58222" lon="1.1603">
        <ele>217.2</ele>
        <time>2024-07-23T13:14:12Z</time>
      </trkpt>
      <trkpt lat="44.58223" lon="1.16028">
        <ele>217.2</ele>
        <time>2024-07-23T13:14:13Z</time>
      </trkpt>
      <trkpt lat="44.58224" lon="1.16026">
        <ele>217.4</ele>
        <time>2024-07-23T13:14:14Z</time>
      </trkpt>
      <trkpt lat="44.58224" lon="1.16024">
        <ele>217.4</ele>
        <time>2024-07-23T13:14:15Z</time>
      </trkpt>
      <trkpt lat="44.58225" lon="1.16022">
        <ele>217.8</ele>
        <time>2024-07-23T13:14:16Z</time>
      </trkpt>
      <trkpt lat="44.58226" lon="1.1602">
        <ele>217.6</ele>
        <time>2024-07-23T13:14:17Z</time>
      </trkpt>
      <trkpt lat="44.58226" lon="1.16017">
        <ele>217.8</ele>
        <time>2024-07-23T13:14:18Z</time>
      </trkpt>
      <trkpt lat="44.58229" lon="1.16007">
        <ele>218.6</ele>
        <time>2024-07-23T13:14:23Z</time>
      </trkpt>
      <trkpt lat="44.58231" lon="1.15999">
        <ele>219.2</ele>
        <time>2024-07-23T13:14:27Z</time>
      </trkpt>
      <trkpt lat="44.58232" lon="1.15997">
        <ele>219.6</ele>
        <time>2024-07-23T13:14:28Z</time>
      </trkpt>
      <trkpt lat="44.58232" lon="1.15995">
        <ele>219.6</ele>
        <time>2024-07-23T13:14:29Z</time>
      </trkpt>
      <trkpt lat="44.58233" lon="1.15992">
        <ele>219.8</ele>
        <time>2024-07-23T13:14:30Z</time>
      </trkpt>
      <trkpt lat="44.58234" lon="1.1599">
        <ele>220</ele>
        <time>2024-07-23T13:14:31Z</time>
      </trkpt>
      <trkpt lat="44.58234" lon="1.15988">
        <ele>220</ele>
        <time>2024-07-23T13:14:32Z</time>
      </trkpt>
      <trkpt lat="44.58235" lon="1.15986">
        <ele>220.2</ele>
        <time>2024-07-23T13:14:33Z</time>
      </trkpt>
      <trkpt lat="44.58235" lon="1.15984">
        <ele>220.2</ele>
        <time>2024-07-23T13:14:34Z</time>
      </trkpt>
      <trkpt lat="44.58235" lon="1.15982">
        <ele>220.2</ele>
        <time>2024-07-23T13:14:35Z</time>
      </trkpt>
      <trkpt lat="44.58236" lon="1.15979">
        <ele>220.4</ele>
        <time>2024-07-23T13:14:36Z</time>
      </trkpt>
      <trkpt lat="44.58236" lon="1.15977">
        <ele>220.4</ele>
        <time>2024-07-23T13:14:37Z</time>
      </trkpt>
      <trkpt lat="44.58236" lon="1.15974">
        <ele>220.6</ele>
        <time>2024-07-23T13:14:38Z</time>
      </trkpt>
      <trkpt lat="44.58237" lon="1.15972">
        <ele>220.8</ele>
        <time>2024-07-23T13:14:39Z</time>
      </trkpt>
      <trkpt lat="44.58237" lon="1.15969">
        <ele>220.8</ele>
        <time>2024-07-23T13:14:40Z</time>
      </trkpt>
      <trkpt lat="44.58236" lon="1.15967">
        <ele>221</ele>
        <time>2024-07-23T13:14:41Z</time>
      </trkpt>
      <trkpt lat="44.58236" lon="1.15965">
        <ele>221</ele>
        <time>2024-07-23T13:14:42Z</time>
      </trkpt>
      <trkpt lat="44.58235" lon="1.15962">
        <ele>221.2</ele>
        <time>2024-07-23T13:14:43Z</time>
      </trkpt>
      <trkpt lat="44.58235" lon="1.1596">
        <ele>221.2</ele>
        <time>2024-07-23T13:14:44Z</time>
      </trkpt>
      <trkpt lat="44.58235" lon="1.15957">
        <ele>221.4</ele>
        <time>2024-07-23T13:14:45Z</time>
      </trkpt>
      <trkpt lat="44.58234" lon="1.15955">
        <ele>221.4</ele>
        <time>2024-07-23T13:14:46Z</time>
      </trkpt>
      <trkpt lat="44.58234" lon="1.15953">
        <ele>221.6</ele>
        <time>2024-07-23T13:14:47Z</time>
      </trkpt>
      <trkpt lat="44.58234" lon="1.1595">
        <ele>221.6</ele>
        <time>2024-07-23T13:14:48Z</time>
      </trkpt>
      <trkpt lat="44.58233" lon="1.15948">
        <ele>221.6</ele>
        <time>2024-07-23T13:14:49Z</time>
      </trkpt>
      <trkpt lat="44.58233" lon="1.15946">
        <ele>221.8</ele>
        <time>2024-07-23T13:14:50Z</time>
      </trkpt>
      <trkpt lat="44.58233" lon="1.15943">
        <ele>221.8</ele>
        <time>2024-07-23T13:14:51Z</time>
      </trkpt>
      <trkpt lat="44.58232" lon="1.15941">
        <ele>222</ele>
        <time>2024-07-23T13:14:52Z</time>
      </trkpt>
      <trkpt lat="44.58231" lon="1.15939">
        <ele>222.2</ele>
        <time>2024-07-23T13:14:53Z</time>
      </trkpt>
      <trkpt lat="44.58231" lon="1.15937">
        <ele>222.4</ele>
        <time>2024-07-23T13:14:54Z</time>
      </trkpt>
      <trkpt lat="44.5823" lon="1.15934">
        <ele>222.8</ele>
        <time>2024-07-23T13:14:55Z</time>
      </trkpt>
      <trkpt lat="44.5823" lon="1.15932">
        <ele>222.8</ele>
        <time>2024-07-23T13:14:56Z</time>
      </trkpt>
      <trkpt lat="44.58229" lon="1.1593">
        <ele>223.2</ele>
        <time>2024-07-23T13:14:57Z</time>
      </trkpt>
      <trkpt lat="44.58229" lon="1.15929">
        <ele>223.4</ele>
        <time>2024-07-23T13:14:58Z</time>
      </trkpt>
      <trkpt lat="44.58229" lon="1.15927">
        <ele>223.4</ele>
        <time>2024-07-23T13:14:59Z</time>
      </trkpt>
      <trkpt lat="44.58228" lon="1.15925">
        <ele>223.6</ele>
        <time>2024-07-23T13:15:00Z</time>
      </trkpt>
      <trkpt lat="44.58228" lon="1.15923">
        <ele>223.6</ele>
        <time>2024-07-23T13:15:01Z</time>
      </trkpt>
      <trkpt lat="44.58228" lon="1.15921">
        <ele>223.8</ele>
        <time>2024-07-23T13:15:02Z</time>
      </trkpt>
      <trkpt lat="44.58227" lon="1.15919">
        <ele>224</ele>
        <time>2024-07-23T13:15:03Z</time>
      </trkpt>
      <trkpt lat="44.58227" lon="1.15917">
        <ele>224</ele>
        <time>2024-07-23T13:15:04Z</time>
      </trkpt>
      <trkpt lat="44.58226" lon="1.15915">
        <ele>224.2</ele>
        <time>2024-07-23T13:15:05Z</time>
      </trkpt>
      <trkpt lat="44.58226" lon="1.15912">
        <ele>224.2</ele>
        <time>2024-07-23T13:15:06Z</time>
      </trkpt>
      <trkpt lat="44.58225" lon="1.15911">
        <ele>224.4</ele>
        <time>2024-07-23T13:15:07Z</time>
      </trkpt>
      <trkpt lat="44.58225" lon="1.15909">
        <ele>224.6</ele>
        <time>2024-07-23T13:15:08Z</time>
      </trkpt>
      <trkpt lat="44.58224" lon="1.15907">
        <ele>224.8</ele>
        <time>2024-07-23T13:15:09Z</time>
      </trkpt>
      <trkpt lat="44.58224" lon="1.15905">
        <ele>225.2</ele>
        <time>2024-07-23T13:15:10Z</time>
      </trkpt>
      <trkpt lat="44.58223" lon="1.15904">
        <ele>225.2</ele>
        <time>2024-07-23T13:15:11Z</time>
      </trkpt>
      <trkpt lat="44.58223" lon="1.15902">
        <ele>225.4</ele>
        <time>2024-07-23T13:15:12Z</time>
      </trkpt>
      <trkpt lat="44.58223" lon="1.15901">
        <ele>225.6</ele>
        <time>2024-07-23T13:15:13Z</time>
      </trkpt>
      <trkpt lat="44.58223" lon="1.15899">
        <ele>226</ele>
        <time>2024-07-23T13:15:14Z</time>
      </trkpt>
      <trkpt lat="44.58223" lon="1.15898">
        <ele>226</ele>
        <time>2024-07-23T13:15:15Z</time>
      </trkpt>
      <trkpt lat="44.58222" lon="1.15896">
        <ele>226.2</ele>
        <time>2024-07-23T13:15:16Z</time>
      </trkpt>
      <trkpt lat="44.58222" lon="1.15895">
        <ele>226.6</ele>
        <time>2024-07-23T13:15:17Z</time>
      </trkpt>
      <trkpt lat="44.58222" lon="1.15894">
        <ele>226.6</ele>
        <time>2024-07-23T13:15:18Z</time>
      </trkpt>
      <trkpt lat="44.58222" lon="1.15892">
        <ele>226.8</ele>
        <time>2024-07-23T13:15:19Z</time>
      </trkpt>
      <trkpt lat="44.58221" lon="1.1589">
        <ele>227</ele>
        <time>2024-07-23T13:15:20Z</time>
      </trkpt>
      <trkpt lat="44.58221" lon="1.15889">
        <ele>227.2</ele>
        <time>2024-07-23T13:15:21Z</time>
      </trkpt>
      <trkpt lat="44.58221" lon="1.15887">
        <ele>227.4</ele>
        <time>2024-07-23T13:15:22Z</time>
      </trkpt>
      <trkpt lat="44.58221" lon="1.15886">
        <ele>227.6</ele>
        <time>2024-07-23T13:15:23Z</time>
      </trkpt>
      <trkpt lat="44.5822" lon="1.15884">
        <ele>227.8</ele>
        <time>2024-07-23T13:15:24Z</time>
      </trkpt>
      <trkpt lat="44.5822" lon="1.15883">
        <ele>227.8</ele>
        <time>2024-07-23T13:15:25Z</time>
      </trkpt>
      <trkpt lat="44.5822" lon="1.15881">
        <ele>228</ele>
        <time>2024-07-23T13:15:26Z</time>
      </trkpt>
      <trkpt lat="44.5822" lon="1.1588">
        <ele>228.2</ele>
        <time>2024-07-23T13:15:27Z</time>
      </trkpt>
      <trkpt lat="44.5822" lon="1.15878">
        <ele>228.2</ele>
        <time>2024-07-23T13:15:28Z</time>
      </trkpt>
      <trkpt lat="44.5822" lon="1.15877">
        <ele>228.4</ele>
        <time>2024-07-23T13:15:29Z</time>
      </trkpt>
      <trkpt lat="44.5822" lon="1.15875">
        <ele>228.6</ele>
        <time>2024-07-23T13:15:30Z</time>
      </trkpt>
      <trkpt lat="44.5822" lon="1.15874">
        <ele>228.8</ele>
        <time>2024-07-23T13:15:31Z</time>
      </trkpt>
      <trkpt lat="44.5822" lon="1.15872">
        <ele>229</ele>
        <time>2024-07-23T13:15:32Z</time>
      </trkpt>
      <trkpt lat="44.5822" lon="1.1587">
        <ele>229.2</ele>
        <time>2024-07-23T13:15:33Z</time>
      </trkpt>
      <trkpt lat="44.5822" lon="1.15868">
        <ele>229.2</ele>
        <time>2024-07-23T13:15:34Z</time>
      </trkpt>
      <trkpt lat="44.5822" lon="1.15867">
        <ele>229.4</ele>
        <time>2024-07-23T13:15:35Z</time>
      </trkpt>
      <trkpt lat="44.58221" lon="1.15865">
        <ele>229.6</ele>
        <time>2024-07-23T13:15:36Z</time>
      </trkpt>
      <trkpt lat="44.58221" lon="1.15864">
        <ele>229.6</ele>
        <time>2024-07-23T13:15:37Z</time>
      </trkpt>
      <trkpt lat="44.5822" lon="1.15863">
        <ele>230</ele>
        <time>2024-07-23T13:15:38Z</time>
      </trkpt>
      <trkpt lat="44.5822" lon="1.15861">
        <ele>230.2</ele>
        <time>2024-07-23T13:15:39Z</time>
      </trkpt>
      <trkpt lat="44.5822" lon="1.15859">
        <ele>230.2</ele>
        <time>2024-07-23T13:15:40Z</time>
      </trkpt>
      <trkpt lat="44.5822" lon="1.15858">
        <ele>230.4</ele>
        <time>2024-07-23T13:15:41Z</time>
      </trkpt>
      <trkpt lat="44.58221" lon="1.15856">
        <ele>230.6</ele>
        <time>2024-07-23T13:15:42Z</time>
      </trkpt>
      <trkpt lat="44.58221" lon="1.15855">
        <ele>230.8</ele>
        <time>2024-07-23T13:15:43Z</time>
      </trkpt>
      <trkpt lat="44.5822" lon="1.15853">
        <ele>231</ele>
        <time>2024-07-23T13:15:44Z</time>
      </trkpt>
      <trkpt lat="44.5822" lon="1.15851">
        <ele>231</ele>
        <time>2024-07-23T13:15:45Z</time>
      </trkpt>
      <trkpt lat="44.58221" lon="1.1585">
        <ele>231.2</ele>
        <time>2024-07-23T13:15:46Z</time>
      </trkpt>
      <trkpt lat="44.58221" lon="1.15848">
        <ele>231.2</ele>
        <time>2024-07-23T13:15:47Z</time>
      </trkpt>
      <trkpt lat="44.58221" lon="1.15847">
        <ele>231.4</ele>
        <time>2024-07-23T13:15:48Z</time>
      </trkpt>
      <trkpt lat="44.58221" lon="1.15845">
        <ele>231.4</ele>
        <time>2024-07-23T13:15:49Z</time>
      </trkpt>
      <trkpt lat="44.58221" lon="1.15844">
        <ele>231.6</ele>
        <time>2024-07-23T13:15:50Z</time>
      </trkpt>
      <trkpt lat="44.58221" lon="1.15843">
        <ele>231.6</ele>
        <time>2024-07-23T13:15:51Z</time>
      </trkpt>
      <trkpt lat="44.58221" lon="1.15841">
        <ele>231.6</ele>
        <time>2024-07-23T13:15:52Z</time>
      </trkpt>
      <trkpt lat="44.58221" lon="1.1584">
        <ele>231.8</ele>
        <time>2024-07-23T13:15:53Z</time>
      </trkpt>
      <trkpt lat="44.58221" lon="1.15838">
        <ele>232</ele>
        <time>2024-07-23T13:15:54Z</time>
      </trkpt>
      <trkpt lat="44.58221" lon="1.15837">
        <ele>232.2</ele>
        <time>2024-07-23T13:15:55Z</time>
      </trkpt>
      <trkpt lat="44.58221" lon="1.15836">
        <ele>232.4</ele>
        <time>2024-07-23T13:15:56Z</time>
      </trkpt>
      <trkpt lat="44.58221" lon="1.15834">
        <ele>232.6</ele>
        <time>2024-07-23T13:15:57Z</time>
      </trkpt>
      <trkpt lat="44.58221" lon="1.15833">
        <ele>232.8</ele>
        <time>2024-07-23T13:15:58Z</time>
      </trkpt>
      <trkpt lat="44.58221" lon="1.15831">
        <ele>233</ele>
        <time>2024-07-23T13:15:59Z</time>
      </trkpt>
      <trkpt lat="44.58221" lon="1.15829">
        <ele>233.2</ele>
        <time>2024-07-23T13:16:00Z</time>
      </trkpt>
      <trkpt lat="44.58221" lon="1.15828">
        <ele>233.4</ele>
        <time>2024-07-23T13:16:01Z</time>
      </trkpt>
      <trkpt lat="44.58221" lon="1.15826">
        <ele>233.6</ele>
        <time>2024-07-23T13:16:02Z</time>
      </trkpt>
      <trkpt lat="44.58221" lon="1.15824">
        <ele>234</ele>
        <time>2024-07-23T13:16:03Z</time>
      </trkpt>
      <trkpt lat="44.5822" lon="1.15823">
        <ele>234.2</ele>
        <time>2024-07-23T13:16:04Z</time>
      </trkpt>
      <trkpt lat="44.5822" lon="1.15821">
        <ele>234.4</ele>
        <time>2024-07-23T13:16:05Z</time>
      </trkpt>
      <trkpt lat="44.58219" lon="1.1582">
        <ele>234.4</ele>
        <time>2024-07-23T13:16:06Z</time>
      </trkpt>
      <trkpt lat="44.58218" lon="1.15819">
        <ele>234.4</ele>
        <time>2024-07-23T13:16:07Z</time>
      </trkpt>
      <trkpt lat="44.58217" lon="1.15818">
        <ele>234.8</ele>
        <time>2024-07-23T13:16:08Z</time>
      </trkpt>
      <trkpt lat="44.58216" lon="1.15817">
        <ele>235</ele>
        <time>2024-07-23T13:16:09Z</time>
      </trkpt>
      <trkpt lat="44.58215" lon="1.15816">
        <ele>235.2</ele>
        <time>2024-07-23T13:16:10Z</time>
      </trkpt>
      <trkpt lat="44.58215" lon="1.15815">
        <ele>235.2</ele>
        <time>2024-07-23T13:16:11Z</time>
      </trkpt>
      <trkpt lat="44.58214" lon="1.15814">
        <ele>235.4</ele>
        <time>2024-07-23T13:16:12Z</time>
      </trkpt>
      <trkpt lat="44.58213" lon="1.15812">
        <ele>235.6</ele>
        <time>2024-07-23T13:16:13Z</time>
      </trkpt>
      <trkpt lat="44.58212" lon="1.1581">
        <ele>235.8</ele>
        <time>2024-07-23T13:16:14Z</time>
      </trkpt>
      <trkpt lat="44.58211" lon="1.15809">
        <ele>236.2</ele>
        <time>2024-07-23T13:16:15Z</time>
      </trkpt>
      <trkpt lat="44.5821" lon="1.15807">
        <ele>236.2</ele>
        <time>2024-07-23T13:16:16Z</time>
      </trkpt>
      <trkpt lat="44.58209" lon="1.15806">
        <ele>236.4</ele>
        <time>2024-07-23T13:16:17Z</time>
      </trkpt>
      <trkpt lat="44.58209" lon="1.15805">
        <ele>236.6</ele>
        <time>2024-07-23T13:16:18Z</time>
      </trkpt>
      <trkpt lat="44.58208" lon="1.15804">
        <ele>236.8</ele>
        <time>2024-07-23T13:16:19Z</time>
      </trkpt>
      <trkpt lat="44.58207" lon="1.15803">
        <ele>237.4</ele>
        <time>2024-07-23T13:16:20Z</time>
      </trkpt>
      <trkpt lat="44.58207" lon="1.15801">
        <ele>237.6</ele>
        <time>2024-07-23T13:16:21Z</time>
      </trkpt>
      <trkpt lat="44.58207" lon="1.15801">
        <ele>238</ele>
        <time>2024-07-23T13:16:22Z</time>
      </trkpt>
      <trkpt lat="44.58206" lon="1.15799">
        <ele>238</ele>
        <time>2024-07-23T13:16:23Z</time>
      </trkpt>
      <trkpt lat="44.58205" lon="1.15798">
        <ele>238.4</ele>
        <time>2024-07-23T13:16:24Z</time>
      </trkpt>
      <trkpt lat="44.58204" lon="1.15796">
        <ele>238.6</ele>
        <time>2024-07-23T13:16:25Z</time>
      </trkpt>
      <trkpt lat="44.58203" lon="1.15795">
        <ele>238.6</ele>
        <time>2024-07-23T13:16:26Z</time>
      </trkpt>
      <trkpt lat="44.58201" lon="1.15794">
        <ele>238.8</ele>
        <time>2024-07-23T13:16:27Z</time>
      </trkpt>
      <trkpt lat="44.582" lon="1.15793">
        <ele>239</ele>
        <time>2024-07-23T13:16:28Z</time>
      </trkpt>
      <trkpt lat="44.58199" lon="1.15791">
        <ele>239</ele>
        <time>2024-07-23T13:16:29Z</time>
      </trkpt>
      <trkpt lat="44.58198" lon="1.1579">
        <ele>239.2</ele>
        <time>2024-07-23T13:16:30Z</time>
      </trkpt>
      <trkpt lat="44.58197" lon="1.15789">
        <ele>239.2</ele>
        <time>2024-07-23T13:16:31Z</time>
      </trkpt>
      <trkpt lat="44.58195" lon="1.15788">
        <ele>239.6</ele>
        <time>2024-07-23T13:16:32Z</time>
      </trkpt>
      <trkpt lat="44.58194" lon="1.15788">
        <ele>239.6</ele>
        <time>2024-07-23T13:16:33Z</time>
      </trkpt>
      <trkpt lat="44.58193" lon="1.15787">
        <ele>239.8</ele>
        <time>2024-07-23T13:16:34Z</time>
      </trkpt>
      <trkpt lat="44.58192" lon="1.15786">
        <ele>240</ele>
        <time>2024-07-23T13:16:35Z</time>
      </trkpt>
      <trkpt lat="44.58191" lon="1.15785">
        <ele>240</ele>
        <time>2024-07-23T13:16:36Z</time>
      </trkpt>
      <trkpt lat="44.5819" lon="1.15784">
        <ele>240.2</ele>
        <time>2024-07-23T13:16:37Z</time>
      </trkpt>
      <trkpt lat="44.58189" lon="1.15782">
        <ele>240.2</ele>
        <time>2024-07-23T13:16:38Z</time>
      </trkpt>
      <trkpt lat="44.58187" lon="1.15781">
        <ele>240.2</ele>
        <time>2024-07-23T13:16:39Z</time>
      </trkpt>
      <trkpt lat="44.58186" lon="1.15779">
        <ele>240.2</ele>
        <time>2024-07-23T13:16:40Z</time>
      </trkpt>
      <trkpt lat="44.58184" lon="1.15777">
        <ele>240.4</ele>
        <time>2024-07-23T13:16:41Z</time>
      </trkpt>
      <trkpt lat="44.58183" lon="1.15775">
        <ele>240.4</ele>
        <time>2024-07-23T13:16:42Z</time>
      </trkpt>
      <trkpt lat="44.58181" lon="1.15773">
        <ele>240.4</ele>
        <time>2024-07-23T13:16:43Z</time>
      </trkpt>
      <trkpt lat="44.58179" lon="1.15771">
        <ele>240.4</ele>
        <time>2024-07-23T13:16:44Z</time>
      </trkpt>
      <trkpt lat="44.58178" lon="1.15769">
        <ele>240.4</ele>
        <time>2024-07-23T13:16:45Z</time>
      </trkpt>
      <trkpt lat="44.58177" lon="1.15767">
        <ele>240.4</ele>
        <time>2024-07-23T13:16:46Z</time>
      </trkpt>
      <trkpt lat="44.58175" lon="1.15765">
        <ele>240.4</ele>
        <time>2024-07-23T13:16:47Z</time>
      </trkpt>
      <trkpt lat="44.58175" lon="1.15765">
        <ele>240.4</ele>
        <time>2024-07-23T13:16:48Z</time>
      </trkpt>
      <trkpt lat="44.58175" lon="1.15765">
        <ele>240.4</ele>
        <time>2024-07-23T13:16:50Z</time>
      </trkpt>
      <trkpt lat="44.58172" lon="1.1576">
        <ele>240.2</ele>
        <time>2024-07-23T13:17:02Z</time>
      </trkpt>
      <trkpt lat="44.58169" lon="1.15755">
        <ele>240</ele>
        <time>2024-07-23T13:17:05Z</time>
      </trkpt>
      <trkpt lat="44.58163" lon="1.15743">
        <ele>239.6</ele>
        <time>2024-07-23T13:17:09Z</time>
      </trkpt>
      <trkpt lat="44.5816" lon="1.15734">
        <ele>239.4</ele>
        <time>2024-07-23T13:17:11Z</time>
      </trkpt>
      <trkpt lat="44.58158" lon="1.15724">
        <ele>239</ele>
        <time>2024-07-23T13:17:13Z</time>
      </trkpt>
      <trkpt lat="44.58157" lon="1.1571">
        <ele>238.4</ele>
        <time>2024-07-23T13:17:15Z</time>
      </trkpt>
      <trkpt lat="44.58154" lon="1.1569">
        <ele>237.8</ele>
        <time>2024-07-23T13:17:18Z</time>
      </trkpt>
      <trkpt lat="44.58153" lon="1.15682">
        <ele>237.6</ele>
        <time>2024-07-23T13:17:19Z</time>
      </trkpt>
      <trkpt lat="44.58153" lon="1.15676">
        <ele>237.4</ele>
        <time>2024-07-23T13:17:20Z</time>
      </trkpt>
      <trkpt lat="44.58151" lon="1.1567">
        <ele>237.4</ele>
        <time>2024-07-23T13:17:21Z</time>
      </trkpt>
      <trkpt lat="44.58149" lon="1.15663">
        <ele>237.4</ele>
        <time>2024-07-23T13:17:22Z</time>
      </trkpt>
      <trkpt lat="44.58148" lon="1.15658">
        <ele>237.2</ele>
        <time>2024-07-23T13:17:23Z</time>
      </trkpt>
      <trkpt lat="44.58145" lon="1.15652">
        <ele>237.2</ele>
        <time>2024-07-23T13:17:24Z</time>
      </trkpt>
      <trkpt lat="44.5814" lon="1.15646">
        <ele>237.2</ele>
        <time>2024-07-23T13:17:25Z</time>
      </trkpt>
      <trkpt lat="44.58137" lon="1.15641">
        <ele>237</ele>
        <time>2024-07-23T13:17:26Z</time>
      </trkpt>
      <trkpt lat="44.58135" lon="1.15637">
        <ele>237</ele>
        <time>2024-07-23T13:17:27Z</time>
      </trkpt>
      <trkpt lat="44.58133" lon="1.15634">
        <ele>237</ele>
        <time>2024-07-23T13:17:28Z</time>
      </trkpt>
      <trkpt lat="44.58131" lon="1.15631">
        <ele>237.2</ele>
        <time>2024-07-23T13:17:29Z</time>
      </trkpt>
      <trkpt lat="44.58119" lon="1.15618">
        <ele>237.4</ele>
        <time>2024-07-23T13:17:33Z</time>
      </trkpt>
      <trkpt lat="44.58118" lon="1.15616">
        <ele>237.6</ele>
        <time>2024-07-23T13:17:34Z</time>
      </trkpt>
      <trkpt lat="44.58117" lon="1.15614">
        <ele>237.6</ele>
        <time>2024-07-23T13:17:35Z</time>
      </trkpt>
      <trkpt lat="44.58116" lon="1.1561">
        <ele>237.8</ele>
        <time>2024-07-23T13:17:36Z</time>
      </trkpt>
      <trkpt lat="44.58115" lon="1.15608">
        <ele>238.2</ele>
        <time>2024-07-23T13:17:37Z</time>
      </trkpt>
      <trkpt lat="44.58115" lon="1.15609">
        <ele>238.4</ele>
        <time>2024-07-23T13:17:38Z</time>
      </trkpt>
      <trkpt lat="44.58115" lon="1.15608">
        <ele>238.8</ele>
        <time>2024-07-23T13:17:39Z</time>
      </trkpt>
      <trkpt lat="44.58114" lon="1.15608">
        <ele>239.4</ele>
        <time>2024-07-23T13:17:40Z</time>
      </trkpt>
      <trkpt lat="44.58114" lon="1.15607">
        <ele>239.4</ele>
        <time>2024-07-23T13:17:41Z</time>
      </trkpt>
      <trkpt lat="44.58114" lon="1.15606">
        <ele>239.8</ele>
        <time>2024-07-23T13:17:42Z</time>
      </trkpt>
      <trkpt lat="44.58114" lon="1.15605">
        <ele>240</ele>
        <time>2024-07-23T13:17:43Z</time>
      </trkpt>
      <trkpt lat="44.58114" lon="1.15603">
        <ele>240.4</ele>
        <time>2024-07-23T13:17:44Z</time>
      </trkpt>
      <trkpt lat="44.58114" lon="1.15602">
        <ele>240.6</ele>
        <time>2024-07-23T13:17:45Z</time>
      </trkpt>
      <trkpt lat="44.58114" lon="1.156">
        <ele>240.8</ele>
        <time>2024-07-23T13:17:46Z</time>
      </trkpt>
      <trkpt lat="44.58114" lon="1.15599">
        <ele>241.2</ele>
        <time>2024-07-23T13:17:47Z</time>
      </trkpt>
      <trkpt lat="44.58114" lon="1.15598">
        <ele>241.4</ele>
        <time>2024-07-23T13:17:48Z</time>
      </trkpt>
      <trkpt lat="44.58114" lon="1.15597">
        <ele>241.8</ele>
        <time>2024-07-23T13:17:49Z</time>
      </trkpt>
      <trkpt lat="44.58114" lon="1.15595">
        <ele>241.8</ele>
        <time>2024-07-23T13:17:50Z</time>
      </trkpt>
      <trkpt lat="44.58114" lon="1.15594">
        <ele>242.2</ele>
        <time>2024-07-23T13:17:51Z</time>
      </trkpt>
      <trkpt lat="44.58113" lon="1.15593">
        <ele>242.4</ele>
        <time>2024-07-23T13:17:52Z</time>
      </trkpt>
      <trkpt lat="44.58113" lon="1.15591">
        <ele>242.6</ele>
        <time>2024-07-23T13:17:53Z</time>
      </trkpt>
      <trkpt lat="44.58112" lon="1.15589">
        <ele>243.2</ele>
        <time>2024-07-23T13:17:54Z</time>
      </trkpt>
      <trkpt lat="44.58112" lon="1.15587">
        <ele>243.4</ele>
        <time>2024-07-23T13:17:55Z</time>
      </trkpt>
      <trkpt lat="44.58112" lon="1.15585">
        <ele>243.8</ele>
        <time>2024-07-23T13:17:56Z</time>
      </trkpt>
      <trkpt lat="44.58112" lon="1.15583">
        <ele>244.2</ele>
        <time>2024-07-23T13:17:57Z</time>
      </trkpt>
      <trkpt lat="44.58111" lon="1.15581">
        <ele>244.2</ele>
        <time>2024-07-23T13:17:58Z</time>
      </trkpt>
      <trkpt lat="44.58111" lon="1.15579">
        <ele>244.4</ele>
        <time>2024-07-23T13:17:59Z</time>
      </trkpt>
      <trkpt lat="44.5811" lon="1.15576">
        <ele>244.6</ele>
        <time>2024-07-23T13:18:00Z</time>
      </trkpt>
      <trkpt lat="44.5811" lon="1.15574">
        <ele>244.6</ele>
        <time>2024-07-23T13:18:01Z</time>
      </trkpt>
      <trkpt lat="44.5811" lon="1.15572">
        <ele>244.8</ele>
        <time>2024-07-23T13:18:02Z</time>
      </trkpt>
      <trkpt lat="44.5811" lon="1.1557">
        <ele>245</ele>
        <time>2024-07-23T13:18:03Z</time>
      </trkpt>
      <trkpt lat="44.5811" lon="1.15568">
        <ele>245.2</ele>
        <time>2024-07-23T13:18:04Z</time>
      </trkpt>
      <trkpt lat="44.5811" lon="1.15565">
        <ele>245.4</ele>
        <time>2024-07-23T13:18:05Z</time>
      </trkpt>
      <trkpt lat="44.5811" lon="1.15563">
        <ele>245.6</ele>
        <time>2024-07-23T13:18:06Z</time>
      </trkpt>
      <trkpt lat="44.5811" lon="1.1556">
        <ele>245.8</ele>
        <time>2024-07-23T13:18:07Z</time>
      </trkpt>
      <trkpt lat="44.5811" lon="1.15559">
        <ele>245.8</ele>
        <time>2024-07-23T13:18:08Z</time>
      </trkpt>
      <trkpt lat="44.58109" lon="1.15557">
        <ele>246</ele>
        <time>2024-07-23T13:18:09Z</time>
      </trkpt>
      <trkpt lat="44.5811" lon="1.15554">
        <ele>246</ele>
        <time>2024-07-23T13:18:10Z</time>
      </trkpt>
      <trkpt lat="44.5811" lon="1.15552">
        <ele>246</ele>
        <time>2024-07-23T13:18:11Z</time>
      </trkpt>
      <trkpt lat="44.58109" lon="1.15548">
        <ele>246</ele>
        <time>2024-07-23T13:18:12Z</time>
      </trkpt>
      <trkpt lat="44.58109" lon="1.15546">
        <ele>246</ele>
        <time>2024-07-23T13:18:13Z</time>
      </trkpt>
      <trkpt lat="44.58108" lon="1.15544">
        <ele>246.2</ele>
        <time>2024-07-23T13:18:14Z</time>
      </trkpt>
      <trkpt lat="44.58108" lon="1.15541">
        <ele>246.2</ele>
        <time>2024-07-23T13:18:15Z</time>
      </trkpt>
      <trkpt lat="44.58108" lon="1.15539">
        <ele>246.2</ele>
        <time>2024-07-23T13:18:16Z</time>
      </trkpt>
      <trkpt lat="44.58108" lon="1.15536">
        <ele>246.2</ele>
        <time>2024-07-23T13:18:17Z</time>
      </trkpt>
      <trkpt lat="44.58108" lon="1.15534">
        <ele>246.4</ele>
        <time>2024-07-23T13:18:18Z</time>
      </trkpt>
      <trkpt lat="44.58108" lon="1.15531">
        <ele>246.4</ele>
        <time>2024-07-23T13:18:19Z</time>
      </trkpt>
      <trkpt lat="44.58108" lon="1.15529">
        <ele>246.4</ele>
        <time>2024-07-23T13:18:20Z</time>
      </trkpt>
      <trkpt lat="44.58108" lon="1.15526">
        <ele>246.6</ele>
        <time>2024-07-23T13:18:21Z</time>
      </trkpt>
      <trkpt lat="44.58108" lon="1.15523">
        <ele>246.6</ele>
        <time>2024-07-23T13:18:22Z</time>
      </trkpt>
      <trkpt lat="44.58108" lon="1.1552">
        <ele>246.6</ele>
        <time>2024-07-23T13:18:23Z</time>
      </trkpt>
      <trkpt lat="44.58108" lon="1.15517">
        <ele>246.8</ele>
        <time>2024-07-23T13:18:24Z</time>
      </trkpt>
      <trkpt lat="44.58108" lon="1.15514">
        <ele>246.8</ele>
        <time>2024-07-23T13:18:25Z</time>
      </trkpt>
      <trkpt lat="44.58108" lon="1.15512">
        <ele>247</ele>
        <time>2024-07-23T13:18:26Z</time>
      </trkpt>
      <trkpt lat="44.58108" lon="1.15509">
        <ele>247</ele>
        <time>2024-07-23T13:18:27Z</time>
      </trkpt>
      <trkpt lat="44.58108" lon="1.15506">
        <ele>247</ele>
        <time>2024-07-23T13:18:28Z</time>
      </trkpt>
      <trkpt lat="44.58107" lon="1.15503">
        <ele>247.2</ele>
        <time>2024-07-23T13:18:29Z</time>
      </trkpt>
      <trkpt lat="44.58107" lon="1.155">
        <ele>247.2</ele>
        <time>2024-07-23T13:18:30Z</time>
      </trkpt>
      <trkpt lat="44.58106" lon="1.15491">
        <ele>247.4</ele>
        <time>2024-07-23T13:18:33Z</time>
      </trkpt>
      <trkpt lat="44.58104" lon="1.15461">
        <ele>247.8</ele>
        <time>2024-07-23T13:18:44Z</time>
      </trkpt>
      <trkpt lat="44.58104" lon="1.15458">
        <ele>247.8</ele>
        <time>2024-07-23T13:18:45Z</time>
      </trkpt>
      <trkpt lat="44.58103" lon="1.15456">
        <ele>247.8</ele>
        <time>2024-07-23T13:18:46Z</time>
      </trkpt>
      <trkpt lat="44.58103" lon="1.15454">
        <ele>248</ele>
        <time>2024-07-23T13:18:47Z</time>
      </trkpt>
      <trkpt lat="44.58103" lon="1.15451">
        <ele>248</ele>
        <time>2024-07-23T13:18:48Z</time>
      </trkpt>
      <trkpt lat="44.58103" lon="1.15449">
        <ele>248</ele>
        <time>2024-07-23T13:18:49Z</time>
      </trkpt>
      <trkpt lat="44.58103" lon="1.15447">
        <ele>248</ele>
        <time>2024-07-23T13:18:50Z</time>
      </trkpt>
      <trkpt lat="44.58103" lon="1.15444">
        <ele>248.2</ele>
        <time>2024-07-23T13:18:51Z</time>
      </trkpt>
      <trkpt lat="44.58103" lon="1.1544">
        <ele>248.6</ele>
        <time>2024-07-23T13:18:53Z</time>
      </trkpt>
      <trkpt lat="44.58103" lon="1.15437">
        <ele>248.8</ele>
        <time>2024-07-23T13:18:54Z</time>
      </trkpt>
      <trkpt lat="44.58103" lon="1.15435">
        <ele>249</ele>
        <time>2024-07-23T13:18:55Z</time>
      </trkpt>
      <trkpt lat="44.58102" lon="1.1543">
        <ele>249</ele>
        <time>2024-07-23T13:18:57Z</time>
      </trkpt>
      <trkpt lat="44.581" lon="1.15412">
        <ele>250</ele>
        <time>2024-07-23T13:19:04Z</time>
      </trkpt>
      <trkpt lat="44.581" lon="1.1541">
        <ele>250.2</ele>
        <time>2024-07-23T13:19:05Z</time>
      </trkpt>
      <trkpt lat="44.581" lon="1.15396">
        <ele>250.6</ele>
        <time>2024-07-23T13:19:10Z</time>
      </trkpt>
      <trkpt lat="44.581" lon="1.15393">
        <ele>250.8</ele>
        <time>2024-07-23T13:19:11Z</time>
      </trkpt>
      <trkpt lat="44.581" lon="1.1539">
        <ele>250.8</ele>
        <time>2024-07-23T13:19:12Z</time>
      </trkpt>
      <trkpt lat="44.581" lon="1.15387">
        <ele>251</ele>
        <time>2024-07-23T13:19:13Z</time>
      </trkpt>
      <trkpt lat="44.58099" lon="1.15384">
        <ele>251</ele>
        <time>2024-07-23T13:19:14Z</time>
      </trkpt>
      <trkpt lat="44.58099" lon="1.1538">
        <ele>251</ele>
        <time>2024-07-23T13:19:15Z</time>
      </trkpt>
      <trkpt lat="44.58098" lon="1.15377">
        <ele>251</ele>
        <time>2024-07-23T13:19:16Z</time>
      </trkpt>
      <trkpt lat="44.58098" lon="1.15373">
        <ele>251</ele>
        <time>2024-07-23T13:19:17Z</time>
      </trkpt>
      <trkpt lat="44.58098" lon="1.15369">
        <ele>251</ele>
        <time>2024-07-23T13:19:18Z</time>
      </trkpt>
      <trkpt lat="44.58097" lon="1.15365">
        <ele>251</ele>
        <time>2024-07-23T13:19:19Z</time>
      </trkpt>
      <trkpt lat="44.58092" lon="1.15335">
        <ele>250.8</ele>
        <time>2024-07-23T13:19:26Z</time>
      </trkpt>
      <trkpt lat="44.58084" lon="1.15288">
        <ele>250</ele>
        <time>2024-07-23T13:19:35Z</time>
      </trkpt>
      <trkpt lat="44.58081" lon="1.15261">
        <ele>249.8</ele>
        <time>2024-07-23T13:19:39Z</time>
      </trkpt>
      <trkpt lat="44.58081" lon="1.15253">
        <ele>249.8</ele>
        <time>2024-07-23T13:19:40Z</time>
      </trkpt>
      <trkpt lat="44.58081" lon="1.15227">
        <ele>249.2</ele>
        <time>2024-07-23T13:19:43Z</time>
      </trkpt>
      <trkpt lat="44.5808" lon="1.15202">
        <ele>248</ele>
        <time>2024-07-23T13:19:46Z</time>
      </trkpt>
      <trkpt lat="44.5808" lon="1.15195">
        <ele>247.8</ele>
        <time>2024-07-23T13:19:47Z</time>
      </trkpt>
      <trkpt lat="44.58079" lon="1.15188">
        <ele>247.2</ele>
        <time>2024-07-23T13:19:48Z</time>
      </trkpt>
      <trkpt lat="44.58079" lon="1.15183">
        <ele>247</ele>
        <time>2024-07-23T13:19:49Z</time>
      </trkpt>
      <trkpt lat="44.58078" lon="1.15178">
        <ele>246.2</ele>
        <time>2024-07-23T13:19:50Z</time>
      </trkpt>
      <trkpt lat="44.58076" lon="1.15174">
        <ele>246</ele>
        <time>2024-07-23T13:19:51Z</time>
      </trkpt>
      <trkpt lat="44.58074" lon="1.15171">
        <ele>245.4</ele>
        <time>2024-07-23T13:19:52Z</time>
      </trkpt>
      <trkpt lat="44.58071" lon="1.1517">
        <ele>245</ele>
        <time>2024-07-23T13:19:53Z</time>
      </trkpt>
      <trkpt lat="44.58068" lon="1.1517">
        <ele>245</ele>
        <time>2024-07-23T13:19:54Z</time>
      </trkpt>
      <trkpt lat="44.58066" lon="1.1517">
        <ele>244.6</ele>
        <time>2024-07-23T13:19:55Z</time>
      </trkpt>
      <trkpt lat="44.58064" lon="1.15171">
        <ele>244.6</ele>
        <time>2024-07-23T13:19:56Z</time>
      </trkpt>
      <trkpt lat="44.58062" lon="1.15171">
        <ele>244.4</ele>
        <time>2024-07-23T13:19:57Z</time>
      </trkpt>
      <trkpt lat="44.5806" lon="1.15171">
        <ele>244.4</ele>
        <time>2024-07-23T13:19:58Z</time>
      </trkpt>
      <trkpt lat="44.58058" lon="1.15171">
        <ele>244.4</ele>
        <time>2024-07-23T13:19:59Z</time>
      </trkpt>
      <trkpt lat="44.58048" lon="1.15173">
        <ele>244.6</ele>
        <time>2024-07-23T13:20:04Z</time>
      </trkpt>
      <trkpt lat="44.58046" lon="1.15173">
        <ele>244.8</ele>
        <time>2024-07-23T13:20:05Z</time>
      </trkpt>
      <trkpt lat="44.58044" lon="1.15174">
        <ele>244.8</ele>
        <time>2024-07-23T13:20:06Z</time>
      </trkpt>
      <trkpt lat="44.58041" lon="1.15174">
        <ele>245</ele>
        <time>2024-07-23T13:20:07Z</time>
      </trkpt>
      <trkpt lat="44.58036" lon="1.15176">
        <ele>245.2</ele>
        <time>2024-07-23T13:20:09Z</time>
      </trkpt>
      <trkpt lat="44.58031" lon="1.15178">
        <ele>245.4</ele>
        <time>2024-07-23T13:20:11Z</time>
      </trkpt>
      <trkpt lat="44.58028" lon="1.15178">
        <ele>245.4</ele>
        <time>2024-07-23T13:20:12Z</time>
      </trkpt>
      <trkpt lat="44.58005" lon="1.15186">
        <ele>245.6</ele>
        <time>2024-07-23T13:20:18Z</time>
      </trkpt>
      <trkpt lat="44.57985" lon="1.15192">
        <ele>245.4</ele>
        <time>2024-07-23T13:20:22Z</time>
      </trkpt>
      <trkpt lat="44.57962" lon="1.15202">
        <ele>245</ele>
        <time>2024-07-23T13:20:26Z</time>
      </trkpt>
      <trkpt lat="44.57942" lon="1.15208">
        <ele>244.4</ele>
        <time>2024-07-23T13:20:30Z</time>
      </trkpt>
      <trkpt lat="44.57937" lon="1.15209">
        <ele>244.4</ele>
        <time>2024-07-23T13:20:31Z</time>
      </trkpt>
      <trkpt lat="44.57925" lon="1.15213">
        <ele>244.4</ele>
        <time>2024-07-23T13:20:34Z</time>
      </trkpt>
      <trkpt lat="44.57921" lon="1.15214">
        <ele>244.4</ele>
        <time>2024-07-23T13:20:35Z</time>
      </trkpt>
      <trkpt lat="44.57917" lon="1.15215">
        <ele>244.4</ele>
        <time>2024-07-23T13:20:36Z</time>
      </trkpt>
      <trkpt lat="44.57913" lon="1.15217">
        <ele>244.4</ele>
        <time>2024-07-23T13:20:37Z</time>
      </trkpt>
      <trkpt lat="44.57909" lon="1.15218">
        <ele>244.4</ele>
        <time>2024-07-23T13:20:38Z</time>
      </trkpt>
      <trkpt lat="44.57905" lon="1.15219">
        <ele>244.4</ele>
        <time>2024-07-23T13:20:39Z</time>
      </trkpt>
      <trkpt lat="44.57901" lon="1.15221">
        <ele>244.4</ele>
        <time>2024-07-23T13:20:40Z</time>
      </trkpt>
      <trkpt lat="44.57896" lon="1.15222">
        <ele>244.4</ele>
        <time>2024-07-23T13:20:41Z</time>
      </trkpt>
      <trkpt lat="44.57852" lon="1.15235">
        <ele>244.8</ele>
        <time>2024-07-23T13:20:51Z</time>
      </trkpt>
      <trkpt lat="44.57824" lon="1.15239">
        <ele>244.4</ele>
        <time>2024-07-23T13:20:55Z</time>
      </trkpt>
      <trkpt lat="44.57795" lon="1.15241">
        <ele>243</ele>
        <time>2024-07-23T13:20:58Z</time>
      </trkpt>
      <trkpt lat="44.57772" lon="1.15248">
        <ele>241.4</ele>
        <time>2024-07-23T13:21:00Z</time>
      </trkpt>
      <trkpt lat="44.5776" lon="1.15254">
        <ele>240.4</ele>
        <time>2024-07-23T13:21:01Z</time>
      </trkpt>
      <trkpt lat="44.57734" lon="1.15266">
        <ele>238</ele>
        <time>2024-07-23T13:21:03Z</time>
      </trkpt>
      <trkpt lat="44.5772" lon="1.1527">
        <ele>237</ele>
        <time>2024-07-23T13:21:04Z</time>
      </trkpt>
      <trkpt lat="44.57706" lon="1.15273">
        <ele>235.6</ele>
        <time>2024-07-23T13:21:05Z</time>
      </trkpt>
      <trkpt lat="44.57692" lon="1.15275">
        <ele>234.4</ele>
        <time>2024-07-23T13:21:06Z</time>
      </trkpt>
      <trkpt lat="44.57678" lon="1.15275">
        <ele>232.4</ele>
        <time>2024-07-23T13:21:07Z</time>
      </trkpt>
      <trkpt lat="44.57665" lon="1.15274">
        <ele>230.6</ele>
        <time>2024-07-23T13:21:08Z</time>
      </trkpt>
      <trkpt lat="44.57652" lon="1.15273">
        <ele>229.4</ele>
        <time>2024-07-23T13:21:09Z</time>
      </trkpt>
      <trkpt lat="44.57641" lon="1.15271">
        <ele>227.4</ele>
        <time>2024-07-23T13:21:10Z</time>
      </trkpt>
      <trkpt lat="44.5763" lon="1.1527">
        <ele>226.8</ele>
        <time>2024-07-23T13:21:11Z</time>
      </trkpt>
      <trkpt lat="44.5762" lon="1.1527">
        <ele>224.4</ele>
        <time>2024-07-23T13:21:12Z</time>
      </trkpt>
      <trkpt lat="44.57608" lon="1.15274">
        <ele>223</ele>
        <time>2024-07-23T13:21:13Z</time>
      </trkpt>
      <trkpt lat="44.57585" lon="1.15282">
        <ele>220.4</ele>
        <time>2024-07-23T13:21:15Z</time>
      </trkpt>
      <trkpt lat="44.57574" lon="1.15287">
        <ele>219.8</ele>
        <time>2024-07-23T13:21:16Z</time>
      </trkpt>
      <trkpt lat="44.57562" lon="1.15292">
        <ele>218.4</ele>
        <time>2024-07-23T13:21:17Z</time>
      </trkpt>
      <trkpt lat="44.57538" lon="1.15302">
        <ele>216.6</ele>
        <time>2024-07-23T13:21:19Z</time>
      </trkpt>
      <trkpt lat="44.57526" lon="1.15307">
        <ele>215.4</ele>
        <time>2024-07-23T13:21:20Z</time>
      </trkpt>
      <trkpt lat="44.575" lon="1.15318">
        <ele>213.6</ele>
        <time>2024-07-23T13:21:22Z</time>
      </trkpt>
      <trkpt lat="44.57491" lon="1.15322">
        <ele>213.2</ele>
        <time>2024-07-23T13:21:23Z</time>
      </trkpt>
      <trkpt lat="44.5748" lon="1.15327">
        <ele>212.2</ele>
        <time>2024-07-23T13:21:24Z</time>
      </trkpt>
      <trkpt lat="44.57469" lon="1.15332">
        <ele>210.8</ele>
        <time>2024-07-23T13:21:25Z</time>
      </trkpt>
      <trkpt lat="44.5746" lon="1.15336">
        <ele>210</ele>
        <time>2024-07-23T13:21:26Z</time>
      </trkpt>
      <trkpt lat="44.5745" lon="1.15341">
        <ele>209</ele>
        <time>2024-07-23T13:21:27Z</time>
      </trkpt>
      <trkpt lat="44.57443" lon="1.15343">
        <ele>208.6</ele>
        <time>2024-07-23T13:21:28Z</time>
      </trkpt>
      <trkpt lat="44.57436" lon="1.15347">
        <ele>208.2</ele>
        <time>2024-07-23T13:21:29Z</time>
      </trkpt>
      <trkpt lat="44.57428" lon="1.15351">
        <ele>207</ele>
        <time>2024-07-23T13:21:30Z</time>
      </trkpt>
      <trkpt lat="44.57422" lon="1.15355">
        <ele>206.6</ele>
        <time>2024-07-23T13:21:31Z</time>
      </trkpt>
      <trkpt lat="44.57414" lon="1.1536">
        <ele>205.8</ele>
        <time>2024-07-23T13:21:32Z</time>
      </trkpt>
      <trkpt lat="44.57403" lon="1.15373">
        <ele>204.4</ele>
        <time>2024-07-23T13:21:34Z</time>
      </trkpt>
      <trkpt lat="44.57393" lon="1.15391">
        <ele>203.4</ele>
        <time>2024-07-23T13:21:36Z</time>
      </trkpt>
      <trkpt lat="44.57389" lon="1.15402">
        <ele>202.6</ele>
        <time>2024-07-23T13:21:37Z</time>
      </trkpt>
      <trkpt lat="44.57385" lon="1.15413">
        <ele>202.2</ele>
        <time>2024-07-23T13:21:38Z</time>
      </trkpt>
      <trkpt lat="44.57378" lon="1.15437">
        <ele>201.4</ele>
        <time>2024-07-23T13:21:40Z</time>
      </trkpt>
      <trkpt lat="44.57372" lon="1.15462">
        <ele>200.2</ele>
        <time>2024-07-23T13:21:42Z</time>
      </trkpt>
      <trkpt lat="44.5737" lon="1.15471">
        <ele>200</ele>
        <time>2024-07-23T13:21:43Z</time>
      </trkpt>
      <trkpt lat="44.57365" lon="1.15493">
        <ele>198.8</ele>
        <time>2024-07-23T13:21:45Z</time>
      </trkpt>
      <trkpt lat="44.57363" lon="1.15503">
        <ele>198.2</ele>
        <time>2024-07-23T13:21:46Z</time>
      </trkpt>
      <trkpt lat="44.57361" lon="1.15511">
        <ele>197.8</ele>
        <time>2024-07-23T13:21:47Z</time>
      </trkpt>
      <trkpt lat="44.57359" lon="1.15518">
        <ele>197.2</ele>
        <time>2024-07-23T13:21:48Z</time>
      </trkpt>
      <trkpt lat="44.57358" lon="1.15523">
        <ele>196.6</ele>
        <time>2024-07-23T13:21:49Z</time>
      </trkpt>
      <trkpt lat="44.57357" lon="1.15527">
        <ele>196.2</ele>
        <time>2024-07-23T13:21:50Z</time>
      </trkpt>
      <trkpt lat="44.57356" lon="1.15531">
        <ele>195.8</ele>
        <time>2024-07-23T13:21:51Z</time>
      </trkpt>
      <trkpt lat="44.57355" lon="1.15533">
        <ele>195.4</ele>
        <time>2024-07-23T13:21:52Z</time>
      </trkpt>
      <trkpt lat="44.57354" lon="1.15535">
        <ele>195</ele>
        <time>2024-07-23T13:21:53Z</time>
      </trkpt>
      <trkpt lat="44.57353" lon="1.15538">
        <ele>194.4</ele>
        <time>2024-07-23T13:21:54Z</time>
      </trkpt>
      <trkpt lat="44.57353" lon="1.15544">
        <ele>193.8</ele>
        <time>2024-07-23T13:21:56Z</time>
      </trkpt>
      <trkpt lat="44.57354" lon="1.15549">
        <ele>193.6</ele>
        <time>2024-07-23T13:21:57Z</time>
      </trkpt>
      <trkpt lat="44.57355" lon="1.15551">
        <ele>193.4</ele>
        <time>2024-07-23T13:21:58Z</time>
      </trkpt>
      <trkpt lat="44.57355" lon="1.15553">
        <ele>193</ele>
        <time>2024-07-23T13:21:59Z</time>
      </trkpt>
      <trkpt lat="44.57355" lon="1.15557">
        <ele>193</ele>
        <time>2024-07-23T13:22:00Z</time>
      </trkpt>
      <trkpt lat="44.57355" lon="1.15565">
        <ele>192.8</ele>
        <time>2024-07-23T13:22:02Z</time>
      </trkpt>
      <trkpt lat="44.57354" lon="1.15587">
        <ele>192.6</ele>
        <time>2024-07-23T13:22:06Z</time>
      </trkpt>
      <trkpt lat="44.57353" lon="1.156">
        <ele>192.2</ele>
        <time>2024-07-23T13:22:08Z</time>
      </trkpt>
      <trkpt lat="44.5735" lon="1.15631">
        <ele>191.8</ele>
        <time>2024-07-23T13:22:12Z</time>
      </trkpt>
      <trkpt lat="44.57349" lon="1.15637">
        <ele>191.8</ele>
        <time>2024-07-23T13:22:13Z</time>
      </trkpt>
      <trkpt lat="44.57349" lon="1.15644">
        <ele>191.8</ele>
        <time>2024-07-23T13:22:14Z</time>
      </trkpt>
      <trkpt lat="44.57348" lon="1.15651">
        <ele>191.4</ele>
        <time>2024-07-23T13:22:15Z</time>
      </trkpt>
      <trkpt lat="44.57348" lon="1.15657">
        <ele>191.4</ele>
        <time>2024-07-23T13:22:16Z</time>
      </trkpt>
      <trkpt lat="44.57348" lon="1.15664">
        <ele>191.2</ele>
        <time>2024-07-23T13:22:17Z</time>
      </trkpt>
      <trkpt lat="44.57347" lon="1.1567">
        <ele>191.2</ele>
        <time>2024-07-23T13:22:18Z</time>
      </trkpt>
      <trkpt lat="44.57346" lon="1.15677">
        <ele>191</ele>
        <time>2024-07-23T13:22:19Z</time>
      </trkpt>
      <trkpt lat="44.57345" lon="1.15684">
        <ele>191</ele>
        <time>2024-07-23T13:22:20Z</time>
      </trkpt>
      <trkpt lat="44.57342" lon="1.15709">
        <ele>190.8</ele>
        <time>2024-07-23T13:22:24Z</time>
      </trkpt>
      <trkpt lat="44.57342" lon="1.15716">
        <ele>190.8</ele>
        <time>2024-07-23T13:22:25Z</time>
      </trkpt>
      <trkpt lat="44.57342" lon="1.15723">
        <ele>190.6</ele>
        <time>2024-07-23T13:22:26Z</time>
      </trkpt>
      <trkpt lat="44.57342" lon="1.15728">
        <ele>190.4</ele>
        <time>2024-07-23T13:22:27Z</time>
      </trkpt>
      <trkpt lat="44.57341" lon="1.15734">
        <ele>190.4</ele>
        <time>2024-07-23T13:22:28Z</time>
      </trkpt>
      <trkpt lat="44.5734" lon="1.15753">
        <ele>190.2</ele>
        <time>2024-07-23T13:22:32Z</time>
      </trkpt>
      <trkpt lat="44.57339" lon="1.15758">
        <ele>190.4</ele>
        <time>2024-07-23T13:22:33Z</time>
      </trkpt>
      <trkpt lat="44.57339" lon="1.15763">
        <ele>190.6</ele>
        <time>2024-07-23T13:22:34Z</time>
      </trkpt>
      <trkpt lat="44.57338" lon="1.15768">
        <ele>190.8</ele>
        <time>2024-07-23T13:22:35Z</time>
      </trkpt>
      <trkpt lat="44.57338" lon="1.15774">
        <ele>190.8</ele>
        <time>2024-07-23T13:22:36Z</time>
      </trkpt>
      <trkpt lat="44.57338" lon="1.1578">
        <ele>190.8</ele>
        <time>2024-07-23T13:22:37Z</time>
      </trkpt>
      <trkpt lat="44.57337" lon="1.15786">
        <ele>190.8</ele>
        <time>2024-07-23T13:22:38Z</time>
      </trkpt>
      <trkpt lat="44.57337" lon="1.15791">
        <ele>191</ele>
        <time>2024-07-23T13:22:39Z</time>
      </trkpt>
      <trkpt lat="44.57337" lon="1.15796">
        <ele>191.2</ele>
        <time>2024-07-23T13:22:40Z</time>
      </trkpt>
      <trkpt lat="44.57336" lon="1.15801">
        <ele>191.2</ele>
        <time>2024-07-23T13:22:41Z</time>
      </trkpt>
      <trkpt lat="44.57331" lon="1.15824">
        <ele>191.4</ele>
        <time>2024-07-23T13:22:45Z</time>
      </trkpt>
      <trkpt lat="44.5732" lon="1.15851">
        <ele>191.4</ele>
        <time>2024-07-23T13:22:50Z</time>
      </trkpt>
      <trkpt lat="44.57291" lon="1.15887">
        <ele>191.2</ele>
        <time>2024-07-23T13:22:59Z</time>
      </trkpt>
      <trkpt lat="44.57288" lon="1.15891">
        <ele>191.2</ele>
        <time>2024-07-23T13:23:00Z</time>
      </trkpt>
      <trkpt lat="44.57285" lon="1.15894">
        <ele>191.2</ele>
        <time>2024-07-23T13:23:01Z</time>
      </trkpt>
      <trkpt lat="44.57281" lon="1.15896">
        <ele>191.2</ele>
        <time>2024-07-23T13:23:02Z</time>
      </trkpt>
      <trkpt lat="44.57278" lon="1.15898">
        <ele>191.2</ele>
        <time>2024-07-23T13:23:03Z</time>
      </trkpt>
      <trkpt lat="44.57274" lon="1.15899">
        <ele>191.2</ele>
        <time>2024-07-23T13:23:04Z</time>
      </trkpt>
      <trkpt lat="44.5727" lon="1.15899">
        <ele>191.2</ele>
        <time>2024-07-23T13:23:05Z</time>
      </trkpt>
      <trkpt lat="44.57267" lon="1.15899">
        <ele>191.2</ele>
        <time>2024-07-23T13:23:06Z</time>
      </trkpt>
      <trkpt lat="44.57264" lon="1.15898">
        <ele>191.2</ele>
        <time>2024-07-23T13:23:07Z</time>
      </trkpt>
      <trkpt lat="44.5726" lon="1.15897">
        <ele>191.2</ele>
        <time>2024-07-23T13:23:08Z</time>
      </trkpt>
      <trkpt lat="44.57258" lon="1.15896">
        <ele>191.2</ele>
        <time>2024-07-23T13:23:09Z</time>
      </trkpt>
      <trkpt lat="44.57256" lon="1.15896">
        <ele>191.2</ele>
        <time>2024-07-23T13:23:10Z</time>
      </trkpt>
      <trkpt lat="44.57254" lon="1.15895">
        <ele>191.2</ele>
        <time>2024-07-23T13:23:11Z</time>
      </trkpt>
      <trkpt lat="44.57252" lon="1.15894">
        <ele>191.2</ele>
        <time>2024-07-23T13:23:12Z</time>
      </trkpt>
      <trkpt lat="44.5725" lon="1.15894">
        <ele>191.4</ele>
        <time>2024-07-23T13:23:13Z</time>
      </trkpt>
      <trkpt lat="44.57248" lon="1.15893">
        <ele>191.4</ele>
        <time>2024-07-23T13:23:14Z</time>
      </trkpt>
      <trkpt lat="44.57247" lon="1.15892">
        <ele>191.4</ele>
        <time>2024-07-23T13:23:15Z</time>
      </trkpt>
      <trkpt lat="44.57243" lon="1.15891">
        <ele>191.4</ele>
        <time>2024-07-23T13:23:17Z</time>
      </trkpt>
      <trkpt lat="44.57242" lon="1.15891">
        <ele>191.2</ele>
        <time>2024-07-23T13:23:18Z</time>
      </trkpt>
      <trkpt lat="44.57241" lon="1.15892">
        <ele>191.2</ele>
        <time>2024-07-23T13:23:19Z</time>
      </trkpt>
      <trkpt lat="44.57239" lon="1.15891">
        <ele>191</ele>
        <time>2024-07-23T13:23:20Z</time>
      </trkpt>
      <trkpt lat="44.57238" lon="1.15891">
        <ele>190.8</ele>
        <time>2024-07-23T13:23:21Z</time>
      </trkpt>
      <trkpt lat="44.57237" lon="1.15891">
        <ele>190.8</ele>
        <time>2024-07-23T13:23:22Z</time>
      </trkpt>
      <trkpt lat="44.57236" lon="1.15892">
        <ele>190.8</ele>
        <time>2024-07-23T13:23:23Z</time>
      </trkpt>
      <trkpt lat="44.57236" lon="1.15893">
        <ele>190.8</ele>
        <time>2024-07-23T13:23:24Z</time>
      </trkpt>
      <trkpt lat="44.57237" lon="1.15894">
        <ele>190.8</ele>
        <time>2024-07-23T13:23:25Z</time>
      </trkpt>
      <trkpt lat="44.57238" lon="1.15894">
        <ele>191</ele>
        <time>2024-07-23T13:23:26Z</time>
      </trkpt>
      <trkpt lat="44.57238" lon="1.15894">
        <ele>191</ele>
        <time>2024-07-23T13:23:27Z</time>
      </trkpt>
      <trkpt lat="44.57238" lon="1.15894">
        <ele>191</ele>
        <time>2024-07-23T13:23:29Z</time>
      </trkpt>
      <trkpt lat="44.57231" lon="1.1589">
        <ele>191.2</ele>
        <time>2024-07-23T13:23:39Z</time>
      </trkpt>
      <trkpt lat="44.57229" lon="1.15889">
        <ele>191.2</ele>
        <time>2024-07-23T13:23:40Z</time>
      </trkpt>
      <trkpt lat="44.57226" lon="1.15888">
        <ele>191.2</ele>
        <time>2024-07-23T13:23:42Z</time>
      </trkpt>
      <trkpt lat="44.57214" lon="1.15883">
        <ele>191.4</ele>
        <time>2024-07-23T13:23:47Z</time>
      </trkpt>
      <trkpt lat="44.57211" lon="1.15882">
        <ele>191.4</ele>
        <time>2024-07-23T13:23:48Z</time>
      </trkpt>
      <trkpt lat="44.57209" lon="1.15881">
        <ele>191.6</ele>
        <time>2024-07-23T13:23:49Z</time>
      </trkpt>
      <trkpt lat="44.57196" lon="1.15874">
        <ele>191.8</ele>
        <time>2024-07-23T13:23:54Z</time>
      </trkpt>
      <trkpt lat="44.57181" lon="1.15872">
        <ele>192</ele>
        <time>2024-07-23T13:24:00Z</time>
      </trkpt>
      <trkpt lat="44.57167" lon="1.15875">
        <ele>192.2</ele>
        <time>2024-07-23T13:24:05Z</time>
      </trkpt>
      <trkpt lat="44.57165" lon="1.15875">
        <ele>192.2</ele>
        <time>2024-07-23T13:24:06Z</time>
      </trkpt>
      <trkpt lat="44.57157" lon="1.15877">
        <ele>192.4</ele>
        <time>2024-07-23T13:24:08Z</time>
      </trkpt>
      <trkpt lat="44.57154" lon="1.15877">
        <ele>192.6</ele>
        <time>2024-07-23T13:24:09Z</time>
      </trkpt>
      <trkpt lat="44.57152" lon="1.15876">
        <ele>192.6</ele>
        <time>2024-07-23T13:24:10Z</time>
      </trkpt>
      <trkpt lat="44.57149" lon="1.15876">
        <ele>192.6</ele>
        <time>2024-07-23T13:24:11Z</time>
      </trkpt>
      <trkpt lat="44.57148" lon="1.15876">
        <ele>192.6</ele>
        <time>2024-07-23T13:24:12Z</time>
      </trkpt>
      <trkpt lat="44.57145" lon="1.15876">
        <ele>192.6</ele>
        <time>2024-07-23T13:24:13Z</time>
      </trkpt>
      <trkpt lat="44.57143" lon="1.15876">
        <ele>192.6</ele>
        <time>2024-07-23T13:24:14Z</time>
      </trkpt>
      <trkpt lat="44.5714" lon="1.15875">
        <ele>192.6</ele>
        <time>2024-07-23T13:24:15Z</time>
      </trkpt>
      <trkpt lat="44.57138" lon="1.15874">
        <ele>192.8</ele>
        <time>2024-07-23T13:24:16Z</time>
      </trkpt>
      <trkpt lat="44.57135" lon="1.15874">
        <ele>192.8</ele>
        <time>2024-07-23T13:24:17Z</time>
      </trkpt>
      <trkpt lat="44.57134" lon="1.15875">
        <ele>193</ele>
        <time>2024-07-23T13:24:18Z</time>
      </trkpt>
      <trkpt lat="44.57132" lon="1.15875">
        <ele>193.2</ele>
        <time>2024-07-23T13:24:19Z</time>
      </trkpt>
      <trkpt lat="44.5713" lon="1.15875">
        <ele>193.4</ele>
        <time>2024-07-23T13:24:20Z</time>
      </trkpt>
      <trkpt lat="44.57126" lon="1.15877">
        <ele>193.6</ele>
        <time>2024-07-23T13:24:21Z</time>
      </trkpt>
      <trkpt lat="44.57123" lon="1.15879">
        <ele>193.8</ele>
        <time>2024-07-23T13:24:22Z</time>
      </trkpt>
      <trkpt lat="44.57121" lon="1.15879">
        <ele>194</ele>
        <time>2024-07-23T13:24:23Z</time>
      </trkpt>
      <trkpt lat="44.57119" lon="1.1588">
        <ele>194</ele>
        <time>2024-07-23T13:24:24Z</time>
      </trkpt>
      <trkpt lat="44.57105" lon="1.15882">
        <ele>194.8</ele>
        <time>2024-07-23T13:24:28Z</time>
      </trkpt>
      <trkpt lat="44.57099" lon="1.15881">
        <ele>195.2</ele>
        <time>2024-07-23T13:24:31Z</time>
      </trkpt>
      <trkpt lat="44.57097" lon="1.1588">
        <ele>195.4</ele>
        <time>2024-07-23T13:24:32Z</time>
      </trkpt>
      <trkpt lat="44.57094" lon="1.1588">
        <ele>195.4</ele>
        <time>2024-07-23T13:24:33Z</time>
      </trkpt>
      <trkpt lat="44.57092" lon="1.15879">
        <ele>195.6</ele>
        <time>2024-07-23T13:24:34Z</time>
      </trkpt>
      <trkpt lat="44.5709" lon="1.15878">
        <ele>195.6</ele>
        <time>2024-07-23T13:24:35Z</time>
      </trkpt>
      <trkpt lat="44.57087" lon="1.15879">
        <ele>195.6</ele>
        <time>2024-07-23T13:24:36Z</time>
      </trkpt>
      <trkpt lat="44.57085" lon="1.1588">
        <ele>195.8</ele>
        <time>2024-07-23T13:24:37Z</time>
      </trkpt>
      <trkpt lat="44.57083" lon="1.15882">
        <ele>195.8</ele>
        <time>2024-07-23T13:24:38Z</time>
      </trkpt>
      <trkpt lat="44.5708" lon="1.15884">
        <ele>196</ele>
        <time>2024-07-23T13:24:39Z</time>
      </trkpt>
      <trkpt lat="44.57078" lon="1.15885">
        <ele>196</ele>
        <time>2024-07-23T13:24:40Z</time>
      </trkpt>
      <trkpt lat="44.57077" lon="1.15886">
        <ele>196</ele>
        <time>2024-07-23T13:24:41Z</time>
      </trkpt>
      <trkpt lat="44.57074" lon="1.15887">
        <ele>196.2</ele>
        <time>2024-07-23T13:24:42Z</time>
      </trkpt>
      <trkpt lat="44.57072" lon="1.15888">
        <ele>196.2</ele>
        <time>2024-07-23T13:24:43Z</time>
      </trkpt>
      <trkpt lat="44.5707" lon="1.15889">
        <ele>196.2</ele>
        <time>2024-07-23T13:24:44Z</time>
      </trkpt>
      <trkpt lat="44.57068" lon="1.15889">
        <ele>196.4</ele>
        <time>2024-07-23T13:24:45Z</time>
      </trkpt>
      <trkpt lat="44.57066" lon="1.1589">
        <ele>196.4</ele>
        <time>2024-07-23T13:24:46Z</time>
      </trkpt>
      <trkpt lat="44.57064" lon="1.15891">
        <ele>196.6</ele>
        <time>2024-07-23T13:24:47Z</time>
      </trkpt>
      <trkpt lat="44.57061" lon="1.15892">
        <ele>196.6</ele>
        <time>2024-07-23T13:24:48Z</time>
      </trkpt>
      <trkpt lat="44.57058" lon="1.15893">
        <ele>196.6</ele>
        <time>2024-07-23T13:24:49Z</time>
      </trkpt>
      <trkpt lat="44.57055" lon="1.15895">
        <ele>196.8</ele>
        <time>2024-07-23T13:24:50Z</time>
      </trkpt>
      <trkpt lat="44.57053" lon="1.15896">
        <ele>196.8</ele>
        <time>2024-07-23T13:24:51Z</time>
      </trkpt>
      <trkpt lat="44.5705" lon="1.15897">
        <ele>197</ele>
        <time>2024-07-23T13:24:52Z</time>
      </trkpt>
      <trkpt lat="44.57047" lon="1.15899">
        <ele>197</ele>
        <time>2024-07-23T13:24:53Z</time>
      </trkpt>
      <trkpt lat="44.57018" lon="1.1591">
        <ele>197.6</ele>
        <time>2024-07-23T13:25:03Z</time>
      </trkpt>
      <trkpt lat="44.57011" lon="1.15911">
        <ele>198</ele>
        <time>2024-07-23T13:25:05Z</time>
      </trkpt>
      <trkpt lat="44.56998" lon="1.15917">
        <ele>198.4</ele>
        <time>2024-07-23T13:25:10Z</time>
      </trkpt>
      <trkpt lat="44.56985" lon="1.15923">
        <ele>199</ele>
        <time>2024-07-23T13:25:16Z</time>
      </trkpt>
      <trkpt lat="44.56983" lon="1.15925">
        <ele>199.2</ele>
        <time>2024-07-23T13:25:17Z</time>
      </trkpt>
      <trkpt lat="44.56981" lon="1.15927">
        <ele>199.2</ele>
        <time>2024-07-23T13:25:18Z</time>
      </trkpt>
      <trkpt lat="44.56979" lon="1.15929">
        <ele>199.4</ele>
        <time>2024-07-23T13:25:19Z</time>
      </trkpt>
      <trkpt lat="44.56976" lon="1.15931">
        <ele>199.6</ele>
        <time>2024-07-23T13:25:21Z</time>
      </trkpt>
      <trkpt lat="44.56974" lon="1.15933">
        <ele>199.6</ele>
        <time>2024-07-23T13:25:22Z</time>
      </trkpt>
      <trkpt lat="44.56972" lon="1.15933">
        <ele>199.8</ele>
        <time>2024-07-23T13:25:23Z</time>
      </trkpt>
      <trkpt lat="44.56969" lon="1.15935">
        <ele>200</ele>
        <time>2024-07-23T13:25:25Z</time>
      </trkpt>
      <trkpt lat="44.56967" lon="1.15935">
        <ele>200.2</ele>
        <time>2024-07-23T13:25:26Z</time>
      </trkpt>
      <trkpt lat="44.56966" lon="1.15936">
        <ele>200.4</ele>
        <time>2024-07-23T13:25:27Z</time>
      </trkpt>
      <trkpt lat="44.56964" lon="1.15937">
        <ele>200.6</ele>
        <time>2024-07-23T13:25:28Z</time>
      </trkpt>
      <trkpt lat="44.56963" lon="1.15937">
        <ele>200.8</ele>
        <time>2024-07-23T13:25:29Z</time>
      </trkpt>
      <trkpt lat="44.56961" lon="1.15938">
        <ele>200.8</ele>
        <time>2024-07-23T13:25:30Z</time>
      </trkpt>
      <trkpt lat="44.5696" lon="1.15938">
        <ele>201</ele>
        <time>2024-07-23T13:25:31Z</time>
      </trkpt>
      <trkpt lat="44.56958" lon="1.15938">
        <ele>201</ele>
        <time>2024-07-23T13:25:32Z</time>
      </trkpt>
      <trkpt lat="44.56956" lon="1.15938">
        <ele>201</ele>
        <time>2024-07-23T13:25:33Z</time>
      </trkpt>
      <trkpt lat="44.56953" lon="1.15938">
        <ele>201.2</ele>
        <time>2024-07-23T13:25:34Z</time>
      </trkpt>
      <trkpt lat="44.56952" lon="1.15939">
        <ele>201.2</ele>
        <time>2024-07-23T13:25:35Z</time>
      </trkpt>
      <trkpt lat="44.5695" lon="1.15939">
        <ele>201.4</ele>
        <time>2024-07-23T13:25:36Z</time>
      </trkpt>
      <trkpt lat="44.56948" lon="1.15939">
        <ele>201.4</ele>
        <time>2024-07-23T13:25:37Z</time>
      </trkpt>
      <trkpt lat="44.56946" lon="1.15939">
        <ele>201.4</ele>
        <time>2024-07-23T13:25:38Z</time>
      </trkpt>
      <trkpt lat="44.56945" lon="1.15939">
        <ele>201.4</ele>
        <time>2024-07-23T13:25:39Z</time>
      </trkpt>
      <trkpt lat="44.56943" lon="1.15938">
        <ele>201.4</ele>
        <time>2024-07-23T13:25:40Z</time>
      </trkpt>
      <trkpt lat="44.56942" lon="1.15938">
        <ele>201.6</ele>
        <time>2024-07-23T13:25:41Z</time>
      </trkpt>
      <trkpt lat="44.5694" lon="1.15937">
        <ele>201.6</ele>
        <time>2024-07-23T13:25:42Z</time>
      </trkpt>
      <trkpt lat="44.56938" lon="1.15936">
        <ele>201.6</ele>
        <time>2024-07-23T13:25:43Z</time>
      </trkpt>
      <trkpt lat="44.56936" lon="1.15935">
        <ele>201.8</ele>
        <time>2024-07-23T13:25:44Z</time>
      </trkpt>
      <trkpt lat="44.56934" lon="1.15934">
        <ele>202</ele>
        <time>2024-07-23T13:25:45Z</time>
      </trkpt>
      <trkpt lat="44.5693" lon="1.15931">
        <ele>202.4</ele>
        <time>2024-07-23T13:25:47Z</time>
      </trkpt>
      <trkpt lat="44.5692" lon="1.15923">
        <ele>202.6</ele>
        <time>2024-07-23T13:25:51Z</time>
      </trkpt>
      <trkpt lat="44.56908" lon="1.15914">
        <ele>202.8</ele>
        <time>2024-07-23T13:25:55Z</time>
      </trkpt>
      <trkpt lat="44.56906" lon="1.15912">
        <ele>202.8</ele>
        <time>2024-07-23T13:25:56Z</time>
      </trkpt>
      <trkpt lat="44.5689" lon="1.15895">
        <ele>203</ele>
        <time>2024-07-23T13:26:02Z</time>
      </trkpt>
      <trkpt lat="44.56885" lon="1.1589">
        <ele>203</ele>
        <time>2024-07-23T13:26:04Z</time>
      </trkpt>
      <trkpt lat="44.56883" lon="1.15888">
        <ele>203</ele>
        <time>2024-07-23T13:26:05Z</time>
      </trkpt>
      <trkpt lat="44.56881" lon="1.15887">
        <ele>203</ele>
        <time>2024-07-23T13:26:06Z</time>
      </trkpt>
      <trkpt lat="44.56879" lon="1.15885">
        <ele>203</ele>
        <time>2024-07-23T13:26:07Z</time>
      </trkpt>
      <trkpt lat="44.56878" lon="1.15884">
        <ele>203</ele>
        <time>2024-07-23T13:26:08Z</time>
      </trkpt>
      <trkpt lat="44.56877" lon="1.15883">
        <ele>203.2</ele>
        <time>2024-07-23T13:26:09Z</time>
      </trkpt>
      <trkpt lat="44.56875" lon="1.1588">
        <ele>203.4</ele>
        <time>2024-07-23T13:26:10Z</time>
      </trkpt>
      <trkpt lat="44.56874" lon="1.15877">
        <ele>203.6</ele>
        <time>2024-07-23T13:26:11Z</time>
      </trkpt>
      <trkpt lat="44.56872" lon="1.15875">
        <ele>203.6</ele>
        <time>2024-07-23T13:26:12Z</time>
      </trkpt>
      <trkpt lat="44.56869" lon="1.15873">
        <ele>203.6</ele>
        <time>2024-07-23T13:26:13Z</time>
      </trkpt>
      <trkpt lat="44.56868" lon="1.15872">
        <ele>203.8</ele>
        <time>2024-07-23T13:26:14Z</time>
      </trkpt>
      <trkpt lat="44.56868" lon="1.15867">
        <ele>204</ele>
        <time>2024-07-23T13:26:16Z</time>
      </trkpt>
      <trkpt lat="44.56867" lon="1.15865">
        <ele>204.2</ele>
        <time>2024-07-23T13:26:17Z</time>
      </trkpt>
      <trkpt lat="44.56866" lon="1.15864">
        <ele>204.4</ele>
        <time>2024-07-23T13:26:18Z</time>
      </trkpt>
      <trkpt lat="44.56866" lon="1.15862">
        <ele>204.4</ele>
        <time>2024-07-23T13:26:19Z</time>
      </trkpt>
      <trkpt lat="44.56865" lon="1.15861">
        <ele>204.6</ele>
        <time>2024-07-23T13:26:20Z</time>
      </trkpt>
      <trkpt lat="44.56862" lon="1.15859">
        <ele>204.8</ele>
        <time>2024-07-23T13:26:22Z</time>
      </trkpt>
      <trkpt lat="44.56861" lon="1.15859">
        <ele>204.8</ele>
        <time>2024-07-23T13:26:23Z</time>
      </trkpt>
      <trkpt lat="44.56857" lon="1.15856">
        <ele>205.2</ele>
        <time>2024-07-23T13:26:26Z</time>
      </trkpt>
      <trkpt lat="44.56855" lon="1.15855">
        <ele>205.4</ele>
        <time>2024-07-23T13:26:27Z</time>
      </trkpt>
      <trkpt lat="44.56855" lon="1.15854">
        <ele>205.4</ele>
        <time>2024-07-23T13:26:28Z</time>
      </trkpt>
      <trkpt lat="44.56855" lon="1.15853">
        <ele>205.6</ele>
        <time>2024-07-23T13:26:29Z</time>
      </trkpt>
      <trkpt lat="44.56854" lon="1.15851">
        <ele>205.8</ele>
        <time>2024-07-23T13:26:30Z</time>
      </trkpt>
      <trkpt lat="44.56854" lon="1.15849">
        <ele>206.2</ele>
        <time>2024-07-23T13:26:31Z</time>
      </trkpt>
      <trkpt lat="44.56853" lon="1.15847">
        <ele>206.4</ele>
        <time>2024-07-23T13:26:32Z</time>
      </trkpt>
      <trkpt lat="44.56852" lon="1.15845">
        <ele>206.6</ele>
        <time>2024-07-23T13:26:33Z</time>
      </trkpt>
      <trkpt lat="44.56851" lon="1.15844">
        <ele>206.8</ele>
        <time>2024-07-23T13:26:34Z</time>
      </trkpt>
      <trkpt lat="44.5685" lon="1.15842">
        <ele>206.8</ele>
        <time>2024-07-23T13:26:35Z</time>
      </trkpt>
      <trkpt lat="44.5685" lon="1.15841">
        <ele>207</ele>
        <time>2024-07-23T13:26:36Z</time>
      </trkpt>
      <trkpt lat="44.56849" lon="1.15841">
        <ele>207</ele>
        <time>2024-07-23T13:26:37Z</time>
      </trkpt>
      <trkpt lat="44.56847" lon="1.1584">
        <ele>207.2</ele>
        <time>2024-07-23T13:26:38Z</time>
      </trkpt>
      <trkpt lat="44.56846" lon="1.15839">
        <ele>207.4</ele>
        <time>2024-07-23T13:26:39Z</time>
      </trkpt>
      <trkpt lat="44.56845" lon="1.15837">
        <ele>207.6</ele>
        <time>2024-07-23T13:26:40Z</time>
      </trkpt>
      <trkpt lat="44.56844" lon="1.15836">
        <ele>207.8</ele>
        <time>2024-07-23T13:26:41Z</time>
      </trkpt>
      <trkpt lat="44.56844" lon="1.15835">
        <ele>207.8</ele>
        <time>2024-07-23T13:26:42Z</time>
      </trkpt>
      <trkpt lat="44.56843" lon="1.15834">
        <ele>208</ele>
        <time>2024-07-23T13:26:43Z</time>
      </trkpt>
      <trkpt lat="44.56841" lon="1.15833">
        <ele>208.2</ele>
        <time>2024-07-23T13:26:44Z</time>
      </trkpt>
      <trkpt lat="44.5684" lon="1.15832">
        <ele>208.4</ele>
        <time>2024-07-23T13:26:45Z</time>
      </trkpt>
      <trkpt lat="44.56839" lon="1.15831">
        <ele>208.6</ele>
        <time>2024-07-23T13:26:46Z</time>
      </trkpt>
      <trkpt lat="44.56838" lon="1.1583">
        <ele>208.8</ele>
        <time>2024-07-23T13:26:47Z</time>
      </trkpt>
      <trkpt lat="44.56837" lon="1.15828">
        <ele>209</ele>
        <time>2024-07-23T13:26:48Z</time>
      </trkpt>
      <trkpt lat="44.56836" lon="1.15827">
        <ele>209</ele>
        <time>2024-07-23T13:26:49Z</time>
      </trkpt>
      <trkpt lat="44.56834" lon="1.15826">
        <ele>209.2</ele>
        <time>2024-07-23T13:26:50Z</time>
      </trkpt>
      <trkpt lat="44.56833" lon="1.15825">
        <ele>209.4</ele>
        <time>2024-07-23T13:26:51Z</time>
      </trkpt>
      <trkpt lat="44.56832" lon="1.15825">
        <ele>209.4</ele>
        <time>2024-07-23T13:26:52Z</time>
      </trkpt>
      <trkpt lat="44.5683" lon="1.15823">
        <ele>209.6</ele>
        <time>2024-07-23T13:26:53Z</time>
      </trkpt>
      <trkpt lat="44.56829" lon="1.1582">
        <ele>209.8</ele>
        <time>2024-07-23T13:26:54Z</time>
      </trkpt>
      <trkpt lat="44.56828" lon="1.1582">
        <ele>209.8</ele>
        <time>2024-07-23T13:26:55Z</time>
      </trkpt>
      <trkpt lat="44.56827" lon="1.15818">
        <ele>210</ele>
        <time>2024-07-23T13:26:56Z</time>
      </trkpt>
      <trkpt lat="44.56826" lon="1.15817">
        <ele>210</ele>
        <time>2024-07-23T13:26:57Z</time>
      </trkpt>
      <trkpt lat="44.56825" lon="1.15816">
        <ele>210.4</ele>
        <time>2024-07-23T13:26:58Z</time>
      </trkpt>
      <trkpt lat="44.56824" lon="1.15815">
        <ele>210.4</ele>
        <time>2024-07-23T13:26:59Z</time>
      </trkpt>
      <trkpt lat="44.56823" lon="1.15813">
        <ele>210.6</ele>
        <time>2024-07-23T13:27:00Z</time>
      </trkpt>
      <trkpt lat="44.56824" lon="1.15812">
        <ele>210.6</ele>
        <time>2024-07-23T13:27:01Z</time>
      </trkpt>
      <trkpt lat="44.56824" lon="1.15809">
        <ele>210.8</ele>
        <time>2024-07-23T13:27:02Z</time>
      </trkpt>
      <trkpt lat="44.56823" lon="1.15807">
        <ele>211</ele>
        <time>2024-07-23T13:27:03Z</time>
      </trkpt>
      <trkpt lat="44.56821" lon="1.15806">
        <ele>211</ele>
        <time>2024-07-23T13:27:04Z</time>
      </trkpt>
      <trkpt lat="44.5682" lon="1.15807">
        <ele>211.4</ele>
        <time>2024-07-23T13:27:05Z</time>
      </trkpt>
      <trkpt lat="44.56818" lon="1.15806">
        <ele>211.6</ele>
        <time>2024-07-23T13:27:06Z</time>
      </trkpt>
      <trkpt lat="44.56817" lon="1.15806">
        <ele>211.8</ele>
        <time>2024-07-23T13:27:07Z</time>
      </trkpt>
      <trkpt lat="44.56817" lon="1.15806">
        <ele>212</ele>
        <time>2024-07-23T13:27:08Z</time>
      </trkpt>
      <trkpt lat="44.56816" lon="1.15805">
        <ele>212</ele>
        <time>2024-07-23T13:27:09Z</time>
      </trkpt>
      <trkpt lat="44.56815" lon="1.15804">
        <ele>212.4</ele>
        <time>2024-07-23T13:27:10Z</time>
      </trkpt>
      <trkpt lat="44.56815" lon="1.15804">
        <ele>212.4</ele>
        <time>2024-07-23T13:27:11Z</time>
      </trkpt>
      <trkpt lat="44.56814" lon="1.15803">
        <ele>212.8</ele>
        <time>2024-07-23T13:27:12Z</time>
      </trkpt>
      <trkpt lat="44.56813" lon="1.15802">
        <ele>213</ele>
        <time>2024-07-23T13:27:13Z</time>
      </trkpt>
      <trkpt lat="44.56812" lon="1.15801">
        <ele>213.4</ele>
        <time>2024-07-23T13:27:14Z</time>
      </trkpt>
      <trkpt lat="44.56811" lon="1.15801">
        <ele>213.6</ele>
        <time>2024-07-23T13:27:15Z</time>
      </trkpt>
      <trkpt lat="44.5681" lon="1.158">
        <ele>213.8</ele>
        <time>2024-07-23T13:27:16Z</time>
      </trkpt>
      <trkpt lat="44.5681" lon="1.158">
        <ele>214</ele>
        <time>2024-07-23T13:27:17Z</time>
      </trkpt>
      <trkpt lat="44.56809" lon="1.15799">
        <ele>214.2</ele>
        <time>2024-07-23T13:27:18Z</time>
      </trkpt>
      <trkpt lat="44.56808" lon="1.15798">
        <ele>214.4</ele>
        <time>2024-07-23T13:27:19Z</time>
      </trkpt>
      <trkpt lat="44.56807" lon="1.15797">
        <ele>214.6</ele>
        <time>2024-07-23T13:27:20Z</time>
      </trkpt>
      <trkpt lat="44.56806" lon="1.15796">
        <ele>214.8</ele>
        <time>2024-07-23T13:27:21Z</time>
      </trkpt>
      <trkpt lat="44.56805" lon="1.15796">
        <ele>215</ele>
        <time>2024-07-23T13:27:22Z</time>
      </trkpt>
      <trkpt lat="44.56805" lon="1.15796">
        <ele>215</ele>
        <time>2024-07-23T13:27:23Z</time>
      </trkpt>
      <trkpt lat="44.56805" lon="1.15796">
        <ele>215.2</ele>
        <time>2024-07-23T13:27:24Z</time>
      </trkpt>
      <trkpt lat="44.56805" lon="1.15795">
        <ele>215.4</ele>
        <time>2024-07-23T13:27:25Z</time>
      </trkpt>
      <trkpt lat="44.56804" lon="1.15794">
        <ele>215.8</ele>
        <time>2024-07-23T13:27:26Z</time>
      </trkpt>
      <trkpt lat="44.56803" lon="1.15793">
        <ele>216.2</ele>
        <time>2024-07-23T13:27:27Z</time>
      </trkpt>
      <trkpt lat="44.56802" lon="1.15792">
        <ele>216.2</ele>
        <time>2024-07-23T13:27:28Z</time>
      </trkpt>
      <trkpt lat="44.56801" lon="1.1579">
        <ele>216.4</ele>
        <time>2024-07-23T13:27:29Z</time>
      </trkpt>
      <trkpt lat="44.56801" lon="1.1579">
        <ele>216.4</ele>
        <time>2024-07-23T13:27:30Z</time>
      </trkpt>
      <trkpt lat="44.568" lon="1.15788">
        <ele>216.6</ele>
        <time>2024-07-23T13:27:31Z</time>
      </trkpt>
      <trkpt lat="44.56799" lon="1.15787">
        <ele>216.8</ele>
        <time>2024-07-23T13:27:32Z</time>
      </trkpt>
      <trkpt lat="44.56798" lon="1.15786">
        <ele>217</ele>
        <time>2024-07-23T13:27:33Z</time>
      </trkpt>
      <trkpt lat="44.56796" lon="1.15783">
        <ele>217.2</ele>
        <time>2024-07-23T13:27:34Z</time>
      </trkpt>
      <trkpt lat="44.56796" lon="1.15783">
        <ele>217.4</ele>
        <time>2024-07-23T13:27:35Z</time>
      </trkpt>
      <trkpt lat="44.56796" lon="1.15783">
        <ele>217.4</ele>
        <time>2024-07-23T13:27:36Z</time>
      </trkpt>
      <trkpt lat="44.56796" lon="1.15782">
        <ele>217.6</ele>
        <time>2024-07-23T13:27:37Z</time>
      </trkpt>
      <trkpt lat="44.56796" lon="1.15781">
        <ele>217.8</ele>
        <time>2024-07-23T13:27:38Z</time>
      </trkpt>
      <trkpt lat="44.56794" lon="1.15778">
        <ele>218</ele>
        <time>2024-07-23T13:27:39Z</time>
      </trkpt>
      <trkpt lat="44.56794" lon="1.15778">
        <ele>218.2</ele>
        <time>2024-07-23T13:27:40Z</time>
      </trkpt>
      <trkpt lat="44.56794" lon="1.15777">
        <ele>218.4</ele>
        <time>2024-07-23T13:27:41Z</time>
      </trkpt>
      <trkpt lat="44.56793" lon="1.15774">
        <ele>218.6</ele>
        <time>2024-07-23T13:27:42Z</time>
      </trkpt>
      <trkpt lat="44.56791" lon="1.15771">
        <ele>218.8</ele>
        <time>2024-07-23T13:27:43Z</time>
      </trkpt>
      <trkpt lat="44.56788" lon="1.15768">
        <ele>218.8</ele>
        <time>2024-07-23T13:27:44Z</time>
      </trkpt>
      <trkpt lat="44.56787" lon="1.15765">
        <ele>218.8</ele>
        <time>2024-07-23T13:27:45Z</time>
      </trkpt>
      <trkpt lat="44.56785" lon="1.15762">
        <ele>219</ele>
        <time>2024-07-23T13:27:46Z</time>
      </trkpt>
      <trkpt lat="44.56784" lon="1.15762">
        <ele>219.2</ele>
        <time>2024-07-23T13:27:47Z</time>
      </trkpt>
      <trkpt lat="44.56784" lon="1.15761">
        <ele>219.4</ele>
        <time>2024-07-23T13:27:48Z</time>
      </trkpt>
      <trkpt lat="44.56785" lon="1.1576">
        <ele>219.8</ele>
        <time>2024-07-23T13:27:49Z</time>
      </trkpt>
      <trkpt lat="44.56785" lon="1.15758">
        <ele>219.8</ele>
        <time>2024-07-23T13:27:50Z</time>
      </trkpt>
      <trkpt lat="44.56783" lon="1.15757">
        <ele>220.2</ele>
        <time>2024-07-23T13:27:51Z</time>
      </trkpt>
      <trkpt lat="44.56782" lon="1.15757">
        <ele>220.2</ele>
        <time>2024-07-23T13:27:52Z</time>
      </trkpt>
      <trkpt lat="44.56781" lon="1.15756">
        <ele>220.6</ele>
        <time>2024-07-23T13:27:53Z</time>
      </trkpt>
      <trkpt lat="44.5678" lon="1.15755">
        <ele>220.6</ele>
        <time>2024-07-23T13:27:54Z</time>
      </trkpt>
      <trkpt lat="44.56779" lon="1.15754">
        <ele>220.8</ele>
        <time>2024-07-23T13:27:55Z</time>
      </trkpt>
      <trkpt lat="44.56779" lon="1.15754">
        <ele>221</ele>
        <time>2024-07-23T13:27:56Z</time>
      </trkpt>
      <trkpt lat="44.56778" lon="1.15753">
        <ele>221</ele>
        <time>2024-07-23T13:27:57Z</time>
      </trkpt>
      <trkpt lat="44.56777" lon="1.15752">
        <ele>221.2</ele>
        <time>2024-07-23T13:27:58Z</time>
      </trkpt>
      <trkpt lat="44.56776" lon="1.15751">
        <ele>221.2</ele>
        <time>2024-07-23T13:27:59Z</time>
      </trkpt>
      <trkpt lat="44.56775" lon="1.1575">
        <ele>221.4</ele>
        <time>2024-07-23T13:28:00Z</time>
      </trkpt>
      <trkpt lat="44.56775" lon="1.15748">
        <ele>221.6</ele>
        <time>2024-07-23T13:28:01Z</time>
      </trkpt>
      <trkpt lat="44.56773" lon="1.15747">
        <ele>221.8</ele>
        <time>2024-07-23T13:28:02Z</time>
      </trkpt>
      <trkpt lat="44.56772" lon="1.15745">
        <ele>221.8</ele>
        <time>2024-07-23T13:28:03Z</time>
      </trkpt>
      <trkpt lat="44.56771" lon="1.15743">
        <ele>222</ele>
        <time>2024-07-23T13:28:04Z</time>
      </trkpt>
      <trkpt lat="44.56771" lon="1.15743">
        <ele>222.2</ele>
        <time>2024-07-23T13:28:05Z</time>
      </trkpt>
      <trkpt lat="44.5677" lon="1.15742">
        <ele>222.2</ele>
        <time>2024-07-23T13:28:06Z</time>
      </trkpt>
      <trkpt lat="44.56769" lon="1.15741">
        <ele>222.4</ele>
        <time>2024-07-23T13:28:07Z</time>
      </trkpt>
      <trkpt lat="44.56768" lon="1.15739">
        <ele>222.4</ele>
        <time>2024-07-23T13:28:08Z</time>
      </trkpt>
      <trkpt lat="44.56766" lon="1.15738">
        <ele>222.6</ele>
        <time>2024-07-23T13:28:09Z</time>
      </trkpt>
      <trkpt lat="44.56765" lon="1.15737">
        <ele>222.8</ele>
        <time>2024-07-23T13:28:10Z</time>
      </trkpt>
      <trkpt lat="44.56764" lon="1.15736">
        <ele>223</ele>
        <time>2024-07-23T13:28:11Z</time>
      </trkpt>
      <trkpt lat="44.56763" lon="1.15736">
        <ele>223.2</ele>
        <time>2024-07-23T13:28:12Z</time>
      </trkpt>
      <trkpt lat="44.56763" lon="1.15735">
        <ele>223.4</ele>
        <time>2024-07-23T13:28:13Z</time>
      </trkpt>
      <trkpt lat="44.56762" lon="1.15734">
        <ele>223.4</ele>
        <time>2024-07-23T13:28:14Z</time>
      </trkpt>
      <trkpt lat="44.56761" lon="1.15733">
        <ele>223.6</ele>
        <time>2024-07-23T13:28:15Z</time>
      </trkpt>
      <trkpt lat="44.56759" lon="1.15731">
        <ele>223.6</ele>
        <time>2024-07-23T13:28:16Z</time>
      </trkpt>
      <trkpt lat="44.56757" lon="1.15729">
        <ele>223.8</ele>
        <time>2024-07-23T13:28:17Z</time>
      </trkpt>
      <trkpt lat="44.56756" lon="1.15728">
        <ele>224</ele>
        <time>2024-07-23T13:28:18Z</time>
      </trkpt>
      <trkpt lat="44.56755" lon="1.15727">
        <ele>224</ele>
        <time>2024-07-23T13:28:19Z</time>
      </trkpt>
      <trkpt lat="44.56753" lon="1.15726">
        <ele>224.2</ele>
        <time>2024-07-23T13:28:20Z</time>
      </trkpt>
      <trkpt lat="44.56752" lon="1.15726">
        <ele>224.4</ele>
        <time>2024-07-23T13:28:21Z</time>
      </trkpt>
      <trkpt lat="44.56751" lon="1.15725">
        <ele>224.6</ele>
        <time>2024-07-23T13:28:22Z</time>
      </trkpt>
      <trkpt lat="44.5675" lon="1.15724">
        <ele>224.6</ele>
        <time>2024-07-23T13:28:23Z</time>
      </trkpt>
      <trkpt lat="44.56748" lon="1.15724">
        <ele>224.8</ele>
        <time>2024-07-23T13:28:24Z</time>
      </trkpt>
      <trkpt lat="44.56747" lon="1.15723">
        <ele>224.8</ele>
        <time>2024-07-23T13:28:25Z</time>
      </trkpt>
      <trkpt lat="44.56745" lon="1.15722">
        <ele>224.8</ele>
        <time>2024-07-23T13:28:26Z</time>
      </trkpt>
      <trkpt lat="44.56744" lon="1.15721">
        <ele>225</ele>
        <time>2024-07-23T13:28:27Z</time>
      </trkpt>
      <trkpt lat="44.56742" lon="1.1572">
        <ele>225</ele>
        <time>2024-07-23T13:28:28Z</time>
      </trkpt>
      <trkpt lat="44.5674" lon="1.15719">
        <ele>225</ele>
        <time>2024-07-23T13:28:29Z</time>
      </trkpt>
      <trkpt lat="44.56738" lon="1.15717">
        <ele>225</ele>
        <time>2024-07-23T13:28:30Z</time>
      </trkpt>
      <trkpt lat="44.56736" lon="1.15716">
        <ele>225.2</ele>
        <time>2024-07-23T13:28:31Z</time>
      </trkpt>
      <trkpt lat="44.56735" lon="1.15715">
        <ele>225.4</ele>
        <time>2024-07-23T13:28:32Z</time>
      </trkpt>
      <trkpt lat="44.56733" lon="1.15715">
        <ele>225.6</ele>
        <time>2024-07-23T13:28:33Z</time>
      </trkpt>
      <trkpt lat="44.56732" lon="1.15713">
        <ele>225.6</ele>
        <time>2024-07-23T13:28:34Z</time>
      </trkpt>
      <trkpt lat="44.5673" lon="1.15712">
        <ele>225.6</ele>
        <time>2024-07-23T13:28:35Z</time>
      </trkpt>
      <trkpt lat="44.56729" lon="1.15711">
        <ele>225.6</ele>
        <time>2024-07-23T13:28:36Z</time>
      </trkpt>
      <trkpt lat="44.56727" lon="1.1571">
        <ele>225.8</ele>
        <time>2024-07-23T13:28:37Z</time>
      </trkpt>
      <trkpt lat="44.56727" lon="1.15709">
        <ele>225.8</ele>
        <time>2024-07-23T13:28:38Z</time>
      </trkpt>
      <trkpt lat="44.56726" lon="1.15709">
        <ele>226</ele>
        <time>2024-07-23T13:28:39Z</time>
      </trkpt>
      <trkpt lat="44.56724" lon="1.15708">
        <ele>225.8</ele>
        <time>2024-07-23T13:28:40Z</time>
      </trkpt>
      <trkpt lat="44.56722" lon="1.15707">
        <ele>226.2</ele>
        <time>2024-07-23T13:28:41Z</time>
      </trkpt>
      <trkpt lat="44.56721" lon="1.15706">
        <ele>226.2</ele>
        <time>2024-07-23T13:28:42Z</time>
      </trkpt>
      <trkpt lat="44.56719" lon="1.15705">
        <ele>226.2</ele>
        <time>2024-07-23T13:28:43Z</time>
      </trkpt>
      <trkpt lat="44.56718" lon="1.15705">
        <ele>226.4</ele>
        <time>2024-07-23T13:28:44Z</time>
      </trkpt>
      <trkpt lat="44.56717" lon="1.15703">
        <ele>226.4</ele>
        <time>2024-07-23T13:28:45Z</time>
      </trkpt>
      <trkpt lat="44.56716" lon="1.15703">
        <ele>226.4</ele>
        <time>2024-07-23T13:28:46Z</time>
      </trkpt>
      <trkpt lat="44.56708" lon="1.15697">
        <ele>227</ele>
        <time>2024-07-23T13:28:50Z</time>
      </trkpt>
      <trkpt lat="44.56706" lon="1.15694">
        <ele>227.2</ele>
        <time>2024-07-23T13:28:51Z</time>
      </trkpt>
      <trkpt lat="44.56699" lon="1.15684">
        <ele>227.6</ele>
        <time>2024-07-23T13:28:57Z</time>
      </trkpt>
      <trkpt lat="44.56697" lon="1.15684">
        <ele>227.8</ele>
        <time>2024-07-23T13:28:58Z</time>
      </trkpt>
      <trkpt lat="44.56696" lon="1.15684">
        <ele>227.8</ele>
        <time>2024-07-23T13:28:59Z</time>
      </trkpt>
      <trkpt lat="44.56695" lon="1.15685">
        <ele>228</ele>
        <time>2024-07-23T13:29:00Z</time>
      </trkpt>
      <trkpt lat="44.56694" lon="1.15686">
        <ele>228.2</ele>
        <time>2024-07-23T13:29:01Z</time>
      </trkpt>
      <trkpt lat="44.56691" lon="1.15688">
        <ele>228.2</ele>
        <time>2024-07-23T13:29:02Z</time>
      </trkpt>
      <trkpt lat="44.56691" lon="1.15688">
        <ele>228.4</ele>
        <time>2024-07-23T13:29:03Z</time>
      </trkpt>
      <trkpt lat="44.5669" lon="1.15688">
        <ele>228.4</ele>
        <time>2024-07-23T13:29:04Z</time>
      </trkpt>
      <trkpt lat="44.56689" lon="1.15687">
        <ele>228.6</ele>
        <time>2024-07-23T13:29:05Z</time>
      </trkpt>
      <trkpt lat="44.56688" lon="1.15687">
        <ele>228.6</ele>
        <time>2024-07-23T13:29:06Z</time>
      </trkpt>
      <trkpt lat="44.56687" lon="1.15687">
        <ele>228.8</ele>
        <time>2024-07-23T13:29:07Z</time>
      </trkpt>
      <trkpt lat="44.56686" lon="1.15688">
        <ele>229</ele>
        <time>2024-07-23T13:29:08Z</time>
      </trkpt>
      <trkpt lat="44.56685" lon="1.15689">
        <ele>229</ele>
        <time>2024-07-23T13:29:09Z</time>
      </trkpt>
      <trkpt lat="44.56684" lon="1.15689">
        <ele>229.2</ele>
        <time>2024-07-23T13:29:10Z</time>
      </trkpt>
      <trkpt lat="44.56682" lon="1.1569">
        <ele>229.2</ele>
        <time>2024-07-23T13:29:11Z</time>
      </trkpt>
      <trkpt lat="44.56681" lon="1.15692">
        <ele>229.4</ele>
        <time>2024-07-23T13:29:12Z</time>
      </trkpt>
      <trkpt lat="44.5668" lon="1.15693">
        <ele>229.6</ele>
        <time>2024-07-23T13:29:13Z</time>
      </trkpt>
      <trkpt lat="44.56679" lon="1.15694">
        <ele>229.6</ele>
        <time>2024-07-23T13:29:14Z</time>
      </trkpt>
      <trkpt lat="44.56678" lon="1.15695">
        <ele>229.8</ele>
        <time>2024-07-23T13:29:15Z</time>
      </trkpt>
      <trkpt lat="44.56677" lon="1.15695">
        <ele>230</ele>
        <time>2024-07-23T13:29:16Z</time>
      </trkpt>
      <trkpt lat="44.56676" lon="1.15696">
        <ele>230</ele>
        <time>2024-07-23T13:29:17Z</time>
      </trkpt>
      <trkpt lat="44.56676" lon="1.15696">
        <ele>230.2</ele>
        <time>2024-07-23T13:29:18Z</time>
      </trkpt>
      <trkpt lat="44.56675" lon="1.15697">
        <ele>230.4</ele>
        <time>2024-07-23T13:29:19Z</time>
      </trkpt>
      <trkpt lat="44.56673" lon="1.15698">
        <ele>230.6</ele>
        <time>2024-07-23T13:29:20Z</time>
      </trkpt>
      <trkpt lat="44.56671" lon="1.15698">
        <ele>230.8</ele>
        <time>2024-07-23T13:29:21Z</time>
      </trkpt>
      <trkpt lat="44.56669" lon="1.15699">
        <ele>231</ele>
        <time>2024-07-23T13:29:22Z</time>
      </trkpt>
      <trkpt lat="44.56669" lon="1.15699">
        <ele>231.2</ele>
        <time>2024-07-23T13:29:23Z</time>
      </trkpt>
      <trkpt lat="44.56668" lon="1.15699">
        <ele>231.4</ele>
        <time>2024-07-23T13:29:24Z</time>
      </trkpt>
      <trkpt lat="44.56667" lon="1.15699">
        <ele>231.6</ele>
        <time>2024-07-23T13:29:25Z</time>
      </trkpt>
      <trkpt lat="44.56665" lon="1.157">
        <ele>231.6</ele>
        <time>2024-07-23T13:29:26Z</time>
      </trkpt>
      <trkpt lat="44.56664" lon="1.15702">
        <ele>231.8</ele>
        <time>2024-07-23T13:29:27Z</time>
      </trkpt>
      <trkpt lat="44.56661" lon="1.15703">
        <ele>231.8</ele>
        <time>2024-07-23T13:29:28Z</time>
      </trkpt>
      <trkpt lat="44.5666" lon="1.15704">
        <ele>232</ele>
        <time>2024-07-23T13:29:29Z</time>
      </trkpt>
      <trkpt lat="44.56658" lon="1.15705">
        <ele>232.2</ele>
        <time>2024-07-23T13:29:30Z</time>
      </trkpt>
      <trkpt lat="44.56657" lon="1.15707">
        <ele>232.2</ele>
        <time>2024-07-23T13:29:31Z</time>
      </trkpt>
      <trkpt lat="44.56656" lon="1.15708">
        <ele>232.6</ele>
        <time>2024-07-23T13:29:32Z</time>
      </trkpt>
      <trkpt lat="44.56655" lon="1.15709">
        <ele>232.6</ele>
        <time>2024-07-23T13:29:33Z</time>
      </trkpt>
      <trkpt lat="44.56655" lon="1.1571">
        <ele>232.8</ele>
        <time>2024-07-23T13:29:34Z</time>
      </trkpt>
      <trkpt lat="44.56654" lon="1.1571">
        <ele>232.8</ele>
        <time>2024-07-23T13:29:35Z</time>
      </trkpt>
      <trkpt lat="44.56654" lon="1.1571">
        <ele>233</ele>
        <time>2024-07-23T13:29:36Z</time>
      </trkpt>
      <trkpt lat="44.56653" lon="1.15711">
        <ele>233.2</ele>
        <time>2024-07-23T13:29:37Z</time>
      </trkpt>
      <trkpt lat="44.56651" lon="1.15711">
        <ele>233.2</ele>
        <time>2024-07-23T13:29:38Z</time>
      </trkpt>
      <trkpt lat="44.5665" lon="1.15712">
        <ele>233.6</ele>
        <time>2024-07-23T13:29:39Z</time>
      </trkpt>
      <trkpt lat="44.56649" lon="1.15713">
        <ele>233.6</ele>
        <time>2024-07-23T13:29:40Z</time>
      </trkpt>
      <trkpt lat="44.56648" lon="1.15713">
        <ele>233.8</ele>
        <time>2024-07-23T13:29:41Z</time>
      </trkpt>
      <trkpt lat="44.56647" lon="1.15714">
        <ele>233.8</ele>
        <time>2024-07-23T13:29:42Z</time>
      </trkpt>
      <trkpt lat="44.56645" lon="1.15714">
        <ele>234</ele>
        <time>2024-07-23T13:29:43Z</time>
      </trkpt>
      <trkpt lat="44.56644" lon="1.15714">
        <ele>234.2</ele>
        <time>2024-07-23T13:29:44Z</time>
      </trkpt>
      <trkpt lat="44.56644" lon="1.15714">
        <ele>234.2</ele>
        <time>2024-07-23T13:29:45Z</time>
      </trkpt>
      <trkpt lat="44.56643" lon="1.15714">
        <ele>234.4</ele>
        <time>2024-07-23T13:29:46Z</time>
      </trkpt>
      <trkpt lat="44.56641" lon="1.15714">
        <ele>234.4</ele>
        <time>2024-07-23T13:29:47Z</time>
      </trkpt>
      <trkpt lat="44.5664" lon="1.15715">
        <ele>234.6</ele>
        <time>2024-07-23T13:29:48Z</time>
      </trkpt>
      <trkpt lat="44.56639" lon="1.15715">
        <ele>234.8</ele>
        <time>2024-07-23T13:29:49Z</time>
      </trkpt>
      <trkpt lat="44.56639" lon="1.15715">
        <ele>234.8</ele>
        <time>2024-07-23T13:29:50Z</time>
      </trkpt>
      <trkpt lat="44.56638" lon="1.15716">
        <ele>235</ele>
        <time>2024-07-23T13:29:51Z</time>
      </trkpt>
      <trkpt lat="44.56636" lon="1.15716">
        <ele>235.2</ele>
        <time>2024-07-23T13:29:52Z</time>
      </trkpt>
      <trkpt lat="44.56634" lon="1.15717">
        <ele>235.4</ele>
        <time>2024-07-23T13:29:53Z</time>
      </trkpt>
      <trkpt lat="44.56632" lon="1.15717">
        <ele>235.4</ele>
        <time>2024-07-23T13:29:54Z</time>
      </trkpt>
      <trkpt lat="44.5663" lon="1.15717">
        <ele>235.4</ele>
        <time>2024-07-23T13:29:55Z</time>
      </trkpt>
      <trkpt lat="44.56629" lon="1.15718">
        <ele>235.6</ele>
        <time>2024-07-23T13:29:56Z</time>
      </trkpt>
      <trkpt lat="44.56628" lon="1.15718">
        <ele>235.8</ele>
        <time>2024-07-23T13:29:57Z</time>
      </trkpt>
      <trkpt lat="44.56626" lon="1.15719">
        <ele>236</ele>
        <time>2024-07-23T13:29:58Z</time>
      </trkpt>
      <trkpt lat="44.56624" lon="1.15719">
        <ele>236</ele>
        <time>2024-07-23T13:29:59Z</time>
      </trkpt>
      <trkpt lat="44.56624" lon="1.15719">
        <ele>236.2</ele>
        <time>2024-07-23T13:30:00Z</time>
      </trkpt>
      <trkpt lat="44.56621" lon="1.15719">
        <ele>236.4</ele>
        <time>2024-07-23T13:30:01Z</time>
      </trkpt>
      <trkpt lat="44.56619" lon="1.1572">
        <ele>236.4</ele>
        <time>2024-07-23T13:30:02Z</time>
      </trkpt>
      <trkpt lat="44.56617" lon="1.1572">
        <ele>236.6</ele>
        <time>2024-07-23T13:30:03Z</time>
      </trkpt>
      <trkpt lat="44.56615" lon="1.1572">
        <ele>236.8</ele>
        <time>2024-07-23T13:30:04Z</time>
      </trkpt>
      <trkpt lat="44.56613" lon="1.15719">
        <ele>237.2</ele>
        <time>2024-07-23T13:30:05Z</time>
      </trkpt>
      <trkpt lat="44.56612" lon="1.15718">
        <ele>237.2</ele>
        <time>2024-07-23T13:30:06Z</time>
      </trkpt>
      <trkpt lat="44.56611" lon="1.15718">
        <ele>237.4</ele>
        <time>2024-07-23T13:30:07Z</time>
      </trkpt>
      <trkpt lat="44.56609" lon="1.15716">
        <ele>237.4</ele>
        <time>2024-07-23T13:30:08Z</time>
      </trkpt>
      <trkpt lat="44.56607" lon="1.15715">
        <ele>237.4</ele>
        <time>2024-07-23T13:30:09Z</time>
      </trkpt>
      <trkpt lat="44.56605" lon="1.15715">
        <ele>237.6</ele>
        <time>2024-07-23T13:30:10Z</time>
      </trkpt>
      <trkpt lat="44.56604" lon="1.15715">
        <ele>237.8</ele>
        <time>2024-07-23T13:30:11Z</time>
      </trkpt>
      <trkpt lat="44.56602" lon="1.15715">
        <ele>238</ele>
        <time>2024-07-23T13:30:12Z</time>
      </trkpt>
      <trkpt lat="44.56599" lon="1.15716">
        <ele>238.2</ele>
        <time>2024-07-23T13:30:13Z</time>
      </trkpt>
      <trkpt lat="44.56599" lon="1.15716">
        <ele>238.2</ele>
        <time>2024-07-23T13:30:14Z</time>
      </trkpt>
      <trkpt lat="44.56599" lon="1.15715">
        <ele>238.4</ele>
        <time>2024-07-23T13:30:15Z</time>
      </trkpt>
      <trkpt lat="44.56599" lon="1.15715">
        <ele>238.4</ele>
        <time>2024-07-23T13:30:16Z</time>
      </trkpt>
      <trkpt lat="44.56596" lon="1.15715">
        <ele>238.6</ele>
        <time>2024-07-23T13:30:17Z</time>
      </trkpt>
      <trkpt lat="44.56594" lon="1.15715">
        <ele>238.6</ele>
        <time>2024-07-23T13:30:18Z</time>
      </trkpt>
      <trkpt lat="44.56592" lon="1.15714">
        <ele>238.8</ele>
        <time>2024-07-23T13:30:19Z</time>
      </trkpt>
      <trkpt lat="44.5659" lon="1.15714">
        <ele>238.8</ele>
        <time>2024-07-23T13:30:20Z</time>
      </trkpt>
      <trkpt lat="44.56589" lon="1.15713">
        <ele>239</ele>
        <time>2024-07-23T13:30:21Z</time>
      </trkpt>
      <trkpt lat="44.56588" lon="1.15713">
        <ele>239.2</ele>
        <time>2024-07-23T13:30:22Z</time>
      </trkpt>
      <trkpt lat="44.56587" lon="1.15713">
        <ele>239.2</ele>
        <time>2024-07-23T13:30:23Z</time>
      </trkpt>
      <trkpt lat="44.56584" lon="1.15713">
        <ele>239.6</ele>
        <time>2024-07-23T13:30:24Z</time>
      </trkpt>
      <trkpt lat="44.56582" lon="1.15714">
        <ele>239.8</ele>
        <time>2024-07-23T13:30:25Z</time>
      </trkpt>
      <trkpt lat="44.56579" lon="1.15715">
        <ele>239.8</ele>
        <time>2024-07-23T13:30:26Z</time>
      </trkpt>
      <trkpt lat="44.56579" lon="1.15715">
        <ele>240</ele>
        <time>2024-07-23T13:30:27Z</time>
      </trkpt>
      <trkpt lat="44.56578" lon="1.15714">
        <ele>240.2</ele>
        <time>2024-07-23T13:30:28Z</time>
      </trkpt>
      <trkpt lat="44.56576" lon="1.15715">
        <ele>240.2</ele>
        <time>2024-07-23T13:30:29Z</time>
      </trkpt>
      <trkpt lat="44.56574" lon="1.15715">
        <ele>240.4</ele>
        <time>2024-07-23T13:30:30Z</time>
      </trkpt>
      <trkpt lat="44.56571" lon="1.15715">
        <ele>240.4</ele>
        <time>2024-07-23T13:30:31Z</time>
      </trkpt>
      <trkpt lat="44.5657" lon="1.15716">
        <ele>240.4</ele>
        <time>2024-07-23T13:30:32Z</time>
      </trkpt>
      <trkpt lat="44.56571" lon="1.15718">
        <ele>240.4</ele>
        <time>2024-07-23T13:30:33Z</time>
      </trkpt>
      <trkpt lat="44.56569" lon="1.15719">
        <ele>240.4</ele>
        <time>2024-07-23T13:30:34Z</time>
      </trkpt>
      <trkpt lat="44.56568" lon="1.1572">
        <ele>240.6</ele>
        <time>2024-07-23T13:30:35Z</time>
      </trkpt>
      <trkpt lat="44.56566" lon="1.15721">
        <ele>240.6</ele>
        <time>2024-07-23T13:30:36Z</time>
      </trkpt>
      <trkpt lat="44.56564" lon="1.15723">
        <ele>240.6</ele>
        <time>2024-07-23T13:30:37Z</time>
      </trkpt>
      <trkpt lat="44.56563" lon="1.15725">
        <ele>240.6</ele>
        <time>2024-07-23T13:30:38Z</time>
      </trkpt>
      <trkpt lat="44.5656" lon="1.15727">
        <ele>240.6</ele>
        <time>2024-07-23T13:30:39Z</time>
      </trkpt>
      <trkpt lat="44.56557" lon="1.15729">
        <ele>240.8</ele>
        <time>2024-07-23T13:30:40Z</time>
      </trkpt>
      <trkpt lat="44.56555" lon="1.1573">
        <ele>240.8</ele>
        <time>2024-07-23T13:30:41Z</time>
      </trkpt>
      <trkpt lat="44.56552" lon="1.15732">
        <ele>240.8</ele>
        <time>2024-07-23T13:30:42Z</time>
      </trkpt>
      <trkpt lat="44.56549" lon="1.15733">
        <ele>240.8</ele>
        <time>2024-07-23T13:30:43Z</time>
      </trkpt>
      <trkpt lat="44.56548" lon="1.15735">
        <ele>240.8</ele>
        <time>2024-07-23T13:30:44Z</time>
      </trkpt>
      <trkpt lat="44.56546" lon="1.15736">
        <ele>240.8</ele>
        <time>2024-07-23T13:30:45Z</time>
      </trkpt>
      <trkpt lat="44.56544" lon="1.15737">
        <ele>240.8</ele>
        <time>2024-07-23T13:30:46Z</time>
      </trkpt>
      <trkpt lat="44.5654" lon="1.15738">
        <ele>240.8</ele>
        <time>2024-07-23T13:30:48Z</time>
      </trkpt>
      <trkpt lat="44.56538" lon="1.15739">
        <ele>240.6</ele>
        <time>2024-07-23T13:30:49Z</time>
      </trkpt>
      <trkpt lat="44.56536" lon="1.15743">
        <ele>240.6</ele>
        <time>2024-07-23T13:30:51Z</time>
      </trkpt>
      <trkpt lat="44.56532" lon="1.15746">
        <ele>240.6</ele>
        <time>2024-07-23T13:30:52Z</time>
      </trkpt>
      <trkpt lat="44.56531" lon="1.15747">
        <ele>240.6</ele>
        <time>2024-07-23T13:30:53Z</time>
      </trkpt>
      <trkpt lat="44.5653" lon="1.15749">
        <ele>240.6</ele>
        <time>2024-07-23T13:30:54Z</time>
      </trkpt>
      <trkpt lat="44.56528" lon="1.15751">
        <ele>240.6</ele>
        <time>2024-07-23T13:30:55Z</time>
      </trkpt>
      <trkpt lat="44.56518" lon="1.15759">
        <ele>240.6</ele>
        <time>2024-07-23T13:30:59Z</time>
      </trkpt>
      <trkpt lat="44.56498" lon="1.15772">
        <ele>240.8</ele>
        <time>2024-07-23T13:31:07Z</time>
      </trkpt>
      <trkpt lat="44.56496" lon="1.15773">
        <ele>240.8</ele>
        <time>2024-07-23T13:31:08Z</time>
      </trkpt>
      <trkpt lat="44.56493" lon="1.15773">
        <ele>240.8</ele>
        <time>2024-07-23T13:31:09Z</time>
      </trkpt>
      <trkpt lat="44.56485" lon="1.15769">
        <ele>241</ele>
        <time>2024-07-23T13:31:13Z</time>
      </trkpt>
      <trkpt lat="44.56471" lon="1.15764">
        <ele>241.6</ele>
        <time>2024-07-23T13:31:19Z</time>
      </trkpt>
      <trkpt lat="44.56467" lon="1.15761">
        <ele>241.6</ele>
        <time>2024-07-23T13:31:21Z</time>
      </trkpt>
      <trkpt lat="44.56462" lon="1.15759">
        <ele>241.8</ele>
        <time>2024-07-23T13:31:23Z</time>
      </trkpt>
      <trkpt lat="44.56458" lon="1.15758">
        <ele>242</ele>
        <time>2024-07-23T13:31:25Z</time>
      </trkpt>
      <trkpt lat="44.56457" lon="1.15757">
        <ele>242</ele>
        <time>2024-07-23T13:31:26Z</time>
      </trkpt>
      <trkpt lat="44.56455" lon="1.15757">
        <ele>242.2</ele>
        <time>2024-07-23T13:31:27Z</time>
      </trkpt>
      <trkpt lat="44.56453" lon="1.15756">
        <ele>242.4</ele>
        <time>2024-07-23T13:31:28Z</time>
      </trkpt>
      <trkpt lat="44.56451" lon="1.15755">
        <ele>242.4</ele>
        <time>2024-07-23T13:31:29Z</time>
      </trkpt>
      <trkpt lat="44.56449" lon="1.15755">
        <ele>242.4</ele>
        <time>2024-07-23T13:31:30Z</time>
      </trkpt>
      <trkpt lat="44.56447" lon="1.15754">
        <ele>242.6</ele>
        <time>2024-07-23T13:31:31Z</time>
      </trkpt>
      <trkpt lat="44.56443" lon="1.15752">
        <ele>243</ele>
        <time>2024-07-23T13:31:33Z</time>
      </trkpt>
      <trkpt lat="44.56441" lon="1.15751">
        <ele>243.4</ele>
        <time>2024-07-23T13:31:34Z</time>
      </trkpt>
      <trkpt lat="44.56434" lon="1.15749">
        <ele>243.8</ele>
        <time>2024-07-23T13:31:38Z</time>
      </trkpt>
      <trkpt lat="44.56426" lon="1.15746">
        <ele>244.2</ele>
        <time>2024-07-23T13:31:42Z</time>
      </trkpt>
      <trkpt lat="44.56424" lon="1.15746">
        <ele>244.4</ele>
        <time>2024-07-23T13:31:43Z</time>
      </trkpt>
      <trkpt lat="44.56422" lon="1.15745">
        <ele>244.4</ele>
        <time>2024-07-23T13:31:44Z</time>
      </trkpt>
      <trkpt lat="44.5642" lon="1.15745">
        <ele>244.6</ele>
        <time>2024-07-23T13:31:45Z</time>
      </trkpt>
      <trkpt lat="44.56419" lon="1.15745">
        <ele>244.6</ele>
        <time>2024-07-23T13:31:46Z</time>
      </trkpt>
      <trkpt lat="44.56416" lon="1.15744">
        <ele>244.6</ele>
        <time>2024-07-23T13:31:47Z</time>
      </trkpt>
      <trkpt lat="44.56415" lon="1.15743">
        <ele>244.8</ele>
        <time>2024-07-23T13:31:48Z</time>
      </trkpt>
      <trkpt lat="44.56413" lon="1.15742">
        <ele>244.8</ele>
        <time>2024-07-23T13:31:49Z</time>
      </trkpt>
      <trkpt lat="44.56412" lon="1.15742">
        <ele>245</ele>
        <time>2024-07-23T13:31:50Z</time>
      </trkpt>
      <trkpt lat="44.56409" lon="1.15742">
        <ele>245.2</ele>
        <time>2024-07-23T13:31:51Z</time>
      </trkpt>
      <trkpt lat="44.56407" lon="1.15741">
        <ele>245.2</ele>
        <time>2024-07-23T13:31:52Z</time>
      </trkpt>
      <trkpt lat="44.56406" lon="1.15741">
        <ele>245.4</ele>
        <time>2024-07-23T13:31:53Z</time>
      </trkpt>
      <trkpt lat="44.56404" lon="1.1574">
        <ele>245.4</ele>
        <time>2024-07-23T13:31:54Z</time>
      </trkpt>
      <trkpt lat="44.56403" lon="1.15739">
        <ele>245.6</ele>
        <time>2024-07-23T13:31:55Z</time>
      </trkpt>
      <trkpt lat="44.56401" lon="1.15738">
        <ele>245.8</ele>
        <time>2024-07-23T13:31:56Z</time>
      </trkpt>
      <trkpt lat="44.564" lon="1.15737">
        <ele>246</ele>
        <time>2024-07-23T13:31:57Z</time>
      </trkpt>
      <trkpt lat="44.56398" lon="1.15736">
        <ele>246.2</ele>
        <time>2024-07-23T13:31:58Z</time>
      </trkpt>
      <trkpt lat="44.56396" lon="1.15736">
        <ele>246.2</ele>
        <time>2024-07-23T13:31:59Z</time>
      </trkpt>
      <trkpt lat="44.56395" lon="1.15735">
        <ele>246.4</ele>
        <time>2024-07-23T13:32:00Z</time>
      </trkpt>
      <trkpt lat="44.56393" lon="1.15734">
        <ele>246.6</ele>
        <time>2024-07-23T13:32:01Z</time>
      </trkpt>
      <trkpt lat="44.56391" lon="1.15733">
        <ele>246.6</ele>
        <time>2024-07-23T13:32:02Z</time>
      </trkpt>
      <trkpt lat="44.5639" lon="1.15732">
        <ele>246.8</ele>
        <time>2024-07-23T13:32:03Z</time>
      </trkpt>
      <trkpt lat="44.56389" lon="1.15731">
        <ele>247</ele>
        <time>2024-07-23T13:32:04Z</time>
      </trkpt>
      <trkpt lat="44.56388" lon="1.1573">
        <ele>247</ele>
        <time>2024-07-23T13:32:05Z</time>
      </trkpt>
      <trkpt lat="44.56386" lon="1.15729">
        <ele>247.2</ele>
        <time>2024-07-23T13:32:06Z</time>
      </trkpt>
      <trkpt lat="44.56385" lon="1.15728">
        <ele>247.4</ele>
        <time>2024-07-23T13:32:07Z</time>
      </trkpt>
      <trkpt lat="44.56384" lon="1.15727">
        <ele>247.6</ele>
        <time>2024-07-23T13:32:08Z</time>
      </trkpt>
      <trkpt lat="44.56382" lon="1.15725">
        <ele>247.6</ele>
        <time>2024-07-23T13:32:09Z</time>
      </trkpt>
      <trkpt lat="44.56381" lon="1.15724">
        <ele>247.6</ele>
        <time>2024-07-23T13:32:10Z</time>
      </trkpt>
      <trkpt lat="44.56379" lon="1.15723">
        <ele>247.6</ele>
        <time>2024-07-23T13:32:11Z</time>
      </trkpt>
      <trkpt lat="44.56378" lon="1.15723">
        <ele>247.8</ele>
        <time>2024-07-23T13:32:12Z</time>
      </trkpt>
      <trkpt lat="44.56376" lon="1.15722">
        <ele>247.8</ele>
        <time>2024-07-23T13:32:13Z</time>
      </trkpt>
      <trkpt lat="44.56375" lon="1.15721">
        <ele>248</ele>
        <time>2024-07-23T13:32:14Z</time>
      </trkpt>
      <trkpt lat="44.56374" lon="1.1572">
        <ele>248</ele>
        <time>2024-07-23T13:32:15Z</time>
      </trkpt>
      <trkpt lat="44.56372" lon="1.15719">
        <ele>248.2</ele>
        <time>2024-07-23T13:32:16Z</time>
      </trkpt>
      <trkpt lat="44.5637" lon="1.15718">
        <ele>248.2</ele>
        <time>2024-07-23T13:32:17Z</time>
      </trkpt>
      <trkpt lat="44.56369" lon="1.15718">
        <ele>248.4</ele>
        <time>2024-07-23T13:32:18Z</time>
      </trkpt>
      <trkpt lat="44.56367" lon="1.15717">
        <ele>248.4</ele>
        <time>2024-07-23T13:32:19Z</time>
      </trkpt>
      <trkpt lat="44.56365" lon="1.15717">
        <ele>248.6</ele>
        <time>2024-07-23T13:32:20Z</time>
      </trkpt>
      <trkpt lat="44.56363" lon="1.15717">
        <ele>248.8</ele>
        <time>2024-07-23T13:32:21Z</time>
      </trkpt>
      <trkpt lat="44.56361" lon="1.15717">
        <ele>249</ele>
        <time>2024-07-23T13:32:22Z</time>
      </trkpt>
      <trkpt lat="44.56359" lon="1.15717">
        <ele>249.2</ele>
        <time>2024-07-23T13:32:23Z</time>
      </trkpt>
      <trkpt lat="44.56357" lon="1.15718">
        <ele>249.4</ele>
        <time>2024-07-23T13:32:24Z</time>
      </trkpt>
      <trkpt lat="44.56355" lon="1.15718">
        <ele>249.4</ele>
        <time>2024-07-23T13:32:25Z</time>
      </trkpt>
      <trkpt lat="44.56353" lon="1.15719">
        <ele>249.8</ele>
        <time>2024-07-23T13:32:26Z</time>
      </trkpt>
      <trkpt lat="44.56351" lon="1.1572">
        <ele>250</ele>
        <time>2024-07-23T13:32:27Z</time>
      </trkpt>
      <trkpt lat="44.56349" lon="1.15721">
        <ele>250</ele>
        <time>2024-07-23T13:32:28Z</time>
      </trkpt>
      <trkpt lat="44.56347" lon="1.15722">
        <ele>250</ele>
        <time>2024-07-23T13:32:29Z</time>
      </trkpt>
      <trkpt lat="44.56344" lon="1.15723">
        <ele>250</ele>
        <time>2024-07-23T13:32:30Z</time>
      </trkpt>
      <trkpt lat="44.56342" lon="1.15725">
        <ele>250</ele>
        <time>2024-07-23T13:32:31Z</time>
      </trkpt>
      <trkpt lat="44.5634" lon="1.15726">
        <ele>250</ele>
        <time>2024-07-23T13:32:32Z</time>
      </trkpt>
      <trkpt lat="44.56337" lon="1.15727">
        <ele>250</ele>
        <time>2024-07-23T13:32:33Z</time>
      </trkpt>
      <trkpt lat="44.56335" lon="1.15729">
        <ele>250.2</ele>
        <time>2024-07-23T13:32:34Z</time>
      </trkpt>
      <trkpt lat="44.56332" lon="1.1573">
        <ele>250.2</ele>
        <time>2024-07-23T13:32:35Z</time>
      </trkpt>
      <trkpt lat="44.56329" lon="1.15731">
        <ele>250.2</ele>
        <time>2024-07-23T13:32:36Z</time>
      </trkpt>
      <trkpt lat="44.56326" lon="1.15733">
        <ele>250.2</ele>
        <time>2024-07-23T13:32:37Z</time>
      </trkpt>
      <trkpt lat="44.56323" lon="1.15734">
        <ele>250.2</ele>
        <time>2024-07-23T13:32:38Z</time>
      </trkpt>
      <trkpt lat="44.56321" lon="1.15735">
        <ele>250.4</ele>
        <time>2024-07-23T13:32:39Z</time>
      </trkpt>
      <trkpt lat="44.56318" lon="1.15736">
        <ele>250.4</ele>
        <time>2024-07-23T13:32:40Z</time>
      </trkpt>
      <trkpt lat="44.56316" lon="1.15737">
        <ele>250.4</ele>
        <time>2024-07-23T13:32:41Z</time>
      </trkpt>
      <trkpt lat="44.56315" lon="1.15738">
        <ele>250.4</ele>
        <time>2024-07-23T13:32:42Z</time>
      </trkpt>
      <trkpt lat="44.56314" lon="1.15739">
        <ele>250.6</ele>
        <time>2024-07-23T13:32:43Z</time>
      </trkpt>
      <trkpt lat="44.56313" lon="1.15739">
        <ele>250.6</ele>
        <time>2024-07-23T13:32:44Z</time>
      </trkpt>
      <trkpt lat="44.56313" lon="1.15739">
        <ele>250.6</ele>
        <time>2024-07-23T13:32:45Z</time>
      </trkpt>
      <trkpt lat="44.56313" lon="1.15739">
        <ele>250.8</ele>
        <time>2024-07-23T13:32:46Z</time>
      </trkpt>
      <trkpt lat="44.56311" lon="1.15737">
        <ele>250</ele>
        <time>2024-07-23T13:33:09Z</time>
      </trkpt>
      <trkpt lat="44.56308" lon="1.15734">
        <ele>250</ele>
        <time>2024-07-23T13:33:11Z</time>
      </trkpt>
      <trkpt lat="44.56307" lon="1.15732">
        <ele>250.2</ele>
        <time>2024-07-23T13:33:12Z</time>
      </trkpt>
      <trkpt lat="44.563" lon="1.15719">
        <ele>250.6</ele>
        <time>2024-07-23T13:33:18Z</time>
      </trkpt>
      <trkpt lat="44.56298" lon="1.15718">
        <ele>250.6</ele>
        <time>2024-07-23T13:33:19Z</time>
      </trkpt>
      <trkpt lat="44.56297" lon="1.15716">
        <ele>250.8</ele>
        <time>2024-07-23T13:33:20Z</time>
      </trkpt>
      <trkpt lat="44.56296" lon="1.15715">
        <ele>251</ele>
        <time>2024-07-23T13:33:21Z</time>
      </trkpt>
      <trkpt lat="44.56294" lon="1.15714">
        <ele>251.2</ele>
        <time>2024-07-23T13:33:22Z</time>
      </trkpt>
      <trkpt lat="44.56293" lon="1.15713">
        <ele>251.2</ele>
        <time>2024-07-23T13:33:24Z</time>
      </trkpt>
      <trkpt lat="44.5629" lon="1.15711">
        <ele>251.4</ele>
        <time>2024-07-23T13:33:25Z</time>
      </trkpt>
      <trkpt lat="44.56288" lon="1.1571">
        <ele>251.6</ele>
        <time>2024-07-23T13:33:26Z</time>
      </trkpt>
      <trkpt lat="44.56278" lon="1.15708">
        <ele>252.4</ele>
        <time>2024-07-23T13:33:30Z</time>
      </trkpt>
      <trkpt lat="44.56275" lon="1.15709">
        <ele>252.4</ele>
        <time>2024-07-23T13:33:31Z</time>
      </trkpt>
      <trkpt lat="44.56273" lon="1.15711">
        <ele>252.6</ele>
        <time>2024-07-23T13:33:32Z</time>
      </trkpt>
      <trkpt lat="44.5627" lon="1.15713">
        <ele>252.8</ele>
        <time>2024-07-23T13:33:33Z</time>
      </trkpt>
      <trkpt lat="44.56268" lon="1.15714">
        <ele>252.8</ele>
        <time>2024-07-23T13:33:34Z</time>
      </trkpt>
      <trkpt lat="44.56264" lon="1.15716">
        <ele>253</ele>
        <time>2024-07-23T13:33:36Z</time>
      </trkpt>
      <trkpt lat="44.56262" lon="1.15717">
        <ele>253.2</ele>
        <time>2024-07-23T13:33:37Z</time>
      </trkpt>
      <trkpt lat="44.5626" lon="1.15717">
        <ele>253.2</ele>
        <time>2024-07-23T13:33:38Z</time>
      </trkpt>
      <trkpt lat="44.56258" lon="1.15718">
        <ele>253.4</ele>
        <time>2024-07-23T13:33:39Z</time>
      </trkpt>
      <trkpt lat="44.56256" lon="1.15718">
        <ele>253.6</ele>
        <time>2024-07-23T13:33:40Z</time>
      </trkpt>
      <trkpt lat="44.56254" lon="1.15719">
        <ele>253.6</ele>
        <time>2024-07-23T13:33:41Z</time>
      </trkpt>
      <trkpt lat="44.56252" lon="1.15719">
        <ele>253.8</ele>
        <time>2024-07-23T13:33:42Z</time>
      </trkpt>
      <trkpt lat="44.5625" lon="1.15719">
        <ele>253.8</ele>
        <time>2024-07-23T13:33:43Z</time>
      </trkpt>
      <trkpt lat="44.56248" lon="1.15719">
        <ele>254.2</ele>
        <time>2024-07-23T13:33:44Z</time>
      </trkpt>
      <trkpt lat="44.56246" lon="1.15719">
        <ele>254.2</ele>
        <time>2024-07-23T13:33:45Z</time>
      </trkpt>
      <trkpt lat="44.56244" lon="1.1572">
        <ele>254.4</ele>
        <time>2024-07-23T13:33:46Z</time>
      </trkpt>
      <trkpt lat="44.56243" lon="1.1572">
        <ele>254.6</ele>
        <time>2024-07-23T13:33:47Z</time>
      </trkpt>
      <trkpt lat="44.56241" lon="1.15721">
        <ele>254.6</ele>
        <time>2024-07-23T13:33:48Z</time>
      </trkpt>
      <trkpt lat="44.56239" lon="1.15721">
        <ele>254.8</ele>
        <time>2024-07-23T13:33:49Z</time>
      </trkpt>
      <trkpt lat="44.56238" lon="1.15722">
        <ele>254.8</ele>
        <time>2024-07-23T13:33:50Z</time>
      </trkpt>
      <trkpt lat="44.56236" lon="1.15722">
        <ele>254.8</ele>
        <time>2024-07-23T13:33:51Z</time>
      </trkpt>
      <trkpt lat="44.56235" lon="1.15723">
        <ele>255</ele>
        <time>2024-07-23T13:33:52Z</time>
      </trkpt>
      <trkpt lat="44.56233" lon="1.15724">
        <ele>255.2</ele>
        <time>2024-07-23T13:33:53Z</time>
      </trkpt>
      <trkpt lat="44.56232" lon="1.15724">
        <ele>255.6</ele>
        <time>2024-07-23T13:33:54Z</time>
      </trkpt>
      <trkpt lat="44.5623" lon="1.15725">
        <ele>255.6</ele>
        <time>2024-07-23T13:33:55Z</time>
      </trkpt>
      <trkpt lat="44.56228" lon="1.15726">
        <ele>256</ele>
        <time>2024-07-23T13:33:56Z</time>
      </trkpt>
      <trkpt lat="44.56227" lon="1.15727">
        <ele>256</ele>
        <time>2024-07-23T13:33:57Z</time>
      </trkpt>
      <trkpt lat="44.56226" lon="1.15728">
        <ele>256.2</ele>
        <time>2024-07-23T13:33:58Z</time>
      </trkpt>
      <trkpt lat="44.56225" lon="1.15729">
        <ele>256.4</ele>
        <time>2024-07-23T13:33:59Z</time>
      </trkpt>
      <trkpt lat="44.56223" lon="1.1573">
        <ele>256.4</ele>
        <time>2024-07-23T13:34:00Z</time>
      </trkpt>
      <trkpt lat="44.5622" lon="1.15731">
        <ele>256.4</ele>
        <time>2024-07-23T13:34:01Z</time>
      </trkpt>
      <trkpt lat="44.56218" lon="1.15732">
        <ele>256.4</ele>
        <time>2024-07-23T13:34:02Z</time>
      </trkpt>
      <trkpt lat="44.56216" lon="1.15732">
        <ele>256.8</ele>
        <time>2024-07-23T13:34:03Z</time>
      </trkpt>
      <trkpt lat="44.56214" lon="1.15733">
        <ele>257.2</ele>
        <time>2024-07-23T13:34:04Z</time>
      </trkpt>
      <trkpt lat="44.56212" lon="1.15734">
        <ele>257.2</ele>
        <time>2024-07-23T13:34:05Z</time>
      </trkpt>
      <trkpt lat="44.56211" lon="1.15735">
        <ele>257.4</ele>
        <time>2024-07-23T13:34:06Z</time>
      </trkpt>
      <trkpt lat="44.56209" lon="1.15736">
        <ele>257.4</ele>
        <time>2024-07-23T13:34:07Z</time>
      </trkpt>
      <trkpt lat="44.56208" lon="1.15737">
        <ele>257.6</ele>
        <time>2024-07-23T13:34:08Z</time>
      </trkpt>
      <trkpt lat="44.56207" lon="1.15738">
        <ele>257.6</ele>
        <time>2024-07-23T13:34:09Z</time>
      </trkpt>
      <trkpt lat="44.56206" lon="1.15738">
        <ele>257.6</ele>
        <time>2024-07-23T13:34:10Z</time>
      </trkpt>
      <trkpt lat="44.56203" lon="1.15739">
        <ele>257.8</ele>
        <time>2024-07-23T13:34:11Z</time>
      </trkpt>
      <trkpt lat="44.56201" lon="1.15741">
        <ele>258</ele>
        <time>2024-07-23T13:34:12Z</time>
      </trkpt>
      <trkpt lat="44.56199" lon="1.15742">
        <ele>258.2</ele>
        <time>2024-07-23T13:34:13Z</time>
      </trkpt>
      <trkpt lat="44.56197" lon="1.15742">
        <ele>258.2</ele>
        <time>2024-07-23T13:34:14Z</time>
      </trkpt>
      <trkpt lat="44.56195" lon="1.15743">
        <ele>258.4</ele>
        <time>2024-07-23T13:34:15Z</time>
      </trkpt>
      <trkpt lat="44.56193" lon="1.15743">
        <ele>258.6</ele>
        <time>2024-07-23T13:34:16Z</time>
      </trkpt>
      <trkpt lat="44.56191" lon="1.15744">
        <ele>258.8</ele>
        <time>2024-07-23T13:34:17Z</time>
      </trkpt>
      <trkpt lat="44.5619" lon="1.15744">
        <ele>259</ele>
        <time>2024-07-23T13:34:18Z</time>
      </trkpt>
      <trkpt lat="44.56188" lon="1.15745">
        <ele>259</ele>
        <time>2024-07-23T13:34:19Z</time>
      </trkpt>
      <trkpt lat="44.56187" lon="1.15745">
        <ele>259</ele>
        <time>2024-07-23T13:34:20Z</time>
      </trkpt>
      <trkpt lat="44.56186" lon="1.15746">
        <ele>259.2</ele>
        <time>2024-07-23T13:34:21Z</time>
      </trkpt>
      <trkpt lat="44.56184" lon="1.15747">
        <ele>259.4</ele>
        <time>2024-07-23T13:34:22Z</time>
      </trkpt>
      <trkpt lat="44.56183" lon="1.15748">
        <ele>259.6</ele>
        <time>2024-07-23T13:34:23Z</time>
      </trkpt>
      <trkpt lat="44.56181" lon="1.15749">
        <ele>259.8</ele>
        <time>2024-07-23T13:34:24Z</time>
      </trkpt>
      <trkpt lat="44.5618" lon="1.1575">
        <ele>260</ele>
        <time>2024-07-23T13:34:25Z</time>
      </trkpt>
      <trkpt lat="44.56178" lon="1.15751">
        <ele>260</ele>
        <time>2024-07-23T13:34:26Z</time>
      </trkpt>
      <trkpt lat="44.56177" lon="1.15751">
        <ele>260.2</ele>
        <time>2024-07-23T13:34:27Z</time>
      </trkpt>
      <trkpt lat="44.56176" lon="1.15751">
        <ele>260.2</ele>
        <time>2024-07-23T13:34:28Z</time>
      </trkpt>
      <trkpt lat="44.56175" lon="1.15751">
        <ele>260.4</ele>
        <time>2024-07-23T13:34:29Z</time>
      </trkpt>
      <trkpt lat="44.56174" lon="1.15752">
        <ele>260.6</ele>
        <time>2024-07-23T13:34:30Z</time>
      </trkpt>
      <trkpt lat="44.56173" lon="1.15753">
        <ele>260.6</ele>
        <time>2024-07-23T13:34:31Z</time>
      </trkpt>
      <trkpt lat="44.56172" lon="1.15754">
        <ele>260.8</ele>
        <time>2024-07-23T13:34:32Z</time>
      </trkpt>
      <trkpt lat="44.5617" lon="1.15755">
        <ele>260.8</ele>
        <time>2024-07-23T13:34:33Z</time>
      </trkpt>
      <trkpt lat="44.56169" lon="1.15756">
        <ele>261</ele>
        <time>2024-07-23T13:34:34Z</time>
      </trkpt>
      <trkpt lat="44.56168" lon="1.15757">
        <ele>261</ele>
        <time>2024-07-23T13:34:35Z</time>
      </trkpt>
      <trkpt lat="44.56167" lon="1.15758">
        <ele>261</ele>
        <time>2024-07-23T13:34:36Z</time>
      </trkpt>
      <trkpt lat="44.56165" lon="1.15758">
        <ele>261.2</ele>
        <time>2024-07-23T13:34:37Z</time>
      </trkpt>
      <trkpt lat="44.56164" lon="1.1576">
        <ele>261.4</ele>
        <time>2024-07-23T13:34:38Z</time>
      </trkpt>
      <trkpt lat="44.56163" lon="1.15761">
        <ele>261.4</ele>
        <time>2024-07-23T13:34:39Z</time>
      </trkpt>
      <trkpt lat="44.56161" lon="1.15762">
        <ele>261.6</ele>
        <time>2024-07-23T13:34:40Z</time>
      </trkpt>
      <trkpt lat="44.5616" lon="1.15763">
        <ele>262</ele>
        <time>2024-07-23T13:34:41Z</time>
      </trkpt>
      <trkpt lat="44.56159" lon="1.15764">
        <ele>262.2</ele>
        <time>2024-07-23T13:34:42Z</time>
      </trkpt>
      <trkpt lat="44.56159" lon="1.15764">
        <ele>262.2</ele>
        <time>2024-07-23T13:34:43Z</time>
      </trkpt>
      <trkpt lat="44.56157" lon="1.15765">
        <ele>262.4</ele>
        <time>2024-07-23T13:34:44Z</time>
      </trkpt>
      <trkpt lat="44.56156" lon="1.15766">
        <ele>262.6</ele>
        <time>2024-07-23T13:34:45Z</time>
      </trkpt>
      <trkpt lat="44.56155" lon="1.15767">
        <ele>262.8</ele>
        <time>2024-07-23T13:34:46Z</time>
      </trkpt>
      <trkpt lat="44.56153" lon="1.15768">
        <ele>262.8</ele>
        <time>2024-07-23T13:34:47Z</time>
      </trkpt>
      <trkpt lat="44.56151" lon="1.15769">
        <ele>263</ele>
        <time>2024-07-23T13:34:48Z</time>
      </trkpt>
      <trkpt lat="44.5615" lon="1.1577">
        <ele>263</ele>
        <time>2024-07-23T13:34:49Z</time>
      </trkpt>
      <trkpt lat="44.56149" lon="1.15771">
        <ele>263</ele>
        <time>2024-07-23T13:34:50Z</time>
      </trkpt>
      <trkpt lat="44.56148" lon="1.15771">
        <ele>263.2</ele>
        <time>2024-07-23T13:34:51Z</time>
      </trkpt>
      <trkpt lat="44.56146" lon="1.15771">
        <ele>263.4</ele>
        <time>2024-07-23T13:34:52Z</time>
      </trkpt>
      <trkpt lat="44.56145" lon="1.15772">
        <ele>263.6</ele>
        <time>2024-07-23T13:34:53Z</time>
      </trkpt>
      <trkpt lat="44.56144" lon="1.15772">
        <ele>264</ele>
        <time>2024-07-23T13:34:54Z</time>
      </trkpt>
      <trkpt lat="44.56143" lon="1.15773">
        <ele>264.2</ele>
        <time>2024-07-23T13:34:55Z</time>
      </trkpt>
      <trkpt lat="44.5614" lon="1.15773">
        <ele>264.2</ele>
        <time>2024-07-23T13:34:56Z</time>
      </trkpt>
      <trkpt lat="44.56138" lon="1.15773">
        <ele>264.4</ele>
        <time>2024-07-23T13:34:57Z</time>
      </trkpt>
      <trkpt lat="44.56137" lon="1.15773">
        <ele>264.6</ele>
        <time>2024-07-23T13:34:58Z</time>
      </trkpt>
      <trkpt lat="44.56136" lon="1.15772">
        <ele>264.6</ele>
        <time>2024-07-23T13:34:59Z</time>
      </trkpt>
      <trkpt lat="44.56134" lon="1.15772">
        <ele>264.6</ele>
        <time>2024-07-23T13:35:00Z</time>
      </trkpt>
      <trkpt lat="44.56133" lon="1.15773">
        <ele>264.8</ele>
        <time>2024-07-23T13:35:01Z</time>
      </trkpt>
      <trkpt lat="44.56131" lon="1.15773">
        <ele>264.8</ele>
        <time>2024-07-23T13:35:02Z</time>
      </trkpt>
      <trkpt lat="44.56129" lon="1.15774">
        <ele>264.8</ele>
        <time>2024-07-23T13:35:03Z</time>
      </trkpt>
      <trkpt lat="44.56126" lon="1.15774">
        <ele>265</ele>
        <time>2024-07-23T13:35:04Z</time>
      </trkpt>
      <trkpt lat="44.56125" lon="1.15775">
        <ele>265</ele>
        <time>2024-07-23T13:35:05Z</time>
      </trkpt>
      <trkpt lat="44.56123" lon="1.15775">
        <ele>265.2</ele>
        <time>2024-07-23T13:35:06Z</time>
      </trkpt>
      <trkpt lat="44.56121" lon="1.15775">
        <ele>265.2</ele>
        <time>2024-07-23T13:35:07Z</time>
      </trkpt>
      <trkpt lat="44.5612" lon="1.15776">
        <ele>265.2</ele>
        <time>2024-07-23T13:35:08Z</time>
      </trkpt>
      <trkpt lat="44.56118" lon="1.15776">
        <ele>265.2</ele>
        <time>2024-07-23T13:35:09Z</time>
      </trkpt>
      <trkpt lat="44.56116" lon="1.15777">
        <ele>265.4</ele>
        <time>2024-07-23T13:35:10Z</time>
      </trkpt>
      <trkpt lat="44.56115" lon="1.15777">
        <ele>265.4</ele>
        <time>2024-07-23T13:35:11Z</time>
      </trkpt>
      <trkpt lat="44.56113" lon="1.15777">
        <ele>265.4</ele>
        <time>2024-07-23T13:35:12Z</time>
      </trkpt>
      <trkpt lat="44.56112" lon="1.15777">
        <ele>265.6</ele>
        <time>2024-07-23T13:35:13Z</time>
      </trkpt>
      <trkpt lat="44.5611" lon="1.15778">
        <ele>265.6</ele>
        <time>2024-07-23T13:35:14Z</time>
      </trkpt>
      <trkpt lat="44.56109" lon="1.15779">
        <ele>265.8</ele>
        <time>2024-07-23T13:35:15Z</time>
      </trkpt>
      <trkpt lat="44.56108" lon="1.15779">
        <ele>266</ele>
        <time>2024-07-23T13:35:16Z</time>
      </trkpt>
      <trkpt lat="44.56106" lon="1.1578">
        <ele>266</ele>
        <time>2024-07-23T13:35:17Z</time>
      </trkpt>
      <trkpt lat="44.56105" lon="1.1578">
        <ele>266.2</ele>
        <time>2024-07-23T13:35:18Z</time>
      </trkpt>
      <trkpt lat="44.56104" lon="1.1578">
        <ele>266.2</ele>
        <time>2024-07-23T13:35:19Z</time>
      </trkpt>
      <trkpt lat="44.56102" lon="1.1578">
        <ele>266.4</ele>
        <time>2024-07-23T13:35:20Z</time>
      </trkpt>
      <trkpt lat="44.561" lon="1.15781">
        <ele>266.6</ele>
        <time>2024-07-23T13:35:21Z</time>
      </trkpt>
      <trkpt lat="44.56098" lon="1.15781">
        <ele>266.8</ele>
        <time>2024-07-23T13:35:22Z</time>
      </trkpt>
      <trkpt lat="44.56097" lon="1.15781">
        <ele>267.2</ele>
        <time>2024-07-23T13:35:23Z</time>
      </trkpt>
      <trkpt lat="44.56095" lon="1.15781">
        <ele>267.2</ele>
        <time>2024-07-23T13:35:24Z</time>
      </trkpt>
      <trkpt lat="44.56094" lon="1.15782">
        <ele>267.4</ele>
        <time>2024-07-23T13:35:25Z</time>
      </trkpt>
      <trkpt lat="44.56092" lon="1.15782">
        <ele>267.4</ele>
        <time>2024-07-23T13:35:26Z</time>
      </trkpt>
      <trkpt lat="44.5609" lon="1.15782">
        <ele>267.6</ele>
        <time>2024-07-23T13:35:27Z</time>
      </trkpt>
      <trkpt lat="44.56088" lon="1.15783">
        <ele>267.6</ele>
        <time>2024-07-23T13:35:28Z</time>
      </trkpt>
      <trkpt lat="44.56086" lon="1.15784">
        <ele>267.6</ele>
        <time>2024-07-23T13:35:29Z</time>
      </trkpt>
      <trkpt lat="44.56084" lon="1.15784">
        <ele>267.6</ele>
        <time>2024-07-23T13:35:30Z</time>
      </trkpt>
      <trkpt lat="44.56083" lon="1.15784">
        <ele>267.6</ele>
        <time>2024-07-23T13:35:31Z</time>
      </trkpt>
      <trkpt lat="44.56081" lon="1.15784">
        <ele>267.8</ele>
        <time>2024-07-23T13:35:32Z</time>
      </trkpt>
      <trkpt lat="44.56079" lon="1.15785">
        <ele>267.8</ele>
        <time>2024-07-23T13:35:33Z</time>
      </trkpt>
      <trkpt lat="44.56078" lon="1.15785">
        <ele>268</ele>
        <time>2024-07-23T13:35:34Z</time>
      </trkpt>
      <trkpt lat="44.56076" lon="1.15785">
        <ele>268.2</ele>
        <time>2024-07-23T13:35:35Z</time>
      </trkpt>
      <trkpt lat="44.56073" lon="1.15786">
        <ele>268.4</ele>
        <time>2024-07-23T13:35:36Z</time>
      </trkpt>
      <trkpt lat="44.56071" lon="1.15786">
        <ele>268.8</ele>
        <time>2024-07-23T13:35:37Z</time>
      </trkpt>
      <trkpt lat="44.56069" lon="1.15786">
        <ele>268.6</ele>
        <time>2024-07-23T13:35:38Z</time>
      </trkpt>
      <trkpt lat="44.56066" lon="1.15786">
        <ele>269</ele>
        <time>2024-07-23T13:35:39Z</time>
      </trkpt>
      <trkpt lat="44.56065" lon="1.15786">
        <ele>268.8</ele>
        <time>2024-07-23T13:35:40Z</time>
      </trkpt>
      <trkpt lat="44.56062" lon="1.15786">
        <ele>269</ele>
        <time>2024-07-23T13:35:41Z</time>
      </trkpt>
      <trkpt lat="44.5606" lon="1.15786">
        <ele>269</ele>
        <time>2024-07-23T13:35:42Z</time>
      </trkpt>
      <trkpt lat="44.56058" lon="1.15786">
        <ele>269</ele>
        <time>2024-07-23T13:35:43Z</time>
      </trkpt>
      <trkpt lat="44.56055" lon="1.15787">
        <ele>269.2</ele>
        <time>2024-07-23T13:35:44Z</time>
      </trkpt>
      <trkpt lat="44.56053" lon="1.15787">
        <ele>269.2</ele>
        <time>2024-07-23T13:35:45Z</time>
      </trkpt>
      <trkpt lat="44.5605" lon="1.15787">
        <ele>269.2</ele>
        <time>2024-07-23T13:35:46Z</time>
      </trkpt>
      <trkpt lat="44.56047" lon="1.15788">
        <ele>269.4</ele>
        <time>2024-07-23T13:35:47Z</time>
      </trkpt>
      <trkpt lat="44.56043" lon="1.15788">
        <ele>269.4</ele>
        <time>2024-07-23T13:35:48Z</time>
      </trkpt>
      <trkpt lat="44.5604" lon="1.15788">
        <ele>269.4</ele>
        <time>2024-07-23T13:35:49Z</time>
      </trkpt>
      <trkpt lat="44.56038" lon="1.15788">
        <ele>269.4</ele>
        <time>2024-07-23T13:35:50Z</time>
      </trkpt>
      <trkpt lat="44.56036" lon="1.15788">
        <ele>269.6</ele>
        <time>2024-07-23T13:35:51Z</time>
      </trkpt>
      <trkpt lat="44.56034" lon="1.15788">
        <ele>269.6</ele>
        <time>2024-07-23T13:35:52Z</time>
      </trkpt>
      <trkpt lat="44.56031" lon="1.15788">
        <ele>269.8</ele>
        <time>2024-07-23T13:35:53Z</time>
      </trkpt>
      <trkpt lat="44.56029" lon="1.15789">
        <ele>270</ele>
        <time>2024-07-23T13:35:54Z</time>
      </trkpt>
      <trkpt lat="44.56021" lon="1.15793">
        <ele>270.2</ele>
        <time>2024-07-23T13:35:57Z</time>
      </trkpt>
      <trkpt lat="44.5602" lon="1.15793">
        <ele>270.2</ele>
        <time>2024-07-23T13:35:58Z</time>
      </trkpt>
      <trkpt lat="44.56016" lon="1.15795">
        <ele>270.2</ele>
        <time>2024-07-23T13:35:59Z</time>
      </trkpt>
      <trkpt lat="44.56001" lon="1.15797">
        <ele>270.6</ele>
        <time>2024-07-23T13:36:04Z</time>
      </trkpt>
      <trkpt lat="44.55999" lon="1.15798">
        <ele>270.6</ele>
        <time>2024-07-23T13:36:05Z</time>
      </trkpt>
      <trkpt lat="44.55998" lon="1.15799">
        <ele>270.8</ele>
        <time>2024-07-23T13:36:06Z</time>
      </trkpt>
      <trkpt lat="44.55997" lon="1.15799">
        <ele>270.8</ele>
        <time>2024-07-23T13:36:07Z</time>
      </trkpt>
      <trkpt lat="44.55995" lon="1.158">
        <ele>270.8</ele>
        <time>2024-07-23T13:36:08Z</time>
      </trkpt>
      <trkpt lat="44.55987" lon="1.158">
        <ele>271</ele>
        <time>2024-07-23T13:36:10Z</time>
      </trkpt>
      <trkpt lat="44.55985" lon="1.158">
        <ele>271</ele>
        <time>2024-07-23T13:36:11Z</time>
      </trkpt>
      <trkpt lat="44.55983" lon="1.15799">
        <ele>271.2</ele>
        <time>2024-07-23T13:36:12Z</time>
      </trkpt>
      <trkpt lat="44.5598" lon="1.15798">
        <ele>271.2</ele>
        <time>2024-07-23T13:36:13Z</time>
      </trkpt>
      <trkpt lat="44.55977" lon="1.15798">
        <ele>271.2</ele>
        <time>2024-07-23T13:36:14Z</time>
      </trkpt>
      <trkpt lat="44.55964" lon="1.158">
        <ele>271.4</ele>
        <time>2024-07-23T13:36:18Z</time>
      </trkpt>
      <trkpt lat="44.55961" lon="1.158">
        <ele>271.4</ele>
        <time>2024-07-23T13:36:19Z</time>
      </trkpt>
      <trkpt lat="44.55949" lon="1.15803">
        <ele>271.6</ele>
        <time>2024-07-23T13:36:24Z</time>
      </trkpt>
      <trkpt lat="44.55948" lon="1.15803">
        <ele>272</ele>
        <time>2024-07-23T13:36:25Z</time>
      </trkpt>
      <trkpt lat="44.55943" lon="1.15801">
        <ele>272.2</ele>
        <time>2024-07-23T13:36:27Z</time>
      </trkpt>
      <trkpt lat="44.55942" lon="1.158">
        <ele>272.2</ele>
        <time>2024-07-23T13:36:28Z</time>
      </trkpt>
      <trkpt lat="44.55941" lon="1.158">
        <ele>272.4</ele>
        <time>2024-07-23T13:36:29Z</time>
      </trkpt>
      <trkpt lat="44.55939" lon="1.158">
        <ele>272.4</ele>
        <time>2024-07-23T13:36:30Z</time>
      </trkpt>
      <trkpt lat="44.55937" lon="1.158">
        <ele>272.6</ele>
        <time>2024-07-23T13:36:31Z</time>
      </trkpt>
      <trkpt lat="44.55933" lon="1.15799">
        <ele>272.6</ele>
        <time>2024-07-23T13:36:33Z</time>
      </trkpt>
      <trkpt lat="44.55926" lon="1.15798">
        <ele>273</ele>
        <time>2024-07-23T13:36:37Z</time>
      </trkpt>
      <trkpt lat="44.55924" lon="1.15798">
        <ele>273.2</ele>
        <time>2024-07-23T13:36:38Z</time>
      </trkpt>
      <trkpt lat="44.55922" lon="1.15798">
        <ele>273.2</ele>
        <time>2024-07-23T13:36:39Z</time>
      </trkpt>
      <trkpt lat="44.55916" lon="1.15798">
        <ele>273.6</ele>
        <time>2024-07-23T13:36:42Z</time>
      </trkpt>
      <trkpt lat="44.55913" lon="1.15796">
        <ele>273.8</ele>
        <time>2024-07-23T13:36:44Z</time>
      </trkpt>
      <trkpt lat="44.55909" lon="1.15795">
        <ele>274.2</ele>
        <time>2024-07-23T13:36:46Z</time>
      </trkpt>
      <trkpt lat="44.55902" lon="1.15794">
        <ele>274.8</ele>
        <time>2024-07-23T13:36:49Z</time>
      </trkpt>
      <trkpt lat="44.55899" lon="1.15795">
        <ele>274.8</ele>
        <time>2024-07-23T13:36:50Z</time>
      </trkpt>
      <trkpt lat="44.55896" lon="1.15795">
        <ele>275</ele>
        <time>2024-07-23T13:36:51Z</time>
      </trkpt>
      <trkpt lat="44.55894" lon="1.15794">
        <ele>275.2</ele>
        <time>2024-07-23T13:36:52Z</time>
      </trkpt>
      <trkpt lat="44.55892" lon="1.15794">
        <ele>275.2</ele>
        <time>2024-07-23T13:36:53Z</time>
      </trkpt>
      <trkpt lat="44.5589" lon="1.15794">
        <ele>275.4</ele>
        <time>2024-07-23T13:36:54Z</time>
      </trkpt>
      <trkpt lat="44.55888" lon="1.15793">
        <ele>275.6</ele>
        <time>2024-07-23T13:36:55Z</time>
      </trkpt>
      <trkpt lat="44.55887" lon="1.15793">
        <ele>275.6</ele>
        <time>2024-07-23T13:36:56Z</time>
      </trkpt>
      <trkpt lat="44.55885" lon="1.15792">
        <ele>275.8</ele>
        <time>2024-07-23T13:36:57Z</time>
      </trkpt>
      <trkpt lat="44.55885" lon="1.15792">
        <ele>276</ele>
        <time>2024-07-23T13:36:58Z</time>
      </trkpt>
      <trkpt lat="44.55883" lon="1.15792">
        <ele>276</ele>
        <time>2024-07-23T13:36:59Z</time>
      </trkpt>
      <trkpt lat="44.55881" lon="1.15791">
        <ele>276.2</ele>
        <time>2024-07-23T13:37:00Z</time>
      </trkpt>
      <trkpt lat="44.55881" lon="1.15791">
        <ele>276.4</ele>
        <time>2024-07-23T13:37:01Z</time>
      </trkpt>
      <trkpt lat="44.55879" lon="1.1579">
        <ele>276.4</ele>
        <time>2024-07-23T13:37:02Z</time>
      </trkpt>
      <trkpt lat="44.55875" lon="1.15789">
        <ele>276.6</ele>
        <time>2024-07-23T13:37:03Z</time>
      </trkpt>
      <trkpt lat="44.55873" lon="1.15788">
        <ele>276.8</ele>
        <time>2024-07-23T13:37:04Z</time>
      </trkpt>
      <trkpt lat="44.55871" lon="1.15787">
        <ele>276.8</ele>
        <time>2024-07-23T13:37:05Z</time>
      </trkpt>
      <trkpt lat="44.5587" lon="1.15787">
        <ele>277</ele>
        <time>2024-07-23T13:37:06Z</time>
      </trkpt>
      <trkpt lat="44.55867" lon="1.15787">
        <ele>277.2</ele>
        <time>2024-07-23T13:37:07Z</time>
      </trkpt>
      <trkpt lat="44.55865" lon="1.15786">
        <ele>277.4</ele>
        <time>2024-07-23T13:37:08Z</time>
      </trkpt>
      <trkpt lat="44.55864" lon="1.15785">
        <ele>277.4</ele>
        <time>2024-07-23T13:37:09Z</time>
      </trkpt>
      <trkpt lat="44.55862" lon="1.15785">
        <ele>277.8</ele>
        <time>2024-07-23T13:37:10Z</time>
      </trkpt>
      <trkpt lat="44.5586" lon="1.15785">
        <ele>277.8</ele>
        <time>2024-07-23T13:37:11Z</time>
      </trkpt>
      <trkpt lat="44.55858" lon="1.15784">
        <ele>278</ele>
        <time>2024-07-23T13:37:12Z</time>
      </trkpt>
      <trkpt lat="44.55856" lon="1.15784">
        <ele>278.2</ele>
        <time>2024-07-23T13:37:13Z</time>
      </trkpt>
      <trkpt lat="44.55854" lon="1.15783">
        <ele>278.4</ele>
        <time>2024-07-23T13:37:14Z</time>
      </trkpt>
      <trkpt lat="44.55852" lon="1.15783">
        <ele>278.6</ele>
        <time>2024-07-23T13:37:15Z</time>
      </trkpt>
      <trkpt lat="44.5585" lon="1.15783">
        <ele>278.8</ele>
        <time>2024-07-23T13:37:16Z</time>
      </trkpt>
      <trkpt lat="44.55848" lon="1.15782">
        <ele>279</ele>
        <time>2024-07-23T13:37:17Z</time>
      </trkpt>
      <trkpt lat="44.55847" lon="1.15781">
        <ele>279</ele>
        <time>2024-07-23T13:37:18Z</time>
      </trkpt>
      <trkpt lat="44.55846" lon="1.15781">
        <ele>279.4</ele>
        <time>2024-07-23T13:37:19Z</time>
      </trkpt>
      <trkpt lat="44.55844" lon="1.15782">
        <ele>279.6</ele>
        <time>2024-07-23T13:37:20Z</time>
      </trkpt>
      <trkpt lat="44.55843" lon="1.15782">
        <ele>279.8</ele>
        <time>2024-07-23T13:37:21Z</time>
      </trkpt>
      <trkpt lat="44.55842" lon="1.15781">
        <ele>280</ele>
        <time>2024-07-23T13:37:22Z</time>
      </trkpt>
      <trkpt lat="44.55841" lon="1.15781">
        <ele>280</ele>
        <time>2024-07-23T13:37:23Z</time>
      </trkpt>
      <trkpt lat="44.55839" lon="1.1578">
        <ele>280.4</ele>
        <time>2024-07-23T13:37:24Z</time>
      </trkpt>
      <trkpt lat="44.55838" lon="1.1578">
        <ele>280.6</ele>
        <time>2024-07-23T13:37:25Z</time>
      </trkpt>
      <trkpt lat="44.55837" lon="1.1578">
        <ele>280.6</ele>
        <time>2024-07-23T13:37:26Z</time>
      </trkpt>
      <trkpt lat="44.55836" lon="1.15779">
        <ele>280.8</ele>
        <time>2024-07-23T13:37:27Z</time>
      </trkpt>
      <trkpt lat="44.55834" lon="1.15779">
        <ele>281</ele>
        <time>2024-07-23T13:37:28Z</time>
      </trkpt>
      <trkpt lat="44.55833" lon="1.15779">
        <ele>281.2</ele>
        <time>2024-07-23T13:37:29Z</time>
      </trkpt>
      <trkpt lat="44.55832" lon="1.15779">
        <ele>281.4</ele>
        <time>2024-07-23T13:37:30Z</time>
      </trkpt>
      <trkpt lat="44.5583" lon="1.15779">
        <ele>281.6</ele>
        <time>2024-07-23T13:37:31Z</time>
      </trkpt>
      <trkpt lat="44.55828" lon="1.15779">
        <ele>282</ele>
        <time>2024-07-23T13:37:32Z</time>
      </trkpt>
      <trkpt lat="44.55826" lon="1.15778">
        <ele>281.8</ele>
        <time>2024-07-23T13:37:33Z</time>
      </trkpt>
      <trkpt lat="44.55824" lon="1.15778">
        <ele>282.2</ele>
        <time>2024-07-23T13:37:34Z</time>
      </trkpt>
      <trkpt lat="44.55822" lon="1.15778">
        <ele>282.4</ele>
        <time>2024-07-23T13:37:35Z</time>
      </trkpt>
      <trkpt lat="44.5582" lon="1.15777">
        <ele>282.6</ele>
        <time>2024-07-23T13:37:36Z</time>
      </trkpt>
      <trkpt lat="44.55818" lon="1.15777">
        <ele>282.6</ele>
        <time>2024-07-23T13:37:37Z</time>
      </trkpt>
      <trkpt lat="44.55817" lon="1.15776">
        <ele>282.8</ele>
        <time>2024-07-23T13:37:38Z</time>
      </trkpt>
      <trkpt lat="44.55815" lon="1.15776">
        <ele>282.6</ele>
        <time>2024-07-23T13:37:39Z</time>
      </trkpt>
      <trkpt lat="44.55813" lon="1.15775">
        <ele>282.6</ele>
        <time>2024-07-23T13:37:40Z</time>
      </trkpt>
      <trkpt lat="44.55811" lon="1.15775">
        <ele>282.8</ele>
        <time>2024-07-23T13:37:41Z</time>
      </trkpt>
      <trkpt lat="44.55809" lon="1.15774">
        <ele>283</ele>
        <time>2024-07-23T13:37:42Z</time>
      </trkpt>
      <trkpt lat="44.55807" lon="1.15773">
        <ele>283</ele>
        <time>2024-07-23T13:37:43Z</time>
      </trkpt>
      <trkpt lat="44.55806" lon="1.15772">
        <ele>283.2</ele>
        <time>2024-07-23T13:37:44Z</time>
      </trkpt>
      <trkpt lat="44.55805" lon="1.15772">
        <ele>283.4</ele>
        <time>2024-07-23T13:37:45Z</time>
      </trkpt>
      <trkpt lat="44.55803" lon="1.1577">
        <ele>283.4</ele>
        <time>2024-07-23T13:37:46Z</time>
      </trkpt>
      <trkpt lat="44.55801" lon="1.15768">
        <ele>283.4</ele>
        <time>2024-07-23T13:37:47Z</time>
      </trkpt>
      <trkpt lat="44.55799" lon="1.15767">
        <ele>283.6</ele>
        <time>2024-07-23T13:37:48Z</time>
      </trkpt>
      <trkpt lat="44.55798" lon="1.15765">
        <ele>283.6</ele>
        <time>2024-07-23T13:37:49Z</time>
      </trkpt>
      <trkpt lat="44.55796" lon="1.15763">
        <ele>283.8</ele>
        <time>2024-07-23T13:37:50Z</time>
      </trkpt>
      <trkpt lat="44.55793" lon="1.15762">
        <ele>283.8</ele>
        <time>2024-07-23T13:37:51Z</time>
      </trkpt>
      <trkpt lat="44.55791" lon="1.1576">
        <ele>284</ele>
        <time>2024-07-23T13:37:52Z</time>
      </trkpt>
      <trkpt lat="44.55787" lon="1.15757">
        <ele>284</ele>
        <time>2024-07-23T13:37:53Z</time>
      </trkpt>
      <trkpt lat="44.55784" lon="1.15755">
        <ele>284.2</ele>
        <time>2024-07-23T13:37:54Z</time>
      </trkpt>
      <trkpt lat="44.55782" lon="1.15753">
        <ele>284.4</ele>
        <time>2024-07-23T13:37:55Z</time>
      </trkpt>
      <trkpt lat="44.5578" lon="1.15751">
        <ele>284.4</ele>
        <time>2024-07-23T13:37:56Z</time>
      </trkpt>
      <trkpt lat="44.55778" lon="1.15749">
        <ele>284.4</ele>
        <time>2024-07-23T13:37:57Z</time>
      </trkpt>
      <trkpt lat="44.55776" lon="1.15747">
        <ele>284.4</ele>
        <time>2024-07-23T13:37:58Z</time>
      </trkpt>
      <trkpt lat="44.55775" lon="1.15746">
        <ele>284.4</ele>
        <time>2024-07-23T13:37:59Z</time>
      </trkpt>
      <trkpt lat="44.55772" lon="1.15744">
        <ele>284.6</ele>
        <time>2024-07-23T13:38:00Z</time>
      </trkpt>
      <trkpt lat="44.55767" lon="1.15741">
        <ele>284.6</ele>
        <time>2024-07-23T13:38:01Z</time>
      </trkpt>
      <trkpt lat="44.55765" lon="1.15739">
        <ele>284.8</ele>
        <time>2024-07-23T13:38:02Z</time>
      </trkpt>
      <trkpt lat="44.55763" lon="1.15737">
        <ele>284.8</ele>
        <time>2024-07-23T13:38:03Z</time>
      </trkpt>
      <trkpt lat="44.55758" lon="1.15736">
        <ele>284.8</ele>
        <time>2024-07-23T13:38:04Z</time>
      </trkpt>
      <trkpt lat="44.55756" lon="1.15735">
        <ele>284.8</ele>
        <time>2024-07-23T13:38:05Z</time>
      </trkpt>
      <trkpt lat="44.55754" lon="1.15733">
        <ele>285</ele>
        <time>2024-07-23T13:38:06Z</time>
      </trkpt>
      <trkpt lat="44.5575" lon="1.15732">
        <ele>285.2</ele>
        <time>2024-07-23T13:38:07Z</time>
      </trkpt>
      <trkpt lat="44.55727" lon="1.15729">
        <ele>285.6</ele>
        <time>2024-07-23T13:38:15Z</time>
      </trkpt>
      <trkpt lat="44.55725" lon="1.15728">
        <ele>285.6</ele>
        <time>2024-07-23T13:38:16Z</time>
      </trkpt>
      <trkpt lat="44.55724" lon="1.15726">
        <ele>285.6</ele>
        <time>2024-07-23T13:38:17Z</time>
      </trkpt>
      <trkpt lat="44.55721" lon="1.15725">
        <ele>285.6</ele>
        <time>2024-07-23T13:38:18Z</time>
      </trkpt>
      <trkpt lat="44.55719" lon="1.15724">
        <ele>285.8</ele>
        <time>2024-07-23T13:38:19Z</time>
      </trkpt>
      <trkpt lat="44.55717" lon="1.15723">
        <ele>285.8</ele>
        <time>2024-07-23T13:38:20Z</time>
      </trkpt>
      <trkpt lat="44.55715" lon="1.15723">
        <ele>285.8</ele>
        <time>2024-07-23T13:38:21Z</time>
      </trkpt>
      <trkpt lat="44.55712" lon="1.15721">
        <ele>286</ele>
        <time>2024-07-23T13:38:22Z</time>
      </trkpt>
      <trkpt lat="44.55709" lon="1.15719">
        <ele>286.2</ele>
        <time>2024-07-23T13:38:24Z</time>
      </trkpt>
      <trkpt lat="44.55707" lon="1.15717">
        <ele>286.4</ele>
        <time>2024-07-23T13:38:25Z</time>
      </trkpt>
      <trkpt lat="44.55701" lon="1.15715">
        <ele>286.6</ele>
        <time>2024-07-23T13:38:28Z</time>
      </trkpt>
      <trkpt lat="44.55699" lon="1.15714">
        <ele>286.8</ele>
        <time>2024-07-23T13:38:29Z</time>
      </trkpt>
      <trkpt lat="44.55695" lon="1.15714">
        <ele>287</ele>
        <time>2024-07-23T13:38:31Z</time>
      </trkpt>
      <trkpt lat="44.55691" lon="1.15713">
        <ele>287.2</ele>
        <time>2024-07-23T13:38:33Z</time>
      </trkpt>
      <trkpt lat="44.55689" lon="1.15712">
        <ele>287.2</ele>
        <time>2024-07-23T13:38:34Z</time>
      </trkpt>
      <trkpt lat="44.55688" lon="1.15711">
        <ele>287.4</ele>
        <time>2024-07-23T13:38:35Z</time>
      </trkpt>
      <trkpt lat="44.55686" lon="1.1571">
        <ele>287.4</ele>
        <time>2024-07-23T13:38:36Z</time>
      </trkpt>
      <trkpt lat="44.55683" lon="1.1571">
        <ele>287.4</ele>
        <time>2024-07-23T13:38:37Z</time>
      </trkpt>
      <trkpt lat="44.55679" lon="1.15711">
        <ele>287.8</ele>
        <time>2024-07-23T13:38:39Z</time>
      </trkpt>
      <trkpt lat="44.55677" lon="1.1571">
        <ele>288</ele>
        <time>2024-07-23T13:38:40Z</time>
      </trkpt>
      <trkpt lat="44.55675" lon="1.1571">
        <ele>288.2</ele>
        <time>2024-07-23T13:38:41Z</time>
      </trkpt>
      <trkpt lat="44.55673" lon="1.1571">
        <ele>288.2</ele>
        <time>2024-07-23T13:38:42Z</time>
      </trkpt>
      <trkpt lat="44.55671" lon="1.1571">
        <ele>288.6</ele>
        <time>2024-07-23T13:38:43Z</time>
      </trkpt>
      <trkpt lat="44.55667" lon="1.15709">
        <ele>288.8</ele>
        <time>2024-07-23T13:38:45Z</time>
      </trkpt>
      <trkpt lat="44.55664" lon="1.15709">
        <ele>288.8</ele>
        <time>2024-07-23T13:38:46Z</time>
      </trkpt>
      <trkpt lat="44.55661" lon="1.15709">
        <ele>289</ele>
        <time>2024-07-23T13:38:47Z</time>
      </trkpt>
      <trkpt lat="44.55658" lon="1.15708">
        <ele>289</ele>
        <time>2024-07-23T13:38:48Z</time>
      </trkpt>
      <trkpt lat="44.55657" lon="1.15708">
        <ele>289.2</ele>
        <time>2024-07-23T13:38:49Z</time>
      </trkpt>
      <trkpt lat="44.55655" lon="1.15707">
        <ele>289.4</ele>
        <time>2024-07-23T13:38:50Z</time>
      </trkpt>
      <trkpt lat="44.55653" lon="1.15707">
        <ele>289.4</ele>
        <time>2024-07-23T13:38:51Z</time>
      </trkpt>
      <trkpt lat="44.55651" lon="1.15707">
        <ele>289.6</ele>
        <time>2024-07-23T13:38:52Z</time>
      </trkpt>
      <trkpt lat="44.5565" lon="1.15707">
        <ele>289.8</ele>
        <time>2024-07-23T13:38:53Z</time>
      </trkpt>
      <trkpt lat="44.55647" lon="1.15706">
        <ele>289.8</ele>
        <time>2024-07-23T13:38:54Z</time>
      </trkpt>
      <trkpt lat="44.55644" lon="1.15707">
        <ele>290</ele>
        <time>2024-07-23T13:38:55Z</time>
      </trkpt>
      <trkpt lat="44.55642" lon="1.15706">
        <ele>290</ele>
        <time>2024-07-23T13:38:56Z</time>
      </trkpt>
      <trkpt lat="44.55641" lon="1.15706">
        <ele>290.2</ele>
        <time>2024-07-23T13:38:57Z</time>
      </trkpt>
      <trkpt lat="44.55639" lon="1.15706">
        <ele>290.4</ele>
        <time>2024-07-23T13:38:58Z</time>
      </trkpt>
      <trkpt lat="44.55637" lon="1.15706">
        <ele>290.4</ele>
        <time>2024-07-23T13:38:59Z</time>
      </trkpt>
      <trkpt lat="44.55634" lon="1.15706">
        <ele>290.6</ele>
        <time>2024-07-23T13:39:00Z</time>
      </trkpt>
      <trkpt lat="44.55631" lon="1.15706">
        <ele>290.6</ele>
        <time>2024-07-23T13:39:01Z</time>
      </trkpt>
      <trkpt lat="44.55628" lon="1.15705">
        <ele>290.8</ele>
        <time>2024-07-23T13:39:02Z</time>
      </trkpt>
      <trkpt lat="44.55626" lon="1.15705">
        <ele>291</ele>
        <time>2024-07-23T13:39:03Z</time>
      </trkpt>
      <trkpt lat="44.55625" lon="1.15705">
        <ele>291.2</ele>
        <time>2024-07-23T13:39:04Z</time>
      </trkpt>
      <trkpt lat="44.55623" lon="1.15704">
        <ele>291.4</ele>
        <time>2024-07-23T13:39:05Z</time>
      </trkpt>
      <trkpt lat="44.55621" lon="1.15704">
        <ele>291.4</ele>
        <time>2024-07-23T13:39:06Z</time>
      </trkpt>
      <trkpt lat="44.5562" lon="1.15704">
        <ele>291.6</ele>
        <time>2024-07-23T13:39:07Z</time>
      </trkpt>
      <trkpt lat="44.55619" lon="1.15703">
        <ele>291.6</ele>
        <time>2024-07-23T13:39:08Z</time>
      </trkpt>
      <trkpt lat="44.55617" lon="1.15703">
        <ele>291.8</ele>
        <time>2024-07-23T13:39:09Z</time>
      </trkpt>
      <trkpt lat="44.55614" lon="1.15703">
        <ele>291.8</ele>
        <time>2024-07-23T13:39:10Z</time>
      </trkpt>
      <trkpt lat="44.55613" lon="1.15703">
        <ele>291.8</ele>
        <time>2024-07-23T13:39:11Z</time>
      </trkpt>
      <trkpt lat="44.55611" lon="1.15703">
        <ele>292</ele>
        <time>2024-07-23T13:39:12Z</time>
      </trkpt>
      <trkpt lat="44.55609" lon="1.15702">
        <ele>292</ele>
        <time>2024-07-23T13:39:13Z</time>
      </trkpt>
      <trkpt lat="44.55607" lon="1.15702">
        <ele>292</ele>
        <time>2024-07-23T13:39:14Z</time>
      </trkpt>
      <trkpt lat="44.55605" lon="1.15702">
        <ele>292</ele>
        <time>2024-07-23T13:39:15Z</time>
      </trkpt>
      <trkpt lat="44.55602" lon="1.15701">
        <ele>292.2</ele>
        <time>2024-07-23T13:39:16Z</time>
      </trkpt>
      <trkpt lat="44.556" lon="1.15701">
        <ele>292.2</ele>
        <time>2024-07-23T13:39:17Z</time>
      </trkpt>
      <trkpt lat="44.55597" lon="1.157">
        <ele>292.2</ele>
        <time>2024-07-23T13:39:18Z</time>
      </trkpt>
      <trkpt lat="44.55594" lon="1.157">
        <ele>292.2</ele>
        <time>2024-07-23T13:39:19Z</time>
      </trkpt>
      <trkpt lat="44.5559" lon="1.15699">
        <ele>292.2</ele>
        <time>2024-07-23T13:39:20Z</time>
      </trkpt>
      <trkpt lat="44.55586" lon="1.15699">
        <ele>292</ele>
        <time>2024-07-23T13:39:21Z</time>
      </trkpt>
      <trkpt lat="44.55583" lon="1.15698">
        <ele>292</ele>
        <time>2024-07-23T13:39:22Z</time>
      </trkpt>
      <trkpt lat="44.55573" lon="1.15697">
        <ele>291.6</ele>
        <time>2024-07-23T13:39:24Z</time>
      </trkpt>
      <trkpt lat="44.55552" lon="1.15695">
        <ele>290.8</ele>
        <time>2024-07-23T13:39:27Z</time>
      </trkpt>
      <trkpt lat="44.55545" lon="1.15694">
        <ele>290.4</ele>
        <time>2024-07-23T13:39:28Z</time>
      </trkpt>
      <trkpt lat="44.55538" lon="1.15693">
        <ele>290.2</ele>
        <time>2024-07-23T13:39:29Z</time>
      </trkpt>
      <trkpt lat="44.55526" lon="1.15691">
        <ele>289.8</ele>
        <time>2024-07-23T13:39:31Z</time>
      </trkpt>
      <trkpt lat="44.5552" lon="1.1569">
        <ele>289.6</ele>
        <time>2024-07-23T13:39:32Z</time>
      </trkpt>
      <trkpt lat="44.55514" lon="1.15688">
        <ele>289.4</ele>
        <time>2024-07-23T13:39:33Z</time>
      </trkpt>
      <trkpt lat="44.55509" lon="1.15686">
        <ele>289.2</ele>
        <time>2024-07-23T13:39:34Z</time>
      </trkpt>
      <trkpt lat="44.55503" lon="1.15684">
        <ele>289</ele>
        <time>2024-07-23T13:39:35Z</time>
      </trkpt>
      <trkpt lat="44.55497" lon="1.15683">
        <ele>288.4</ele>
        <time>2024-07-23T13:39:36Z</time>
      </trkpt>
      <trkpt lat="44.55484" lon="1.1568">
        <ele>287.6</ele>
        <time>2024-07-23T13:39:38Z</time>
      </trkpt>
      <trkpt lat="44.55478" lon="1.15678">
        <ele>287.4</ele>
        <time>2024-07-23T13:39:39Z</time>
      </trkpt>
      <trkpt lat="44.55473" lon="1.15676">
        <ele>287.2</ele>
        <time>2024-07-23T13:39:40Z</time>
      </trkpt>
      <trkpt lat="44.55467" lon="1.15675">
        <ele>287</ele>
        <time>2024-07-23T13:39:41Z</time>
      </trkpt>
      <trkpt lat="44.55461" lon="1.15675">
        <ele>287</ele>
        <time>2024-07-23T13:39:42Z</time>
      </trkpt>
      <trkpt lat="44.55455" lon="1.15673">
        <ele>286.8</ele>
        <time>2024-07-23T13:39:43Z</time>
      </trkpt>
      <trkpt lat="44.55447" lon="1.15669">
        <ele>286.8</ele>
        <time>2024-07-23T13:39:45Z</time>
      </trkpt>
      <trkpt lat="44.55443" lon="1.15667">
        <ele>286.6</ele>
        <time>2024-07-23T13:39:46Z</time>
      </trkpt>
      <trkpt lat="44.5544" lon="1.15666">
        <ele>286.6</ele>
        <time>2024-07-23T13:39:47Z</time>
      </trkpt>
      <trkpt lat="44.55435" lon="1.15663">
        <ele>286.6</ele>
        <time>2024-07-23T13:39:48Z</time>
      </trkpt>
      <trkpt lat="44.55431" lon="1.15661">
        <ele>286.6</ele>
        <time>2024-07-23T13:39:49Z</time>
      </trkpt>
      <trkpt lat="44.55427" lon="1.15659">
        <ele>286.6</ele>
        <time>2024-07-23T13:39:50Z</time>
      </trkpt>
      <trkpt lat="44.5542" lon="1.15658">
        <ele>286.4</ele>
        <time>2024-07-23T13:39:52Z</time>
      </trkpt>
      <trkpt lat="44.55418" lon="1.15657">
        <ele>286.4</ele>
        <time>2024-07-23T13:39:53Z</time>
      </trkpt>
      <trkpt lat="44.55415" lon="1.15657">
        <ele>286.4</ele>
        <time>2024-07-23T13:39:54Z</time>
      </trkpt>
      <trkpt lat="44.55413" lon="1.15656">
        <ele>286.4</ele>
        <time>2024-07-23T13:39:55Z</time>
      </trkpt>
      <trkpt lat="44.55411" lon="1.15655">
        <ele>286.4</ele>
        <time>2024-07-23T13:39:56Z</time>
      </trkpt>
      <trkpt lat="44.55406" lon="1.15653">
        <ele>286.4</ele>
        <time>2024-07-23T13:39:58Z</time>
      </trkpt>
      <trkpt lat="44.55399" lon="1.1565">
        <ele>286.6</ele>
        <time>2024-07-23T13:40:00Z</time>
      </trkpt>
      <trkpt lat="44.55396" lon="1.15649">
        <ele>286.6</ele>
        <time>2024-07-23T13:40:01Z</time>
      </trkpt>
      <trkpt lat="44.55394" lon="1.15648">
        <ele>286.8</ele>
        <time>2024-07-23T13:40:02Z</time>
      </trkpt>
      <trkpt lat="44.55391" lon="1.15646">
        <ele>286.8</ele>
        <time>2024-07-23T13:40:03Z</time>
      </trkpt>
      <trkpt lat="44.55388" lon="1.15646">
        <ele>286.8</ele>
        <time>2024-07-23T13:40:04Z</time>
      </trkpt>
      <trkpt lat="44.55378" lon="1.15641">
        <ele>286.8</ele>
        <time>2024-07-23T13:40:07Z</time>
      </trkpt>
      <trkpt lat="44.55359" lon="1.15633">
        <ele>287.2</ele>
        <time>2024-07-23T13:40:12Z</time>
      </trkpt>
      <trkpt lat="44.55353" lon="1.15629">
        <ele>287.2</ele>
        <time>2024-07-23T13:40:14Z</time>
      </trkpt>
      <trkpt lat="44.55348" lon="1.15628">
        <ele>287.2</ele>
        <time>2024-07-23T13:40:15Z</time>
      </trkpt>
      <trkpt lat="44.55341" lon="1.15625">
        <ele>287.2</ele>
        <time>2024-07-23T13:40:17Z</time>
      </trkpt>
      <trkpt lat="44.55327" lon="1.15618">
        <ele>287.2</ele>
        <time>2024-07-23T13:40:20Z</time>
      </trkpt>
      <trkpt lat="44.55325" lon="1.15615">
        <ele>287.2</ele>
        <time>2024-07-23T13:40:21Z</time>
      </trkpt>
      <trkpt lat="44.55321" lon="1.15613">
        <ele>287.2</ele>
        <time>2024-07-23T13:40:22Z</time>
      </trkpt>
      <trkpt lat="44.55317" lon="1.15611">
        <ele>287.4</ele>
        <time>2024-07-23T13:40:23Z</time>
      </trkpt>
      <trkpt lat="44.55312" lon="1.15607">
        <ele>287.4</ele>
        <time>2024-07-23T13:40:24Z</time>
      </trkpt>
      <trkpt lat="44.55303" lon="1.15598">
        <ele>287.6</ele>
        <time>2024-07-23T13:40:28Z</time>
      </trkpt>
      <trkpt lat="44.55301" lon="1.15597">
        <ele>287.8</ele>
        <time>2024-07-23T13:40:29Z</time>
      </trkpt>
      <trkpt lat="44.55294" lon="1.15592">
        <ele>287.8</ele>
        <time>2024-07-23T13:40:32Z</time>
      </trkpt>
      <trkpt lat="44.5529" lon="1.1559">
        <ele>288</ele>
        <time>2024-07-23T13:40:33Z</time>
      </trkpt>
      <trkpt lat="44.55286" lon="1.15587">
        <ele>288</ele>
        <time>2024-07-23T13:40:34Z</time>
      </trkpt>
      <trkpt lat="44.55269" lon="1.15567">
        <ele>288.4</ele>
        <time>2024-07-23T13:40:40Z</time>
      </trkpt>
      <trkpt lat="44.55259" lon="1.15556">
        <ele>288.4</ele>
        <time>2024-07-23T13:40:44Z</time>
      </trkpt>
      <trkpt lat="44.55258" lon="1.15549">
        <ele>288.6</ele>
        <time>2024-07-23T13:40:46Z</time>
      </trkpt>
      <trkpt lat="44.55256" lon="1.15546">
        <ele>288.6</ele>
        <time>2024-07-23T13:40:47Z</time>
      </trkpt>
      <trkpt lat="44.55252" lon="1.1554">
        <ele>288.8</ele>
        <time>2024-07-23T13:40:49Z</time>
      </trkpt>
      <trkpt lat="44.55249" lon="1.15537">
        <ele>288.8</ele>
        <time>2024-07-23T13:40:50Z</time>
      </trkpt>
      <trkpt lat="44.55248" lon="1.15534">
        <ele>288.8</ele>
        <time>2024-07-23T13:40:51Z</time>
      </trkpt>
      <trkpt lat="44.55246" lon="1.15532">
        <ele>288.8</ele>
        <time>2024-07-23T13:40:52Z</time>
      </trkpt>
      <trkpt lat="44.55244" lon="1.15529">
        <ele>288.8</ele>
        <time>2024-07-23T13:40:53Z</time>
      </trkpt>
      <trkpt lat="44.55239" lon="1.15524">
        <ele>288.8</ele>
        <time>2024-07-23T13:40:55Z</time>
      </trkpt>
      <trkpt lat="44.55237" lon="1.15518">
        <ele>289</ele>
        <time>2024-07-23T13:40:56Z</time>
      </trkpt>
      <trkpt lat="44.55236" lon="1.15514">
        <ele>289</ele>
        <time>2024-07-23T13:40:57Z</time>
      </trkpt>
      <trkpt lat="44.55234" lon="1.15511">
        <ele>289</ele>
        <time>2024-07-23T13:40:58Z</time>
      </trkpt>
      <trkpt lat="44.55231" lon="1.15509">
        <ele>289.2</ele>
        <time>2024-07-23T13:40:59Z</time>
      </trkpt>
      <trkpt lat="44.55229" lon="1.15508">
        <ele>289.2</ele>
        <time>2024-07-23T13:41:00Z</time>
      </trkpt>
      <trkpt lat="44.55228" lon="1.15503">
        <ele>289.2</ele>
        <time>2024-07-23T13:41:01Z</time>
      </trkpt>
      <trkpt lat="44.55225" lon="1.15499">
        <ele>289.4</ele>
        <time>2024-07-23T13:41:02Z</time>
      </trkpt>
      <trkpt lat="44.55223" lon="1.15496">
        <ele>289.6</ele>
        <time>2024-07-23T13:41:04Z</time>
      </trkpt>
      <trkpt lat="44.55221" lon="1.15494">
        <ele>289.6</ele>
        <time>2024-07-23T13:41:05Z</time>
      </trkpt>
      <trkpt lat="44.55219" lon="1.1549">
        <ele>289.6</ele>
        <time>2024-07-23T13:41:07Z</time>
      </trkpt>
      <trkpt lat="44.55218" lon="1.1549">
        <ele>289.8</ele>
        <time>2024-07-23T13:41:08Z</time>
      </trkpt>
      <trkpt lat="44.55216" lon="1.15488">
        <ele>289.8</ele>
        <time>2024-07-23T13:41:09Z</time>
      </trkpt>
      <trkpt lat="44.55215" lon="1.15486">
        <ele>290.2</ele>
        <time>2024-07-23T13:41:11Z</time>
      </trkpt>
      <trkpt lat="44.55214" lon="1.15484">
        <ele>290.2</ele>
        <time>2024-07-23T13:41:12Z</time>
      </trkpt>
      <trkpt lat="44.55213" lon="1.15483">
        <ele>290.4</ele>
        <time>2024-07-23T13:41:13Z</time>
      </trkpt>
      <trkpt lat="44.55211" lon="1.15481">
        <ele>290.4</ele>
        <time>2024-07-23T13:41:14Z</time>
      </trkpt>
      <trkpt lat="44.55209" lon="1.15481">
        <ele>290.6</ele>
        <time>2024-07-23T13:41:15Z</time>
      </trkpt>
      <trkpt lat="44.55208" lon="1.15479">
        <ele>290.8</ele>
        <time>2024-07-23T13:41:16Z</time>
      </trkpt>
      <trkpt lat="44.55207" lon="1.15476">
        <ele>290.8</ele>
        <time>2024-07-23T13:41:17Z</time>
      </trkpt>
      <trkpt lat="44.55205" lon="1.15475">
        <ele>291.2</ele>
        <time>2024-07-23T13:41:18Z</time>
      </trkpt>
      <trkpt lat="44.55203" lon="1.15473">
        <ele>291.6</ele>
        <time>2024-07-23T13:41:19Z</time>
      </trkpt>
      <trkpt lat="44.55202" lon="1.15472">
        <ele>291.8</ele>
        <time>2024-07-23T13:41:20Z</time>
      </trkpt>
      <trkpt lat="44.55202" lon="1.1547">
        <ele>292</ele>
        <time>2024-07-23T13:41:21Z</time>
      </trkpt>
      <trkpt lat="44.55199" lon="1.15467">
        <ele>292.4</ele>
        <time>2024-07-23T13:41:23Z</time>
      </trkpt>
      <trkpt lat="44.55198" lon="1.15466">
        <ele>292.6</ele>
        <time>2024-07-23T13:41:24Z</time>
      </trkpt>
      <trkpt lat="44.55197" lon="1.15465">
        <ele>292.8</ele>
        <time>2024-07-23T13:41:25Z</time>
      </trkpt>
      <trkpt lat="44.55197" lon="1.15465">
        <ele>292.8</ele>
        <time>2024-07-23T13:41:26Z</time>
      </trkpt>
      <trkpt lat="44.55197" lon="1.15463">
        <ele>293.2</ele>
        <time>2024-07-23T13:41:27Z</time>
      </trkpt>
      <trkpt lat="44.55195" lon="1.15463">
        <ele>293.4</ele>
        <time>2024-07-23T13:41:28Z</time>
      </trkpt>
      <trkpt lat="44.55193" lon="1.15463">
        <ele>293.4</ele>
        <time>2024-07-23T13:41:29Z</time>
      </trkpt>
      <trkpt lat="44.55191" lon="1.15465">
        <ele>293.6</ele>
        <time>2024-07-23T13:41:30Z</time>
      </trkpt>
      <trkpt lat="44.55189" lon="1.15465">
        <ele>293.6</ele>
        <time>2024-07-23T13:41:31Z</time>
      </trkpt>
      <trkpt lat="44.55189" lon="1.15464">
        <ele>293.8</ele>
        <time>2024-07-23T13:41:32Z</time>
      </trkpt>
      <trkpt lat="44.55188" lon="1.15464">
        <ele>294</ele>
        <time>2024-07-23T13:41:33Z</time>
      </trkpt>
      <trkpt lat="44.55187" lon="1.15464">
        <ele>294.2</ele>
        <time>2024-07-23T13:41:34Z</time>
      </trkpt>
      <trkpt lat="44.55187" lon="1.15464">
        <ele>294.4</ele>
        <time>2024-07-23T13:41:35Z</time>
      </trkpt>
      <trkpt lat="44.55186" lon="1.15464">
        <ele>294.4</ele>
        <time>2024-07-23T13:41:36Z</time>
      </trkpt>
      <trkpt lat="44.55184" lon="1.15464">
        <ele>294.6</ele>
        <time>2024-07-23T13:41:37Z</time>
      </trkpt>
      <trkpt lat="44.55183" lon="1.15464">
        <ele>294.6</ele>
        <time>2024-07-23T13:41:38Z</time>
      </trkpt>
      <trkpt lat="44.55182" lon="1.15463">
        <ele>294.8</ele>
        <time>2024-07-23T13:41:39Z</time>
      </trkpt>
      <trkpt lat="44.55181" lon="1.15463">
        <ele>295</ele>
        <time>2024-07-23T13:41:40Z</time>
      </trkpt>
      <trkpt lat="44.5518" lon="1.15463">
        <ele>295</ele>
        <time>2024-07-23T13:41:41Z</time>
      </trkpt>
      <trkpt lat="44.55179" lon="1.15462">
        <ele>295</ele>
        <time>2024-07-23T13:41:42Z</time>
      </trkpt>
      <trkpt lat="44.55177" lon="1.15462">
        <ele>295.2</ele>
        <time>2024-07-23T13:41:43Z</time>
      </trkpt>
      <trkpt lat="44.55177" lon="1.15462">
        <ele>295.4</ele>
        <time>2024-07-23T13:41:44Z</time>
      </trkpt>
      <trkpt lat="44.55174" lon="1.15461">
        <ele>295.4</ele>
        <time>2024-07-23T13:41:45Z</time>
      </trkpt>
      <trkpt lat="44.55172" lon="1.15461">
        <ele>295.6</ele>
        <time>2024-07-23T13:41:46Z</time>
      </trkpt>
      <trkpt lat="44.5517" lon="1.15461">
        <ele>295.8</ele>
        <time>2024-07-23T13:41:47Z</time>
      </trkpt>
      <trkpt lat="44.55169" lon="1.1546">
        <ele>296</ele>
        <time>2024-07-23T13:41:48Z</time>
      </trkpt>
      <trkpt lat="44.55168" lon="1.1546">
        <ele>296.2</ele>
        <time>2024-07-23T13:41:49Z</time>
      </trkpt>
      <trkpt lat="44.55166" lon="1.1546">
        <ele>296.2</ele>
        <time>2024-07-23T13:41:50Z</time>
      </trkpt>
      <trkpt lat="44.55165" lon="1.1546">
        <ele>296.4</ele>
        <time>2024-07-23T13:41:51Z</time>
      </trkpt>
      <trkpt lat="44.55163" lon="1.1546">
        <ele>296.6</ele>
        <time>2024-07-23T13:41:52Z</time>
      </trkpt>
      <trkpt lat="44.55161" lon="1.15459">
        <ele>296.8</ele>
        <time>2024-07-23T13:41:53Z</time>
      </trkpt>
      <trkpt lat="44.5516" lon="1.15459">
        <ele>297</ele>
        <time>2024-07-23T13:41:54Z</time>
      </trkpt>
      <trkpt lat="44.5516" lon="1.15459">
        <ele>297.2</ele>
        <time>2024-07-23T13:41:55Z</time>
      </trkpt>
      <trkpt lat="44.55159" lon="1.15458">
        <ele>297.6</ele>
        <time>2024-07-23T13:41:56Z</time>
      </trkpt>
      <trkpt lat="44.55157" lon="1.15458">
        <ele>297.8</ele>
        <time>2024-07-23T13:41:57Z</time>
      </trkpt>
      <trkpt lat="44.55156" lon="1.15457">
        <ele>298.2</ele>
        <time>2024-07-23T13:41:58Z</time>
      </trkpt>
      <trkpt lat="44.55155" lon="1.15456">
        <ele>298.4</ele>
        <time>2024-07-23T13:41:59Z</time>
      </trkpt>
      <trkpt lat="44.55153" lon="1.15455">
        <ele>298.6</ele>
        <time>2024-07-23T13:42:00Z</time>
      </trkpt>
      <trkpt lat="44.55151" lon="1.15454">
        <ele>298.8</ele>
        <time>2024-07-23T13:42:01Z</time>
      </trkpt>
      <trkpt lat="44.5515" lon="1.15453">
        <ele>298.8</ele>
        <time>2024-07-23T13:42:02Z</time>
      </trkpt>
      <trkpt lat="44.55148" lon="1.15453">
        <ele>299</ele>
        <time>2024-07-23T13:42:03Z</time>
      </trkpt>
      <trkpt lat="44.55146" lon="1.15453">
        <ele>299.2</ele>
        <time>2024-07-23T13:42:04Z</time>
      </trkpt>
      <trkpt lat="44.55144" lon="1.15453">
        <ele>299.2</ele>
        <time>2024-07-23T13:42:05Z</time>
      </trkpt>
      <trkpt lat="44.55143" lon="1.15453">
        <ele>299.2</ele>
        <time>2024-07-23T13:42:06Z</time>
      </trkpt>
      <trkpt lat="44.55142" lon="1.15453">
        <ele>299.2</ele>
        <time>2024-07-23T13:42:07Z</time>
      </trkpt>
      <trkpt lat="44.55141" lon="1.15453">
        <ele>299.4</ele>
        <time>2024-07-23T13:42:08Z</time>
      </trkpt>
      <trkpt lat="44.5514" lon="1.15452">
        <ele>299.6</ele>
        <time>2024-07-23T13:42:09Z</time>
      </trkpt>
      <trkpt lat="44.55138" lon="1.15451">
        <ele>299.8</ele>
        <time>2024-07-23T13:42:10Z</time>
      </trkpt>
      <trkpt lat="44.55135" lon="1.15451">
        <ele>299.8</ele>
        <time>2024-07-23T13:42:11Z</time>
      </trkpt>
      <trkpt lat="44.55134" lon="1.1545">
        <ele>300.2</ele>
        <time>2024-07-23T13:42:12Z</time>
      </trkpt>
      <trkpt lat="44.55132" lon="1.1545">
        <ele>300.2</ele>
        <time>2024-07-23T13:42:13Z</time>
      </trkpt>
      <trkpt lat="44.5513" lon="1.1545">
        <ele>300.4</ele>
        <time>2024-07-23T13:42:14Z</time>
      </trkpt>
      <trkpt lat="44.55129" lon="1.15449">
        <ele>300.4</ele>
        <time>2024-07-23T13:42:15Z</time>
      </trkpt>
      <trkpt lat="44.55128" lon="1.15449">
        <ele>300.4</ele>
        <time>2024-07-23T13:42:16Z</time>
      </trkpt>
      <trkpt lat="44.55127" lon="1.15447">
        <ele>300.6</ele>
        <time>2024-07-23T13:42:17Z</time>
      </trkpt>
      <trkpt lat="44.55127" lon="1.15446">
        <ele>300.6</ele>
        <time>2024-07-23T13:42:18Z</time>
      </trkpt>
      <trkpt lat="44.55127" lon="1.15445">
        <ele>300.8</ele>
        <time>2024-07-23T13:42:19Z</time>
      </trkpt>
      <trkpt lat="44.55126" lon="1.15444">
        <ele>301</ele>
        <time>2024-07-23T13:42:20Z</time>
      </trkpt>
      <trkpt lat="44.55126" lon="1.15443">
        <ele>301</ele>
        <time>2024-07-23T13:42:21Z</time>
      </trkpt>
      <trkpt lat="44.55125" lon="1.15442">
        <ele>301.2</ele>
        <time>2024-07-23T13:42:22Z</time>
      </trkpt>
      <trkpt lat="44.55124" lon="1.1544">
        <ele>301.4</ele>
        <time>2024-07-23T13:42:23Z</time>
      </trkpt>
      <trkpt lat="44.55122" lon="1.15438">
        <ele>301.4</ele>
        <time>2024-07-23T13:42:24Z</time>
      </trkpt>
      <trkpt lat="44.55121" lon="1.15437">
        <ele>301.4</ele>
        <time>2024-07-23T13:42:25Z</time>
      </trkpt>
      <trkpt lat="44.55121" lon="1.15435">
        <ele>301.8</ele>
        <time>2024-07-23T13:42:26Z</time>
      </trkpt>
      <trkpt lat="44.55119" lon="1.15433">
        <ele>301.8</ele>
        <time>2024-07-23T13:42:27Z</time>
      </trkpt>
      <trkpt lat="44.55118" lon="1.15431">
        <ele>301.8</ele>
        <time>2024-07-23T13:42:28Z</time>
      </trkpt>
      <trkpt lat="44.55117" lon="1.1543">
        <ele>301.8</ele>
        <time>2024-07-23T13:42:29Z</time>
      </trkpt>
      <trkpt lat="44.55115" lon="1.15428">
        <ele>301.8</ele>
        <time>2024-07-23T13:42:30Z</time>
      </trkpt>
      <trkpt lat="44.55114" lon="1.15427">
        <ele>302</ele>
        <time>2024-07-23T13:42:31Z</time>
      </trkpt>
      <trkpt lat="44.55113" lon="1.15425">
        <ele>302</ele>
        <time>2024-07-23T13:42:32Z</time>
      </trkpt>
      <trkpt lat="44.55112" lon="1.15423">
        <ele>302</ele>
        <time>2024-07-23T13:42:33Z</time>
      </trkpt>
      <trkpt lat="44.55112" lon="1.15422">
        <ele>302.4</ele>
        <time>2024-07-23T13:42:34Z</time>
      </trkpt>
      <trkpt lat="44.5511" lon="1.1542">
        <ele>302.4</ele>
        <time>2024-07-23T13:42:35Z</time>
      </trkpt>
      <trkpt lat="44.55109" lon="1.15419">
        <ele>302.4</ele>
        <time>2024-07-23T13:42:36Z</time>
      </trkpt>
      <trkpt lat="44.55108" lon="1.15417">
        <ele>302.6</ele>
        <time>2024-07-23T13:42:37Z</time>
      </trkpt>
      <trkpt lat="44.55108" lon="1.15416">
        <ele>302.6</ele>
        <time>2024-07-23T13:42:38Z</time>
      </trkpt>
      <trkpt lat="44.55107" lon="1.15415">
        <ele>302.8</ele>
        <time>2024-07-23T13:42:39Z</time>
      </trkpt>
      <trkpt lat="44.55106" lon="1.15414">
        <ele>302.8</ele>
        <time>2024-07-23T13:42:40Z</time>
      </trkpt>
      <trkpt lat="44.55105" lon="1.15413">
        <ele>302.8</ele>
        <time>2024-07-23T13:42:41Z</time>
      </trkpt>
      <trkpt lat="44.55104" lon="1.15412">
        <ele>302.8</ele>
        <time>2024-07-23T13:42:42Z</time>
      </trkpt>
      <trkpt lat="44.55103" lon="1.15411">
        <ele>303</ele>
        <time>2024-07-23T13:42:43Z</time>
      </trkpt>
      <trkpt lat="44.55102" lon="1.1541">
        <ele>303</ele>
        <time>2024-07-23T13:42:44Z</time>
      </trkpt>
      <trkpt lat="44.55102" lon="1.1541">
        <ele>303</ele>
        <time>2024-07-23T13:42:45Z</time>
      </trkpt>
      <trkpt lat="44.55102" lon="1.1541">
        <ele>303.2</ele>
        <time>2024-07-23T13:42:47Z</time>
      </trkpt>
      <trkpt lat="44.551" lon="1.15404">
        <ele>304.6</ele>
        <time>2024-07-23T13:44:34Z</time>
      </trkpt>
      <trkpt lat="44.55098" lon="1.15396">
        <ele>304.6</ele>
        <time>2024-07-23T13:44:37Z</time>
      </trkpt>
      <trkpt lat="44.55093" lon="1.15386">
        <ele>304.6</ele>
        <time>2024-07-23T13:44:40Z</time>
      </trkpt>
      <trkpt lat="44.55091" lon="1.15381">
        <ele>304.6</ele>
        <time>2024-07-23T13:44:42Z</time>
      </trkpt>
      <trkpt lat="44.5509" lon="1.15379">
        <ele>304.6</ele>
        <time>2024-07-23T13:44:43Z</time>
      </trkpt>
      <trkpt lat="44.55084" lon="1.15367">
        <ele>304.6</ele>
        <time>2024-07-23T13:44:47Z</time>
      </trkpt>
      <trkpt lat="44.5507" lon="1.15337">
        <ele>304.4</ele>
        <time>2024-07-23T13:44:55Z</time>
      </trkpt>
      <trkpt lat="44.55069" lon="1.15334">
        <ele>304.4</ele>
        <time>2024-07-23T13:44:56Z</time>
      </trkpt>
      <trkpt lat="44.55067" lon="1.15323">
        <ele>304.6</ele>
        <time>2024-07-23T13:44:59Z</time>
      </trkpt>
      <trkpt lat="44.55063" lon="1.15313">
        <ele>304.6</ele>
        <time>2024-07-23T13:45:01Z</time>
      </trkpt>
      <trkpt lat="44.55063" lon="1.15308">
        <ele>304.8</ele>
        <time>2024-07-23T13:45:02Z</time>
      </trkpt>
      <trkpt lat="44.55063" lon="1.15304">
        <ele>304.8</ele>
        <time>2024-07-23T13:45:03Z</time>
      </trkpt>
      <trkpt lat="44.55062" lon="1.15301">
        <ele>304.8</ele>
        <time>2024-07-23T13:45:04Z</time>
      </trkpt>
      <trkpt lat="44.5506" lon="1.15293">
        <ele>305</ele>
        <time>2024-07-23T13:45:06Z</time>
      </trkpt>
      <trkpt lat="44.55057" lon="1.1529">
        <ele>305</ele>
        <time>2024-07-23T13:45:07Z</time>
      </trkpt>
      <trkpt lat="44.55054" lon="1.15276">
        <ele>305.4</ele>
        <time>2024-07-23T13:45:11Z</time>
      </trkpt>
      <trkpt lat="44.55053" lon="1.15272">
        <ele>305.4</ele>
        <time>2024-07-23T13:45:12Z</time>
      </trkpt>
      <trkpt lat="44.55051" lon="1.15268">
        <ele>305.4</ele>
        <time>2024-07-23T13:45:13Z</time>
      </trkpt>
      <trkpt lat="44.55042" lon="1.15237">
        <ele>305</ele>
        <time>2024-07-23T13:45:18Z</time>
      </trkpt>
      <trkpt lat="44.55032" lon="1.15191">
        <ele>303.4</ele>
        <time>2024-07-23T13:45:23Z</time>
      </trkpt>
      <trkpt lat="44.5503" lon="1.15172">
        <ele>302.2</ele>
        <time>2024-07-23T13:45:25Z</time>
      </trkpt>
      <trkpt lat="44.55027" lon="1.15152">
        <ele>301.8</ele>
        <time>2024-07-23T13:45:27Z</time>
      </trkpt>
      <trkpt lat="44.55026" lon="1.15124">
        <ele>301.4</ele>
        <time>2024-07-23T13:45:30Z</time>
      </trkpt>
      <trkpt lat="44.55023" lon="1.15115">
        <ele>301.2</ele>
        <time>2024-07-23T13:45:31Z</time>
      </trkpt>
      <trkpt lat="44.55021" lon="1.15106">
        <ele>301</ele>
        <time>2024-07-23T13:45:32Z</time>
      </trkpt>
      <trkpt lat="44.5502" lon="1.15096">
        <ele>300.8</ele>
        <time>2024-07-23T13:45:33Z</time>
      </trkpt>
      <trkpt lat="44.55019" lon="1.15087">
        <ele>300.8</ele>
        <time>2024-07-23T13:45:34Z</time>
      </trkpt>
      <trkpt lat="44.55016" lon="1.15079">
        <ele>300.6</ele>
        <time>2024-07-23T13:45:35Z</time>
      </trkpt>
      <trkpt lat="44.55014" lon="1.1507">
        <ele>300.6</ele>
        <time>2024-07-23T13:45:36Z</time>
      </trkpt>
      <trkpt lat="44.55011" lon="1.15062">
        <ele>300.4</ele>
        <time>2024-07-23T13:45:37Z</time>
      </trkpt>
      <trkpt lat="44.55009" lon="1.15053">
        <ele>300.4</ele>
        <time>2024-07-23T13:45:38Z</time>
      </trkpt>
      <trkpt lat="44.54996" lon="1.15008">
        <ele>300.2</ele>
        <time>2024-07-23T13:45:44Z</time>
      </trkpt>
      <trkpt lat="44.54993" lon="1.15002">
        <ele>300.2</ele>
        <time>2024-07-23T13:45:45Z</time>
      </trkpt>
      <trkpt lat="44.54991" lon="1.14996">
        <ele>300.2</ele>
        <time>2024-07-23T13:45:46Z</time>
      </trkpt>
      <trkpt lat="44.54989" lon="1.1499">
        <ele>300.2</ele>
        <time>2024-07-23T13:45:47Z</time>
      </trkpt>
      <trkpt lat="44.54986" lon="1.14985">
        <ele>300</ele>
        <time>2024-07-23T13:45:48Z</time>
      </trkpt>
      <trkpt lat="44.54984" lon="1.14979">
        <ele>300</ele>
        <time>2024-07-23T13:45:49Z</time>
      </trkpt>
      <trkpt lat="44.54981" lon="1.14974">
        <ele>300</ele>
        <time>2024-07-23T13:45:50Z</time>
      </trkpt>
      <trkpt lat="44.54976" lon="1.14963">
        <ele>299.8</ele>
        <time>2024-07-23T13:45:52Z</time>
      </trkpt>
      <trkpt lat="44.54973" lon="1.14958">
        <ele>299.8</ele>
        <time>2024-07-23T13:45:53Z</time>
      </trkpt>
      <trkpt lat="44.54971" lon="1.14953">
        <ele>299.8</ele>
        <time>2024-07-23T13:45:54Z</time>
      </trkpt>
      <trkpt lat="44.54968" lon="1.14948">
        <ele>299.8</ele>
        <time>2024-07-23T13:45:55Z</time>
      </trkpt>
      <trkpt lat="44.54952" lon="1.14909">
        <ele>300.2</ele>
        <time>2024-07-23T13:46:02Z</time>
      </trkpt>
      <trkpt lat="44.54949" lon="1.14903">
        <ele>300.2</ele>
        <time>2024-07-23T13:46:03Z</time>
      </trkpt>
      <trkpt lat="44.54942" lon="1.14886">
        <ele>300.2</ele>
        <time>2024-07-23T13:46:06Z</time>
      </trkpt>
      <trkpt lat="44.5494" lon="1.14879">
        <ele>300.4</ele>
        <time>2024-07-23T13:46:07Z</time>
      </trkpt>
      <trkpt lat="44.54938" lon="1.14874">
        <ele>300.4</ele>
        <time>2024-07-23T13:46:08Z</time>
      </trkpt>
      <trkpt lat="44.54937" lon="1.14869">
        <ele>300.4</ele>
        <time>2024-07-23T13:46:09Z</time>
      </trkpt>
      <trkpt lat="44.54935" lon="1.14863">
        <ele>300.6</ele>
        <time>2024-07-23T13:46:10Z</time>
      </trkpt>
      <trkpt lat="44.54933" lon="1.14858">
        <ele>300.6</ele>
        <time>2024-07-23T13:46:11Z</time>
      </trkpt>
      <trkpt lat="44.54932" lon="1.14853">
        <ele>300.6</ele>
        <time>2024-07-23T13:46:12Z</time>
      </trkpt>
      <trkpt lat="44.5493" lon="1.14848">
        <ele>300.8</ele>
        <time>2024-07-23T13:46:13Z</time>
      </trkpt>
      <trkpt lat="44.54929" lon="1.14844">
        <ele>301</ele>
        <time>2024-07-23T13:46:14Z</time>
      </trkpt>
      <trkpt lat="44.54928" lon="1.14839">
        <ele>301.2</ele>
        <time>2024-07-23T13:46:15Z</time>
      </trkpt>
      <trkpt lat="44.54926" lon="1.14835">
        <ele>301.4</ele>
        <time>2024-07-23T13:46:16Z</time>
      </trkpt>
      <trkpt lat="44.54922" lon="1.14821">
        <ele>301.8</ele>
        <time>2024-07-23T13:46:19Z</time>
      </trkpt>
      <trkpt lat="44.54911" lon="1.1479">
        <ele>302</ele>
        <time>2024-07-23T13:46:24Z</time>
      </trkpt>
      <trkpt lat="44.54905" lon="1.14775">
        <ele>301.8</ele>
        <time>2024-07-23T13:46:26Z</time>
      </trkpt>
      <trkpt lat="44.549" lon="1.1476">
        <ele>301.6</ele>
        <time>2024-07-23T13:46:28Z</time>
      </trkpt>
      <trkpt lat="44.54898" lon="1.14752">
        <ele>301.4</ele>
        <time>2024-07-23T13:46:29Z</time>
      </trkpt>
      <trkpt lat="44.54895" lon="1.14745">
        <ele>301</ele>
        <time>2024-07-23T13:46:30Z</time>
      </trkpt>
      <trkpt lat="44.54886" lon="1.14721">
        <ele>300.6</ele>
        <time>2024-07-23T13:46:33Z</time>
      </trkpt>
      <trkpt lat="44.54884" lon="1.14714">
        <ele>300.4</ele>
        <time>2024-07-23T13:46:34Z</time>
      </trkpt>
      <trkpt lat="44.54883" lon="1.14707">
        <ele>300.2</ele>
        <time>2024-07-23T13:46:35Z</time>
      </trkpt>
      <trkpt lat="44.54881" lon="1.14699">
        <ele>300.2</ele>
        <time>2024-07-23T13:46:36Z</time>
      </trkpt>
      <trkpt lat="44.5488" lon="1.14692">
        <ele>300</ele>
        <time>2024-07-23T13:46:37Z</time>
      </trkpt>
      <trkpt lat="44.54878" lon="1.14684">
        <ele>299.8</ele>
        <time>2024-07-23T13:46:38Z</time>
      </trkpt>
      <trkpt lat="44.54877" lon="1.14677">
        <ele>299.8</ele>
        <time>2024-07-23T13:46:39Z</time>
      </trkpt>
      <trkpt lat="44.54875" lon="1.1467">
        <ele>299.8</ele>
        <time>2024-07-23T13:46:40Z</time>
      </trkpt>
      <trkpt lat="44.54873" lon="1.14663">
        <ele>299.8</ele>
        <time>2024-07-23T13:46:41Z</time>
      </trkpt>
      <trkpt lat="44.54868" lon="1.14629">
        <ele>299.6</ele>
        <time>2024-07-23T13:46:46Z</time>
      </trkpt>
      <trkpt lat="44.54868" lon="1.14622">
        <ele>299.4</ele>
        <time>2024-07-23T13:46:47Z</time>
      </trkpt>
      <trkpt lat="44.54868" lon="1.14608">
        <ele>299.2</ele>
        <time>2024-07-23T13:46:49Z</time>
      </trkpt>
      <trkpt lat="44.54868" lon="1.14601">
        <ele>299.2</ele>
        <time>2024-07-23T13:46:50Z</time>
      </trkpt>
      <trkpt lat="44.54868" lon="1.14595">
        <ele>299.2</ele>
        <time>2024-07-23T13:46:51Z</time>
      </trkpt>
      <trkpt lat="44.54868" lon="1.14588">
        <ele>299.2</ele>
        <time>2024-07-23T13:46:52Z</time>
      </trkpt>
      <trkpt lat="44.54867" lon="1.14586">
        <ele>299.2</ele>
        <time>2024-07-23T13:46:53Z</time>
      </trkpt>
      <trkpt lat="44.54867" lon="1.14584">
        <ele>299.2</ele>
        <time>2024-07-23T13:46:54Z</time>
      </trkpt>
      <trkpt lat="44.54866" lon="1.14583">
        <ele>299.2</ele>
        <time>2024-07-23T13:46:55Z</time>
      </trkpt>
      <trkpt lat="44.54867" lon="1.14581">
        <ele>299.2</ele>
        <time>2024-07-23T13:46:56Z</time>
      </trkpt>
      <trkpt lat="44.54867" lon="1.14579">
        <ele>299.2</ele>
        <time>2024-07-23T13:46:57Z</time>
      </trkpt>
      <trkpt lat="44.54867" lon="1.14578">
        <ele>299.2</ele>
        <time>2024-07-23T13:46:58Z</time>
      </trkpt>
      <trkpt lat="44.54867" lon="1.14578">
        <ele>299.2</ele>
        <time>2024-07-23T13:46:59Z</time>
      </trkpt>
      <trkpt lat="44.54866" lon="1.14578">
        <ele>299.2</ele>
        <time>2024-07-23T13:47:00Z</time>
      </trkpt>
      <trkpt lat="44.54867" lon="1.14581">
        <ele>299.2</ele>
        <time>2024-07-23T13:47:02Z</time>
      </trkpt>
      <trkpt lat="44.54868" lon="1.14601">
        <ele>299.2</ele>
        <time>2024-07-23T13:47:09Z</time>
      </trkpt>
      <trkpt lat="44.54868" lon="1.14614">
        <ele>299.2</ele>
        <time>2024-07-23T13:47:12Z</time>
      </trkpt>
      <trkpt lat="44.54868" lon="1.14617">
        <ele>299.2</ele>
        <time>2024-07-23T13:47:13Z</time>
      </trkpt>
      <trkpt lat="44.54868" lon="1.14621">
        <ele>299.2</ele>
        <time>2024-07-23T13:47:14Z</time>
      </trkpt>
      <trkpt lat="44.54867" lon="1.14624">
        <ele>299</ele>
        <time>2024-07-23T13:47:15Z</time>
      </trkpt>
      <trkpt lat="44.54867" lon="1.14624">
        <ele>299</ele>
        <time>2024-07-23T13:47:16Z</time>
      </trkpt>
      <trkpt lat="44.54866" lon="1.14624">
        <ele>299</ele>
        <time>2024-07-23T13:47:17Z</time>
      </trkpt>
      <trkpt lat="44.54865" lon="1.14624">
        <ele>299</ele>
        <time>2024-07-23T13:47:18Z</time>
      </trkpt>
      <trkpt lat="44.54863" lon="1.14622">
        <ele>299</ele>
        <time>2024-07-23T13:47:20Z</time>
      </trkpt>
      <trkpt lat="44.54858" lon="1.14615">
        <ele>298.8</ele>
        <time>2024-07-23T13:47:22Z</time>
      </trkpt>
      <trkpt lat="44.54856" lon="1.1461">
        <ele>298.8</ele>
        <time>2024-07-23T13:47:23Z</time>
      </trkpt>
      <trkpt lat="44.54854" lon="1.14605">
        <ele>298.6</ele>
        <time>2024-07-23T13:47:24Z</time>
      </trkpt>
      <trkpt lat="44.54852" lon="1.14596">
        <ele>298.4</ele>
        <time>2024-07-23T13:47:26Z</time>
      </trkpt>
      <trkpt lat="44.54847" lon="1.14584">
        <ele>298</ele>
        <time>2024-07-23T13:47:28Z</time>
      </trkpt>
      <trkpt lat="44.54842" lon="1.14574">
        <ele>297.6</ele>
        <time>2024-07-23T13:47:30Z</time>
      </trkpt>
      <trkpt lat="44.5484" lon="1.14568">
        <ele>297.4</ele>
        <time>2024-07-23T13:47:31Z</time>
      </trkpt>
      <trkpt lat="44.54838" lon="1.14562">
        <ele>297.2</ele>
        <time>2024-07-23T13:47:32Z</time>
      </trkpt>
      <trkpt lat="44.54836" lon="1.14557">
        <ele>297</ele>
        <time>2024-07-23T13:47:33Z</time>
      </trkpt>
      <trkpt lat="44.54829" lon="1.14536">
        <ele>296.2</ele>
        <time>2024-07-23T13:47:36Z</time>
      </trkpt>
      <trkpt lat="44.54826" lon="1.1453">
        <ele>296</ele>
        <time>2024-07-23T13:47:37Z</time>
      </trkpt>
      <trkpt lat="44.54824" lon="1.14523">
        <ele>295.4</ele>
        <time>2024-07-23T13:47:38Z</time>
      </trkpt>
      <trkpt lat="44.54822" lon="1.14517">
        <ele>294.8</ele>
        <time>2024-07-23T13:47:39Z</time>
      </trkpt>
      <trkpt lat="44.5482" lon="1.1451">
        <ele>294.4</ele>
        <time>2024-07-23T13:47:40Z</time>
      </trkpt>
      <trkpt lat="44.54818" lon="1.14505">
        <ele>294</ele>
        <time>2024-07-23T13:47:41Z</time>
      </trkpt>
      <trkpt lat="44.54816" lon="1.14499">
        <ele>293.8</ele>
        <time>2024-07-23T13:47:42Z</time>
      </trkpt>
      <trkpt lat="44.54814" lon="1.14493">
        <ele>293.4</ele>
        <time>2024-07-23T13:47:43Z</time>
      </trkpt>
      <trkpt lat="44.5481" lon="1.14486">
        <ele>293</ele>
        <time>2024-07-23T13:47:44Z</time>
      </trkpt>
      <trkpt lat="44.54807" lon="1.1448">
        <ele>293</ele>
        <time>2024-07-23T13:47:45Z</time>
      </trkpt>
      <trkpt lat="44.54804" lon="1.14473">
        <ele>292.6</ele>
        <time>2024-07-23T13:47:46Z</time>
      </trkpt>
      <trkpt lat="44.54797" lon="1.14445">
        <ele>291.6</ele>
        <time>2024-07-23T13:47:50Z</time>
      </trkpt>
      <trkpt lat="44.54793" lon="1.1442">
        <ele>290.6</ele>
        <time>2024-07-23T13:47:53Z</time>
      </trkpt>
      <trkpt lat="44.54792" lon="1.14415">
        <ele>290.4</ele>
        <time>2024-07-23T13:47:54Z</time>
      </trkpt>
      <trkpt lat="44.54791" lon="1.1441">
        <ele>289.8</ele>
        <time>2024-07-23T13:47:55Z</time>
      </trkpt>
      <trkpt lat="44.5479" lon="1.14407">
        <ele>289.6</ele>
        <time>2024-07-23T13:47:56Z</time>
      </trkpt>
      <trkpt lat="44.54789" lon="1.14405">
        <ele>289.2</ele>
        <time>2024-07-23T13:47:57Z</time>
      </trkpt>
      <trkpt lat="44.54787" lon="1.14403">
        <ele>288.8</ele>
        <time>2024-07-23T13:47:58Z</time>
      </trkpt>
      <trkpt lat="44.54785" lon="1.14396">
        <ele>288.2</ele>
        <time>2024-07-23T13:48:01Z</time>
      </trkpt>
      <trkpt lat="44.54782" lon="1.14394">
        <ele>288</ele>
        <time>2024-07-23T13:48:02Z</time>
      </trkpt>
      <trkpt lat="44.54781" lon="1.1439">
        <ele>287.8</ele>
        <time>2024-07-23T13:48:03Z</time>
      </trkpt>
      <trkpt lat="44.54763" lon="1.14361">
        <ele>287.4</ele>
        <time>2024-07-23T13:48:11Z</time>
      </trkpt>
      <trkpt lat="44.54758" lon="1.14357">
        <ele>287.4</ele>
        <time>2024-07-23T13:48:13Z</time>
      </trkpt>
      <trkpt lat="44.54755" lon="1.14355">
        <ele>287.6</ele>
        <time>2024-07-23T13:48:14Z</time>
      </trkpt>
      <trkpt lat="44.5475" lon="1.14349">
        <ele>287.8</ele>
        <time>2024-07-23T13:48:17Z</time>
      </trkpt>
      <trkpt lat="44.54749" lon="1.14346">
        <ele>288</ele>
        <time>2024-07-23T13:48:18Z</time>
      </trkpt>
      <trkpt lat="44.54748" lon="1.14344">
        <ele>288</ele>
        <time>2024-07-23T13:48:19Z</time>
      </trkpt>
      <trkpt lat="44.54747" lon="1.14344">
        <ele>288.2</ele>
        <time>2024-07-23T13:48:20Z</time>
      </trkpt>
      <trkpt lat="44.54746" lon="1.14343">
        <ele>288.6</ele>
        <time>2024-07-23T13:48:21Z</time>
      </trkpt>
      <trkpt lat="44.54745" lon="1.14342">
        <ele>289.2</ele>
        <time>2024-07-23T13:48:22Z</time>
      </trkpt>
      <trkpt lat="44.54743" lon="1.14342">
        <ele>289.2</ele>
        <time>2024-07-23T13:48:23Z</time>
      </trkpt>
      <trkpt lat="44.54742" lon="1.14341">
        <ele>289.6</ele>
        <time>2024-07-23T13:48:24Z</time>
      </trkpt>
      <trkpt lat="44.5474" lon="1.1434">
        <ele>289.6</ele>
        <time>2024-07-23T13:48:26Z</time>
      </trkpt>
      <trkpt lat="44.5474" lon="1.14338">
        <ele>289.6</ele>
        <time>2024-07-23T13:48:27Z</time>
      </trkpt>
      <trkpt lat="44.5474" lon="1.14338">
        <ele>289.8</ele>
        <time>2024-07-23T13:48:28Z</time>
      </trkpt>
      <trkpt lat="44.54739" lon="1.14337">
        <ele>289.8</ele>
        <time>2024-07-23T13:48:29Z</time>
      </trkpt>
      <trkpt lat="44.54738" lon="1.14336">
        <ele>289.8</ele>
        <time>2024-07-23T13:48:30Z</time>
      </trkpt>
      <trkpt lat="44.54736" lon="1.14336">
        <ele>289.8</ele>
        <time>2024-07-23T13:48:31Z</time>
      </trkpt>
      <trkpt lat="44.54735" lon="1.14335">
        <ele>289.8</ele>
        <time>2024-07-23T13:48:32Z</time>
      </trkpt>
      <trkpt lat="44.54734" lon="1.14334">
        <ele>289.8</ele>
        <time>2024-07-23T13:48:33Z</time>
      </trkpt>
      <trkpt lat="44.54734" lon="1.14333">
        <ele>289.8</ele>
        <time>2024-07-23T13:48:34Z</time>
      </trkpt>
      <trkpt lat="44.54733" lon="1.14331">
        <ele>289.8</ele>
        <time>2024-07-23T13:48:35Z</time>
      </trkpt>
      <trkpt lat="44.54733" lon="1.1433">
        <ele>289.8</ele>
        <time>2024-07-23T13:48:36Z</time>
      </trkpt>
      <trkpt lat="44.54732" lon="1.14328">
        <ele>289.8</ele>
        <time>2024-07-23T13:48:37Z</time>
      </trkpt>
      <trkpt lat="44.54731" lon="1.14328">
        <ele>289.8</ele>
        <time>2024-07-23T13:48:38Z</time>
      </trkpt>
      <trkpt lat="44.54732" lon="1.14332">
        <ele>289.8</ele>
        <time>2024-07-23T13:48:41Z</time>
      </trkpt>
      <trkpt lat="44.54734" lon="1.14333">
        <ele>289.8</ele>
        <time>2024-07-23T13:48:42Z</time>
      </trkpt>
      <trkpt lat="44.54738" lon="1.14335">
        <ele>290</ele>
        <time>2024-07-23T13:48:44Z</time>
      </trkpt>
      <trkpt lat="44.54742" lon="1.14338">
        <ele>290</ele>
        <time>2024-07-23T13:48:46Z</time>
      </trkpt>
      <trkpt lat="44.54744" lon="1.14337">
        <ele>290</ele>
        <time>2024-07-23T13:48:47Z</time>
      </trkpt>
      <trkpt lat="44.54745" lon="1.14335">
        <ele>290</ele>
        <time>2024-07-23T13:48:48Z</time>
      </trkpt>
      <trkpt lat="44.54744" lon="1.14333">
        <ele>290</ele>
        <time>2024-07-23T13:48:49Z</time>
      </trkpt>
      <trkpt lat="44.54742" lon="1.14332">
        <ele>290</ele>
        <time>2024-07-23T13:48:50Z</time>
      </trkpt>
      <trkpt lat="44.54737" lon="1.14331">
        <ele>290</ele>
        <time>2024-07-23T13:48:53Z</time>
      </trkpt>
      <trkpt lat="44.54736" lon="1.1433">
        <ele>290</ele>
        <time>2024-07-23T13:48:54Z</time>
      </trkpt>
      <trkpt lat="44.54734" lon="1.14329">
        <ele>290</ele>
        <time>2024-07-23T13:48:55Z</time>
      </trkpt>
      <trkpt lat="44.54732" lon="1.14329">
        <ele>290</ele>
        <time>2024-07-23T13:48:56Z</time>
      </trkpt>
      <trkpt lat="44.5473" lon="1.14328">
        <ele>290</ele>
        <time>2024-07-23T13:48:57Z</time>
      </trkpt>
      <trkpt lat="44.54728" lon="1.14327">
        <ele>290</ele>
        <time>2024-07-23T13:48:58Z</time>
      </trkpt>
      <trkpt lat="44.54727" lon="1.14325">
        <ele>290</ele>
        <time>2024-07-23T13:48:59Z</time>
      </trkpt>
      <trkpt lat="44.54725" lon="1.14324">
        <ele>290</ele>
        <time>2024-07-23T13:49:00Z</time>
      </trkpt>
      <trkpt lat="44.54724" lon="1.14323">
        <ele>290</ele>
        <time>2024-07-23T13:49:01Z</time>
      </trkpt>
      <trkpt lat="44.54723" lon="1.14322">
        <ele>290</ele>
        <time>2024-07-23T13:49:02Z</time>
      </trkpt>
      <trkpt lat="44.54722" lon="1.14321">
        <ele>290</ele>
        <time>2024-07-23T13:49:03Z</time>
      </trkpt>
      <trkpt lat="44.5472" lon="1.14317">
        <ele>290</ele>
        <time>2024-07-23T13:49:05Z</time>
      </trkpt>
      <trkpt lat="44.54719" lon="1.14315">
        <ele>290</ele>
        <time>2024-07-23T13:49:06Z</time>
      </trkpt>
      <trkpt lat="44.54714" lon="1.1431">
        <ele>290</ele>
        <time>2024-07-23T13:49:09Z</time>
      </trkpt>
      <trkpt lat="44.5471" lon="1.14305">
        <ele>290.2</ele>
        <time>2024-07-23T13:49:11Z</time>
      </trkpt>
      <trkpt lat="44.54709" lon="1.14303">
        <ele>290.2</ele>
        <time>2024-07-23T13:49:12Z</time>
      </trkpt>
      <trkpt lat="44.54707" lon="1.14302">
        <ele>290.2</ele>
        <time>2024-07-23T13:49:13Z</time>
      </trkpt>
      <trkpt lat="44.54699" lon="1.14295">
        <ele>290</ele>
        <time>2024-07-23T13:49:17Z</time>
      </trkpt>
      <trkpt lat="44.54683" lon="1.14282">
        <ele>290</ele>
        <time>2024-07-23T13:49:22Z</time>
      </trkpt>
      <trkpt lat="44.54676" lon="1.1427">
        <ele>289.8</ele>
        <time>2024-07-23T13:49:25Z</time>
      </trkpt>
      <trkpt lat="44.54675" lon="1.14267">
        <ele>289.6</ele>
        <time>2024-07-23T13:49:26Z</time>
      </trkpt>
      <trkpt lat="44.54673" lon="1.14263">
        <ele>289.6</ele>
        <time>2024-07-23T13:49:27Z</time>
      </trkpt>
      <trkpt lat="44.54672" lon="1.1426">
        <ele>289.6</ele>
        <time>2024-07-23T13:49:28Z</time>
      </trkpt>
      <trkpt lat="44.5467" lon="1.14257">
        <ele>289.6</ele>
        <time>2024-07-23T13:49:29Z</time>
      </trkpt>
      <trkpt lat="44.54668" lon="1.14255">
        <ele>289.6</ele>
        <time>2024-07-23T13:49:30Z</time>
      </trkpt>
      <trkpt lat="44.54666" lon="1.14251">
        <ele>289.6</ele>
        <time>2024-07-23T13:49:31Z</time>
      </trkpt>
      <trkpt lat="44.54657" lon="1.14239">
        <ele>289.6</ele>
        <time>2024-07-23T13:49:35Z</time>
      </trkpt>
      <trkpt lat="44.54656" lon="1.14236">
        <ele>289.6</ele>
        <time>2024-07-23T13:49:36Z</time>
      </trkpt>
      <trkpt lat="44.54655" lon="1.14232">
        <ele>289.6</ele>
        <time>2024-07-23T13:49:37Z</time>
      </trkpt>
      <trkpt lat="44.54652" lon="1.1423">
        <ele>289.6</ele>
        <time>2024-07-23T13:49:38Z</time>
      </trkpt>
      <trkpt lat="44.54649" lon="1.14228">
        <ele>289.6</ele>
        <time>2024-07-23T13:49:39Z</time>
      </trkpt>
      <trkpt lat="44.54646" lon="1.14224">
        <ele>289.8</ele>
        <time>2024-07-23T13:49:40Z</time>
      </trkpt>
      <trkpt lat="44.54644" lon="1.14221">
        <ele>289.8</ele>
        <time>2024-07-23T13:49:41Z</time>
      </trkpt>
      <trkpt lat="44.54643" lon="1.14219">
        <ele>289.8</ele>
        <time>2024-07-23T13:49:42Z</time>
      </trkpt>
      <trkpt lat="44.54641" lon="1.14215">
        <ele>289.8</ele>
        <time>2024-07-23T13:49:43Z</time>
      </trkpt>
      <trkpt lat="44.54639" lon="1.1421">
        <ele>289.8</ele>
        <time>2024-07-23T13:49:44Z</time>
      </trkpt>
      <trkpt lat="44.54637" lon="1.14201">
        <ele>289.8</ele>
        <time>2024-07-23T13:49:46Z</time>
      </trkpt>
      <trkpt lat="44.54632" lon="1.14188">
        <ele>290</ele>
        <time>2024-07-23T13:49:49Z</time>
      </trkpt>
      <trkpt lat="44.54626" lon="1.1418">
        <ele>290</ele>
        <time>2024-07-23T13:49:51Z</time>
      </trkpt>
      <trkpt lat="44.54623" lon="1.14176">
        <ele>290</ele>
        <time>2024-07-23T13:49:52Z</time>
      </trkpt>
      <trkpt lat="44.54621" lon="1.14172">
        <ele>290</ele>
        <time>2024-07-23T13:49:53Z</time>
      </trkpt>
      <trkpt lat="44.54616" lon="1.14156">
        <ele>289.8</ele>
        <time>2024-07-23T13:49:56Z</time>
      </trkpt>
      <trkpt lat="44.54598" lon="1.14117">
        <ele>289</ele>
        <time>2024-07-23T13:50:02Z</time>
      </trkpt>
      <trkpt lat="44.54589" lon="1.14095">
        <ele>288.6</ele>
        <time>2024-07-23T13:50:05Z</time>
      </trkpt>
      <trkpt lat="44.54586" lon="1.14087">
        <ele>288</ele>
        <time>2024-07-23T13:50:06Z</time>
      </trkpt>
      <trkpt lat="44.54582" lon="1.14075">
        <ele>287.8</ele>
        <time>2024-07-23T13:50:07Z</time>
      </trkpt>
      <trkpt lat="44.54578" lon="1.14067">
        <ele>287.6</ele>
        <time>2024-07-23T13:50:08Z</time>
      </trkpt>
      <trkpt lat="44.54575" lon="1.14057">
        <ele>287.4</ele>
        <time>2024-07-23T13:50:09Z</time>
      </trkpt>
      <trkpt lat="44.54574" lon="1.14049">
        <ele>287</ele>
        <time>2024-07-23T13:50:10Z</time>
      </trkpt>
      <trkpt lat="44.54571" lon="1.14042">
        <ele>286.4</ele>
        <time>2024-07-23T13:50:11Z</time>
      </trkpt>
      <trkpt lat="44.54567" lon="1.14035">
        <ele>286.2</ele>
        <time>2024-07-23T13:50:12Z</time>
      </trkpt>
      <trkpt lat="44.54562" lon="1.14028">
        <ele>285.8</ele>
        <time>2024-07-23T13:50:13Z</time>
      </trkpt>
      <trkpt lat="44.54558" lon="1.14022">
        <ele>285.4</ele>
        <time>2024-07-23T13:50:14Z</time>
      </trkpt>
      <trkpt lat="44.54555" lon="1.14017">
        <ele>285.2</ele>
        <time>2024-07-23T13:50:15Z</time>
      </trkpt>
      <trkpt lat="44.54552" lon="1.1401">
        <ele>285</ele>
        <time>2024-07-23T13:50:16Z</time>
      </trkpt>
      <trkpt lat="44.54551" lon="1.14002">
        <ele>285.2</ele>
        <time>2024-07-23T13:50:17Z</time>
      </trkpt>
      <trkpt lat="44.54549" lon="1.13994">
        <ele>285</ele>
        <time>2024-07-23T13:50:18Z</time>
      </trkpt>
      <trkpt lat="44.54546" lon="1.13984">
        <ele>285</ele>
        <time>2024-07-23T13:50:19Z</time>
      </trkpt>
      <trkpt lat="44.54545" lon="1.13977">
        <ele>285</ele>
        <time>2024-07-23T13:50:20Z</time>
      </trkpt>
      <trkpt lat="44.54544" lon="1.13972">
        <ele>284.6</ele>
        <time>2024-07-23T13:50:21Z</time>
      </trkpt>
      <trkpt lat="44.54544" lon="1.13967">
        <ele>284.6</ele>
        <time>2024-07-23T13:50:22Z</time>
      </trkpt>
      <trkpt lat="44.54544" lon="1.13963">
        <ele>284.6</ele>
        <time>2024-07-23T13:50:23Z</time>
      </trkpt>
      <trkpt lat="44.54545" lon="1.13958">
        <ele>284.6</ele>
        <time>2024-07-23T13:50:24Z</time>
      </trkpt>
      <trkpt lat="44.54548" lon="1.13952">
        <ele>284.4</ele>
        <time>2024-07-23T13:50:25Z</time>
      </trkpt>
      <trkpt lat="44.54547" lon="1.13947">
        <ele>284.4</ele>
        <time>2024-07-23T13:50:26Z</time>
      </trkpt>
      <trkpt lat="44.54546" lon="1.13941">
        <ele>284.2</ele>
        <time>2024-07-23T13:50:27Z</time>
      </trkpt>
      <trkpt lat="44.5454" lon="1.13922">
        <ele>284.2</ele>
        <time>2024-07-23T13:50:30Z</time>
      </trkpt>
      <trkpt lat="44.54537" lon="1.13918">
        <ele>284.2</ele>
        <time>2024-07-23T13:50:31Z</time>
      </trkpt>
      <trkpt lat="44.54536" lon="1.13914">
        <ele>284.2</ele>
        <time>2024-07-23T13:50:32Z</time>
      </trkpt>
      <trkpt lat="44.54534" lon="1.13909">
        <ele>284</ele>
        <time>2024-07-23T13:50:33Z</time>
      </trkpt>
      <trkpt lat="44.54531" lon="1.13894">
        <ele>283.8</ele>
        <time>2024-07-23T13:50:35Z</time>
      </trkpt>
      <trkpt lat="44.5453" lon="1.13887">
        <ele>283.8</ele>
        <time>2024-07-23T13:50:36Z</time>
      </trkpt>
      <trkpt lat="44.54526" lon="1.13871">
        <ele>283.4</ele>
        <time>2024-07-23T13:50:38Z</time>
      </trkpt>
      <trkpt lat="44.54524" lon="1.13865">
        <ele>283</ele>
        <time>2024-07-23T13:50:39Z</time>
      </trkpt>
      <trkpt lat="44.54523" lon="1.1386">
        <ele>282.6</ele>
        <time>2024-07-23T13:50:40Z</time>
      </trkpt>
      <trkpt lat="44.54521" lon="1.13852">
        <ele>282.4</ele>
        <time>2024-07-23T13:50:41Z</time>
      </trkpt>
      <trkpt lat="44.54517" lon="1.13843">
        <ele>282</ele>
        <time>2024-07-23T13:50:42Z</time>
      </trkpt>
      <trkpt lat="44.54513" lon="1.13835">
        <ele>281.8</ele>
        <time>2024-07-23T13:50:43Z</time>
      </trkpt>
      <trkpt lat="44.54508" lon="1.13821">
        <ele>280.8</ele>
        <time>2024-07-23T13:50:45Z</time>
      </trkpt>
      <trkpt lat="44.54506" lon="1.13813">
        <ele>280.6</ele>
        <time>2024-07-23T13:50:46Z</time>
      </trkpt>
      <trkpt lat="44.54504" lon="1.13807">
        <ele>280</ele>
        <time>2024-07-23T13:50:47Z</time>
      </trkpt>
      <trkpt lat="44.54503" lon="1.13802">
        <ele>279.8</ele>
        <time>2024-07-23T13:50:48Z</time>
      </trkpt>
      <trkpt lat="44.54502" lon="1.13798">
        <ele>279</ele>
        <time>2024-07-23T13:50:49Z</time>
      </trkpt>
      <trkpt lat="44.54501" lon="1.13794">
        <ele>277.8</ele>
        <time>2024-07-23T13:50:50Z</time>
      </trkpt>
      <trkpt lat="44.54501" lon="1.1379">
        <ele>277.6</ele>
        <time>2024-07-23T13:50:51Z</time>
      </trkpt>
      <trkpt lat="44.545" lon="1.13786">
        <ele>276.6</ele>
        <time>2024-07-23T13:50:52Z</time>
      </trkpt>
      <trkpt lat="44.54497" lon="1.13778">
        <ele>276</ele>
        <time>2024-07-23T13:50:54Z</time>
      </trkpt>
      <trkpt lat="44.54496" lon="1.13773">
        <ele>275.8</ele>
        <time>2024-07-23T13:50:55Z</time>
      </trkpt>
      <trkpt lat="44.54495" lon="1.13767">
        <ele>275.2</ele>
        <time>2024-07-23T13:50:56Z</time>
      </trkpt>
      <trkpt lat="44.54492" lon="1.13762">
        <ele>274.8</ele>
        <time>2024-07-23T13:50:57Z</time>
      </trkpt>
      <trkpt lat="44.54489" lon="1.13744">
        <ele>274</ele>
        <time>2024-07-23T13:51:01Z</time>
      </trkpt>
      <trkpt lat="44.54487" lon="1.13739">
        <ele>274</ele>
        <time>2024-07-23T13:51:02Z</time>
      </trkpt>
      <trkpt lat="44.54481" lon="1.13718">
        <ele>272.8</ele>
        <time>2024-07-23T13:51:07Z</time>
      </trkpt>
      <trkpt lat="44.54481" lon="1.13714">
        <ele>272.4</ele>
        <time>2024-07-23T13:51:08Z</time>
      </trkpt>
      <trkpt lat="44.54481" lon="1.1371">
        <ele>272.2</ele>
        <time>2024-07-23T13:51:09Z</time>
      </trkpt>
      <trkpt lat="44.54481" lon="1.13706">
        <ele>272</ele>
        <time>2024-07-23T13:51:10Z</time>
      </trkpt>
      <trkpt lat="44.5448" lon="1.13703">
        <ele>271.8</ele>
        <time>2024-07-23T13:51:11Z</time>
      </trkpt>
      <trkpt lat="44.5448" lon="1.13699">
        <ele>271.6</ele>
        <time>2024-07-23T13:51:12Z</time>
      </trkpt>
      <trkpt lat="44.54479" lon="1.13696">
        <ele>271.6</ele>
        <time>2024-07-23T13:51:13Z</time>
      </trkpt>
      <trkpt lat="44.54479" lon="1.13693">
        <ele>271.4</ele>
        <time>2024-07-23T13:51:14Z</time>
      </trkpt>
      <trkpt lat="44.54478" lon="1.13689">
        <ele>271.2</ele>
        <time>2024-07-23T13:51:15Z</time>
      </trkpt>
      <trkpt lat="44.54478" lon="1.13686">
        <ele>271</ele>
        <time>2024-07-23T13:51:16Z</time>
      </trkpt>
      <trkpt lat="44.54477" lon="1.1368">
        <ele>270.6</ele>
        <time>2024-07-23T13:51:18Z</time>
      </trkpt>
      <trkpt lat="44.54476" lon="1.13678">
        <ele>270.6</ele>
        <time>2024-07-23T13:51:19Z</time>
      </trkpt>
      <trkpt lat="44.54476" lon="1.13676">
        <ele>270.4</ele>
        <time>2024-07-23T13:51:20Z</time>
      </trkpt>
      <trkpt lat="44.54476" lon="1.13675">
        <ele>270.4</ele>
        <time>2024-07-23T13:51:21Z</time>
      </trkpt>
      <trkpt lat="44.54477" lon="1.13673">
        <ele>270.2</ele>
        <time>2024-07-23T13:51:22Z</time>
      </trkpt>
      <trkpt lat="44.54477" lon="1.13672">
        <ele>270</ele>
        <time>2024-07-23T13:51:23Z</time>
      </trkpt>
      <trkpt lat="44.54477" lon="1.13669">
        <ele>270</ele>
        <time>2024-07-23T13:51:24Z</time>
      </trkpt>
      <trkpt lat="44.54477" lon="1.13666">
        <ele>269.8</ele>
        <time>2024-07-23T13:51:25Z</time>
      </trkpt>
      <trkpt lat="44.54476" lon="1.1366">
        <ele>269.8</ele>
        <time>2024-07-23T13:51:26Z</time>
      </trkpt>
      <trkpt lat="44.54475" lon="1.13655">
        <ele>269.6</ele>
        <time>2024-07-23T13:51:27Z</time>
      </trkpt>
      <trkpt lat="44.54474" lon="1.1365">
        <ele>269.6</ele>
        <time>2024-07-23T13:51:28Z</time>
      </trkpt>
      <trkpt lat="44.54472" lon="1.13641">
        <ele>268.4</ele>
        <time>2024-07-23T13:51:30Z</time>
      </trkpt>
      <trkpt lat="44.5447" lon="1.13639">
        <ele>268.2</ele>
        <time>2024-07-23T13:51:31Z</time>
      </trkpt>
      <trkpt lat="44.54469" lon="1.13636">
        <ele>267.6</ele>
        <time>2024-07-23T13:51:32Z</time>
      </trkpt>
      <trkpt lat="44.54469" lon="1.13634">
        <ele>267.4</ele>
        <time>2024-07-23T13:51:33Z</time>
      </trkpt>
      <trkpt lat="44.54468" lon="1.13632">
        <ele>267.2</ele>
        <time>2024-07-23T13:51:34Z</time>
      </trkpt>
      <trkpt lat="44.54467" lon="1.1363">
        <ele>267</ele>
        <time>2024-07-23T13:51:35Z</time>
      </trkpt>
      <trkpt lat="44.54466" lon="1.13625">
        <ele>266.8</ele>
        <time>2024-07-23T13:51:36Z</time>
      </trkpt>
      <trkpt lat="44.54465" lon="1.13621">
        <ele>266.6</ele>
        <time>2024-07-23T13:51:37Z</time>
      </trkpt>
      <trkpt lat="44.54464" lon="1.13613">
        <ele>266.4</ele>
        <time>2024-07-23T13:51:39Z</time>
      </trkpt>
      <trkpt lat="44.54465" lon="1.13609">
        <ele>266</ele>
        <time>2024-07-23T13:51:40Z</time>
      </trkpt>
      <trkpt lat="44.54466" lon="1.13604">
        <ele>266</ele>
        <time>2024-07-23T13:51:41Z</time>
      </trkpt>
      <trkpt lat="44.54466" lon="1.13599">
        <ele>265.6</ele>
        <time>2024-07-23T13:51:42Z</time>
      </trkpt>
      <trkpt lat="44.54465" lon="1.13597">
        <ele>265.6</ele>
        <time>2024-07-23T13:51:43Z</time>
      </trkpt>
      <trkpt lat="44.54465" lon="1.13593">
        <ele>265.4</ele>
        <time>2024-07-23T13:51:44Z</time>
      </trkpt>
      <trkpt lat="44.54466" lon="1.13587">
        <ele>264.8</ele>
        <time>2024-07-23T13:51:46Z</time>
      </trkpt>
      <trkpt lat="44.54466" lon="1.13584">
        <ele>264.6</ele>
        <time>2024-07-23T13:51:47Z</time>
      </trkpt>
      <trkpt lat="44.54465" lon="1.1358">
        <ele>264.4</ele>
        <time>2024-07-23T13:51:48Z</time>
      </trkpt>
      <trkpt lat="44.54465" lon="1.13577">
        <ele>264.2</ele>
        <time>2024-07-23T13:51:49Z</time>
      </trkpt>
      <trkpt lat="44.54465" lon="1.13574">
        <ele>264.2</ele>
        <time>2024-07-23T13:51:50Z</time>
      </trkpt>
      <trkpt lat="44.54465" lon="1.13571">
        <ele>263.8</ele>
        <time>2024-07-23T13:51:51Z</time>
      </trkpt>
      <trkpt lat="44.54465" lon="1.13564">
        <ele>263.6</ele>
        <time>2024-07-23T13:51:52Z</time>
      </trkpt>
      <trkpt lat="44.54464" lon="1.13558">
        <ele>263</ele>
        <time>2024-07-23T13:51:53Z</time>
      </trkpt>
      <trkpt lat="44.54462" lon="1.13553">
        <ele>262.8</ele>
        <time>2024-07-23T13:51:54Z</time>
      </trkpt>
      <trkpt lat="44.54463" lon="1.13548">
        <ele>262.6</ele>
        <time>2024-07-23T13:51:56Z</time>
      </trkpt>
      <trkpt lat="44.54463" lon="1.13546">
        <ele>262.6</ele>
        <time>2024-07-23T13:51:57Z</time>
      </trkpt>
      <trkpt lat="44.54462" lon="1.13542">
        <ele>261.8</ele>
        <time>2024-07-23T13:51:59Z</time>
      </trkpt>
      <trkpt lat="44.54461" lon="1.13539">
        <ele>261.6</ele>
        <time>2024-07-23T13:52:00Z</time>
      </trkpt>
      <trkpt lat="44.54461" lon="1.13535">
        <ele>261.2</ele>
        <time>2024-07-23T13:52:02Z</time>
      </trkpt>
      <trkpt lat="44.54461" lon="1.13533">
        <ele>261</ele>
        <time>2024-07-23T13:52:03Z</time>
      </trkpt>
      <trkpt lat="44.54461" lon="1.13533">
        <ele>260.2</ele>
        <time>2024-07-23T13:52:05Z</time>
      </trkpt>
      <trkpt lat="44.54462" lon="1.13526">
        <ele>258.6</ele>
        <time>2024-07-23T13:52:38Z</time>
      </trkpt>
      <trkpt lat="44.54464" lon="1.13518">
        <ele>258.6</ele>
        <time>2024-07-23T13:52:41Z</time>
      </trkpt>
      <trkpt lat="44.54464" lon="1.13516">
        <ele>258.4</ele>
        <time>2024-07-23T13:52:42Z</time>
      </trkpt>
      <trkpt lat="44.54465" lon="1.13514">
        <ele>257.8</ele>
        <time>2024-07-23T13:52:43Z</time>
      </trkpt>
      <trkpt lat="44.54465" lon="1.13504">
        <ele>256.6</ele>
        <time>2024-07-23T13:52:46Z</time>
      </trkpt>
      <trkpt lat="44.54465" lon="1.13499">
        <ele>256.4</ele>
        <time>2024-07-23T13:52:48Z</time>
      </trkpt>
      <trkpt lat="44.54466" lon="1.13492">
        <ele>256</ele>
        <time>2024-07-23T13:52:50Z</time>
      </trkpt>
      <trkpt lat="44.54467" lon="1.13482">
        <ele>255.4</ele>
        <time>2024-07-23T13:52:53Z</time>
      </trkpt>
      <trkpt lat="44.54468" lon="1.13471">
        <ele>255</ele>
        <time>2024-07-23T13:52:56Z</time>
      </trkpt>
      <trkpt lat="44.5447" lon="1.13457">
        <ele>254.4</ele>
        <time>2024-07-23T13:53:00Z</time>
      </trkpt>
      <trkpt lat="44.54469" lon="1.13453">
        <ele>254.2</ele>
        <time>2024-07-23T13:53:01Z</time>
      </trkpt>
      <trkpt lat="44.54469" lon="1.1345">
        <ele>254</ele>
        <time>2024-07-23T13:53:02Z</time>
      </trkpt>
      <trkpt lat="44.54472" lon="1.1343">
        <ele>253</ele>
        <time>2024-07-23T13:53:05Z</time>
      </trkpt>
      <trkpt lat="44.54475" lon="1.13423">
        <ele>252.8</ele>
        <time>2024-07-23T13:53:06Z</time>
      </trkpt>
      <trkpt lat="44.54476" lon="1.13419">
        <ele>252.6</ele>
        <time>2024-07-23T13:53:07Z</time>
      </trkpt>
      <trkpt lat="44.54476" lon="1.13416">
        <ele>252.4</ele>
        <time>2024-07-23T13:53:08Z</time>
      </trkpt>
      <trkpt lat="44.54476" lon="1.13414">
        <ele>252.4</ele>
        <time>2024-07-23T13:53:09Z</time>
      </trkpt>
      <trkpt lat="44.54476" lon="1.13411">
        <ele>252.2</ele>
        <time>2024-07-23T13:53:10Z</time>
      </trkpt>
      <trkpt lat="44.54478" lon="1.13403">
        <ele>251.8</ele>
        <time>2024-07-23T13:53:12Z</time>
      </trkpt>
      <trkpt lat="44.54479" lon="1.13397">
        <ele>251.6</ele>
        <time>2024-07-23T13:53:13Z</time>
      </trkpt>
      <trkpt lat="44.54476" lon="1.13388">
        <ele>251.4</ele>
        <time>2024-07-23T13:53:14Z</time>
      </trkpt>
      <trkpt lat="44.54473" lon="1.13386">
        <ele>251</ele>
        <time>2024-07-23T13:53:15Z</time>
      </trkpt>
      <trkpt lat="44.5447" lon="1.13383">
        <ele>250.6</ele>
        <time>2024-07-23T13:53:17Z</time>
      </trkpt>
      <trkpt lat="44.54469" lon="1.13381">
        <ele>250.4</ele>
        <time>2024-07-23T13:53:18Z</time>
      </trkpt>
      <trkpt lat="44.54466" lon="1.13375">
        <ele>249.6</ele>
        <time>2024-07-23T13:53:20Z</time>
      </trkpt>
      <trkpt lat="44.54461" lon="1.13362">
        <ele>249</ele>
        <time>2024-07-23T13:53:23Z</time>
      </trkpt>
      <trkpt lat="44.54459" lon="1.13357">
        <ele>248.6</ele>
        <time>2024-07-23T13:53:24Z</time>
      </trkpt>
      <trkpt lat="44.54452" lon="1.1335">
        <ele>248.2</ele>
        <time>2024-07-23T13:53:26Z</time>
      </trkpt>
      <trkpt lat="44.5445" lon="1.13348">
        <ele>248</ele>
        <time>2024-07-23T13:53:27Z</time>
      </trkpt>
      <trkpt lat="44.54447" lon="1.13346">
        <ele>248</ele>
        <time>2024-07-23T13:53:28Z</time>
      </trkpt>
      <trkpt lat="44.54447" lon="1.13343">
        <ele>247.8</ele>
        <time>2024-07-23T13:53:29Z</time>
      </trkpt>
      <trkpt lat="44.54446" lon="1.13339">
        <ele>247.8</ele>
        <time>2024-07-23T13:53:30Z</time>
      </trkpt>
      <trkpt lat="44.54444" lon="1.13334">
        <ele>247.4</ele>
        <time>2024-07-23T13:53:31Z</time>
      </trkpt>
      <trkpt lat="44.54441" lon="1.1333">
        <ele>247.4</ele>
        <time>2024-07-23T13:53:32Z</time>
      </trkpt>
      <trkpt lat="44.54434" lon="1.13324">
        <ele>247</ele>
        <time>2024-07-23T13:53:34Z</time>
      </trkpt>
      <trkpt lat="44.54431" lon="1.13319">
        <ele>247</ele>
        <time>2024-07-23T13:53:35Z</time>
      </trkpt>
      <trkpt lat="44.54425" lon="1.13313">
        <ele>246.6</ele>
        <time>2024-07-23T13:53:37Z</time>
      </trkpt>
      <trkpt lat="44.5442" lon="1.13307">
        <ele>246.2</ele>
        <time>2024-07-23T13:53:39Z</time>
      </trkpt>
      <trkpt lat="44.54418" lon="1.13299">
        <ele>246</ele>
        <time>2024-07-23T13:53:41Z</time>
      </trkpt>
      <trkpt lat="44.54414" lon="1.1329">
        <ele>245.6</ele>
        <time>2024-07-23T13:53:43Z</time>
      </trkpt>
      <trkpt lat="44.54409" lon="1.13285">
        <ele>245.4</ele>
        <time>2024-07-23T13:53:45Z</time>
      </trkpt>
      <trkpt lat="44.54406" lon="1.13281">
        <ele>245.2</ele>
        <time>2024-07-23T13:53:46Z</time>
      </trkpt>
      <trkpt lat="44.544" lon="1.13273">
        <ele>245</ele>
        <time>2024-07-23T13:53:48Z</time>
      </trkpt>
      <trkpt lat="44.54397" lon="1.13268">
        <ele>244.8</ele>
        <time>2024-07-23T13:53:49Z</time>
      </trkpt>
      <trkpt lat="44.54396" lon="1.13264">
        <ele>244.8</ele>
        <time>2024-07-23T13:53:50Z</time>
      </trkpt>
      <trkpt lat="44.5439" lon="1.13256">
        <ele>244.6</ele>
        <time>2024-07-23T13:53:52Z</time>
      </trkpt>
      <trkpt lat="44.54388" lon="1.13252">
        <ele>244.4</ele>
        <time>2024-07-23T13:53:53Z</time>
      </trkpt>
      <trkpt lat="44.54385" lon="1.13248">
        <ele>244.2</ele>
        <time>2024-07-23T13:53:54Z</time>
      </trkpt>
      <trkpt lat="44.54383" lon="1.13244">
        <ele>244.2</ele>
        <time>2024-07-23T13:53:55Z</time>
      </trkpt>
      <trkpt lat="44.54381" lon="1.13242">
        <ele>244.2</ele>
        <time>2024-07-23T13:53:56Z</time>
      </trkpt>
      <trkpt lat="44.54379" lon="1.1324">
        <ele>244.2</ele>
        <time>2024-07-23T13:53:57Z</time>
      </trkpt>
      <trkpt lat="44.54376" lon="1.13238">
        <ele>244.2</ele>
        <time>2024-07-23T13:53:58Z</time>
      </trkpt>
      <trkpt lat="44.54375" lon="1.13236">
        <ele>244.2</ele>
        <time>2024-07-23T13:53:59Z</time>
      </trkpt>
      <trkpt lat="44.54375" lon="1.13235">
        <ele>244.2</ele>
        <time>2024-07-23T13:54:00Z</time>
      </trkpt>
      <trkpt lat="44.54375" lon="1.13234">
        <ele>244.2</ele>
        <time>2024-07-23T13:54:01Z</time>
      </trkpt>
      <trkpt lat="44.54375" lon="1.13232">
        <ele>244.2</ele>
        <time>2024-07-23T13:54:02Z</time>
      </trkpt>
      <trkpt lat="44.54375" lon="1.13232">
        <ele>244.4</ele>
        <time>2024-07-23T13:54:03Z</time>
      </trkpt>
      <trkpt lat="44.5437" lon="1.13229">
        <ele>244.6</ele>
        <time>2024-07-23T13:54:05Z</time>
      </trkpt>
      <trkpt lat="44.5437" lon="1.13227">
        <ele>245</ele>
        <time>2024-07-23T13:54:06Z</time>
      </trkpt>
      <trkpt lat="44.54369" lon="1.13227">
        <ele>245.2</ele>
        <time>2024-07-23T13:54:07Z</time>
      </trkpt>
      <trkpt lat="44.54369" lon="1.13227">
        <ele>245.4</ele>
        <time>2024-07-23T13:54:08Z</time>
      </trkpt>
      <trkpt lat="44.54369" lon="1.13227">
        <ele>245.6</ele>
        <time>2024-07-23T13:54:09Z</time>
      </trkpt>
      <trkpt lat="44.54369" lon="1.13227">
        <ele>246</ele>
        <time>2024-07-23T13:54:10Z</time>
      </trkpt>
      <trkpt lat="44.54367" lon="1.13225">
        <ele>246</ele>
        <time>2024-07-23T13:54:11Z</time>
      </trkpt>
      <trkpt lat="44.54367" lon="1.13225">
        <ele>246.4</ele>
        <time>2024-07-23T13:54:12Z</time>
      </trkpt>
      <trkpt lat="44.54367" lon="1.13225">
        <ele>246.6</ele>
        <time>2024-07-23T13:54:13Z</time>
      </trkpt>
      <trkpt lat="44.54367" lon="1.13225">
        <ele>247.2</ele>
        <time>2024-07-23T13:54:16Z</time>
      </trkpt>
      <trkpt lat="44.54324" lon="1.13145">
        <ele>253</ele>
        <time>2024-07-23T13:55:08Z</time>
      </trkpt>
      <trkpt lat="44.54311" lon="1.13131">
        <ele>253.8</ele>
        <time>2024-07-23T13:55:19Z</time>
      </trkpt>
      <trkpt lat="44.54305" lon="1.13125">
        <ele>254</ele>
        <time>2024-07-23T13:55:23Z</time>
      </trkpt>
      <trkpt lat="44.54303" lon="1.13122">
        <ele>254</ele>
        <time>2024-07-23T13:55:25Z</time>
      </trkpt>
      <trkpt lat="44.5429" lon="1.13107">
        <ele>254.8</ele>
        <time>2024-07-23T13:55:35Z</time>
      </trkpt>
      <trkpt lat="44.54288" lon="1.13105">
        <ele>254.8</ele>
        <time>2024-07-23T13:55:36Z</time>
      </trkpt>
      <trkpt lat="44.54287" lon="1.13104">
        <ele>255</ele>
        <time>2024-07-23T13:55:37Z</time>
      </trkpt>
      <trkpt lat="44.54283" lon="1.13099">
        <ele>255.4</ele>
        <time>2024-07-23T13:55:40Z</time>
      </trkpt>
      <trkpt lat="44.54281" lon="1.13096">
        <ele>255.6</ele>
        <time>2024-07-23T13:55:42Z</time>
      </trkpt>
      <trkpt lat="44.54279" lon="1.13095">
        <ele>255.6</ele>
        <time>2024-07-23T13:55:43Z</time>
      </trkpt>
      <trkpt lat="44.54278" lon="1.13095">
        <ele>255.8</ele>
        <time>2024-07-23T13:55:44Z</time>
      </trkpt>
      <trkpt lat="44.54272" lon="1.13092">
        <ele>256</ele>
        <time>2024-07-23T13:55:48Z</time>
      </trkpt>
      <trkpt lat="44.5427" lon="1.13091">
        <ele>256</ele>
        <time>2024-07-23T13:55:49Z</time>
      </trkpt>
      <trkpt lat="44.54268" lon="1.1309">
        <ele>256</ele>
        <time>2024-07-23T13:55:50Z</time>
      </trkpt>
      <trkpt lat="44.54267" lon="1.13089">
        <ele>256</ele>
        <time>2024-07-23T13:55:51Z</time>
      </trkpt>
      <trkpt lat="44.54255" lon="1.13082">
        <ele>256.8</ele>
        <time>2024-07-23T13:55:59Z</time>
      </trkpt>
      <trkpt lat="44.54249" lon="1.13079">
        <ele>257</ele>
        <time>2024-07-23T13:56:03Z</time>
      </trkpt>
      <trkpt lat="44.54242" lon="1.13076">
        <ele>257.4</ele>
        <time>2024-07-23T13:56:08Z</time>
      </trkpt>
      <trkpt lat="44.54239" lon="1.13075">
        <ele>257.4</ele>
        <time>2024-07-23T13:56:10Z</time>
      </trkpt>
      <trkpt lat="44.54238" lon="1.13074">
        <ele>257.4</ele>
        <time>2024-07-23T13:56:11Z</time>
      </trkpt>
      <trkpt lat="44.54236" lon="1.13073">
        <ele>257.6</ele>
        <time>2024-07-23T13:56:12Z</time>
      </trkpt>
      <trkpt lat="44.54235" lon="1.13072">
        <ele>257.6</ele>
        <time>2024-07-23T13:56:13Z</time>
      </trkpt>
      <trkpt lat="44.54231" lon="1.1307">
        <ele>258</ele>
        <time>2024-07-23T13:56:16Z</time>
      </trkpt>
      <trkpt lat="44.54229" lon="1.13069">
        <ele>258</ele>
        <time>2024-07-23T13:56:17Z</time>
      </trkpt>
      <trkpt lat="44.54224" lon="1.13066">
        <ele>258.2</ele>
        <time>2024-07-23T13:56:20Z</time>
      </trkpt>
      <trkpt lat="44.5422" lon="1.13064">
        <ele>258.4</ele>
        <time>2024-07-23T13:56:23Z</time>
      </trkpt>
      <trkpt lat="44.54216" lon="1.13062">
        <ele>258.6</ele>
        <time>2024-07-23T13:56:26Z</time>
      </trkpt>
      <trkpt lat="44.54208" lon="1.13058">
        <ele>259.2</ele>
        <time>2024-07-23T13:56:31Z</time>
      </trkpt>
      <trkpt lat="44.54207" lon="1.13057">
        <ele>259.2</ele>
        <time>2024-07-23T13:56:32Z</time>
      </trkpt>
      <trkpt lat="44.54204" lon="1.13056">
        <ele>259.4</ele>
        <time>2024-07-23T13:56:34Z</time>
      </trkpt>
      <trkpt lat="44.54193" lon="1.1305">
        <ele>260.4</ele>
        <time>2024-07-23T13:56:41Z</time>
      </trkpt>
      <trkpt lat="44.5419" lon="1.13049">
        <ele>260.6</ele>
        <time>2024-07-23T13:56:43Z</time>
      </trkpt>
      <trkpt lat="44.54189" lon="1.13048">
        <ele>261</ele>
        <time>2024-07-23T13:56:44Z</time>
      </trkpt>
      <trkpt lat="44.54187" lon="1.13048">
        <ele>261</ele>
        <time>2024-07-23T13:56:45Z</time>
      </trkpt>
      <trkpt lat="44.54186" lon="1.13047">
        <ele>261</ele>
        <time>2024-07-23T13:56:46Z</time>
      </trkpt>
      <trkpt lat="44.54185" lon="1.13047">
        <ele>261.2</ele>
        <time>2024-07-23T13:56:47Z</time>
      </trkpt>
      <trkpt lat="44.54183" lon="1.13046">
        <ele>261.2</ele>
        <time>2024-07-23T13:56:48Z</time>
      </trkpt>
      <trkpt lat="44.54182" lon="1.13046">
        <ele>261.2</ele>
        <time>2024-07-23T13:56:49Z</time>
      </trkpt>
      <trkpt lat="44.54181" lon="1.13045">
        <ele>261.2</ele>
        <time>2024-07-23T13:56:50Z</time>
      </trkpt>
      <trkpt lat="44.54179" lon="1.13045">
        <ele>261.4</ele>
        <time>2024-07-23T13:56:51Z</time>
      </trkpt>
      <trkpt lat="44.54178" lon="1.13044">
        <ele>261.8</ele>
        <time>2024-07-23T13:56:52Z</time>
      </trkpt>
      <trkpt lat="44.54177" lon="1.13043">
        <ele>261.8</ele>
        <time>2024-07-23T13:56:53Z</time>
      </trkpt>
      <trkpt lat="44.54176" lon="1.13042">
        <ele>262</ele>
        <time>2024-07-23T13:56:54Z</time>
      </trkpt>
      <trkpt lat="44.54175" lon="1.13042">
        <ele>262.4</ele>
        <time>2024-07-23T13:56:55Z</time>
      </trkpt>
      <trkpt lat="44.54174" lon="1.13041">
        <ele>262.6</ele>
        <time>2024-07-23T13:56:56Z</time>
      </trkpt>
      <trkpt lat="44.54172" lon="1.13041">
        <ele>262.6</ele>
        <time>2024-07-23T13:56:57Z</time>
      </trkpt>
      <trkpt lat="44.54171" lon="1.1304">
        <ele>263</ele>
        <time>2024-07-23T13:56:58Z</time>
      </trkpt>
      <trkpt lat="44.5417" lon="1.1304">
        <ele>263.2</ele>
        <time>2024-07-23T13:56:59Z</time>
      </trkpt>
      <trkpt lat="44.54168" lon="1.13039">
        <ele>263.2</ele>
        <time>2024-07-23T13:57:00Z</time>
      </trkpt>
      <trkpt lat="44.54167" lon="1.13039">
        <ele>263.6</ele>
        <time>2024-07-23T13:57:01Z</time>
      </trkpt>
      <trkpt lat="44.54166" lon="1.13038">
        <ele>263.6</ele>
        <time>2024-07-23T13:57:02Z</time>
      </trkpt>
      <trkpt lat="44.54165" lon="1.13038">
        <ele>263.8</ele>
        <time>2024-07-23T13:57:03Z</time>
      </trkpt>
      <trkpt lat="44.54164" lon="1.13038">
        <ele>263.8</ele>
        <time>2024-07-23T13:57:04Z</time>
      </trkpt>
      <trkpt lat="44.54163" lon="1.13037">
        <ele>264.2</ele>
        <time>2024-07-23T13:57:05Z</time>
      </trkpt>
      <trkpt lat="44.54162" lon="1.13037">
        <ele>264.4</ele>
        <time>2024-07-23T13:57:06Z</time>
      </trkpt>
      <trkpt lat="44.54161" lon="1.13036">
        <ele>264.6</ele>
        <time>2024-07-23T13:57:07Z</time>
      </trkpt>
      <trkpt lat="44.54159" lon="1.13036">
        <ele>264.8</ele>
        <time>2024-07-23T13:57:08Z</time>
      </trkpt>
      <trkpt lat="44.54158" lon="1.13036">
        <ele>264.8</ele>
        <time>2024-07-23T13:57:09Z</time>
      </trkpt>
      <trkpt lat="44.54157" lon="1.13035">
        <ele>265</ele>
        <time>2024-07-23T13:57:10Z</time>
      </trkpt>
      <trkpt lat="44.54155" lon="1.13035">
        <ele>265.2</ele>
        <time>2024-07-23T13:57:11Z</time>
      </trkpt>
      <trkpt lat="44.54154" lon="1.13034">
        <ele>265.4</ele>
        <time>2024-07-23T13:57:12Z</time>
      </trkpt>
      <trkpt lat="44.54153" lon="1.13034">
        <ele>265.8</ele>
        <time>2024-07-23T13:57:13Z</time>
      </trkpt>
      <trkpt lat="44.54152" lon="1.13033">
        <ele>266</ele>
        <time>2024-07-23T13:57:14Z</time>
      </trkpt>
      <trkpt lat="44.54151" lon="1.13033">
        <ele>266.4</ele>
        <time>2024-07-23T13:57:15Z</time>
      </trkpt>
      <trkpt lat="44.54149" lon="1.13032">
        <ele>266.6</ele>
        <time>2024-07-23T13:57:16Z</time>
      </trkpt>
      <trkpt lat="44.54148" lon="1.13032">
        <ele>266.8</ele>
        <time>2024-07-23T13:57:17Z</time>
      </trkpt>
      <trkpt lat="44.54147" lon="1.13032">
        <ele>266.8</ele>
        <time>2024-07-23T13:57:18Z</time>
      </trkpt>
      <trkpt lat="44.54146" lon="1.13031">
        <ele>267.2</ele>
        <time>2024-07-23T13:57:19Z</time>
      </trkpt>
      <trkpt lat="44.54145" lon="1.1303">
        <ele>267.4</ele>
        <time>2024-07-23T13:57:20Z</time>
      </trkpt>
      <trkpt lat="44.54145" lon="1.1303">
        <ele>267.6</ele>
        <time>2024-07-23T13:57:21Z</time>
      </trkpt>
      <trkpt lat="44.54144" lon="1.13029">
        <ele>267.8</ele>
        <time>2024-07-23T13:57:22Z</time>
      </trkpt>
      <trkpt lat="44.54143" lon="1.13028">
        <ele>267.8</ele>
        <time>2024-07-23T13:57:23Z</time>
      </trkpt>
      <trkpt lat="44.54142" lon="1.13027">
        <ele>268</ele>
        <time>2024-07-23T13:57:24Z</time>
      </trkpt>
      <trkpt lat="44.54141" lon="1.13026">
        <ele>268.4</ele>
        <time>2024-07-23T13:57:25Z</time>
      </trkpt>
      <trkpt lat="44.54141" lon="1.13025">
        <ele>268.4</ele>
        <time>2024-07-23T13:57:26Z</time>
      </trkpt>
      <trkpt lat="44.54141" lon="1.13024">
        <ele>268.6</ele>
        <time>2024-07-23T13:57:27Z</time>
      </trkpt>
      <trkpt lat="44.54141" lon="1.13023">
        <ele>268.8</ele>
        <time>2024-07-23T13:57:28Z</time>
      </trkpt>
      <trkpt lat="44.54141" lon="1.13021">
        <ele>269</ele>
        <time>2024-07-23T13:57:29Z</time>
      </trkpt>
      <trkpt lat="44.54141" lon="1.1302">
        <ele>269.2</ele>
        <time>2024-07-23T13:57:30Z</time>
      </trkpt>
      <trkpt lat="44.54141" lon="1.13019">
        <ele>269.4</ele>
        <time>2024-07-23T13:57:31Z</time>
      </trkpt>
      <trkpt lat="44.54141" lon="1.13018">
        <ele>269.6</ele>
        <time>2024-07-23T13:57:32Z</time>
      </trkpt>
      <trkpt lat="44.54141" lon="1.13017">
        <ele>269.6</ele>
        <time>2024-07-23T13:57:33Z</time>
      </trkpt>
      <trkpt lat="44.54141" lon="1.13016">
        <ele>269.8</ele>
        <time>2024-07-23T13:57:34Z</time>
      </trkpt>
      <trkpt lat="44.54141" lon="1.13015">
        <ele>270</ele>
        <time>2024-07-23T13:57:35Z</time>
      </trkpt>
      <trkpt lat="44.54141" lon="1.13013">
        <ele>270.2</ele>
        <time>2024-07-23T13:57:36Z</time>
      </trkpt>
      <trkpt lat="44.54142" lon="1.13012">
        <ele>270.2</ele>
        <time>2024-07-23T13:57:37Z</time>
      </trkpt>
      <trkpt lat="44.54142" lon="1.1301">
        <ele>270.4</ele>
        <time>2024-07-23T13:57:38Z</time>
      </trkpt>
      <trkpt lat="44.54142" lon="1.13008">
        <ele>270.6</ele>
        <time>2024-07-23T13:57:39Z</time>
      </trkpt>
      <trkpt lat="44.54141" lon="1.13007">
        <ele>270.8</ele>
        <time>2024-07-23T13:57:40Z</time>
      </trkpt>
      <trkpt lat="44.54141" lon="1.13005">
        <ele>271</ele>
        <time>2024-07-23T13:57:41Z</time>
      </trkpt>
      <trkpt lat="44.54141" lon="1.13004">
        <ele>271.2</ele>
        <time>2024-07-23T13:57:42Z</time>
      </trkpt>
      <trkpt lat="44.54141" lon="1.13002">
        <ele>271.6</ele>
        <time>2024-07-23T13:57:43Z</time>
      </trkpt>
      <trkpt lat="44.54141" lon="1.13001">
        <ele>271.8</ele>
        <time>2024-07-23T13:57:44Z</time>
      </trkpt>
      <trkpt lat="44.54141" lon="1.13">
        <ele>271.8</ele>
        <time>2024-07-23T13:57:45Z</time>
      </trkpt>
      <trkpt lat="44.5414" lon="1.12998">
        <ele>272</ele>
        <time>2024-07-23T13:57:46Z</time>
      </trkpt>
      <trkpt lat="44.5414" lon="1.12996">
        <ele>272</ele>
        <time>2024-07-23T13:57:47Z</time>
      </trkpt>
      <trkpt lat="44.5414" lon="1.12995">
        <ele>272.2</ele>
        <time>2024-07-23T13:57:48Z</time>
      </trkpt>
      <trkpt lat="44.5414" lon="1.12993">
        <ele>272.4</ele>
        <time>2024-07-23T13:57:49Z</time>
      </trkpt>
      <trkpt lat="44.5414" lon="1.12992">
        <ele>272.6</ele>
        <time>2024-07-23T13:57:50Z</time>
      </trkpt>
      <trkpt lat="44.54139" lon="1.1299">
        <ele>272.8</ele>
        <time>2024-07-23T13:57:51Z</time>
      </trkpt>
      <trkpt lat="44.54139" lon="1.12989">
        <ele>273</ele>
        <time>2024-07-23T13:57:52Z</time>
      </trkpt>
      <trkpt lat="44.54139" lon="1.12987">
        <ele>273.4</ele>
        <time>2024-07-23T13:57:53Z</time>
      </trkpt>
      <trkpt lat="44.54138" lon="1.12986">
        <ele>273.6</ele>
        <time>2024-07-23T13:57:54Z</time>
      </trkpt>
      <trkpt lat="44.54138" lon="1.12984">
        <ele>273.8</ele>
        <time>2024-07-23T13:57:55Z</time>
      </trkpt>
      <trkpt lat="44.54138" lon="1.12982">
        <ele>273.8</ele>
        <time>2024-07-23T13:57:56Z</time>
      </trkpt>
      <trkpt lat="44.54137" lon="1.1298">
        <ele>274.2</ele>
        <time>2024-07-23T13:57:57Z</time>
      </trkpt>
      <trkpt lat="44.54137" lon="1.12978">
        <ele>274.4</ele>
        <time>2024-07-23T13:57:58Z</time>
      </trkpt>
      <trkpt lat="44.54136" lon="1.12976">
        <ele>274.6</ele>
        <time>2024-07-23T13:57:59Z</time>
      </trkpt>
      <trkpt lat="44.54136" lon="1.12974">
        <ele>274.8</ele>
        <time>2024-07-23T13:58:00Z</time>
      </trkpt>
      <trkpt lat="44.54135" lon="1.12972">
        <ele>275</ele>
        <time>2024-07-23T13:58:01Z</time>
      </trkpt>
      <trkpt lat="44.54135" lon="1.12969">
        <ele>275</ele>
        <time>2024-07-23T13:58:02Z</time>
      </trkpt>
      <trkpt lat="44.54134" lon="1.12967">
        <ele>275.2</ele>
        <time>2024-07-23T13:58:03Z</time>
      </trkpt>
      <trkpt lat="44.54134" lon="1.12965">
        <ele>275.2</ele>
        <time>2024-07-23T13:58:04Z</time>
      </trkpt>
      <trkpt lat="44.54134" lon="1.12963">
        <ele>275.4</ele>
        <time>2024-07-23T13:58:05Z</time>
      </trkpt>
      <trkpt lat="44.54133" lon="1.1296">
        <ele>275.4</ele>
        <time>2024-07-23T13:58:06Z</time>
      </trkpt>
      <trkpt lat="44.54133" lon="1.12957">
        <ele>275.4</ele>
        <time>2024-07-23T13:58:07Z</time>
      </trkpt>
      <trkpt lat="44.54134" lon="1.12955">
        <ele>275.4</ele>
        <time>2024-07-23T13:58:08Z</time>
      </trkpt>
      <trkpt lat="44.54134" lon="1.12952">
        <ele>275.4</ele>
        <time>2024-07-23T13:58:09Z</time>
      </trkpt>
      <trkpt lat="44.54134" lon="1.12949">
        <ele>275.4</ele>
        <time>2024-07-23T13:58:10Z</time>
      </trkpt>
      <trkpt lat="44.54133" lon="1.12946">
        <ele>275.4</ele>
        <time>2024-07-23T13:58:11Z</time>
      </trkpt>
      <trkpt lat="44.54132" lon="1.12944">
        <ele>275.4</ele>
        <time>2024-07-23T13:58:12Z</time>
      </trkpt>
      <trkpt lat="44.54132" lon="1.12942">
        <ele>275.4</ele>
        <time>2024-07-23T13:58:13Z</time>
      </trkpt>
      <trkpt lat="44.54131" lon="1.12939">
        <ele>275.4</ele>
        <time>2024-07-23T13:58:14Z</time>
      </trkpt>
      <trkpt lat="44.54131" lon="1.12937">
        <ele>275.4</ele>
        <time>2024-07-23T13:58:15Z</time>
      </trkpt>
      <trkpt lat="44.5413" lon="1.12935">
        <ele>275.4</ele>
        <time>2024-07-23T13:58:16Z</time>
      </trkpt>
      <trkpt lat="44.54131" lon="1.12932">
        <ele>275.4</ele>
        <time>2024-07-23T13:58:17Z</time>
      </trkpt>
      <trkpt lat="44.5413" lon="1.12929">
        <ele>275.4</ele>
        <time>2024-07-23T13:58:18Z</time>
      </trkpt>
      <trkpt lat="44.54128" lon="1.12928">
        <ele>275.4</ele>
        <time>2024-07-23T13:58:19Z</time>
      </trkpt>
      <trkpt lat="44.54125" lon="1.12926">
        <ele>275.4</ele>
        <time>2024-07-23T13:58:20Z</time>
      </trkpt>
      <trkpt lat="44.54123" lon="1.12925">
        <ele>275.2</ele>
        <time>2024-07-23T13:58:21Z</time>
      </trkpt>
      <trkpt lat="44.54118" lon="1.12925">
        <ele>275.2</ele>
        <time>2024-07-23T13:58:23Z</time>
      </trkpt>
      <trkpt lat="44.54115" lon="1.12926">
        <ele>275.2</ele>
        <time>2024-07-23T13:58:24Z</time>
      </trkpt>
      <trkpt lat="44.54112" lon="1.12928">
        <ele>275.2</ele>
        <time>2024-07-23T13:58:25Z</time>
      </trkpt>
      <trkpt lat="44.54107" lon="1.1293">
        <ele>275</ele>
        <time>2024-07-23T13:58:27Z</time>
      </trkpt>
      <trkpt lat="44.54086" lon="1.12943">
        <ele>274.8</ele>
        <time>2024-07-23T13:58:35Z</time>
      </trkpt>
      <trkpt lat="44.54073" lon="1.12952">
        <ele>274.6</ele>
        <time>2024-07-23T13:58:39Z</time>
      </trkpt>
      <trkpt lat="44.54066" lon="1.12955">
        <ele>274.6</ele>
        <time>2024-07-23T13:58:41Z</time>
      </trkpt>
      <trkpt lat="44.54057" lon="1.12961">
        <ele>274.4</ele>
        <time>2024-07-23T13:58:44Z</time>
      </trkpt>
      <trkpt lat="44.54052" lon="1.12964">
        <ele>274.4</ele>
        <time>2024-07-23T13:58:46Z</time>
      </trkpt>
      <trkpt lat="44.54049" lon="1.12966">
        <ele>274.2</ele>
        <time>2024-07-23T13:58:47Z</time>
      </trkpt>
      <trkpt lat="44.54045" lon="1.12968">
        <ele>274.2</ele>
        <time>2024-07-23T13:58:48Z</time>
      </trkpt>
      <trkpt lat="44.54029" lon="1.12978">
        <ele>274.4</ele>
        <time>2024-07-23T13:58:53Z</time>
      </trkpt>
      <trkpt lat="44.54018" lon="1.12984">
        <ele>274.4</ele>
        <time>2024-07-23T13:58:57Z</time>
      </trkpt>
      <trkpt lat="44.54015" lon="1.12986">
        <ele>274.4</ele>
        <time>2024-07-23T13:58:58Z</time>
      </trkpt>
      <trkpt lat="44.54012" lon="1.12987">
        <ele>274.4</ele>
        <time>2024-07-23T13:58:59Z</time>
      </trkpt>
      <trkpt lat="44.53988" lon="1.12999">
        <ele>274.4</ele>
        <time>2024-07-23T13:59:07Z</time>
      </trkpt>
      <trkpt lat="44.53983" lon="1.13002">
        <ele>274.4</ele>
        <time>2024-07-23T13:59:09Z</time>
      </trkpt>
      <trkpt lat="44.53981" lon="1.13003">
        <ele>274.4</ele>
        <time>2024-07-23T13:59:10Z</time>
      </trkpt>
      <trkpt lat="44.53979" lon="1.13004">
        <ele>274.4</ele>
        <time>2024-07-23T13:59:11Z</time>
      </trkpt>
      <trkpt lat="44.53977" lon="1.13005">
        <ele>274.4</ele>
        <time>2024-07-23T13:59:12Z</time>
      </trkpt>
      <trkpt lat="44.53975" lon="1.13007">
        <ele>274.4</ele>
        <time>2024-07-23T13:59:13Z</time>
      </trkpt>
      <trkpt lat="44.53949" lon="1.13017">
        <ele>274.6</ele>
        <time>2024-07-23T13:59:22Z</time>
      </trkpt>
      <trkpt lat="44.53935" lon="1.13022">
        <ele>275.6</ele>
        <time>2024-07-23T13:59:28Z</time>
      </trkpt>
      <trkpt lat="44.53933" lon="1.13023">
        <ele>275.8</ele>
        <time>2024-07-23T13:59:29Z</time>
      </trkpt>
      <trkpt lat="44.53931" lon="1.13023">
        <ele>275.8</ele>
        <time>2024-07-23T13:59:30Z</time>
      </trkpt>
      <trkpt lat="44.53929" lon="1.13024">
        <ele>276.2</ele>
        <time>2024-07-23T13:59:31Z</time>
      </trkpt>
      <trkpt lat="44.53927" lon="1.13024">
        <ele>276.4</ele>
        <time>2024-07-23T13:59:32Z</time>
      </trkpt>
      <trkpt lat="44.53925" lon="1.13025">
        <ele>276.8</ele>
        <time>2024-07-23T13:59:33Z</time>
      </trkpt>
      <trkpt lat="44.53923" lon="1.13025">
        <ele>277</ele>
        <time>2024-07-23T13:59:34Z</time>
      </trkpt>
      <trkpt lat="44.53921" lon="1.13026">
        <ele>277.2</ele>
        <time>2024-07-23T13:59:35Z</time>
      </trkpt>
      <trkpt lat="44.53919" lon="1.13027">
        <ele>277.4</ele>
        <time>2024-07-23T13:59:36Z</time>
      </trkpt>
      <trkpt lat="44.53917" lon="1.13027">
        <ele>277.6</ele>
        <time>2024-07-23T13:59:37Z</time>
      </trkpt>
      <trkpt lat="44.53915" lon="1.13027">
        <ele>277.8</ele>
        <time>2024-07-23T13:59:38Z</time>
      </trkpt>
      <trkpt lat="44.53913" lon="1.13028">
        <ele>278</ele>
        <time>2024-07-23T13:59:39Z</time>
      </trkpt>
      <trkpt lat="44.53911" lon="1.13029">
        <ele>278.4</ele>
        <time>2024-07-23T13:59:40Z</time>
      </trkpt>
      <trkpt lat="44.53909" lon="1.13029">
        <ele>278.4</ele>
        <time>2024-07-23T13:59:41Z</time>
      </trkpt>
      <trkpt lat="44.53906" lon="1.1303">
        <ele>278.8</ele>
        <time>2024-07-23T13:59:42Z</time>
      </trkpt>
      <trkpt lat="44.53904" lon="1.13031">
        <ele>279</ele>
        <time>2024-07-23T13:59:43Z</time>
      </trkpt>
      <trkpt lat="44.53902" lon="1.13031">
        <ele>279.2</ele>
        <time>2024-07-23T13:59:44Z</time>
      </trkpt>
      <trkpt lat="44.539" lon="1.13032">
        <ele>279.6</ele>
        <time>2024-07-23T13:59:45Z</time>
      </trkpt>
      <trkpt lat="44.53898" lon="1.13032">
        <ele>279.6</ele>
        <time>2024-07-23T13:59:46Z</time>
      </trkpt>
      <trkpt lat="44.53896" lon="1.13033">
        <ele>279.8</ele>
        <time>2024-07-23T13:59:47Z</time>
      </trkpt>
      <trkpt lat="44.53894" lon="1.13033">
        <ele>280</ele>
        <time>2024-07-23T13:59:48Z</time>
      </trkpt>
      <trkpt lat="44.53891" lon="1.13034">
        <ele>280.2</ele>
        <time>2024-07-23T13:59:49Z</time>
      </trkpt>
      <trkpt lat="44.53889" lon="1.13034">
        <ele>280.2</ele>
        <time>2024-07-23T13:59:50Z</time>
      </trkpt>
      <trkpt lat="44.53887" lon="1.13035">
        <ele>280.4</ele>
        <time>2024-07-23T13:59:51Z</time>
      </trkpt>
      <trkpt lat="44.53885" lon="1.13036">
        <ele>280.4</ele>
        <time>2024-07-23T13:59:52Z</time>
      </trkpt>
      <trkpt lat="44.53883" lon="1.13036">
        <ele>280.6</ele>
        <time>2024-07-23T13:59:53Z</time>
      </trkpt>
      <trkpt lat="44.53881" lon="1.13037">
        <ele>280.6</ele>
        <time>2024-07-23T13:59:54Z</time>
      </trkpt>
      <trkpt lat="44.53879" lon="1.13039">
        <ele>280.8</ele>
        <time>2024-07-23T13:59:55Z</time>
      </trkpt>
      <trkpt lat="44.53877" lon="1.13039">
        <ele>281</ele>
        <time>2024-07-23T13:59:56Z</time>
      </trkpt>
      <trkpt lat="44.53874" lon="1.13041">
        <ele>281.2</ele>
        <time>2024-07-23T13:59:57Z</time>
      </trkpt>
      <trkpt lat="44.53871" lon="1.13042">
        <ele>281.2</ele>
        <time>2024-07-23T13:59:58Z</time>
      </trkpt>
      <trkpt lat="44.53869" lon="1.13044">
        <ele>281.4</ele>
        <time>2024-07-23T13:59:59Z</time>
      </trkpt>
      <trkpt lat="44.53867" lon="1.13045">
        <ele>281.6</ele>
        <time>2024-07-23T14:00:00Z</time>
      </trkpt>
      <trkpt lat="44.53865" lon="1.13046">
        <ele>281.6</ele>
        <time>2024-07-23T14:00:01Z</time>
      </trkpt>
      <trkpt lat="44.53862" lon="1.13048">
        <ele>281.8</ele>
        <time>2024-07-23T14:00:02Z</time>
      </trkpt>
      <trkpt lat="44.53859" lon="1.13049">
        <ele>281.8</ele>
        <time>2024-07-23T14:00:03Z</time>
      </trkpt>
      <trkpt lat="44.53857" lon="1.13051">
        <ele>281.8</ele>
        <time>2024-07-23T14:00:04Z</time>
      </trkpt>
      <trkpt lat="44.53855" lon="1.13052">
        <ele>281.8</ele>
        <time>2024-07-23T14:00:05Z</time>
      </trkpt>
      <trkpt lat="44.53853" lon="1.13054">
        <ele>282</ele>
        <time>2024-07-23T14:00:06Z</time>
      </trkpt>
      <trkpt lat="44.53851" lon="1.13055">
        <ele>282</ele>
        <time>2024-07-23T14:00:07Z</time>
      </trkpt>
      <trkpt lat="44.53849" lon="1.13057">
        <ele>282</ele>
        <time>2024-07-23T14:00:08Z</time>
      </trkpt>
      <trkpt lat="44.53847" lon="1.13058">
        <ele>282.2</ele>
        <time>2024-07-23T14:00:09Z</time>
      </trkpt>
      <trkpt lat="44.53845" lon="1.13059">
        <ele>282.2</ele>
        <time>2024-07-23T14:00:10Z</time>
      </trkpt>
      <trkpt lat="44.53843" lon="1.13061">
        <ele>282.4</ele>
        <time>2024-07-23T14:00:11Z</time>
      </trkpt>
      <trkpt lat="44.53841" lon="1.13063">
        <ele>282.4</ele>
        <time>2024-07-23T14:00:12Z</time>
      </trkpt>
      <trkpt lat="44.53838" lon="1.13065">
        <ele>282.6</ele>
        <time>2024-07-23T14:00:13Z</time>
      </trkpt>
      <trkpt lat="44.53836" lon="1.13067">
        <ele>282.6</ele>
        <time>2024-07-23T14:00:14Z</time>
      </trkpt>
      <trkpt lat="44.53833" lon="1.13069">
        <ele>282.6</ele>
        <time>2024-07-23T14:00:15Z</time>
      </trkpt>
      <trkpt lat="44.53831" lon="1.13071">
        <ele>282.8</ele>
        <time>2024-07-23T14:00:16Z</time>
      </trkpt>
      <trkpt lat="44.53828" lon="1.13073">
        <ele>282.8</ele>
        <time>2024-07-23T14:00:17Z</time>
      </trkpt>
      <trkpt lat="44.53826" lon="1.13075">
        <ele>282.8</ele>
        <time>2024-07-23T14:00:18Z</time>
      </trkpt>
      <trkpt lat="44.53823" lon="1.13077">
        <ele>282.8</ele>
        <time>2024-07-23T14:00:19Z</time>
      </trkpt>
      <trkpt lat="44.5382" lon="1.13079">
        <ele>283</ele>
        <time>2024-07-23T14:00:20Z</time>
      </trkpt>
      <trkpt lat="44.53818" lon="1.1308">
        <ele>283</ele>
        <time>2024-07-23T14:00:21Z</time>
      </trkpt>
      <trkpt lat="44.53816" lon="1.13082">
        <ele>283</ele>
        <time>2024-07-23T14:00:22Z</time>
      </trkpt>
      <trkpt lat="44.53815" lon="1.13083">
        <ele>283</ele>
        <time>2024-07-23T14:00:23Z</time>
      </trkpt>
      <trkpt lat="44.53813" lon="1.13084">
        <ele>283.2</ele>
        <time>2024-07-23T14:00:24Z</time>
      </trkpt>
      <trkpt lat="44.53811" lon="1.13085">
        <ele>283.4</ele>
        <time>2024-07-23T14:00:25Z</time>
      </trkpt>
      <trkpt lat="44.53804" lon="1.1309">
        <ele>283.8</ele>
        <time>2024-07-23T14:00:28Z</time>
      </trkpt>
      <trkpt lat="44.53802" lon="1.13092">
        <ele>283.8</ele>
        <time>2024-07-23T14:00:29Z</time>
      </trkpt>
      <trkpt lat="44.53799" lon="1.13094">
        <ele>284</ele>
        <time>2024-07-23T14:00:30Z</time>
      </trkpt>
      <trkpt lat="44.53797" lon="1.13096">
        <ele>284.2</ele>
        <time>2024-07-23T14:00:31Z</time>
      </trkpt>
      <trkpt lat="44.53791" lon="1.13099">
        <ele>284.4</ele>
        <time>2024-07-23T14:00:33Z</time>
      </trkpt>
      <trkpt lat="44.53787" lon="1.13103">
        <ele>284.6</ele>
        <time>2024-07-23T14:00:35Z</time>
      </trkpt>
      <trkpt lat="44.53778" lon="1.13108">
        <ele>285</ele>
        <time>2024-07-23T14:00:39Z</time>
      </trkpt>
      <trkpt lat="44.53775" lon="1.1311">
        <ele>285.2</ele>
        <time>2024-07-23T14:00:40Z</time>
      </trkpt>
      <trkpt lat="44.53772" lon="1.13112">
        <ele>285.2</ele>
        <time>2024-07-23T14:00:41Z</time>
      </trkpt>
      <trkpt lat="44.5377" lon="1.13113">
        <ele>285.4</ele>
        <time>2024-07-23T14:00:42Z</time>
      </trkpt>
      <trkpt lat="44.53767" lon="1.13116">
        <ele>285.4</ele>
        <time>2024-07-23T14:00:43Z</time>
      </trkpt>
      <trkpt lat="44.53764" lon="1.13117">
        <ele>285.6</ele>
        <time>2024-07-23T14:00:44Z</time>
      </trkpt>
      <trkpt lat="44.5376" lon="1.13119">
        <ele>285.6</ele>
        <time>2024-07-23T14:00:45Z</time>
      </trkpt>
      <trkpt lat="44.53757" lon="1.13121">
        <ele>285.6</ele>
        <time>2024-07-23T14:00:46Z</time>
      </trkpt>
      <trkpt lat="44.53754" lon="1.13123">
        <ele>286</ele>
        <time>2024-07-23T14:00:47Z</time>
      </trkpt>
      <trkpt lat="44.5375" lon="1.13125">
        <ele>285.8</ele>
        <time>2024-07-23T14:00:48Z</time>
      </trkpt>
      <trkpt lat="44.53747" lon="1.13126">
        <ele>285.8</ele>
        <time>2024-07-23T14:00:49Z</time>
      </trkpt>
      <trkpt lat="44.53745" lon="1.13126">
        <ele>286</ele>
        <time>2024-07-23T14:00:50Z</time>
      </trkpt>
      <trkpt lat="44.53742" lon="1.13125">
        <ele>286</ele>
        <time>2024-07-23T14:00:51Z</time>
      </trkpt>
      <trkpt lat="44.53739" lon="1.13124">
        <ele>286</ele>
        <time>2024-07-23T14:00:52Z</time>
      </trkpt>
      <trkpt lat="44.53734" lon="1.13109">
        <ele>286</ele>
        <time>2024-07-23T14:00:56Z</time>
      </trkpt>
      <trkpt lat="44.53733" lon="1.13105">
        <ele>286.2</ele>
        <time>2024-07-23T14:00:57Z</time>
      </trkpt>
      <trkpt lat="44.53729" lon="1.13075">
        <ele>286</ele>
        <time>2024-07-23T14:01:04Z</time>
      </trkpt>
      <trkpt lat="44.53719" lon="1.13049">
        <ele>286</ele>
        <time>2024-07-23T14:01:10Z</time>
      </trkpt>
      <trkpt lat="44.53708" lon="1.13031">
        <ele>286.4</ele>
        <time>2024-07-23T14:01:15Z</time>
      </trkpt>
      <trkpt lat="44.53706" lon="1.13027">
        <ele>286.4</ele>
        <time>2024-07-23T14:01:16Z</time>
      </trkpt>
      <trkpt lat="44.53704" lon="1.13023">
        <ele>286.4</ele>
        <time>2024-07-23T14:01:17Z</time>
      </trkpt>
      <trkpt lat="44.53702" lon="1.1302">
        <ele>286.4</ele>
        <time>2024-07-23T14:01:18Z</time>
      </trkpt>
      <trkpt lat="44.537" lon="1.13016">
        <ele>286.4</ele>
        <time>2024-07-23T14:01:19Z</time>
      </trkpt>
      <trkpt lat="44.53698" lon="1.13013">
        <ele>286.4</ele>
        <time>2024-07-23T14:01:20Z</time>
      </trkpt>
      <trkpt lat="44.53697" lon="1.1301">
        <ele>286.4</ele>
        <time>2024-07-23T14:01:21Z</time>
      </trkpt>
      <trkpt lat="44.53695" lon="1.13006">
        <ele>286.6</ele>
        <time>2024-07-23T14:01:22Z</time>
      </trkpt>
      <trkpt lat="44.53693" lon="1.13003">
        <ele>286.6</ele>
        <time>2024-07-23T14:01:23Z</time>
      </trkpt>
      <trkpt lat="44.53691" lon="1.13">
        <ele>286.6</ele>
        <time>2024-07-23T14:01:24Z</time>
      </trkpt>
      <trkpt lat="44.5369" lon="1.12997">
        <ele>286.6</ele>
        <time>2024-07-23T14:01:25Z</time>
      </trkpt>
      <trkpt lat="44.53689" lon="1.12993">
        <ele>286.6</ele>
        <time>2024-07-23T14:01:26Z</time>
      </trkpt>
      <trkpt lat="44.53687" lon="1.1299">
        <ele>286.6</ele>
        <time>2024-07-23T14:01:27Z</time>
      </trkpt>
      <trkpt lat="44.53686" lon="1.12987">
        <ele>286.8</ele>
        <time>2024-07-23T14:01:28Z</time>
      </trkpt>
      <trkpt lat="44.53685" lon="1.12983">
        <ele>286.8</ele>
        <time>2024-07-23T14:01:29Z</time>
      </trkpt>
      <trkpt lat="44.53683" lon="1.1298">
        <ele>286.8</ele>
        <time>2024-07-23T14:01:30Z</time>
      </trkpt>
      <trkpt lat="44.53682" lon="1.12977">
        <ele>287.2</ele>
        <time>2024-07-23T14:01:31Z</time>
      </trkpt>
      <trkpt lat="44.5368" lon="1.12974">
        <ele>287.6</ele>
        <time>2024-07-23T14:01:32Z</time>
      </trkpt>
      <trkpt lat="44.53679" lon="1.12971">
        <ele>287.8</ele>
        <time>2024-07-23T14:01:33Z</time>
      </trkpt>
      <trkpt lat="44.53677" lon="1.12968">
        <ele>287.8</ele>
        <time>2024-07-23T14:01:34Z</time>
      </trkpt>
      <trkpt lat="44.53676" lon="1.12965">
        <ele>288</ele>
        <time>2024-07-23T14:01:35Z</time>
      </trkpt>
      <trkpt lat="44.53675" lon="1.12962">
        <ele>288</ele>
        <time>2024-07-23T14:01:36Z</time>
      </trkpt>
      <trkpt lat="44.53671" lon="1.12952">
        <ele>288</ele>
        <time>2024-07-23T14:01:39Z</time>
      </trkpt>
      <trkpt lat="44.53662" lon="1.12932">
        <ele>288.4</ele>
        <time>2024-07-23T14:01:45Z</time>
      </trkpt>
      <trkpt lat="44.53651" lon="1.12917">
        <ele>288.8</ele>
        <time>2024-07-23T14:01:50Z</time>
      </trkpt>
      <trkpt lat="44.53647" lon="1.1291">
        <ele>289</ele>
        <time>2024-07-23T14:01:52Z</time>
      </trkpt>
      <trkpt lat="44.53646" lon="1.12907">
        <ele>289.2</ele>
        <time>2024-07-23T14:01:53Z</time>
      </trkpt>
      <trkpt lat="44.53644" lon="1.12904">
        <ele>289.4</ele>
        <time>2024-07-23T14:01:54Z</time>
      </trkpt>
      <trkpt lat="44.53642" lon="1.12901">
        <ele>289.6</ele>
        <time>2024-07-23T14:01:55Z</time>
      </trkpt>
      <trkpt lat="44.53638" lon="1.12892">
        <ele>290</ele>
        <time>2024-07-23T14:01:58Z</time>
      </trkpt>
      <trkpt lat="44.53636" lon="1.12889">
        <ele>290</ele>
        <time>2024-07-23T14:01:59Z</time>
      </trkpt>
      <trkpt lat="44.53634" lon="1.12887">
        <ele>290.2</ele>
        <time>2024-07-23T14:02:00Z</time>
      </trkpt>
      <trkpt lat="44.53632" lon="1.12884">
        <ele>290.2</ele>
        <time>2024-07-23T14:02:01Z</time>
      </trkpt>
      <trkpt lat="44.53625" lon="1.12871">
        <ele>290.6</ele>
        <time>2024-07-23T14:02:05Z</time>
      </trkpt>
      <trkpt lat="44.53618" lon="1.12859">
        <ele>290.8</ele>
        <time>2024-07-23T14:02:09Z</time>
      </trkpt>
      <trkpt lat="44.53606" lon="1.12834">
        <ele>290.8</ele>
        <time>2024-07-23T14:02:16Z</time>
      </trkpt>
      <trkpt lat="44.53601" lon="1.12824">
        <ele>290.8</ele>
        <time>2024-07-23T14:02:19Z</time>
      </trkpt>
      <trkpt lat="44.536" lon="1.12822">
        <ele>290.6</ele>
        <time>2024-07-23T14:02:20Z</time>
      </trkpt>
      <trkpt lat="44.53599" lon="1.12821">
        <ele>290.4</ele>
        <time>2024-07-23T14:02:21Z</time>
      </trkpt>
      <trkpt lat="44.53599" lon="1.12819">
        <ele>290.4</ele>
        <time>2024-07-23T14:02:22Z</time>
      </trkpt>
      <trkpt lat="44.53599" lon="1.12817">
        <ele>290</ele>
        <time>2024-07-23T14:02:23Z</time>
      </trkpt>
      <trkpt lat="44.53594" lon="1.12805">
        <ele>289.6</ele>
        <time>2024-07-23T14:02:27Z</time>
      </trkpt>
      <trkpt lat="44.53586" lon="1.12784">
        <ele>288.8</ele>
        <time>2024-07-23T14:02:32Z</time>
      </trkpt>
      <trkpt lat="44.53585" lon="1.12781">
        <ele>288.8</ele>
        <time>2024-07-23T14:02:33Z</time>
      </trkpt>
      <trkpt lat="44.53584" lon="1.12778">
        <ele>288.6</ele>
        <time>2024-07-23T14:02:34Z</time>
      </trkpt>
      <trkpt lat="44.53583" lon="1.12774">
        <ele>288.4</ele>
        <time>2024-07-23T14:02:35Z</time>
      </trkpt>
      <trkpt lat="44.53579" lon="1.12764">
        <ele>288</ele>
        <time>2024-07-23T14:02:37Z</time>
      </trkpt>
      <trkpt lat="44.53576" lon="1.12753">
        <ele>287.8</ele>
        <time>2024-07-23T14:02:39Z</time>
      </trkpt>
      <trkpt lat="44.53573" lon="1.12736">
        <ele>287.2</ele>
        <time>2024-07-23T14:02:42Z</time>
      </trkpt>
      <trkpt lat="44.53572" lon="1.1273">
        <ele>287</ele>
        <time>2024-07-23T14:02:43Z</time>
      </trkpt>
      <trkpt lat="44.53571" lon="1.12724">
        <ele>286.6</ele>
        <time>2024-07-23T14:02:44Z</time>
      </trkpt>
      <trkpt lat="44.53571" lon="1.12705">
        <ele>285.2</ele>
        <time>2024-07-23T14:02:47Z</time>
      </trkpt>
      <trkpt lat="44.53571" lon="1.12698">
        <ele>285.2</ele>
        <time>2024-07-23T14:02:48Z</time>
      </trkpt>
      <trkpt lat="44.53571" lon="1.12691">
        <ele>284.8</ele>
        <time>2024-07-23T14:02:49Z</time>
      </trkpt>
      <trkpt lat="44.53571" lon="1.12683">
        <ele>284.4</ele>
        <time>2024-07-23T14:02:50Z</time>
      </trkpt>
      <trkpt lat="44.53571" lon="1.12678">
        <ele>283.8</ele>
        <time>2024-07-23T14:02:51Z</time>
      </trkpt>
      <trkpt lat="44.5357" lon="1.12665">
        <ele>282.8</ele>
        <time>2024-07-23T14:02:53Z</time>
      </trkpt>
      <trkpt lat="44.5357" lon="1.12657">
        <ele>281.8</ele>
        <time>2024-07-23T14:02:54Z</time>
      </trkpt>
      <trkpt lat="44.5357" lon="1.12647">
        <ele>281</ele>
        <time>2024-07-23T14:02:55Z</time>
      </trkpt>
      <trkpt lat="44.53568" lon="1.12639">
        <ele>279.6</ele>
        <time>2024-07-23T14:02:56Z</time>
      </trkpt>
      <trkpt lat="44.53565" lon="1.12624">
        <ele>277.8</ele>
        <time>2024-07-23T14:02:58Z</time>
      </trkpt>
      <trkpt lat="44.53565" lon="1.12617">
        <ele>277</ele>
        <time>2024-07-23T14:02:59Z</time>
      </trkpt>
      <trkpt lat="44.53565" lon="1.12612">
        <ele>276.6</ele>
        <time>2024-07-23T14:03:00Z</time>
      </trkpt>
      <trkpt lat="44.53564" lon="1.12599">
        <ele>275.2</ele>
        <time>2024-07-23T14:03:02Z</time>
      </trkpt>
      <trkpt lat="44.53565" lon="1.12585">
        <ele>273.8</ele>
        <time>2024-07-23T14:03:04Z</time>
      </trkpt>
      <trkpt lat="44.53566" lon="1.12565">
        <ele>272.6</ele>
        <time>2024-07-23T14:03:07Z</time>
      </trkpt>
      <trkpt lat="44.5357" lon="1.12534">
        <ele>271.2</ele>
        <time>2024-07-23T14:03:11Z</time>
      </trkpt>
      <trkpt lat="44.53571" lon="1.12526">
        <ele>271.2</ele>
        <time>2024-07-23T14:03:12Z</time>
      </trkpt>
      <trkpt lat="44.53572" lon="1.1251">
        <ele>270</ele>
        <time>2024-07-23T14:03:14Z</time>
      </trkpt>
      <trkpt lat="44.53573" lon="1.12502">
        <ele>269.6</ele>
        <time>2024-07-23T14:03:15Z</time>
      </trkpt>
      <trkpt lat="44.53574" lon="1.12487">
        <ele>269</ele>
        <time>2024-07-23T14:03:17Z</time>
      </trkpt>
      <trkpt lat="44.53574" lon="1.1248">
        <ele>268.2</ele>
        <time>2024-07-23T14:03:18Z</time>
      </trkpt>
      <trkpt lat="44.53575" lon="1.12473">
        <ele>267.8</ele>
        <time>2024-07-23T14:03:19Z</time>
      </trkpt>
      <trkpt lat="44.53577" lon="1.12468">
        <ele>267.2</ele>
        <time>2024-07-23T14:03:20Z</time>
      </trkpt>
      <trkpt lat="44.53578" lon="1.12464">
        <ele>266.8</ele>
        <time>2024-07-23T14:03:21Z</time>
      </trkpt>
      <trkpt lat="44.5358" lon="1.12461">
        <ele>266.2</ele>
        <time>2024-07-23T14:03:22Z</time>
      </trkpt>
      <trkpt lat="44.53581" lon="1.12458">
        <ele>265.6</ele>
        <time>2024-07-23T14:03:23Z</time>
      </trkpt>
      <trkpt lat="44.53582" lon="1.12456">
        <ele>265.2</ele>
        <time>2024-07-23T14:03:24Z</time>
      </trkpt>
      <trkpt lat="44.53583" lon="1.12454">
        <ele>264.4</ele>
        <time>2024-07-23T14:03:25Z</time>
      </trkpt>
      <trkpt lat="44.53583" lon="1.12452">
        <ele>264.2</ele>
        <time>2024-07-23T14:03:26Z</time>
      </trkpt>
      <trkpt lat="44.53583" lon="1.12451">
        <ele>263.6</ele>
        <time>2024-07-23T14:03:27Z</time>
      </trkpt>
      <trkpt lat="44.53582" lon="1.1245">
        <ele>263.4</ele>
        <time>2024-07-23T14:03:28Z</time>
      </trkpt>
      <trkpt lat="44.53582" lon="1.1245">
        <ele>263.2</ele>
        <time>2024-07-23T14:03:29Z</time>
      </trkpt>
      <trkpt lat="44.5358" lon="1.12445">
        <ele>262.6</ele>
        <time>2024-07-23T14:04:21Z</time>
      </trkpt>
      <trkpt lat="44.53579" lon="1.12443">
        <ele>262.6</ele>
        <time>2024-07-23T14:04:22Z</time>
      </trkpt>
      <trkpt lat="44.53574" lon="1.12439">
        <ele>262.6</ele>
        <time>2024-07-23T14:04:24Z</time>
      </trkpt>
      <trkpt lat="44.53571" lon="1.12439">
        <ele>262.4</ele>
        <time>2024-07-23T14:04:25Z</time>
      </trkpt>
      <trkpt lat="44.53569" lon="1.12439">
        <ele>262.4</ele>
        <time>2024-07-23T14:04:26Z</time>
      </trkpt>
      <trkpt lat="44.53566" lon="1.12439">
        <ele>262.4</ele>
        <time>2024-07-23T14:04:27Z</time>
      </trkpt>
      <trkpt lat="44.53563" lon="1.12439">
        <ele>262.2</ele>
        <time>2024-07-23T14:04:28Z</time>
      </trkpt>
      <trkpt lat="44.53548" lon="1.1244">
        <ele>262</ele>
        <time>2024-07-23T14:04:33Z</time>
      </trkpt>
      <trkpt lat="44.53532" lon="1.12439">
        <ele>262.4</ele>
        <time>2024-07-23T14:04:39Z</time>
      </trkpt>
      <trkpt lat="44.53526" lon="1.12439">
        <ele>262.6</ele>
        <time>2024-07-23T14:04:41Z</time>
      </trkpt>
      <trkpt lat="44.53522" lon="1.12439">
        <ele>262.6</ele>
        <time>2024-07-23T14:04:42Z</time>
      </trkpt>
      <trkpt lat="44.53502" lon="1.12438">
        <ele>263.4</ele>
        <time>2024-07-23T14:04:49Z</time>
      </trkpt>
      <trkpt lat="44.53491" lon="1.12437">
        <ele>263.6</ele>
        <time>2024-07-23T14:04:52Z</time>
      </trkpt>
      <trkpt lat="44.53463" lon="1.12437">
        <ele>264.4</ele>
        <time>2024-07-23T14:05:02Z</time>
      </trkpt>
      <trkpt lat="44.5346" lon="1.12437">
        <ele>264.6</ele>
        <time>2024-07-23T14:05:03Z</time>
      </trkpt>
      <trkpt lat="44.53449" lon="1.12439">
        <ele>265</ele>
        <time>2024-07-23T14:05:07Z</time>
      </trkpt>
      <trkpt lat="44.53442" lon="1.12441">
        <ele>265.2</ele>
        <time>2024-07-23T14:05:10Z</time>
      </trkpt>
      <trkpt lat="44.53428" lon="1.12444">
        <ele>265.8</ele>
        <time>2024-07-23T14:05:15Z</time>
      </trkpt>
      <trkpt lat="44.53426" lon="1.12445">
        <ele>265.8</ele>
        <time>2024-07-23T14:05:16Z</time>
      </trkpt>
      <trkpt lat="44.53421" lon="1.12445">
        <ele>265.8</ele>
        <time>2024-07-23T14:05:18Z</time>
      </trkpt>
      <trkpt lat="44.534" lon="1.12451">
        <ele>266</ele>
        <time>2024-07-23T14:05:25Z</time>
      </trkpt>
      <trkpt lat="44.53374" lon="1.12457">
        <ele>265.8</ele>
        <time>2024-07-23T14:05:32Z</time>
      </trkpt>
      <trkpt lat="44.5334" lon="1.12456">
        <ele>265.8</ele>
        <time>2024-07-23T14:05:40Z</time>
      </trkpt>
      <trkpt lat="44.53321" lon="1.12456">
        <ele>265.8</ele>
        <time>2024-07-23T14:05:45Z</time>
      </trkpt>
      <trkpt lat="44.53317" lon="1.12456">
        <ele>265.8</ele>
        <time>2024-07-23T14:05:46Z</time>
      </trkpt>
      <trkpt lat="44.53305" lon="1.12459">
        <ele>265.6</ele>
        <time>2024-07-23T14:05:49Z</time>
      </trkpt>
      <trkpt lat="44.53301" lon="1.1246">
        <ele>265.6</ele>
        <time>2024-07-23T14:05:50Z</time>
      </trkpt>
      <trkpt lat="44.53297" lon="1.12461">
        <ele>265.6</ele>
        <time>2024-07-23T14:05:51Z</time>
      </trkpt>
      <trkpt lat="44.53294" lon="1.12463">
        <ele>265.6</ele>
        <time>2024-07-23T14:05:52Z</time>
      </trkpt>
      <trkpt lat="44.5329" lon="1.12464">
        <ele>265.6</ele>
        <time>2024-07-23T14:05:53Z</time>
      </trkpt>
      <trkpt lat="44.53275" lon="1.12472">
        <ele>265.6</ele>
        <time>2024-07-23T14:05:57Z</time>
      </trkpt>
      <trkpt lat="44.53263" lon="1.12478">
        <ele>265.6</ele>
        <time>2024-07-23T14:06:00Z</time>
      </trkpt>
      <trkpt lat="44.5325" lon="1.12482">
        <ele>265.4</ele>
        <time>2024-07-23T14:06:03Z</time>
      </trkpt>
      <trkpt lat="44.53243" lon="1.12483">
        <ele>265.2</ele>
        <time>2024-07-23T14:06:05Z</time>
      </trkpt>
      <trkpt lat="44.53235" lon="1.12486">
        <ele>265.2</ele>
        <time>2024-07-23T14:06:07Z</time>
      </trkpt>
      <trkpt lat="44.53226" lon="1.12488">
        <ele>265.2</ele>
        <time>2024-07-23T14:06:09Z</time>
      </trkpt>
      <trkpt lat="44.53222" lon="1.12489">
        <ele>265.2</ele>
        <time>2024-07-23T14:06:10Z</time>
      </trkpt>
      <trkpt lat="44.53218" lon="1.1249">
        <ele>265.2</ele>
        <time>2024-07-23T14:06:11Z</time>
      </trkpt>
      <trkpt lat="44.53197" lon="1.12497">
        <ele>265.2</ele>
        <time>2024-07-23T14:06:16Z</time>
      </trkpt>
      <trkpt lat="44.53193" lon="1.12498">
        <ele>265.2</ele>
        <time>2024-07-23T14:06:17Z</time>
      </trkpt>
      <trkpt lat="44.53189" lon="1.125">
        <ele>265.2</ele>
        <time>2024-07-23T14:06:18Z</time>
      </trkpt>
      <trkpt lat="44.53186" lon="1.12501">
        <ele>265.2</ele>
        <time>2024-07-23T14:06:19Z</time>
      </trkpt>
      <trkpt lat="44.53164" lon="1.12511">
        <ele>264.8</ele>
        <time>2024-07-23T14:06:24Z</time>
      </trkpt>
      <trkpt lat="44.53157" lon="1.12515">
        <ele>265.2</ele>
        <time>2024-07-23T14:06:26Z</time>
      </trkpt>
      <trkpt lat="44.5313" lon="1.12521">
        <ele>265.4</ele>
        <time>2024-07-23T14:06:32Z</time>
      </trkpt>
      <trkpt lat="44.53125" lon="1.1252">
        <ele>265.4</ele>
        <time>2024-07-23T14:06:33Z</time>
      </trkpt>
      <trkpt lat="44.53114" lon="1.12517">
        <ele>265.4</ele>
        <time>2024-07-23T14:06:35Z</time>
      </trkpt>
      <trkpt lat="44.53102" lon="1.12513">
        <ele>265.2</ele>
        <time>2024-07-23T14:06:37Z</time>
      </trkpt>
      <trkpt lat="44.5307" lon="1.125">
        <ele>265</ele>
        <time>2024-07-23T14:06:43Z</time>
      </trkpt>
      <trkpt lat="44.53061" lon="1.12495">
        <ele>265</ele>
        <time>2024-07-23T14:06:45Z</time>
      </trkpt>
      <trkpt lat="44.53036" lon="1.12483">
        <ele>264.8</ele>
        <time>2024-07-23T14:06:51Z</time>
      </trkpt>
      <trkpt lat="44.53032" lon="1.1248">
        <ele>264.8</ele>
        <time>2024-07-23T14:06:52Z</time>
      </trkpt>
      <trkpt lat="44.53027" lon="1.12478">
        <ele>264.8</ele>
        <time>2024-07-23T14:06:53Z</time>
      </trkpt>
      <trkpt lat="44.53023" lon="1.12476">
        <ele>264.6</ele>
        <time>2024-07-23T14:06:54Z</time>
      </trkpt>
      <trkpt lat="44.53014" lon="1.12472">
        <ele>264.6</ele>
        <time>2024-07-23T14:06:56Z</time>
      </trkpt>
      <trkpt lat="44.53001" lon="1.12466">
        <ele>264.6</ele>
        <time>2024-07-23T14:06:59Z</time>
      </trkpt>
      <trkpt lat="44.52997" lon="1.12464">
        <ele>264.6</ele>
        <time>2024-07-23T14:07:00Z</time>
      </trkpt>
      <trkpt lat="44.52993" lon="1.12462">
        <ele>264.4</ele>
        <time>2024-07-23T14:07:01Z</time>
      </trkpt>
      <trkpt lat="44.52988" lon="1.12461">
        <ele>264.4</ele>
        <time>2024-07-23T14:07:02Z</time>
      </trkpt>
      <trkpt lat="44.5296" lon="1.12447">
        <ele>264</ele>
        <time>2024-07-23T14:07:08Z</time>
      </trkpt>
      <trkpt lat="44.52942" lon="1.12438">
        <ele>263.8</ele>
        <time>2024-07-23T14:07:12Z</time>
      </trkpt>
      <trkpt lat="44.5293" lon="1.1243">
        <ele>263.6</ele>
        <time>2024-07-23T14:07:15Z</time>
      </trkpt>
      <trkpt lat="44.52918" lon="1.12421">
        <ele>263.6</ele>
        <time>2024-07-23T14:07:18Z</time>
      </trkpt>
      <trkpt lat="44.52914" lon="1.12418">
        <ele>263.4</ele>
        <time>2024-07-23T14:07:19Z</time>
      </trkpt>
      <trkpt lat="44.52909" lon="1.12415">
        <ele>263.4</ele>
        <time>2024-07-23T14:07:20Z</time>
      </trkpt>
      <trkpt lat="44.52905" lon="1.12413">
        <ele>263.4</ele>
        <time>2024-07-23T14:07:21Z</time>
      </trkpt>
      <trkpt lat="44.529" lon="1.1241">
        <ele>263.4</ele>
        <time>2024-07-23T14:07:22Z</time>
      </trkpt>
      <trkpt lat="44.52896" lon="1.12407">
        <ele>263.4</ele>
        <time>2024-07-23T14:07:23Z</time>
      </trkpt>
      <trkpt lat="44.52891" lon="1.12404">
        <ele>263.2</ele>
        <time>2024-07-23T14:07:24Z</time>
      </trkpt>
      <trkpt lat="44.52887" lon="1.12402">
        <ele>263.2</ele>
        <time>2024-07-23T14:07:25Z</time>
      </trkpt>
      <trkpt lat="44.52873" lon="1.12396">
        <ele>263</ele>
        <time>2024-07-23T14:07:28Z</time>
      </trkpt>
      <trkpt lat="44.52869" lon="1.12394">
        <ele>263</ele>
        <time>2024-07-23T14:07:29Z</time>
      </trkpt>
      <trkpt lat="44.52865" lon="1.12393">
        <ele>262.8</ele>
        <time>2024-07-23T14:07:30Z</time>
      </trkpt>
      <trkpt lat="44.52851" lon="1.12389">
        <ele>262.4</ele>
        <time>2024-07-23T14:07:33Z</time>
      </trkpt>
      <trkpt lat="44.52832" lon="1.12386">
        <ele>262</ele>
        <time>2024-07-23T14:07:37Z</time>
      </trkpt>
      <trkpt lat="44.52827" lon="1.12385">
        <ele>261.8</ele>
        <time>2024-07-23T14:07:38Z</time>
      </trkpt>
      <trkpt lat="44.52804" lon="1.12387">
        <ele>261.4</ele>
        <time>2024-07-23T14:07:43Z</time>
      </trkpt>
      <trkpt lat="44.52799" lon="1.12389">
        <ele>261.2</ele>
        <time>2024-07-23T14:07:44Z</time>
      </trkpt>
      <trkpt lat="44.52794" lon="1.12391">
        <ele>261.2</ele>
        <time>2024-07-23T14:07:45Z</time>
      </trkpt>
      <trkpt lat="44.52766" lon="1.12399">
        <ele>260.6</ele>
        <time>2024-07-23T14:07:51Z</time>
      </trkpt>
      <trkpt lat="44.5276" lon="1.12401">
        <ele>260.6</ele>
        <time>2024-07-23T14:07:52Z</time>
      </trkpt>
      <trkpt lat="44.5275" lon="1.12405">
        <ele>260.4</ele>
        <time>2024-07-23T14:07:54Z</time>
      </trkpt>
      <trkpt lat="44.52745" lon="1.12407">
        <ele>260.4</ele>
        <time>2024-07-23T14:07:55Z</time>
      </trkpt>
      <trkpt lat="44.52741" lon="1.12409">
        <ele>260.2</ele>
        <time>2024-07-23T14:07:56Z</time>
      </trkpt>
      <trkpt lat="44.52736" lon="1.12411">
        <ele>260.2</ele>
        <time>2024-07-23T14:07:57Z</time>
      </trkpt>
      <trkpt lat="44.52732" lon="1.12414">
        <ele>260.2</ele>
        <time>2024-07-23T14:07:58Z</time>
      </trkpt>
      <trkpt lat="44.52727" lon="1.12417">
        <ele>260</ele>
        <time>2024-07-23T14:07:59Z</time>
      </trkpt>
      <trkpt lat="44.52722" lon="1.12421">
        <ele>260</ele>
        <time>2024-07-23T14:08:00Z</time>
      </trkpt>
      <trkpt lat="44.52716" lon="1.12424">
        <ele>260</ele>
        <time>2024-07-23T14:08:01Z</time>
      </trkpt>
      <trkpt lat="44.52711" lon="1.12427">
        <ele>259.8</ele>
        <time>2024-07-23T14:08:02Z</time>
      </trkpt>
      <trkpt lat="44.52708" lon="1.12428">
        <ele>259.8</ele>
        <time>2024-07-23T14:08:03Z</time>
      </trkpt>
      <trkpt lat="44.52705" lon="1.1243">
        <ele>259.6</ele>
        <time>2024-07-23T14:08:04Z</time>
      </trkpt>
      <trkpt lat="44.52695" lon="1.12435">
        <ele>259.6</ele>
        <time>2024-07-23T14:08:05Z</time>
      </trkpt>
      <trkpt lat="44.52691" lon="1.12438">
        <ele>259.4</ele>
        <time>2024-07-23T14:08:06Z</time>
      </trkpt>
      <trkpt lat="44.52678" lon="1.12447">
        <ele>259.2</ele>
        <time>2024-07-23T14:08:09Z</time>
      </trkpt>
      <trkpt lat="44.52668" lon="1.12455">
        <ele>259</ele>
        <time>2024-07-23T14:08:11Z</time>
      </trkpt>
      <trkpt lat="44.52657" lon="1.12461">
        <ele>259</ele>
        <time>2024-07-23T14:08:13Z</time>
      </trkpt>
      <trkpt lat="44.52648" lon="1.12467">
        <ele>258.8</ele>
        <time>2024-07-23T14:08:15Z</time>
      </trkpt>
      <trkpt lat="44.52634" lon="1.12477">
        <ele>258.6</ele>
        <time>2024-07-23T14:08:18Z</time>
      </trkpt>
      <trkpt lat="44.5262" lon="1.12484">
        <ele>258</ele>
        <time>2024-07-23T14:08:21Z</time>
      </trkpt>
      <trkpt lat="44.5261" lon="1.12493">
        <ele>257.8</ele>
        <time>2024-07-23T14:08:23Z</time>
      </trkpt>
      <trkpt lat="44.52607" lon="1.12496">
        <ele>257.8</ele>
        <time>2024-07-23T14:08:24Z</time>
      </trkpt>
      <trkpt lat="44.52605" lon="1.12499">
        <ele>257.6</ele>
        <time>2024-07-23T14:08:25Z</time>
      </trkpt>
      <trkpt lat="44.52603" lon="1.12502">
        <ele>257.6</ele>
        <time>2024-07-23T14:08:26Z</time>
      </trkpt>
      <trkpt lat="44.526" lon="1.12507">
        <ele>257.4</ele>
        <time>2024-07-23T14:08:27Z</time>
      </trkpt>
      <trkpt lat="44.52586" lon="1.1253">
        <ele>257</ele>
        <time>2024-07-23T14:08:31Z</time>
      </trkpt>
      <trkpt lat="44.52577" lon="1.12549">
        <ele>256.8</ele>
        <time>2024-07-23T14:08:34Z</time>
      </trkpt>
      <trkpt lat="44.52575" lon="1.12555">
        <ele>256.6</ele>
        <time>2024-07-23T14:08:35Z</time>
      </trkpt>
      <trkpt lat="44.52572" lon="1.12561">
        <ele>256.6</ele>
        <time>2024-07-23T14:08:36Z</time>
      </trkpt>
      <trkpt lat="44.52569" lon="1.12568">
        <ele>256.6</ele>
        <time>2024-07-23T14:08:37Z</time>
      </trkpt>
      <trkpt lat="44.52559" lon="1.12589">
        <ele>256.4</ele>
        <time>2024-07-23T14:08:40Z</time>
      </trkpt>
      <trkpt lat="44.52557" lon="1.12596">
        <ele>256.4</ele>
        <time>2024-07-23T14:08:41Z</time>
      </trkpt>
      <trkpt lat="44.52555" lon="1.12602">
        <ele>256.2</ele>
        <time>2024-07-23T14:08:42Z</time>
      </trkpt>
      <trkpt lat="44.52553" lon="1.12608">
        <ele>256.2</ele>
        <time>2024-07-23T14:08:43Z</time>
      </trkpt>
      <trkpt lat="44.52551" lon="1.12614">
        <ele>256</ele>
        <time>2024-07-23T14:08:44Z</time>
      </trkpt>
      <trkpt lat="44.52549" lon="1.1262">
        <ele>256</ele>
        <time>2024-07-23T14:08:45Z</time>
      </trkpt>
      <trkpt lat="44.52547" lon="1.12626">
        <ele>255.8</ele>
        <time>2024-07-23T14:08:46Z</time>
      </trkpt>
      <trkpt lat="44.52532" lon="1.12668">
        <ele>255.4</ele>
        <time>2024-07-23T14:08:51Z</time>
      </trkpt>
      <trkpt lat="44.52522" lon="1.12691">
        <ele>255</ele>
        <time>2024-07-23T14:08:54Z</time>
      </trkpt>
      <trkpt lat="44.52515" lon="1.12711">
        <ele>254.6</ele>
        <time>2024-07-23T14:08:57Z</time>
      </trkpt>
      <trkpt lat="44.52513" lon="1.12717">
        <ele>254.6</ele>
        <time>2024-07-23T14:08:58Z</time>
      </trkpt>
      <trkpt lat="44.52511" lon="1.12721">
        <ele>254.4</ele>
        <time>2024-07-23T14:08:59Z</time>
      </trkpt>
      <trkpt lat="44.5251" lon="1.12727">
        <ele>254.2</ele>
        <time>2024-07-23T14:09:00Z</time>
      </trkpt>
      <trkpt lat="44.52509" lon="1.12733">
        <ele>254.2</ele>
        <time>2024-07-23T14:09:01Z</time>
      </trkpt>
      <trkpt lat="44.52508" lon="1.12738">
        <ele>253.8</ele>
        <time>2024-07-23T14:09:02Z</time>
      </trkpt>
      <trkpt lat="44.52507" lon="1.12758">
        <ele>253.4</ele>
        <time>2024-07-23T14:09:05Z</time>
      </trkpt>
      <trkpt lat="44.52505" lon="1.12791">
        <ele>252.8</ele>
        <time>2024-07-23T14:09:10Z</time>
      </trkpt>
      <trkpt lat="44.52504" lon="1.12799">
        <ele>252.4</ele>
        <time>2024-07-23T14:09:11Z</time>
      </trkpt>
      <trkpt lat="44.52503" lon="1.12806">
        <ele>252.2</ele>
        <time>2024-07-23T14:09:12Z</time>
      </trkpt>
      <trkpt lat="44.525" lon="1.12817">
        <ele>251.8</ele>
        <time>2024-07-23T14:09:14Z</time>
      </trkpt>
      <trkpt lat="44.52495" lon="1.12828">
        <ele>251.6</ele>
        <time>2024-07-23T14:09:16Z</time>
      </trkpt>
      <trkpt lat="44.52491" lon="1.12832">
        <ele>251.6</ele>
        <time>2024-07-23T14:09:17Z</time>
      </trkpt>
      <trkpt lat="44.52486" lon="1.12834">
        <ele>251.6</ele>
        <time>2024-07-23T14:09:18Z</time>
      </trkpt>
      <trkpt lat="44.52481" lon="1.12836">
        <ele>251.4</ele>
        <time>2024-07-23T14:09:19Z</time>
      </trkpt>
      <trkpt lat="44.52476" lon="1.12836">
        <ele>251.4</ele>
        <time>2024-07-23T14:09:20Z</time>
      </trkpt>
      <trkpt lat="44.52471" lon="1.12835">
        <ele>251.2</ele>
        <time>2024-07-23T14:09:21Z</time>
      </trkpt>
      <trkpt lat="44.52466" lon="1.12834">
        <ele>251</ele>
        <time>2024-07-23T14:09:22Z</time>
      </trkpt>
      <trkpt lat="44.52462" lon="1.12834">
        <ele>250.8</ele>
        <time>2024-07-23T14:09:23Z</time>
      </trkpt>
      <trkpt lat="44.52457" lon="1.12832">
        <ele>250.8</ele>
        <time>2024-07-23T14:09:24Z</time>
      </trkpt>
      <trkpt lat="44.52448" lon="1.12829">
        <ele>250.6</ele>
        <time>2024-07-23T14:09:26Z</time>
      </trkpt>
      <trkpt lat="44.52443" lon="1.12827">
        <ele>250.6</ele>
        <time>2024-07-23T14:09:27Z</time>
      </trkpt>
      <trkpt lat="44.52436" lon="1.12825">
        <ele>250.6</ele>
        <time>2024-07-23T14:09:29Z</time>
      </trkpt>
      <trkpt lat="44.52432" lon="1.12824">
        <ele>250.4</ele>
        <time>2024-07-23T14:09:30Z</time>
      </trkpt>
      <trkpt lat="44.52427" lon="1.12822">
        <ele>250.4</ele>
        <time>2024-07-23T14:09:31Z</time>
      </trkpt>
      <trkpt lat="44.52421" lon="1.1282">
        <ele>250.4</ele>
        <time>2024-07-23T14:09:32Z</time>
      </trkpt>
      <trkpt lat="44.52418" lon="1.12819">
        <ele>250.4</ele>
        <time>2024-07-23T14:09:33Z</time>
      </trkpt>
      <trkpt lat="44.52413" lon="1.12817">
        <ele>250.4</ele>
        <time>2024-07-23T14:09:34Z</time>
      </trkpt>
      <trkpt lat="44.52409" lon="1.12815">
        <ele>250.2</ele>
        <time>2024-07-23T14:09:35Z</time>
      </trkpt>
      <trkpt lat="44.52405" lon="1.12813">
        <ele>250.2</ele>
        <time>2024-07-23T14:09:36Z</time>
      </trkpt>
      <trkpt lat="44.524" lon="1.12812">
        <ele>250</ele>
        <time>2024-07-23T14:09:37Z</time>
      </trkpt>
      <trkpt lat="44.52386" lon="1.12807">
        <ele>249.6</ele>
        <time>2024-07-23T14:09:40Z</time>
      </trkpt>
      <trkpt lat="44.52372" lon="1.12805">
        <ele>249.2</ele>
        <time>2024-07-23T14:09:43Z</time>
      </trkpt>
      <trkpt lat="44.52352" lon="1.12803">
        <ele>248.8</ele>
        <time>2024-07-23T14:09:47Z</time>
      </trkpt>
      <trkpt lat="44.52349" lon="1.12802">
        <ele>248.8</ele>
        <time>2024-07-23T14:09:48Z</time>
      </trkpt>
      <trkpt lat="44.52346" lon="1.12803">
        <ele>248.8</ele>
        <time>2024-07-23T14:09:49Z</time>
      </trkpt>
      <trkpt lat="44.52345" lon="1.12803">
        <ele>248.6</ele>
        <time>2024-07-23T14:09:50Z</time>
      </trkpt>
      <trkpt lat="44.52344" lon="1.12804">
        <ele>248.4</ele>
        <time>2024-07-23T14:09:51Z</time>
      </trkpt>
      <trkpt lat="44.52345" lon="1.12806">
        <ele>248.4</ele>
        <time>2024-07-23T14:09:52Z</time>
      </trkpt>
      <trkpt lat="44.52349" lon="1.12807">
        <ele>248.2</ele>
        <time>2024-07-23T14:09:54Z</time>
      </trkpt>
      <trkpt lat="44.52355" lon="1.12808">
        <ele>248.2</ele>
        <time>2024-07-23T14:09:56Z</time>
      </trkpt>
      <trkpt lat="44.52357" lon="1.12808">
        <ele>248.2</ele>
        <time>2024-07-23T14:09:57Z</time>
      </trkpt>
      <trkpt lat="44.52376" lon="1.12811">
        <ele>248</ele>
        <time>2024-07-23T14:10:03Z</time>
      </trkpt>
      <trkpt lat="44.52379" lon="1.12812">
        <ele>248</ele>
        <time>2024-07-23T14:10:04Z</time>
      </trkpt>
      <trkpt lat="44.524" lon="1.12817">
        <ele>248.4</ele>
        <time>2024-07-23T14:10:10Z</time>
      </trkpt>
      <trkpt lat="44.52404" lon="1.12818">
        <ele>248.6</ele>
        <time>2024-07-23T14:10:11Z</time>
      </trkpt>
      <trkpt lat="44.52406" lon="1.12819">
        <ele>248.6</ele>
        <time>2024-07-23T14:10:12Z</time>
      </trkpt>
      <trkpt lat="44.52409" lon="1.12821">
        <ele>248.6</ele>
        <time>2024-07-23T14:10:13Z</time>
      </trkpt>
      <trkpt lat="44.52418" lon="1.12824">
        <ele>248.8</ele>
        <time>2024-07-23T14:10:16Z</time>
      </trkpt>
      <trkpt lat="44.52425" lon="1.12826">
        <ele>248.8</ele>
        <time>2024-07-23T14:10:18Z</time>
      </trkpt>
      <trkpt lat="44.52428" lon="1.12826">
        <ele>248.8</ele>
        <time>2024-07-23T14:10:19Z</time>
      </trkpt>
      <trkpt lat="44.52431" lon="1.12826">
        <ele>249</ele>
        <time>2024-07-23T14:10:20Z</time>
      </trkpt>
      <trkpt lat="44.52437" lon="1.12828">
        <ele>249</ele>
        <time>2024-07-23T14:10:22Z</time>
      </trkpt>
      <trkpt lat="44.52453" lon="1.12834">
        <ele>249.4</ele>
        <time>2024-07-23T14:10:27Z</time>
      </trkpt>
      <trkpt lat="44.52456" lon="1.12835">
        <ele>249.6</ele>
        <time>2024-07-23T14:10:28Z</time>
      </trkpt>
      <trkpt lat="44.52459" lon="1.12836">
        <ele>249.6</ele>
        <time>2024-07-23T14:10:29Z</time>
      </trkpt>
      <trkpt lat="44.52466" lon="1.12837">
        <ele>249.8</ele>
        <time>2024-07-23T14:10:31Z</time>
      </trkpt>
      <trkpt lat="44.52468" lon="1.12837">
        <ele>249.8</ele>
        <time>2024-07-23T14:10:32Z</time>
      </trkpt>
      <trkpt lat="44.52471" lon="1.12837">
        <ele>250</ele>
        <time>2024-07-23T14:10:33Z</time>
      </trkpt>
      <trkpt lat="44.52478" lon="1.12838">
        <ele>250</ele>
        <time>2024-07-23T14:10:35Z</time>
      </trkpt>
      <trkpt lat="44.52481" lon="1.12839">
        <ele>250</ele>
        <time>2024-07-23T14:10:36Z</time>
      </trkpt>
      <trkpt lat="44.52484" lon="1.12838">
        <ele>250.2</ele>
        <time>2024-07-23T14:10:37Z</time>
      </trkpt>
      <trkpt lat="44.52487" lon="1.12837">
        <ele>250.2</ele>
        <time>2024-07-23T14:10:38Z</time>
      </trkpt>
      <trkpt lat="44.52492" lon="1.12834">
        <ele>250.2</ele>
        <time>2024-07-23T14:10:40Z</time>
      </trkpt>
      <trkpt lat="44.52495" lon="1.12831">
        <ele>250</ele>
        <time>2024-07-23T14:10:41Z</time>
      </trkpt>
      <trkpt lat="44.52497" lon="1.12829">
        <ele>250.2</ele>
        <time>2024-07-23T14:10:42Z</time>
      </trkpt>
      <trkpt lat="44.52499" lon="1.12826">
        <ele>250.2</ele>
        <time>2024-07-23T14:10:43Z</time>
      </trkpt>
      <trkpt lat="44.52502" lon="1.1282">
        <ele>250.4</ele>
        <time>2024-07-23T14:10:45Z</time>
      </trkpt>
      <trkpt lat="44.52505" lon="1.12813">
        <ele>250.8</ele>
        <time>2024-07-23T14:10:47Z</time>
      </trkpt>
      <trkpt lat="44.52507" lon="1.1281">
        <ele>250.8</ele>
        <time>2024-07-23T14:10:48Z</time>
      </trkpt>
      <trkpt lat="44.52509" lon="1.12805">
        <ele>251</ele>
        <time>2024-07-23T14:10:50Z</time>
      </trkpt>
      <trkpt lat="44.52511" lon="1.12803">
        <ele>251.2</ele>
        <time>2024-07-23T14:10:51Z</time>
      </trkpt>
      <trkpt lat="44.52513" lon="1.12801">
        <ele>251.2</ele>
        <time>2024-07-23T14:10:52Z</time>
      </trkpt>
      <trkpt lat="44.52514" lon="1.12799">
        <ele>251.4</ele>
        <time>2024-07-23T14:10:53Z</time>
      </trkpt>
      <trkpt lat="44.52516" lon="1.12798">
        <ele>251.6</ele>
        <time>2024-07-23T14:10:54Z</time>
      </trkpt>
      <trkpt lat="44.52517" lon="1.12797">
        <ele>251.8</ele>
        <time>2024-07-23T14:10:55Z</time>
      </trkpt>
      <trkpt lat="44.52518" lon="1.12796">
        <ele>252.2</ele>
        <time>2024-07-23T14:10:56Z</time>
      </trkpt>
      <trkpt lat="44.52519" lon="1.12795">
        <ele>252.4</ele>
        <time>2024-07-23T14:10:57Z</time>
      </trkpt>
      <trkpt lat="44.5252" lon="1.12793">
        <ele>252.6</ele>
        <time>2024-07-23T14:10:58Z</time>
      </trkpt>
      <trkpt lat="44.52521" lon="1.12791">
        <ele>253</ele>
        <time>2024-07-23T14:10:59Z</time>
      </trkpt>
      <trkpt lat="44.52522" lon="1.1279">
        <ele>253.2</ele>
        <time>2024-07-23T14:11:00Z</time>
      </trkpt>
      <trkpt lat="44.52523" lon="1.12788">
        <ele>253.6</ele>
        <time>2024-07-23T14:11:01Z</time>
      </trkpt>
      <trkpt lat="44.52524" lon="1.12787">
        <ele>254.2</ele>
        <time>2024-07-23T14:11:02Z</time>
      </trkpt>
      <trkpt lat="44.52524" lon="1.12787">
        <ele>254.4</ele>
        <time>2024-07-23T14:11:03Z</time>
      </trkpt>
      <trkpt lat="44.52525" lon="1.12786">
        <ele>254.8</ele>
        <time>2024-07-23T14:11:04Z</time>
      </trkpt>
      <trkpt lat="44.52526" lon="1.12786">
        <ele>254.8</ele>
        <time>2024-07-23T14:11:05Z</time>
      </trkpt>
      <trkpt lat="44.52527" lon="1.12787">
        <ele>255</ele>
        <time>2024-07-23T14:11:06Z</time>
      </trkpt>
      <trkpt lat="44.52527" lon="1.12788">
        <ele>255.2</ele>
        <time>2024-07-23T14:11:07Z</time>
      </trkpt>
      <trkpt lat="44.52526" lon="1.12789">
        <ele>255.2</ele>
        <time>2024-07-23T14:11:08Z</time>
      </trkpt>
      <trkpt lat="44.52525" lon="1.1279">
        <ele>255.2</ele>
        <time>2024-07-23T14:11:09Z</time>
      </trkpt>
      <trkpt lat="44.52524" lon="1.12792">
        <ele>255.2</ele>
        <time>2024-07-23T14:11:10Z</time>
      </trkpt>
      <trkpt lat="44.52523" lon="1.12795">
        <ele>255.2</ele>
        <time>2024-07-23T14:11:11Z</time>
      </trkpt>
      <trkpt lat="44.52521" lon="1.12799">
        <ele>255.2</ele>
        <time>2024-07-23T14:11:12Z</time>
      </trkpt>
      <trkpt lat="44.5252" lon="1.12803">
        <ele>255.2</ele>
        <time>2024-07-23T14:11:13Z</time>
      </trkpt>
      <trkpt lat="44.52519" lon="1.12807">
        <ele>255.2</ele>
        <time>2024-07-23T14:11:14Z</time>
      </trkpt>
      <trkpt lat="44.52518" lon="1.12812">
        <ele>255.2</ele>
        <time>2024-07-23T14:11:15Z</time>
      </trkpt>
      <trkpt lat="44.52517" lon="1.12816">
        <ele>255.2</ele>
        <time>2024-07-23T14:11:16Z</time>
      </trkpt>
      <trkpt lat="44.52516" lon="1.12821">
        <ele>255.2</ele>
        <time>2024-07-23T14:11:17Z</time>
      </trkpt>
      <trkpt lat="44.52515" lon="1.12826">
        <ele>255.2</ele>
        <time>2024-07-23T14:11:18Z</time>
      </trkpt>
      <trkpt lat="44.52514" lon="1.1283">
        <ele>255.2</ele>
        <time>2024-07-23T14:11:19Z</time>
      </trkpt>
      <trkpt lat="44.52513" lon="1.12833">
        <ele>255.2</ele>
        <time>2024-07-23T14:11:20Z</time>
      </trkpt>
      <trkpt lat="44.52512" lon="1.12835">
        <ele>255</ele>
        <time>2024-07-23T14:11:21Z</time>
      </trkpt>
      <trkpt lat="44.5251" lon="1.12838">
        <ele>255</ele>
        <time>2024-07-23T14:11:22Z</time>
      </trkpt>
      <trkpt lat="44.52507" lon="1.12842">
        <ele>255</ele>
        <time>2024-07-23T14:11:23Z</time>
      </trkpt>
      <trkpt lat="44.52504" lon="1.12845">
        <ele>255</ele>
        <time>2024-07-23T14:11:24Z</time>
      </trkpt>
      <trkpt lat="44.52501" lon="1.12847">
        <ele>255</ele>
        <time>2024-07-23T14:11:25Z</time>
      </trkpt>
      <trkpt lat="44.525" lon="1.12849">
        <ele>255</ele>
        <time>2024-07-23T14:11:26Z</time>
      </trkpt>
      <trkpt lat="44.52498" lon="1.1285">
        <ele>255</ele>
        <time>2024-07-23T14:11:27Z</time>
      </trkpt>
      <trkpt lat="44.52495" lon="1.12851">
        <ele>254.8</ele>
        <time>2024-07-23T14:11:28Z</time>
      </trkpt>
      <trkpt lat="44.52494" lon="1.12853">
        <ele>254.8</ele>
        <time>2024-07-23T14:11:29Z</time>
      </trkpt>
      <trkpt lat="44.52491" lon="1.12855">
        <ele>255</ele>
        <time>2024-07-23T14:11:30Z</time>
      </trkpt>
      <trkpt lat="44.52485" lon="1.12857">
        <ele>255.2</ele>
        <time>2024-07-23T14:11:33Z</time>
      </trkpt>
      <trkpt lat="44.52483" lon="1.12857">
        <ele>255.4</ele>
        <time>2024-07-23T14:11:34Z</time>
      </trkpt>
      <trkpt lat="44.52481" lon="1.12857">
        <ele>255.4</ele>
        <time>2024-07-23T14:11:35Z</time>
      </trkpt>
      <trkpt lat="44.52479" lon="1.12858">
        <ele>255.4</ele>
        <time>2024-07-23T14:11:36Z</time>
      </trkpt>
      <trkpt lat="44.52478" lon="1.12859">
        <ele>255.6</ele>
        <time>2024-07-23T14:11:37Z</time>
      </trkpt>
      <trkpt lat="44.52476" lon="1.12861">
        <ele>255.8</ele>
        <time>2024-07-23T14:11:38Z</time>
      </trkpt>
      <trkpt lat="44.52474" lon="1.12862">
        <ele>255.8</ele>
        <time>2024-07-23T14:11:39Z</time>
      </trkpt>
      <trkpt lat="44.52471" lon="1.12863">
        <ele>256</ele>
        <time>2024-07-23T14:11:40Z</time>
      </trkpt>
      <trkpt lat="44.52468" lon="1.12864">
        <ele>256</ele>
        <time>2024-07-23T14:11:41Z</time>
      </trkpt>
      <trkpt lat="44.52466" lon="1.12865">
        <ele>256.2</ele>
        <time>2024-07-23T14:11:42Z</time>
      </trkpt>
      <trkpt lat="44.52463" lon="1.12865">
        <ele>256.2</ele>
        <time>2024-07-23T14:11:43Z</time>
      </trkpt>
      <trkpt lat="44.5246" lon="1.12866">
        <ele>256.2</ele>
        <time>2024-07-23T14:11:44Z</time>
      </trkpt>
      <trkpt lat="44.52443" lon="1.12873">
        <ele>256.8</ele>
        <time>2024-07-23T14:11:50Z</time>
      </trkpt>
      <trkpt lat="44.52441" lon="1.12874">
        <ele>257</ele>
        <time>2024-07-23T14:11:51Z</time>
      </trkpt>
      <trkpt lat="44.52438" lon="1.12875">
        <ele>257</ele>
        <time>2024-07-23T14:11:52Z</time>
      </trkpt>
      <trkpt lat="44.52434" lon="1.12874">
        <ele>257</ele>
        <time>2024-07-23T14:11:53Z</time>
      </trkpt>
      <trkpt lat="44.52431" lon="1.12874">
        <ele>257</ele>
        <time>2024-07-23T14:11:54Z</time>
      </trkpt>
      <trkpt lat="44.52429" lon="1.12874">
        <ele>257.2</ele>
        <time>2024-07-23T14:11:55Z</time>
      </trkpt>
      <trkpt lat="44.52426" lon="1.12874">
        <ele>257.4</ele>
        <time>2024-07-23T14:11:56Z</time>
      </trkpt>
      <trkpt lat="44.52423" lon="1.12875">
        <ele>257.6</ele>
        <time>2024-07-23T14:11:57Z</time>
      </trkpt>
      <trkpt lat="44.5242" lon="1.12876">
        <ele>257.6</ele>
        <time>2024-07-23T14:11:58Z</time>
      </trkpt>
      <trkpt lat="44.52413" lon="1.12878">
        <ele>258.2</ele>
        <time>2024-07-23T14:12:01Z</time>
      </trkpt>
      <trkpt lat="44.52409" lon="1.12881">
        <ele>258.4</ele>
        <time>2024-07-23T14:12:02Z</time>
      </trkpt>
      <trkpt lat="44.524" lon="1.12883">
        <ele>259</ele>
        <time>2024-07-23T14:12:05Z</time>
      </trkpt>
      <trkpt lat="44.52398" lon="1.12884">
        <ele>259.2</ele>
        <time>2024-07-23T14:12:06Z</time>
      </trkpt>
      <trkpt lat="44.52395" lon="1.12885">
        <ele>259.6</ele>
        <time>2024-07-23T14:12:07Z</time>
      </trkpt>
      <trkpt lat="44.52392" lon="1.12886">
        <ele>259.8</ele>
        <time>2024-07-23T14:12:08Z</time>
      </trkpt>
      <trkpt lat="44.5239" lon="1.12887">
        <ele>260</ele>
        <time>2024-07-23T14:12:09Z</time>
      </trkpt>
      <trkpt lat="44.52388" lon="1.12887">
        <ele>260.2</ele>
        <time>2024-07-23T14:12:10Z</time>
      </trkpt>
      <trkpt lat="44.52386" lon="1.12888">
        <ele>260.4</ele>
        <time>2024-07-23T14:12:11Z</time>
      </trkpt>
      <trkpt lat="44.52384" lon="1.1289">
        <ele>260.4</ele>
        <time>2024-07-23T14:12:12Z</time>
      </trkpt>
      <trkpt lat="44.52381" lon="1.12892">
        <ele>260.6</ele>
        <time>2024-07-23T14:12:13Z</time>
      </trkpt>
      <trkpt lat="44.52379" lon="1.12893">
        <ele>260.8</ele>
        <time>2024-07-23T14:12:14Z</time>
      </trkpt>
      <trkpt lat="44.52375" lon="1.12895">
        <ele>260.8</ele>
        <time>2024-07-23T14:12:15Z</time>
      </trkpt>
      <trkpt lat="44.52374" lon="1.12896">
        <ele>261</ele>
        <time>2024-07-23T14:12:16Z</time>
      </trkpt>
      <trkpt lat="44.52371" lon="1.12899">
        <ele>261</ele>
        <time>2024-07-23T14:12:17Z</time>
      </trkpt>
      <trkpt lat="44.52369" lon="1.12902">
        <ele>261.4</ele>
        <time>2024-07-23T14:12:18Z</time>
      </trkpt>
      <trkpt lat="44.52366" lon="1.12904">
        <ele>261.6</ele>
        <time>2024-07-23T14:12:19Z</time>
      </trkpt>
      <trkpt lat="44.52365" lon="1.12904">
        <ele>261.8</ele>
        <time>2024-07-23T14:12:20Z</time>
      </trkpt>
      <trkpt lat="44.52363" lon="1.12905">
        <ele>262</ele>
        <time>2024-07-23T14:12:21Z</time>
      </trkpt>
      <trkpt lat="44.5236" lon="1.12908">
        <ele>262</ele>
        <time>2024-07-23T14:12:22Z</time>
      </trkpt>
      <trkpt lat="44.52357" lon="1.12911">
        <ele>262.2</ele>
        <time>2024-07-23T14:12:23Z</time>
      </trkpt>
      <trkpt lat="44.52355" lon="1.12911">
        <ele>262.2</ele>
        <time>2024-07-23T14:12:24Z</time>
      </trkpt>
      <trkpt lat="44.52354" lon="1.1291">
        <ele>262.2</ele>
        <time>2024-07-23T14:12:25Z</time>
      </trkpt>
      <trkpt lat="44.52353" lon="1.1291">
        <ele>262.4</ele>
        <time>2024-07-23T14:12:26Z</time>
      </trkpt>
      <trkpt lat="44.52351" lon="1.1291">
        <ele>262.4</ele>
        <time>2024-07-23T14:12:27Z</time>
      </trkpt>
      <trkpt lat="44.5235" lon="1.1291">
        <ele>262.4</ele>
        <time>2024-07-23T14:12:28Z</time>
      </trkpt>
      <trkpt lat="44.52348" lon="1.12911">
        <ele>262.4</ele>
        <time>2024-07-23T14:12:29Z</time>
      </trkpt>
      <trkpt lat="44.52346" lon="1.12911">
        <ele>262.4</ele>
        <time>2024-07-23T14:12:30Z</time>
      </trkpt>
      <trkpt lat="44.52344" lon="1.12912">
        <ele>262.4</ele>
        <time>2024-07-23T14:12:31Z</time>
      </trkpt>
      <trkpt lat="44.52341" lon="1.12913">
        <ele>262.4</ele>
        <time>2024-07-23T14:12:32Z</time>
      </trkpt>
      <trkpt lat="44.52338" lon="1.12914">
        <ele>262.4</ele>
        <time>2024-07-23T14:12:33Z</time>
      </trkpt>
      <trkpt lat="44.52335" lon="1.12915">
        <ele>262.4</ele>
        <time>2024-07-23T14:12:34Z</time>
      </trkpt>
      <trkpt lat="44.52331" lon="1.12916">
        <ele>262.4</ele>
        <time>2024-07-23T14:12:35Z</time>
      </trkpt>
      <trkpt lat="44.52327" lon="1.12917">
        <ele>262.4</ele>
        <time>2024-07-23T14:12:36Z</time>
      </trkpt>
      <trkpt lat="44.52324" lon="1.12918">
        <ele>262.4</ele>
        <time>2024-07-23T14:12:37Z</time>
      </trkpt>
      <trkpt lat="44.5232" lon="1.12919">
        <ele>262.4</ele>
        <time>2024-07-23T14:12:38Z</time>
      </trkpt>
      <trkpt lat="44.52305" lon="1.12922">
        <ele>262.2</ele>
        <time>2024-07-23T14:12:41Z</time>
      </trkpt>
      <trkpt lat="44.52293" lon="1.12926">
        <ele>261.8</ele>
        <time>2024-07-23T14:12:43Z</time>
      </trkpt>
      <trkpt lat="44.52273" lon="1.12935">
        <ele>261.2</ele>
        <time>2024-07-23T14:12:46Z</time>
      </trkpt>
      <trkpt lat="44.52267" lon="1.12937">
        <ele>261.2</ele>
        <time>2024-07-23T14:12:47Z</time>
      </trkpt>
      <trkpt lat="44.52238" lon="1.1295">
        <ele>260.4</ele>
        <time>2024-07-23T14:12:52Z</time>
      </trkpt>
      <trkpt lat="44.52233" lon="1.12955">
        <ele>260.2</ele>
        <time>2024-07-23T14:12:53Z</time>
      </trkpt>
      <trkpt lat="44.52227" lon="1.12958">
        <ele>259.6</ele>
        <time>2024-07-23T14:12:54Z</time>
      </trkpt>
      <trkpt lat="44.52216" lon="1.12963">
        <ele>259.2</ele>
        <time>2024-07-23T14:12:56Z</time>
      </trkpt>
      <trkpt lat="44.5221" lon="1.12965">
        <ele>259</ele>
        <time>2024-07-23T14:12:57Z</time>
      </trkpt>
      <trkpt lat="44.52205" lon="1.12968">
        <ele>259</ele>
        <time>2024-07-23T14:12:58Z</time>
      </trkpt>
      <trkpt lat="44.52199" lon="1.12974">
        <ele>258.8</ele>
        <time>2024-07-23T14:12:59Z</time>
      </trkpt>
      <trkpt lat="44.52194" lon="1.12979">
        <ele>258.8</ele>
        <time>2024-07-23T14:13:00Z</time>
      </trkpt>
      <trkpt lat="44.52185" lon="1.12985">
        <ele>258.8</ele>
        <time>2024-07-23T14:13:02Z</time>
      </trkpt>
      <trkpt lat="44.52181" lon="1.12988">
        <ele>258.8</ele>
        <time>2024-07-23T14:13:03Z</time>
      </trkpt>
      <trkpt lat="44.52176" lon="1.1299">
        <ele>258.6</ele>
        <time>2024-07-23T14:13:04Z</time>
      </trkpt>
      <trkpt lat="44.52171" lon="1.12992">
        <ele>258.4</ele>
        <time>2024-07-23T14:13:05Z</time>
      </trkpt>
      <trkpt lat="44.52166" lon="1.12992">
        <ele>258.4</ele>
        <time>2024-07-23T14:13:06Z</time>
      </trkpt>
      <trkpt lat="44.52157" lon="1.12993">
        <ele>258.2</ele>
        <time>2024-07-23T14:13:08Z</time>
      </trkpt>
      <trkpt lat="44.52153" lon="1.12995">
        <ele>258.2</ele>
        <time>2024-07-23T14:13:09Z</time>
      </trkpt>
      <trkpt lat="44.5215" lon="1.12997">
        <ele>258</ele>
        <time>2024-07-23T14:13:10Z</time>
      </trkpt>
      <trkpt lat="44.52145" lon="1.12999">
        <ele>258</ele>
        <time>2024-07-23T14:13:11Z</time>
      </trkpt>
      <trkpt lat="44.52142" lon="1.12999">
        <ele>258</ele>
        <time>2024-07-23T14:13:12Z</time>
      </trkpt>
      <trkpt lat="44.52137" lon="1.13001">
        <ele>258.2</ele>
        <time>2024-07-23T14:13:13Z</time>
      </trkpt>
      <trkpt lat="44.52132" lon="1.13003">
        <ele>258.2</ele>
        <time>2024-07-23T14:13:14Z</time>
      </trkpt>
      <trkpt lat="44.52129" lon="1.13006">
        <ele>258.2</ele>
        <time>2024-07-23T14:13:15Z</time>
      </trkpt>
      <trkpt lat="44.52109" lon="1.13012">
        <ele>258</ele>
        <time>2024-07-23T14:13:19Z</time>
      </trkpt>
      <trkpt lat="44.52105" lon="1.13014">
        <ele>257.8</ele>
        <time>2024-07-23T14:13:20Z</time>
      </trkpt>
      <trkpt lat="44.52097" lon="1.13018">
        <ele>257.6</ele>
        <time>2024-07-23T14:13:22Z</time>
      </trkpt>
      <trkpt lat="44.52088" lon="1.13022">
        <ele>257.4</ele>
        <time>2024-07-23T14:13:24Z</time>
      </trkpt>
      <trkpt lat="44.52084" lon="1.13024">
        <ele>257.4</ele>
        <time>2024-07-23T14:13:25Z</time>
      </trkpt>
      <trkpt lat="44.52079" lon="1.13024">
        <ele>257.2</ele>
        <time>2024-07-23T14:13:26Z</time>
      </trkpt>
      <trkpt lat="44.52069" lon="1.13028">
        <ele>257</ele>
        <time>2024-07-23T14:13:28Z</time>
      </trkpt>
      <trkpt lat="44.52054" lon="1.13033">
        <ele>256.6</ele>
        <time>2024-07-23T14:13:31Z</time>
      </trkpt>
      <trkpt lat="44.5205" lon="1.13035">
        <ele>256.4</ele>
        <time>2024-07-23T14:13:32Z</time>
      </trkpt>
      <trkpt lat="44.5204" lon="1.13038">
        <ele>256</ele>
        <time>2024-07-23T14:13:34Z</time>
      </trkpt>
      <trkpt lat="44.52023" lon="1.13043">
        <ele>255</ele>
        <time>2024-07-23T14:13:37Z</time>
      </trkpt>
      <trkpt lat="44.52017" lon="1.13043">
        <ele>254.2</ele>
        <time>2024-07-23T14:13:38Z</time>
      </trkpt>
      <trkpt lat="44.5201" lon="1.13044">
        <ele>254</ele>
        <time>2024-07-23T14:13:39Z</time>
      </trkpt>
      <trkpt lat="44.52004" lon="1.13045">
        <ele>253.2</ele>
        <time>2024-07-23T14:13:40Z</time>
      </trkpt>
      <trkpt lat="44.52" lon="1.13045">
        <ele>253</ele>
        <time>2024-07-23T14:13:41Z</time>
      </trkpt>
      <trkpt lat="44.51998" lon="1.13045">
        <ele>252.4</ele>
        <time>2024-07-23T14:13:42Z</time>
      </trkpt>
      <trkpt lat="44.51996" lon="1.13045">
        <ele>251</ele>
        <time>2024-07-23T14:13:43Z</time>
      </trkpt>
      <trkpt lat="44.51993" lon="1.13045">
        <ele>250.4</ele>
        <time>2024-07-23T14:13:44Z</time>
      </trkpt>
      <trkpt lat="44.5199" lon="1.13046">
        <ele>249.6</ele>
        <time>2024-07-23T14:13:45Z</time>
      </trkpt>
      <trkpt lat="44.51985" lon="1.13046">
        <ele>248.2</ele>
        <time>2024-07-23T14:13:47Z</time>
      </trkpt>
      <trkpt lat="44.51981" lon="1.13045">
        <ele>248</ele>
        <time>2024-07-23T14:13:48Z</time>
      </trkpt>
      <trkpt lat="44.51975" lon="1.13044">
        <ele>247.2</ele>
        <time>2024-07-23T14:13:50Z</time>
      </trkpt>
      <trkpt lat="44.51973" lon="1.13043">
        <ele>246.8</ele>
        <time>2024-07-23T14:13:51Z</time>
      </trkpt>
      <trkpt lat="44.5197" lon="1.13042">
        <ele>246.6</ele>
        <time>2024-07-23T14:13:52Z</time>
      </trkpt>
      <trkpt lat="44.51963" lon="1.1304">
        <ele>246</ele>
        <time>2024-07-23T14:13:54Z</time>
      </trkpt>
      <trkpt lat="44.51958" lon="1.1304">
        <ele>245.6</ele>
        <time>2024-07-23T14:13:55Z</time>
      </trkpt>
      <trkpt lat="44.51942" lon="1.13033">
        <ele>244.8</ele>
        <time>2024-07-23T14:13:59Z</time>
      </trkpt>
      <trkpt lat="44.51935" lon="1.13029">
        <ele>244.4</ele>
        <time>2024-07-23T14:14:01Z</time>
      </trkpt>
      <trkpt lat="44.51921" lon="1.13025">
        <ele>243.8</ele>
        <time>2024-07-23T14:14:04Z</time>
      </trkpt>
      <trkpt lat="44.51917" lon="1.13023">
        <ele>243.6</ele>
        <time>2024-07-23T14:14:05Z</time>
      </trkpt>
      <trkpt lat="44.51911" lon="1.13021">
        <ele>243.2</ele>
        <time>2024-07-23T14:14:06Z</time>
      </trkpt>
      <trkpt lat="44.51898" lon="1.13018">
        <ele>242.6</ele>
        <time>2024-07-23T14:14:08Z</time>
      </trkpt>
      <trkpt lat="44.51891" lon="1.13018">
        <ele>242.4</ele>
        <time>2024-07-23T14:14:09Z</time>
      </trkpt>
      <trkpt lat="44.51878" lon="1.1302">
        <ele>242</ele>
        <time>2024-07-23T14:14:11Z</time>
      </trkpt>
      <trkpt lat="44.51872" lon="1.13023">
        <ele>242</ele>
        <time>2024-07-23T14:14:12Z</time>
      </trkpt>
      <trkpt lat="44.51867" lon="1.13025">
        <ele>241.2</ele>
        <time>2024-07-23T14:14:13Z</time>
      </trkpt>
      <trkpt lat="44.51863" lon="1.13028">
        <ele>240.6</ele>
        <time>2024-07-23T14:14:14Z</time>
      </trkpt>
      <trkpt lat="44.51859" lon="1.13032">
        <ele>240.4</ele>
        <time>2024-07-23T14:14:15Z</time>
      </trkpt>
      <trkpt lat="44.51855" lon="1.13036">
        <ele>239.8</ele>
        <time>2024-07-23T14:14:16Z</time>
      </trkpt>
      <trkpt lat="44.51839" lon="1.13048">
        <ele>238.6</ele>
        <time>2024-07-23T14:14:19Z</time>
      </trkpt>
      <trkpt lat="44.51829" lon="1.13056">
        <ele>237.8</ele>
        <time>2024-07-23T14:14:21Z</time>
      </trkpt>
      <trkpt lat="44.51819" lon="1.13063">
        <ele>237.2</ele>
        <time>2024-07-23T14:14:23Z</time>
      </trkpt>
      <trkpt lat="44.51792" lon="1.13085">
        <ele>236</ele>
        <time>2024-07-23T14:14:27Z</time>
      </trkpt>
      <trkpt lat="44.51774" lon="1.13094">
        <ele>235.4</ele>
        <time>2024-07-23T14:14:30Z</time>
      </trkpt>
      <trkpt lat="44.5177" lon="1.13095">
        <ele>235</ele>
        <time>2024-07-23T14:14:31Z</time>
      </trkpt>
      <trkpt lat="44.51768" lon="1.13096">
        <ele>234.8</ele>
        <time>2024-07-23T14:14:32Z</time>
      </trkpt>
      <trkpt lat="44.51766" lon="1.13096">
        <ele>234.6</ele>
        <time>2024-07-23T14:14:33Z</time>
      </trkpt>
      <trkpt lat="44.51765" lon="1.13096">
        <ele>234.2</ele>
        <time>2024-07-23T14:14:34Z</time>
      </trkpt>
      <trkpt lat="44.51764" lon="1.13096">
        <ele>233.6</ele>
        <time>2024-07-23T14:14:35Z</time>
      </trkpt>
      <trkpt lat="44.51762" lon="1.13096">
        <ele>233.2</ele>
        <time>2024-07-23T14:14:36Z</time>
      </trkpt>
      <trkpt lat="44.51759" lon="1.13097">
        <ele>232.6</ele>
        <time>2024-07-23T14:14:38Z</time>
      </trkpt>
      <trkpt lat="44.51754" lon="1.13103">
        <ele>232</ele>
        <time>2024-07-23T14:14:40Z</time>
      </trkpt>
      <trkpt lat="44.51753" lon="1.13107">
        <ele>232</ele>
        <time>2024-07-23T14:14:41Z</time>
      </trkpt>
      <trkpt lat="44.51752" lon="1.13113">
        <ele>231.8</ele>
        <time>2024-07-23T14:14:42Z</time>
      </trkpt>
      <trkpt lat="44.5175" lon="1.13117">
        <ele>231.6</ele>
        <time>2024-07-23T14:14:43Z</time>
      </trkpt>
      <trkpt lat="44.51746" lon="1.13123">
        <ele>231.6</ele>
        <time>2024-07-23T14:14:45Z</time>
      </trkpt>
      <trkpt lat="44.51744" lon="1.13125">
        <ele>231.6</ele>
        <time>2024-07-23T14:14:46Z</time>
      </trkpt>
      <trkpt lat="44.51743" lon="1.13126">
        <ele>231.6</ele>
        <time>2024-07-23T14:14:47Z</time>
      </trkpt>
      <trkpt lat="44.5174" lon="1.13127">
        <ele>231.6</ele>
        <time>2024-07-23T14:14:48Z</time>
      </trkpt>
      <trkpt lat="44.51734" lon="1.13127">
        <ele>231.6</ele>
        <time>2024-07-23T14:14:50Z</time>
      </trkpt>
      <trkpt lat="44.51728" lon="1.13127">
        <ele>231.8</ele>
        <time>2024-07-23T14:14:52Z</time>
      </trkpt>
      <trkpt lat="44.51725" lon="1.13126">
        <ele>231.8</ele>
        <time>2024-07-23T14:14:53Z</time>
      </trkpt>
      <trkpt lat="44.51722" lon="1.13126">
        <ele>232</ele>
        <time>2024-07-23T14:14:54Z</time>
      </trkpt>
      <trkpt lat="44.51719" lon="1.13126">
        <ele>232</ele>
        <time>2024-07-23T14:14:55Z</time>
      </trkpt>
      <trkpt lat="44.51703" lon="1.13124">
        <ele>232.4</ele>
        <time>2024-07-23T14:15:00Z</time>
      </trkpt>
      <trkpt lat="44.517" lon="1.13124">
        <ele>232.8</ele>
        <time>2024-07-23T14:15:01Z</time>
      </trkpt>
      <trkpt lat="44.51697" lon="1.13124">
        <ele>233.2</ele>
        <time>2024-07-23T14:15:02Z</time>
      </trkpt>
      <trkpt lat="44.51695" lon="1.13124">
        <ele>233.4</ele>
        <time>2024-07-23T14:15:03Z</time>
      </trkpt>
      <trkpt lat="44.51691" lon="1.13124">
        <ele>233.8</ele>
        <time>2024-07-23T14:15:04Z</time>
      </trkpt>
      <trkpt lat="44.51688" lon="1.13123">
        <ele>234</ele>
        <time>2024-07-23T14:15:05Z</time>
      </trkpt>
      <trkpt lat="44.51685" lon="1.13123">
        <ele>234.2</ele>
        <time>2024-07-23T14:15:06Z</time>
      </trkpt>
      <trkpt lat="44.51682" lon="1.13122">
        <ele>234.4</ele>
        <time>2024-07-23T14:15:07Z</time>
      </trkpt>
      <trkpt lat="44.51679" lon="1.13122">
        <ele>234.4</ele>
        <time>2024-07-23T14:15:08Z</time>
      </trkpt>
      <trkpt lat="44.51675" lon="1.13123">
        <ele>234.4</ele>
        <time>2024-07-23T14:15:09Z</time>
      </trkpt>
      <trkpt lat="44.51672" lon="1.13123">
        <ele>234.4</ele>
        <time>2024-07-23T14:15:10Z</time>
      </trkpt>
      <trkpt lat="44.51669" lon="1.13122">
        <ele>234.4</ele>
        <time>2024-07-23T14:15:11Z</time>
      </trkpt>
      <trkpt lat="44.51663" lon="1.13123">
        <ele>234.4</ele>
        <time>2024-07-23T14:15:13Z</time>
      </trkpt>
      <trkpt lat="44.5166" lon="1.13123">
        <ele>234.6</ele>
        <time>2024-07-23T14:15:14Z</time>
      </trkpt>
      <trkpt lat="44.51643" lon="1.13125">
        <ele>234.6</ele>
        <time>2024-07-23T14:15:19Z</time>
      </trkpt>
      <trkpt lat="44.51639" lon="1.13126">
        <ele>234.6</ele>
        <time>2024-07-23T14:15:20Z</time>
      </trkpt>
      <trkpt lat="44.51611" lon="1.13137">
        <ele>234.2</ele>
        <time>2024-07-23T14:15:26Z</time>
      </trkpt>
      <trkpt lat="44.51578" lon="1.13147">
        <ele>233.8</ele>
        <time>2024-07-23T14:15:33Z</time>
      </trkpt>
      <trkpt lat="44.51574" lon="1.13147">
        <ele>233.8</ele>
        <time>2024-07-23T14:15:34Z</time>
      </trkpt>
      <trkpt lat="44.51562" lon="1.13149">
        <ele>233.4</ele>
        <time>2024-07-23T14:15:37Z</time>
      </trkpt>
      <trkpt lat="44.51559" lon="1.1315">
        <ele>233.4</ele>
        <time>2024-07-23T14:15:38Z</time>
      </trkpt>
      <trkpt lat="44.51555" lon="1.1315">
        <ele>233.2</ele>
        <time>2024-07-23T14:15:39Z</time>
      </trkpt>
      <trkpt lat="44.51552" lon="1.13152">
        <ele>232.8</ele>
        <time>2024-07-23T14:15:40Z</time>
      </trkpt>
      <trkpt lat="44.51547" lon="1.13155">
        <ele>232.8</ele>
        <time>2024-07-23T14:15:41Z</time>
      </trkpt>
      <trkpt lat="44.51537" lon="1.13164">
        <ele>232.4</ele>
        <time>2024-07-23T14:15:43Z</time>
      </trkpt>
      <trkpt lat="44.51533" lon="1.13169">
        <ele>232.2</ele>
        <time>2024-07-23T14:15:44Z</time>
      </trkpt>
      <trkpt lat="44.51524" lon="1.13175">
        <ele>232</ele>
        <time>2024-07-23T14:15:45Z</time>
      </trkpt>
      <trkpt lat="44.51517" lon="1.13182">
        <ele>231.8</ele>
        <time>2024-07-23T14:15:46Z</time>
      </trkpt>
      <trkpt lat="44.51503" lon="1.13194">
        <ele>231</ele>
        <time>2024-07-23T14:15:48Z</time>
      </trkpt>
      <trkpt lat="44.51496" lon="1.13199">
        <ele>230.6</ele>
        <time>2024-07-23T14:15:49Z</time>
      </trkpt>
      <trkpt lat="44.51481" lon="1.13209">
        <ele>229.4</ele>
        <time>2024-07-23T14:15:51Z</time>
      </trkpt>
      <trkpt lat="44.51466" lon="1.13221">
        <ele>228.8</ele>
        <time>2024-07-23T14:15:53Z</time>
      </trkpt>
      <trkpt lat="44.51457" lon="1.13227">
        <ele>227.8</ele>
        <time>2024-07-23T14:15:54Z</time>
      </trkpt>
      <trkpt lat="44.5144" lon="1.13239">
        <ele>226.4</ele>
        <time>2024-07-23T14:15:56Z</time>
      </trkpt>
      <trkpt lat="44.51431" lon="1.13246">
        <ele>225.2</ele>
        <time>2024-07-23T14:15:57Z</time>
      </trkpt>
      <trkpt lat="44.51412" lon="1.13258">
        <ele>223.4</ele>
        <time>2024-07-23T14:15:59Z</time>
      </trkpt>
      <trkpt lat="44.51403" lon="1.13264">
        <ele>223</ele>
        <time>2024-07-23T14:16:00Z</time>
      </trkpt>
      <trkpt lat="44.51394" lon="1.1327">
        <ele>222.4</ele>
        <time>2024-07-23T14:16:01Z</time>
      </trkpt>
      <trkpt lat="44.51375" lon="1.13283">
        <ele>221.2</ele>
        <time>2024-07-23T14:16:03Z</time>
      </trkpt>
      <trkpt lat="44.51357" lon="1.13297">
        <ele>220</ele>
        <time>2024-07-23T14:16:05Z</time>
      </trkpt>
      <trkpt lat="44.51339" lon="1.13314">
        <ele>218.6</ele>
        <time>2024-07-23T14:16:07Z</time>
      </trkpt>
      <trkpt lat="44.5133" lon="1.13323">
        <ele>217.6</ele>
        <time>2024-07-23T14:16:08Z</time>
      </trkpt>
      <trkpt lat="44.51314" lon="1.13342">
        <ele>216.4</ele>
        <time>2024-07-23T14:16:10Z</time>
      </trkpt>
      <trkpt lat="44.51298" lon="1.13362">
        <ele>215</ele>
        <time>2024-07-23T14:16:12Z</time>
      </trkpt>
      <trkpt lat="44.51282" lon="1.13383">
        <ele>213.2</ele>
        <time>2024-07-23T14:16:14Z</time>
      </trkpt>
      <trkpt lat="44.51268" lon="1.13404">
        <ele>211.6</ele>
        <time>2024-07-23T14:16:16Z</time>
      </trkpt>
      <trkpt lat="44.51261" lon="1.13414">
        <ele>211</ele>
        <time>2024-07-23T14:16:17Z</time>
      </trkpt>
      <trkpt lat="44.51256" lon="1.13426">
        <ele>209.8</ele>
        <time>2024-07-23T14:16:18Z</time>
      </trkpt>
      <trkpt lat="44.51251" lon="1.13438">
        <ele>209.4</ele>
        <time>2024-07-23T14:16:19Z</time>
      </trkpt>
      <trkpt lat="44.51248" lon="1.13452">
        <ele>208.8</ele>
        <time>2024-07-23T14:16:20Z</time>
      </trkpt>
      <trkpt lat="44.51244" lon="1.13465">
        <ele>207.8</ele>
        <time>2024-07-23T14:16:21Z</time>
      </trkpt>
      <trkpt lat="44.5124" lon="1.13478">
        <ele>207.4</ele>
        <time>2024-07-23T14:16:22Z</time>
      </trkpt>
      <trkpt lat="44.51237" lon="1.13491">
        <ele>206.4</ele>
        <time>2024-07-23T14:16:23Z</time>
      </trkpt>
      <trkpt lat="44.51233" lon="1.13503">
        <ele>206</ele>
        <time>2024-07-23T14:16:24Z</time>
      </trkpt>
      <trkpt lat="44.5123" lon="1.13516">
        <ele>205.4</ele>
        <time>2024-07-23T14:16:25Z</time>
      </trkpt>
      <trkpt lat="44.51228" lon="1.13529">
        <ele>204.4</ele>
        <time>2024-07-23T14:16:26Z</time>
      </trkpt>
      <trkpt lat="44.51225" lon="1.13542">
        <ele>204.4</ele>
        <time>2024-07-23T14:16:27Z</time>
      </trkpt>
      <trkpt lat="44.51222" lon="1.13555">
        <ele>203.6</ele>
        <time>2024-07-23T14:16:28Z</time>
      </trkpt>
      <trkpt lat="44.51217" lon="1.13566">
        <ele>203</ele>
        <time>2024-07-23T14:16:29Z</time>
      </trkpt>
      <trkpt lat="44.51211" lon="1.13576">
        <ele>202.6</ele>
        <time>2024-07-23T14:16:30Z</time>
      </trkpt>
      <trkpt lat="44.51204" lon="1.13586">
        <ele>202.2</ele>
        <time>2024-07-23T14:16:31Z</time>
      </trkpt>
      <trkpt lat="44.5119" lon="1.13606">
        <ele>200.6</ele>
        <time>2024-07-23T14:16:33Z</time>
      </trkpt>
      <trkpt lat="44.51167" lon="1.13635">
        <ele>199.4</ele>
        <time>2024-07-23T14:16:36Z</time>
      </trkpt>
      <trkpt lat="44.51154" lon="1.13653">
        <ele>197.6</ele>
        <time>2024-07-23T14:16:38Z</time>
      </trkpt>
      <trkpt lat="44.51148" lon="1.13663">
        <ele>197.2</ele>
        <time>2024-07-23T14:16:39Z</time>
      </trkpt>
      <trkpt lat="44.51143" lon="1.13674">
        <ele>196.6</ele>
        <time>2024-07-23T14:16:40Z</time>
      </trkpt>
      <trkpt lat="44.51138" lon="1.13684">
        <ele>196</ele>
        <time>2024-07-23T14:16:41Z</time>
      </trkpt>
      <trkpt lat="44.51134" lon="1.13695">
        <ele>195.2</ele>
        <time>2024-07-23T14:16:42Z</time>
      </trkpt>
      <trkpt lat="44.51127" lon="1.13717">
        <ele>194.2</ele>
        <time>2024-07-23T14:16:44Z</time>
      </trkpt>
      <trkpt lat="44.51124" lon="1.13728">
        <ele>193.6</ele>
        <time>2024-07-23T14:16:45Z</time>
      </trkpt>
      <trkpt lat="44.51121" lon="1.13738">
        <ele>193.4</ele>
        <time>2024-07-23T14:16:46Z</time>
      </trkpt>
      <trkpt lat="44.51119" lon="1.13747">
        <ele>193.2</ele>
        <time>2024-07-23T14:16:47Z</time>
      </trkpt>
      <trkpt lat="44.51117" lon="1.13755">
        <ele>192.8</ele>
        <time>2024-07-23T14:16:48Z</time>
      </trkpt>
      <trkpt lat="44.51116" lon="1.13761">
        <ele>192.4</ele>
        <time>2024-07-23T14:16:49Z</time>
      </trkpt>
      <trkpt lat="44.51115" lon="1.13767">
        <ele>191.8</ele>
        <time>2024-07-23T14:16:50Z</time>
      </trkpt>
      <trkpt lat="44.51114" lon="1.1377">
        <ele>191.6</ele>
        <time>2024-07-23T14:16:51Z</time>
      </trkpt>
      <trkpt lat="44.51114" lon="1.13773">
        <ele>190.6</ele>
        <time>2024-07-23T14:16:52Z</time>
      </trkpt>
      <trkpt lat="44.51113" lon="1.13774">
        <ele>190.2</ele>
        <time>2024-07-23T14:16:53Z</time>
      </trkpt>
      <trkpt lat="44.51113" lon="1.13777">
        <ele>189.6</ele>
        <time>2024-07-23T14:16:54Z</time>
      </trkpt>
      <trkpt lat="44.51111" lon="1.13786">
        <ele>188.8</ele>
        <time>2024-07-23T14:16:57Z</time>
      </trkpt>
      <trkpt lat="44.51109" lon="1.13788">
        <ele>188.6</ele>
        <time>2024-07-23T14:16:58Z</time>
      </trkpt>
      <trkpt lat="44.51107" lon="1.13791">
        <ele>188.2</ele>
        <time>2024-07-23T14:16:59Z</time>
      </trkpt>
      <trkpt lat="44.51106" lon="1.13793">
        <ele>188.2</ele>
        <time>2024-07-23T14:17:00Z</time>
      </trkpt>
      <trkpt lat="44.51104" lon="1.13796">
        <ele>188</ele>
        <time>2024-07-23T14:17:01Z</time>
      </trkpt>
      <trkpt lat="44.51091" lon="1.13809">
        <ele>188.2</ele>
        <time>2024-07-23T14:17:06Z</time>
      </trkpt>
      <trkpt lat="44.51068" lon="1.13834">
        <ele>188.2</ele>
        <time>2024-07-23T14:17:12Z</time>
      </trkpt>
      <trkpt lat="44.51064" lon="1.13838">
        <ele>188.2</ele>
        <time>2024-07-23T14:17:13Z</time>
      </trkpt>
      <trkpt lat="44.51048" lon="1.13855">
        <ele>187.6</ele>
        <time>2024-07-23T14:17:17Z</time>
      </trkpt>
      <trkpt lat="44.51044" lon="1.13859">
        <ele>187.4</ele>
        <time>2024-07-23T14:17:18Z</time>
      </trkpt>
      <trkpt lat="44.51042" lon="1.13864">
        <ele>187.2</ele>
        <time>2024-07-23T14:17:19Z</time>
      </trkpt>
      <trkpt lat="44.5104" lon="1.13868">
        <ele>187.2</ele>
        <time>2024-07-23T14:17:20Z</time>
      </trkpt>
      <trkpt lat="44.5104" lon="1.1387">
        <ele>187.2</ele>
        <time>2024-07-23T14:17:21Z</time>
      </trkpt>
      <trkpt lat="44.51039" lon="1.13872">
        <ele>187.2</ele>
        <time>2024-07-23T14:17:22Z</time>
      </trkpt>
      <trkpt lat="44.51038" lon="1.13874">
        <ele>187.2</ele>
        <time>2024-07-23T14:17:23Z</time>
      </trkpt>
      <trkpt lat="44.51036" lon="1.13877">
        <ele>187.2</ele>
        <time>2024-07-23T14:17:24Z</time>
      </trkpt>
      <trkpt lat="44.51035" lon="1.13879">
        <ele>187.2</ele>
        <time>2024-07-23T14:17:25Z</time>
      </trkpt>
      <trkpt lat="44.51033" lon="1.13881">
        <ele>187.2</ele>
        <time>2024-07-23T14:17:26Z</time>
      </trkpt>
      <trkpt lat="44.51031" lon="1.13885">
        <ele>187.2</ele>
        <time>2024-07-23T14:17:27Z</time>
      </trkpt>
      <trkpt lat="44.51029" lon="1.13889">
        <ele>187.4</ele>
        <time>2024-07-23T14:17:28Z</time>
      </trkpt>
      <trkpt lat="44.51018" lon="1.13906">
        <ele>187.2</ele>
        <time>2024-07-23T14:17:33Z</time>
      </trkpt>
      <trkpt lat="44.51004" lon="1.13936">
        <ele>186.8</ele>
        <time>2024-07-23T14:17:39Z</time>
      </trkpt>
      <trkpt lat="44.50997" lon="1.13948">
        <ele>186.8</ele>
        <time>2024-07-23T14:17:41Z</time>
      </trkpt>
      <trkpt lat="44.50987" lon="1.13967">
        <ele>186.6</ele>
        <time>2024-07-23T14:17:44Z</time>
      </trkpt>
      <trkpt lat="44.50984" lon="1.13975">
        <ele>186.8</ele>
        <time>2024-07-23T14:17:45Z</time>
      </trkpt>
      <trkpt lat="44.50981" lon="1.13982">
        <ele>186.8</ele>
        <time>2024-07-23T14:17:46Z</time>
      </trkpt>
      <trkpt lat="44.50976" lon="1.13991">
        <ele>187</ele>
        <time>2024-07-23T14:17:48Z</time>
      </trkpt>
      <trkpt lat="44.50973" lon="1.13995">
        <ele>187</ele>
        <time>2024-07-23T14:17:49Z</time>
      </trkpt>
      <trkpt lat="44.5097" lon="1.13998">
        <ele>187</ele>
        <time>2024-07-23T14:17:50Z</time>
      </trkpt>
      <trkpt lat="44.50969" lon="1.14001">
        <ele>187</ele>
        <time>2024-07-23T14:17:51Z</time>
      </trkpt>
      <trkpt lat="44.50967" lon="1.14006">
        <ele>187</ele>
        <time>2024-07-23T14:17:52Z</time>
      </trkpt>
      <trkpt lat="44.5096" lon="1.14023">
        <ele>187.2</ele>
        <time>2024-07-23T14:17:55Z</time>
      </trkpt>
      <trkpt lat="44.50957" lon="1.14029">
        <ele>187.2</ele>
        <time>2024-07-23T14:17:56Z</time>
      </trkpt>
      <trkpt lat="44.50953" lon="1.14035">
        <ele>187.4</ele>
        <time>2024-07-23T14:17:57Z</time>
      </trkpt>
      <trkpt lat="44.50949" lon="1.14041">
        <ele>187.4</ele>
        <time>2024-07-23T14:17:58Z</time>
      </trkpt>
      <trkpt lat="44.50934" lon="1.1407">
        <ele>187.4</ele>
        <time>2024-07-23T14:18:03Z</time>
      </trkpt>
      <trkpt lat="44.50919" lon="1.14111">
        <ele>187.4</ele>
        <time>2024-07-23T14:18:09Z</time>
      </trkpt>
      <trkpt lat="44.50918" lon="1.14114">
        <ele>187.4</ele>
        <time>2024-07-23T14:18:10Z</time>
      </trkpt>
      <trkpt lat="44.50916" lon="1.14117">
        <ele>187.4</ele>
        <time>2024-07-23T14:18:11Z</time>
      </trkpt>
      <trkpt lat="44.50911" lon="1.14122">
        <ele>187.2</ele>
        <time>2024-07-23T14:18:13Z</time>
      </trkpt>
      <trkpt lat="44.50909" lon="1.14123">
        <ele>187</ele>
        <time>2024-07-23T14:18:14Z</time>
      </trkpt>
      <trkpt lat="44.50906" lon="1.14125">
        <ele>186.8</ele>
        <time>2024-07-23T14:18:15Z</time>
      </trkpt>
      <trkpt lat="44.509" lon="1.14126">
        <ele>186.6</ele>
        <time>2024-07-23T14:18:16Z</time>
      </trkpt>
      <trkpt lat="44.50897" lon="1.14126">
        <ele>186.6</ele>
        <time>2024-07-23T14:18:17Z</time>
      </trkpt>
      <trkpt lat="44.50895" lon="1.14126">
        <ele>186.4</ele>
        <time>2024-07-23T14:18:18Z</time>
      </trkpt>
      <trkpt lat="44.50892" lon="1.14125">
        <ele>186.2</ele>
        <time>2024-07-23T14:18:19Z</time>
      </trkpt>
      <trkpt lat="44.5089" lon="1.14123">
        <ele>186.2</ele>
        <time>2024-07-23T14:18:20Z</time>
      </trkpt>
      <trkpt lat="44.50887" lon="1.1412">
        <ele>186</ele>
        <time>2024-07-23T14:18:21Z</time>
      </trkpt>
      <trkpt lat="44.50885" lon="1.14118">
        <ele>186</ele>
        <time>2024-07-23T14:18:22Z</time>
      </trkpt>
      <trkpt lat="44.50878" lon="1.14119">
        <ele>185.8</ele>
        <time>2024-07-23T14:18:24Z</time>
      </trkpt>
      <trkpt lat="44.50873" lon="1.14121">
        <ele>185.6</ele>
        <time>2024-07-23T14:18:25Z</time>
      </trkpt>
      <trkpt lat="44.50869" lon="1.14124">
        <ele>185.6</ele>
        <time>2024-07-23T14:18:26Z</time>
      </trkpt>
      <trkpt lat="44.50864" lon="1.14126">
        <ele>185.4</ele>
        <time>2024-07-23T14:18:27Z</time>
      </trkpt>
      <trkpt lat="44.50854" lon="1.1413">
        <ele>185.4</ele>
        <time>2024-07-23T14:18:29Z</time>
      </trkpt>
      <trkpt lat="44.5085" lon="1.1413">
        <ele>185.2</ele>
        <time>2024-07-23T14:18:30Z</time>
      </trkpt>
      <trkpt lat="44.50844" lon="1.14132">
        <ele>185</ele>
        <time>2024-07-23T14:18:31Z</time>
      </trkpt>
      <trkpt lat="44.50827" lon="1.14137">
        <ele>184.4</ele>
        <time>2024-07-23T14:18:34Z</time>
      </trkpt>
      <trkpt lat="44.50822" lon="1.14139">
        <ele>184.2</ele>
        <time>2024-07-23T14:18:35Z</time>
      </trkpt>
      <trkpt lat="44.50817" lon="1.14141">
        <ele>184.2</ele>
        <time>2024-07-23T14:18:36Z</time>
      </trkpt>
      <trkpt lat="44.50797" lon="1.14145">
        <ele>183.2</ele>
        <time>2024-07-23T14:18:39Z</time>
      </trkpt>
      <trkpt lat="44.50788" lon="1.14148">
        <ele>182.8</ele>
        <time>2024-07-23T14:18:40Z</time>
      </trkpt>
      <trkpt lat="44.50768" lon="1.14156">
        <ele>182</ele>
        <time>2024-07-23T14:18:43Z</time>
      </trkpt>
      <trkpt lat="44.50752" lon="1.14162">
        <ele>180.8</ele>
        <time>2024-07-23T14:18:45Z</time>
      </trkpt>
      <trkpt lat="44.50738" lon="1.14166">
        <ele>178.8</ele>
        <time>2024-07-23T14:18:47Z</time>
      </trkpt>
      <trkpt lat="44.50724" lon="1.14168">
        <ele>177.6</ele>
        <time>2024-07-23T14:18:49Z</time>
      </trkpt>
      <trkpt lat="44.50717" lon="1.14169">
        <ele>177.2</ele>
        <time>2024-07-23T14:18:50Z</time>
      </trkpt>
      <trkpt lat="44.5071" lon="1.14172">
        <ele>176.2</ele>
        <time>2024-07-23T14:18:51Z</time>
      </trkpt>
      <trkpt lat="44.50704" lon="1.14176">
        <ele>175.4</ele>
        <time>2024-07-23T14:18:52Z</time>
      </trkpt>
      <trkpt lat="44.507" lon="1.14181">
        <ele>175</ele>
        <time>2024-07-23T14:18:53Z</time>
      </trkpt>
      <trkpt lat="44.50696" lon="1.14185">
        <ele>174</ele>
        <time>2024-07-23T14:18:54Z</time>
      </trkpt>
      <trkpt lat="44.50693" lon="1.14189">
        <ele>173.6</ele>
        <time>2024-07-23T14:18:55Z</time>
      </trkpt>
      <trkpt lat="44.5069" lon="1.14191">
        <ele>172.8</ele>
        <time>2024-07-23T14:18:56Z</time>
      </trkpt>
      <trkpt lat="44.50687" lon="1.14192">
        <ele>172.2</ele>
        <time>2024-07-23T14:18:57Z</time>
      </trkpt>
      <trkpt lat="44.50683" lon="1.14191">
        <ele>171.6</ele>
        <time>2024-07-23T14:18:58Z</time>
      </trkpt>
      <trkpt lat="44.5068" lon="1.14188">
        <ele>171</ele>
        <time>2024-07-23T14:18:59Z</time>
      </trkpt>
      <trkpt lat="44.50675" lon="1.14182">
        <ele>170.4</ele>
        <time>2024-07-23T14:19:01Z</time>
      </trkpt>
      <trkpt lat="44.50673" lon="1.14179">
        <ele>170</ele>
        <time>2024-07-23T14:19:02Z</time>
      </trkpt>
      <trkpt lat="44.50671" lon="1.14176">
        <ele>169.6</ele>
        <time>2024-07-23T14:19:03Z</time>
      </trkpt>
      <trkpt lat="44.5067" lon="1.14174">
        <ele>169.2</ele>
        <time>2024-07-23T14:19:04Z</time>
      </trkpt>
      <trkpt lat="44.50669" lon="1.14171">
        <ele>169</ele>
        <time>2024-07-23T14:19:05Z</time>
      </trkpt>
      <trkpt lat="44.50668" lon="1.14169">
        <ele>168.6</ele>
        <time>2024-07-23T14:19:06Z</time>
      </trkpt>
      <trkpt lat="44.50667" lon="1.14168">
        <ele>168.4</ele>
        <time>2024-07-23T14:19:07Z</time>
      </trkpt>
      <trkpt lat="44.50666" lon="1.14166">
        <ele>168</ele>
        <time>2024-07-23T14:19:08Z</time>
      </trkpt>
      <trkpt lat="44.50665" lon="1.14164">
        <ele>167.8</ele>
        <time>2024-07-23T14:19:09Z</time>
      </trkpt>
      <trkpt lat="44.50661" lon="1.14158">
        <ele>166.8</ele>
        <time>2024-07-23T14:19:13Z</time>
      </trkpt>
      <trkpt lat="44.50659" lon="1.14155">
        <ele>166.6</ele>
        <time>2024-07-23T14:19:15Z</time>
      </trkpt>
      <trkpt lat="44.50652" lon="1.14143">
        <ele>165.6</ele>
        <time>2024-07-23T14:19:21Z</time>
      </trkpt>
      <trkpt lat="44.50649" lon="1.1414">
        <ele>165.2</ele>
        <time>2024-07-23T14:19:23Z</time>
      </trkpt>
      <trkpt lat="44.50648" lon="1.14139">
        <ele>165</ele>
        <time>2024-07-23T14:19:24Z</time>
      </trkpt>
      <trkpt lat="44.50647" lon="1.14137">
        <ele>164.8</ele>
        <time>2024-07-23T14:19:25Z</time>
      </trkpt>
      <trkpt lat="44.50647" lon="1.14135">
        <ele>164.6</ele>
        <time>2024-07-23T14:19:26Z</time>
      </trkpt>
      <trkpt lat="44.50648" lon="1.14133">
        <ele>164.4</ele>
        <time>2024-07-23T14:19:27Z</time>
      </trkpt>
      <trkpt lat="44.50648" lon="1.1413">
        <ele>164.4</ele>
        <time>2024-07-23T14:19:28Z</time>
      </trkpt>
      <trkpt lat="44.50649" lon="1.14126">
        <ele>164.4</ele>
        <time>2024-07-23T14:19:29Z</time>
      </trkpt>
      <trkpt lat="44.5065" lon="1.14108">
        <ele>163.8</ele>
        <time>2024-07-23T14:19:33Z</time>
      </trkpt>
      <trkpt lat="44.50651" lon="1.14097">
        <ele>163.6</ele>
        <time>2024-07-23T14:19:35Z</time>
      </trkpt>
      <trkpt lat="44.50653" lon="1.14076">
        <ele>163.2</ele>
        <time>2024-07-23T14:19:38Z</time>
      </trkpt>
      <trkpt lat="44.50656" lon="1.14053">
        <ele>162.6</ele>
        <time>2024-07-23T14:19:41Z</time>
      </trkpt>
      <trkpt lat="44.50659" lon="1.14038">
        <ele>161.6</ele>
        <time>2024-07-23T14:19:43Z</time>
      </trkpt>
      <trkpt lat="44.50661" lon="1.14031">
        <ele>161.2</ele>
        <time>2024-07-23T14:19:44Z</time>
      </trkpt>
      <trkpt lat="44.50669" lon="1.13999">
        <ele>160</ele>
        <time>2024-07-23T14:19:48Z</time>
      </trkpt>
      <trkpt lat="44.50673" lon="1.13976">
        <ele>159</ele>
        <time>2024-07-23T14:19:51Z</time>
      </trkpt>
      <trkpt lat="44.50675" lon="1.13969">
        <ele>158.6</ele>
        <time>2024-07-23T14:19:52Z</time>
      </trkpt>
      <trkpt lat="44.50676" lon="1.13962">
        <ele>158.2</ele>
        <time>2024-07-23T14:19:53Z</time>
      </trkpt>
      <trkpt lat="44.50676" lon="1.13955">
        <ele>157.8</ele>
        <time>2024-07-23T14:19:54Z</time>
      </trkpt>
      <trkpt lat="44.50676" lon="1.13948">
        <ele>157.6</ele>
        <time>2024-07-23T14:19:55Z</time>
      </trkpt>
      <trkpt lat="44.50675" lon="1.13942">
        <ele>157.2</ele>
        <time>2024-07-23T14:19:56Z</time>
      </trkpt>
      <trkpt lat="44.50672" lon="1.13936">
        <ele>157</ele>
        <time>2024-07-23T14:19:57Z</time>
      </trkpt>
      <trkpt lat="44.50669" lon="1.13931">
        <ele>156.2</ele>
        <time>2024-07-23T14:19:58Z</time>
      </trkpt>
      <trkpt lat="44.50664" lon="1.13926">
        <ele>155.8</ele>
        <time>2024-07-23T14:19:59Z</time>
      </trkpt>
      <trkpt lat="44.5066" lon="1.13922">
        <ele>155.4</ele>
        <time>2024-07-23T14:20:00Z</time>
      </trkpt>
      <trkpt lat="44.50654" lon="1.13917">
        <ele>155.2</ele>
        <time>2024-07-23T14:20:01Z</time>
      </trkpt>
      <trkpt lat="44.50643" lon="1.1391">
        <ele>154.8</ele>
        <time>2024-07-23T14:20:03Z</time>
      </trkpt>
      <trkpt lat="44.50631" lon="1.13903">
        <ele>154.4</ele>
        <time>2024-07-23T14:20:05Z</time>
      </trkpt>
      <trkpt lat="44.50625" lon="1.139">
        <ele>154.2</ele>
        <time>2024-07-23T14:20:06Z</time>
      </trkpt>
      <trkpt lat="44.50608" lon="1.13889">
        <ele>153</ele>
        <time>2024-07-23T14:20:09Z</time>
      </trkpt>
      <trkpt lat="44.50603" lon="1.13886">
        <ele>152.6</ele>
        <time>2024-07-23T14:20:10Z</time>
      </trkpt>
      <trkpt lat="44.50598" lon="1.13882">
        <ele>152.6</ele>
        <time>2024-07-23T14:20:11Z</time>
      </trkpt>
      <trkpt lat="44.50593" lon="1.13879">
        <ele>152.4</ele>
        <time>2024-07-23T14:20:12Z</time>
      </trkpt>
      <trkpt lat="44.50589" lon="1.13876">
        <ele>151.8</ele>
        <time>2024-07-23T14:20:13Z</time>
      </trkpt>
      <trkpt lat="44.50585" lon="1.13872">
        <ele>151.8</ele>
        <time>2024-07-23T14:20:14Z</time>
      </trkpt>
      <trkpt lat="44.50581" lon="1.13869">
        <ele>151.2</ele>
        <time>2024-07-23T14:20:15Z</time>
      </trkpt>
      <trkpt lat="44.50577" lon="1.13866">
        <ele>151</ele>
        <time>2024-07-23T14:20:16Z</time>
      </trkpt>
      <trkpt lat="44.50573" lon="1.13864">
        <ele>150.8</ele>
        <time>2024-07-23T14:20:17Z</time>
      </trkpt>
      <trkpt lat="44.50556" lon="1.13852">
        <ele>149.8</ele>
        <time>2024-07-23T14:20:21Z</time>
      </trkpt>
      <trkpt lat="44.50552" lon="1.1385">
        <ele>149.2</ele>
        <time>2024-07-23T14:20:22Z</time>
      </trkpt>
      <trkpt lat="44.50548" lon="1.13848">
        <ele>148.6</ele>
        <time>2024-07-23T14:20:23Z</time>
      </trkpt>
      <trkpt lat="44.50545" lon="1.13846">
        <ele>148.4</ele>
        <time>2024-07-23T14:20:24Z</time>
      </trkpt>
      <trkpt lat="44.50543" lon="1.13846">
        <ele>148</ele>
        <time>2024-07-23T14:20:25Z</time>
      </trkpt>
      <trkpt lat="44.50541" lon="1.13845">
        <ele>147.8</ele>
        <time>2024-07-23T14:20:26Z</time>
      </trkpt>
      <trkpt lat="44.5054" lon="1.13843">
        <ele>147.6</ele>
        <time>2024-07-23T14:20:27Z</time>
      </trkpt>
      <trkpt lat="44.50538" lon="1.13841">
        <ele>147.6</ele>
        <time>2024-07-23T14:20:28Z</time>
      </trkpt>
      <trkpt lat="44.50536" lon="1.1384">
        <ele>147</ele>
        <time>2024-07-23T14:20:29Z</time>
      </trkpt>
      <trkpt lat="44.50534" lon="1.1384">
        <ele>146.8</ele>
        <time>2024-07-23T14:20:30Z</time>
      </trkpt>
      <trkpt lat="44.50531" lon="1.1384">
        <ele>146.8</ele>
        <time>2024-07-23T14:20:31Z</time>
      </trkpt>
      <trkpt lat="44.50528" lon="1.13841">
        <ele>146.6</ele>
        <time>2024-07-23T14:20:32Z</time>
      </trkpt>
      <trkpt lat="44.50525" lon="1.13842">
        <ele>146.6</ele>
        <time>2024-07-23T14:20:33Z</time>
      </trkpt>
      <trkpt lat="44.50521" lon="1.13843">
        <ele>146.4</ele>
        <time>2024-07-23T14:20:34Z</time>
      </trkpt>
      <trkpt lat="44.50511" lon="1.13847">
        <ele>146.2</ele>
        <time>2024-07-23T14:20:37Z</time>
      </trkpt>
      <trkpt lat="44.50507" lon="1.13848">
        <ele>146.2</ele>
        <time>2024-07-23T14:20:38Z</time>
      </trkpt>
      <trkpt lat="44.50483" lon="1.13856">
        <ele>146.6</ele>
        <time>2024-07-23T14:20:45Z</time>
      </trkpt>
      <trkpt lat="44.50473" lon="1.13861">
        <ele>147.4</ele>
        <time>2024-07-23T14:20:48Z</time>
      </trkpt>
      <trkpt lat="44.50469" lon="1.13863">
        <ele>147.6</ele>
        <time>2024-07-23T14:20:49Z</time>
      </trkpt>
      <trkpt lat="44.50466" lon="1.13864">
        <ele>147.8</ele>
        <time>2024-07-23T14:20:50Z</time>
      </trkpt>
      <trkpt lat="44.50463" lon="1.13866">
        <ele>147.8</ele>
        <time>2024-07-23T14:20:51Z</time>
      </trkpt>
      <trkpt lat="44.5046" lon="1.13868">
        <ele>147.8</ele>
        <time>2024-07-23T14:20:52Z</time>
      </trkpt>
      <trkpt lat="44.50458" lon="1.13869">
        <ele>147.8</ele>
        <time>2024-07-23T14:20:53Z</time>
      </trkpt>
      <trkpt lat="44.50456" lon="1.13869">
        <ele>148</ele>
        <time>2024-07-23T14:20:54Z</time>
      </trkpt>
      <trkpt lat="44.50453" lon="1.1387">
        <ele>148</ele>
        <time>2024-07-23T14:20:55Z</time>
      </trkpt>
      <trkpt lat="44.50451" lon="1.1387">
        <ele>148</ele>
        <time>2024-07-23T14:20:56Z</time>
      </trkpt>
      <trkpt lat="44.50449" lon="1.13871">
        <ele>148</ele>
        <time>2024-07-23T14:20:57Z</time>
      </trkpt>
      <trkpt lat="44.50431" lon="1.13878">
        <ele>148</ele>
        <time>2024-07-23T14:21:03Z</time>
      </trkpt>
      <trkpt lat="44.50415" lon="1.13886">
        <ele>147.8</ele>
        <time>2024-07-23T14:21:08Z</time>
      </trkpt>
      <trkpt lat="44.50412" lon="1.13889">
        <ele>147.6</ele>
        <time>2024-07-23T14:21:09Z</time>
      </trkpt>
      <trkpt lat="44.50402" lon="1.13901">
        <ele>147.2</ele>
        <time>2024-07-23T14:21:13Z</time>
      </trkpt>
      <trkpt lat="44.504" lon="1.13903">
        <ele>147.2</ele>
        <time>2024-07-23T14:21:14Z</time>
      </trkpt>
      <trkpt lat="44.50398" lon="1.13905">
        <ele>147</ele>
        <time>2024-07-23T14:21:15Z</time>
      </trkpt>
      <trkpt lat="44.50387" lon="1.13912">
        <ele>146.6</ele>
        <time>2024-07-23T14:21:19Z</time>
      </trkpt>
      <trkpt lat="44.50384" lon="1.1391">
        <ele>146.4</ele>
        <time>2024-07-23T14:21:20Z</time>
      </trkpt>
      <trkpt lat="44.50382" lon="1.13907">
        <ele>146.4</ele>
        <time>2024-07-23T14:21:21Z</time>
      </trkpt>
      <trkpt lat="44.5038" lon="1.13905">
        <ele>146.4</ele>
        <time>2024-07-23T14:21:22Z</time>
      </trkpt>
      <trkpt lat="44.50378" lon="1.13902">
        <ele>146.6</ele>
        <time>2024-07-23T14:21:23Z</time>
      </trkpt>
      <trkpt lat="44.50376" lon="1.13902">
        <ele>146.6</ele>
        <time>2024-07-23T14:21:24Z</time>
      </trkpt>
      <trkpt lat="44.50373" lon="1.13902">
        <ele>146.4</ele>
        <time>2024-07-23T14:21:25Z</time>
      </trkpt>
      <trkpt lat="44.50369" lon="1.13906">
        <ele>146.4</ele>
        <time>2024-07-23T14:21:27Z</time>
      </trkpt>
      <trkpt lat="44.50367" lon="1.13908">
        <ele>146.4</ele>
        <time>2024-07-23T14:21:28Z</time>
      </trkpt>
      <trkpt lat="44.50366" lon="1.13911">
        <ele>146.4</ele>
        <time>2024-07-23T14:21:29Z</time>
      </trkpt>
      <trkpt lat="44.50366" lon="1.13915">
        <ele>146.4</ele>
        <time>2024-07-23T14:21:30Z</time>
      </trkpt>
      <trkpt lat="44.50367" lon="1.13918">
        <ele>146.4</ele>
        <time>2024-07-23T14:21:31Z</time>
      </trkpt>
      <trkpt lat="44.50368" lon="1.13921">
        <ele>146.4</ele>
        <time>2024-07-23T14:21:32Z</time>
      </trkpt>
      <trkpt lat="44.5037" lon="1.13924">
        <ele>146.2</ele>
        <time>2024-07-23T14:21:33Z</time>
      </trkpt>
      <trkpt lat="44.50373" lon="1.13926">
        <ele>146.2</ele>
        <time>2024-07-23T14:21:34Z</time>
      </trkpt>
      <trkpt lat="44.50378" lon="1.13928">
        <ele>146.2</ele>
        <time>2024-07-23T14:21:36Z</time>
      </trkpt>
      <trkpt lat="44.50381" lon="1.13929">
        <ele>146.2</ele>
        <time>2024-07-23T14:21:37Z</time>
      </trkpt>
      <trkpt lat="44.5039" lon="1.13929">
        <ele>145.8</ele>
        <time>2024-07-23T14:21:41Z</time>
      </trkpt>
      <trkpt lat="44.50391" lon="1.13929">
        <ele>145.6</ele>
        <time>2024-07-23T14:21:42Z</time>
      </trkpt>
      <trkpt lat="44.50393" lon="1.13929">
        <ele>145.6</ele>
        <time>2024-07-23T14:21:43Z</time>
      </trkpt>
      <trkpt lat="44.50394" lon="1.13929">
        <ele>145.4</ele>
        <time>2024-07-23T14:21:44Z</time>
      </trkpt>
      <trkpt lat="44.50394" lon="1.13929">
        <ele>145.4</ele>
        <time>2024-07-23T14:21:46Z</time>
      </trkpt>
      <trkpt lat="44.50397" lon="1.13929">
        <ele>144.4</ele>
        <time>2024-07-23T14:23:18Z</time>
      </trkpt>
      <trkpt lat="44.50403" lon="1.13922">
        <ele>144.4</ele>
        <time>2024-07-23T14:23:21Z</time>
      </trkpt>
      <trkpt lat="44.50404" lon="1.13918">
        <ele>144.6</ele>
        <time>2024-07-23T14:23:22Z</time>
      </trkpt>
      <trkpt lat="44.50405" lon="1.13915">
        <ele>144.6</ele>
        <time>2024-07-23T14:23:23Z</time>
      </trkpt>
      <trkpt lat="44.50406" lon="1.13912">
        <ele>144.6</ele>
        <time>2024-07-23T14:23:24Z</time>
      </trkpt>
      <trkpt lat="44.50413" lon="1.139">
        <ele>145.2</ele>
        <time>2024-07-23T14:23:29Z</time>
      </trkpt>
      <trkpt lat="44.50418" lon="1.13894">
        <ele>145.6</ele>
        <time>2024-07-23T14:23:32Z</time>
      </trkpt>
      <trkpt lat="44.50431" lon="1.13885">
        <ele>146</ele>
        <time>2024-07-23T14:23:38Z</time>
      </trkpt>
      <trkpt lat="44.50438" lon="1.13881">
        <ele>146.2</ele>
        <time>2024-07-23T14:23:41Z</time>
      </trkpt>
      <trkpt lat="44.5045" lon="1.13877">
        <ele>146.8</ele>
        <time>2024-07-23T14:23:46Z</time>
      </trkpt>
      <trkpt lat="44.50453" lon="1.13876">
        <ele>146.8</ele>
        <time>2024-07-23T14:23:47Z</time>
      </trkpt>
      <trkpt lat="44.50472" lon="1.13867">
        <ele>147.4</ele>
        <time>2024-07-23T14:23:54Z</time>
      </trkpt>
      <trkpt lat="44.50487" lon="1.13858">
        <ele>147.4</ele>
        <time>2024-07-23T14:23:59Z</time>
      </trkpt>
      <trkpt lat="44.50492" lon="1.13855">
        <ele>147.4</ele>
        <time>2024-07-23T14:24:01Z</time>
      </trkpt>
      <trkpt lat="44.50498" lon="1.13851">
        <ele>147.4</ele>
        <time>2024-07-23T14:24:03Z</time>
      </trkpt>
      <trkpt lat="44.50522" lon="1.13844">
        <ele>147</ele>
        <time>2024-07-23T14:24:10Z</time>
      </trkpt>
      <trkpt lat="44.50535" lon="1.13836">
        <ele>146.8</ele>
        <time>2024-07-23T14:24:14Z</time>
      </trkpt>
      <trkpt lat="44.50542" lon="1.13826">
        <ele>146.6</ele>
        <time>2024-07-23T14:24:17Z</time>
      </trkpt>
      <trkpt lat="44.50544" lon="1.13822">
        <ele>146.6</ele>
        <time>2024-07-23T14:24:18Z</time>
      </trkpt>
      <trkpt lat="44.50546" lon="1.13818">
        <ele>146.4</ele>
        <time>2024-07-23T14:24:19Z</time>
      </trkpt>
      <trkpt lat="44.50547" lon="1.13813">
        <ele>146.4</ele>
        <time>2024-07-23T14:24:20Z</time>
      </trkpt>
      <trkpt lat="44.50548" lon="1.13807">
        <ele>146.4</ele>
        <time>2024-07-23T14:24:21Z</time>
      </trkpt>
      <trkpt lat="44.50549" lon="1.13801">
        <ele>146.4</ele>
        <time>2024-07-23T14:24:22Z</time>
      </trkpt>
      <trkpt lat="44.5055" lon="1.13784">
        <ele>146.4</ele>
        <time>2024-07-23T14:24:25Z</time>
      </trkpt>
      <trkpt lat="44.50546" lon="1.13759">
        <ele>146.4</ele>
        <time>2024-07-23T14:24:30Z</time>
      </trkpt>
      <trkpt lat="44.50536" lon="1.13744">
        <ele>146.6</ele>
        <time>2024-07-23T14:24:34Z</time>
      </trkpt>
      <trkpt lat="44.50533" lon="1.13741">
        <ele>146.8</ele>
        <time>2024-07-23T14:24:35Z</time>
      </trkpt>
      <trkpt lat="44.5053" lon="1.13737">
        <ele>146.8</ele>
        <time>2024-07-23T14:24:36Z</time>
      </trkpt>
      <trkpt lat="44.50518" lon="1.13723">
        <ele>146.8</ele>
        <time>2024-07-23T14:24:40Z</time>
      </trkpt>
      <trkpt lat="44.50515" lon="1.1372">
        <ele>146.8</ele>
        <time>2024-07-23T14:24:41Z</time>
      </trkpt>
      <trkpt lat="44.50509" lon="1.13713">
        <ele>146.8</ele>
        <time>2024-07-23T14:24:43Z</time>
      </trkpt>
      <trkpt lat="44.50491" lon="1.13693">
        <ele>147</ele>
        <time>2024-07-23T14:24:49Z</time>
      </trkpt>
      <trkpt lat="44.50488" lon="1.13689">
        <ele>147</ele>
        <time>2024-07-23T14:24:50Z</time>
      </trkpt>
      <trkpt lat="44.50485" lon="1.13686">
        <ele>147.2</ele>
        <time>2024-07-23T14:24:51Z</time>
      </trkpt>
      <trkpt lat="44.50475" lon="1.13675">
        <ele>147.2</ele>
        <time>2024-07-23T14:24:54Z</time>
      </trkpt>
      <trkpt lat="44.50469" lon="1.13669">
        <ele>147.4</ele>
        <time>2024-07-23T14:24:56Z</time>
      </trkpt>
      <trkpt lat="44.50467" lon="1.13666">
        <ele>147.6</ele>
        <time>2024-07-23T14:24:57Z</time>
      </trkpt>
      <trkpt lat="44.50466" lon="1.13663">
        <ele>147.8</ele>
        <time>2024-07-23T14:24:58Z</time>
      </trkpt>
      <trkpt lat="44.50464" lon="1.1366">
        <ele>147.8</ele>
        <time>2024-07-23T14:24:59Z</time>
      </trkpt>
      <trkpt lat="44.50463" lon="1.13657">
        <ele>147.8</ele>
        <time>2024-07-23T14:25:00Z</time>
      </trkpt>
      <trkpt lat="44.50455" lon="1.13643">
        <ele>148</ele>
        <time>2024-07-23T14:25:04Z</time>
      </trkpt>
      <trkpt lat="44.50453" lon="1.1364">
        <ele>148</ele>
        <time>2024-07-23T14:25:05Z</time>
      </trkpt>
      <trkpt lat="44.50452" lon="1.13637">
        <ele>148</ele>
        <time>2024-07-23T14:25:06Z</time>
      </trkpt>
      <trkpt lat="44.50451" lon="1.13634">
        <ele>148</ele>
        <time>2024-07-23T14:25:07Z</time>
      </trkpt>
      <trkpt lat="44.5045" lon="1.13631">
        <ele>148</ele>
        <time>2024-07-23T14:25:08Z</time>
      </trkpt>
      <trkpt lat="44.50448" lon="1.13628">
        <ele>147.8</ele>
        <time>2024-07-23T14:25:09Z</time>
      </trkpt>
      <trkpt lat="44.50448" lon="1.13625">
        <ele>147.8</ele>
        <time>2024-07-23T14:25:10Z</time>
      </trkpt>
      <trkpt lat="44.50447" lon="1.13622">
        <ele>147.8</ele>
        <time>2024-07-23T14:25:11Z</time>
      </trkpt>
      <trkpt lat="44.50447" lon="1.1362">
        <ele>147.8</ele>
        <time>2024-07-23T14:25:12Z</time>
      </trkpt>
      <trkpt lat="44.50447" lon="1.13619">
        <ele>147.8</ele>
        <time>2024-07-23T14:25:13Z</time>
      </trkpt>
      <trkpt lat="44.50447" lon="1.13619">
        <ele>147.8</ele>
        <time>2024-07-23T14:25:14Z</time>
      </trkpt>
      <trkpt lat="44.50447" lon="1.13619">
        <ele>147.8</ele>
        <time>2024-07-23T14:25:15Z</time>
      </trkpt>
    </trkseg>
  </trk>
</gpx>